<?xml version='1.0' encoding='UTF-8'?><gpx version="1.1" creator="JPX - https://github.com/jenetics/jpx" xmlns="http://www.topografix.com/GPX/1/1"><trk><trkseg><trkpt lat="45.8540490056044" lon="9.275756317000965"><ele>391.99999999999994</ele><time>2026-04-25T07:25:16.001Z</time></trkpt><trkpt lat="45.85401902759831" lon="9.275653653338159"><ele>392.0</ele><time>2026-04-25T07:25:48.002Z</time></trkpt><trkpt lat="45.85393557887585" lon="9.275650803861549"><ele>392.0</ele><time>2026-04-25T07:25:50.002Z</time></trkpt><trkpt lat="45.85382069641724" lon="9.275718851238699"><ele>392.0</ele><time>2026-04-25T07:25:52.002Z</time></trkpt><trkpt lat="45.85376267165937" lon="9.275758354471623"><ele>391.99999999999994</ele><time>2026-04-25T07:25:53.002Z</time></trkpt><trkpt lat="45.853687151620726" lon="9.275820705732407"><ele>392.0</ele><time>2026-04-25T07:25:55.002Z</time></trkpt><trkpt lat="45.85359598140435" lon="9.275875964992602"><ele>391.99999999999994</ele><time>2026-04-25T07:25:57.002Z</time></trkpt><trkpt lat="45.85346420554471" lon="9.275863998690932"><ele>392.0</ele><time>2026-04-25T07:25:59.002Z</time></trkpt><trkpt lat="45.85340380592471" lon="9.275838166173754"><ele>392.0</ele><time>2026-04-25T07:26:00.002Z</time></trkpt><trkpt lat="45.85333861268218" lon="9.27581430551499"><ele>392.0</ele><time>2026-04-25T07:26:01.002Z</time></trkpt><trkpt lat="45.85325207538999" lon="9.275793856972431"><ele>391.99999999999994</ele><time>2026-04-25T07:26:02.002Z</time></trkpt><trkpt lat="45.85315364576518" lon="9.275777154613097"><ele>392.0</ele><time>2026-04-25T07:26:03.002Z</time></trkpt><trkpt lat="45.853037239630694" lon="9.275771594255305"><ele>392.0</ele><time>2026-04-25T07:26:04.002Z</time></trkpt><trkpt lat="45.85290698221286" lon="9.275758473049317"><ele>392.0</ele><time>2026-04-25T07:26:05.002Z</time></trkpt><trkpt lat="45.85277768839236" lon="9.275757599623056"><ele>392.0</ele><time>2026-04-25T07:26:06.002Z</time></trkpt><trkpt lat="45.852659014509506" lon="9.275759066737189"><ele>392.0</ele><time>2026-04-25T07:26:07.002Z</time></trkpt><trkpt lat="45.85253811903435" lon="9.27575769705347"><ele>392.75</ele><time>2026-04-25T07:26:08.002Z</time></trkpt><trkpt lat="45.85240555134125" lon="9.275751516015733"><ele>393.5</ele><time>2026-04-25T07:26:09.002Z</time></trkpt><trkpt lat="45.852278801559066" lon="9.275737572118626"><ele>394.25</ele><time>2026-04-25T07:26:10.002Z</time></trkpt><trkpt lat="45.85217599281261" lon="9.27569535060452"><ele>395.0</ele><time>2026-04-25T07:26:11.002Z</time></trkpt><trkpt lat="45.85209212494674" lon="9.275614068102664"><ele>395.2</ele><time>2026-04-25T07:26:12.002Z</time></trkpt><trkpt lat="45.85203647005563" lon="9.275527750800045"><ele>395.4</ele><time>2026-04-25T07:26:13.002Z</time></trkpt><trkpt lat="45.85198283539596" lon="9.275427636184903"><ele>395.6</ele><time>2026-04-25T07:26:14.002Z</time></trkpt><trkpt lat="45.85194422934473" lon="9.275311244206613"><ele>395.8</ele><time>2026-04-25T07:26:15.002Z</time></trkpt><trkpt lat="45.851902436573674" lon="9.275182784370402"><ele>396.0</ele><time>2026-04-25T07:26:16.002Z</time></trkpt><trkpt lat="45.85185578141595" lon="9.275060020247052"><ele>396.0</ele><time>2026-04-25T07:26:17.002Z</time></trkpt><trkpt lat="45.85180982599609" lon="9.27493588070083"><ele>396.0</ele><time>2026-04-25T07:26:18.002Z</time></trkpt><trkpt lat="45.85176601150851" lon="9.274806525105058"><ele>396.0</ele><time>2026-04-25T07:26:19.002Z</time></trkpt><trkpt lat="45.85171778617563" lon="9.274680659625748"><ele>396.0</ele><time>2026-04-25T07:26:20.002Z</time></trkpt><trkpt lat="45.85166781250082" lon="9.274563289305934"><ele>396.0</ele><time>2026-04-25T07:26:21.002Z</time></trkpt><trkpt lat="45.851610551214605" lon="9.274454514267182"><ele>396.3333333333333</ele><time>2026-04-25T07:26:22.002Z</time></trkpt><trkpt lat="45.851550236078715" lon="9.27435347258564"><ele>396.66666666666663</ele><time>2026-04-25T07:26:23.002Z</time></trkpt><trkpt lat="45.851501231742056" lon="9.274256139531232"><ele>397.0</ele><time>2026-04-25T07:26:24.002Z</time></trkpt><trkpt lat="45.851456975659715" lon="9.274156477721872"><ele>397.3333333333333</ele><time>2026-04-25T07:26:25.002Z</time></trkpt><trkpt lat="45.85141139556377" lon="9.27408395967069"><ele>397.66666666666663</ele><time>2026-04-25T07:26:26.002Z</time></trkpt><trkpt lat="45.85133864454177" lon="9.27396118437254"><ele>398.0</ele><time>2026-04-25T07:26:28.002Z</time></trkpt><trkpt lat="45.85133564712065" lon="9.273860588935817"><ele>398.0</ele><time>2026-04-25T07:26:30.003Z</time></trkpt><trkpt lat="45.85140480720464" lon="9.273740456454382"><ele>398.0</ele><time>2026-04-25T07:26:32.003Z</time></trkpt><trkpt lat="45.85146424682206" lon="9.273669890104479"><ele>398.0</ele><time>2026-04-25T07:26:33.003Z</time></trkpt><trkpt lat="45.85153016787432" lon="9.273588723051356"><ele>398.0</ele><time>2026-04-25T07:26:34.003Z</time></trkpt><trkpt lat="45.851608585644954" lon="9.273499588790656"><ele>398.0</ele><time>2026-04-25T07:26:35.003Z</time></trkpt><trkpt lat="45.85168138512034" lon="9.27341264433124"><ele>397.99999999999994</ele><time>2026-04-25T07:26:36.003Z</time></trkpt><trkpt lat="45.85174485016054" lon="9.273344126788098"><ele>398.0</ele><time>2026-04-25T07:26:37.003Z</time></trkpt><trkpt lat="45.85180791402009" lon="9.273286477878885"><ele>398.0</ele><time>2026-04-25T07:26:38.003Z</time></trkpt><trkpt lat="45.85186090985232" lon="9.273233324315528"><ele>398.0</ele><time>2026-04-25T07:26:39.003Z</time></trkpt><trkpt lat="45.85191121375784" lon="9.273175170080856"><ele>397.99999999999994</ele><time>2026-04-25T07:26:40.003Z</time></trkpt><trkpt lat="45.85194956850755" lon="9.273099989909591"><ele>398.0</ele><time>2026-04-25T07:26:41.003Z</time></trkpt><trkpt lat="45.85194502194293" lon="9.272920709448172"><ele>397.75</ele><time>2026-04-25T07:26:43.003Z</time></trkpt><trkpt lat="45.85189533262667" lon="9.272772187674507"><ele>397.5</ele><time>2026-04-25T07:26:44.003Z</time></trkpt><trkpt lat="45.85184057573686" lon="9.272594924054198"><ele>397.25</ele><time>2026-04-25T07:26:45.003Z</time></trkpt><trkpt lat="45.85179625396937" lon="9.272442645204938"><ele>397.0</ele><time>2026-04-25T07:26:46.003Z</time></trkpt><trkpt lat="45.851753559354115" lon="9.27228326706272"><ele>397.0</ele><time>2026-04-25T07:26:47.003Z</time></trkpt><trkpt lat="45.85171436300594" lon="9.272125549384112"><ele>397.0</ele><time>2026-04-25T07:26:48.003Z</time></trkpt><trkpt lat="45.85166635618464" lon="9.271956909810752"><ele>397.0</ele><time>2026-04-25T07:26:49.003Z</time></trkpt><trkpt lat="45.85161508719532" lon="9.271798198060145"><ele>397.0</ele><time>2026-04-25T07:26:50.003Z</time></trkpt><trkpt lat="45.851548414135294" lon="9.271685124311757"><ele>397.0</ele><time>2026-04-25T07:26:51.003Z</time></trkpt><trkpt lat="45.851443934311284" lon="9.271617439241538"><ele>397.0</ele><time>2026-04-25T07:26:52.003Z</time></trkpt><trkpt lat="45.851322241688486" lon="9.271572653184739"><ele>397.0</ele><time>2026-04-25T07:26:53.003Z</time></trkpt><trkpt lat="45.85115587046429" lon="9.271506775239795"><ele>397.0</ele><time>2026-04-25T07:26:54.003Z</time></trkpt><trkpt lat="45.85101216174435" lon="9.271427461622444"><ele>396.0</ele><time>2026-04-25T07:26:55.003Z</time></trkpt><trkpt lat="45.850880430082874" lon="9.271336331459125"><ele>395.0</ele><time>2026-04-25T07:26:56.003Z</time></trkpt><trkpt lat="45.85076362997501" lon="9.271256525909536"><ele>394.0</ele><time>2026-04-25T07:26:57.003Z</time></trkpt><trkpt lat="45.850642808233076" lon="9.27119119683214"><ele>393.0</ele><time>2026-04-25T07:26:58.003Z</time></trkpt><trkpt lat="45.85052691736208" lon="9.27116205385403"><ele>393.0</ele><time>2026-04-25T07:26:59.003Z</time></trkpt><trkpt lat="45.85040922020524" lon="9.271181722300534"><ele>393.0</ele><time>2026-04-25T07:27:00.003Z</time></trkpt><trkpt lat="45.8502917174824" lon="9.271223480657957"><ele>393.0</ele><time>2026-04-25T07:27:01.003Z</time></trkpt><trkpt lat="45.85017962480846" lon="9.271278989132867"><ele>393.0</ele><time>2026-04-25T07:27:02.003Z</time></trkpt><trkpt lat="45.85007869685976" lon="9.271337556636269"><ele>393.0</ele><time>2026-04-25T07:27:03.003Z</time></trkpt><trkpt lat="45.84998086235524" lon="9.271393004683754"><ele>393.0</ele><time>2026-04-25T07:27:04.003Z</time></trkpt><trkpt lat="45.849881561878654" lon="9.271444642298265"><ele>393.0</ele><time>2026-04-25T07:27:05.003Z</time></trkpt><trkpt lat="45.84978656243925" lon="9.271476132956021"><ele>393.0</ele><time>2026-04-25T07:27:06.003Z</time></trkpt><trkpt lat="45.84970345918274" lon="9.271521738824228"><ele>393.0</ele><time>2026-04-25T07:27:07.003Z</time></trkpt><trkpt lat="45.84964092394947" lon="9.27153396545535"><ele>393.0</ele><time>2026-04-25T07:27:08.003Z</time></trkpt><trkpt lat="45.849551113607156" lon="9.271627576563738"><ele>393.0</ele><time>2026-04-25T07:27:10.003Z</time></trkpt><trkpt lat="45.84953449299441" lon="9.271777926555075"><ele>393.0</ele><time>2026-04-25T07:27:12.003Z</time></trkpt><trkpt lat="45.84955387822803" lon="9.271869155706106"><ele>393.0</ele><time>2026-04-25T07:27:13.003Z</time></trkpt><trkpt lat="45.849582899612706" lon="9.272001203004104"><ele>393.0</ele><time>2026-04-25T07:27:14.003Z</time></trkpt><trkpt lat="45.84960783011228" lon="9.272156835001928"><ele>393.6666666666667</ele><time>2026-04-25T07:27:15.003Z</time></trkpt><trkpt lat="45.84962492735998" lon="9.272314875217713"><ele>394.33333333333337</ele><time>2026-04-25T07:27:16.003Z</time></trkpt><trkpt lat="45.849639126311814" lon="9.272453813571715"><ele>395.0</ele><time>2026-04-25T07:27:17.003Z</time></trkpt><trkpt lat="45.84964610935896" lon="9.27257378811306"><ele>395.6666666666667</ele><time>2026-04-25T07:27:18.003Z</time></trkpt><trkpt lat="45.84964841005292" lon="9.272688985348582"><ele>396.33333333333337</ele><time>2026-04-25T07:27:19.003Z</time></trkpt><trkpt lat="45.849636312286016" lon="9.272780275982388"><ele>397.0</ele><time>2026-04-25T07:27:20.003Z</time></trkpt><trkpt lat="45.84957245801543" lon="9.272850640500202"><ele>397.00000000000006</ele><time>2026-04-25T07:27:22.003Z</time></trkpt><trkpt lat="45.849499026837265" lon="9.272890981177717"><ele>397.0</ele><time>2026-04-25T07:27:26.003Z</time></trkpt><trkpt lat="45.849438945134786" lon="9.272946632986807"><ele>397.0</ele><time>2026-04-25T07:27:28.003Z</time></trkpt><trkpt lat="45.84935501354861" lon="9.273042556994396"><ele>397.0</ele><time>2026-04-25T07:27:31.003Z</time></trkpt><trkpt lat="45.84925789903647" lon="9.273097931657254"><ele>397.00000000000006</ele><time>2026-04-25T07:27:33.003Z</time></trkpt><trkpt lat="45.8491920856899" lon="9.273065333342478"><ele>397.0</ele><time>2026-04-25T07:27:34.003Z</time></trkpt><trkpt lat="45.84911107934943" lon="9.272982598864486"><ele>397.5</ele><time>2026-04-25T07:27:35.003Z</time></trkpt><trkpt lat="45.84901273865346" lon="9.27289357481636"><ele>398.0</ele><time>2026-04-25T07:27:36.003Z</time></trkpt><trkpt lat="45.84890292745057" lon="9.272788029641625"><ele>398.5</ele><time>2026-04-25T07:27:37.003Z</time></trkpt><trkpt lat="45.84878990898793" lon="9.272717587414226"><ele>399.0</ele><time>2026-04-25T07:27:38.003Z</time></trkpt><trkpt lat="45.848678214171144" lon="9.272658523053481"><ele>399.0</ele><time>2026-04-25T07:27:39.003Z</time></trkpt><trkpt lat="45.8485591332281" lon="9.272641657715841"><ele>399.0</ele><time>2026-04-25T07:27:40.003Z</time></trkpt><trkpt lat="45.84844745102072" lon="9.272640804634504"><ele>399.0</ele><time>2026-04-25T07:27:41.003Z</time></trkpt><trkpt lat="45.84832029096277" lon="9.272666344867412"><ele>399.0</ele><time>2026-04-25T07:27:42.003Z</time></trkpt><trkpt lat="45.84817306630041" lon="9.272676042149259"><ele>397.33333333333337</ele><time>2026-04-25T07:27:43.004Z</time></trkpt><trkpt lat="45.84800237986542" lon="9.27267006265363"><ele>395.6666666666667</ele><time>2026-04-25T07:27:44.004Z</time></trkpt><trkpt lat="45.847821680106186" lon="9.27268112315612"><ele>394.0</ele><time>2026-04-25T07:27:45.004Z</time></trkpt><trkpt lat="45.8476041322829" lon="9.272726711664644"><ele>394.0</ele><time>2026-04-25T07:27:46.004Z</time></trkpt><trkpt lat="45.84737527777497" lon="9.272757650554784"><ele>394.0</ele><time>2026-04-25T07:27:47.004Z</time></trkpt><trkpt lat="45.8471651374601" lon="9.272759607460157"><ele>394.0</ele><time>2026-04-25T07:27:48.004Z</time></trkpt><trkpt lat="45.84695908966652" lon="9.272777046960325"><ele>393.6666666666667</ele><time>2026-04-25T07:27:49.004Z</time></trkpt><trkpt lat="45.84676854579723" lon="9.272797884711162"><ele>393.33333333333337</ele><time>2026-04-25T07:27:50.004Z</time></trkpt><trkpt lat="45.8465881542372" lon="9.272806898447044"><ele>393.0</ele><time>2026-04-25T07:27:51.004Z</time></trkpt><trkpt lat="45.84641456333952" lon="9.272816485225245"><ele>393.0</ele><time>2026-04-25T07:27:52.004Z</time></trkpt><trkpt lat="45.84624947590927" lon="9.272826207717355"><ele>393.0</ele><time>2026-04-25T07:27:53.004Z</time></trkpt><trkpt lat="45.84609024542334" lon="9.272839975249545"><ele>393.0</ele><time>2026-04-25T07:27:54.004Z</time></trkpt><trkpt lat="45.84593997762425" lon="9.272852909880896"><ele>392.25</ele><time>2026-04-25T07:27:55.004Z</time></trkpt><trkpt lat="45.84579217885628" lon="9.27286861090567"><ele>391.5</ele><time>2026-04-25T07:27:56.004Z</time></trkpt><trkpt lat="45.845649476884454" lon="9.272882957481094"><ele>390.75</ele><time>2026-04-25T07:27:57.004Z</time></trkpt><trkpt lat="45.84551559400365" lon="9.272896561871661"><ele>390.0</ele><time>2026-04-25T07:27:58.004Z</time></trkpt><trkpt lat="45.84539433279614" lon="9.272910189423797"><ele>390.0</ele><time>2026-04-25T07:27:59.004Z</time></trkpt><trkpt lat="45.845280774394" lon="9.272921970145102"><ele>390.0</ele><time>2026-04-25T07:28:00.004Z</time></trkpt><trkpt lat="45.8451787402171" lon="9.27292572693538"><ele>390.0</ele><time>2026-04-25T07:28:01.004Z</time></trkpt><trkpt lat="45.845087694066" lon="9.272925616069092"><ele>390.0</ele><time>2026-04-25T07:28:02.004Z</time></trkpt><trkpt lat="45.845016816651096" lon="9.272921323711168"><ele>390.0</ele><time>2026-04-25T07:28:03.004Z</time></trkpt><trkpt lat="45.844901221531025" lon="9.272891300949885"><ele>390.3333333333333</ele><time>2026-04-25T07:28:05.004Z</time></trkpt><trkpt lat="45.844825570396424" lon="9.272978911204547"><ele>390.66666666666663</ele><time>2026-04-25T07:29:57.005Z</time></trkpt><trkpt lat="45.844758934711265" lon="9.272969765386637"><ele>391.0</ele><time>2026-04-25T07:32:31.007Z</time></trkpt><trkpt lat="45.844690115767186" lon="9.272977726274949"><ele>391.3333333333333</ele><time>2026-04-25T07:32:35.007Z</time></trkpt><trkpt lat="45.8445917609476" lon="9.273026347003539"><ele>391.66666666666663</ele><time>2026-04-25T07:32:37.008Z</time></trkpt><trkpt lat="45.84449255786115" lon="9.273039138855133"><ele>392.0</ele><time>2026-04-25T07:32:38.008Z</time></trkpt><trkpt lat="45.844359856608314" lon="9.273048499628908"><ele>392.75</ele><time>2026-04-25T07:32:39.008Z</time></trkpt><trkpt lat="45.84424006817954" lon="9.273056213127736"><ele>393.5</ele><time>2026-04-25T07:32:40.008Z</time></trkpt><trkpt lat="45.844103877674684" lon="9.273068300349284"><ele>394.25</ele><time>2026-04-25T07:32:41.008Z</time></trkpt><trkpt lat="45.843985336427316" lon="9.273076893393135"><ele>395.0</ele><time>2026-04-25T07:32:42.008Z</time></trkpt><trkpt lat="45.84385720702332" lon="9.273087563598512"><ele>395.0</ele><time>2026-04-25T07:32:43.008Z</time></trkpt><trkpt lat="45.843728626866344" lon="9.273097803747994"><ele>395.0</ele><time>2026-04-25T07:32:44.008Z</time></trkpt><trkpt lat="45.843603413277904" lon="9.27310043484872"><ele>395.0</ele><time>2026-04-25T07:32:45.008Z</time></trkpt><trkpt lat="45.84347655728144" lon="9.27310768321619"><ele>395.0</ele><time>2026-04-25T07:32:46.008Z</time></trkpt><trkpt lat="45.84334663075735" lon="9.273119499355511"><ele>395.25</ele><time>2026-04-25T07:32:47.008Z</time></trkpt><trkpt lat="45.84321755449282" lon="9.273134744488662"><ele>395.5</ele><time>2026-04-25T07:32:48.008Z</time></trkpt><trkpt lat="45.843093077326884" lon="9.273142411837084"><ele>395.75</ele><time>2026-04-25T07:32:49.008Z</time></trkpt><trkpt lat="45.842971039096106" lon="9.273150507928511"><ele>396.0</ele><time>2026-04-25T07:32:50.008Z</time></trkpt><trkpt lat="45.842857334249096" lon="9.273159601802451"><ele>396.0</ele><time>2026-04-25T07:32:51.008Z</time></trkpt><trkpt lat="45.84275273770932" lon="9.273165065078599"><ele>396.0</ele><time>2026-04-25T07:32:52.008Z</time></trkpt><trkpt lat="45.84266300247254" lon="9.27316546118041"><ele>396.0</ele><time>2026-04-25T07:32:53.008Z</time></trkpt><trkpt lat="45.84258780687323" lon="9.273150847240336"><ele>396.0</ele><time>2026-04-25T07:32:54.008Z</time></trkpt><trkpt lat="45.84254758152733" lon="9.273066268090663"><ele>396.0</ele><time>2026-04-25T07:32:55.008Z</time></trkpt><trkpt lat="45.84251764991774" lon="9.272986254811501"><ele>396.0</ele><time>2026-04-25T07:32:56.008Z</time></trkpt><trkpt lat="45.84252855948245" lon="9.272884188796686"><ele>396.4</ele><time>2026-04-25T07:32:57.008Z</time></trkpt><trkpt lat="45.842549737586225" lon="9.272776243457537"><ele>396.8</ele><time>2026-04-25T07:32:58.008Z</time></trkpt><trkpt lat="45.8426014576564" lon="9.27267749152297"><ele>397.2</ele><time>2026-04-25T07:32:59.008Z</time></trkpt><trkpt lat="45.84268888030172" lon="9.272655578453907"><ele>397.59999999999997</ele><time>2026-04-25T07:33:00.008Z</time></trkpt><trkpt lat="45.84279928098425" lon="9.27265410321375"><ele>398.0</ele><time>2026-04-25T07:33:01.008Z</time></trkpt><trkpt lat="45.84292442648394" lon="9.27264453501786"><ele>398.0</ele><time>2026-04-25T07:33:02.008Z</time></trkpt><trkpt lat="45.843061887642826" lon="9.272628931452793"><ele>398.0</ele><time>2026-04-25T07:33:03.008Z</time></trkpt><trkpt lat="45.843193069820096" lon="9.272596979699076"><ele>398.0</ele><time>2026-04-25T07:33:04.008Z</time></trkpt><trkpt lat="45.8433263632596" lon="9.272542973715854"><ele>398.0</ele><time>2026-04-25T07:33:05.008Z</time></trkpt><trkpt lat="45.84344881463159" lon="9.272493834865655"><ele>397.4</ele><time>2026-04-25T07:33:06.008Z</time></trkpt><trkpt lat="45.843561319420445" lon="9.272423504880745"><ele>396.79999999999995</ele><time>2026-04-25T07:33:07.008Z</time></trkpt><trkpt lat="45.843663394974875" lon="9.27235427768683"><ele>396.2</ele><time>2026-04-25T07:33:08.008Z</time></trkpt><trkpt lat="45.843750360785684" lon="9.272284746444488"><ele>395.6</ele><time>2026-04-25T07:33:09.008Z</time></trkpt><trkpt lat="45.843827695052255" lon="9.27222383034919"><ele>395.0</ele><time>2026-04-25T07:33:10.008Z</time></trkpt><trkpt lat="45.84388753167017" lon="9.272153373367006"><ele>394.57142857142856</ele><time>2026-04-25T07:33:11.008Z</time></trkpt><trkpt lat="45.8439404369807" lon="9.272074903154387"><ele>394.14285714285717</ele><time>2026-04-25T07:33:12.008Z</time></trkpt><trkpt lat="45.844000987851494" lon="9.2719906642207"><ele>393.7142857142857</ele><time>2026-04-25T07:33:13.008Z</time></trkpt><trkpt lat="45.84406513016648" lon="9.271931084046985"><ele>393.2857142857143</ele><time>2026-04-25T07:33:14.008Z</time></trkpt><trkpt lat="45.84412698320086" lon="9.271875452900481"><ele>392.8571428571429</ele><time>2026-04-25T07:33:15.008Z</time></trkpt><trkpt lat="45.8441810877284" lon="9.271819929725249"><ele>392.42857142857144</ele><time>2026-04-25T07:33:16.008Z</time></trkpt><trkpt lat="45.84424673226054" lon="9.271790562057536"><ele>392.0</ele><time>2026-04-25T07:33:17.008Z</time></trkpt><trkpt lat="45.8443325129943" lon="9.271769028576196"><ele>391.99999999999994</ele><time>2026-04-25T07:33:18.008Z</time></trkpt><trkpt lat="45.84440675826406" lon="9.271750761989669"><ele>392.0</ele><time>2026-04-25T07:33:19.008Z</time></trkpt><trkpt lat="45.84446410901017" lon="9.271701661328558"><ele>392.0</ele><time>2026-04-25T07:33:20.008Z</time></trkpt><trkpt lat="45.844504010022185" lon="9.271617099290694"><ele>392.0</ele><time>2026-04-25T07:33:21.008Z</time></trkpt><trkpt lat="45.844549174691075" lon="9.271507217847189"><ele>391.99999999999994</ele><time>2026-04-25T07:33:22.008Z</time></trkpt><trkpt lat="45.84460450204199" lon="9.271372763409758"><ele>392.0</ele><time>2026-04-25T07:33:23.008Z</time></trkpt><trkpt lat="45.84466045549357" lon="9.271262952936832"><ele>392.6</ele><time>2026-04-25T07:33:24.008Z</time></trkpt><trkpt lat="45.844749629210135" lon="9.271189268113917"><ele>393.20000000000005</ele><time>2026-04-25T07:33:25.008Z</time></trkpt><trkpt lat="45.8448470676128" lon="9.271122629903406"><ele>393.8</ele><time>2026-04-25T07:33:26.008Z</time></trkpt><trkpt lat="45.84494880321297" lon="9.271054610086182"><ele>394.4</ele><time>2026-04-25T07:33:27.008Z</time></trkpt><trkpt lat="45.84504006337558" lon="9.27099625315296"><ele>395.0</ele><time>2026-04-25T07:33:28.008Z</time></trkpt><trkpt lat="45.84512523704768" lon="9.270921708214642"><ele>394.2</ele><time>2026-04-25T07:33:29.008Z</time></trkpt><trkpt lat="45.84519323828925" lon="9.270849450180762"><ele>393.4</ele><time>2026-04-25T07:33:30.008Z</time></trkpt><trkpt lat="45.84526127716907" lon="9.270791250358537"><ele>392.6</ele><time>2026-04-25T07:33:31.008Z</time></trkpt><trkpt lat="45.84531953440981" lon="9.270727930360165"><ele>391.8</ele><time>2026-04-25T07:33:32.008Z</time></trkpt><trkpt lat="45.845410927762536" lon="9.270665752585975"><ele>391.0</ele><time>2026-04-25T07:33:34.008Z</time></trkpt><trkpt lat="45.84553030348053" lon="9.270651326594459"><ele>391.00000000000006</ele><time>2026-04-25T07:33:37.008Z</time></trkpt><trkpt lat="45.8456151028543" lon="9.27065306964791"><ele>391.0</ele><time>2026-04-25T07:33:38.008Z</time></trkpt><trkpt lat="45.845700292784684" lon="9.270616032857824"><ele>391.0</ele><time>2026-04-25T07:33:39.008Z</time></trkpt><trkpt lat="45.84577591097312" lon="9.270563141849404"><ele>391.0</ele><time>2026-04-25T07:33:40.008Z</time></trkpt><trkpt lat="45.845835211962154" lon="9.270520272225465"><ele>391.00000000000006</ele><time>2026-04-25T07:33:41.008Z</time></trkpt><trkpt lat="45.845890799921484" lon="9.270456992808374"><ele>391.0</ele><time>2026-04-25T07:33:45.008Z</time></trkpt><trkpt lat="45.84582444586372" lon="9.270348348804484"><ele>390.20000000000005</ele><time>2026-04-25T07:33:47.008Z</time></trkpt><trkpt lat="45.84574446468973" lon="9.270285570996105"><ele>389.40000000000003</ele><time>2026-04-25T07:33:48.008Z</time></trkpt><trkpt lat="45.84565775711098" lon="9.27023852915641"><ele>388.6</ele><time>2026-04-25T07:33:49.009Z</time></trkpt><trkpt lat="45.84556286104463" lon="9.270182679207052"><ele>387.8</ele><time>2026-04-25T07:33:50.009Z</time></trkpt><trkpt lat="45.84546531106075" lon="9.270098560922554"><ele>387.0</ele><time>2026-04-25T07:33:51.009Z</time></trkpt><trkpt lat="45.84537768857444" lon="9.269992740268805"><ele>387.0</ele><time>2026-04-25T07:33:52.009Z</time></trkpt><trkpt lat="45.84529420747893" lon="9.269865800497714"><ele>387.0</ele><time>2026-04-25T07:33:53.009Z</time></trkpt><trkpt lat="45.84521604430907" lon="9.269731924683562"><ele>387.0</ele><time>2026-04-25T07:33:54.009Z</time></trkpt><trkpt lat="45.84514402905114" lon="9.269574001917746"><ele>387.0</ele><time>2026-04-25T07:33:55.009Z</time></trkpt><trkpt lat="45.84507612708923" lon="9.269397417093845"><ele>386.5</ele><time>2026-04-25T07:33:56.009Z</time></trkpt><trkpt lat="45.8450203318915" lon="9.269218044889257"><ele>386.0</ele><time>2026-04-25T07:33:57.009Z</time></trkpt><trkpt lat="45.84496670521984" lon="9.269038377248851"><ele>385.5</ele><time>2026-04-25T07:33:58.009Z</time></trkpt><trkpt lat="45.84491160511117" lon="9.268871180642021"><ele>385.0</ele><time>2026-04-25T07:33:59.009Z</time></trkpt><trkpt lat="45.84486625551544" lon="9.268701546937022"><ele>385.0</ele><time>2026-04-25T07:34:00.009Z</time></trkpt><trkpt lat="45.84482689829296" lon="9.268526476592738"><ele>385.0</ele><time>2026-04-25T07:34:01.009Z</time></trkpt><trkpt lat="45.844797471431285" lon="9.268357738812734"><ele>385.0</ele><time>2026-04-25T07:34:02.009Z</time></trkpt><trkpt lat="45.844769881202296" lon="9.26819015330687"><ele>385.0</ele><time>2026-04-25T07:34:03.009Z</time></trkpt><trkpt lat="45.844737238937256" lon="9.26802879147219"><ele>384.33333333333337</ele><time>2026-04-25T07:34:04.009Z</time></trkpt><trkpt lat="45.84471445429758" lon="9.267879455978836"><ele>383.6666666666667</ele><time>2026-04-25T07:34:05.009Z</time></trkpt><trkpt lat="45.84470350255378" lon="9.267756536327765"><ele>383.0</ele><time>2026-04-25T07:34:06.009Z</time></trkpt><trkpt lat="45.84469940903524" lon="9.267642683277455"><ele>382.33333333333337</ele><time>2026-04-25T07:34:07.009Z</time></trkpt><trkpt lat="45.844705618614796" lon="9.267536216509999"><ele>381.6666666666667</ele><time>2026-04-25T07:34:08.009Z</time></trkpt><trkpt lat="45.844743237643854" lon="9.267413040268988"><ele>381.0</ele><time>2026-04-25T07:34:10.009Z</time></trkpt><trkpt lat="45.84485294964508" lon="9.26744552986087"><ele>381.0</ele><time>2026-04-25T07:34:13.009Z</time></trkpt><trkpt lat="45.844900721515806" lon="9.267512712875863"><ele>381.0</ele><time>2026-04-25T07:34:14.009Z</time></trkpt><trkpt lat="45.845033951834566" lon="9.26748547661404"><ele>381.0</ele><time>2026-04-25T07:34:16.009Z</time></trkpt><trkpt lat="45.845150751854995" lon="9.267398465246352"><ele>381.0</ele><time>2026-04-25T07:34:17.009Z</time></trkpt><trkpt lat="45.8452759890736" lon="9.267315830004808"><ele>380.4</ele><time>2026-04-25T07:34:18.009Z</time></trkpt><trkpt lat="45.84539438630193" lon="9.267259011411033"><ele>379.8</ele><time>2026-04-25T07:34:19.009Z</time></trkpt><trkpt lat="45.84550169137593" lon="9.267205490738595"><ele>379.2</ele><time>2026-04-25T07:34:20.009Z</time></trkpt><trkpt lat="45.84559447896882" lon="9.26715688890392"><ele>378.59999999999997</ele><time>2026-04-25T07:34:21.009Z</time></trkpt><trkpt lat="45.84567733358927" lon="9.267115055911976"><ele>378.0</ele><time>2026-04-25T07:34:22.009Z</time></trkpt><trkpt lat="45.84576325329919" lon="9.267054460541713"><ele>378.0</ele><time>2026-04-25T07:34:24.009Z</time></trkpt><trkpt lat="45.84572896541966" lon="9.266898895684141"><ele>378.0</ele><time>2026-04-25T07:34:26.009Z</time></trkpt><trkpt lat="45.84567751605865" lon="9.266759734133027"><ele>378.0</ele><time>2026-04-25T07:34:27.009Z</time></trkpt><trkpt lat="45.84563267072071" lon="9.266581856743104"><ele>378.0</ele><time>2026-04-25T07:34:28.009Z</time></trkpt><trkpt lat="45.84559316470581" lon="9.266395474116646"><ele>377.75</ele><time>2026-04-25T07:34:29.009Z</time></trkpt><trkpt lat="45.84555046306157" lon="9.266211755954735"><ele>377.5</ele><time>2026-04-25T07:34:30.009Z</time></trkpt><trkpt lat="45.845525006528824" lon="9.266038015665059"><ele>377.25</ele><time>2026-04-25T07:34:31.009Z</time></trkpt><trkpt lat="45.84550907147372" lon="9.26587065287513"><ele>377.0</ele><time>2026-04-25T07:34:32.009Z</time></trkpt><trkpt lat="45.84552105636617" lon="9.265715520808811"><ele>376.75</ele><time>2026-04-25T07:34:33.009Z</time></trkpt><trkpt lat="45.845553748707864" lon="9.265567193445742"><ele>376.5</ele><time>2026-04-25T07:34:34.009Z</time></trkpt><trkpt lat="45.84560990165358" lon="9.265430033532569"><ele>376.25</ele><time>2026-04-25T07:34:35.009Z</time></trkpt><trkpt lat="45.84568906390598" lon="9.265308001171018"><ele>376.0</ele><time>2026-04-25T07:34:36.009Z</time></trkpt><trkpt lat="45.84579706599009" lon="9.265202199735873"><ele>376.0</ele><time>2026-04-25T07:34:37.009Z</time></trkpt><trkpt lat="45.845917394859185" lon="9.265082959565364"><ele>376.0</ele><time>2026-04-25T07:34:38.009Z</time></trkpt><trkpt lat="45.846038870593695" lon="9.264967189760663"><ele>376.0</ele><time>2026-04-25T07:34:39.009Z</time></trkpt><trkpt lat="45.84614774237197" lon="9.264845740419329"><ele>376.0</ele><time>2026-04-25T07:34:40.009Z</time></trkpt><trkpt lat="45.846249762565506" lon="9.264713652081603"><ele>376.6</ele><time>2026-04-25T07:34:41.009Z</time></trkpt><trkpt lat="45.84633811873183" lon="9.264591511599663"><ele>377.20000000000005</ele><time>2026-04-25T07:34:42.009Z</time></trkpt><trkpt lat="45.84642027210275" lon="9.264483485891944"><ele>377.79999999999995</ele><time>2026-04-25T07:34:43.009Z</time></trkpt><trkpt lat="45.84647955562242" lon="9.264402039158444"><ele>378.4</ele><time>2026-04-25T07:34:44.009Z</time></trkpt><trkpt lat="45.84652864129717" lon="9.26433501617824"><ele>379.0</ele><time>2026-04-25T07:34:45.009Z</time></trkpt><trkpt lat="45.846580753373935" lon="9.264272944584786"><ele>379.0</ele><time>2026-04-25T07:34:46.009Z</time></trkpt><trkpt lat="45.84665598564904" lon="9.264159928160023"><ele>379.0</ele><time>2026-04-25T07:34:48.009Z</time></trkpt><trkpt lat="45.84659197965277" lon="9.264022280947676"><ele>379.0</ele><time>2026-04-25T07:34:50.009Z</time></trkpt><trkpt lat="45.84650227367542" lon="9.26399367061837"><ele>379.0</ele><time>2026-04-25T07:34:51.009Z</time></trkpt><trkpt lat="45.84639370339166" lon="9.263956917287828"><ele>379.0</ele><time>2026-04-25T07:34:52.009Z</time></trkpt><trkpt lat="45.84628570362353" lon="9.263901523137923"><ele>378.75</ele><time>2026-04-25T07:34:53.009Z</time></trkpt><trkpt lat="45.846193104584216" lon="9.263810291575838"><ele>378.5</ele><time>2026-04-25T07:34:54.009Z</time></trkpt><trkpt lat="45.846099487609116" lon="9.26371985499016"><ele>378.25</ele><time>2026-04-25T07:34:55.009Z</time></trkpt><trkpt lat="45.84599342159217" lon="9.263617890810208"><ele>378.0</ele><time>2026-04-25T07:34:56.009Z</time></trkpt><trkpt lat="45.845884815555436" lon="9.263499569677522"><ele>378.0</ele><time>2026-04-25T07:34:57.009Z</time></trkpt><trkpt lat="45.845777055395814" lon="9.263357638451302"><ele>378.0</ele><time>2026-04-25T07:34:58.009Z</time></trkpt><trkpt lat="45.84566728266652" lon="9.26318792427107"><ele>378.0</ele><time>2026-04-25T07:34:59.009Z</time></trkpt><trkpt lat="45.84555458322003" lon="9.263025452448908"><ele>381.0</ele><time>2026-04-25T07:35:00.009Z</time></trkpt><trkpt lat="45.84544695611901" lon="9.262861496965288"><ele>384.0</ele><time>2026-04-25T07:35:01.009Z</time></trkpt><trkpt lat="45.845334303539" lon="9.262692946929265"><ele>387.0</ele><time>2026-04-25T07:35:02.01Z</time></trkpt><trkpt lat="45.84522384680811" lon="9.262519267826589"><ele>382.3333333333333</ele><time>2026-04-25T07:35:03.01Z</time></trkpt><trkpt lat="45.84511225193632" lon="9.262347945567027"><ele>377.66666666666663</ele><time>2026-04-25T07:35:04.01Z</time></trkpt><trkpt lat="45.84499827715182" lon="9.262171769671692"><ele>373.0</ele><time>2026-04-25T07:35:05.01Z</time></trkpt><trkpt lat="45.84488505607839" lon="9.261997535607952"><ele>373.0</ele><time>2026-04-25T07:35:06.01Z</time></trkpt><trkpt lat="45.84477772394539" lon="9.261809199878298"><ele>373.0</ele><time>2026-04-25T07:35:07.01Z</time></trkpt><trkpt lat="45.84467794762034" lon="9.261621798963795"><ele>373.0</ele><time>2026-04-25T07:35:08.01Z</time></trkpt><trkpt lat="45.844588145628926" lon="9.261441651085542"><ele>373.66666666666663</ele><time>2026-04-25T07:35:09.01Z</time></trkpt><trkpt lat="45.84450007611974" lon="9.261249052052351"><ele>374.3333333333333</ele><time>2026-04-25T07:35:10.01Z</time></trkpt><trkpt lat="45.844422752471" lon="9.26103085044469"><ele>375.0</ele><time>2026-04-25T07:35:11.01Z</time></trkpt><trkpt lat="45.84434945167825" lon="9.260821004098137"><ele>373.25</ele><time>2026-04-25T07:35:12.01Z</time></trkpt><trkpt lat="45.8442794543867" lon="9.260622568255286"><ele>371.5</ele><time>2026-04-25T07:35:13.01Z</time></trkpt><trkpt lat="45.84421138637449" lon="9.260431597457773"><ele>369.75</ele><time>2026-04-25T07:35:14.01Z</time></trkpt><trkpt lat="45.844149879526555" lon="9.260248991705971"><ele>368.0</ele><time>2026-04-25T07:35:15.01Z</time></trkpt><trkpt lat="45.84409423140114" lon="9.260069221272397"><ele>367.5</ele><time>2026-04-25T07:35:16.01Z</time></trkpt><trkpt lat="45.844059854535004" lon="9.25988203161544"><ele>367.0</ele><time>2026-04-25T07:35:17.01Z</time></trkpt><trkpt lat="45.84406159786607" lon="9.259690066247934"><ele>366.5</ele><time>2026-04-25T07:35:18.01Z</time></trkpt><trkpt lat="45.84409319332954" lon="9.259493151643243"><ele>366.0</ele><time>2026-04-25T07:35:19.01Z</time></trkpt><trkpt lat="45.84415056328175" lon="9.259292538846271"><ele>365.6666666666667</ele><time>2026-04-25T07:35:20.01Z</time></trkpt><trkpt lat="45.84424672198897" lon="9.259089450024062"><ele>365.33333333333337</ele><time>2026-04-25T07:35:21.01Z</time></trkpt><trkpt lat="45.844363765794704" lon="9.258897357596652"><ele>365.0</ele><time>2026-04-25T07:35:22.01Z</time></trkpt><trkpt lat="45.84447651508654" lon="9.258705970220422"><ele>365.0</ele><time>2026-04-25T07:35:23.01Z</time></trkpt><trkpt lat="45.84457304140067" lon="9.258517670097365"><ele>365.0</ele><time>2026-04-25T07:35:24.01Z</time></trkpt><trkpt lat="45.84465127579171" lon="9.258330832026546"><ele>365.0</ele><time>2026-04-25T07:35:25.01Z</time></trkpt><trkpt lat="45.844708686603376" lon="9.25812995475469"><ele>363.75</ele><time>2026-04-25T07:35:26.01Z</time></trkpt><trkpt lat="45.844762179963055" lon="9.25793284737445"><ele>362.5</ele><time>2026-04-25T07:35:27.01Z</time></trkpt><trkpt lat="45.8448251931451" lon="9.257761727606232"><ele>361.25</ele><time>2026-04-25T07:35:28.01Z</time></trkpt><trkpt lat="45.844905648206876" lon="9.257617972236861"><ele>360.0</ele><time>2026-04-25T07:35:29.01Z</time></trkpt><trkpt lat="45.845006828943724" lon="9.25749738523326"><ele>360.0</ele><time>2026-04-25T07:35:30.01Z</time></trkpt><trkpt lat="45.845117679244396" lon="9.257398462317816"><ele>360.0</ele><time>2026-04-25T07:35:31.01Z</time></trkpt><trkpt lat="45.845223668358315" lon="9.25730649611037"><ele>360.0</ele><time>2026-04-25T07:35:32.01Z</time></trkpt><trkpt lat="45.8453230007576" lon="9.257191532097304"><ele>360.0</ele><time>2026-04-25T07:35:33.01Z</time></trkpt><trkpt lat="45.84539286318915" lon="9.25706301604894"><ele>360.2</ele><time>2026-04-25T07:35:34.01Z</time></trkpt><trkpt lat="45.84545187062566" lon="9.256934366180323"><ele>360.4</ele><time>2026-04-25T07:35:35.01Z</time></trkpt><trkpt lat="45.84550924246395" lon="9.256815274791085"><ele>360.6</ele><time>2026-04-25T07:35:36.01Z</time></trkpt><trkpt lat="45.845557896807215" lon="9.25672593222605"><ele>360.8</ele><time>2026-04-25T07:35:37.01Z</time></trkpt><trkpt lat="45.84562417620319" lon="9.256621855671579"><ele>361.0</ele><time>2026-04-25T07:35:39.01Z</time></trkpt><trkpt lat="45.84569794951129" lon="9.25657921915099"><ele>361.0</ele><time>2026-04-25T07:35:41.01Z</time></trkpt><trkpt lat="45.84574243217597" lon="9.25648211160532"><ele>361.0</ele><time>2026-04-25T07:35:43.01Z</time></trkpt><trkpt lat="45.84568571379772" lon="9.256352728416003"><ele>361.0</ele><time>2026-04-25T07:35:45.01Z</time></trkpt><trkpt lat="45.84561932608921" lon="9.256312633266793"><ele>361.0</ele><time>2026-04-25T07:35:46.01Z</time></trkpt><trkpt lat="45.84552741497153" lon="9.256251970202868"><ele>361.0</ele><time>2026-04-25T07:35:47.01Z</time></trkpt><trkpt lat="45.84542095975512" lon="9.256152581076972"><ele>360.66666666666663</ele><time>2026-04-25T07:35:48.01Z</time></trkpt><trkpt lat="45.84530666573675" lon="9.256027388532956"><ele>360.3333333333333</ele><time>2026-04-25T07:35:49.01Z</time></trkpt><trkpt lat="45.84518234698328" lon="9.255892733433026"><ele>360.0</ele><time>2026-04-25T07:35:50.01Z</time></trkpt><trkpt lat="45.845051794336044" lon="9.25575816995238"><ele>360.0</ele><time>2026-04-25T07:35:51.01Z</time></trkpt><trkpt lat="45.84492046596999" lon="9.255623069362821"><ele>360.0</ele><time>2026-04-25T07:35:52.01Z</time></trkpt><trkpt lat="45.84479024918431" lon="9.255475886014677"><ele>360.0</ele><time>2026-04-25T07:35:53.01Z</time></trkpt><trkpt lat="45.84465699776636" lon="9.255331154600986"><ele>360.0</ele><time>2026-04-25T07:35:54.01Z</time></trkpt><trkpt lat="45.84452451092734" lon="9.255191265756054"><ele>360.0</ele><time>2026-04-25T07:35:55.01Z</time></trkpt><trkpt lat="45.844390128086516" lon="9.255040238732454"><ele>360.0</ele><time>2026-04-25T07:35:56.01Z</time></trkpt><trkpt lat="45.84425008405855" lon="9.254888571966282"><ele>358.6666666666667</ele><time>2026-04-25T07:35:57.01Z</time></trkpt><trkpt lat="45.84411429152879" lon="9.25474269946696"><ele>357.33333333333337</ele><time>2026-04-25T07:35:58.01Z</time></trkpt><trkpt lat="45.84398269101616" lon="9.254600965458902"><ele>356.0</ele><time>2026-04-25T07:35:59.01Z</time></trkpt><trkpt lat="45.84384607977209" lon="9.25445092427887"><ele>356.0</ele><time>2026-04-25T07:36:00.01Z</time></trkpt><trkpt lat="45.84371867092264" lon="9.25431089691933"><ele>356.0</ele><time>2026-04-25T07:36:01.01Z</time></trkpt><trkpt lat="45.8435989488689" lon="9.254184354104297"><ele>356.0</ele><time>2026-04-25T07:36:02.01Z</time></trkpt><trkpt lat="45.84348584260988" lon="9.25405995983447"><ele>356.25</ele><time>2026-04-25T07:36:03.01Z</time></trkpt><trkpt lat="45.84338161219748" lon="9.253930342652307"><ele>356.5</ele><time>2026-04-25T07:36:04.01Z</time></trkpt><trkpt lat="45.84327996115259" lon="9.253786058993079"><ele>356.75</ele><time>2026-04-25T07:36:05.01Z</time></trkpt><trkpt lat="45.84318225033955" lon="9.253644962652759"><ele>357.0</ele><time>2026-04-25T07:36:06.01Z</time></trkpt><trkpt lat="45.8430840889959" lon="9.25350956138537"><ele>357.0</ele><time>2026-04-25T07:36:07.01Z</time></trkpt><trkpt lat="45.8429816335055" lon="9.253377562140118"><ele>357.0</ele><time>2026-04-25T07:36:08.01Z</time></trkpt><trkpt lat="45.84287014554392" lon="9.253255384666291"><ele>357.0</ele><time>2026-04-25T07:36:09.01Z</time></trkpt><trkpt lat="45.842746001929804" lon="9.253119653896668"><ele>357.0</ele><time>2026-04-25T07:36:10.01Z</time></trkpt><trkpt lat="45.84261553313416" lon="9.252968848415673"><ele>355.6666666666667</ele><time>2026-04-25T07:36:11.01Z</time></trkpt><trkpt lat="45.8424893910008" lon="9.252822178512805"><ele>354.33333333333337</ele><time>2026-04-25T07:36:12.01Z</time></trkpt><trkpt lat="45.842363554219304" lon="9.252672509586393"><ele>353.0</ele><time>2026-04-25T07:36:13.01Z</time></trkpt><trkpt lat="45.84223845485979" lon="9.252524600162994"><ele>353.0</ele><time>2026-04-25T07:36:14.01Z</time></trkpt><trkpt lat="45.842116674230816" lon="9.252371846466566"><ele>353.0</ele><time>2026-04-25T07:36:15.011Z</time></trkpt><trkpt lat="45.84198272891141" lon="9.25220583567682"><ele>353.0</ele><time>2026-04-25T07:36:16.011Z</time></trkpt><trkpt lat="45.8418446428859" lon="9.252038364140258"><ele>353.33333333333337</ele><time>2026-04-25T07:36:17.011Z</time></trkpt><trkpt lat="45.84171171140701" lon="9.251870796384074"><ele>353.6666666666667</ele><time>2026-04-25T07:36:18.011Z</time></trkpt><trkpt lat="45.84157991677473" lon="9.251703527644542"><ele>354.0</ele><time>2026-04-25T07:36:19.011Z</time></trkpt><trkpt lat="45.8414448924432" lon="9.251534008817293"><ele>353.0</ele><time>2026-04-25T07:36:20.011Z</time></trkpt><trkpt lat="45.841318802626034" lon="9.251367884319196"><ele>352.0</ele><time>2026-04-25T07:36:21.011Z</time></trkpt><trkpt lat="45.84119409891099" lon="9.25119585788403"><ele>351.0</ele><time>2026-04-25T07:36:22.011Z</time></trkpt><trkpt lat="45.84107485744243" lon="9.251003699489358"><ele>351.3333333333333</ele><time>2026-04-25T07:36:23.011Z</time></trkpt><trkpt lat="45.8409569153138" lon="9.250798317498838"><ele>351.66666666666663</ele><time>2026-04-25T07:36:24.011Z</time></trkpt><trkpt lat="45.840847575256305" lon="9.250579347262386"><ele>352.0</ele><time>2026-04-25T07:36:25.011Z</time></trkpt><trkpt lat="45.840751581879175" lon="9.25034338256947"><ele>352.0</ele><time>2026-04-25T07:36:26.011Z</time></trkpt><trkpt lat="45.84066498642109" lon="9.250107804141813"><ele>352.0</ele><time>2026-04-25T07:36:27.011Z</time></trkpt><trkpt lat="45.84057706683058" lon="9.249882992774618"><ele>352.0</ele><time>2026-04-25T07:36:28.011Z</time></trkpt><trkpt lat="45.84049144184846" lon="9.249674066686163"><ele>351.66666666666663</ele><time>2026-04-25T07:36:29.011Z</time></trkpt><trkpt lat="45.84041418316961" lon="9.249474127472489"><ele>351.3333333333333</ele><time>2026-04-25T07:36:30.011Z</time></trkpt><trkpt lat="45.8403318137219" lon="9.249280800955898"><ele>351.0</ele><time>2026-04-25T07:36:31.011Z</time></trkpt><trkpt lat="45.84024290881079" lon="9.249070914341548"><ele>351.0</ele><time>2026-04-25T07:36:32.011Z</time></trkpt><trkpt lat="45.840144806550775" lon="9.248854841047976"><ele>351.0</ele><time>2026-04-25T07:36:33.011Z</time></trkpt><trkpt lat="45.84004469389158" lon="9.248640586097514"><ele>351.0</ele><time>2026-04-25T07:36:34.011Z</time></trkpt><trkpt lat="45.83995364252341" lon="9.248448769824602"><ele>351.4</ele><time>2026-04-25T07:36:35.011Z</time></trkpt><trkpt lat="45.8398764725459" lon="9.248288854170475"><ele>351.8</ele><time>2026-04-25T07:36:36.011Z</time></trkpt><trkpt lat="45.83982424327017" lon="9.248148558782894"><ele>352.2</ele><time>2026-04-25T07:36:37.011Z</time></trkpt><trkpt lat="45.83979570116059" lon="9.248025696373139"><ele>352.59999999999997</ele><time>2026-04-25T07:36:38.011Z</time></trkpt><trkpt lat="45.83979468198396" lon="9.24792056605069"><ele>353.0</ele><time>2026-04-25T07:36:39.011Z</time></trkpt><trkpt lat="45.83981454704343" lon="9.24781840032382"><ele>353.0</ele><time>2026-04-25T07:36:40.011Z</time></trkpt><trkpt lat="45.839827681909014" lon="9.24771608059041"><ele>353.0</ele><time>2026-04-25T07:36:41.011Z</time></trkpt><trkpt lat="45.839801937277315" lon="9.24761801150064"><ele>353.0</ele><time>2026-04-25T07:36:42.011Z</time></trkpt><trkpt lat="45.839732906129264" lon="9.247531674217955"><ele>353.0</ele><time>2026-04-25T07:36:43.011Z</time></trkpt><trkpt lat="45.83962792643983" lon="9.247443420379048"><ele>353.0</ele><time>2026-04-25T07:36:44.011Z</time></trkpt><trkpt lat="45.8395179503034" lon="9.247329222274198"><ele>351.6666666666667</ele><time>2026-04-25T07:36:45.011Z</time></trkpt><trkpt lat="45.83942666799481" lon="9.247145309063335"><ele>350.3333333333333</ele><time>2026-04-25T07:36:46.011Z</time></trkpt><trkpt lat="45.83934243887101" lon="9.246924309416304"><ele>349.0</ele><time>2026-04-25T07:36:47.011Z</time></trkpt><trkpt lat="45.83925723200666" lon="9.246716610071964"><ele>348.66666666666663</ele><time>2026-04-25T07:36:48.011Z</time></trkpt><trkpt lat="45.83917518995302" lon="9.246487035445137"><ele>348.3333333333333</ele><time>2026-04-25T07:36:49.011Z</time></trkpt><trkpt lat="45.83909026806037" lon="9.246259442364249"><ele>348.0</ele><time>2026-04-25T07:36:50.011Z</time></trkpt><trkpt lat="45.83900588826146" lon="9.246034456291401"><ele>348.0</ele><time>2026-04-25T07:36:51.011Z</time></trkpt><trkpt lat="45.838939504379226" lon="9.245809610041317"><ele>348.0</ele><time>2026-04-25T07:36:52.011Z</time></trkpt><trkpt lat="45.8388845338736" lon="9.245589357474017"><ele>348.0</ele><time>2026-04-25T07:36:53.011Z</time></trkpt><trkpt lat="45.83884215894743" lon="9.245379612440818"><ele>347.25</ele><time>2026-04-25T07:36:54.011Z</time></trkpt><trkpt lat="45.83880372644674" lon="9.245178383753455"><ele>346.5</ele><time>2026-04-25T07:36:55.011Z</time></trkpt><trkpt lat="45.83876505723889" lon="9.244971631813854"><ele>345.75</ele><time>2026-04-25T07:36:56.011Z</time></trkpt><trkpt lat="45.83872680477268" lon="9.244761306991215"><ele>345.0</ele><time>2026-04-25T07:36:57.011Z</time></trkpt><trkpt lat="45.838694269417836" lon="9.244544884137028"><ele>345.3333333333333</ele><time>2026-04-25T07:36:58.011Z</time></trkpt><trkpt lat="45.838667433191375" lon="9.244329350842571"><ele>345.66666666666663</ele><time>2026-04-25T07:36:59.011Z</time></trkpt><trkpt lat="45.83865041024571" lon="9.244120251534426"><ele>346.0</ele><time>2026-04-25T07:37:00.011Z</time></trkpt><trkpt lat="45.838631174650935" lon="9.243875178923485"><ele>346.0</ele><time>2026-04-25T07:37:01.011Z</time></trkpt><trkpt lat="45.838608297272174" lon="9.24362798207019"><ele>346.0</ele><time>2026-04-25T07:37:02.011Z</time></trkpt><trkpt lat="45.838564671870095" lon="9.243396733551759"><ele>346.0</ele><time>2026-04-25T07:37:03.011Z</time></trkpt><trkpt lat="45.83848679900702" lon="9.243194618254618"><ele>344.66666666666663</ele><time>2026-04-25T07:37:04.011Z</time></trkpt><trkpt lat="45.83836237048001" lon="9.242999231871295"><ele>343.3333333333333</ele><time>2026-04-25T07:37:05.011Z</time></trkpt><trkpt lat="45.838205083873746" lon="9.242814414404643"><ele>342.0</ele><time>2026-04-25T07:37:06.011Z</time></trkpt><trkpt lat="45.838034475496116" lon="9.242630956059065"><ele>342.0</ele><time>2026-04-25T07:37:07.011Z</time></trkpt><trkpt lat="45.837874103041045" lon="9.242441520695886"><ele>342.0</ele><time>2026-04-25T07:37:08.011Z</time></trkpt><trkpt lat="45.837737917095076" lon="9.24225385131176"><ele>342.0</ele><time>2026-04-25T07:37:09.011Z</time></trkpt><trkpt lat="45.83761461181079" lon="9.242012836984154"><ele>341.6666666666667</ele><time>2026-04-25T07:37:10.011Z</time></trkpt><trkpt lat="45.83749926891139" lon="9.241763087739946"><ele>341.33333333333337</ele><time>2026-04-25T07:37:11.011Z</time></trkpt><trkpt lat="45.8373983996995" lon="9.24152990864114"><ele>341.0</ele><time>2026-04-25T07:37:12.011Z</time></trkpt><trkpt lat="45.837306546022006" lon="9.241293200301802"><ele>340.6666666666667</ele><time>2026-04-25T07:37:13.011Z</time></trkpt><trkpt lat="45.837224048845194" lon="9.241047440172737"><ele>340.3333333333333</ele><time>2026-04-25T07:37:14.011Z</time></trkpt><trkpt lat="45.83715311841287" lon="9.24080574429636"><ele>340.0</ele><time>2026-04-25T07:37:15.011Z</time></trkpt><trkpt lat="45.8370918686195" lon="9.240556626360569"><ele>342.3333333333333</ele><time>2026-04-25T07:37:16.011Z</time></trkpt><trkpt lat="45.83703600980241" lon="9.240312140898332"><ele>344.6666666666667</ele><time>2026-04-25T07:37:17.011Z</time></trkpt><trkpt lat="45.83698089719789" lon="9.240071562076377"><ele>347.0</ele><time>2026-04-25T07:37:18.011Z</time></trkpt><trkpt lat="45.83692572581897" lon="9.239828452412784"><ele>347.0</ele><time>2026-04-25T07:37:19.011Z</time></trkpt><trkpt lat="45.83685858210435" lon="9.239564762624736"><ele>347.0</ele><time>2026-04-25T07:37:20.011Z</time></trkpt><trkpt lat="45.8367878535451" lon="9.239301992509292"><ele>347.0</ele><time>2026-04-25T07:37:21.011Z</time></trkpt><trkpt lat="45.83671044979297" lon="9.239058399038194"><ele>348.33333333333337</ele><time>2026-04-25T07:37:22.011Z</time></trkpt><trkpt lat="45.83663439200756" lon="9.238826903920877"><ele>349.6666666666667</ele><time>2026-04-25T07:37:23.011Z</time></trkpt><trkpt lat="45.83655815558027" lon="9.23861168122905"><ele>351.0</ele><time>2026-04-25T07:37:24.011Z</time></trkpt><trkpt lat="45.83648016252637" lon="9.238399368820831"><ele>351.0</ele><time>2026-04-25T07:37:25.011Z</time></trkpt><trkpt lat="45.83640067283751" lon="9.238175739511316"><ele>351.0</ele><time>2026-04-25T07:37:26.011Z</time></trkpt><trkpt lat="45.83631827276451" lon="9.237947477675952"><ele>351.0</ele><time>2026-04-25T07:37:27.011Z</time></trkpt><trkpt lat="45.836216637838696" lon="9.237701587420526"><ele>351.0</ele><time>2026-04-25T07:37:28.012Z</time></trkpt><trkpt lat="45.83612721554615" lon="9.237467394269494"><ele>351.0</ele><time>2026-04-25T07:37:29.012Z</time></trkpt><trkpt lat="45.83604010457195" lon="9.23724472424017"><ele>351.0</ele><time>2026-04-25T07:37:30.012Z</time></trkpt><trkpt lat="45.83595744907379" lon="9.237025618964616"><ele>351.0</ele><time>2026-04-25T07:37:31.012Z</time></trkpt><trkpt lat="45.83588356065552" lon="9.23682977453986"><ele>351.0</ele><time>2026-04-25T07:37:32.012Z</time></trkpt><trkpt lat="45.83582135803316" lon="9.236641990434922"><ele>351.0</ele><time>2026-04-25T07:37:33.012Z</time></trkpt><trkpt lat="45.83576030589428" lon="9.236404624153854"><ele>349.6666666666667</ele><time>2026-04-25T07:37:34.012Z</time></trkpt><trkpt lat="45.83572163889539" lon="9.23615799599407"><ele>348.33333333333337</ele><time>2026-04-25T07:37:35.012Z</time></trkpt><trkpt lat="45.835703421601856" lon="9.235917240775766"><ele>347.0</ele><time>2026-04-25T07:37:36.012Z</time></trkpt><trkpt lat="45.83568179195372" lon="9.235654262663015"><ele>346.6666666666667</ele><time>2026-04-25T07:37:37.012Z</time></trkpt><trkpt lat="45.83566195015197" lon="9.235401241417907"><ele>346.3333333333333</ele><time>2026-04-25T07:37:38.012Z</time></trkpt><trkpt lat="45.835631158708715" lon="9.23516257343021"><ele>346.0</ele><time>2026-04-25T07:37:39.012Z</time></trkpt><trkpt lat="45.83559569305638" lon="9.2349299122364"><ele>346.0</ele><time>2026-04-25T07:37:40.012Z</time></trkpt><trkpt lat="45.83556090986583" lon="9.23469564665582"><ele>346.0</ele><time>2026-04-25T07:37:41.012Z</time></trkpt><trkpt lat="45.83552828580341" lon="9.2344776314729"><ele>346.0</ele><time>2026-04-25T07:37:42.012Z</time></trkpt><trkpt lat="45.835495495999275" lon="9.234271248297281"><ele>346.0</ele><time>2026-04-25T07:37:43.012Z</time></trkpt><trkpt lat="45.83546215334164" lon="9.234068632665426"><ele>346.0</ele><time>2026-04-25T07:37:44.012Z</time></trkpt><trkpt lat="45.83543467690998" lon="9.23386040789569"><ele>346.0</ele><time>2026-04-25T07:37:45.012Z</time></trkpt><trkpt lat="45.835407522234625" lon="9.233648302132002"><ele>346.0</ele><time>2026-04-25T07:37:46.012Z</time></trkpt><trkpt lat="45.83538210364825" lon="9.233441859421045"><ele>344.0</ele><time>2026-04-25T07:37:47.012Z</time></trkpt><trkpt lat="45.83536014503456" lon="9.233250987364263"><ele>342.0</ele><time>2026-04-25T07:37:48.012Z</time></trkpt><trkpt lat="45.83533973566287" lon="9.233066027136665"><ele>340.0</ele><time>2026-04-25T07:37:49.012Z</time></trkpt><trkpt lat="45.83532261197715" lon="9.232906907238776"><ele>338.0</ele><time>2026-04-25T07:37:50.012Z</time></trkpt><trkpt lat="45.83530993359531" lon="9.232775555406276"><ele>337.1666666666667</ele><time>2026-04-25T07:37:51.012Z</time></trkpt><trkpt lat="45.83529717459686" lon="9.232669836453177"><ele>336.33333333333337</ele><time>2026-04-25T07:37:52.012Z</time></trkpt><trkpt lat="45.83529213824669" lon="9.232514590101514"><ele>335.5</ele><time>2026-04-25T07:37:54.012Z</time></trkpt><trkpt lat="45.835289487698105" lon="9.232423936224288"><ele>334.6666666666667</ele><time>2026-04-25T07:37:57.012Z</time></trkpt><trkpt lat="45.83527829921459" lon="9.232301405818381"><ele>333.8333333333333</ele><time>2026-04-25T07:38:11.012Z</time></trkpt><trkpt lat="45.83525824289801" lon="9.232170589615686"><ele>333.0</ele><time>2026-04-25T07:38:12.012Z</time></trkpt><trkpt lat="45.83521751602803" lon="9.231997639279921"><ele>332.0</ele><time>2026-04-25T07:38:13.012Z</time></trkpt><trkpt lat="45.835171618229616" lon="9.231809902092444"><ele>331.0</ele><time>2026-04-25T07:38:14.012Z</time></trkpt><trkpt lat="45.835128668305494" lon="9.23158329398597"><ele>330.0</ele><time>2026-04-25T07:38:15.012Z</time></trkpt><trkpt lat="45.83508907936303" lon="9.23134224799125"><ele>334.6666666666667</ele><time>2026-04-25T07:38:16.012Z</time></trkpt><trkpt lat="45.83505595810288" lon="9.231127236668963"><ele>339.33333333333337</ele><time>2026-04-25T07:38:17.012Z</time></trkpt><trkpt lat="45.835014753814974" lon="9.23090592005344"><ele>344.0</ele><time>2026-04-25T07:38:18.012Z</time></trkpt><trkpt lat="45.834970359478106" lon="9.23067219839845"><ele>341.6666666666667</ele><time>2026-04-25T07:38:19.012Z</time></trkpt><trkpt lat="45.83492735318325" lon="9.23043913009689"><ele>339.3333333333333</ele><time>2026-04-25T07:38:20.012Z</time></trkpt><trkpt lat="45.83488584624475" lon="9.230197316000265"><ele>337.0</ele><time>2026-04-25T07:38:21.012Z</time></trkpt><trkpt lat="45.834841459322064" lon="9.229948477213496"><ele>334.3333333333333</ele><time>2026-04-25T07:38:22.012Z</time></trkpt><trkpt lat="45.83479191727089" lon="9.229656780927922"><ele>331.6666666666667</ele><time>2026-04-25T07:38:23.012Z</time></trkpt><trkpt lat="45.83473719095588" lon="9.229334978563019"><ele>329.0</ele><time>2026-04-25T07:38:24.012Z</time></trkpt><trkpt lat="45.83469044313996" lon="9.22903412059469"><ele>328.6666666666667</ele><time>2026-04-25T07:38:25.012Z</time></trkpt><trkpt lat="45.83464643154251" lon="9.228775153373302"><ele>328.3333333333333</ele><time>2026-04-25T07:38:26.012Z</time></trkpt><trkpt lat="45.83459818848003" lon="9.228519366665436"><ele>328.0</ele><time>2026-04-25T07:38:27.012Z</time></trkpt><trkpt lat="45.83455592794132" lon="9.228267578647356"><ele>328.0</ele><time>2026-04-25T07:38:28.012Z</time></trkpt><trkpt lat="45.834526325862186" lon="9.228031714121002"><ele>328.0</ele><time>2026-04-25T07:38:29.012Z</time></trkpt><trkpt lat="45.83447335308204" lon="9.227783453443188"><ele>328.0</ele><time>2026-04-25T07:38:30.012Z</time></trkpt><trkpt lat="45.83439160760085" lon="9.22750285583605"><ele>330.66666666666663</ele><time>2026-04-25T07:38:31.012Z</time></trkpt><trkpt lat="45.83430105700781" lon="9.22724370537115"><ele>333.3333333333333</ele><time>2026-04-25T07:38:32.012Z</time></trkpt><trkpt lat="45.83420696535952" lon="9.226994344545426"><ele>336.0</ele><time>2026-04-25T07:38:33.012Z</time></trkpt><trkpt lat="45.83411543714948" lon="9.226760391663216"><ele>336.0</ele><time>2026-04-25T07:38:34.012Z</time></trkpt><trkpt lat="45.83402826487157" lon="9.22653130502105"><ele>336.0</ele><time>2026-04-25T07:38:35.012Z</time></trkpt><trkpt lat="45.83393993617255" lon="9.2262902555413"><ele>336.0</ele><time>2026-04-25T07:38:36.012Z</time></trkpt><trkpt lat="45.83385536231388" lon="9.22605710275395"><ele>334.6666666666667</ele><time>2026-04-25T07:38:37.012Z</time></trkpt><trkpt lat="45.833771621181924" lon="9.225813734444408"><ele>333.33333333333337</ele><time>2026-04-25T07:38:38.012Z</time></trkpt><trkpt lat="45.833691059085666" lon="9.225561928942216"><ele>332.0</ele><time>2026-04-25T07:38:39.012Z</time></trkpt><trkpt lat="45.833617011877" lon="9.225304055338857"><ele>331.33333333333337</ele><time>2026-04-25T07:38:40.012Z</time></trkpt><trkpt lat="45.83356814058165" lon="9.22504101449773"><ele>330.6666666666667</ele><time>2026-04-25T07:38:41.013Z</time></trkpt><trkpt lat="45.83349608386908" lon="9.224811410681669"><ele>330.0</ele><time>2026-04-25T07:38:42.013Z</time></trkpt><trkpt lat="45.83344109158858" lon="9.224580749153793"><ele>330.0</ele><time>2026-04-25T07:38:43.013Z</time></trkpt><trkpt lat="45.833382224478385" lon="9.224348172336564"><ele>330.0</ele><time>2026-04-25T07:38:44.013Z</time></trkpt><trkpt lat="45.83332466236187" lon="9.224120152194784"><ele>330.0</ele><time>2026-04-25T07:38:45.013Z</time></trkpt><trkpt lat="45.83326051052091" lon="9.223889493323794"><ele>338.3333333333333</ele><time>2026-04-25T07:38:46.013Z</time></trkpt><trkpt lat="45.83318313985749" lon="9.223668157626074"><ele>346.66666666666663</ele><time>2026-04-25T07:38:47.013Z</time></trkpt><trkpt lat="45.83307520607567" lon="9.223449909099584"><ele>355.0</ele><time>2026-04-25T07:38:48.013Z</time></trkpt><trkpt lat="45.832937470528314" lon="9.223254121597561"><ele>368.66666666666663</ele><time>2026-04-25T07:38:49.013Z</time></trkpt><trkpt lat="45.832777912605124" lon="9.223063864231491"><ele>382.3333333333333</ele><time>2026-04-25T07:38:50.013Z</time></trkpt><trkpt lat="45.83258433437289" lon="9.22292747629364"><ele>396.0</ele><time>2026-04-25T07:38:51.013Z</time></trkpt><trkpt lat="45.83238097182436" lon="9.222830235156051"><ele>396.0</ele><time>2026-04-25T07:38:52.013Z</time></trkpt><trkpt lat="45.8321774336596" lon="9.22273583542597"><ele>396.0</ele><time>2026-04-25T07:38:53.013Z</time></trkpt><trkpt lat="45.83197986404381" lon="9.222642187190738"><ele>396.0</ele><time>2026-04-25T07:38:54.013Z</time></trkpt><trkpt lat="45.831795437242725" lon="9.222554768664446"><ele>387.0</ele><time>2026-04-25T07:38:55.013Z</time></trkpt><trkpt lat="45.83163535374338" lon="9.222478118019065"><ele>378.0</ele><time>2026-04-25T07:38:56.013Z</time></trkpt><trkpt lat="45.83146886713497" lon="9.222396502111495"><ele>369.0</ele><time>2026-04-25T07:38:57.013Z</time></trkpt><trkpt lat="45.83127714762665" lon="9.222293227552443"><ele>375.33333333333337</ele><time>2026-04-25T07:38:58.013Z</time></trkpt><trkpt lat="45.83109582137994" lon="9.222185962054215"><ele>381.6666666666667</ele><time>2026-04-25T07:38:59.013Z</time></trkpt><trkpt lat="45.83093478213648" lon="9.222074474158335"><ele>388.0</ele><time>2026-04-25T07:39:00.013Z</time></trkpt><trkpt lat="45.83078948104339" lon="9.22194271937337"><ele>388.0</ele><time>2026-04-25T07:39:01.013Z</time></trkpt><trkpt lat="45.83064732524079" lon="9.221816364057299"><ele>388.0</ele><time>2026-04-25T07:39:02.013Z</time></trkpt><trkpt lat="45.83051020440501" lon="9.221674500840587"><ele>388.0</ele><time>2026-04-25T07:39:03.013Z</time></trkpt><trkpt lat="45.83038083851304" lon="9.22151473772863"><ele>388.0</ele><time>2026-04-25T07:39:04.013Z</time></trkpt><trkpt lat="45.83025453505604" lon="9.221360372213555"><ele>388.0</ele><time>2026-04-25T07:39:05.013Z</time></trkpt><trkpt lat="45.830131698371574" lon="9.221189860113537"><ele>388.0</ele><time>2026-04-25T07:39:06.013Z</time></trkpt><trkpt lat="45.830006839243104" lon="9.221045125206238"><ele>388.0</ele><time>2026-04-25T07:39:07.013Z</time></trkpt><trkpt lat="45.82989651392005" lon="9.2208760830483"><ele>388.0</ele><time>2026-04-25T07:39:08.013Z</time></trkpt><trkpt lat="45.829773389181945" lon="9.22072067799406"><ele>388.0</ele><time>2026-04-25T07:39:09.013Z</time></trkpt><trkpt lat="45.82963755432038" lon="9.220595592005838"><ele>388.6666666666667</ele><time>2026-04-25T07:39:10.013Z</time></trkpt><trkpt lat="45.82950466401195" lon="9.22045490854425"><ele>389.33333333333337</ele><time>2026-04-25T07:39:11.013Z</time></trkpt><trkpt lat="45.82934792571435" lon="9.220380242432253"><ele>390.0</ele><time>2026-04-25T07:39:12.013Z</time></trkpt><trkpt lat="45.82917675934002" lon="9.220279028062825"><ele>390.0</ele><time>2026-04-25T07:39:13.013Z</time></trkpt><trkpt lat="45.82896602109286" lon="9.220228140176427"><ele>390.0</ele><time>2026-04-25T07:39:14.013Z</time></trkpt><trkpt lat="45.82874461368321" lon="9.220198287175105"><ele>390.0</ele><time>2026-04-25T07:39:15.013Z</time></trkpt><trkpt lat="45.8285345849665" lon="9.220176238796952"><ele>383.3333333333333</ele><time>2026-04-25T07:39:16.013Z</time></trkpt><trkpt lat="45.828312486384014" lon="9.220152923354902"><ele>376.66666666666663</ele><time>2026-04-25T07:39:17.013Z</time></trkpt><trkpt lat="45.8280886833615" lon="9.220129422571251"><ele>370.0</ele><time>2026-04-25T07:39:18.013Z</time></trkpt><trkpt lat="45.82785949592968" lon="9.220079674941486"><ele>367.0</ele><time>2026-04-25T07:39:19.013Z</time></trkpt><trkpt lat="45.82762736732597" lon="9.220048255531061"><ele>364.0</ele><time>2026-04-25T07:39:20.013Z</time></trkpt><trkpt lat="45.8273949199199" lon="9.220019361494302"><ele>364.0</ele><time>2026-04-25T07:39:21.013Z</time></trkpt><trkpt lat="45.827165010395305" lon="9.219985213722737"><ele>364.0</ele><time>2026-04-25T07:39:22.013Z</time></trkpt><trkpt lat="45.82693549895893" lon="9.219932606576963"><ele>359.5</ele><time>2026-04-25T07:39:23.013Z</time></trkpt><trkpt lat="45.826709070106034" lon="9.219852118628022"><ele>355.0</ele><time>2026-04-25T07:39:24.013Z</time></trkpt><trkpt lat="45.82646090346593" lon="9.219747882031259"><ele>362.0</ele><time>2026-04-25T07:39:25.013Z</time></trkpt><trkpt lat="45.82619215125592" lon="9.219620568804132"><ele>369.0</ele><time>2026-04-25T07:39:26.013Z</time></trkpt><trkpt lat="45.82592831847887" lon="9.21947484149906"><ele>369.0</ele><time>2026-04-25T07:39:27.013Z</time></trkpt><trkpt lat="45.82568162424415" lon="9.219329636514662"><ele>369.0</ele><time>2026-04-25T07:39:28.013Z</time></trkpt><trkpt lat="45.82544428987824" lon="9.21916496090619"><ele>376.0</ele><time>2026-04-25T07:39:29.013Z</time></trkpt><trkpt lat="45.82519064590029" lon="9.21897197141713"><ele>383.0</ele><time>2026-04-25T07:39:30.013Z</time></trkpt><trkpt lat="45.82493977426136" lon="9.218800004186935"><ele>383.0</ele><time>2026-04-25T07:39:31.013Z</time></trkpt><trkpt lat="45.82468854170596" lon="9.218643504004246"><ele>383.0</ele><time>2026-04-25T07:39:32.013Z</time></trkpt><trkpt lat="45.8244494225493" lon="9.21851984547063"><ele>371.0</ele><time>2026-04-25T07:39:33.013Z</time></trkpt><trkpt lat="45.824204512833525" lon="9.218401043861618"><ele>359.0</ele><time>2026-04-25T07:39:34.013Z</time></trkpt><trkpt lat="45.82396153076602" lon="9.218286129244817"><ele>359.0</ele><time>2026-04-25T07:39:35.013Z</time></trkpt><trkpt lat="45.82372945692134" lon="9.21818285256792"><ele>359.0</ele><time>2026-04-25T07:39:36.013Z</time></trkpt><trkpt lat="45.823500115502206" lon="9.21806349859514"><ele>364.33333333333337</ele><time>2026-04-25T07:39:37.013Z</time></trkpt><trkpt lat="45.823285043599455" lon="9.21795305060455"><ele>369.6666666666667</ele><time>2026-04-25T07:39:38.013Z</time></trkpt><trkpt lat="45.823082293040315" lon="9.217843135811748"><ele>375.0</ele><time>2026-04-25T07:39:39.013Z</time></trkpt><trkpt lat="45.82288955720253" lon="9.2177533683082"><ele>375.0</ele><time>2026-04-25T07:39:40.013Z</time></trkpt><trkpt lat="45.822705216966746" lon="9.217649756099764"><ele>375.0</ele><time>2026-04-25T07:39:41.013Z</time></trkpt><trkpt lat="45.82252478776892" lon="9.217562973535818"><ele>375.0</ele><time>2026-04-25T07:39:42.013Z</time></trkpt><trkpt lat="45.8223447949671" lon="9.217482349966543"><ele>373.3333333333333</ele><time>2026-04-25T07:39:43.013Z</time></trkpt><trkpt lat="45.82215770354063" lon="9.21739185942734"><ele>371.66666666666663</ele><time>2026-04-25T07:39:44.013Z</time></trkpt><trkpt lat="45.82196371572005" lon="9.217309985278144"><ele>370.0</ele><time>2026-04-25T07:39:45.013Z</time></trkpt><trkpt lat="45.82176715696222" lon="9.217185822823204"><ele>370.0</ele><time>2026-04-25T07:39:46.013Z</time></trkpt><trkpt lat="45.8215884223017" lon="9.217043298582423"><ele>370.0</ele><time>2026-04-25T07:39:47.013Z</time></trkpt><trkpt lat="45.82141721598166" lon="9.21688130036664"><ele>370.0</ele><time>2026-04-25T07:39:48.013Z</time></trkpt><trkpt lat="45.821250209896995" lon="9.216736297068042"><ele>370.0</ele><time>2026-04-25T07:39:49.013Z</time></trkpt><trkpt lat="45.82107168100876" lon="9.216564272058523"><ele>370.0</ele><time>2026-04-25T07:39:50.013Z</time></trkpt><trkpt lat="45.82088487538085" lon="9.216390105750788"><ele>370.0</ele><time>2026-04-25T07:39:51.013Z</time></trkpt><trkpt lat="45.8206924894013" lon="9.216270186963234"><ele>369.66666666666663</ele><time>2026-04-25T07:39:52.013Z</time></trkpt><trkpt lat="45.820491774014684" lon="9.216167468203718"><ele>369.3333333333333</ele><time>2026-04-25T07:39:53.013Z</time></trkpt><trkpt lat="45.82027717589857" lon="9.216076156765212"><ele>369.0</ele><time>2026-04-25T07:39:54.013Z</time></trkpt><trkpt lat="45.82007686773128" lon="9.2160123201443"><ele>369.0</ele><time>2026-04-25T07:39:55.013Z</time></trkpt><trkpt lat="45.81987380113675" lon="9.215948652153887"><ele>369.0</ele><time>2026-04-25T07:39:56.013Z</time></trkpt><trkpt lat="45.819672785506846" lon="9.215880278232786"><ele>369.0</ele><time>2026-04-25T07:39:57.013Z</time></trkpt><trkpt lat="45.819469207368364" lon="9.215812354876354"><ele>366.3333333333333</ele><time>2026-04-25T07:39:58.014Z</time></trkpt><trkpt lat="45.819266780523634" lon="9.215736554597878"><ele>363.66666666666663</ele><time>2026-04-25T07:39:59.014Z</time></trkpt><trkpt lat="45.81906674105161" lon="9.21567102135279"><ele>361.0</ele><time>2026-04-25T07:40:00.014Z</time></trkpt><trkpt lat="45.81886655591973" lon="9.215602210184297"><ele>364.3333333333333</ele><time>2026-04-25T07:40:01.014Z</time></trkpt><trkpt lat="45.81867274321505" lon="9.215538386792918"><ele>367.6666666666667</ele><time>2026-04-25T07:40:02.014Z</time></trkpt><trkpt lat="45.81849655393257" lon="9.215481439809723"><ele>371.0</ele><time>2026-04-25T07:40:03.014Z</time></trkpt><trkpt lat="45.81832168777214" lon="9.215423394612461"><ele>371.0</ele><time>2026-04-25T07:40:04.014Z</time></trkpt><trkpt lat="45.81814980938527" lon="9.21536000918059"><ele>371.0</ele><time>2026-04-25T07:40:05.014Z</time></trkpt><trkpt lat="45.81797250741306" lon="9.215298687616281"><ele>371.0</ele><time>2026-04-25T07:40:06.014Z</time></trkpt><trkpt lat="45.81778625378523" lon="9.215199768431743"><ele>369.6666666666667</ele><time>2026-04-25T07:40:07.014Z</time></trkpt><trkpt lat="45.8175847440578" lon="9.215126862418709"><ele>368.3333333333333</ele><time>2026-04-25T07:40:08.014Z</time></trkpt><trkpt lat="45.81737534767827" lon="9.21505753319482"><ele>367.0</ele><time>2026-04-25T07:40:09.014Z</time></trkpt><trkpt lat="45.817158660974535" lon="9.214983467892855"><ele>367.0</ele><time>2026-04-25T07:40:10.014Z</time></trkpt><trkpt lat="45.8169415206667" lon="9.214906374908432"><ele>367.0</ele><time>2026-04-25T07:40:11.014Z</time></trkpt><trkpt lat="45.816727790574376" lon="9.214822778510467"><ele>367.0</ele><time>2026-04-25T07:40:12.014Z</time></trkpt><trkpt lat="45.81651911545994" lon="9.214721768711863"><ele>371.0</ele><time>2026-04-25T07:40:13.014Z</time></trkpt><trkpt lat="45.816321480491325" lon="9.2146127032093"><ele>375.0</ele><time>2026-04-25T07:40:14.014Z</time></trkpt><trkpt lat="45.8161360639048" lon="9.214497052560684"><ele>379.0</ele><time>2026-04-25T07:40:15.014Z</time></trkpt><trkpt lat="45.815956504638" lon="9.214368213012989"><ele>379.0</ele><time>2026-04-25T07:40:16.014Z</time></trkpt><trkpt lat="45.81578792089489" lon="9.214232204888967"><ele>379.0</ele><time>2026-04-25T07:40:17.014Z</time></trkpt><trkpt lat="45.815624404888865" lon="9.214084320705265"><ele>379.0</ele><time>2026-04-25T07:40:18.014Z</time></trkpt><trkpt lat="45.81545335930275" lon="9.213916489992556"><ele>380.66666666666663</ele><time>2026-04-25T07:40:19.014Z</time></trkpt><trkpt lat="45.81528545317128" lon="9.213723056210675"><ele>382.3333333333333</ele><time>2026-04-25T07:40:20.014Z</time></trkpt><trkpt lat="45.81511618906484" lon="9.213548938800553"><ele>384.0</ele><time>2026-04-25T07:40:21.014Z</time></trkpt><trkpt lat="45.81494619508127" lon="9.213366899466438"><ele>384.0</ele><time>2026-04-25T07:40:22.014Z</time></trkpt><trkpt lat="45.81477180236743" lon="9.21318385004622"><ele>384.0</ele><time>2026-04-25T07:40:23.014Z</time></trkpt><trkpt lat="45.814596977364495" lon="9.212996838428765"><ele>384.0</ele><time>2026-04-25T07:40:24.014Z</time></trkpt><trkpt lat="45.81442671044554" lon="9.212817565321537"><ele>385.33333333333337</ele><time>2026-04-25T07:40:25.014Z</time></trkpt><trkpt lat="45.81426000435497" lon="9.212639586535367"><ele>386.6666666666667</ele><time>2026-04-25T07:40:26.014Z</time></trkpt><trkpt lat="45.814096749916445" lon="9.212462703133669"><ele>388.0</ele><time>2026-04-25T07:40:27.014Z</time></trkpt><trkpt lat="45.81393106412375" lon="9.212281891181872"><ele>387.6666666666667</ele><time>2026-04-25T07:40:28.014Z</time></trkpt><trkpt lat="45.813765000923766" lon="9.212109484651096"><ele>387.33333333333337</ele><time>2026-04-25T07:40:29.014Z</time></trkpt><trkpt lat="45.813601052159314" lon="9.21193448195923"><ele>387.0</ele><time>2026-04-25T07:40:30.014Z</time></trkpt><trkpt lat="45.813444192530355" lon="9.21176977135078"><ele>387.0</ele><time>2026-04-25T07:40:31.014Z</time></trkpt><trkpt lat="45.81328888816662" lon="9.211618476210306"><ele>387.0</ele><time>2026-04-25T07:40:32.014Z</time></trkpt><trkpt lat="45.81311490696006" lon="9.211486741844839"><ele>387.0</ele><time>2026-04-25T07:40:33.014Z</time></trkpt><trkpt lat="45.8129305978888" lon="9.211381254456198"><ele>387.33333333333337</ele><time>2026-04-25T07:40:34.014Z</time></trkpt><trkpt lat="45.81274293405692" lon="9.211285828003453"><ele>387.6666666666667</ele><time>2026-04-25T07:40:35.014Z</time></trkpt><trkpt lat="45.812554006965435" lon="9.211214837685969"><ele>388.0</ele><time>2026-04-25T07:40:36.014Z</time></trkpt><trkpt lat="45.81236732426665" lon="9.211156511708598"><ele>388.0</ele><time>2026-04-25T07:40:37.014Z</time></trkpt><trkpt lat="45.81218309846193" lon="9.211101605548844"><ele>388.0</ele><time>2026-04-25T07:40:38.014Z</time></trkpt><trkpt lat="45.81200124021659" lon="9.211050147812836"><ele>388.0</ele><time>2026-04-25T07:40:39.014Z</time></trkpt><trkpt lat="45.81181908718375" lon="9.211001366150837"><ele>385.6666666666667</ele><time>2026-04-25T07:40:40.014Z</time></trkpt><trkpt lat="45.81163821940003" lon="9.21094636218169"><ele>383.33333333333337</ele><time>2026-04-25T07:40:41.014Z</time></trkpt><trkpt lat="45.81146327787694" lon="9.210888149304113"><ele>381.0</ele><time>2026-04-25T07:40:42.014Z</time></trkpt><trkpt lat="45.811286254202464" lon="9.210805594886029"><ele>381.0</ele><time>2026-04-25T07:40:43.014Z</time></trkpt><trkpt lat="45.81111647690656" lon="9.210695265400462"><ele>381.0</ele><time>2026-04-25T07:40:44.014Z</time></trkpt><trkpt lat="45.81095540871109" lon="9.210535655719733"><ele>381.0</ele><time>2026-04-25T07:40:45.014Z</time></trkpt><trkpt lat="45.81078856377535" lon="9.210332609544404"><ele>380.6666666666667</ele><time>2026-04-25T07:40:46.014Z</time></trkpt><trkpt lat="45.81061843161407" lon="9.210130460400409"><ele>380.33333333333337</ele><time>2026-04-25T07:40:47.014Z</time></trkpt><trkpt lat="45.810440232937175" lon="9.209960175504547"><ele>380.0</ele><time>2026-04-25T07:40:48.014Z</time></trkpt><trkpt lat="45.81027777829525" lon="9.209768609975391"><ele>379.33333333333337</ele><time>2026-04-25T07:40:49.014Z</time></trkpt><trkpt lat="45.81011879056782" lon="9.209604588919191"><ele>378.6666666666667</ele><time>2026-04-25T07:40:50.014Z</time></trkpt><trkpt lat="45.80995237440139" lon="9.209460584241862"><ele>378.0</ele><time>2026-04-25T07:40:51.014Z</time></trkpt><trkpt lat="45.80977522235926" lon="9.209346042774326"><ele>378.0</ele><time>2026-04-25T07:40:52.014Z</time></trkpt><trkpt lat="45.80959046816673" lon="9.209272926648692"><ele>378.0</ele><time>2026-04-25T07:40:53.014Z</time></trkpt><trkpt lat="45.80940121352343" lon="9.20924020955115"><ele>378.0</ele><time>2026-04-25T07:40:54.014Z</time></trkpt><trkpt lat="45.80920250995307" lon="9.209240418737092"><ele>374.3333333333333</ele><time>2026-04-25T07:40:55.014Z</time></trkpt><trkpt lat="45.809003121023686" lon="9.209281463808606"><ele>370.66666666666663</ele><time>2026-04-25T07:40:56.014Z</time></trkpt><trkpt lat="45.80879565658104" lon="9.209361335577368"><ele>367.0</ele><time>2026-04-25T07:40:57.014Z</time></trkpt><trkpt lat="45.80859518711833" lon="9.20945198365355"><ele>364.0</ele><time>2026-04-25T07:40:58.014Z</time></trkpt><trkpt lat="45.80840522862711" lon="9.209551832731494"><ele>361.0</ele><time>2026-04-25T07:40:59.014Z</time></trkpt><trkpt lat="45.80821496855234" lon="9.209654619621164"><ele>358.0</ele><time>2026-04-25T07:41:00.014Z</time></trkpt><trkpt lat="45.80802554246339" lon="9.20974997029141"><ele>357.0</ele><time>2026-04-25T07:41:01.014Z</time></trkpt><trkpt lat="45.8078358677797" lon="9.209845470883092"><ele>356.0</ele><time>2026-04-25T07:41:02.014Z</time></trkpt><trkpt lat="45.80764601980325" lon="9.209934307826162"><ele>355.0</ele><time>2026-04-25T07:41:03.014Z</time></trkpt><trkpt lat="45.80745544999507" lon="9.210004467601486"><ele>354.0</ele><time>2026-04-25T07:41:04.014Z</time></trkpt><trkpt lat="45.80727569146944" lon="9.210046917534376"><ele>353.0</ele><time>2026-04-25T07:41:05.014Z</time></trkpt><trkpt lat="45.807092747396524" lon="9.210065598347104"><ele>352.0</ele><time>2026-04-25T07:41:06.014Z</time></trkpt><trkpt lat="45.806920568925925" lon="9.210047930350488"><ele>352.0</ele><time>2026-04-25T07:41:07.014Z</time></trkpt><trkpt lat="45.80675898314187" lon="9.210009613449044"><ele>352.0</ele><time>2026-04-25T07:41:08.014Z</time></trkpt><trkpt lat="45.80660701040855" lon="9.209948145083738"><ele>352.0</ele><time>2026-04-25T07:41:09.014Z</time></trkpt><trkpt lat="45.80646225636052" lon="9.209872808904414"><ele>351.0</ele><time>2026-04-25T07:41:10.014Z</time></trkpt><trkpt lat="45.80632360345924" lon="9.209781346969436"><ele>350.0</ele><time>2026-04-25T07:41:11.014Z</time></trkpt><trkpt lat="45.80618975608266" lon="9.20967319085667"><ele>349.0</ele><time>2026-04-25T07:41:12.014Z</time></trkpt><trkpt lat="45.80607211686257" lon="9.209543934768801"><ele>347.5</ele><time>2026-04-25T07:41:13.014Z</time></trkpt><trkpt lat="45.805958877766294" lon="9.209417065859773"><ele>346.0</ele><time>2026-04-25T07:41:14.014Z</time></trkpt><trkpt lat="45.80586462524531" lon="9.209276449689874"><ele>344.5</ele><time>2026-04-25T07:41:15.015Z</time></trkpt><trkpt lat="45.805774104145286" lon="9.209135422404252"><ele>343.0</ele><time>2026-04-25T07:41:16.015Z</time></trkpt><trkpt lat="45.805685105479355" lon="9.209003330021474"><ele>343.5</ele><time>2026-04-25T07:41:17.015Z</time></trkpt><trkpt lat="45.80559431981012" lon="9.20886386048478"><ele>344.0</ele><time>2026-04-25T07:41:18.015Z</time></trkpt><trkpt lat="45.80549814252735" lon="9.20872183864966"><ele>344.5</ele><time>2026-04-25T07:41:19.015Z</time></trkpt><trkpt lat="45.8054091504157" lon="9.20859116581033"><ele>345.0</ele><time>2026-04-25T07:41:20.015Z</time></trkpt><trkpt lat="45.80531383157061" lon="9.208450595259153"><ele>345.0</ele><time>2026-04-25T07:41:21.015Z</time></trkpt><trkpt lat="45.805217990970235" lon="9.208311209075255"><ele>345.0</ele><time>2026-04-25T07:41:22.015Z</time></trkpt><trkpt lat="45.80512911477187" lon="9.20819602810363"><ele>345.0</ele><time>2026-04-25T07:41:23.015Z</time></trkpt><trkpt lat="45.805045556243705" lon="9.208091138834584"><ele>345.0</ele><time>2026-04-25T07:41:24.015Z</time></trkpt><trkpt lat="45.80496086378942" lon="9.208005173615456"><ele>344.6</ele><time>2026-04-25T07:41:25.015Z</time></trkpt><trkpt lat="45.804884817631375" lon="9.207926711375748"><ele>344.2</ele><time>2026-04-25T07:41:26.015Z</time></trkpt><trkpt lat="45.80481409534645" lon="9.20785421035011"><ele>343.79999999999995</ele><time>2026-04-25T07:41:27.015Z</time></trkpt><trkpt lat="45.80475018213402" lon="9.20778320237731"><ele>343.4</ele><time>2026-04-25T07:41:28.015Z</time></trkpt><trkpt lat="45.80466032154227" lon="9.207699329809325"><ele>343.0</ele><time>2026-04-25T07:41:30.015Z</time></trkpt><trkpt lat="45.80458515491195" lon="9.207639258314533"><ele>343.0</ele><time>2026-04-25T07:41:32.015Z</time></trkpt><trkpt lat="45.80449010132856" lon="9.207531744275336"><ele>343.0</ele><time>2026-04-25T07:41:34.015Z</time></trkpt><trkpt lat="45.80444737209062" lon="9.207444794423306"><ele>343.0</ele><time>2026-04-25T07:41:35.015Z</time></trkpt><trkpt lat="45.804416350311385" lon="9.207362674854604"><ele>343.0</ele><time>2026-04-25T07:41:36.015Z</time></trkpt><trkpt lat="45.80439273119047" lon="9.207260982060484"><ele>343.0</ele><time>2026-04-25T07:41:37.015Z</time></trkpt><trkpt lat="45.80435582135614" lon="9.207156650133351"><ele>343.0</ele><time>2026-04-25T07:41:38.015Z</time></trkpt><trkpt lat="45.8042942355809" lon="9.207097453241369"><ele>343.0</ele><time>2026-04-25T07:41:39.015Z</time></trkpt><trkpt lat="45.80421481225075" lon="9.207070326461508"><ele>343.0</ele><time>2026-04-25T07:41:40.015Z</time></trkpt><trkpt lat="45.80411114827675" lon="9.207053136917676"><ele>343.0</ele><time>2026-04-25T07:41:41.015Z</time></trkpt><trkpt lat="45.804015469903995" lon="9.20698122651323"><ele>343.0</ele><time>2026-04-25T07:41:42.015Z</time></trkpt><trkpt lat="45.80393694679" lon="9.206888240936593"><ele>343.0</ele><time>2026-04-25T07:41:43.015Z</time></trkpt><trkpt lat="45.80385428231898" lon="9.2067938840314"><ele>343.0</ele><time>2026-04-25T07:41:44.015Z</time></trkpt><trkpt lat="45.80376316038111" lon="9.206692185162346"><ele>343.0</ele><time>2026-04-25T07:41:45.015Z</time></trkpt><trkpt lat="45.803667229229845" lon="9.206588082650956"><ele>343.0</ele><time>2026-04-25T07:41:46.015Z</time></trkpt><trkpt lat="45.80356455807658" lon="9.206477274482097"><ele>343.0</ele><time>2026-04-25T07:41:47.015Z</time></trkpt><trkpt lat="45.80344597029772" lon="9.206357447588667"><ele>342.75</ele><time>2026-04-25T07:41:48.015Z</time></trkpt><trkpt lat="45.80332586630649" lon="9.206242293519528"><ele>342.5</ele><time>2026-04-25T07:41:49.015Z</time></trkpt><trkpt lat="45.80321921572213" lon="9.206110144809"><ele>342.25</ele><time>2026-04-25T07:41:50.015Z</time></trkpt><trkpt lat="45.8030981350234" lon="9.206001493133627"><ele>342.0</ele><time>2026-04-25T07:41:51.015Z</time></trkpt><trkpt lat="45.80297020674933" lon="9.205918187500062"><ele>342.0</ele><time>2026-04-25T07:41:52.015Z</time></trkpt><trkpt lat="45.8028553546187" lon="9.205816607465465"><ele>342.0</ele><time>2026-04-25T07:41:53.015Z</time></trkpt><trkpt lat="45.80274031568385" lon="9.205710121070116"><ele>342.0</ele><time>2026-04-25T07:41:54.015Z</time></trkpt><trkpt lat="45.802621582012435" lon="9.205606938272537"><ele>342.0</ele><time>2026-04-25T07:41:55.015Z</time></trkpt><trkpt lat="45.80249991855724" lon="9.205503493342087"><ele>342.0</ele><time>2026-04-25T07:41:56.015Z</time></trkpt><trkpt lat="45.80237809730819" lon="9.205406457545102"><ele>342.0</ele><time>2026-04-25T07:41:57.015Z</time></trkpt><trkpt lat="45.802247416192095" lon="9.205302874481866"><ele>342.0</ele><time>2026-04-25T07:41:58.015Z</time></trkpt><trkpt lat="45.80211314685692" lon="9.205198823773673"><ele>342.0</ele><time>2026-04-25T07:41:59.015Z</time></trkpt><trkpt lat="45.80197150403147" lon="9.205087833405342"><ele>342.3333333333333</ele><time>2026-04-25T07:42:00.015Z</time></trkpt><trkpt lat="45.801826948105706" lon="9.204979036962804"><ele>342.66666666666663</ele><time>2026-04-25T07:42:01.015Z</time></trkpt><trkpt lat="45.80167820392865" lon="9.204867756455487"><ele>343.0</ele><time>2026-04-25T07:42:02.015Z</time></trkpt><trkpt lat="45.80153174563858" lon="9.204751499200935"><ele>342.25</ele><time>2026-04-25T07:42:03.015Z</time></trkpt><trkpt lat="45.80139337877043" lon="9.204644984522172"><ele>341.5</ele><time>2026-04-25T07:42:04.015Z</time></trkpt><trkpt lat="45.80125868482147" lon="9.204541060385107"><ele>340.75</ele><time>2026-04-25T07:42:05.015Z</time></trkpt><trkpt lat="45.80113978546456" lon="9.2044465904441"><ele>340.0</ele><time>2026-04-25T07:42:06.015Z</time></trkpt><trkpt lat="45.801024296522186" lon="9.204353580230693"><ele>341.0</ele><time>2026-04-25T07:42:07.015Z</time></trkpt><trkpt lat="45.80090649111299" lon="9.204259546185797"><ele>342.0</ele><time>2026-04-25T07:42:08.015Z</time></trkpt><trkpt lat="45.80079977839624" lon="9.20417343609631"><ele>343.0</ele><time>2026-04-25T07:42:09.015Z</time></trkpt><trkpt lat="45.80070309468542" lon="9.204094636086799"><ele>344.0</ele><time>2026-04-25T07:42:10.015Z</time></trkpt><trkpt lat="45.80060278972239" lon="9.204019946148398"><ele>343.5</ele><time>2026-04-25T07:42:11.015Z</time></trkpt><trkpt lat="45.80048853194337" lon="9.203966887268436"><ele>343.0</ele><time>2026-04-25T07:42:12.015Z</time></trkpt><trkpt lat="45.80036389358155" lon="9.20396324428641"><ele>342.5</ele><time>2026-04-25T07:42:13.015Z</time></trkpt><trkpt lat="45.80023092437037" lon="9.20397054594439"><ele>342.0</ele><time>2026-04-25T07:42:14.015Z</time></trkpt><trkpt lat="45.80009985502076" lon="9.203962908603978"><ele>342.0</ele><time>2026-04-25T07:42:15.015Z</time></trkpt><trkpt lat="45.79997800017432" lon="9.203967826744556"><ele>342.0</ele><time>2026-04-25T07:42:16.015Z</time></trkpt><trkpt lat="45.79985865592635" lon="9.203974880180793"><ele>342.0</ele><time>2026-04-25T07:42:17.015Z</time></trkpt><trkpt lat="45.79974726842708" lon="9.203980028322414"><ele>342.0</ele><time>2026-04-25T07:42:18.015Z</time></trkpt><trkpt lat="45.79964582890875" lon="9.20398850911538"><ele>342.0</ele><time>2026-04-25T07:42:19.015Z</time></trkpt><trkpt lat="45.79954683268243" lon="9.203994787766595"><ele>342.0</ele><time>2026-04-25T07:42:20.015Z</time></trkpt><trkpt lat="45.79945506164344" lon="9.204005335142183"><ele>342.0</ele><time>2026-04-25T07:42:21.015Z</time></trkpt><trkpt lat="45.79937575502458" lon="9.204009697734767"><ele>342.0</ele><time>2026-04-25T07:42:22.015Z</time></trkpt><trkpt lat="45.79930190478516" lon="9.204005651024618"><ele>342.0</ele><time>2026-04-25T07:42:23.015Z</time></trkpt><trkpt lat="45.79923029497484" lon="9.203957542127766"><ele>342.0</ele><time>2026-04-25T07:42:24.015Z</time></trkpt><trkpt lat="45.799161300421666" lon="9.203868384844109"><ele>341.8333333333333</ele><time>2026-04-25T07:42:25.015Z</time></trkpt><trkpt lat="45.7991025075281" lon="9.203797126553255"><ele>341.6666666666667</ele><time>2026-04-25T07:42:26.015Z</time></trkpt><trkpt lat="45.799031592967374" lon="9.203721568089655"><ele>341.5</ele><time>2026-04-25T07:42:27.015Z</time></trkpt><trkpt lat="45.79896287810506" lon="9.20366067161224"><ele>341.33333333333337</ele><time>2026-04-25T07:42:28.016Z</time></trkpt><trkpt lat="45.798883444448045" lon="9.20360295509465"><ele>341.1666666666667</ele><time>2026-04-25T07:42:29.016Z</time></trkpt><trkpt lat="45.798798876411006" lon="9.203527491413626"><ele>341.0</ele><time>2026-04-25T07:42:30.016Z</time></trkpt><trkpt lat="45.798711274678354" lon="9.203444715264029"><ele>341.0</ele><time>2026-04-25T07:42:31.016Z</time></trkpt><trkpt lat="45.79862480976993" lon="9.20337792315443"><ele>341.0</ele><time>2026-04-25T07:42:32.016Z</time></trkpt><trkpt lat="45.79854071970724" lon="9.203307278881333"><ele>341.0</ele><time>2026-04-25T07:42:33.016Z</time></trkpt><trkpt lat="45.79845379267379" lon="9.203235706239896"><ele>341.0</ele><time>2026-04-25T07:42:34.016Z</time></trkpt><trkpt lat="45.79836832689058" lon="9.203169267497243"><ele>341.0</ele><time>2026-04-25T07:42:35.016Z</time></trkpt><trkpt lat="45.79828462900733" lon="9.203099532804435"><ele>341.20000000000005</ele><time>2026-04-25T07:42:36.016Z</time></trkpt><trkpt lat="45.79819820142463" lon="9.2030292525198"><ele>341.40000000000003</ele><time>2026-04-25T07:42:37.016Z</time></trkpt><trkpt lat="45.798116699236665" lon="9.202963115278768"><ele>341.6</ele><time>2026-04-25T07:42:38.016Z</time></trkpt><trkpt lat="45.798032567576605" lon="9.202894611878603"><ele>341.8</ele><time>2026-04-25T07:42:39.016Z</time></trkpt><trkpt lat="45.797938171583816" lon="9.202815392856264"><ele>342.0</ele><time>2026-04-25T07:42:40.016Z</time></trkpt><trkpt lat="45.79784798738077" lon="9.202737488075467"><ele>342.0</ele><time>2026-04-25T07:42:41.016Z</time></trkpt><trkpt lat="45.7977623667757" lon="9.202668018022177"><ele>342.0</ele><time>2026-04-25T07:42:42.016Z</time></trkpt><trkpt lat="45.797686468493836" lon="9.202603193261341"><ele>342.0</ele><time>2026-04-25T07:42:43.016Z</time></trkpt><trkpt lat="45.7976138300912" lon="9.202545506059051"><ele>342.0</ele><time>2026-04-25T07:42:44.016Z</time></trkpt><trkpt lat="45.797553047180564" lon="9.202496093615705"><ele>342.0</ele><time>2026-04-25T07:42:45Z</time></trkpt><trkpt lat="45.797442468243965" lon="9.202398092469862"><ele>341.5</ele><time>2026-04-25T07:42:47Z</time></trkpt><trkpt lat="45.79737804928142" lon="9.202347765792343"><ele>341.0</ele><time>2026-04-25T07:42:48Z</time></trkpt><trkpt lat="45.797316132981294" lon="9.202298075920815"><ele>340.5</ele><time>2026-04-25T07:42:49Z</time></trkpt><trkpt lat="45.797256931665565" lon="9.202247570681466"><ele>340.0</ele><time>2026-04-25T07:42:50Z</time></trkpt><trkpt lat="45.79715548258555" lon="9.202160524929207"><ele>339.5</ele><time>2026-04-25T07:42:52Z</time></trkpt><trkpt lat="45.79708729017116" lon="9.20210347827891"><ele>339.0</ele><time>2026-04-25T07:42:54Z</time></trkpt><trkpt lat="45.79702981893266" lon="9.202056175052139"><ele>338.6</ele><time>2026-04-25T07:42:56Z</time></trkpt><trkpt lat="45.796967706167415" lon="9.202006286065018"><ele>338.2</ele><time>2026-04-25T07:42:59Z</time></trkpt><trkpt lat="45.796862492475654" lon="9.20191376245793"><ele>337.8</ele><time>2026-04-25T07:43:02Z</time></trkpt><trkpt lat="45.7968082215778" lon="9.201865161593453"><ele>337.40000000000003</ele><time>2026-04-25T07:43:03Z</time></trkpt><trkpt lat="45.79669801728793" lon="9.201770243605536"><ele>337.0</ele><time>2026-04-25T07:43:05Z</time></trkpt><trkpt lat="45.79664275665676" lon="9.201722103867777"><ele>337.0</ele><time>2026-04-25T07:43:06Z</time></trkpt><trkpt lat="45.796536591752506" lon="9.201627383626661"><ele>337.0</ele><time>2026-04-25T07:43:08Z</time></trkpt><trkpt lat="45.796439278696994" lon="9.201509207310128"><ele>337.0</ele><time>2026-04-25T07:43:10Z</time></trkpt><trkpt lat="45.79635938806196" lon="9.201410149434773"><ele>337.0</ele><time>2026-04-25T07:43:12Z</time></trkpt><trkpt lat="45.796379396630115" lon="9.201244817610304"><ele>337.40000000000003</ele><time>2026-04-25T07:43:13Z</time></trkpt><trkpt lat="45.79638485273264" lon="9.201136426755587"><ele>337.8</ele><time>2026-04-25T07:43:14Z</time></trkpt><trkpt lat="45.79639390824011" lon="9.201010139129217"><ele>338.2</ele><time>2026-04-25T07:43:15Z</time></trkpt><trkpt lat="45.79640406657659" lon="9.200852456648674"><ele>338.6</ele><time>2026-04-25T07:43:16Z</time></trkpt><trkpt lat="45.79641703936628" lon="9.20068003991969"><ele>339.0</ele><time>2026-04-25T07:43:17Z</time></trkpt><trkpt lat="45.79643547538267" lon="9.200496147498887"><ele>339.25</ele><time>2026-04-25T07:43:18Z</time></trkpt><trkpt lat="45.79645235192247" lon="9.20031149209779"><ele>339.5</ele><time>2026-04-25T07:43:19Z</time></trkpt><trkpt lat="45.79646290351263" lon="9.200106103413122"><ele>339.75</ele><time>2026-04-25T07:43:20Z</time></trkpt><trkpt lat="45.79647221241738" lon="9.199902858990285"><ele>340.0</ele><time>2026-04-25T07:43:21Z</time></trkpt><trkpt lat="45.79648143979059" lon="9.19969102568713"><ele>340.0</ele><time>2026-04-25T07:43:22Z</time></trkpt><trkpt lat="45.796494674440375" lon="9.199456644320888"><ele>340.0</ele><time>2026-04-25T07:43:23Z</time></trkpt><trkpt lat="45.7965315577796" lon="9.199201026287986"><ele>340.0</ele><time>2026-04-25T07:43:24Z</time></trkpt><trkpt lat="45.79655382631139" lon="9.198936909569657"><ele>340.66666666666663</ele><time>2026-04-25T07:43:25Z</time></trkpt><trkpt lat="45.796575970362554" lon="9.198669522563184"><ele>341.3333333333333</ele><time>2026-04-25T07:43:26Z</time></trkpt><trkpt lat="45.796598569714774" lon="9.198395188203532"><ele>342.0</ele><time>2026-04-25T07:43:27Z</time></trkpt><trkpt lat="45.7966226774519" lon="9.198110042656117"><ele>342.6666666666667</ele><time>2026-04-25T07:43:28Z</time></trkpt><trkpt lat="45.79664638315224" lon="9.197822044388655"><ele>343.33333333333337</ele><time>2026-04-25T07:43:29Z</time></trkpt><trkpt lat="45.796667508991675" lon="9.197523089313274"><ele>344.0</ele><time>2026-04-25T07:43:30Z</time></trkpt><trkpt lat="45.796689234738416" lon="9.197227151827391"><ele>345.6666666666667</ele><time>2026-04-25T07:43:31Z</time></trkpt><trkpt lat="45.79671264050302" lon="9.196929014735115"><ele>347.3333333333333</ele><time>2026-04-25T07:43:31.998Z</time></trkpt><trkpt lat="45.79673657110362" lon="9.196632064630617"><ele>349.0</ele><time>2026-04-25T07:43:32.999Z</time></trkpt><trkpt lat="45.79676292008552" lon="9.196336214021187"><ele>351.0</ele><time>2026-04-25T07:43:33.999Z</time></trkpt><trkpt lat="45.79679363445234" lon="9.19604465411923"><ele>353.0</ele><time>2026-04-25T07:43:34.998Z</time></trkpt><trkpt lat="45.7968254154741" lon="9.195757560741395"><ele>355.0</ele><time>2026-04-25T07:43:35.999Z</time></trkpt><trkpt lat="45.796843274064926" lon="9.1954660105617"><ele>357.5</ele><time>2026-04-25T07:43:36.999Z</time></trkpt><trkpt lat="45.79684541368538" lon="9.195142581203369"><ele>360.0</ele><time>2026-04-25T07:43:37.999Z</time></trkpt><trkpt lat="45.79682623389529" lon="9.194806593254894"><ele>360.0</ele><time>2026-04-25T07:43:38.998Z</time></trkpt><trkpt lat="45.796781177046874" lon="9.19449400923368"><ele>360.0</ele><time>2026-04-25T07:43:39.998Z</time></trkpt><trkpt lat="45.796715505086446" lon="9.19420145209147"><ele>360.0</ele><time>2026-04-25T07:43:40.999Z</time></trkpt><trkpt lat="45.796634617854565" lon="9.193897179244567"><ele>363.0</ele><time>2026-04-25T07:43:41.999Z</time></trkpt><trkpt lat="45.796541658637935" lon="9.193603578700193"><ele>366.0</ele><time>2026-04-25T07:43:42.999Z</time></trkpt><trkpt lat="45.796449701505324" lon="9.193274345851526"><ele>368.5</ele><time>2026-04-25T07:43:43.999Z</time></trkpt><trkpt lat="45.79633394371908" lon="9.192938044738717"><ele>371.0</ele><time>2026-04-25T07:43:44.999Z</time></trkpt><trkpt lat="45.79624739905335" lon="9.192600103330626"><ele>372.5</ele><time>2026-04-25T07:43:45.999Z</time></trkpt><trkpt lat="45.79615380390518" lon="9.192273896159303"><ele>374.0</ele><time>2026-04-25T07:43:46.999Z</time></trkpt><trkpt lat="45.796058501619854" lon="9.19195386426112"><ele>374.5</ele><time>2026-04-25T07:43:47.999Z</time></trkpt><trkpt lat="45.79595905012729" lon="9.19163046962593"><ele>375.0</ele><time>2026-04-25T07:43:48.999Z</time></trkpt><trkpt lat="45.79584573233514" lon="9.191269267431283"><ele>375.0</ele><time>2026-04-25T07:43:49.999Z</time></trkpt><trkpt lat="45.79572227038283" lon="9.190880328001752"><ele>375.0</ele><time>2026-04-25T07:43:50.999Z</time></trkpt><trkpt lat="45.79560287059621" lon="9.190501730914443"><ele>380.0</ele><time>2026-04-25T07:43:51.999Z</time></trkpt><trkpt lat="45.795494535848185" lon="9.1901558468348"><ele>385.0</ele><time>2026-04-25T07:43:52.999Z</time></trkpt><trkpt lat="45.79538629097364" lon="9.189801538532414"><ele>388.5</ele><time>2026-04-25T07:43:53.999Z</time></trkpt><trkpt lat="45.79528319022981" lon="9.189466863391711"><ele>392.0</ele><time>2026-04-25T07:43:54.999Z</time></trkpt><trkpt lat="45.79518889906791" lon="9.189172269134547"><ele>392.0</ele><time>2026-04-25T07:43:55.999Z</time></trkpt><trkpt lat="45.795103764547775" lon="9.188898695751806"><ele>392.0</ele><time>2026-04-25T07:43:56.999Z</time></trkpt><trkpt lat="45.795026735750554" lon="9.18864113117571"><ele>392.0</ele><time>2026-04-25T07:43:57.999Z</time></trkpt><trkpt lat="45.794951943685575" lon="9.188386359439932"><ele>394.3333333333333</ele><time>2026-04-25T07:43:58.999Z</time></trkpt><trkpt lat="45.79488063843233" lon="9.188152058615737"><ele>396.66666666666663</ele><time>2026-04-25T07:43:59.999Z</time></trkpt><trkpt lat="45.79481550688282" lon="9.187936629616544"><ele>399.0</ele><time>2026-04-25T07:44:00.999Z</time></trkpt><trkpt lat="45.79475290953852" lon="9.18772440455279"><ele>399.0</ele><time>2026-04-25T07:44:01.999Z</time></trkpt><trkpt lat="45.79468821109658" lon="9.187520215110862"><ele>399.0</ele><time>2026-04-25T07:44:02.999Z</time></trkpt><trkpt lat="45.79462572913913" lon="9.187329429391019"><ele>399.0</ele><time>2026-04-25T07:44:03.999Z</time></trkpt><trkpt lat="45.79456287415963" lon="9.187129722596776"><ele>400.33333333333337</ele><time>2026-04-25T07:44:04.999Z</time></trkpt><trkpt lat="45.79450156213918" lon="9.186927367841474"><ele>401.6666666666667</ele><time>2026-04-25T07:44:05.999Z</time></trkpt><trkpt lat="45.794444106978915" lon="9.186727329238455"><ele>403.0</ele><time>2026-04-25T07:44:06.999Z</time></trkpt><trkpt lat="45.794385349124916" lon="9.186529456871346"><ele>403.6666666666667</ele><time>2026-04-25T07:44:07.999Z</time></trkpt><trkpt lat="45.7943264680829" lon="9.186326832732302"><ele>404.33333333333337</ele><time>2026-04-25T07:44:08.999Z</time></trkpt><trkpt lat="45.79425661052304" lon="9.186096748827795"><ele>405.0</ele><time>2026-04-25T07:44:09.999Z</time></trkpt><trkpt lat="45.79418790351051" lon="9.185870758542766"><ele>407.0</ele><time>2026-04-25T07:44:10.999Z</time></trkpt><trkpt lat="45.794127139613416" lon="9.185645952822224"><ele>409.0</ele><time>2026-04-25T07:44:11.999Z</time></trkpt><trkpt lat="45.794075506409385" lon="9.185415901264204"><ele>411.0</ele><time>2026-04-25T07:44:12.999Z</time></trkpt><trkpt lat="45.794032013202745" lon="9.18518513679654"><ele>411.0</ele><time>2026-04-25T07:44:13.999Z</time></trkpt><trkpt lat="45.793997964698555" lon="9.184951260004592"><ele>411.0</ele><time>2026-04-25T07:44:14.999Z</time></trkpt><trkpt lat="45.793978848526294" lon="9.184714695373506"><ele>411.0</ele><time>2026-04-25T07:44:15.999Z</time></trkpt><trkpt lat="45.793968131756486" lon="9.18447221527308"><ele>411.33333333333337</ele><time>2026-04-25T07:44:16.999Z</time></trkpt><trkpt lat="45.7939603582748" lon="9.18423741465677"><ele>411.6666666666667</ele><time>2026-04-25T07:44:17.999Z</time></trkpt><trkpt lat="45.793954414885185" lon="9.184023377432359"><ele>412.0</ele><time>2026-04-25T07:44:18.999Z</time></trkpt><trkpt lat="45.79394971400152" lon="9.183802007280606"><ele>412.0</ele><time>2026-04-25T07:44:19.999Z</time></trkpt><trkpt lat="45.793942179828285" lon="9.183594039088755"><ele>412.0</ele><time>2026-04-25T07:44:20.999Z</time></trkpt><trkpt lat="45.79393137527321" lon="9.183382523033025"><ele>412.0</ele><time>2026-04-25T07:44:21.999Z</time></trkpt><trkpt lat="45.793920874670235" lon="9.183165058547846"><ele>412.0</ele><time>2026-04-25T07:44:22.999Z</time></trkpt><trkpt lat="45.79391143237213" lon="9.182947882894885"><ele>411.6666666666667</ele><time>2026-04-25T07:44:23.999Z</time></trkpt><trkpt lat="45.79390699232614" lon="9.182734106198488"><ele>411.33333333333337</ele><time>2026-04-25T07:44:24.999Z</time></trkpt><trkpt lat="45.793899309295995" lon="9.182511847280262"><ele>411.0</ele><time>2026-04-25T07:44:25.999Z</time></trkpt><trkpt lat="45.793892583231234" lon="9.182285096365177"><ele>409.66666666666663</ele><time>2026-04-25T07:44:26.999Z</time></trkpt><trkpt lat="45.79388630817164" lon="9.182055966184533"><ele>408.3333333333333</ele><time>2026-04-25T07:44:27.999Z</time></trkpt><trkpt lat="45.793881922464315" lon="9.18181609284939"><ele>407.0</ele><time>2026-04-25T07:44:28.999Z</time></trkpt><trkpt lat="45.79387454622143" lon="9.18156951638166"><ele>404.3333333333333</ele><time>2026-04-25T07:44:29.999Z</time></trkpt><trkpt lat="45.79386869869718" lon="9.181317575635768"><ele>401.66666666666663</ele><time>2026-04-25T07:44:30.999Z</time></trkpt><trkpt lat="45.79386335177698" lon="9.181066583362178"><ele>399.0</ele><time>2026-04-25T07:44:31.999Z</time></trkpt><trkpt lat="45.79386053433159" lon="9.180817240266316"><ele>398.66666666666663</ele><time>2026-04-25T07:44:32.999Z</time></trkpt><trkpt lat="45.79385319634433" lon="9.180573252360775"><ele>398.3333333333333</ele><time>2026-04-25T07:44:33.999Z</time></trkpt><trkpt lat="45.79384630286682" lon="9.180332830635184"><ele>398.0</ele><time>2026-04-25T07:44:34.999Z</time></trkpt><trkpt lat="45.79383962525798" lon="9.180098887336962"><ele>398.0</ele><time>2026-04-25T07:44:35.999Z</time></trkpt><trkpt lat="45.79383266046512" lon="9.179865661683257"><ele>398.0</ele><time>2026-04-25T07:44:36.999Z</time></trkpt><trkpt lat="45.793827539332504" lon="9.17963706467611"><ele>398.0</ele><time>2026-04-25T07:44:37.999Z</time></trkpt><trkpt lat="45.793823940988084" lon="9.179414757472752"><ele>397.66666666666663</ele><time>2026-04-25T07:44:38.999Z</time></trkpt><trkpt lat="45.79381635907457" lon="9.179178671042857"><ele>397.33333333333337</ele><time>2026-04-25T07:44:39.999Z</time></trkpt><trkpt lat="45.79381125870257" lon="9.178940275949126"><ele>397.0</ele><time>2026-04-25T07:44:40.999Z</time></trkpt><trkpt lat="45.793804604630886" lon="9.178714334107593"><ele>397.0</ele><time>2026-04-25T07:44:41.999Z</time></trkpt><trkpt lat="45.79380019087964" lon="9.178491130022737"><ele>397.0</ele><time>2026-04-25T07:44:42.999Z</time></trkpt><trkpt lat="45.79379890234247" lon="9.17825962689373"><ele>397.0</ele><time>2026-04-25T07:44:43.999Z</time></trkpt><trkpt lat="45.793791038768354" lon="9.178023552280392"><ele>397.0</ele><time>2026-04-25T07:44:44.999Z</time></trkpt><trkpt lat="45.79378141283394" lon="9.177788312118295"><ele>397.0</ele><time>2026-04-25T07:44:45.999Z</time></trkpt><trkpt lat="45.79377270707117" lon="9.177553870279393"><ele>397.0</ele><time>2026-04-25T07:44:46.999Z</time></trkpt><trkpt lat="45.79376691334339" lon="9.177319515489984"><ele>396.33333333333337</ele><time>2026-04-25T07:44:47.999Z</time></trkpt><trkpt lat="45.7937607056971" lon="9.177090671550502"><ele>395.66666666666663</ele><time>2026-04-25T07:44:48.999Z</time></trkpt><trkpt lat="45.7937543697292" lon="9.176866940285821"><ele>395.0</ele><time>2026-04-25T07:44:49.999Z</time></trkpt><trkpt lat="45.793747665893804" lon="9.17665024897457"><ele>395.5</ele><time>2026-04-25T07:44:50.999Z</time></trkpt><trkpt lat="45.79374426276395" lon="9.176441222346273"><ele>396.0</ele><time>2026-04-25T07:44:51.999Z</time></trkpt><trkpt lat="45.79373988601958" lon="9.176235693388039"><ele>396.5</ele><time>2026-04-25T07:44:52.999Z</time></trkpt><trkpt lat="45.793733699896165" lon="9.176023775757784"><ele>397.0</ele><time>2026-04-25T07:44:54Z</time></trkpt><trkpt lat="45.79372555908949" lon="9.175809982141883"><ele>397.0</ele><time>2026-04-25T07:44:55Z</time></trkpt><trkpt lat="45.79372012903275" lon="9.17559661075001"><ele>397.0</ele><time>2026-04-25T07:44:56Z</time></trkpt><trkpt lat="45.79371395550364" lon="9.17538662822661"><ele>397.0</ele><time>2026-04-25T07:44:57Z</time></trkpt><trkpt lat="45.79370920425122" lon="9.175177541533536"><ele>397.0</ele><time>2026-04-25T07:44:58Z</time></trkpt><trkpt lat="45.79370705404496" lon="9.174971504434607"><ele>397.5</ele><time>2026-04-25T07:44:59Z</time></trkpt><trkpt lat="45.793699275133314" lon="9.174769448205923"><ele>398.0</ele><time>2026-04-25T07:45:00Z</time></trkpt><trkpt lat="45.79369336604279" lon="9.174567756847203"><ele>398.5</ele><time>2026-04-25T07:45:01Z</time></trkpt><trkpt lat="45.793688203342406" lon="9.17436102534846"><ele>399.0</ele><time>2026-04-25T07:45:02Z</time></trkpt><trkpt lat="45.79368318867449" lon="9.17414196330358"><ele>399.0</ele><time>2026-04-25T07:45:03Z</time></trkpt><trkpt lat="45.79367564375628" lon="9.173916740188501"><ele>399.0</ele><time>2026-04-25T07:45:04Z</time></trkpt><trkpt lat="45.793671102083316" lon="9.173680340815755"><ele>399.0</ele><time>2026-04-25T07:45:05Z</time></trkpt><trkpt lat="45.79366420948087" lon="9.17341525546394"><ele>399.0</ele><time>2026-04-25T07:45:06Z</time></trkpt><trkpt lat="45.79365684483766" lon="9.173134875996755"><ele>399.0</ele><time>2026-04-25T07:45:07Z</time></trkpt><trkpt lat="45.79364955985903" lon="9.172858536308652"><ele>399.0</ele><time>2026-04-25T07:45:08Z</time></trkpt><trkpt lat="45.793641234691925" lon="9.172595062100562"><ele>399.0</ele><time>2026-04-25T07:45:09Z</time></trkpt><trkpt lat="45.79363372077555" lon="9.172347552695111"><ele>399.0</ele><time>2026-04-25T07:45:10Z</time></trkpt><trkpt lat="45.79362833090489" lon="9.172113248094687"><ele>399.0</ele><time>2026-04-25T07:45:11Z</time></trkpt><trkpt lat="45.79362078862301" lon="9.171891701704311"><ele>399.0</ele><time>2026-04-25T07:45:12Z</time></trkpt><trkpt lat="45.79361468313556" lon="9.171681627081883"><ele>399.0</ele><time>2026-04-25T07:45:13Z</time></trkpt><trkpt lat="45.793609680566966" lon="9.17146507720553"><ele>399.0</ele><time>2026-04-25T07:45:14Z</time></trkpt><trkpt lat="45.79360370216359" lon="9.17124541951881"><ele>399.33333333333337</ele><time>2026-04-25T07:45:15Z</time></trkpt><trkpt lat="45.79359770362352" lon="9.171021251044628"><ele>399.6666666666667</ele><time>2026-04-25T07:45:16Z</time></trkpt><trkpt lat="45.79359138954015" lon="9.170796797616937"><ele>400.0</ele><time>2026-04-25T07:45:17Z</time></trkpt><trkpt lat="45.79358661542247" lon="9.170583836096604"><ele>399.5</ele><time>2026-04-25T07:45:18Z</time></trkpt><trkpt lat="45.7935833383025" lon="9.170380073570625"><ele>399.0</ele><time>2026-04-25T07:45:19Z</time></trkpt><trkpt lat="45.79357742108311" lon="9.170174125335523"><ele>398.5</ele><time>2026-04-25T07:45:20Z</time></trkpt><trkpt lat="45.79357313992002" lon="9.169966863107302"><ele>398.0</ele><time>2026-04-25T07:45:21Z</time></trkpt><trkpt lat="45.793568949847646" lon="9.16976020709087"><ele>398.0</ele><time>2026-04-25T07:45:22Z</time></trkpt><trkpt lat="45.79356599164568" lon="9.169552852613133"><ele>398.0</ele><time>2026-04-25T07:45:23Z</time></trkpt><trkpt lat="45.79355971770119" lon="9.169342936321737"><ele>398.0</ele><time>2026-04-25T07:45:24Z</time></trkpt><trkpt lat="45.7935534153414" lon="9.169125231221775"><ele>398.0</ele><time>2026-04-25T07:45:25Z</time></trkpt><trkpt lat="45.793547528597685" lon="9.168902038006854"><ele>397.66666666666663</ele><time>2026-04-25T07:45:26Z</time></trkpt><trkpt lat="45.79354267999247" lon="9.168679627312187"><ele>397.33333333333337</ele><time>2026-04-25T07:45:27Z</time></trkpt><trkpt lat="45.793537805149136" lon="9.16846198030395"><ele>397.0</ele><time>2026-04-25T07:45:28Z</time></trkpt><trkpt lat="45.79353139853936" lon="9.168251024081828"><ele>396.0</ele><time>2026-04-25T07:45:29Z</time></trkpt><trkpt lat="45.79352546884537" lon="9.168043749784355"><ele>395.0</ele><time>2026-04-25T07:45:30Z</time></trkpt><trkpt lat="45.79352242518245" lon="9.16784705344088"><ele>394.0</ele><time>2026-04-25T07:45:31Z</time></trkpt><trkpt lat="45.793521825067074" lon="9.167644053168148"><ele>393.0</ele><time>2026-04-25T07:45:32Z</time></trkpt><trkpt lat="45.79352883180128" lon="9.167438767389688"><ele>393.0</ele><time>2026-04-25T07:45:33Z</time></trkpt><trkpt lat="45.79354417708092" lon="9.167232633676418"><ele>393.0</ele><time>2026-04-25T07:45:34Z</time></trkpt><trkpt lat="45.7935638895205" lon="9.167039365288996"><ele>393.0</ele><time>2026-04-25T07:45:35Z</time></trkpt><trkpt lat="45.79358782750153" lon="9.166866345971782"><ele>393.0</ele><time>2026-04-25T07:45:36Z</time></trkpt><trkpt lat="45.79361726556374" lon="9.166702516003149"><ele>393.0</ele><time>2026-04-25T07:45:37Z</time></trkpt><trkpt lat="45.7936509595994" lon="9.166553942201363"><ele>393.0</ele><time>2026-04-25T07:45:37.998Z</time></trkpt><trkpt lat="45.79368024965426" lon="9.16643288968883"><ele>393.0</ele><time>2026-04-25T07:45:38.998Z</time></trkpt><trkpt lat="45.79370338615079" lon="9.16634157267461"><ele>393.0</ele><time>2026-04-25T07:45:39.998Z</time></trkpt><trkpt lat="45.79372565457956" lon="9.16625264965133"><ele>393.0</ele><time>2026-04-25T07:45:40.999Z</time></trkpt><trkpt lat="45.79377740662505" lon="9.1660968175313"><ele>392.6666666666667</ele><time>2026-04-25T07:45:42.998Z</time></trkpt><trkpt lat="45.79381158400399" lon="9.166015378365605"><ele>392.33333333333337</ele><time>2026-04-25T07:45:43.998Z</time></trkpt><trkpt lat="45.793850827090516" lon="9.165931944625076"><ele>392.0</ele><time>2026-04-25T07:45:44.999Z</time></trkpt><trkpt lat="45.79389192908016" lon="9.165825131070514"><ele>391.6666666666667</ele><time>2026-04-25T07:45:45.999Z</time></trkpt><trkpt lat="45.79391025709305" lon="9.165694785306279"><ele>391.33333333333337</ele><time>2026-04-25T07:45:46.998Z</time></trkpt><trkpt lat="45.793910358036435" lon="9.16552482437409"><ele>391.0</ele><time>2026-04-25T07:45:47.998Z</time></trkpt><trkpt lat="45.79390447388485" lon="9.165348276651297"><ele>390.75</ele><time>2026-04-25T07:45:48.998Z</time></trkpt><trkpt lat="45.793925509236104" lon="9.165185198285887"><ele>390.5</ele><time>2026-04-25T07:45:49.999Z</time></trkpt><trkpt lat="45.79395713235607" lon="9.165013920268049"><ele>390.25</ele><time>2026-04-25T07:45:50.998Z</time></trkpt><trkpt lat="45.79398543763774" lon="9.164865430626568"><ele>390.0</ele><time>2026-04-25T07:45:51.998Z</time></trkpt><trkpt lat="45.79403688528881" lon="9.164712632077064"><ele>390.5</ele><time>2026-04-25T07:45:52.998Z</time></trkpt><trkpt lat="45.79406573538267" lon="9.164554699203121"><ele>391.0</ele><time>2026-04-25T07:45:53.998Z</time></trkpt><trkpt lat="45.79410039572403" lon="9.164382449170525"><ele>391.5</ele><time>2026-04-25T07:45:54.998Z</time></trkpt><trkpt lat="45.79413221558859" lon="9.16420248918399"><ele>392.0</ele><time>2026-04-25T07:45:55.998Z</time></trkpt><trkpt lat="45.794172340922984" lon="9.164008593405892"><ele>392.25</ele><time>2026-04-25T07:45:56.998Z</time></trkpt><trkpt lat="45.794209768363785" lon="9.163832958443884"><ele>392.5</ele><time>2026-04-25T07:45:57.998Z</time></trkpt><trkpt lat="45.794245897722696" lon="9.163659128788314"><ele>392.75</ele><time>2026-04-25T07:45:58.998Z</time></trkpt><trkpt lat="45.79428137034825" lon="9.163493968847709"><ele>393.0</ele><time>2026-04-25T07:45:59.998Z</time></trkpt><trkpt lat="45.794312187646526" lon="9.163343138175511"><ele>393.2</ele><time>2026-04-25T07:46:00.998Z</time></trkpt><trkpt lat="45.79434193020098" lon="9.1632025053261"><ele>393.4</ele><time>2026-04-25T07:46:01.998Z</time></trkpt><trkpt lat="45.79437234610981" lon="9.163055435069593"><ele>393.59999999999997</ele><time>2026-04-25T07:46:02.998Z</time></trkpt><trkpt lat="45.79440397642393" lon="9.162908555738147"><ele>393.79999999999995</ele><time>2026-04-25T07:46:03.998Z</time></trkpt><trkpt lat="45.79443248005307" lon="9.16277463094175"><ele>394.0</ele><time>2026-04-25T07:46:04.998Z</time></trkpt><trkpt lat="45.794460901364275" lon="9.162633061482184"><ele>394.0</ele><time>2026-04-25T07:46:05.998Z</time></trkpt><trkpt lat="45.79449005766046" lon="9.162476890325943"><ele>394.0</ele><time>2026-04-25T07:46:06.998Z</time></trkpt><trkpt lat="45.79451855914839" lon="9.162313094328894"><ele>394.0</ele><time>2026-04-25T07:46:07.998Z</time></trkpt><trkpt lat="45.79454951556962" lon="9.162124651209862"><ele>394.0</ele><time>2026-04-25T07:46:08.998Z</time></trkpt><trkpt lat="45.79459882905148" lon="9.161935601994445"><ele>394.5</ele><time>2026-04-25T07:46:09.998Z</time></trkpt><trkpt lat="45.79462684859734" lon="9.161732048785572"><ele>395.0</ele><time>2026-04-25T07:46:10.998Z</time></trkpt><trkpt lat="45.794664606997635" lon="9.161535760271347"><ele>395.5</ele><time>2026-04-25T07:46:11.998Z</time></trkpt><trkpt lat="45.79468384566334" lon="9.161352112595672"><ele>396.0</ele><time>2026-04-25T07:46:12.998Z</time></trkpt><trkpt lat="45.794696763447476" lon="9.16118041605913"><ele>397.20000000000005</ele><time>2026-04-25T07:46:13.998Z</time></trkpt><trkpt lat="45.794705715135414" lon="9.161016686918055"><ele>398.40000000000003</ele><time>2026-04-25T07:46:14.998Z</time></trkpt><trkpt lat="45.79471056606526" lon="9.160863434828574"><ele>399.6</ele><time>2026-04-25T07:46:15.998Z</time></trkpt><trkpt lat="45.794711881212024" lon="9.16072429540491"><ele>400.8</ele><time>2026-04-25T07:46:16.998Z</time></trkpt><trkpt lat="45.7947135541104" lon="9.160600938338941"><ele>402.0</ele><time>2026-04-25T07:46:17.998Z</time></trkpt><trkpt lat="45.794710975343754" lon="9.160485456802297"><ele>402.0</ele><time>2026-04-25T07:46:18.998Z</time></trkpt><trkpt lat="45.794702770351236" lon="9.160375199029723"><ele>402.0</ele><time>2026-04-25T07:46:19.998Z</time></trkpt><trkpt lat="45.79469472307236" lon="9.16027315784165"><ele>402.0</ele><time>2026-04-25T07:46:20.999Z</time></trkpt><trkpt lat="45.79470108012943" lon="9.160115017694475"><ele>402.0</ele><time>2026-04-25T07:46:22.999Z</time></trkpt><trkpt lat="45.79470866010296" lon="9.159951581605263"><ele>402.0</ele><time>2026-04-25T07:46:24.999Z</time></trkpt><trkpt lat="45.79469138417547" lon="9.159819937892033"><ele>401.75</ele><time>2026-04-25T07:46:25.999Z</time></trkpt><trkpt lat="45.79467710087183" lon="9.15965236353241"><ele>401.5</ele><time>2026-04-25T07:46:26.999Z</time></trkpt><trkpt lat="45.79466498594149" lon="9.159446894802711"><ele>401.25</ele><time>2026-04-25T07:46:27.999Z</time></trkpt><trkpt lat="45.79465325906997" lon="9.15921824888652"><ele>401.0</ele><time>2026-04-25T07:46:28.999Z</time></trkpt><trkpt lat="45.794641294173836" lon="9.158979179561014"><ele>401.0</ele><time>2026-04-25T07:46:29.999Z</time></trkpt><trkpt lat="45.7946257937493" lon="9.158759488664733"><ele>401.0</ele><time>2026-04-25T07:46:30.999Z</time></trkpt><trkpt lat="45.79461563567115" lon="9.158558373749505"><ele>401.0</ele><time>2026-04-25T07:46:31.999Z</time></trkpt><trkpt lat="45.794605937941476" lon="9.158403748663323"><ele>401.0</ele><time>2026-04-25T07:46:32.999Z</time></trkpt><trkpt lat="45.79460645463898" lon="9.158279709613195"><ele>401.66666666666663</ele><time>2026-04-25T07:46:33.999Z</time></trkpt><trkpt lat="45.79461327469646" lon="9.15813342619505"><ele>402.3333333333333</ele><time>2026-04-25T07:46:35.999Z</time></trkpt><trkpt lat="45.79461361112767" lon="9.15803949649929"><ele>403.0</ele><time>2026-04-25T07:46:39.999Z</time></trkpt><trkpt lat="45.79459859837395" lon="9.15793268307473"><ele>403.66666666666663</ele><time>2026-04-25T07:46:42.999Z</time></trkpt><trkpt lat="45.7945897425433" lon="9.157830378298172"><ele>404.3333333333333</ele><time>2026-04-25T07:46:43.999Z</time></trkpt><trkpt lat="45.794576058495245" lon="9.15767782629975"><ele>405.0</ele><time>2026-04-25T07:46:44.999Z</time></trkpt><trkpt lat="45.794563155641015" lon="9.157500104606605"><ele>407.66666666666663</ele><time>2026-04-25T07:46:45.999Z</time></trkpt><trkpt lat="45.794553445432726" lon="9.157283014574052"><ele>410.3333333333333</ele><time>2026-04-25T07:46:46.999Z</time></trkpt><trkpt lat="45.79454323398807" lon="9.157020473077065"><ele>413.0</ele><time>2026-04-25T07:46:47.999Z</time></trkpt><trkpt lat="45.794532468919854" lon="9.156716539228698"><ele>416.0</ele><time>2026-04-25T07:46:48.999Z</time></trkpt><trkpt lat="45.7945197030723" lon="9.156378679996571"><ele>419.0</ele><time>2026-04-25T07:46:49.999Z</time></trkpt><trkpt lat="45.79450831690428" lon="9.155984110368072"><ele>418.0</ele><time>2026-04-25T07:46:50.999Z</time></trkpt><trkpt lat="45.7944942435449" lon="9.15557036381917"><ele>417.0</ele><time>2026-04-25T07:46:51.999Z</time></trkpt><trkpt lat="45.79447988230975" lon="9.155176572683496"><ele>415.5</ele><time>2026-04-25T07:46:52.999Z</time></trkpt><trkpt lat="45.794468501547236" lon="9.154780286037347"><ele>414.0</ele><time>2026-04-25T07:46:53.999Z</time></trkpt><trkpt lat="45.79445442361573" lon="9.154396011364911"><ele>414.0</ele><time>2026-04-25T07:46:54.999Z</time></trkpt><trkpt lat="45.79444186853371" lon="9.154047047644944"><ele>414.0</ele><time>2026-04-25T07:46:55.999Z</time></trkpt><trkpt lat="45.79442880224458" lon="9.153703169242197"><ele>411.66666666666663</ele><time>2026-04-25T07:46:56.999Z</time></trkpt><trkpt lat="45.79441358143275" lon="9.1533787965117"><ele>409.3333333333333</ele><time>2026-04-25T07:46:57.999Z</time></trkpt><trkpt lat="45.794400121187095" lon="9.153078241063008"><ele>407.0</ele><time>2026-04-25T07:46:58.999Z</time></trkpt><trkpt lat="45.79439411373749" lon="9.152802900723641"><ele>406.3333333333333</ele><time>2026-04-25T07:46:59.999Z</time></trkpt><trkpt lat="45.79439158996572" lon="9.152544876890301"><ele>405.66666666666663</ele><time>2026-04-25T07:47:00.999Z</time></trkpt><trkpt lat="45.794387717369396" lon="9.15230747885815"><ele>405.0</ele><time>2026-04-25T07:47:01.999Z</time></trkpt><trkpt lat="45.79438519036256" lon="9.152089545276153"><ele>405.0</ele><time>2026-04-25T07:47:02.999Z</time></trkpt><trkpt lat="45.794385642517696" lon="9.151886237050062"><ele>405.0</ele><time>2026-04-25T07:47:03.999Z</time></trkpt><trkpt lat="45.79438893389076" lon="9.151695461684394"><ele>405.0</ele><time>2026-04-25T07:47:04.999Z</time></trkpt><trkpt lat="45.79439372431006" lon="9.151522847271163"><ele>405.0</ele><time>2026-04-25T07:47:05.999Z</time></trkpt><trkpt lat="45.794397611604" lon="9.151373180823887"><ele>405.4</ele><time>2026-04-25T07:47:06.999Z</time></trkpt><trkpt lat="45.79440107151503" lon="9.151228798116156"><ele>405.8</ele><time>2026-04-25T07:47:07.999Z</time></trkpt><trkpt lat="45.794405030971234" lon="9.15110344140871"><ele>406.20000000000005</ele><time>2026-04-25T07:47:08.999Z</time></trkpt><trkpt lat="45.79441158867641" lon="9.151012896447176"><ele>406.6</ele><time>2026-04-25T07:47:09.999Z</time></trkpt><trkpt lat="45.79441921690847" lon="9.150893449012331"><ele>407.0</ele><time>2026-04-25T07:47:11.999Z</time></trkpt><trkpt lat="45.79443332775192" lon="9.150723475938197"><ele>406.8333333333333</ele><time>2026-04-25T07:47:13.999Z</time></trkpt><trkpt lat="45.79444410564631" lon="9.15062339348797"><ele>406.66666666666663</ele><time>2026-04-25T07:47:14.999Z</time></trkpt><trkpt lat="45.794465661760235" lon="9.150503070705684"><ele>406.5</ele><time>2026-04-25T07:47:15.999Z</time></trkpt><trkpt lat="45.79450042657392" lon="9.150389059517371"><ele>406.33333333333337</ele><time>2026-04-25T07:47:16.999Z</time></trkpt><trkpt lat="45.7945411319927" lon="9.150274951537861"><ele>406.1666666666667</ele><time>2026-04-25T07:47:17.999Z</time></trkpt><trkpt lat="45.794570945013255" lon="9.150157674432272"><ele>406.0</ele><time>2026-04-25T07:47:18.999Z</time></trkpt><trkpt lat="45.79457435808414" lon="9.15002619938043"><ele>406.0</ele><time>2026-04-25T07:47:19.999Z</time></trkpt><trkpt lat="45.794539791203555" lon="9.149877032205904"><ele>406.0</ele><time>2026-04-25T07:47:20.999Z</time></trkpt><trkpt lat="45.79450685211334" lon="9.149700889228107"><ele>406.0</ele><time>2026-04-25T07:47:21.999Z</time></trkpt><trkpt lat="45.79449481666672" lon="9.149505969329455"><ele>406.0</ele><time>2026-04-25T07:47:22.999Z</time></trkpt><trkpt lat="45.794485920286476" lon="9.149295717292901"><ele>406.0</ele><time>2026-04-25T07:47:23.999Z</time></trkpt><trkpt lat="45.79448581564029" lon="9.149092876345449"><ele>406.0</ele><time>2026-04-25T07:47:24.999Z</time></trkpt><trkpt lat="45.79448920200126" lon="9.148878610384184"><ele>406.0</ele><time>2026-04-25T07:47:25.999Z</time></trkpt><trkpt lat="45.794494093320026" lon="9.148655656903465"><ele>406.0</ele><time>2026-04-25T07:47:26.999Z</time></trkpt><trkpt lat="45.794500387041005" lon="9.148434750704302"><ele>406.0</ele><time>2026-04-25T07:47:27.999Z</time></trkpt><trkpt lat="45.794508195777446" lon="9.148214906740458"><ele>406.0</ele><time>2026-04-25T07:47:28.999Z</time></trkpt><trkpt lat="45.79451716844303" lon="9.148004971805994"><ele>406.0</ele><time>2026-04-25T07:47:29.999Z</time></trkpt><trkpt lat="45.794526057475736" lon="9.14781538730329"><ele>406.0</ele><time>2026-04-25T07:47:30.999Z</time></trkpt><trkpt lat="45.79453314977958" lon="9.14764334841661"><ele>406.0</ele><time>2026-04-25T07:47:31.999Z</time></trkpt><trkpt lat="45.79453833968068" lon="9.147487160500537"><ele>406.0</ele><time>2026-04-25T07:47:32.999Z</time></trkpt><trkpt lat="45.79454445577531" lon="9.147341442528566"><ele>406.0</ele><time>2026-04-25T07:47:34Z</time></trkpt><trkpt lat="45.79455157121498" lon="9.147188271940017"><ele>406.0</ele><time>2026-04-25T07:47:35Z</time></trkpt><trkpt lat="45.794559378414554" lon="9.14702929982923"><ele>406.0</ele><time>2026-04-25T07:47:36Z</time></trkpt><trkpt lat="45.7945682199758" lon="9.146861797602948"><ele>406.0</ele><time>2026-04-25T07:47:37Z</time></trkpt><trkpt lat="45.79457997261269" lon="9.146694265334919"><ele>406.0</ele><time>2026-04-25T07:47:38Z</time></trkpt><trkpt lat="45.79459171735601" lon="9.146520618336973"><ele>406.0</ele><time>2026-04-25T07:47:39Z</time></trkpt><trkpt lat="45.79459855174741" lon="9.14633327902174"><ele>406.0</ele><time>2026-04-25T07:47:40Z</time></trkpt><trkpt lat="45.79460630823599" lon="9.14614403686483"><ele>406.0</ele><time>2026-04-25T07:47:41Z</time></trkpt><trkpt lat="45.79461681534142" lon="9.145959018242898"><ele>406.0</ele><time>2026-04-25T07:47:42Z</time></trkpt><trkpt lat="45.794647732481316" lon="9.14577604048091"><ele>406.0</ele><time>2026-04-25T07:47:43Z</time></trkpt><trkpt lat="45.79464428784484" lon="9.145583781046312"><ele>406.0</ele><time>2026-04-25T07:47:43.998Z</time></trkpt><trkpt lat="45.794674393721685" lon="9.145391438728426"><ele>406.25</ele><time>2026-04-25T07:47:44.998Z</time></trkpt><trkpt lat="45.794686203751965" lon="9.145197354986843"><ele>406.5</ele><time>2026-04-25T07:47:45.998Z</time></trkpt><trkpt lat="45.79469734801604" lon="9.144999652917345"><ele>406.75</ele><time>2026-04-25T07:47:46.998Z</time></trkpt><trkpt lat="45.794711799183695" lon="9.14479596137476"><ele>407.0</ele><time>2026-04-25T07:47:47.998Z</time></trkpt><trkpt lat="45.794724722043824" lon="9.144579283671234"><ele>407.75</ele><time>2026-04-25T07:47:48.998Z</time></trkpt><trkpt lat="45.79474050584516" lon="9.144373333099324"><ele>408.5</ele><time>2026-04-25T07:47:49.999Z</time></trkpt><trkpt lat="45.79475397125334" lon="9.144171478556359"><ele>409.25</ele><time>2026-04-25T07:47:50.999Z</time></trkpt><trkpt lat="45.79476720293624" lon="9.143968812432528"><ele>410.0</ele><time>2026-04-25T07:47:51.999Z</time></trkpt><trkpt lat="45.79477918079374" lon="9.143767576742224"><ele>410.25</ele><time>2026-04-25T07:47:52.999Z</time></trkpt><trkpt lat="45.79479151312296" lon="9.143571448703227"><ele>410.5</ele><time>2026-04-25T07:47:53.999Z</time></trkpt><trkpt lat="45.794803761667026" lon="9.143385650336704"><ele>410.75</ele><time>2026-04-25T07:47:54.999Z</time></trkpt><trkpt lat="45.79481421027787" lon="9.143212839348747"><ele>411.0</ele><time>2026-04-25T07:47:55.998Z</time></trkpt><trkpt lat="45.79482508315561" lon="9.143056393140558"><ele>411.75</ele><time>2026-04-25T07:47:56.998Z</time></trkpt><trkpt lat="45.79484273283059" lon="9.14278624024066"><ele>412.5</ele><time>2026-04-25T07:47:58.998Z</time></trkpt><trkpt lat="45.794849913197666" lon="9.142663594844146"><ele>413.25</ele><time>2026-04-25T07:47:59.998Z</time></trkpt><trkpt lat="45.79485395291722" lon="9.14254089500919"><ele>414.0</ele><time>2026-04-25T07:48:00.998Z</time></trkpt><trkpt lat="45.79485791281996" lon="9.142405301637638"><ele>414.0</ele><time>2026-04-25T07:48:01.998Z</time></trkpt><trkpt lat="45.79486238552381" lon="9.14226295088111"><ele>414.0</ele><time>2026-04-25T07:48:02.998Z</time></trkpt><trkpt lat="45.7948699921014" lon="9.142112540052604"><ele>414.0</ele><time>2026-04-25T07:48:03.998Z</time></trkpt><trkpt lat="45.794876949180434" lon="9.14196352181197"><ele>414.0</ele><time>2026-04-25T07:48:04.998Z</time></trkpt><trkpt lat="45.79488126314833" lon="9.14183432796126"><ele>414.0</ele><time>2026-04-25T07:48:05.998Z</time></trkpt><trkpt lat="45.7948886026652" lon="9.141712571320957"><ele>414.0</ele><time>2026-04-25T07:48:06.998Z</time></trkpt><trkpt lat="45.79490429599965" lon="9.141602987386255"><ele>414.0</ele><time>2026-04-25T07:48:07.998Z</time></trkpt><trkpt lat="45.794927768490616" lon="9.141506585398563"><ele>414.0</ele><time>2026-04-25T07:48:08.998Z</time></trkpt><trkpt lat="45.79496823936989" lon="9.141412429813574"><ele>414.0</ele><time>2026-04-25T07:48:09.998Z</time></trkpt><trkpt lat="45.795003501206644" lon="9.141329839042719"><ele>414.0</ele><time>2026-04-25T07:48:10.998Z</time></trkpt><trkpt lat="45.7950201377974" lon="9.141225910913898"><ele>414.0</ele><time>2026-04-25T07:48:11.998Z</time></trkpt><trkpt lat="45.79500694026377" lon="9.141104716120347"><ele>412.75</ele><time>2026-04-25T07:48:12.998Z</time></trkpt><trkpt lat="45.79497257074081" lon="9.140951613028172"><ele>411.5</ele><time>2026-04-25T07:48:13.998Z</time></trkpt><trkpt lat="45.794940591728206" lon="9.140760869272365"><ele>410.25</ele><time>2026-04-25T07:48:14.998Z</time></trkpt><trkpt lat="45.794908790446115" lon="9.14056451887377"><ele>409.0</ele><time>2026-04-25T07:48:15.999Z</time></trkpt><trkpt lat="45.7948816894703" lon="9.14037912565581"><ele>409.0</ele><time>2026-04-25T07:48:16.999Z</time></trkpt><trkpt lat="45.79485888275348" lon="9.140185834772021"><ele>409.0</ele><time>2026-04-25T07:48:17.999Z</time></trkpt><trkpt lat="45.79484081758439" lon="9.139986325692325"><ele>409.0</ele><time>2026-04-25T07:48:18.999Z</time></trkpt><trkpt lat="45.79482479012715" lon="9.139787173064585"><ele>409.0</ele><time>2026-04-25T07:48:19.999Z</time></trkpt><trkpt lat="45.794837055443715" lon="9.139588449295275"><ele>409.6666666666667</ele><time>2026-04-25T07:48:20.999Z</time></trkpt><trkpt lat="45.79481823796812" lon="9.139377202484262"><ele>410.33333333333337</ele><time>2026-04-25T07:48:21.999Z</time></trkpt><trkpt lat="45.79482003202618" lon="9.13916142249297"><ele>411.0</ele><time>2026-04-25T07:48:22.999Z</time></trkpt><trkpt lat="45.79481863586246" lon="9.138944634666856"><ele>411.0</ele><time>2026-04-25T07:48:23.999Z</time></trkpt><trkpt lat="45.794817959950514" lon="9.1387461036266"><ele>411.0</ele><time>2026-04-25T07:48:24.999Z</time></trkpt><trkpt lat="45.79481559693839" lon="9.138559640025216"><ele>411.0</ele><time>2026-04-25T07:48:25.999Z</time></trkpt><trkpt lat="45.794814877417366" lon="9.138387962523247"><ele>411.0</ele><time>2026-04-25T07:48:26.999Z</time></trkpt><trkpt lat="45.79481250720183" lon="9.138225799733062"><ele>411.1666666666667</ele><time>2026-04-25T07:48:27.999Z</time></trkpt><trkpt lat="45.79481123050486" lon="9.138075264163696"><ele>411.33333333333337</ele><time>2026-04-25T07:48:28.999Z</time></trkpt><trkpt lat="45.794806683719855" lon="9.137933418064005"><ele>411.5</ele><time>2026-04-25T07:48:29.999Z</time></trkpt><trkpt lat="45.79480107703418" lon="9.13779927735544"><ele>411.6666666666667</ele><time>2026-04-25T07:48:30.999Z</time></trkpt><trkpt lat="45.79480253066135" lon="9.137686601702173"><ele>411.83333333333337</ele><time>2026-04-25T07:48:31.999Z</time></trkpt><trkpt lat="45.794803755732104" lon="9.13758211271037"><ele>412.0</ele><time>2026-04-25T07:48:32.999Z</time></trkpt><trkpt lat="45.79480221104846" lon="9.137482538699455"><ele>411.75</ele><time>2026-04-25T07:48:33.999Z</time></trkpt><trkpt lat="45.794800367457086" lon="9.137339136216"><ele>411.5</ele><time>2026-04-25T07:48:34.999Z</time></trkpt><trkpt lat="45.79479260204594" lon="9.13714396680064"><ele>411.25</ele><time>2026-04-25T07:48:35.999Z</time></trkpt><trkpt lat="45.79479007319676" lon="9.136942052814037"><ele>411.0</ele><time>2026-04-25T07:48:36.999Z</time></trkpt><trkpt lat="45.794790263884735" lon="9.136746411288108"><ele>411.0</ele><time>2026-04-25T07:48:37.999Z</time></trkpt><trkpt lat="45.794785929174814" lon="9.136537708218096"><ele>411.0</ele><time>2026-04-25T07:48:38.999Z</time></trkpt><trkpt lat="45.79478097207154" lon="9.136317192202366"><ele>411.0</ele><time>2026-04-25T07:48:39.999Z</time></trkpt><trkpt lat="45.794779444929894" lon="9.136092755605047"><ele>411.0</ele><time>2026-04-25T07:48:40.999Z</time></trkpt><trkpt lat="45.79478015268405" lon="9.135873758164513"><ele>411.0</ele><time>2026-04-25T07:48:41.999Z</time></trkpt><trkpt lat="45.79477804773825" lon="9.13566074538023"><ele>411.0</ele><time>2026-04-25T07:48:42.999Z</time></trkpt><trkpt lat="45.79477763874302" lon="9.135450584499232"><ele>411.0</ele><time>2026-04-25T07:48:43.999Z</time></trkpt><trkpt lat="45.794779039677906" lon="9.135258309987197"><ele>411.75</ele><time>2026-04-25T07:48:44.999Z</time></trkpt><trkpt lat="45.79478314657977" lon="9.135073155603141"><ele>412.5</ele><time>2026-04-25T07:48:45.999Z</time></trkpt><trkpt lat="45.79479700735781" lon="9.134889527718052"><ele>413.25</ele><time>2026-04-25T07:48:46.999Z</time></trkpt><trkpt lat="45.79482130212316" lon="9.134707312024974"><ele>414.0</ele><time>2026-04-25T07:48:47.999Z</time></trkpt><trkpt lat="45.79485225165152" lon="9.134527761369661"><ele>414.0</ele><time>2026-04-25T07:48:48.999Z</time></trkpt><trkpt lat="45.79489056181486" lon="9.134349826129458"><ele>414.0</ele><time>2026-04-25T07:48:49.999Z</time></trkpt><trkpt lat="45.794940216998015" lon="9.134185637292514"><ele>414.0</ele><time>2026-04-25T07:48:50.999Z</time></trkpt><trkpt lat="45.7949942414963" lon="9.134037603728627"><ele>414.0</ele><time>2026-04-25T07:48:51.999Z</time></trkpt><trkpt lat="45.79504897764166" lon="9.133901197708528"><ele>414.0</ele><time>2026-04-25T07:48:52.999Z</time></trkpt><trkpt lat="45.795103977419934" lon="9.133758394266078"><ele>414.0</ele><time>2026-04-25T07:48:53.999Z</time></trkpt><trkpt lat="45.79518283831161" lon="9.133627358368333"><ele>414.0</ele><time>2026-04-25T07:48:54.999Z</time></trkpt><trkpt lat="45.7952474275724" lon="9.133475890864686"><ele>414.0</ele><time>2026-04-25T07:48:55.999Z</time></trkpt><trkpt lat="45.795310127377924" lon="9.133317691893424"><ele>411.0</ele><time>2026-04-25T07:48:56.999Z</time></trkpt><trkpt lat="45.79537107487862" lon="9.133161887070152"><ele>408.0</ele><time>2026-04-25T07:48:57.999Z</time></trkpt><trkpt lat="45.795429468280155" lon="9.133014155988093"><ele>405.0</ele><time>2026-04-25T07:48:58.999Z</time></trkpt><trkpt lat="45.79548582629652" lon="9.132869488202914"><ele>402.0</ele><time>2026-04-25T07:48:59.999Z</time></trkpt><trkpt lat="45.79554053703236" lon="9.132727832427108"><ele>402.0</ele><time>2026-04-25T07:49:00.999Z</time></trkpt><trkpt lat="45.79559412559556" lon="9.13258286846291"><ele>402.0</ele><time>2026-04-25T07:49:01.999Z</time></trkpt><trkpt lat="45.79565035568324" lon="9.132433855369179"><ele>402.0</ele><time>2026-04-25T07:49:02.999Z</time></trkpt><trkpt lat="45.7957139358884" lon="9.132278119537386"><ele>402.0</ele><time>2026-04-25T07:49:03.999Z</time></trkpt><trkpt lat="45.79577743911479" lon="9.13212279435325"><ele>403.0</ele><time>2026-04-25T07:49:04.999Z</time></trkpt><trkpt lat="45.795834014487895" lon="9.131970509893911"><ele>404.0</ele><time>2026-04-25T07:49:05.999Z</time></trkpt><trkpt lat="45.79589014522257" lon="9.13182141588224"><ele>405.0</ele><time>2026-04-25T07:49:06.999Z</time></trkpt><trkpt lat="45.79594353132826" lon="9.131669463939234"><ele>406.0</ele><time>2026-04-25T07:49:07.999Z</time></trkpt><trkpt lat="45.79601450612665" lon="9.13152780015522"><ele>402.25</ele><time>2026-04-25T07:49:08.999Z</time></trkpt><trkpt lat="45.7960630255773" lon="9.131367182593324"><ele>398.5</ele><time>2026-04-25T07:49:09.999Z</time></trkpt><trkpt lat="45.796101376736026" lon="9.131206289055372"><ele>394.75</ele><time>2026-04-25T07:49:10.999Z</time></trkpt><trkpt lat="45.79613312365825" lon="9.13105036027257"><ele>391.0</ele><time>2026-04-25T07:49:11.999Z</time></trkpt><trkpt lat="45.79615419676763" lon="9.13090580341819"><ele>391.0</ele><time>2026-04-25T07:49:12.999Z</time></trkpt><trkpt lat="45.79616683926199" lon="9.130759206545038"><ele>391.0</ele><time>2026-04-25T07:49:13.999Z</time></trkpt><trkpt lat="45.79617110199282" lon="9.130619834678829"><ele>391.0</ele><time>2026-04-25T07:49:14.999Z</time></trkpt><trkpt lat="45.79616866600471" lon="9.130485679381502"><ele>391.0</ele><time>2026-04-25T07:49:15.999Z</time></trkpt><trkpt lat="45.79616097209701" lon="9.130361595791967"><ele>391.0</ele><time>2026-04-25T07:49:16.999Z</time></trkpt><trkpt lat="45.79614721360242" lon="9.130236519581194"><ele>391.0</ele><time>2026-04-25T07:49:17.999Z</time></trkpt><trkpt lat="45.796125690053316" lon="9.130103981643279"><ele>391.0</ele><time>2026-04-25T07:49:18.999Z</time></trkpt><trkpt lat="45.79609787421868" lon="9.129971263888978"><ele>391.0</ele><time>2026-04-25T07:49:19.999Z</time></trkpt><trkpt lat="45.7960624434471" lon="9.129839124135026"><ele>391.0</ele><time>2026-04-25T07:49:20.999Z</time></trkpt><trkpt lat="45.79602480401805" lon="9.12971021182391"><ele>391.0</ele><time>2026-04-25T07:49:21.999Z</time></trkpt><trkpt lat="45.79598605369486" lon="9.129589225617925"><ele>391.50000000000006</ele><time>2026-04-25T07:49:22.999Z</time></trkpt><trkpt lat="45.79595564838142" lon="9.129481702152578"><ele>392.0</ele><time>2026-04-25T07:49:23.999Z</time></trkpt><trkpt lat="45.795920001951934" lon="9.129362666565193"><ele>392.5</ele><time>2026-04-25T07:49:24.999Z</time></trkpt><trkpt lat="45.795881226552005" lon="9.129242138697489"><ele>393.0</ele><time>2026-04-25T07:49:25.999Z</time></trkpt><trkpt lat="45.79583530830067" lon="9.129126694033136"><ele>393.50000000000006</ele><time>2026-04-25T07:49:26.999Z</time></trkpt><trkpt lat="45.79579414805448" lon="9.12900717523619"><ele>394.0</ele><time>2026-04-25T07:49:27.999Z</time></trkpt><trkpt lat="45.795752690075695" lon="9.128890008473595"><ele>392.50000000000006</ele><time>2026-04-25T07:49:29Z</time></trkpt><trkpt lat="45.7957137465948" lon="9.128773982640677"><ele>391.0</ele><time>2026-04-25T07:49:30Z</time></trkpt><trkpt lat="45.79567507803852" lon="9.128659784322418"><ele>389.5</ele><time>2026-04-25T07:49:31Z</time></trkpt><trkpt lat="45.795640236983864" lon="9.128555260512712"><ele>388.0</ele><time>2026-04-25T07:49:32Z</time></trkpt><trkpt lat="45.79560973359202" lon="9.128455075717032"><ele>386.50000000000006</ele><time>2026-04-25T07:49:33Z</time></trkpt><trkpt lat="45.7955810569365" lon="9.128358994623385"><ele>385.0</ele><time>2026-04-25T07:49:34Z</time></trkpt><trkpt lat="45.79555678162382" lon="9.128271978490677"><ele>383.0</ele><time>2026-04-25T07:49:35Z</time></trkpt><trkpt lat="45.7955185551092" lon="9.128110991801467"><ele>381.0</ele><time>2026-04-25T07:49:37Z</time></trkpt><trkpt lat="45.79549245708625" lon="9.127979700472272"><ele>379.0</ele><time>2026-04-25T07:49:39Z</time></trkpt><trkpt lat="45.79546847754974" lon="9.12787364429205"><ele>377.0</ele><time>2026-04-25T07:49:41Z</time></trkpt><trkpt lat="45.795443057895405" lon="9.127754172173159"><ele>375.0</ele><time>2026-04-25T07:49:44Z</time></trkpt><trkpt lat="45.79539449743254" lon="9.127620549236198"><ele>375.0</ele><time>2026-04-25T07:49:46Z</time></trkpt><trkpt lat="45.795359039019594" lon="9.127538842212225"><ele>375.0</ele><time>2026-04-25T07:49:47Z</time></trkpt><trkpt lat="45.79531108752764" lon="9.127434298417006"><ele>375.0</ele><time>2026-04-25T07:49:48Z</time></trkpt><trkpt lat="45.795269409951224" lon="9.12730170879411"><ele>375.0</ele><time>2026-04-25T07:49:49Z</time></trkpt><trkpt lat="45.79524308706279" lon="9.127150516595485"><ele>375.0</ele><time>2026-04-25T07:49:49.998Z</time></trkpt><trkpt lat="45.795227271292646" lon="9.127014408434801"><ele>373.8</ele><time>2026-04-25T07:49:50.998Z</time></trkpt><trkpt lat="45.79522408750267" lon="9.126893474622323"><ele>372.6</ele><time>2026-04-25T07:49:51.998Z</time></trkpt><trkpt lat="45.795231963874876" lon="9.12676467625414"><ele>371.4</ele><time>2026-04-25T07:49:52.998Z</time></trkpt><trkpt lat="45.79524486952081" lon="9.126630688169506"><ele>370.2</ele><time>2026-04-25T07:49:53.998Z</time></trkpt><trkpt lat="45.79525269815592" lon="9.12650207326655"><ele>369.0</ele><time>2026-04-25T07:49:54.998Z</time></trkpt><trkpt lat="45.795262326398806" lon="9.126358700105119"><ele>368.6666666666667</ele><time>2026-04-25T07:49:55.998Z</time></trkpt><trkpt lat="45.79528168278371" lon="9.126213686547628"><ele>368.3333333333333</ele><time>2026-04-25T07:49:56.998Z</time></trkpt><trkpt lat="45.79531077341582" lon="9.12608396059788"><ele>368.0</ele><time>2026-04-25T07:49:57.998Z</time></trkpt><trkpt lat="45.79534924556737" lon="9.12597345288511"><ele>367.66666666666663</ele><time>2026-04-25T07:49:58.998Z</time></trkpt><trkpt lat="45.795391438273015" lon="9.125878270166062"><ele>367.3333333333333</ele><time>2026-04-25T07:49:59.998Z</time></trkpt><trkpt lat="45.79543390951739" lon="9.125789719409294"><ele>367.0</ele><time>2026-04-25T07:50:00.998Z</time></trkpt><trkpt lat="45.79547393239274" lon="9.125707648771504"><ele>367.0</ele><time>2026-04-25T07:50:01.998Z</time></trkpt><trkpt lat="45.79553449964611" lon="9.125575867755629"><ele>367.0</ele><time>2026-04-25T07:50:03.998Z</time></trkpt><trkpt lat="45.79556481869388" lon="9.125487156236398"><ele>367.0</ele><time>2026-04-25T07:50:04.998Z</time></trkpt><trkpt lat="45.79561004231131" lon="9.1253849119698"><ele>367.0</ele><time>2026-04-25T07:50:05.998Z</time></trkpt><trkpt lat="45.79566292292046" lon="9.125263957174507"><ele>367.0</ele><time>2026-04-25T07:50:06.998Z</time></trkpt><trkpt lat="45.79572168377172" lon="9.125134751248778"><ele>367.0</ele><time>2026-04-25T07:50:07.999Z</time></trkpt><trkpt lat="45.795775529007706" lon="9.125024223192884"><ele>367.0</ele><time>2026-04-25T07:50:08.999Z</time></trkpt><trkpt lat="45.79582569092121" lon="9.12491993523114"><ele>367.0</ele><time>2026-04-25T07:50:09.999Z</time></trkpt><trkpt lat="45.795872268876586" lon="9.124812570703321"><ele>367.0</ele><time>2026-04-25T07:50:10.999Z</time></trkpt><trkpt lat="45.79589802160715" lon="9.12470040416021"><ele>367.0</ele><time>2026-04-25T07:50:11.999Z</time></trkpt><trkpt lat="45.79597533630545" lon="9.124585093143105"><ele>367.25</ele><time>2026-04-25T07:50:12.999Z</time></trkpt><trkpt lat="45.79604048781035" lon="9.124456418796088"><ele>367.5</ele><time>2026-04-25T07:50:13.999Z</time></trkpt><trkpt lat="45.7961066635193" lon="9.124309478308708"><ele>367.75</ele><time>2026-04-25T07:50:14.999Z</time></trkpt><trkpt lat="45.79619391911666" lon="9.124167892754638"><ele>368.0</ele><time>2026-04-25T07:50:15.999Z</time></trkpt><trkpt lat="45.79626408688353" lon="9.124023160300444"><ele>368.0</ele><time>2026-04-25T07:50:16.999Z</time></trkpt><trkpt lat="45.79630789348531" lon="9.12387594833276"><ele>368.0</ele><time>2026-04-25T07:50:17.999Z</time></trkpt><trkpt lat="45.79636985757725" lon="9.12376284633504"><ele>368.0</ele><time>2026-04-25T07:50:18.999Z</time></trkpt><trkpt lat="45.796429116703706" lon="9.12364829957668"><ele>368.0</ele><time>2026-04-25T07:50:19.999Z</time></trkpt><trkpt lat="45.796486484062434" lon="9.123523713811377"><ele>368.0</ele><time>2026-04-25T07:50:20.999Z</time></trkpt><trkpt lat="45.79654404091925" lon="9.123397553780585"><ele>368.0</ele><time>2026-04-25T07:50:21.999Z</time></trkpt><trkpt lat="45.79661376155366" lon="9.12329107960035"><ele>368.0</ele><time>2026-04-25T07:50:22.999Z</time></trkpt><trkpt lat="45.79665624163617" lon="9.123161467124907"><ele>368.0</ele><time>2026-04-25T07:50:23.999Z</time></trkpt><trkpt lat="45.79670977448261" lon="9.123048076222888"><ele>368.0</ele><time>2026-04-25T07:50:24.999Z</time></trkpt><trkpt lat="45.79676902744518" lon="9.12292256973852"><ele>368.0</ele><time>2026-04-25T07:50:25.999Z</time></trkpt><trkpt lat="45.79683430764317" lon="9.122784074564416"><ele>367.4</ele><time>2026-04-25T07:50:26.999Z</time></trkpt><trkpt lat="45.796898451080466" lon="9.122647962083551"><ele>366.79999999999995</ele><time>2026-04-25T07:50:27.999Z</time></trkpt><trkpt lat="45.796957512077995" lon="9.122513887649584"><ele>366.2</ele><time>2026-04-25T07:50:28.999Z</time></trkpt><trkpt lat="45.79702809957049" lon="9.122398070614503"><ele>365.6</ele><time>2026-04-25T07:50:29.999Z</time></trkpt><trkpt lat="45.79707770780058" lon="9.122246503472308"><ele>365.0</ele><time>2026-04-25T07:50:30.999Z</time></trkpt><trkpt lat="45.79711691451043" lon="9.12209578737926"><ele>364.5</ele><time>2026-04-25T07:50:31.999Z</time></trkpt><trkpt lat="45.79714147233185" lon="9.121938996770224"><ele>364.0</ele><time>2026-04-25T07:50:32.999Z</time></trkpt><trkpt lat="45.79716617465602" lon="9.121780597849538"><ele>363.5</ele><time>2026-04-25T07:50:33.999Z</time></trkpt><trkpt lat="45.797185181198564" lon="9.121619719045114"><ele>363.0</ele><time>2026-04-25T07:50:34.999Z</time></trkpt><trkpt lat="45.7971887518986" lon="9.121453299744182"><ele>361.75</ele><time>2026-04-25T07:50:35.999Z</time></trkpt><trkpt lat="45.79718641785615" lon="9.121291758817645"><ele>360.5</ele><time>2026-04-25T07:50:36.999Z</time></trkpt><trkpt lat="45.797174683847615" lon="9.12111157769366"><ele>359.25</ele><time>2026-04-25T07:50:37.999Z</time></trkpt><trkpt lat="45.79716541178779" lon="9.120922267919653"><ele>358.0</ele><time>2026-04-25T07:50:38.999Z</time></trkpt><trkpt lat="45.79715610563398" lon="9.12073673444123"><ele>356.5</ele><time>2026-04-25T07:50:39.999Z</time></trkpt><trkpt lat="45.797165834456855" lon="9.120560610636048"><ele>355.0</ele><time>2026-04-25T07:50:40.999Z</time></trkpt><trkpt lat="45.79716071366521" lon="9.12037713433224"><ele>353.5</ele><time>2026-04-25T07:50:41.999Z</time></trkpt><trkpt lat="45.79715219179022" lon="9.120181294336572"><ele>352.0</ele><time>2026-04-25T07:50:42.999Z</time></trkpt><trkpt lat="45.79713935913539" lon="9.119978067471745"><ele>350.0</ele><time>2026-04-25T07:50:43.999Z</time></trkpt><trkpt lat="45.79712650988568" lon="9.119771788590494"><ele>348.0</ele><time>2026-04-25T07:50:44.999Z</time></trkpt><trkpt lat="45.79711624425733" lon="9.119570007719492"><ele>346.0</ele><time>2026-04-25T07:50:45.999Z</time></trkpt><trkpt lat="45.797108783543365" lon="9.119372359587894"><ele>344.0</ele><time>2026-04-25T07:50:46.999Z</time></trkpt><trkpt lat="45.797100331391455" lon="9.1191845986271"><ele>343.25</ele><time>2026-04-25T07:50:47.999Z</time></trkpt><trkpt lat="45.79709209670614" lon="9.119004365204358"><ele>342.5</ele><time>2026-04-25T07:50:48.999Z</time></trkpt><trkpt lat="45.797085066152206" lon="9.118832972304842"><ele>341.75</ele><time>2026-04-25T07:50:49.999Z</time></trkpt><trkpt lat="45.79707333222044" lon="9.11866233175217"><ele>341.0</ele><time>2026-04-25T07:50:50.999Z</time></trkpt><trkpt lat="45.79705895169142" lon="9.118474969818394"><ele>341.0</ele><time>2026-04-25T07:50:51.999Z</time></trkpt><trkpt lat="45.79704617393017" lon="9.118276115948428"><ele>341.0</ele><time>2026-04-25T07:50:52.999Z</time></trkpt><trkpt lat="45.79703656379645" lon="9.118071577847713"><ele>341.0</ele><time>2026-04-25T07:50:53.999Z</time></trkpt><trkpt lat="45.797028400081594" lon="9.117877879044661"><ele>341.0</ele><time>2026-04-25T07:50:54.999Z</time></trkpt><trkpt lat="45.79702102103391" lon="9.117700096804887"><ele>340.6</ele><time>2026-04-25T07:50:55.999Z</time></trkpt><trkpt lat="45.79701253277615" lon="9.117536959858318"><ele>340.20000000000005</ele><time>2026-04-25T07:50:56.999Z</time></trkpt><trkpt lat="45.797006016656134" lon="9.117381566496695"><ele>339.79999999999995</ele><time>2026-04-25T07:50:57.999Z</time></trkpt><trkpt lat="45.79699884890982" lon="9.117229730550115"><ele>339.4</ele><time>2026-04-25T07:50:58.999Z</time></trkpt><trkpt lat="45.79698867001856" lon="9.117071404238825"><ele>339.0</ele><time>2026-04-25T07:50:59.999Z</time></trkpt><trkpt lat="45.79697571377801" lon="9.1169270423915"><ele>339.0</ele><time>2026-04-25T07:51:00.999Z</time></trkpt><trkpt lat="45.79697197302967" lon="9.116779841831015"><ele>339.0</ele><time>2026-04-25T07:51:01.999Z</time></trkpt><trkpt lat="45.796972195278116" lon="9.116608225720027"><ele>339.0</ele><time>2026-04-25T07:51:02.999Z</time></trkpt><trkpt lat="45.79697736104875" lon="9.11644829085035"><ele>339.0</ele><time>2026-04-25T07:51:03.999Z</time></trkpt><trkpt lat="45.79698400770901" lon="9.116256950513096"><ele>339.0</ele><time>2026-04-25T07:51:04.999Z</time></trkpt><trkpt lat="45.79700067937894" lon="9.11604849931776"><ele>339.0</ele><time>2026-04-25T07:51:05.999Z</time></trkpt><trkpt lat="45.79702434481108" lon="9.115862537300318"><ele>339.0</ele><time>2026-04-25T07:51:06.999Z</time></trkpt><trkpt lat="45.797051809694764" lon="9.115686784072622"><ele>339.0</ele><time>2026-04-25T07:51:07.999Z</time></trkpt><trkpt lat="45.79708259559319" lon="9.11553541137837"><ele>339.0</ele><time>2026-04-25T07:51:08.999Z</time></trkpt><trkpt lat="45.797114438557394" lon="9.115415666606541"><ele>339.0</ele><time>2026-04-25T07:51:09.999Z</time></trkpt><trkpt lat="45.797156972790845" lon="9.115303332686908"><ele>339.0</ele><time>2026-04-25T07:51:10.999Z</time></trkpt><trkpt lat="45.797211310066864" lon="9.115208860234082"><ele>339.0</ele><time>2026-04-25T07:51:11.999Z</time></trkpt><trkpt lat="45.79725763506664" lon="9.115111901026014"><ele>339.0</ele><time>2026-04-25T07:51:12.999Z</time></trkpt><trkpt lat="45.797277068651795" lon="9.115002426955739"><ele>339.0</ele><time>2026-04-25T07:51:13.999Z</time></trkpt><trkpt lat="45.79725948326839" lon="9.114898115782655"><ele>339.0</ele><time>2026-04-25T07:51:14.999Z</time></trkpt><trkpt lat="45.797203888069326" lon="9.114802410115855"><ele>339.0</ele><time>2026-04-25T07:51:15.999Z</time></trkpt><trkpt lat="45.79713322701299" lon="9.114695351465942"><ele>339.0</ele><time>2026-04-25T07:51:16.999Z</time></trkpt><trkpt lat="45.79707348634397" lon="9.114566806287696"><ele>339.0</ele><time>2026-04-25T07:51:17.999Z</time></trkpt><trkpt lat="45.79704108336487" lon="9.114425197469771"><ele>339.0</ele><time>2026-04-25T07:51:18.999Z</time></trkpt><trkpt lat="45.79701258093041" lon="9.114279967988619"><ele>339.0</ele><time>2026-04-25T07:51:19.999Z</time></trkpt><trkpt lat="45.796984082580444" lon="9.114139493715886"><ele>339.0</ele><time>2026-04-25T07:51:21Z</time></trkpt><trkpt lat="45.796958156212916" lon="9.113998896649676"><ele>339.0</ele><time>2026-04-25T07:51:22Z</time></trkpt><trkpt lat="45.796924433386806" lon="9.113868235533625"><ele>339.0</ele><time>2026-04-25T07:51:23Z</time></trkpt><trkpt lat="45.79688723167936" lon="9.113736129650821"><ele>339.0</ele><time>2026-04-25T07:51:24Z</time></trkpt><trkpt lat="45.796835180370394" lon="9.113606831519823"><ele>339.0</ele><time>2026-04-25T07:51:25Z</time></trkpt><trkpt lat="45.7967762585135" lon="9.11345129754249"><ele>339.0</ele><time>2026-04-25T07:51:26Z</time></trkpt><trkpt lat="45.79671480316125" lon="9.113281217339793"><ele>339.0</ele><time>2026-04-25T07:51:27Z</time></trkpt><trkpt lat="45.79664963058615" lon="9.113097155480741"><ele>339.0</ele><time>2026-04-25T07:51:28Z</time></trkpt><trkpt lat="45.79659152755387" lon="9.112930975563946"><ele>339.0</ele><time>2026-04-25T07:51:29Z</time></trkpt><trkpt lat="45.79653468399933" lon="9.11276255789183"><ele>339.0</ele><time>2026-04-25T07:51:30Z</time></trkpt><trkpt lat="45.79647026457941" lon="9.11258595397174"><ele>339.0</ele><time>2026-04-25T07:51:31Z</time></trkpt><trkpt lat="45.796402882304946" lon="9.112415222485998"><ele>339.0</ele><time>2026-04-25T07:51:32Z</time></trkpt><trkpt lat="45.79635416068129" lon="9.112242928102706"><ele>339.5</ele><time>2026-04-25T07:51:33Z</time></trkpt><trkpt lat="45.796281588220516" lon="9.112094616887608"><ele>340.0</ele><time>2026-04-25T07:51:34Z</time></trkpt><trkpt lat="45.79621072931218" lon="9.111953398423541"><ele>340.5</ele><time>2026-04-25T07:51:35Z</time></trkpt><trkpt lat="45.796142177430625" lon="9.111825711478973"><ele>341.0</ele><time>2026-04-25T07:51:36Z</time></trkpt><trkpt lat="45.79607180773626" lon="9.11170446580636"><ele>341.0</ele><time>2026-04-25T07:51:37Z</time></trkpt><trkpt lat="45.795999602413154" lon="9.111582365384605"><ele>341.0</ele><time>2026-04-25T07:51:38Z</time></trkpt><trkpt lat="45.795929017142065" lon="9.111454572575855"><ele>341.0</ele><time>2026-04-25T07:51:39Z</time></trkpt><trkpt lat="45.795858046227494" lon="9.111314404026578"><ele>341.0</ele><time>2026-04-25T07:51:40Z</time></trkpt><trkpt lat="45.79579344147547" lon="9.111164451008385"><ele>341.0</ele><time>2026-04-25T07:51:41Z</time></trkpt><trkpt lat="45.79573321967575" lon="9.111008693721843"><ele>341.0</ele><time>2026-04-25T07:51:42Z</time></trkpt><trkpt lat="45.79568356512862" lon="9.110846534209344"><ele>341.0</ele><time>2026-04-25T07:51:43Z</time></trkpt><trkpt lat="45.795641402492144" lon="9.11066993257419"><ele>341.0</ele><time>2026-04-25T07:51:44Z</time></trkpt><trkpt lat="45.79560732177188" lon="9.110492105865251"><ele>341.0</ele><time>2026-04-25T07:51:45Z</time></trkpt><trkpt lat="45.79557524667902" lon="9.110314537651702"><ele>341.0</ele><time>2026-04-25T07:51:46Z</time></trkpt><trkpt lat="45.79554193091094" lon="9.110132853482153"><ele>341.0</ele><time>2026-04-25T07:51:47Z</time></trkpt><trkpt lat="45.795512779222555" lon="9.109956144720007"><ele>341.0</ele><time>2026-04-25T07:51:48Z</time></trkpt><trkpt lat="45.79547740484192" lon="9.109782883040651"><ele>341.75</ele><time>2026-04-25T07:51:49Z</time></trkpt><trkpt lat="45.795451683371645" lon="9.109610597889144"><ele>342.5</ele><time>2026-04-25T07:51:50Z</time></trkpt><trkpt lat="45.79543338502299" lon="9.109430567824427"><ele>343.25</ele><time>2026-04-25T07:51:51Z</time></trkpt><trkpt lat="45.795419125309884" lon="9.109256399552212"><ele>344.0</ele><time>2026-04-25T07:51:52Z</time></trkpt><trkpt lat="45.79540823466791" lon="9.109093698059972"><ele>343.6</ele><time>2026-04-25T07:51:53Z</time></trkpt><trkpt lat="45.79540049011326" lon="9.108931930133954"><ele>343.2</ele><time>2026-04-25T07:51:54Z</time></trkpt><trkpt lat="45.79539212591664" lon="9.108780388269622"><ele>342.8</ele><time>2026-04-25T07:51:55Z</time></trkpt><trkpt lat="45.795385144202115" lon="9.10863918883312"><ele>342.40000000000003</ele><time>2026-04-25T07:51:55.998Z</time></trkpt><trkpt lat="45.79538283815615" lon="9.108506794905683"><ele>342.0</ele><time>2026-04-25T07:51:56.998Z</time></trkpt><trkpt lat="45.795383845541764" lon="9.108385585982088"><ele>342.0</ele><time>2026-04-25T07:51:57.998Z</time></trkpt><trkpt lat="45.795388510689406" lon="9.108279823701059"><ele>342.0</ele><time>2026-04-25T07:51:58.998Z</time></trkpt><trkpt lat="45.79539932716793" lon="9.108183887679848"><ele>342.0</ele><time>2026-04-25T07:51:59.998Z</time></trkpt><trkpt lat="45.79541157404124" lon="9.108089660258882"><ele>342.0</ele><time>2026-04-25T07:52:00.998Z</time></trkpt><trkpt lat="45.79542754293884" lon="9.107978190202193"><ele>342.0</ele><time>2026-04-25T07:52:02.998Z</time></trkpt><trkpt lat="45.7954386076384" lon="9.107869148864163"><ele>342.0</ele><time>2026-04-25T07:52:04.998Z</time></trkpt><trkpt lat="45.79543242444685" lon="9.107699343415744"><ele>342.0</ele><time>2026-04-25T07:52:06.998Z</time></trkpt><trkpt lat="45.79541909164435" lon="9.107601673650835"><ele>342.0</ele><time>2026-04-25T07:52:07.998Z</time></trkpt><trkpt lat="45.795394737441214" lon="9.107512150592779"><ele>342.0</ele><time>2026-04-25T07:52:08.998Z</time></trkpt><trkpt lat="45.79536438007281" lon="9.107412394479859"><ele>342.0</ele><time>2026-04-25T07:52:09.998Z</time></trkpt><trkpt lat="45.79532932108762" lon="9.10732151202326"><ele>342.0</ele><time>2026-04-25T07:52:10.998Z</time></trkpt><trkpt lat="45.79528121700946" lon="9.107227861640125"><ele>342.0</ele><time>2026-04-25T07:52:11.998Z</time></trkpt><trkpt lat="45.795220773757535" lon="9.107106871992604"><ele>342.0</ele><time>2026-04-25T07:52:12.998Z</time></trkpt><trkpt lat="45.79518613909768" lon="9.106958570114775"><ele>342.0</ele><time>2026-04-25T07:52:13.998Z</time></trkpt><trkpt lat="45.7951192022907" lon="9.106805249619999"><ele>342.0</ele><time>2026-04-25T07:52:14.998Z</time></trkpt><trkpt lat="45.79503361460495" lon="9.106646971560764"><ele>342.0</ele><time>2026-04-25T07:52:15.998Z</time></trkpt><trkpt lat="45.79495514218837" lon="9.106502257530089"><ele>341.75</ele><time>2026-04-25T07:52:16.998Z</time></trkpt><trkpt lat="45.794885441193976" lon="9.106364461648216"><ele>341.5</ele><time>2026-04-25T07:52:17.998Z</time></trkpt><trkpt lat="45.79481870798689" lon="9.10623386590746"><ele>341.25</ele><time>2026-04-25T07:52:18.998Z</time></trkpt><trkpt lat="45.794756215904854" lon="9.106102793189612"><ele>341.0</ele><time>2026-04-25T07:52:19.998Z</time></trkpt><trkpt lat="45.79469818726839" lon="9.10596067056205"><ele>341.0</ele><time>2026-04-25T07:52:20.998Z</time></trkpt><trkpt lat="45.794647556588686" lon="9.105809827922325"><ele>341.0</ele><time>2026-04-25T07:52:21.998Z</time></trkpt><trkpt lat="45.79459615698821" lon="9.105656810600845"><ele>341.0</ele><time>2026-04-25T07:52:22.998Z</time></trkpt><trkpt lat="45.79454324297752" lon="9.105498629492448"><ele>341.0</ele><time>2026-04-25T07:52:23.998Z</time></trkpt><trkpt lat="45.79448844907028" lon="9.105332672221692"><ele>341.33333333333337</ele><time>2026-04-25T07:52:24.998Z</time></trkpt><trkpt lat="45.794423192553424" lon="9.105140897632273"><ele>341.6666666666667</ele><time>2026-04-25T07:52:25.998Z</time></trkpt><trkpt lat="45.79434304212684" lon="9.104902537119182"><ele>342.0</ele><time>2026-04-25T07:52:26.998Z</time></trkpt><trkpt lat="45.79426684553009" lon="9.104675790492308"><ele>343.25</ele><time>2026-04-25T07:52:27.998Z</time></trkpt><trkpt lat="45.79419686277245" lon="9.104468731485753"><ele>344.5</ele><time>2026-04-25T07:52:28.998Z</time></trkpt><trkpt lat="45.79413501446687" lon="9.104275025567713"><ele>345.75</ele><time>2026-04-25T07:52:29.998Z</time></trkpt><trkpt lat="45.79408456465999" lon="9.104096397659303"><ele>347.0</ele><time>2026-04-25T07:52:30.998Z</time></trkpt><trkpt lat="45.794041143613605" lon="9.103926952420338"><ele>348.6666666666667</ele><time>2026-04-25T07:52:31.998Z</time></trkpt><trkpt lat="45.794001394576526" lon="9.10371151563328"><ele>350.3333333333333</ele><time>2026-04-25T07:52:32.998Z</time></trkpt><trkpt lat="45.793971864502325" lon="9.103461686602627"><ele>352.0</ele><time>2026-04-25T07:52:33.998Z</time></trkpt><trkpt lat="45.793955257406445" lon="9.103206924566944"><ele>352.0</ele><time>2026-04-25T07:52:34.998Z</time></trkpt><trkpt lat="45.79394686212649" lon="9.102969586628577"><ele>352.0</ele><time>2026-04-25T07:52:35.998Z</time></trkpt><trkpt lat="45.793956432185226" lon="9.102748768276662"><ele>352.0</ele><time>2026-04-25T07:52:36.998Z</time></trkpt><trkpt lat="45.79397456999135" lon="9.102530833426178"><ele>351.0</ele><time>2026-04-25T07:52:37.998Z</time></trkpt><trkpt lat="45.793990753718425" lon="9.102318822648742"><ele>350.0</ele><time>2026-04-25T07:52:38.998Z</time></trkpt><trkpt lat="45.793979614425446" lon="9.102117426304286"><ele>349.0</ele><time>2026-04-25T07:52:39.998Z</time></trkpt><trkpt lat="45.79394781452293" lon="9.101913469052906"><ele>348.0</ele><time>2026-04-25T07:52:40.998Z</time></trkpt><trkpt lat="45.793881825277694" lon="9.101733542333493"><ele>348.0</ele><time>2026-04-25T07:52:41.998Z</time></trkpt><trkpt lat="45.7937833926887" lon="9.101590681619793"><ele>348.0</ele><time>2026-04-25T07:52:42.998Z</time></trkpt><trkpt lat="45.79365187791591" lon="9.101463137411193"><ele>348.0</ele><time>2026-04-25T07:52:43.998Z</time></trkpt><trkpt lat="45.79347192472409" lon="9.101415461292728"><ele>344.3333333333333</ele><time>2026-04-25T07:52:44.998Z</time></trkpt><trkpt lat="45.793292778710835" lon="9.101364791049557"><ele>340.66666666666663</ele><time>2026-04-25T07:52:45.998Z</time></trkpt><trkpt lat="45.79312835309499" lon="9.101313526484242"><ele>337.0</ele><time>2026-04-25T07:52:46.999Z</time></trkpt><trkpt lat="45.79297345530781" lon="9.101256974515117"><ele>337.0</ele><time>2026-04-25T07:52:47.999Z</time></trkpt><trkpt lat="45.79283562462469" lon="9.101177528407057"><ele>337.0</ele><time>2026-04-25T07:52:48.999Z</time></trkpt><trkpt lat="45.79271878353631" lon="9.101057379155401"><ele>337.0</ele><time>2026-04-25T07:52:49.999Z</time></trkpt><trkpt lat="45.792621703679416" lon="9.100905985033219"><ele>337.0</ele><time>2026-04-25T07:52:50.999Z</time></trkpt><trkpt lat="45.792548363145535" lon="9.10073378791079"><ele>336.3333333333333</ele><time>2026-04-25T07:52:51.999Z</time></trkpt><trkpt lat="45.792508590711584" lon="9.100523287918985"><ele>335.6666666666667</ele><time>2026-04-25T07:52:52.999Z</time></trkpt><trkpt lat="45.79249793099181" lon="9.100287848730288"><ele>335.0</ele><time>2026-04-25T07:52:53.999Z</time></trkpt><trkpt lat="45.792503842867134" lon="9.100059982124671"><ele>332.75</ele><time>2026-04-25T07:52:54.999Z</time></trkpt><trkpt lat="45.79252302832931" lon="9.099845341169885"><ele>330.5</ele><time>2026-04-25T07:52:55.999Z</time></trkpt><trkpt lat="45.792543264819805" lon="9.099634969036519"><ele>328.25</ele><time>2026-04-25T07:52:56.999Z</time></trkpt><trkpt lat="45.79256049112615" lon="9.099427716498152"><ele>326.0</ele><time>2026-04-25T07:52:57.999Z</time></trkpt><trkpt lat="45.79257032187896" lon="9.099226766476024"><ele>320.75</ele><time>2026-04-25T07:52:58.999Z</time></trkpt><trkpt lat="45.79255580669838" lon="9.099043328474009"><ele>315.5</ele><time>2026-04-25T07:52:59.999Z</time></trkpt><trkpt lat="45.79251408970335" lon="9.098876525738044"><ele>310.25</ele><time>2026-04-25T07:53:00.999Z</time></trkpt><trkpt lat="45.792436311731144" lon="9.098727909619353"><ele>305.0</ele><time>2026-04-25T07:53:01.999Z</time></trkpt><trkpt lat="45.792322987903795" lon="9.09860813666902"><ele>305.0</ele><time>2026-04-25T07:53:02.999Z</time></trkpt><trkpt lat="45.792198817933816" lon="9.098514448962367"><ele>305.0</ele><time>2026-04-25T07:53:03.999Z</time></trkpt><trkpt lat="45.79207677773492" lon="9.098436396223399"><ele>305.0</ele><time>2026-04-25T07:53:04.999Z</time></trkpt><trkpt lat="45.79198311197014" lon="9.098301658715814"><ele>305.0</ele><time>2026-04-25T07:53:05.999Z</time></trkpt><trkpt lat="45.79190847514426" lon="9.09811943875196"><ele>306.0</ele><time>2026-04-25T07:53:06.999Z</time></trkpt><trkpt lat="45.79185444609223" lon="9.097905887172159"><ele>307.0</ele><time>2026-04-25T07:53:07.999Z</time></trkpt><trkpt lat="45.79180147452628" lon="9.097705613324852"><ele>308.0</ele><time>2026-04-25T07:53:08.999Z</time></trkpt><trkpt lat="45.79172646200827" lon="9.097523685132488"><ele>304.0</ele><time>2026-04-25T07:53:09.999Z</time></trkpt><trkpt lat="45.791635581610116" lon="9.097370302008404"><ele>300.0</ele><time>2026-04-25T07:53:10.999Z</time></trkpt><trkpt lat="45.79152943324996" lon="9.097239243735846"><ele>296.0</ele><time>2026-04-25T07:53:11.999Z</time></trkpt><trkpt lat="45.79141876567925" lon="9.0971261961599"><ele>292.0</ele><time>2026-04-25T07:53:12.999Z</time></trkpt><trkpt lat="45.791302196044775" lon="9.097047850928112"><ele>292.0</ele><time>2026-04-25T07:53:13.999Z</time></trkpt><trkpt lat="45.791178140275285" lon="9.097013306916212"><ele>292.0</ele><time>2026-04-25T07:53:14.999Z</time></trkpt><trkpt lat="45.79105561636312" lon="9.096997898940486"><ele>292.0</ele><time>2026-04-25T07:53:15.999Z</time></trkpt><trkpt lat="45.790922749788116" lon="9.096970050561394"><ele>292.0</ele><time>2026-04-25T07:53:16.999Z</time></trkpt><trkpt lat="45.79080048490413" lon="9.096903218796326"><ele>291.25</ele><time>2026-04-25T07:53:17.999Z</time></trkpt><trkpt lat="45.79069848207143" lon="9.096799816474656"><ele>290.5</ele><time>2026-04-25T07:53:18.999Z</time></trkpt><trkpt lat="45.79061719018511" lon="9.096655689503994"><ele>289.75</ele><time>2026-04-25T07:53:19.999Z</time></trkpt><trkpt lat="45.790552447929734" lon="9.096495052117731"><ele>289.0</ele><time>2026-04-25T07:53:20.999Z</time></trkpt><trkpt lat="45.790508706161276" lon="9.09630268436495"><ele>289.0</ele><time>2026-04-25T07:53:21.999Z</time></trkpt><trkpt lat="45.790483640283384" lon="9.096093816291527"><ele>289.0</ele><time>2026-04-25T07:53:22.999Z</time></trkpt><trkpt lat="45.79046527419763" lon="9.095893026389387"><ele>289.0</ele><time>2026-04-25T07:53:23.999Z</time></trkpt><trkpt lat="45.790435918725876" lon="9.095699752809525"><ele>289.0</ele><time>2026-04-25T07:53:24.999Z</time></trkpt><trkpt lat="45.79040836997919" lon="9.095537343076993"><ele>287.4</ele><time>2026-04-25T07:53:25.999Z</time></trkpt><trkpt lat="45.790375846505874" lon="9.095398766288083"><ele>285.79999999999995</ele><time>2026-04-25T07:53:26.999Z</time></trkpt><trkpt lat="45.79033602293616" lon="9.095280121156375"><ele>284.20000000000005</ele><time>2026-04-25T07:53:27.999Z</time></trkpt><trkpt lat="45.79031195659181" lon="9.095167358625888"><ele>282.6</ele><time>2026-04-25T07:53:28.999Z</time></trkpt><trkpt lat="45.79026370374472" lon="9.095038061607907"><ele>281.0</ele><time>2026-04-25T07:53:29.999Z</time></trkpt><trkpt lat="45.79019797431532" lon="9.09490982001122"><ele>281.40000000000003</ele><time>2026-04-25T07:53:30.999Z</time></trkpt><trkpt lat="45.790130049560865" lon="9.094794200850695"><ele>281.8</ele><time>2026-04-25T07:53:31.999Z</time></trkpt><trkpt lat="45.79006964491533" lon="9.094684761272706"><ele>282.20000000000005</ele><time>2026-04-25T07:53:32.999Z</time></trkpt><trkpt lat="45.79000165348724" lon="9.0945722156564"><ele>282.6</ele><time>2026-04-25T07:53:33.999Z</time></trkpt><trkpt lat="45.78994084290273" lon="9.09447364165286"><ele>283.0</ele><time>2026-04-25T07:53:34.999Z</time></trkpt><trkpt lat="45.78987624022282" lon="9.094371455016752"><ele>283.0</ele><time>2026-04-25T07:53:35.999Z</time></trkpt><trkpt lat="45.78981766336747" lon="9.094278659787236"><ele>283.0</ele><time>2026-04-25T07:53:36.999Z</time></trkpt><trkpt lat="45.789772396390795" lon="9.094200237738649"><ele>283.0</ele><time>2026-04-25T07:53:37.999Z</time></trkpt><trkpt lat="45.789692803460305" lon="9.094067070991896"><ele>283.0</ele><time>2026-04-25T07:53:39.999Z</time></trkpt><trkpt lat="45.78960308071197" lon="9.093935166127128"><ele>283.0</ele><time>2026-04-25T07:53:41.999Z</time></trkpt><trkpt lat="45.78954788700681" lon="9.093866959782954"><ele>283.2</ele><time>2026-04-25T07:53:42.999Z</time></trkpt><trkpt lat="45.78949725996674" lon="9.093806374325764"><ele>283.4</ele><time>2026-04-25T07:53:43.999Z</time></trkpt><trkpt lat="45.78941355993704" lon="9.093684689459474"><ele>283.59999999999997</ele><time>2026-04-25T07:53:45.999Z</time></trkpt><trkpt lat="45.78933526073661" lon="9.093558180885754"><ele>283.8</ele><time>2026-04-25T07:53:47.999Z</time></trkpt><trkpt lat="45.789287555746384" lon="9.093478589242904"><ele>284.0</ele><time>2026-04-25T07:53:48.999Z</time></trkpt><trkpt lat="45.78923331834265" lon="9.09339942055701"><ele>284.0</ele><time>2026-04-25T07:53:49.999Z</time></trkpt><trkpt lat="45.78918311045681" lon="9.093320183111294"><ele>284.0</ele><time>2026-04-25T07:53:50.999Z</time></trkpt><trkpt lat="45.789131273026534" lon="9.09324270821492"><ele>284.0</ele><time>2026-04-25T07:53:51.999Z</time></trkpt><trkpt lat="45.789086774203994" lon="9.093169946044918"><ele>284.0</ele><time>2026-04-25T07:53:52.999Z</time></trkpt><trkpt lat="45.78903029703978" lon="9.093092169092543"><ele>284.0</ele><time>2026-04-25T07:53:53.999Z</time></trkpt><trkpt lat="45.78897332110576" lon="9.093005225729968"><ele>284.0</ele><time>2026-04-25T07:53:54.999Z</time></trkpt><trkpt lat="45.78892534809005" lon="9.09291766843772"><ele>282.6666666666667</ele><time>2026-04-25T07:53:55.999Z</time></trkpt><trkpt lat="45.78888743537034" lon="9.092824642972907"><ele>281.33333333333337</ele><time>2026-04-25T07:53:56.999Z</time></trkpt><trkpt lat="45.78885454094246" lon="9.092725979787417"><ele>280.0</ele><time>2026-04-25T07:53:57.999Z</time></trkpt><trkpt lat="45.78881085189563" lon="9.092626486990744"><ele>278.6666666666667</ele><time>2026-04-25T07:53:58.999Z</time></trkpt><trkpt lat="45.78876792022655" lon="9.092530972488657"><ele>277.3333333333333</ele><time>2026-04-25T07:53:59.999Z</time></trkpt><trkpt lat="45.788722264204004" lon="9.092437843077265"><ele>276.0</ele><time>2026-04-25T07:54:01Z</time></trkpt><trkpt lat="45.788676858108595" lon="9.092356237476007"><ele>274.3333333333333</ele><time>2026-04-25T07:54:01.998Z</time></trkpt><trkpt lat="45.788632564179096" lon="9.092279963907444"><ele>272.6666666666667</ele><time>2026-04-25T07:54:02.998Z</time></trkpt><trkpt lat="45.78859633800331" lon="9.092200958017505"><ele>271.0</ele><time>2026-04-25T07:54:03.998Z</time></trkpt><trkpt lat="45.78857608032546" lon="9.092097608043796"><ele>269.33333333333337</ele><time>2026-04-25T07:54:04.998Z</time></trkpt><trkpt lat="45.78858169906302" lon="9.091976121214008"><ele>267.6666666666667</ele><time>2026-04-25T07:54:05.998Z</time></trkpt><trkpt lat="45.788583518318745" lon="9.091847937508367"><ele>266.0</ele><time>2026-04-25T07:54:06.998Z</time></trkpt><trkpt lat="45.7885515502984" lon="9.091716577090985"><ele>263.5</ele><time>2026-04-25T07:54:07.998Z</time></trkpt><trkpt lat="45.78851750203401" lon="9.091570555800576"><ele>261.0</ele><time>2026-04-25T07:54:08.998Z</time></trkpt><trkpt lat="45.78851005700631" lon="9.091402018020489"><ele>258.5</ele><time>2026-04-25T07:54:09.998Z</time></trkpt><trkpt lat="45.78851651735111" lon="9.09122054736609"><ele>256.0</ele><time>2026-04-25T07:54:10.998Z</time></trkpt><trkpt lat="45.78851962101008" lon="9.091026884592672"><ele>256.0</ele><time>2026-04-25T07:54:11.998Z</time></trkpt><trkpt lat="45.788520135884006" lon="9.090824447322593"><ele>256.0</ele><time>2026-04-25T07:54:12.998Z</time></trkpt><trkpt lat="45.78852260961191" lon="9.090604201535449"><ele>256.0</ele><time>2026-04-25T07:54:13.998Z</time></trkpt><trkpt lat="45.78852561660741" lon="9.09037783629407"><ele>257.0</ele><time>2026-04-25T07:54:14.998Z</time></trkpt><trkpt lat="45.788526621953" lon="9.09014304970008"><ele>258.0</ele><time>2026-04-25T07:54:15.998Z</time></trkpt><trkpt lat="45.788543381201045" lon="9.089866790021686"><ele>259.0</ele><time>2026-04-25T07:54:16.998Z</time></trkpt><trkpt lat="45.788520571613304" lon="9.089602589736591"><ele>260.0</ele><time>2026-04-25T07:54:17.998Z</time></trkpt><trkpt lat="45.788491544521705" lon="9.089358679959814"><ele>261.0</ele><time>2026-04-25T07:54:18.998Z</time></trkpt><trkpt lat="45.788449977999655" lon="9.089131561273929"><ele>262.0</ele><time>2026-04-25T07:54:19.998Z</time></trkpt><trkpt lat="45.78840261115151" lon="9.088913271140596"><ele>262.5</ele><time>2026-04-25T07:54:20.998Z</time></trkpt><trkpt lat="45.78835557577685" lon="9.088697835236886"><ele>263.0</ele><time>2026-04-25T07:54:21.998Z</time></trkpt><trkpt lat="45.78830902452253" lon="9.08849332710297"><ele>263.5</ele><time>2026-04-25T07:54:22.998Z</time></trkpt><trkpt lat="45.78826656730691" lon="9.08830234173446"><ele>264.0</ele><time>2026-04-25T07:54:23.998Z</time></trkpt><trkpt lat="45.78822357948711" lon="9.088113282633127"><ele>266.0</ele><time>2026-04-25T07:54:24.998Z</time></trkpt><trkpt lat="45.78818276733343" lon="9.087926810890536"><ele>268.0</ele><time>2026-04-25T07:54:25.998Z</time></trkpt><trkpt lat="45.78814048133964" lon="9.08773759545325"><ele>270.0</ele><time>2026-04-25T07:54:26.998Z</time></trkpt><trkpt lat="45.78809985760733" lon="9.087558887636558"><ele>272.0</ele><time>2026-04-25T07:54:27.998Z</time></trkpt><trkpt lat="45.78805241281529" lon="9.087377705906826"><ele>273.25</ele><time>2026-04-25T07:54:28.998Z</time></trkpt><trkpt lat="45.788000571031255" lon="9.087186202050633"><ele>274.5</ele><time>2026-04-25T07:54:29.998Z</time></trkpt><trkpt lat="45.787948357927576" lon="9.087001296970184"><ele>275.75</ele><time>2026-04-25T07:54:30.998Z</time></trkpt><trkpt lat="45.787893859874174" lon="9.086824864518011"><ele>277.0</ele><time>2026-04-25T07:54:31.998Z</time></trkpt><trkpt lat="45.787836034914136" lon="9.086643744041815"><ele>278.5</ele><time>2026-04-25T07:54:32.998Z</time></trkpt><trkpt lat="45.78778249748817" lon="9.086461142006952"><ele>280.0</ele><time>2026-04-25T07:54:33.998Z</time></trkpt><trkpt lat="45.78773556455731" lon="9.08628749585467"><ele>281.5</ele><time>2026-04-25T07:54:34.998Z</time></trkpt><trkpt lat="45.7876864233791" lon="9.08611138300715"><ele>283.0</ele><time>2026-04-25T07:54:35.998Z</time></trkpt><trkpt lat="45.787637115256466" lon="9.085932776480652"><ele>281.0</ele><time>2026-04-25T07:54:36.998Z</time></trkpt><trkpt lat="45.787585731783345" lon="9.085738294083468"><ele>279.0</ele><time>2026-04-25T07:54:37.998Z</time></trkpt><trkpt lat="45.78753763607731" lon="9.08553630239058"><ele>277.0</ele><time>2026-04-25T07:54:38.998Z</time></trkpt><trkpt lat="45.78748914786769" lon="9.085338311172245"><ele>275.0</ele><time>2026-04-25T07:54:39.998Z</time></trkpt><trkpt lat="45.787472280376264" lon="9.085133624165048"><ele>276.5</ele><time>2026-04-25T07:54:40.998Z</time></trkpt><trkpt lat="45.78742103930272" lon="9.084924631782988"><ele>278.0</ele><time>2026-04-25T07:54:41.998Z</time></trkpt><trkpt lat="45.787351707149135" lon="9.084744058291832"><ele>279.5</ele><time>2026-04-25T07:54:42.998Z</time></trkpt><trkpt lat="45.78729132779478" lon="9.084573101166379"><ele>281.0</ele><time>2026-04-25T07:54:43.998Z</time></trkpt><trkpt lat="45.787219328887296" lon="9.08443871905722"><ele>281.0</ele><time>2026-04-25T07:54:44.998Z</time></trkpt><trkpt lat="45.787149968674576" lon="9.084321986813299"><ele>281.0</ele><time>2026-04-25T07:54:45.998Z</time></trkpt><trkpt lat="45.78708989949184" lon="9.084221493851516"><ele>281.0</ele><time>2026-04-25T07:54:46.998Z</time></trkpt><trkpt lat="45.787046703173644" lon="9.084144942279648"><ele>281.0</ele><time>2026-04-25T07:54:47.998Z</time></trkpt><trkpt lat="45.78699872885693" lon="9.084021934695317"><ele>281.0</ele><time>2026-04-25T07:54:49.998Z</time></trkpt><trkpt lat="45.787030732351454" lon="9.083893628995394"><ele>281.6</ele><time>2026-04-25T07:54:51.998Z</time></trkpt><trkpt lat="45.787109576903234" lon="9.083795813702425"><ele>282.20000000000005</ele><time>2026-04-25T07:54:53.998Z</time></trkpt><trkpt lat="45.78717913355242" lon="9.08377590610064"><ele>282.79999999999995</ele><time>2026-04-25T07:54:56.998Z</time></trkpt><trkpt lat="45.78729070520999" lon="9.083771645755954"><ele>283.4</ele><time>2026-04-25T07:55:00.998Z</time></trkpt><trkpt lat="45.78737833651144" lon="9.083805988621997"><ele>284.0</ele><time>2026-04-25T07:55:02.998Z</time></trkpt><trkpt lat="45.78745718426725" lon="9.083849988701338"><ele>284.0</ele><time>2026-04-25T07:55:04.998Z</time></trkpt><trkpt lat="45.78755160348792" lon="9.083891568603875"><ele>284.0</ele><time>2026-04-25T07:55:06.998Z</time></trkpt><trkpt lat="45.78763966119059" lon="9.083891745370797"><ele>284.0</ele><time>2026-04-25T07:55:07.998Z</time></trkpt><trkpt lat="45.787736892419225" lon="9.083904768411902"><ele>284.0</ele><time>2026-04-25T07:55:08.998Z</time></trkpt><trkpt lat="45.78785671805405" lon="9.083923466489"><ele>284.0</ele><time>2026-04-25T07:55:09.998Z</time></trkpt><trkpt lat="45.78798434778282" lon="9.083959188419742"><ele>284.25</ele><time>2026-04-25T07:55:10.998Z</time></trkpt><trkpt lat="45.78811995476933" lon="9.08400565065384"><ele>284.5</ele><time>2026-04-25T07:55:11.998Z</time></trkpt><trkpt lat="45.78825768538736" lon="9.084042960785899"><ele>284.75</ele><time>2026-04-25T07:55:12.998Z</time></trkpt><trkpt lat="45.78837648296353" lon="9.084078932699166"><ele>285.0</ele><time>2026-04-25T07:55:13.998Z</time></trkpt><trkpt lat="45.78850072393692" lon="9.084107462491136"><ele>285.6</ele><time>2026-04-25T07:55:14.998Z</time></trkpt><trkpt lat="45.788618560295525" lon="9.084130449055902"><ele>286.2</ele><time>2026-04-25T07:55:15.998Z</time></trkpt><trkpt lat="45.78872930259972" lon="9.084156927322002"><ele>286.8</ele><time>2026-04-25T07:55:16.998Z</time></trkpt><trkpt lat="45.78883048526897" lon="9.084183808122349"><ele>287.4</ele><time>2026-04-25T07:55:17.998Z</time></trkpt><trkpt lat="45.788925735679285" lon="9.084222455404193"><ele>288.0</ele><time>2026-04-25T07:55:18.998Z</time></trkpt><trkpt lat="45.78902472004271" lon="9.084275512302211"><ele>288.0</ele><time>2026-04-25T07:55:19.998Z</time></trkpt><trkpt lat="45.789121144266765" lon="9.084297943614171"><ele>288.0</ele><time>2026-04-25T07:55:20.998Z</time></trkpt><trkpt lat="45.78921585959651" lon="9.084326045300626"><ele>288.0</ele><time>2026-04-25T07:55:21.998Z</time></trkpt><trkpt lat="45.78931063109521" lon="9.0843553441757"><ele>288.0</ele><time>2026-04-25T07:55:22.998Z</time></trkpt><trkpt lat="45.78940320600627" lon="9.084380096111849"><ele>288.0</ele><time>2026-04-25T07:55:23.998Z</time></trkpt><trkpt lat="45.78948994957533" lon="9.084410315032708"><ele>287.8333333333333</ele><time>2026-04-25T07:55:24.998Z</time></trkpt><trkpt lat="45.789573209406335" lon="9.084430815160804"><ele>287.6666666666667</ele><time>2026-04-25T07:55:25.998Z</time></trkpt><trkpt lat="45.78964574680638" lon="9.084452543367519"><ele>287.5</ele><time>2026-04-25T07:55:26.999Z</time></trkpt><trkpt lat="45.789707576575594" lon="9.08447091873366"><ele>287.33333333333337</ele><time>2026-04-25T07:55:27.999Z</time></trkpt><trkpt lat="45.78980252948005" lon="9.084484104478504"><ele>287.1666666666667</ele><time>2026-04-25T07:55:29.999Z</time></trkpt><trkpt lat="45.789874768820226" lon="9.084474251838122"><ele>287.0</ele><time>2026-04-25T07:55:33.999Z</time></trkpt><trkpt lat="45.78994162028425" lon="9.08450093984365"><ele>287.0</ele><time>2026-04-25T07:56:49.998Z</time></trkpt><trkpt lat="45.790068613833554" lon="9.084555948382203"><ele>287.0</ele><time>2026-04-25T07:56:51.998Z</time></trkpt><trkpt lat="45.79014678385587" lon="9.084589647711875"><ele>287.0</ele><time>2026-04-25T07:56:52.998Z</time></trkpt><trkpt lat="45.79022112428074" lon="9.084619710580048"><ele>287.0</ele><time>2026-04-25T07:56:53.998Z</time></trkpt><trkpt lat="45.79029057393273" lon="9.084642877853288"><ele>287.0</ele><time>2026-04-25T07:56:54.998Z</time></trkpt><trkpt lat="45.79035865661635" lon="9.084662973418576"><ele>287.0</ele><time>2026-04-25T07:56:55.998Z</time></trkpt><trkpt lat="45.790427120959436" lon="9.084649678147736"><ele>287.4</ele><time>2026-04-25T07:56:56.998Z</time></trkpt><trkpt lat="45.790487030676516" lon="9.08458974441105"><ele>287.79999999999995</ele><time>2026-04-25T07:56:57.998Z</time></trkpt><trkpt lat="45.790581712946704" lon="9.08448025188157"><ele>288.2</ele><time>2026-04-25T07:56:58.998Z</time></trkpt><trkpt lat="45.79061738247995" lon="9.084328772639084"><ele>288.59999999999997</ele><time>2026-04-25T07:56:59.998Z</time></trkpt><trkpt lat="45.7906543380507" lon="9.084179746211573"><ele>289.0</ele><time>2026-04-25T07:57:00.998Z</time></trkpt><trkpt lat="45.790708661850125" lon="9.084038829892796"><ele>289.2</ele><time>2026-04-25T07:57:01.998Z</time></trkpt><trkpt lat="45.79075544002347" lon="9.083899058380746"><ele>289.4</ele><time>2026-04-25T07:57:02.998Z</time></trkpt><trkpt lat="45.79078919619567" lon="9.083766234038308"><ele>289.6</ele><time>2026-04-25T07:57:03.998Z</time></trkpt><trkpt lat="45.79081806236742" lon="9.083629475037325"><ele>289.8</ele><time>2026-04-25T07:57:04.998Z</time></trkpt><trkpt lat="45.79086465746814" lon="9.083496914680593"><ele>290.0</ele><time>2026-04-25T07:57:05.998Z</time></trkpt><trkpt lat="45.79087728449382" lon="9.08334014395216"><ele>289.75</ele><time>2026-04-25T07:57:06.998Z</time></trkpt><trkpt lat="45.79089478711831" lon="9.083160252891265"><ele>289.5</ele><time>2026-04-25T07:57:07.998Z</time></trkpt><trkpt lat="45.790910760630034" lon="9.082972682325423"><ele>289.25</ele><time>2026-04-25T07:57:08.998Z</time></trkpt><trkpt lat="45.7909227139226" lon="9.082799612468072"><ele>289.0</ele><time>2026-04-25T07:57:09.998Z</time></trkpt><trkpt lat="45.79092996217198" lon="9.08264434345453"><ele>289.0</ele><time>2026-04-25T07:57:10.998Z</time></trkpt><trkpt lat="45.79093448371157" lon="9.082499370319177"><ele>289.0</ele><time>2026-04-25T07:57:11.998Z</time></trkpt><trkpt lat="45.790944303676525" lon="9.082367444552185"><ele>289.0</ele><time>2026-04-25T07:57:12.998Z</time></trkpt><trkpt lat="45.79095242091454" lon="9.082246758334515"><ele>289.0</ele><time>2026-04-25T07:57:13.998Z</time></trkpt><trkpt lat="45.79096210343998" lon="9.082135545608413"><ele>289.0</ele><time>2026-04-25T07:57:14.998Z</time></trkpt><trkpt lat="45.79097240910543" lon="9.082014904144557"><ele>289.0</ele><time>2026-04-25T07:57:15.998Z</time></trkpt><trkpt lat="45.79098182677812" lon="9.081904627443699"><ele>289.42857142857144</ele><time>2026-04-25T07:57:16.998Z</time></trkpt><trkpt lat="45.79099002457984" lon="9.081795166619054"><ele>289.85714285714283</ele><time>2026-04-25T07:57:17.998Z</time></trkpt><trkpt lat="45.7909946619526" lon="9.081685079434916"><ele>290.2857142857143</ele><time>2026-04-25T07:57:18.998Z</time></trkpt><trkpt lat="45.79099624575358" lon="9.081579002885723"><ele>290.7142857142857</ele><time>2026-04-25T07:57:19.998Z</time></trkpt><trkpt lat="45.79099716983749" lon="9.081477964130098"><ele>291.14285714285717</ele><time>2026-04-25T07:57:20.998Z</time></trkpt><trkpt lat="45.79100261125831" lon="9.081381663684661"><ele>291.57142857142856</ele><time>2026-04-25T07:57:21.998Z</time></trkpt><trkpt lat="45.79100776478395" lon="9.081290441514456"><ele>292.0</ele><time>2026-04-25T07:57:22.998Z</time></trkpt><trkpt lat="45.79101850791696" lon="9.081134447920617"><ele>295.16666666666663</ele><time>2026-04-25T07:57:24.998Z</time></trkpt><trkpt lat="45.79102359655499" lon="9.08098107215522"><ele>298.3333333333333</ele><time>2026-04-25T07:57:26.998Z</time></trkpt><trkpt lat="45.791032160086694" lon="9.080810424920225"><ele>301.5</ele><time>2026-04-25T07:57:28.998Z</time></trkpt><trkpt lat="45.79103825993107" lon="9.08071541653117"><ele>304.6666666666667</ele><time>2026-04-25T07:57:29.998Z</time></trkpt><trkpt lat="45.79105490748248" lon="9.080622430596245"><ele>307.83333333333337</ele><time>2026-04-25T07:57:30.999Z</time></trkpt><trkpt lat="45.7910627879766" lon="9.08050747607469"><ele>311.0</ele><time>2026-04-25T07:57:31.999Z</time></trkpt><trkpt lat="45.79105709878785" lon="9.080368373133176"><ele>311.0</ele><time>2026-04-25T07:57:32.999Z</time></trkpt><trkpt lat="45.79106892610957" lon="9.080221183944643"><ele>311.0</ele><time>2026-04-25T07:57:33.999Z</time></trkpt><trkpt lat="45.791079498510484" lon="9.080081739989032"><ele>311.0</ele><time>2026-04-25T07:57:34.999Z</time></trkpt><trkpt lat="45.79108959884269" lon="9.079941951616098"><ele>311.0</ele><time>2026-04-25T07:57:35.999Z</time></trkpt><trkpt lat="45.79113218352279" lon="9.079803663413879"><ele>311.0</ele><time>2026-04-25T07:57:36.999Z</time></trkpt><trkpt lat="45.791141325812504" lon="9.07965752235158"><ele>310.2</ele><time>2026-04-25T07:57:37.999Z</time></trkpt><trkpt lat="45.79114878098631" lon="9.079514548960983"><ele>309.40000000000003</ele><time>2026-04-25T07:57:38.999Z</time></trkpt><trkpt lat="45.79115748393215" lon="9.079376786030855"><ele>308.6</ele><time>2026-04-25T07:57:39.999Z</time></trkpt><trkpt lat="45.79116362211025" lon="9.079243989415414"><ele>307.8</ele><time>2026-04-25T07:57:40.999Z</time></trkpt><trkpt lat="45.791168830885915" lon="9.079114760780143"><ele>307.0</ele><time>2026-04-25T07:57:41.999Z</time></trkpt><trkpt lat="45.79117576704903" lon="9.078986094482673"><ele>306.4</ele><time>2026-04-25T07:57:42.999Z</time></trkpt><trkpt lat="45.79117847550549" lon="9.078856106315085"><ele>305.79999999999995</ele><time>2026-04-25T07:57:43.999Z</time></trkpt><trkpt lat="45.791180893665235" lon="9.078722182731953"><ele>305.2</ele><time>2026-04-25T07:57:44.999Z</time></trkpt><trkpt lat="45.79118984532851" lon="9.078588993651122"><ele>304.59999999999997</ele><time>2026-04-25T07:57:45.999Z</time></trkpt><trkpt lat="45.791200244261674" lon="9.07845269273629"><ele>304.0</ele><time>2026-04-25T07:57:46.999Z</time></trkpt><trkpt lat="45.79120228949856" lon="9.0783177608812"><ele>304.66666666666663</ele><time>2026-04-25T07:57:47.999Z</time></trkpt><trkpt lat="45.7912081112257" lon="9.07819556821993"><ele>305.3333333333333</ele><time>2026-04-25T07:57:48.999Z</time></trkpt><trkpt lat="45.791213102918086" lon="9.078079165486335"><ele>306.0</ele><time>2026-04-25T07:57:49.999Z</time></trkpt><trkpt lat="45.791214581831944" lon="9.07795658556423"><ele>306.6666666666667</ele><time>2026-04-25T07:57:50.999Z</time></trkpt><trkpt lat="45.79121762680651" lon="9.077834254832984"><ele>307.33333333333337</ele><time>2026-04-25T07:57:51.999Z</time></trkpt><trkpt lat="45.791253149029" lon="9.077714735800324"><ele>308.0</ele><time>2026-04-25T07:57:52.999Z</time></trkpt><trkpt lat="45.79126057689096" lon="9.077592671924299"><ele>308.0</ele><time>2026-04-25T07:57:53.999Z</time></trkpt><trkpt lat="45.7912685959529" lon="9.077465917199225"><ele>308.0</ele><time>2026-04-25T07:57:54.999Z</time></trkpt><trkpt lat="45.79127312805801" lon="9.077331468134831"><ele>308.0</ele><time>2026-04-25T07:57:55.999Z</time></trkpt><trkpt lat="45.79128010072441" lon="9.077196065871"><ele>308.0</ele><time>2026-04-25T07:57:56.999Z</time></trkpt><trkpt lat="45.791291411414946" lon="9.077058385121138"><ele>308.0</ele><time>2026-04-25T07:57:57.999Z</time></trkpt><trkpt lat="45.79130013500372" lon="9.076920911236346"><ele>308.4</ele><time>2026-04-25T07:57:58.999Z</time></trkpt><trkpt lat="45.79130902346099" lon="9.076783620993014"><ele>308.8</ele><time>2026-04-25T07:57:59.999Z</time></trkpt><trkpt lat="45.791314388807855" lon="9.076647561375626"><ele>309.2</ele><time>2026-04-25T07:58:00.999Z</time></trkpt><trkpt lat="45.791317098066976" lon="9.076511636211631"><ele>309.6</ele><time>2026-04-25T07:58:01.999Z</time></trkpt><trkpt lat="45.79132651948298" lon="9.076377494986078"><ele>310.0</ele><time>2026-04-25T07:58:02.999Z</time></trkpt><trkpt lat="45.79133052990088" lon="9.076240546654704"><ele>310.0</ele><time>2026-04-25T07:58:03.999Z</time></trkpt><trkpt lat="45.79133755810159" lon="9.076104378452094"><ele>310.0</ele><time>2026-04-25T07:58:04.999Z</time></trkpt><trkpt lat="45.791339773469424" lon="9.075976936416636"><ele>310.0</ele><time>2026-04-25T07:58:05.999Z</time></trkpt><trkpt lat="45.7913426345055" lon="9.075865493622326"><ele>310.0</ele><time>2026-04-25T07:58:06.999Z</time></trkpt><trkpt lat="45.791346095622636" lon="9.075749091760592"><ele>310.0</ele><time>2026-04-25T07:58:07.999Z</time></trkpt><trkpt lat="45.79135400427554" lon="9.075630668562077"><ele>310.0</ele><time>2026-04-25T07:58:08.999Z</time></trkpt><trkpt lat="45.79136067241533" lon="9.07550770336425"><ele>310.0</ele><time>2026-04-25T07:58:09.999Z</time></trkpt><trkpt lat="45.79136587546058" lon="9.075387173631372"><ele>310.0</ele><time>2026-04-25T07:58:10.999Z</time></trkpt><trkpt lat="45.79136871763106" lon="9.075265227498578"><ele>310.0</ele><time>2026-04-25T07:58:11.999Z</time></trkpt><trkpt lat="45.79136734742308" lon="9.075134712175124"><ele>310.0</ele><time>2026-04-25T07:58:12.999Z</time></trkpt><trkpt lat="45.79139762279212" lon="9.075023024391914"><ele>310.0</ele><time>2026-04-25T07:58:13.997Z</time></trkpt><trkpt lat="45.79140070439896" lon="9.074907351908946"><ele>310.0</ele><time>2026-04-25T07:58:14.997Z</time></trkpt><trkpt lat="45.79140028719106" lon="9.074794841646769"><ele>310.0</ele><time>2026-04-25T07:58:15.997Z</time></trkpt><trkpt lat="45.79140347379578" lon="9.074689203271715"><ele>310.0</ele><time>2026-04-25T07:58:16.998Z</time></trkpt><trkpt lat="45.791402255074644" lon="9.074583274369346"><ele>310.0</ele><time>2026-04-25T07:58:17.998Z</time></trkpt><trkpt lat="45.79139755649136" lon="9.074481346404221"><ele>310.0</ele><time>2026-04-25T07:58:18.998Z</time></trkpt><trkpt lat="45.79139271634026" lon="9.074370471299531"><ele>310.0</ele><time>2026-04-25T07:58:19.998Z</time></trkpt><trkpt lat="45.79139502819741" lon="9.074243554849701"><ele>310.0</ele><time>2026-04-25T07:58:20.998Z</time></trkpt><trkpt lat="45.79140428051432" lon="9.074110507667864"><ele>310.2</ele><time>2026-04-25T07:58:21.998Z</time></trkpt><trkpt lat="45.7914083441096" lon="9.073980646630188"><ele>310.4</ele><time>2026-04-25T07:58:22.997Z</time></trkpt><trkpt lat="45.79140296715451" lon="9.07384580894751"><ele>310.6</ele><time>2026-04-25T07:58:23.997Z</time></trkpt><trkpt lat="45.79139910248343" lon="9.073711540625155"><ele>310.8</ele><time>2026-04-25T07:58:24.997Z</time></trkpt><trkpt lat="45.791395838675406" lon="9.073573623913969"><ele>311.0</ele><time>2026-04-25T07:58:25.997Z</time></trkpt><trkpt lat="45.791418996024845" lon="9.073432534879666"><ele>311.0</ele><time>2026-04-25T07:58:26.998Z</time></trkpt><trkpt lat="45.7914211292479" lon="9.07328949492774"><ele>311.0</ele><time>2026-04-25T07:58:27.998Z</time></trkpt><trkpt lat="45.79142467166539" lon="9.073144782270568"><ele>311.0</ele><time>2026-04-25T07:58:28.998Z</time></trkpt><trkpt lat="45.79143362725573" lon="9.072998465655777"><ele>311.0</ele><time>2026-04-25T07:58:29.998Z</time></trkpt><trkpt lat="45.79144532536264" lon="9.072853019875334"><ele>311.0</ele><time>2026-04-25T07:58:30.998Z</time></trkpt><trkpt lat="45.79146412784198" lon="9.072708063403713"><ele>311.40000000000003</ele><time>2026-04-25T07:58:31.998Z</time></trkpt><trkpt lat="45.7914889540795" lon="9.07256306712042"><ele>311.8</ele><time>2026-04-25T07:58:32.998Z</time></trkpt><trkpt lat="45.79151311695216" lon="9.072409770114811"><ele>312.20000000000005</ele><time>2026-04-25T07:58:33.998Z</time></trkpt><trkpt lat="45.79153880529905" lon="9.072255793460492"><ele>312.6</ele><time>2026-04-25T07:58:34.998Z</time></trkpt><trkpt lat="45.79156401994354" lon="9.072100930652267"><ele>313.0</ele><time>2026-04-25T07:58:35.998Z</time></trkpt><trkpt lat="45.791591281926124" lon="9.071944372804131"><ele>313.0</ele><time>2026-04-25T07:58:36.998Z</time></trkpt><trkpt lat="45.7916203329634" lon="9.07177505331155"><ele>313.0</ele><time>2026-04-25T07:58:37.998Z</time></trkpt><trkpt lat="45.79164775324068" lon="9.071618218002518"><ele>313.0</ele><time>2026-04-25T07:58:38.998Z</time></trkpt><trkpt lat="45.79167591865901" lon="9.071450751298668"><ele>313.0</ele><time>2026-04-25T07:58:39.998Z</time></trkpt><trkpt lat="45.79170376425754" lon="9.071275067366527"><ele>313.5</ele><time>2026-04-25T07:58:40.998Z</time></trkpt><trkpt lat="45.7917312804522" lon="9.07109337701023"><ele>314.0</ele><time>2026-04-25T07:58:41.998Z</time></trkpt><trkpt lat="45.79176157999633" lon="9.070888434671526"><ele>314.5</ele><time>2026-04-25T07:58:42.998Z</time></trkpt><trkpt lat="45.79179386787568" lon="9.070667090965458"><ele>315.0</ele><time>2026-04-25T07:58:43.998Z</time></trkpt><trkpt lat="45.7918300135734" lon="9.070443219288038"><ele>317.3333333333333</ele><time>2026-04-25T07:58:44.998Z</time></trkpt><trkpt lat="45.791869868447705" lon="9.070220891369662"><ele>319.66666666666663</ele><time>2026-04-25T07:58:45.998Z</time></trkpt><trkpt lat="45.79190288681672" lon="9.070003427822126"><ele>322.0</ele><time>2026-04-25T07:58:46.998Z</time></trkpt><trkpt lat="45.79193554085693" lon="9.069795094548738"><ele>322.75</ele><time>2026-04-25T07:58:47.998Z</time></trkpt><trkpt lat="45.79196679392913" lon="9.069591942858086"><ele>323.5</ele><time>2026-04-25T07:58:48.998Z</time></trkpt><trkpt lat="45.79200185999478" lon="9.06938871016177"><ele>324.25</ele><time>2026-04-25T07:58:49.998Z</time></trkpt><trkpt lat="45.79203685594539" lon="9.06917773473672"><ele>325.0</ele><time>2026-04-25T07:58:50.998Z</time></trkpt><trkpt lat="45.79207038891569" lon="9.068960553944088"><ele>325.0</ele><time>2026-04-25T07:58:51.998Z</time></trkpt><trkpt lat="45.79210118186532" lon="9.06877130296413"><ele>325.0</ele><time>2026-04-25T07:58:52.998Z</time></trkpt><trkpt lat="45.79214551622846" lon="9.068593382257209"><ele>325.0</ele><time>2026-04-25T07:58:53.998Z</time></trkpt><trkpt lat="45.79215325633137" lon="9.068414459685334"><ele>325.0</ele><time>2026-04-25T07:58:54.998Z</time></trkpt><trkpt lat="45.792164596561086" lon="9.068246231737419"><ele>325.0</ele><time>2026-04-25T07:58:55.998Z</time></trkpt><trkpt lat="45.79216482788554" lon="9.068096540998972"><ele>325.0</ele><time>2026-04-25T07:58:56.998Z</time></trkpt><trkpt lat="45.79215498736797" lon="9.067959743091182"><ele>325.0</ele><time>2026-04-25T07:58:57.998Z</time></trkpt><trkpt lat="45.79215789644921" lon="9.067801701614453"><ele>325.0</ele><time>2026-04-25T07:58:58.998Z</time></trkpt><trkpt lat="45.7921318795054" lon="9.067617109310852"><ele>325.0</ele><time>2026-04-25T07:58:59.998Z</time></trkpt><trkpt lat="45.792088917966844" lon="9.067431085142207"><ele>325.0</ele><time>2026-04-25T07:59:00.998Z</time></trkpt><trkpt lat="45.792022197974845" lon="9.0672641034842"><ele>325.0</ele><time>2026-04-25T07:59:01.998Z</time></trkpt><trkpt lat="45.7919694831245" lon="9.067112289962633"><ele>325.0</ele><time>2026-04-25T07:59:02.998Z</time></trkpt><trkpt lat="45.79190950600507" lon="9.066972905039899"><ele>325.0</ele><time>2026-04-25T07:59:03.998Z</time></trkpt><trkpt lat="45.79184347937315" lon="9.06683242082146"><ele>324.6</ele><time>2026-04-25T07:59:04.998Z</time></trkpt><trkpt lat="45.79177263796598" lon="9.06670275999634"><ele>324.2</ele><time>2026-04-25T07:59:05.998Z</time></trkpt><trkpt lat="45.79170408114506" lon="9.066587075698209"><ele>323.79999999999995</ele><time>2026-04-25T07:59:06.998Z</time></trkpt><trkpt lat="45.7916409826065" lon="9.066492756066237"><ele>323.4</ele><time>2026-04-25T07:59:07.998Z</time></trkpt><trkpt lat="45.79158930781864" lon="9.066408143205397"><ele>323.0</ele><time>2026-04-25T07:59:08.998Z</time></trkpt><trkpt lat="45.79154328613778" lon="9.066333882502995"><ele>322.83333333333337</ele><time>2026-04-25T07:59:09.998Z</time></trkpt><trkpt lat="45.79148227327293" lon="9.066246128992834"><ele>322.6666666666667</ele><time>2026-04-25T07:59:11.998Z</time></trkpt><trkpt lat="45.79144723122968" lon="9.066170080617296"><ele>322.5</ele><time>2026-04-25T07:59:31.999Z</time></trkpt><trkpt lat="45.79138145089136" lon="9.066095836752208"><ele>322.3333333333333</ele><time>2026-04-25T07:59:33.999Z</time></trkpt><trkpt lat="45.79134956238663" lon="9.066012403913408"><ele>322.16666666666663</ele><time>2026-04-25T07:59:34.999Z</time></trkpt><trkpt lat="45.79129411843063" lon="9.065899268345376"><ele>322.0</ele><time>2026-04-25T07:59:35.999Z</time></trkpt><trkpt lat="45.79123008296964" lon="9.065777241074223"><ele>322.5</ele><time>2026-04-25T07:59:36.999Z</time></trkpt><trkpt lat="45.79114809817983" lon="9.065630166695586"><ele>323.0</ele><time>2026-04-25T07:59:37.999Z</time></trkpt><trkpt lat="45.79105835107288" lon="9.06548443150415"><ele>323.5</ele><time>2026-04-25T07:59:38.999Z</time></trkpt><trkpt lat="45.79096258116167" lon="9.065334068060087"><ele>324.0</ele><time>2026-04-25T07:59:39.999Z</time></trkpt><trkpt lat="45.79086307154577" lon="9.065182711897519"><ele>324.0</ele><time>2026-04-25T07:59:40.999Z</time></trkpt><trkpt lat="45.7907501011368" lon="9.065011681304627"><ele>324.0</ele><time>2026-04-25T07:59:41.999Z</time></trkpt><trkpt lat="45.790637140642666" lon="9.064838028029413"><ele>324.0</ele><time>2026-04-25T07:59:42.999Z</time></trkpt><trkpt lat="45.79053004024733" lon="9.064671035887983"><ele>324.0</ele><time>2026-04-25T07:59:43.999Z</time></trkpt><trkpt lat="45.79042612151052" lon="9.064510762767496"><ele>324.0</ele><time>2026-04-25T07:59:44.999Z</time></trkpt><trkpt lat="45.790326947395016" lon="9.064355948241486"><ele>324.0</ele><time>2026-04-25T07:59:45.999Z</time></trkpt><trkpt lat="45.79022892631295" lon="9.064205124280358"><ele>324.0</ele><time>2026-04-25T07:59:46.999Z</time></trkpt><trkpt lat="45.79013349037274" lon="9.064061132837146"><ele>322.75</ele><time>2026-04-25T07:59:47.999Z</time></trkpt><trkpt lat="45.790039899664926" lon="9.063925971553338"><ele>321.5</ele><time>2026-04-25T07:59:48.999Z</time></trkpt><trkpt lat="45.78994976824473" lon="9.063791836312614"><ele>320.25</ele><time>2026-04-25T07:59:49.999Z</time></trkpt><trkpt lat="45.78986123860002" lon="9.063652652041332"><ele>319.0</ele><time>2026-04-25T07:59:50.999Z</time></trkpt><trkpt lat="45.789771470804276" lon="9.06351879362787"><ele>319.0</ele><time>2026-04-25T07:59:51.999Z</time></trkpt><trkpt lat="45.789685831083474" lon="9.063384884144348"><ele>319.0</ele><time>2026-04-25T07:59:52.999Z</time></trkpt><trkpt lat="45.78959758505581" lon="9.063252834308642"><ele>319.0</ele><time>2026-04-25T07:59:53.999Z</time></trkpt><trkpt lat="45.78951152839645" lon="9.06312166401859"><ele>319.0</ele><time>2026-04-25T07:59:54.999Z</time></trkpt><trkpt lat="45.78941949560465" lon="9.062992713746118"><ele>319.25</ele><time>2026-04-25T07:59:55.999Z</time></trkpt><trkpt lat="45.789344773960025" lon="9.06284338762925"><ele>319.5</ele><time>2026-04-25T07:59:56.999Z</time></trkpt><trkpt lat="45.789247371072115" lon="9.06270981416803"><ele>319.75</ele><time>2026-04-25T07:59:57.999Z</time></trkpt><trkpt lat="45.78914746723001" lon="9.062575783006015"><ele>320.0</ele><time>2026-04-25T07:59:58.999Z</time></trkpt><trkpt lat="45.78904794561247" lon="9.062443859748148"><ele>320.5</ele><time>2026-04-25T07:59:59.999Z</time></trkpt><trkpt lat="45.788951099292596" lon="9.062308760038896"><ele>321.0</ele><time>2026-04-25T08:00:00.999Z</time></trkpt><trkpt lat="45.788854114875626" lon="9.06216933532878"><ele>321.5</ele><time>2026-04-25T08:00:01.999Z</time></trkpt><trkpt lat="45.78875936748912" lon="9.06202558817952"><ele>322.0</ele><time>2026-04-25T08:00:02.999Z</time></trkpt><trkpt lat="45.78866466953769" lon="9.06188284715183"><ele>322.0</ele><time>2026-04-25T08:00:03.999Z</time></trkpt><trkpt lat="45.788568887260205" lon="9.06173659242662"><ele>322.0</ele><time>2026-04-25T08:00:04.999Z</time></trkpt><trkpt lat="45.78847320490576" lon="9.061591154250474"><ele>322.0</ele><time>2026-04-25T08:00:05.999Z</time></trkpt><trkpt lat="45.78837783224269" lon="9.061443803604073"><ele>322.0</ele><time>2026-04-25T08:00:06.999Z</time></trkpt><trkpt lat="45.788285045757824" lon="9.0612949400055"><ele>320.75</ele><time>2026-04-25T08:00:07.999Z</time></trkpt><trkpt lat="45.788194274769204" lon="9.061139356041105"><ele>319.5</ele><time>2026-04-25T08:00:08.999Z</time></trkpt><trkpt lat="45.788109783080955" lon="9.060964245819777"><ele>318.25</ele><time>2026-04-25T08:00:09.999Z</time></trkpt><trkpt lat="45.78803706578663" lon="9.060766988274212"><ele>317.0</ele><time>2026-04-25T08:00:10.999Z</time></trkpt><trkpt lat="45.78797844304552" lon="9.060560669847156"><ele>316.75</ele><time>2026-04-25T08:00:11.999Z</time></trkpt><trkpt lat="45.78793731435838" lon="9.06035071166579"><ele>316.5</ele><time>2026-04-25T08:00:12.999Z</time></trkpt><trkpt lat="45.78791602877507" lon="9.060149644476436"><ele>316.25</ele><time>2026-04-25T08:00:13.999Z</time></trkpt><trkpt lat="45.78791377322597" lon="9.059957003657729"><ele>316.0</ele><time>2026-04-25T08:00:14.999Z</time></trkpt><trkpt lat="45.78792280203729" lon="9.059759336362228"><ele>316.75</ele><time>2026-04-25T08:00:15.999Z</time></trkpt><trkpt lat="45.78794473238482" lon="9.059575237711796"><ele>317.5</ele><time>2026-04-25T08:00:16.999Z</time></trkpt><trkpt lat="45.7879813049117" lon="9.059394868510353"><ele>318.25</ele><time>2026-04-25T08:00:17.999Z</time></trkpt><trkpt lat="45.788018231091705" lon="9.059212616168175"><ele>319.0</ele><time>2026-04-25T08:00:18.999Z</time></trkpt><trkpt lat="45.788053365608256" lon="9.059015565475669"><ele>319.0</ele><time>2026-04-25T08:00:19.997Z</time></trkpt><trkpt lat="45.788086028680006" lon="9.058811087592366"><ele>319.0</ele><time>2026-04-25T08:00:20.997Z</time></trkpt><trkpt lat="45.7881397437328" lon="9.058636402921557"><ele>319.0</ele><time>2026-04-25T08:00:21.997Z</time></trkpt><trkpt lat="45.7881566092034" lon="9.058463984383499"><ele>319.0</ele><time>2026-04-25T08:00:22.997Z</time></trkpt><trkpt lat="45.788165173371944" lon="9.05830191680699"><ele>318.4</ele><time>2026-04-25T08:00:23.997Z</time></trkpt><trkpt lat="45.78816901469138" lon="9.058152305775579"><ele>317.79999999999995</ele><time>2026-04-25T08:00:24.997Z</time></trkpt><trkpt lat="45.78816815889537" lon="9.05801648798863"><ele>317.20000000000005</ele><time>2026-04-25T08:00:25.997Z</time></trkpt><trkpt lat="45.78816723631844" lon="9.057892094741337"><ele>316.6</ele><time>2026-04-25T08:00:26.997Z</time></trkpt><trkpt lat="45.78816096913148" lon="9.057784249157388"><ele>316.0</ele><time>2026-04-25T08:00:27.997Z</time></trkpt><trkpt lat="45.788154705947285" lon="9.057630625355443"><ele>316.0</ele><time>2026-04-25T08:00:29.997Z</time></trkpt><trkpt lat="45.78814523205829" lon="9.057503037565048"><ele>316.0</ele><time>2026-04-25T08:00:31.998Z</time></trkpt><trkpt lat="45.78813508787223" lon="9.057398513899303"><ele>316.0</ele><time>2026-04-25T08:00:33.998Z</time></trkpt><trkpt lat="45.78812554095887" lon="9.057294887935111"><ele>316.0</ele><time>2026-04-25T08:00:35.998Z</time></trkpt><trkpt lat="45.78811848615382" lon="9.057185887675015"><ele>316.0</ele><time>2026-04-25T08:00:37.998Z</time></trkpt><trkpt lat="45.7881071564454" lon="9.057048319476111"><ele>316.0</ele><time>2026-04-25T08:00:39.998Z</time></trkpt><trkpt lat="45.78809646742414" lon="9.05689196607672"><ele>315.8</ele><time>2026-04-25T08:00:41.998Z</time></trkpt><trkpt lat="45.78808160434523" lon="9.056733972221553"><ele>315.6</ele><time>2026-04-25T08:00:43.998Z</time></trkpt><trkpt lat="45.78806983080255" lon="9.056566773159792"><ele>315.4</ele><time>2026-04-25T08:00:45.998Z</time></trkpt><trkpt lat="45.7880593417439" lon="9.056456956138161"><ele>315.2</ele><time>2026-04-25T08:00:46.998Z</time></trkpt><trkpt lat="45.788046562920336" lon="9.056313060785829"><ele>315.0</ele><time>2026-04-25T08:00:47.998Z</time></trkpt><trkpt lat="45.78803468543242" lon="9.056155283501267"><ele>315.8</ele><time>2026-04-25T08:00:48.998Z</time></trkpt><trkpt lat="45.788021336824855" lon="9.056003671007671"><ele>316.6</ele><time>2026-04-25T08:00:49.998Z</time></trkpt><trkpt lat="45.78800895364075" lon="9.05585689600052"><ele>317.4</ele><time>2026-04-25T08:00:50.998Z</time></trkpt><trkpt lat="45.78801529160332" lon="9.055697266939312"><ele>318.2</ele><time>2026-04-25T08:00:51.998Z</time></trkpt><trkpt lat="45.7880033659358" lon="9.055538527729333"><ele>319.0</ele><time>2026-04-25T08:00:52.998Z</time></trkpt><trkpt lat="45.78799224749749" lon="9.0553779131669"><ele>318.75</ele><time>2026-04-25T08:00:53.998Z</time></trkpt><trkpt lat="45.78797887194727" lon="9.055210494761365"><ele>318.5</ele><time>2026-04-25T08:00:54.998Z</time></trkpt><trkpt lat="45.78796648472066" lon="9.055043301044819"><ele>318.25</ele><time>2026-04-25T08:00:55.998Z</time></trkpt><trkpt lat="45.78795666787853" lon="9.054876160401413"><ele>318.0</ele><time>2026-04-25T08:00:56.998Z</time></trkpt><trkpt lat="45.7879451791076" lon="9.05469827870139"><ele>318.0</ele><time>2026-04-25T08:00:57.998Z</time></trkpt><trkpt lat="45.787932771331235" lon="9.054518435086248"><ele>318.0</ele><time>2026-04-25T08:00:58.998Z</time></trkpt><trkpt lat="45.787902424117775" lon="9.054148131472955"><ele>318.0</ele><time>2026-04-25T08:01:00.998Z</time></trkpt><trkpt lat="45.78788668727183" lon="9.053951985431917"><ele>318.0</ele><time>2026-04-25T08:01:01.998Z</time></trkpt><trkpt lat="45.78787246457179" lon="9.05375652401659"><ele>318.0</ele><time>2026-04-25T08:01:02.998Z</time></trkpt><trkpt lat="45.787851784589684" lon="9.053571420788431"><ele>318.0</ele><time>2026-04-25T08:01:03.998Z</time></trkpt><trkpt lat="45.78782582982944" lon="9.053383293023751"><ele>318.0</ele><time>2026-04-25T08:01:04.998Z</time></trkpt><trkpt lat="45.78779949943101" lon="9.053180627856943"><ele>318.0</ele><time>2026-04-25T08:01:05.998Z</time></trkpt><trkpt lat="45.78777607822071" lon="9.052938687541962"><ele>318.0</ele><time>2026-04-25T08:01:06.998Z</time></trkpt><trkpt lat="45.787761206090906" lon="9.052695190616772"><ele>318.0</ele><time>2026-04-25T08:01:07.998Z</time></trkpt><trkpt lat="45.78774370998924" lon="9.052444736632022"><ele>320.0</ele><time>2026-04-25T08:01:08.998Z</time></trkpt><trkpt lat="45.78772290235726" lon="9.052184344363635"><ele>322.0</ele><time>2026-04-25T08:01:09.998Z</time></trkpt><trkpt lat="45.78770369005325" lon="9.05192868258388"><ele>324.0</ele><time>2026-04-25T08:01:10.998Z</time></trkpt><trkpt lat="45.78768402102833" lon="9.051688001741796"><ele>322.3333333333333</ele><time>2026-04-25T08:01:11.998Z</time></trkpt><trkpt lat="45.787668156043615" lon="9.051463504114972"><ele>320.66666666666663</ele><time>2026-04-25T08:01:12.998Z</time></trkpt><trkpt lat="45.787652552519695" lon="9.051251706942033"><ele>319.0</ele><time>2026-04-25T08:01:13.998Z</time></trkpt><trkpt lat="45.787636972042385" lon="9.051044146716883"><ele>319.0</ele><time>2026-04-25T08:01:14.998Z</time></trkpt><trkpt lat="45.78761866800013" lon="9.050836656921444"><ele>319.0</ele><time>2026-04-25T08:01:15.998Z</time></trkpt><trkpt lat="45.78760256427343" lon="9.050644991716885"><ele>319.0</ele><time>2026-04-25T08:01:16.998Z</time></trkpt><trkpt lat="45.78758645273852" lon="9.05045574864354"><ele>319.0</ele><time>2026-04-25T08:01:17.998Z</time></trkpt><trkpt lat="45.787571413184274" lon="9.050274682362303"><ele>319.5</ele><time>2026-04-25T08:01:18.998Z</time></trkpt><trkpt lat="45.787556386737805" lon="9.050097763430758"><ele>320.0</ele><time>2026-04-25T08:01:19.998Z</time></trkpt><trkpt lat="45.78753942746995" lon="9.049919836794723"><ele>320.5</ele><time>2026-04-25T08:01:20.998Z</time></trkpt><trkpt lat="45.78752578838558" lon="9.049754195986225"><ele>321.0</ele><time>2026-04-25T08:01:21.998Z</time></trkpt><trkpt lat="45.7875146540081" lon="9.049585704695675"><ele>321.4</ele><time>2026-04-25T08:01:22.998Z</time></trkpt><trkpt lat="45.78750237962516" lon="9.049418263728818"><ele>321.8</ele><time>2026-04-25T08:01:23.998Z</time></trkpt><trkpt lat="45.78749461888361" lon="9.0492632497391"><ele>322.2</ele><time>2026-04-25T08:01:24.998Z</time></trkpt><trkpt lat="45.78748252257681" lon="9.049113068681578"><ele>322.59999999999997</ele><time>2026-04-25T08:01:25.998Z</time></trkpt><trkpt lat="45.78747875630686" lon="9.048980472438124"><ele>323.0</ele><time>2026-04-25T08:01:26.998Z</time></trkpt><trkpt lat="45.78748535310396" lon="9.048870044064847"><ele>322.0</ele><time>2026-04-25T08:01:27.998Z</time></trkpt><trkpt lat="45.78749424006298" lon="9.0487653798825"><ele>321.0</ele><time>2026-04-25T08:01:28.998Z</time></trkpt><trkpt lat="45.787517964859035" lon="9.048660077435846"><ele>320.0</ele><time>2026-04-25T08:01:29.998Z</time></trkpt><trkpt lat="45.787561822583605" lon="9.048549358499004"><ele>319.0</ele><time>2026-04-25T08:01:30.998Z</time></trkpt><trkpt lat="45.78761931584238" lon="9.048450181639058"><ele>318.0</ele><time>2026-04-25T08:01:31.998Z</time></trkpt><trkpt lat="45.78765834179329" lon="9.0483582701432"><ele>317.0</ele><time>2026-04-25T08:01:32.998Z</time></trkpt><trkpt lat="45.787662909455555" lon="9.048264555223266"><ele>316.6666666666667</ele><time>2026-04-25T08:01:33.998Z</time></trkpt><trkpt lat="45.787642263160755" lon="9.048171977079997"><ele>316.33333333333337</ele><time>2026-04-25T08:01:34.998Z</time></trkpt><trkpt lat="45.787603425804704" lon="9.048079712363615"><ele>316.0</ele><time>2026-04-25T08:01:35.998Z</time></trkpt><trkpt lat="45.78754319732168" lon="9.048006439964473"><ele>315.6666666666667</ele><time>2026-04-25T08:01:36.998Z</time></trkpt><trkpt lat="45.78748421497177" lon="9.047939323250196"><ele>315.3333333333333</ele><time>2026-04-25T08:01:37.998Z</time></trkpt><trkpt lat="45.787427098200425" lon="9.047859934053088"><ele>315.0</ele><time>2026-04-25T08:01:38.999Z</time></trkpt><trkpt lat="45.78738238335323" lon="9.047755520675826"><ele>315.0</ele><time>2026-04-25T08:01:39.999Z</time></trkpt><trkpt lat="45.787369042742554" lon="9.047599770897362"><ele>315.0</ele><time>2026-04-25T08:01:40.999Z</time></trkpt><trkpt lat="45.787353444818685" lon="9.047386868389928"><ele>315.0</ele><time>2026-04-25T08:01:41.999Z</time></trkpt><trkpt lat="45.787334359938804" lon="9.04712651352452"><ele>315.0</ele><time>2026-04-25T08:01:42.999Z</time></trkpt><trkpt lat="45.78730126675511" lon="9.04686505216447"><ele>314.6666666666667</ele><time>2026-04-25T08:01:43.999Z</time></trkpt><trkpt lat="45.78728686951516" lon="9.046617681569693"><ele>314.33333333333337</ele><time>2026-04-25T08:01:44.999Z</time></trkpt><trkpt lat="45.78726771328602" lon="9.046355082316506"><ele>314.0</ele><time>2026-04-25T08:01:45.999Z</time></trkpt><trkpt lat="45.78724893893977" lon="9.046099459414561"><ele>314.0</ele><time>2026-04-25T08:01:46.999Z</time></trkpt><trkpt lat="45.787227233096594" lon="9.045861645844239"><ele>314.0</ele><time>2026-04-25T08:01:47.999Z</time></trkpt><trkpt lat="45.78720926395902" lon="9.045632457906335"><ele>314.0</ele><time>2026-04-25T08:01:48.999Z</time></trkpt><trkpt lat="45.78719421291419" lon="9.045403870195106"><ele>315.0</ele><time>2026-04-25T08:01:49.999Z</time></trkpt><trkpt lat="45.787176146871346" lon="9.045170155337418"><ele>316.0</ele><time>2026-04-25T08:01:50.999Z</time></trkpt><trkpt lat="45.78715783506356" lon="9.044931866692139"><ele>317.0</ele><time>2026-04-25T08:01:51.999Z</time></trkpt><trkpt lat="45.78714154810206" lon="9.04469543561057"><ele>318.5</ele><time>2026-04-25T08:01:52.999Z</time></trkpt><trkpt lat="45.787128959367095" lon="9.04448085331359"><ele>320.0</ele><time>2026-04-25T08:01:53.999Z</time></trkpt><trkpt lat="45.78711497649703" lon="9.044273672804017"><ele>321.5</ele><time>2026-04-25T08:01:54.999Z</time></trkpt><trkpt lat="45.78710591246648" lon="9.044071396130525"><ele>323.0</ele><time>2026-04-25T08:01:55.999Z</time></trkpt><trkpt lat="45.787093768879146" lon="9.043886027657598"><ele>322.4</ele><time>2026-04-25T08:01:56.999Z</time></trkpt><trkpt lat="45.78706162343921" lon="9.043716742935091"><ele>321.79999999999995</ele><time>2026-04-25T08:01:57.999Z</time></trkpt><trkpt lat="45.787009393478264" lon="9.043570428659814"><ele>321.2</ele><time>2026-04-25T08:01:58.999Z</time></trkpt><trkpt lat="45.7869395311853" lon="9.04345515202259"><ele>320.6</ele><time>2026-04-25T08:01:59.999Z</time></trkpt><trkpt lat="45.78685566418832" lon="9.043379969072554"><ele>320.0</ele><time>2026-04-25T08:02:00.999Z</time></trkpt><trkpt lat="45.786767043125295" lon="9.043339633022818"><ele>320.0</ele><time>2026-04-25T08:02:01.999Z</time></trkpt><trkpt lat="45.78668184897537" lon="9.043312293522538"><ele>320.0</ele><time>2026-04-25T08:02:02.999Z</time></trkpt><trkpt lat="45.78659792344458" lon="9.043287516474113"><ele>320.0</ele><time>2026-04-25T08:02:03.999Z</time></trkpt><trkpt lat="45.78651524263993" lon="9.043254658813039"><ele>320.0</ele><time>2026-04-25T08:02:04.999Z</time></trkpt><trkpt lat="45.7864257526394" lon="9.04321694915009"><ele>320.0</ele><time>2026-04-25T08:02:05.999Z</time></trkpt><trkpt lat="45.786345057544615" lon="9.04317825363592"><ele>320.0</ele><time>2026-04-25T08:02:06.999Z</time></trkpt><trkpt lat="45.78626681608208" lon="9.043145392920287"><ele>320.0</ele><time>2026-04-25T08:02:07.999Z</time></trkpt><trkpt lat="45.78617617438277" lon="9.043108051850604"><ele>320.0</ele><time>2026-04-25T08:02:08.999Z</time></trkpt><trkpt lat="45.78606707000352" lon="9.043066858241852"><ele>320.0</ele><time>2026-04-25T08:02:09.999Z</time></trkpt><trkpt lat="45.785949380287775" lon="9.0430200801327"><ele>320.0</ele><time>2026-04-25T08:02:10.999Z</time></trkpt><trkpt lat="45.785833176491096" lon="9.042973547807351"><ele>319.4</ele><time>2026-04-25T08:02:11.999Z</time></trkpt><trkpt lat="45.78573133323798" lon="9.042892630802628"><ele>318.8</ele><time>2026-04-25T08:02:12.999Z</time></trkpt><trkpt lat="45.78561809403159" lon="9.042851083930358"><ele>318.2</ele><time>2026-04-25T08:02:13.999Z</time></trkpt><trkpt lat="45.78551492330537" lon="9.04280857124673"><ele>317.6</ele><time>2026-04-25T08:02:14.999Z</time></trkpt><trkpt lat="45.78541001841571" lon="9.042770227721"><ele>317.0</ele><time>2026-04-25T08:02:15.999Z</time></trkpt><trkpt lat="45.785297576484844" lon="9.04273015220839"><ele>317.0</ele><time>2026-04-25T08:02:16.999Z</time></trkpt><trkpt lat="45.785186006537096" lon="9.042689678907815"><ele>317.0</ele><time>2026-04-25T08:02:17.999Z</time></trkpt><trkpt lat="45.785075400599396" lon="9.042646148432318"><ele>317.0</ele><time>2026-04-25T08:02:18.999Z</time></trkpt><trkpt lat="45.7849675298153" lon="9.042603082691718"><ele>317.0</ele><time>2026-04-25T08:02:19.999Z</time></trkpt><trkpt lat="45.78486253008558" lon="9.042564273240547"><ele>316.8</ele><time>2026-04-25T08:02:20.999Z</time></trkpt><trkpt lat="45.784760270113956" lon="9.042521162058398"><ele>316.6</ele><time>2026-04-25T08:02:21.999Z</time></trkpt><trkpt lat="45.784659528969186" lon="9.042476704923486"><ele>316.40000000000003</ele><time>2026-04-25T08:02:22.999Z</time></trkpt><trkpt lat="45.78455456651562" lon="9.042437631211403"><ele>316.2</ele><time>2026-04-25T08:02:23.999Z</time></trkpt><trkpt lat="45.78443020758987" lon="9.042396199522743"><ele>316.0</ele><time>2026-04-25T08:02:24.999Z</time></trkpt><trkpt lat="45.78430134225453" lon="9.042346510109379"><ele>315.25</ele><time>2026-04-25T08:02:25.997Z</time></trkpt><trkpt lat="45.784175626696026" lon="9.042293358486798"><ele>314.5</ele><time>2026-04-25T08:02:26.997Z</time></trkpt><trkpt lat="45.784060469455994" lon="9.04224545876444"><ele>313.75</ele><time>2026-04-25T08:02:27.997Z</time></trkpt><trkpt lat="45.78395380068543" lon="9.04220163089036"><ele>313.0</ele><time>2026-04-25T08:02:28.997Z</time></trkpt><trkpt lat="45.783841987763914" lon="9.042157324136106"><ele>313.0</ele><time>2026-04-25T08:02:29.997Z</time></trkpt><trkpt lat="45.783727714644286" lon="9.04208601351731"><ele>313.0</ele><time>2026-04-25T08:02:30.997Z</time></trkpt><trkpt lat="45.78360988430089" lon="9.04203418539557"><ele>313.0</ele><time>2026-04-25T08:02:31.997Z</time></trkpt><trkpt lat="45.78349132515792" lon="9.041987066129046"><ele>313.0</ele><time>2026-04-25T08:02:32.996Z</time></trkpt><trkpt lat="45.78336756299635" lon="9.041938311987916"><ele>312.75</ele><time>2026-04-25T08:02:33.996Z</time></trkpt><trkpt lat="45.78324092675397" lon="9.041885769974865"><ele>312.5</ele><time>2026-04-25T08:02:34.997Z</time></trkpt><trkpt lat="45.78311133045753" lon="9.04183365803514"><ele>312.25</ele><time>2026-04-25T08:02:35.997Z</time></trkpt><trkpt lat="45.782981022207125" lon="9.041781533817216"><ele>312.0</ele><time>2026-04-25T08:02:36.997Z</time></trkpt><trkpt lat="45.78285485972732" lon="9.041729532683474"><ele>312.0</ele><time>2026-04-25T08:02:37.997Z</time></trkpt><trkpt lat="45.78273088917305" lon="9.041675269366378"><ele>312.0</ele><time>2026-04-25T08:02:38.997Z</time></trkpt><trkpt lat="45.78260335124322" lon="9.041624665023367"><ele>312.0</ele><time>2026-04-25T08:02:39.997Z</time></trkpt><trkpt lat="45.782472416038814" lon="9.04157321913009"><ele>312.0</ele><time>2026-04-25T08:02:40.997Z</time></trkpt><trkpt lat="45.782334653041815" lon="9.041517413459168"><ele>314.75</ele><time>2026-04-25T08:02:41.997Z</time></trkpt><trkpt lat="45.78220351991699" lon="9.041461435371394"><ele>317.5</ele><time>2026-04-25T08:02:42.997Z</time></trkpt><trkpt lat="45.78207195271938" lon="9.041407078213972"><ele>320.25</ele><time>2026-04-25T08:02:43.997Z</time></trkpt><trkpt lat="45.78193619359607" lon="9.041353936564782"><ele>323.0</ele><time>2026-04-25T08:02:44.997Z</time></trkpt><trkpt lat="45.78180255610785" lon="9.041305276219724"><ele>323.25</ele><time>2026-04-25T08:02:45.997Z</time></trkpt><trkpt lat="45.78167183841352" lon="9.041258697453411"><ele>323.5</ele><time>2026-04-25T08:02:46.997Z</time></trkpt><trkpt lat="45.7815409268898" lon="9.041207475751063"><ele>323.75</ele><time>2026-04-25T08:02:47.997Z</time></trkpt><trkpt lat="45.781410020503955" lon="9.04115308112395"><ele>324.0</ele><time>2026-04-25T08:02:48.997Z</time></trkpt><trkpt lat="45.781284745226394" lon="9.041064746255806"><ele>324.0</ele><time>2026-04-25T08:02:49.997Z</time></trkpt><trkpt lat="45.78114557134596" lon="9.04100309123532"><ele>324.0</ele><time>2026-04-25T08:02:50.997Z</time></trkpt><trkpt lat="45.781013078982205" lon="9.04093963478217"><ele>324.0</ele><time>2026-04-25T08:02:51.997Z</time></trkpt><trkpt lat="45.78089175020742" lon="9.040863313350567"><ele>324.0</ele><time>2026-04-25T08:02:52.997Z</time></trkpt><trkpt lat="45.78078112946582" lon="9.040777411977198"><ele>324.2</ele><time>2026-04-25T08:02:53.997Z</time></trkpt><trkpt lat="45.78068731039645" lon="9.04068051080036"><ele>324.4</ele><time>2026-04-25T08:02:54.997Z</time></trkpt><trkpt lat="45.78060924803209" lon="9.040582179224305"><ele>324.6</ele><time>2026-04-25T08:02:55.997Z</time></trkpt><trkpt lat="45.78054428493348" lon="9.0404824959375"><ele>324.8</ele><time>2026-04-25T08:02:56.997Z</time></trkpt><trkpt lat="45.78048241600353" lon="9.04037857331423"><ele>325.0</ele><time>2026-04-25T08:02:57.997Z</time></trkpt><trkpt lat="45.78042723831216" lon="9.040278958889436"><ele>325.0</ele><time>2026-04-25T08:02:58.997Z</time></trkpt><trkpt lat="45.78038146972261" lon="9.040179843926142"><ele>325.0</ele><time>2026-04-25T08:02:59.997Z</time></trkpt><trkpt lat="45.78033573323185" lon="9.040076750593705"><ele>325.0</ele><time>2026-04-25T08:03:00.997Z</time></trkpt><trkpt lat="45.780296497536554" lon="9.03997853542829"><ele>325.0</ele><time>2026-04-25T08:03:01.997Z</time></trkpt><trkpt lat="45.78026168898411" lon="9.039876159432378"><ele>325.0</ele><time>2026-04-25T08:03:02.997Z</time></trkpt><trkpt lat="45.780241208483716" lon="9.039738512771539"><ele>325.0</ele><time>2026-04-25T08:03:03.997Z</time></trkpt><trkpt lat="45.78022803516828" lon="9.039566871270111"><ele>325.0</ele><time>2026-04-25T08:03:04.997Z</time></trkpt><trkpt lat="45.780204555177626" lon="9.039377148612887"><ele>325.0</ele><time>2026-04-25T08:03:05.997Z</time></trkpt><trkpt lat="45.78017621656532" lon="9.039192661824973"><ele>325.0</ele><time>2026-04-25T08:03:06.997Z</time></trkpt><trkpt lat="45.78014137639935" lon="9.038993291593924"><ele>325.0</ele><time>2026-04-25T08:03:07.997Z</time></trkpt><trkpt lat="45.78010121580922" lon="9.038791515525363"><ele>323.3333333333333</ele><time>2026-04-25T08:03:08.997Z</time></trkpt><trkpt lat="45.78005779885288" lon="9.038578701905221"><ele>321.6666666666667</ele><time>2026-04-25T08:03:09.997Z</time></trkpt><trkpt lat="45.78001610884192" lon="9.038358020120844"><ele>320.0</ele><time>2026-04-25T08:03:10.997Z</time></trkpt><trkpt lat="45.77996293716472" lon="9.038109884995027"><ele>320.0</ele><time>2026-04-25T08:03:11.997Z</time></trkpt><trkpt lat="45.77991580293077" lon="9.037878406788371"><ele>320.0</ele><time>2026-04-25T08:03:12.997Z</time></trkpt><trkpt lat="45.779888507821184" lon="9.037657269561734"><ele>320.0</ele><time>2026-04-25T08:03:13.997Z</time></trkpt><trkpt lat="45.77984749384703" lon="9.037450925403196"><ele>321.75</ele><time>2026-04-25T08:03:14.997Z</time></trkpt><trkpt lat="45.77980738363817" lon="9.0372472424768"><ele>323.5</ele><time>2026-04-25T08:03:15.997Z</time></trkpt><trkpt lat="45.77976809841637" lon="9.037047573385202"><ele>325.25</ele><time>2026-04-25T08:03:16.997Z</time></trkpt><trkpt lat="45.779714638918904" lon="9.036861811003734"><ele>327.0</ele><time>2026-04-25T08:03:17.997Z</time></trkpt><trkpt lat="45.7797044415698" lon="9.036667864504022"><ele>331.3333333333333</ele><time>2026-04-25T08:03:18.997Z</time></trkpt><trkpt lat="45.779658614599015" lon="9.036455863363107"><ele>335.66666666666663</ele><time>2026-04-25T08:03:19.997Z</time></trkpt><trkpt lat="45.77960691581917" lon="9.036224004408522"><ele>340.0</ele><time>2026-04-25T08:03:20.997Z</time></trkpt><trkpt lat="45.779561887946016" lon="9.035989241677973"><ele>341.25</ele><time>2026-04-25T08:03:21.997Z</time></trkpt><trkpt lat="45.7795187456547" lon="9.03577888375401"><ele>342.5</ele><time>2026-04-25T08:03:22.997Z</time></trkpt><trkpt lat="45.779475483696196" lon="9.035585482763793"><ele>343.75</ele><time>2026-04-25T08:03:23.997Z</time></trkpt><trkpt lat="45.77941727768327" lon="9.035396384120144"><ele>345.0</ele><time>2026-04-25T08:03:24.997Z</time></trkpt><trkpt lat="45.77933275370907" lon="9.035187044128223"><ele>348.3333333333333</ele><time>2026-04-25T08:03:25.997Z</time></trkpt><trkpt lat="45.7792368963486" lon="9.034966000195258"><ele>351.66666666666663</ele><time>2026-04-25T08:03:26.997Z</time></trkpt><trkpt lat="45.779117460846216" lon="9.03474468604261"><ele>355.0</ele><time>2026-04-25T08:03:27.997Z</time></trkpt><trkpt lat="45.77897466137146" lon="9.034558735506648"><ele>355.0</ele><time>2026-04-25T08:03:28.997Z</time></trkpt><trkpt lat="45.77884891395963" lon="9.034375980645306"><ele>355.0</ele><time>2026-04-25T08:03:29.997Z</time></trkpt><trkpt lat="45.77872916240847" lon="9.034222232402138"><ele>355.0</ele><time>2026-04-25T08:03:30.997Z</time></trkpt><trkpt lat="45.77860936907257" lon="9.034101876237044"><ele>352.25</ele><time>2026-04-25T08:03:31.997Z</time></trkpt><trkpt lat="45.77849574684015" lon="9.033988840608146"><ele>349.5</ele><time>2026-04-25T08:03:32.997Z</time></trkpt><trkpt lat="45.77838624640963" lon="9.033860087049579"><ele>346.75</ele><time>2026-04-25T08:03:33.997Z</time></trkpt><trkpt lat="45.77826175799312" lon="9.033731501996895"><ele>344.0</ele><time>2026-04-25T08:03:34.997Z</time></trkpt><trkpt lat="45.77812671702434" lon="9.033585384390424"><ele>344.0</ele><time>2026-04-25T08:03:35.998Z</time></trkpt><trkpt lat="45.777986531847816" lon="9.033426113569423"><ele>344.0</ele><time>2026-04-25T08:03:36.998Z</time></trkpt><trkpt lat="45.777850557994334" lon="9.033268974453447"><ele>344.0</ele><time>2026-04-25T08:03:37.998Z</time></trkpt><trkpt lat="45.777721482196156" lon="9.033124642837494"><ele>344.25</ele><time>2026-04-25T08:03:38.998Z</time></trkpt><trkpt lat="45.77759934071398" lon="9.032981539231564"><ele>344.5</ele><time>2026-04-25T08:03:39.998Z</time></trkpt><trkpt lat="45.77748361672396" lon="9.03284083922978"><ele>344.75</ele><time>2026-04-25T08:03:40.998Z</time></trkpt><trkpt lat="45.77738880493469" lon="9.032703870006426"><ele>345.0</ele><time>2026-04-25T08:03:41.998Z</time></trkpt><trkpt lat="45.777312482917445" lon="9.032573825959549"><ele>345.75</ele><time>2026-04-25T08:03:42.998Z</time></trkpt><trkpt lat="45.777248252563965" lon="9.032432185294152"><ele>346.5</ele><time>2026-04-25T08:03:43.998Z</time></trkpt><trkpt lat="45.77719460673414" lon="9.032279953664734"><ele>347.25</ele><time>2026-04-25T08:03:44.998Z</time></trkpt><trkpt lat="45.77715023118744" lon="9.03210935627092"><ele>348.0</ele><time>2026-04-25T08:03:45.998Z</time></trkpt><trkpt lat="45.77711439899293" lon="9.031940052727643"><ele>348.0</ele><time>2026-04-25T08:03:46.998Z</time></trkpt><trkpt lat="45.77707071259768" lon="9.031755279812957"><ele>348.0</ele><time>2026-04-25T08:03:47.998Z</time></trkpt><trkpt lat="45.77702805020037" lon="9.031547715304793"><ele>348.0</ele><time>2026-04-25T08:03:48.998Z</time></trkpt><trkpt lat="45.776986989941534" lon="9.031338502099318"><ele>348.0</ele><time>2026-04-25T08:03:49.998Z</time></trkpt><trkpt lat="45.77694418774889" lon="9.0311441629581"><ele>347.6666666666667</ele><time>2026-04-25T08:03:50.998Z</time></trkpt><trkpt lat="45.77690211538097" lon="9.030957159353894"><ele>347.33333333333337</ele><time>2026-04-25T08:03:51.998Z</time></trkpt><trkpt lat="45.77685524818814" lon="9.03073518723887"><ele>347.0</ele><time>2026-04-25T08:03:52.998Z</time></trkpt><trkpt lat="45.776810067669786" lon="9.030514492176433"><ele>346.25</ele><time>2026-04-25T08:03:53.998Z</time></trkpt><trkpt lat="45.77677717107465" lon="9.030307375504803"><ele>345.5</ele><time>2026-04-25T08:03:54.998Z</time></trkpt><trkpt lat="45.77674188663466" lon="9.030118204458722"><ele>344.75</ele><time>2026-04-25T08:03:55.998Z</time></trkpt><trkpt lat="45.776707475199245" lon="9.029956798013192"><ele>344.0</ele><time>2026-04-25T08:03:56.998Z</time></trkpt><trkpt lat="45.77668369345753" lon="9.029814041566633"><ele>344.0</ele><time>2026-04-25T08:03:57.998Z</time></trkpt><trkpt lat="45.776671271873575" lon="9.02969933377984"><ele>344.0</ele><time>2026-04-25T08:03:58.998Z</time></trkpt><trkpt lat="45.776674782334744" lon="9.02960542843975"><ele>344.0</ele><time>2026-04-25T08:03:59.998Z</time></trkpt><trkpt lat="45.7767049353192" lon="9.02943909622146"><ele>344.0</ele><time>2026-04-25T08:04:01.998Z</time></trkpt><trkpt lat="45.776623861646044" lon="9.02928749306699"><ele>344.0</ele><time>2026-04-25T08:04:03.998Z</time></trkpt><trkpt lat="45.776561332428116" lon="9.029198779894589"><ele>344.0</ele><time>2026-04-25T08:04:04.998Z</time></trkpt><trkpt lat="45.7765122649895" lon="9.02908558475372"><ele>344.0</ele><time>2026-04-25T08:04:05.998Z</time></trkpt><trkpt lat="45.776468669032916" lon="9.028972337633927"><ele>344.0</ele><time>2026-04-25T08:04:06.998Z</time></trkpt><trkpt lat="45.776423198121186" lon="9.028875283174004"><ele>344.0</ele><time>2026-04-25T08:04:07.998Z</time></trkpt><trkpt lat="45.7763742895632" lon="9.02878445501199"><ele>344.0</ele><time>2026-04-25T08:04:08.998Z</time></trkpt><trkpt lat="45.776320794126306" lon="9.028678879463408"><ele>344.0</ele><time>2026-04-25T08:04:09.998Z</time></trkpt><trkpt lat="45.77626022912472" lon="9.028559416340483"><ele>344.0</ele><time>2026-04-25T08:04:10.998Z</time></trkpt><trkpt lat="45.77619108840173" lon="9.028430963410552"><ele>344.0</ele><time>2026-04-25T08:04:11.998Z</time></trkpt><trkpt lat="45.77612262761603" lon="9.028298999204576"><ele>344.0</ele><time>2026-04-25T08:04:12.998Z</time></trkpt><trkpt lat="45.77604936072761" lon="9.028158399084754"><ele>344.0</ele><time>2026-04-25T08:04:13.998Z</time></trkpt><trkpt lat="45.775965840993486" lon="9.028015176802644"><ele>344.0</ele><time>2026-04-25T08:04:14.998Z</time></trkpt><trkpt lat="45.77589012064251" lon="9.0278884936654"><ele>344.0</ele><time>2026-04-25T08:04:15.998Z</time></trkpt><trkpt lat="45.775826990374185" lon="9.027768184315528"><ele>344.0</ele><time>2026-04-25T08:04:16.998Z</time></trkpt><trkpt lat="45.77576930090777" lon="9.027657698951877"><ele>344.0</ele><time>2026-04-25T08:04:17.998Z</time></trkpt><trkpt lat="45.77570537271513" lon="9.027542963635064"><ele>344.0</ele><time>2026-04-25T08:04:18.998Z</time></trkpt><trkpt lat="45.775638126744575" lon="9.027419239975444"><ele>345.0</ele><time>2026-04-25T08:04:19.998Z</time></trkpt><trkpt lat="45.77556755196734" lon="9.027292656305994"><ele>346.0</ele><time>2026-04-25T08:04:20.998Z</time></trkpt><trkpt lat="45.77551102052663" lon="9.02714703870298"><ele>347.0</ele><time>2026-04-25T08:04:21.998Z</time></trkpt><trkpt lat="45.77542954007742" lon="9.027002643594507"><ele>348.0</ele><time>2026-04-25T08:04:22.998Z</time></trkpt><trkpt lat="45.77534519872753" lon="9.026845039163025"><ele>348.0</ele><time>2026-04-25T08:04:23.998Z</time></trkpt><trkpt lat="45.775257882742665" lon="9.0266823344501"><ele>348.0</ele><time>2026-04-25T08:04:24.998Z</time></trkpt><trkpt lat="45.775166041902864" lon="9.026515314675834"><ele>348.0</ele><time>2026-04-25T08:04:25.998Z</time></trkpt><trkpt lat="45.77506798743266" lon="9.02634291053508"><ele>348.0</ele><time>2026-04-25T08:04:26.998Z</time></trkpt><trkpt lat="45.77497041176808" lon="9.026165894232307"><ele>349.3333333333333</ele><time>2026-04-25T08:04:27.998Z</time></trkpt><trkpt lat="45.77487114313368" lon="9.025986861061943"><ele>350.66666666666663</ele><time>2026-04-25T08:04:28.998Z</time></trkpt><trkpt lat="45.77477224066526" lon="9.025806271301507"><ele>352.0</ele><time>2026-04-25T08:04:29.998Z</time></trkpt><trkpt lat="45.77467287943754" lon="9.025623678215531"><ele>353.66666666666663</ele><time>2026-04-25T08:04:30.998Z</time></trkpt><trkpt lat="45.77457381113871" lon="9.025443139199782"><ele>355.3333333333333</ele><time>2026-04-25T08:04:31.997Z</time></trkpt><trkpt lat="45.77447443284859" lon="9.025271749050134"><ele>357.0</ele><time>2026-04-25T08:04:32.996Z</time></trkpt><trkpt lat="45.77437457818859" lon="9.025095568003348"><ele>356.3333333333333</ele><time>2026-04-25T08:04:33.996Z</time></trkpt><trkpt lat="45.77427583671851" lon="9.024909807475362"><ele>355.66666666666663</ele><time>2026-04-25T08:04:34.996Z</time></trkpt><trkpt lat="45.77417911209688" lon="9.024728353165075"><ele>355.0</ele><time>2026-04-25T08:04:35.997Z</time></trkpt><trkpt lat="45.77409321235954" lon="9.02457339221725"><ele>355.0</ele><time>2026-04-25T08:04:36.997Z</time></trkpt><trkpt lat="45.77401652839039" lon="9.024421568866309"><ele>355.0</ele><time>2026-04-25T08:04:37.997Z</time></trkpt><trkpt lat="45.773945315756436" lon="9.024288928747493"><ele>355.0</ele><time>2026-04-25T08:04:38.996Z</time></trkpt><trkpt lat="45.77388100814625" lon="9.024175698748362"><ele>355.0</ele><time>2026-04-25T08:04:39.996Z</time></trkpt><trkpt lat="45.773823771436334" lon="9.024080919928185"><ele>355.0</ele><time>2026-04-25T08:04:40.997Z</time></trkpt><trkpt lat="45.77379286584955" lon="9.023970759963152"><ele>354.8</ele><time>2026-04-25T08:04:41.997Z</time></trkpt><trkpt lat="45.77374795586502" lon="9.02389688583392"><ele>354.6</ele><time>2026-04-25T08:04:42.997Z</time></trkpt><trkpt lat="45.77367113785003" lon="9.023786480683466"><ele>354.4</ele><time>2026-04-25T08:04:44.997Z</time></trkpt><trkpt lat="45.773600826292174" lon="9.02366298441024"><ele>354.2</ele><time>2026-04-25T08:04:46.997Z</time></trkpt><trkpt lat="45.773537075328946" lon="9.023538257469285"><ele>354.0</ele><time>2026-04-25T08:04:48.997Z</time></trkpt><trkpt lat="45.77349771593579" lon="9.023466630753491"><ele>354.2</ele><time>2026-04-25T08:04:49.997Z</time></trkpt><trkpt lat="45.77341509611552" lon="9.023314018957535"><ele>354.4</ele><time>2026-04-25T08:04:51.997Z</time></trkpt><trkpt lat="45.77336602194585" lon="9.023220603610048"><ele>354.6</ele><time>2026-04-25T08:04:52.997Z</time></trkpt><trkpt lat="45.77331926051075" lon="9.023134184732053"><ele>354.8</ele><time>2026-04-25T08:04:53.997Z</time></trkpt><trkpt lat="45.77329756176576" lon="9.023037394180326"><ele>355.0</ele><time>2026-04-25T08:04:54.997Z</time></trkpt><trkpt lat="45.77325912686857" lon="9.022867011922616"><ele>355.0</ele><time>2026-04-25T08:04:56.997Z</time></trkpt><trkpt lat="45.77324346654625" lon="9.022771586674374"><ele>355.0</ele><time>2026-04-25T08:04:57.997Z</time></trkpt><trkpt lat="45.7732414576492" lon="9.022649719380299"><ele>355.0</ele><time>2026-04-25T08:04:58.997Z</time></trkpt><trkpt lat="45.77321917254242" lon="9.022487032740049"><ele>355.0</ele><time>2026-04-25T08:05:00.997Z</time></trkpt><trkpt lat="45.773197739067726" lon="9.02233253633306"><ele>355.0</ele><time>2026-04-25T08:05:02.997Z</time></trkpt><trkpt lat="45.773180356083415" lon="9.02223986709694"><ele>355.0</ele><time>2026-04-25T08:05:03.997Z</time></trkpt><trkpt lat="45.773163934779944" lon="9.022127322980335"><ele>354.4</ele><time>2026-04-25T08:05:04.997Z</time></trkpt><trkpt lat="45.7731455036319" lon="9.022000793254708"><ele>353.8</ele><time>2026-04-25T08:05:05.997Z</time></trkpt><trkpt lat="45.77312297111156" lon="9.021848880718762"><ele>353.20000000000005</ele><time>2026-04-25T08:05:06.997Z</time></trkpt><trkpt lat="45.773099501299335" lon="9.021683080787456"><ele>352.6</ele><time>2026-04-25T08:05:07.997Z</time></trkpt><trkpt lat="45.77307652103409" lon="9.021522288553058"><ele>352.0</ele><time>2026-04-25T08:05:08.997Z</time></trkpt><trkpt lat="45.77304749467968" lon="9.02135661016772"><ele>350.75</ele><time>2026-04-25T08:05:09.997Z</time></trkpt><trkpt lat="45.77302333654307" lon="9.021186142942572"><ele>349.5</ele><time>2026-04-25T08:05:10.997Z</time></trkpt><trkpt lat="45.77299456784679" lon="9.021001832648306"><ele>348.25</ele><time>2026-04-25T08:05:11.997Z</time></trkpt><trkpt lat="45.77296903144149" lon="9.02081975208839"><ele>347.0</ele><time>2026-04-25T08:05:12.997Z</time></trkpt><trkpt lat="45.77294435065524" lon="9.020636236854255"><ele>346.5</ele><time>2026-04-25T08:05:13.997Z</time></trkpt><trkpt lat="45.772919986734536" lon="9.020459397110063"><ele>346.0</ele><time>2026-04-25T08:05:14.997Z</time></trkpt><trkpt lat="45.7728964007663" lon="9.02028310275416"><ele>345.5</ele><time>2026-04-25T08:05:15.997Z</time></trkpt><trkpt lat="45.772871037959085" lon="9.020114567766502"><ele>345.0</ele><time>2026-04-25T08:05:16.997Z</time></trkpt><trkpt lat="45.772850408374445" lon="9.019957335633162"><ele>345.0</ele><time>2026-04-25T08:05:17.997Z</time></trkpt><trkpt lat="45.77283012338274" lon="9.019804377348443"><ele>345.0</ele><time>2026-04-25T08:05:18.997Z</time></trkpt><trkpt lat="45.772811127111446" lon="9.01966295388113"><ele>345.0</ele><time>2026-04-25T08:05:19.997Z</time></trkpt><trkpt lat="45.77279349490518" lon="9.01952492039951"><ele>345.0</ele><time>2026-04-25T08:05:20.997Z</time></trkpt><trkpt lat="45.7727734859967" lon="9.019400844748265"><ele>345.0</ele><time>2026-04-25T08:05:21.997Z</time></trkpt><trkpt lat="45.77275166502058" lon="9.019286488039581"><ele>345.0</ele><time>2026-04-25T08:05:22.997Z</time></trkpt><trkpt lat="45.77273458653357" lon="9.019194106227168"><ele>345.0</ele><time>2026-04-25T08:05:23.997Z</time></trkpt><trkpt lat="45.772708279304176" lon="9.019069659709343"><ele>345.0</ele><time>2026-04-25T08:05:25.997Z</time></trkpt><trkpt lat="45.772686232948764" lon="9.018931052508306"><ele>345.0</ele><time>2026-04-25T08:05:27.997Z</time></trkpt><trkpt lat="45.77267706161095" lon="9.018840659708367"><ele>345.0</ele><time>2026-04-25T08:05:28.997Z</time></trkpt><trkpt lat="45.77267151393414" lon="9.018728185837375"><ele>345.0</ele><time>2026-04-25T08:05:29.997Z</time></trkpt><trkpt lat="45.77265044484464" lon="9.018594153303559"><ele>344.5</ele><time>2026-04-25T08:05:30.997Z</time></trkpt><trkpt lat="45.772616765266164" lon="9.018439781602819"><ele>344.0</ele><time>2026-04-25T08:05:31.997Z</time></trkpt><trkpt lat="45.77259023800306" lon="9.018283986491005"><ele>343.5</ele><time>2026-04-25T08:05:32.997Z</time></trkpt><trkpt lat="45.772567018826244" lon="9.01812796301152"><ele>343.0</ele><time>2026-04-25T08:05:33.997Z</time></trkpt><trkpt lat="45.77254141736761" lon="9.017958889218626"><ele>342.5</ele><time>2026-04-25T08:05:34.997Z</time></trkpt><trkpt lat="45.77251371501786" lon="9.017777597447571"><ele>342.0</ele><time>2026-04-25T08:05:35.997Z</time></trkpt><trkpt lat="45.77249057859075" lon="9.017601696563773"><ele>341.5</ele><time>2026-04-25T08:05:36.997Z</time></trkpt><trkpt lat="45.77246932937836" lon="9.017426916389931"><ele>341.0</ele><time>2026-04-25T08:05:37.997Z</time></trkpt><trkpt lat="45.7724473221159" lon="9.017261895709861"><ele>340.8</ele><time>2026-04-25T08:05:38.997Z</time></trkpt><trkpt lat="45.77242518225667" lon="9.017107863212853"><ele>340.6</ele><time>2026-04-25T08:05:39.997Z</time></trkpt><trkpt lat="45.77240676840995" lon="9.016962507376839"><ele>340.4</ele><time>2026-04-25T08:05:40.997Z</time></trkpt><trkpt lat="45.772386565302526" lon="9.016816784905059"><ele>340.2</ele><time>2026-04-25T08:05:41.997Z</time></trkpt><trkpt lat="45.77235589336958" lon="9.016654290343538"><ele>340.0</ele><time>2026-04-25T08:05:42.997Z</time></trkpt><trkpt lat="45.77232461482643" lon="9.016468200998798"><ele>340.0</ele><time>2026-04-25T08:05:43.997Z</time></trkpt><trkpt lat="45.77229809284354" lon="9.016279295734398"><ele>340.0</ele><time>2026-04-25T08:05:44.997Z</time></trkpt><trkpt lat="45.77227175785447" lon="9.016088040301128"><ele>340.0</ele><time>2026-04-25T08:05:45.997Z</time></trkpt><trkpt lat="45.77224492032842" lon="9.015896686300318"><ele>340.0</ele><time>2026-04-25T08:05:46.997Z</time></trkpt><trkpt lat="45.77221538643664" lon="9.01569923477656"><ele>341.0</ele><time>2026-04-25T08:05:47.998Z</time></trkpt><trkpt lat="45.77219954512216" lon="9.015479302499854"><ele>342.0</ele><time>2026-04-25T08:05:48.998Z</time></trkpt><trkpt lat="45.772170474729904" lon="9.01525142110929"><ele>343.0</ele><time>2026-04-25T08:05:49.998Z</time></trkpt><trkpt lat="45.77214272126274" lon="9.015014556622813"><ele>342.66666666666663</ele><time>2026-04-25T08:05:50.998Z</time></trkpt><trkpt lat="45.77211206874708" lon="9.014761226784783"><ele>342.3333333333333</ele><time>2026-04-25T08:05:51.998Z</time></trkpt><trkpt lat="45.77207589768203" lon="9.014503414925866"><ele>342.0</ele><time>2026-04-25T08:05:52.998Z</time></trkpt><trkpt lat="45.772042015911396" lon="9.014259260098022"><ele>342.3333333333333</ele><time>2026-04-25T08:05:53.998Z</time></trkpt><trkpt lat="45.77200656873519" lon="9.014022101819025"><ele>342.66666666666663</ele><time>2026-04-25T08:05:54.998Z</time></trkpt><trkpt lat="45.77197454469732" lon="9.013800430019218"><ele>343.0</ele><time>2026-04-25T08:05:55.998Z</time></trkpt><trkpt lat="45.77194651995767" lon="9.01360138087506"><ele>343.0</ele><time>2026-04-25T08:05:56.998Z</time></trkpt><trkpt lat="45.77192261308409" lon="9.013425475952346"><ele>343.0</ele><time>2026-04-25T08:05:57.998Z</time></trkpt><trkpt lat="45.77189847954875" lon="9.013262643025266"><ele>343.0</ele><time>2026-04-25T08:05:58.998Z</time></trkpt><trkpt lat="45.771873438607315" lon="9.013103527474712"><ele>343.0</ele><time>2026-04-25T08:05:59.998Z</time></trkpt><trkpt lat="45.77185070380698" lon="9.012953618240767"><ele>341.8333333333333</ele><time>2026-04-25T08:06:00.998Z</time></trkpt><trkpt lat="45.77182915711239" lon="9.012820560885414"><ele>340.66666666666663</ele><time>2026-04-25T08:06:01.998Z</time></trkpt><trkpt lat="45.77181092490376" lon="9.012700357952097"><ele>339.5</ele><time>2026-04-25T08:06:02.998Z</time></trkpt><trkpt lat="45.771799842975675" lon="9.012606987332724"><ele>338.3333333333333</ele><time>2026-04-25T08:06:03.998Z</time></trkpt><trkpt lat="45.77179313380335" lon="9.012486478440078"><ele>337.1666666666667</ele><time>2026-04-25T08:06:05.998Z</time></trkpt><trkpt lat="45.77180143605429" lon="9.012364249459344"><ele>336.0</ele><time>2026-04-25T08:06:07.998Z</time></trkpt><trkpt lat="45.77180406274112" lon="9.012216110989272"><ele>335.6666666666667</ele><time>2026-04-25T08:06:09.998Z</time></trkpt><trkpt lat="45.77178109663543" lon="9.012118899165038"><ele>335.3333333333333</ele><time>2026-04-25T08:06:10.998Z</time></trkpt><trkpt lat="45.77174665676647" lon="9.012018648972736"><ele>335.0</ele><time>2026-04-25T08:06:11.998Z</time></trkpt><trkpt lat="45.77171656145637" lon="9.011925116922923"><ele>334.66666666666663</ele><time>2026-04-25T08:06:12.998Z</time></trkpt><trkpt lat="45.771701291068425" lon="9.011809781075462"><ele>334.3333333333333</ele><time>2026-04-25T08:06:13.998Z</time></trkpt><trkpt lat="45.771696443265874" lon="9.011672763374062"><ele>334.0</ele><time>2026-04-25T08:06:14.998Z</time></trkpt><trkpt lat="45.77169943918291" lon="9.011531558224696"><ele>333.6</ele><time>2026-04-25T08:06:15.998Z</time></trkpt><trkpt lat="45.77170330827173" lon="9.011381012767945"><ele>333.2</ele><time>2026-04-25T08:06:16.998Z</time></trkpt><trkpt lat="45.771710190225406" lon="9.01123058862412"><ele>332.8</ele><time>2026-04-25T08:06:17.998Z</time></trkpt><trkpt lat="45.771712482553305" lon="9.011070289569101"><ele>332.40000000000003</ele><time>2026-04-25T08:06:18.998Z</time></trkpt><trkpt lat="45.771736838319335" lon="9.010906241759468"><ele>332.0</ele><time>2026-04-25T08:06:19.998Z</time></trkpt><trkpt lat="45.771747597964904" lon="9.010724303096158"><ele>331.33333333333337</ele><time>2026-04-25T08:06:20.998Z</time></trkpt><trkpt lat="45.771754617882934" lon="9.010526636138627"><ele>330.6666666666667</ele><time>2026-04-25T08:06:21.998Z</time></trkpt><trkpt lat="45.77175694138991" lon="9.010305959748086"><ele>330.0</ele><time>2026-04-25T08:06:22.998Z</time></trkpt><trkpt lat="45.77177056861237" lon="9.01006381514168"><ele>329.6666666666667</ele><time>2026-04-25T08:06:23.998Z</time></trkpt><trkpt lat="45.771789180237725" lon="9.009802036682967"><ele>329.33333333333337</ele><time>2026-04-25T08:06:24.998Z</time></trkpt><trkpt lat="45.77180742503766" lon="9.009563251963922"><ele>329.0</ele><time>2026-04-25T08:06:25.998Z</time></trkpt><trkpt lat="45.771821792458574" lon="9.009321334766398"><ele>329.6666666666667</ele><time>2026-04-25T08:06:26.998Z</time></trkpt><trkpt lat="45.77183505469374" lon="9.009086922519682"><ele>330.3333333333333</ele><time>2026-04-25T08:06:27.998Z</time></trkpt><trkpt lat="45.77184544054062" lon="9.008860337420359"><ele>331.0</ele><time>2026-04-25T08:06:28.998Z</time></trkpt><trkpt lat="45.77185470666473" lon="9.008637937135498"><ele>330.66666666666663</ele><time>2026-04-25T08:06:29.998Z</time></trkpt><trkpt lat="45.77186491977197" lon="9.008410383925899"><ele>330.3333333333333</ele><time>2026-04-25T08:06:30.998Z</time></trkpt><trkpt lat="45.77187467845271" lon="9.008182004206153"><ele>330.0</ele><time>2026-04-25T08:06:31.998Z</time></trkpt><trkpt lat="45.771884597837335" lon="9.007963212801489"><ele>330.0</ele><time>2026-04-25T08:06:32.998Z</time></trkpt><trkpt lat="45.77189622586645" lon="9.007755676340373"><ele>330.0</ele><time>2026-04-25T08:06:33.998Z</time></trkpt><trkpt lat="45.771905536664995" lon="9.007542606895473"><ele>330.0</ele><time>2026-04-25T08:06:34.998Z</time></trkpt><trkpt lat="45.77191605874479" lon="9.007332042221892"><ele>330.0</ele><time>2026-04-25T08:06:35.998Z</time></trkpt><trkpt lat="45.77192773721549" lon="9.00712278113995"><ele>330.3333333333333</ele><time>2026-04-25T08:06:36.998Z</time></trkpt><trkpt lat="45.77193903979568" lon="9.006903780808003"><ele>330.66666666666663</ele><time>2026-04-25T08:06:37.997Z</time></trkpt><trkpt lat="45.77194727497958" lon="9.006680938428314"><ele>331.0</ele><time>2026-04-25T08:06:38.997Z</time></trkpt><trkpt lat="45.77195638327231" lon="9.006462838766788"><ele>331.0</ele><time>2026-04-25T08:06:39.997Z</time></trkpt><trkpt lat="45.77196565569706" lon="9.006258029417715"><ele>331.0</ele><time>2026-04-25T08:06:40.996Z</time></trkpt><trkpt lat="45.77197477303057" lon="9.006068614654014"><ele>331.0</ele><time>2026-04-25T08:06:41.996Z</time></trkpt><trkpt lat="45.77198428079967" lon="9.005892097387424"><ele>331.0</ele><time>2026-04-25T08:06:42.996Z</time></trkpt><trkpt lat="45.77199290025049" lon="9.005730862378536"><ele>331.0</ele><time>2026-04-25T08:06:43.996Z</time></trkpt><trkpt lat="45.77200147819001" lon="9.00557105736181"><ele>331.0</ele><time>2026-04-25T08:06:44.996Z</time></trkpt><trkpt lat="45.772008068227" lon="9.005409276217573"><ele>331.0</ele><time>2026-04-25T08:06:45.996Z</time></trkpt><trkpt lat="45.772014545863165" lon="9.00528218648294"><ele>331.0</ele><time>2026-04-25T08:06:46.996Z</time></trkpt><trkpt lat="45.772021889158" lon="9.005175191695105"><ele>331.0</ele><time>2026-04-25T08:06:47.996Z</time></trkpt><trkpt lat="45.77202369722099" lon="9.00507451127867"><ele>331.16666666666663</ele><time>2026-04-25T08:06:48.996Z</time></trkpt><trkpt lat="45.77203002037788" lon="9.004912806240627"><ele>331.3333333333333</ele><time>2026-04-25T08:06:50.996Z</time></trkpt><trkpt lat="45.77203085976928" lon="9.004782883976361"><ele>331.5</ele><time>2026-04-25T08:06:52.996Z</time></trkpt><trkpt lat="45.7720386358769" lon="9.00466604884509"><ele>331.6666666666667</ele><time>2026-04-25T08:06:54.996Z</time></trkpt><trkpt lat="45.77203740556228" lon="9.004568572607884"><ele>331.83333333333337</ele><time>2026-04-25T08:06:56.996Z</time></trkpt><trkpt lat="45.77201132300138" lon="9.004481140095288"><ele>332.0</ele><time>2026-04-25T08:07:18.997Z</time></trkpt><trkpt lat="45.77199806383695" lon="9.004376817025271"><ele>332.0</ele><time>2026-04-25T08:07:19.997Z</time></trkpt><trkpt lat="45.771979529649336" lon="9.004231556627145"><ele>332.0</ele><time>2026-04-25T08:07:20.997Z</time></trkpt><trkpt lat="45.77196104481197" lon="9.004065683286703"><ele>332.0</ele><time>2026-04-25T08:07:21.997Z</time></trkpt><trkpt lat="45.7719439551944" lon="9.003894222823515"><ele>332.0</ele><time>2026-04-25T08:07:22.997Z</time></trkpt><trkpt lat="45.77192459417788" lon="9.003714706183823"><ele>332.25</ele><time>2026-04-25T08:07:23.997Z</time></trkpt><trkpt lat="45.77190120496268" lon="9.003535654125145"><ele>332.5</ele><time>2026-04-25T08:07:24.997Z</time></trkpt><trkpt lat="45.77188236807857" lon="9.003356571641664"><ele>332.75</ele><time>2026-04-25T08:07:25.997Z</time></trkpt><trkpt lat="45.77186374746914" lon="9.003184505381496"><ele>333.0</ele><time>2026-04-25T08:07:26.997Z</time></trkpt><trkpt lat="45.771846495046155" lon="9.003020549594607"><ele>333.0</ele><time>2026-04-25T08:07:27.997Z</time></trkpt><trkpt lat="45.77182766993724" lon="9.002874654632558"><ele>333.0</ele><time>2026-04-25T08:07:28.997Z</time></trkpt><trkpt lat="45.77181384068592" lon="9.002740998814222"><ele>333.0</ele><time>2026-04-25T08:07:29.997Z</time></trkpt><trkpt lat="45.771802691566165" lon="9.002621340457676"><ele>333.0</ele><time>2026-04-25T08:07:30.997Z</time></trkpt><trkpt lat="45.771794670910495" lon="9.002513286740571"><ele>333.0</ele><time>2026-04-25T08:07:31.997Z</time></trkpt><trkpt lat="45.77178546356932" lon="9.002411346119636"><ele>333.0</ele><time>2026-04-25T08:07:32.997Z</time></trkpt><trkpt lat="45.77177621063371" lon="9.002319124209274"><ele>332.79999999999995</ele><time>2026-04-25T08:07:33.997Z</time></trkpt><trkpt lat="45.7717518989173" lon="9.00222911134866"><ele>332.6</ele><time>2026-04-25T08:07:34.997Z</time></trkpt><trkpt lat="45.77173832434199" lon="9.002115420862054"><ele>332.4</ele><time>2026-04-25T08:07:35.997Z</time></trkpt><trkpt lat="45.77174222079866" lon="9.001982966556575"><ele>332.20000000000005</ele><time>2026-04-25T08:07:36.997Z</time></trkpt><trkpt lat="45.771720777602276" lon="9.001832433817244"><ele>332.0</ele><time>2026-04-25T08:07:37.997Z</time></trkpt><trkpt lat="45.771713211238946" lon="9.001671489852017"><ele>332.0</ele><time>2026-04-25T08:07:38.997Z</time></trkpt><trkpt lat="45.77170369130766" lon="9.001499960091884"><ele>332.0</ele><time>2026-04-25T08:07:39.997Z</time></trkpt><trkpt lat="45.77168655746652" lon="9.001316310150253"><ele>332.0</ele><time>2026-04-25T08:07:40.997Z</time></trkpt><trkpt lat="45.77165959376749" lon="9.001132453772426"><ele>332.0</ele><time>2026-04-25T08:07:41.997Z</time></trkpt><trkpt lat="45.77163443628877" lon="9.000924622577523"><ele>333.0</ele><time>2026-04-25T08:07:42.997Z</time></trkpt><trkpt lat="45.77160992449514" lon="9.000698615836995"><ele>334.0</ele><time>2026-04-25T08:07:43.997Z</time></trkpt><trkpt lat="45.77158734037815" lon="9.000470598611471"><ele>335.0</ele><time>2026-04-25T08:07:44.997Z</time></trkpt><trkpt lat="45.77156061001364" lon="9.000236162493486"><ele>335.0</ele><time>2026-04-25T08:07:45.997Z</time></trkpt><trkpt lat="45.77152753915383" lon="8.999996244806738"><ele>335.0</ele><time>2026-04-25T08:07:46.997Z</time></trkpt><trkpt lat="45.7714980730285" lon="8.999753245980264"><ele>335.0</ele><time>2026-04-25T08:07:47.997Z</time></trkpt><trkpt lat="45.77147238227271" lon="8.99952806382008"><ele>335.0</ele><time>2026-04-25T08:07:48.997Z</time></trkpt><trkpt lat="45.77144319740634" lon="8.999289251763111"><ele>335.0</ele><time>2026-04-25T08:07:49.997Z</time></trkpt><trkpt lat="45.77141307894878" lon="8.999040347405694"><ele>335.0</ele><time>2026-04-25T08:07:50.997Z</time></trkpt><trkpt lat="45.77138977521219" lon="8.998798283428902"><ele>335.0</ele><time>2026-04-25T08:07:51.997Z</time></trkpt><trkpt lat="45.771363028428226" lon="8.99856673491478"><ele>335.0</ele><time>2026-04-25T08:07:52.997Z</time></trkpt><trkpt lat="45.77133626746941" lon="8.998339032612657"><ele>335.0</ele><time>2026-04-25T08:07:53.997Z</time></trkpt><trkpt lat="45.771310209703095" lon="8.998115546789968"><ele>335.6666666666667</ele><time>2026-04-25T08:07:54.997Z</time></trkpt><trkpt lat="45.771287531137965" lon="8.997889238837981"><ele>336.3333333333333</ele><time>2026-04-25T08:07:55.997Z</time></trkpt><trkpt lat="45.771265814598344" lon="8.997661419985674"><ele>337.0</ele><time>2026-04-25T08:07:56.997Z</time></trkpt><trkpt lat="45.77123870492016" lon="8.997426755288092"><ele>338.66666666666663</ele><time>2026-04-25T08:07:57.997Z</time></trkpt><trkpt lat="45.77121347042905" lon="8.997194817186548"><ele>340.3333333333333</ele><time>2026-04-25T08:07:58.997Z</time></trkpt><trkpt lat="45.77118627971394" lon="8.996963413871807"><ele>342.0</ele><time>2026-04-25T08:07:59.997Z</time></trkpt><trkpt lat="45.77115628469613" lon="8.996699204801223"><ele>342.3333333333333</ele><time>2026-04-25T08:08:00.997Z</time></trkpt><trkpt lat="45.77112568680027" lon="8.996401557393442"><ele>342.66666666666663</ele><time>2026-04-25T08:08:01.997Z</time></trkpt><trkpt lat="45.77109469104446" lon="8.996108766411432"><ele>343.0</ele><time>2026-04-25T08:08:02.997Z</time></trkpt><trkpt lat="45.77106438227968" lon="8.995845198432272"><ele>343.0</ele><time>2026-04-25T08:08:03.997Z</time></trkpt><trkpt lat="45.77103640038551" lon="8.99559916751642"><ele>343.0</ele><time>2026-04-25T08:08:04.997Z</time></trkpt><trkpt lat="45.77101271857516" lon="8.995369549324701"><ele>343.0</ele><time>2026-04-25T08:08:05.997Z</time></trkpt><trkpt lat="45.77098972345211" lon="8.99514618837678"><ele>343.25</ele><time>2026-04-25T08:08:06.997Z</time></trkpt><trkpt lat="45.77096650860194" lon="8.994931913822546"><ele>343.5</ele><time>2026-04-25T08:08:07.997Z</time></trkpt><trkpt lat="45.77094006947594" lon="8.99472341618822"><ele>343.75</ele><time>2026-04-25T08:08:08.997Z</time></trkpt><trkpt lat="45.77091787531983" lon="8.994526118705926"><ele>344.0</ele><time>2026-04-25T08:08:09.997Z</time></trkpt><trkpt lat="45.77089717680806" lon="8.994331827288603"><ele>344.5</ele><time>2026-04-25T08:08:10.997Z</time></trkpt><trkpt lat="45.77087457348555" lon="8.994137888237292"><ele>345.0</ele><time>2026-04-25T08:08:11.997Z</time></trkpt><trkpt lat="45.77085318251815" lon="8.993944616506628"><ele>345.5</ele><time>2026-04-25T08:08:12.997Z</time></trkpt><trkpt lat="45.77082815670588" lon="8.993747117819797"><ele>346.0</ele><time>2026-04-25T08:08:13.997Z</time></trkpt><trkpt lat="45.770800870185" lon="8.993545738063204"><ele>346.0</ele><time>2026-04-25T08:08:14.997Z</time></trkpt><trkpt lat="45.77077749330358" lon="8.993348360539498"><ele>346.0</ele><time>2026-04-25T08:08:15.997Z</time></trkpt><trkpt lat="45.77075348126637" lon="8.993159082443869"><ele>346.0</ele><time>2026-04-25T08:08:16.997Z</time></trkpt><trkpt lat="45.770736923181246" lon="8.99298793492998"><ele>346.0</ele><time>2026-04-25T08:08:17.997Z</time></trkpt><trkpt lat="45.770720780547066" lon="8.992800825554843"><ele>346.25</ele><time>2026-04-25T08:08:18.997Z</time></trkpt><trkpt lat="45.77070874037468" lon="8.992608505879005"><ele>346.5</ele><time>2026-04-25T08:08:19.997Z</time></trkpt><trkpt lat="45.77069922778498" lon="8.992412035445676"><ele>346.75</ele><time>2026-04-25T08:08:20.997Z</time></trkpt><trkpt lat="45.77069220496105" lon="8.992212401518803"><ele>347.0</ele><time>2026-04-25T08:08:21.997Z</time></trkpt><trkpt lat="45.770685201934654" lon="8.992012504111752"><ele>347.25</ele><time>2026-04-25T08:08:22.997Z</time></trkpt><trkpt lat="45.7706787111309" lon="8.991809960306846"><ele>347.5</ele><time>2026-04-25T08:08:23.998Z</time></trkpt><trkpt lat="45.77067580518426" lon="8.9916124793825"><ele>347.75</ele><time>2026-04-25T08:08:24.998Z</time></trkpt><trkpt lat="45.770671308504355" lon="8.9914174188182"><ele>348.0</ele><time>2026-04-25T08:08:25.998Z</time></trkpt><trkpt lat="45.77066368947638" lon="8.99121234294185"><ele>348.0</ele><time>2026-04-25T08:08:26.998Z</time></trkpt><trkpt lat="45.77065763977117" lon="8.990999598674547"><ele>348.0</ele><time>2026-04-25T08:08:27.998Z</time></trkpt><trkpt lat="45.77065469753512" lon="8.99078475424391"><ele>348.0</ele><time>2026-04-25T08:08:28.998Z</time></trkpt><trkpt lat="45.77065308462358" lon="8.99056718965731"><ele>348.0</ele><time>2026-04-25T08:08:29.998Z</time></trkpt><trkpt lat="45.77064991198467" lon="8.990356821155443"><ele>348.0</ele><time>2026-04-25T08:08:30.998Z</time></trkpt><trkpt lat="45.77064483029405" lon="8.99015347642227"><ele>348.0</ele><time>2026-04-25T08:08:31.998Z</time></trkpt><trkpt lat="45.770642622338315" lon="8.98994775865783"><ele>348.0</ele><time>2026-04-25T08:08:32.998Z</time></trkpt><trkpt lat="45.77063809853631" lon="8.989755363655812"><ele>348.0</ele><time>2026-04-25T08:08:33.998Z</time></trkpt><trkpt lat="45.770633161173315" lon="8.98958189893435"><ele>348.0</ele><time>2026-04-25T08:08:34.998Z</time></trkpt><trkpt lat="45.77062980133608" lon="8.989421837046542"><ele>348.0</ele><time>2026-04-25T08:08:35.998Z</time></trkpt><trkpt lat="45.770627568739314" lon="8.989274692958386"><ele>348.0</ele><time>2026-04-25T08:08:36.998Z</time></trkpt><trkpt lat="45.7706268959685" lon="8.989141360625037"><ele>348.0</ele><time>2026-04-25T08:08:37.998Z</time></trkpt><trkpt lat="45.77063296372484" lon="8.989024004665497"><ele>347.79999999999995</ele><time>2026-04-25T08:08:38.998Z</time></trkpt><trkpt lat="45.7706488561899" lon="8.98890966162875"><ele>347.6</ele><time>2026-04-25T08:08:39.998Z</time></trkpt><trkpt lat="45.77069041352764" lon="8.988791750460141"><ele>347.4</ele><time>2026-04-25T08:08:40.998Z</time></trkpt><trkpt lat="45.77070142713734" lon="8.988664656617782"><ele>347.20000000000005</ele><time>2026-04-25T08:08:41.998Z</time></trkpt><trkpt lat="45.7706693817001" lon="8.988513454987363"><ele>347.0</ele><time>2026-04-25T08:08:42.998Z</time></trkpt><trkpt lat="45.77062635403628" lon="8.988341816449303"><ele>346.5</ele><time>2026-04-25T08:08:43.997Z</time></trkpt><trkpt lat="45.77060862766058" lon="8.988140732055847"><ele>346.0</ele><time>2026-04-25T08:08:44.996Z</time></trkpt><trkpt lat="45.770602001398466" lon="8.987928005177489"><ele>345.5</ele><time>2026-04-25T08:08:45.996Z</time></trkpt><trkpt lat="45.770598321921874" lon="8.987702886001053"><ele>345.0</ele><time>2026-04-25T08:08:46.996Z</time></trkpt><trkpt lat="45.77059542746049" lon="8.987465510631006"><ele>345.0</ele><time>2026-04-25T08:08:47.996Z</time></trkpt><trkpt lat="45.77059160010139" lon="8.9872123869237"><ele>345.0</ele><time>2026-04-25T08:08:48.996Z</time></trkpt><trkpt lat="45.7705871054788" lon="8.986953673014696"><ele>345.0</ele><time>2026-04-25T08:08:49.996Z</time></trkpt><trkpt lat="45.77058174718614" lon="8.986687914802385"><ele>347.3333333333333</ele><time>2026-04-25T08:08:50.997Z</time></trkpt><trkpt lat="45.770572413959606" lon="8.986415626608606"><ele>349.66666666666663</ele><time>2026-04-25T08:08:51.997Z</time></trkpt><trkpt lat="45.77057185650322" lon="8.986161528119373"><ele>352.0</ele><time>2026-04-25T08:08:52.997Z</time></trkpt><trkpt lat="45.77057074177747" lon="8.98590291177067"><ele>355.0</ele><time>2026-04-25T08:08:53.996Z</time></trkpt><trkpt lat="45.770576218579556" lon="8.985650960863612"><ele>358.0</ele><time>2026-04-25T08:08:54.996Z</time></trkpt><trkpt lat="45.77059253823034" lon="8.985415077091153"><ele>361.0</ele><time>2026-04-25T08:08:55.996Z</time></trkpt><trkpt lat="45.77061948158276" lon="8.98520454468494"><ele>361.0</ele><time>2026-04-25T08:08:56.996Z</time></trkpt><trkpt lat="45.77065013938171" lon="8.98501659744597"><ele>361.0</ele><time>2026-04-25T08:08:57.996Z</time></trkpt><trkpt lat="45.770684516225934" lon="8.984859197472217"><ele>361.0</ele><time>2026-04-25T08:08:58.997Z</time></trkpt><trkpt lat="45.77072866509742" lon="8.984729204825205"><ele>361.0</ele><time>2026-04-25T08:08:59.997Z</time></trkpt><trkpt lat="45.7707892671645" lon="8.984604660783887"><ele>362.25</ele><time>2026-04-25T08:09:00.997Z</time></trkpt><trkpt lat="45.7708716854075" lon="8.984485520310548"><ele>363.5</ele><time>2026-04-25T08:09:01.997Z</time></trkpt><trkpt lat="45.77096113466553" lon="8.98437205849334"><ele>364.75</ele><time>2026-04-25T08:09:02.997Z</time></trkpt><trkpt lat="45.771063634908536" lon="8.984259184426087"><ele>366.0</ele><time>2026-04-25T08:09:03.997Z</time></trkpt><trkpt lat="45.77117844450159" lon="8.984159850087716"><ele>366.25</ele><time>2026-04-25T08:09:04.997Z</time></trkpt><trkpt lat="45.77130430270202" lon="8.984077850418506"><ele>366.5</ele><time>2026-04-25T08:09:05.997Z</time></trkpt><trkpt lat="45.771429043731764" lon="8.983994320937787"><ele>366.75</ele><time>2026-04-25T08:09:06.997Z</time></trkpt><trkpt lat="45.77155973617609" lon="8.983893284808964"><ele>367.0</ele><time>2026-04-25T08:09:07.997Z</time></trkpt><trkpt lat="45.77168539348034" lon="8.983774659455356"><ele>367.0</ele><time>2026-04-25T08:09:08.997Z</time></trkpt><trkpt lat="45.77180132231293" lon="8.983643349540262"><ele>367.0</ele><time>2026-04-25T08:09:09.997Z</time></trkpt><trkpt lat="45.771912517498265" lon="8.983508347648963"><ele>367.0</ele><time>2026-04-25T08:09:10.997Z</time></trkpt><trkpt lat="45.772018760357106" lon="8.98338120366648"><ele>367.0</ele><time>2026-04-25T08:09:11.997Z</time></trkpt><trkpt lat="45.77212104533206" lon="8.983255223316815"><ele>368.25</ele><time>2026-04-25T08:09:12.997Z</time></trkpt><trkpt lat="45.77222072571233" lon="8.983129394209069"><ele>369.5</ele><time>2026-04-25T08:09:13.997Z</time></trkpt><trkpt lat="45.77232386293182" lon="8.98300506763872"><ele>370.75</ele><time>2026-04-25T08:09:14.997Z</time></trkpt><trkpt lat="45.772419461317504" lon="8.982887410561773"><ele>372.0</ele><time>2026-04-25T08:09:15.997Z</time></trkpt><trkpt lat="45.772519902865724" lon="8.982759111040583"><ele>372.0</ele><time>2026-04-25T08:09:16.997Z</time></trkpt><trkpt lat="45.772622453054396" lon="8.98263247348087"><ele>372.0</ele><time>2026-04-25T08:09:17.997Z</time></trkpt><trkpt lat="45.772720587819904" lon="8.98251195887754"><ele>372.0</ele><time>2026-04-25T08:09:18.997Z</time></trkpt><trkpt lat="45.772818579948755" lon="8.982392618044194"><ele>372.0</ele><time>2026-04-25T08:09:19.997Z</time></trkpt><trkpt lat="45.77291740493618" lon="8.982270703855864"><ele>373.25</ele><time>2026-04-25T08:09:20.997Z</time></trkpt><trkpt lat="45.773015968116084" lon="8.982152648248782"><ele>374.5</ele><time>2026-04-25T08:09:21.997Z</time></trkpt><trkpt lat="45.77311720006353" lon="8.982033686341227"><ele>375.75</ele><time>2026-04-25T08:09:22.997Z</time></trkpt><trkpt lat="45.773219960819596" lon="8.981909226405325"><ele>377.0</ele><time>2026-04-25T08:09:23.997Z</time></trkpt><trkpt lat="45.77333783580541" lon="8.981764114780319"><ele>378.0</ele><time>2026-04-25T08:09:24.997Z</time></trkpt><trkpt lat="45.77347422334577" lon="8.981592071744913"><ele>379.0</ele><time>2026-04-25T08:09:25.997Z</time></trkpt><trkpt lat="45.77362545135447" lon="8.981403462415974"><ele>380.0</ele><time>2026-04-25T08:09:26.997Z</time></trkpt><trkpt lat="45.77378453028994" lon="8.981205402581196"><ele>382.0</ele><time>2026-04-25T08:09:27.997Z</time></trkpt><trkpt lat="45.77394945997193" lon="8.981009905754659"><ele>384.0</ele><time>2026-04-25T08:09:28.997Z</time></trkpt><trkpt lat="45.77411377177073" lon="8.980815043758664"><ele>386.0</ele><time>2026-04-25T08:09:29.997Z</time></trkpt><trkpt lat="45.774269181885714" lon="8.980621416129273"><ele>389.0</ele><time>2026-04-25T08:09:30.997Z</time></trkpt><trkpt lat="45.774447398960994" lon="8.980421830213361"><ele>392.0</ele><time>2026-04-25T08:09:31.997Z</time></trkpt><trkpt lat="45.7746237885048" lon="8.980207118970645"><ele>393.3333333333333</ele><time>2026-04-25T08:09:32.997Z</time></trkpt><trkpt lat="45.7747872535133" lon="8.979985402779066"><ele>394.66666666666663</ele><time>2026-04-25T08:09:33.997Z</time></trkpt><trkpt lat="45.774958794193644" lon="8.979788942035569"><ele>396.0</ele><time>2026-04-25T08:09:34.997Z</time></trkpt><trkpt lat="45.7751146508733" lon="8.979604868469512"><ele>396.33333333333337</ele><time>2026-04-25T08:09:35.997Z</time></trkpt><trkpt lat="45.77526358891541" lon="8.979429408431859"><ele>396.6666666666667</ele><time>2026-04-25T08:09:36.997Z</time></trkpt><trkpt lat="45.77541137528835" lon="8.979252780900678"><ele>397.0</ele><time>2026-04-25T08:09:37.997Z</time></trkpt><trkpt lat="45.77555295639733" lon="8.979076204076117"><ele>397.6666666666667</ele><time>2026-04-25T08:09:38.997Z</time></trkpt><trkpt lat="45.77568526058009" lon="8.978909720852126"><ele>398.33333333333337</ele><time>2026-04-25T08:09:39.997Z</time></trkpt><trkpt lat="45.77580990545737" lon="8.97874093553233"><ele>399.0</ele><time>2026-04-25T08:09:40.997Z</time></trkpt><trkpt lat="45.77593485691903" lon="8.978571960277074"><ele>401.0</ele><time>2026-04-25T08:09:41.997Z</time></trkpt><trkpt lat="45.77605834993418" lon="8.978404195289704"><ele>403.0</ele><time>2026-04-25T08:09:42.997Z</time></trkpt><trkpt lat="45.77618209201553" lon="8.978241257509913"><ele>405.0</ele><time>2026-04-25T08:09:43.997Z</time></trkpt><trkpt lat="45.776294753324606" lon="8.978085182338518"><ele>405.0</ele><time>2026-04-25T08:09:44.997Z</time></trkpt><trkpt lat="45.776412274141606" lon="8.97792481130137"><ele>405.0</ele><time>2026-04-25T08:09:45.997Z</time></trkpt><trkpt lat="45.77653178359606" lon="8.977763464580734"><ele>405.0</ele><time>2026-04-25T08:09:46.997Z</time></trkpt><trkpt lat="45.77665291097903" lon="8.97761162157162"><ele>405.33333333333337</ele><time>2026-04-25T08:09:47.997Z</time></trkpt><trkpt lat="45.776768568781186" lon="8.977457758123087"><ele>405.6666666666667</ele><time>2026-04-25T08:09:48.997Z</time></trkpt><trkpt lat="45.776885067002254" lon="8.977291755443215"><ele>406.0</ele><time>2026-04-25T08:09:49.997Z</time></trkpt><trkpt lat="45.777005000361264" lon="8.977130586722138"><ele>406.0</ele><time>2026-04-25T08:09:50.997Z</time></trkpt><trkpt lat="45.77712147810904" lon="8.97697603028209"><ele>406.0</ele><time>2026-04-25T08:09:51.997Z</time></trkpt><trkpt lat="45.777233582037695" lon="8.976820514685661"><ele>406.0</ele><time>2026-04-25T08:09:52.997Z</time></trkpt><trkpt lat="45.777340084050174" lon="8.97666561603046"><ele>406.0</ele><time>2026-04-25T08:09:53.997Z</time></trkpt><trkpt lat="45.77745270470721" lon="8.976515374383688"><ele>406.0</ele><time>2026-04-25T08:09:54.997Z</time></trkpt><trkpt lat="45.777567451109405" lon="8.976362520866523"><ele>406.0</ele><time>2026-04-25T08:09:55.997Z</time></trkpt><trkpt lat="45.777680971589895" lon="8.976212089178674"><ele>406.25</ele><time>2026-04-25T08:09:56.997Z</time></trkpt><trkpt lat="45.77778739706067" lon="8.976066950341849"><ele>406.5</ele><time>2026-04-25T08:09:57.997Z</time></trkpt><trkpt lat="45.777896958275214" lon="8.975925307804342"><ele>406.75</ele><time>2026-04-25T08:09:58.997Z</time></trkpt><trkpt lat="45.77800953244254" lon="8.975779462974236"><ele>407.0</ele><time>2026-04-25T08:09:59.997Z</time></trkpt><trkpt lat="45.778122987327905" lon="8.975624437666253"><ele>407.3333333333333</ele><time>2026-04-25T08:10:00.997Z</time></trkpt><trkpt lat="45.77823510653838" lon="8.975472143781815"><ele>407.66666666666663</ele><time>2026-04-25T08:10:01.997Z</time></trkpt><trkpt lat="45.7783466916324" lon="8.975323552062095"><ele>408.0</ele><time>2026-04-25T08:10:02.997Z</time></trkpt><trkpt lat="45.77846705689432" lon="8.97518482403724"><ele>408.5</ele><time>2026-04-25T08:10:03.997Z</time></trkpt><trkpt lat="45.77858995317349" lon="8.975072085786586"><ele>409.0</ele><time>2026-04-25T08:10:04.997Z</time></trkpt><trkpt lat="45.77871818654221" lon="8.97497046369063"><ele>409.5</ele><time>2026-04-25T08:10:05.997Z</time></trkpt><trkpt lat="45.77884908353181" lon="8.974888921782128"><ele>410.0</ele><time>2026-04-25T08:10:06.997Z</time></trkpt><trkpt lat="45.77897296604173" lon="8.974823085102386"><ele>410.0</ele><time>2026-04-25T08:10:07.997Z</time></trkpt><trkpt lat="45.77909521732097" lon="8.974752301094462"><ele>410.0</ele><time>2026-04-25T08:10:08.997Z</time></trkpt><trkpt lat="45.779219256464195" lon="8.974684660839339"><ele>410.0</ele><time>2026-04-25T08:10:09.997Z</time></trkpt><trkpt lat="45.7793343003615" lon="8.974618626440094"><ele>410.0</ele><time>2026-04-25T08:10:10.997Z</time></trkpt><trkpt lat="45.77944357416192" lon="8.974554864214861"><ele>409.8</ele><time>2026-04-25T08:10:11.998Z</time></trkpt><trkpt lat="45.779549451903414" lon="8.974497288369516"><ele>409.6</ele><time>2026-04-25T08:10:12.998Z</time></trkpt><trkpt lat="45.77965060992311" lon="8.974437697060823"><ele>409.4</ele><time>2026-04-25T08:10:13.998Z</time></trkpt><trkpt lat="45.77974636538081" lon="8.974375703714436"><ele>409.2</ele><time>2026-04-25T08:10:14.998Z</time></trkpt><trkpt lat="45.77983786931524" lon="8.974316039615703"><ele>409.0</ele><time>2026-04-25T08:10:15.998Z</time></trkpt><trkpt lat="45.77992928933894" lon="8.97426448944355"><ele>409.0</ele><time>2026-04-25T08:10:16.998Z</time></trkpt><trkpt lat="45.78003274543649" lon="8.974209694676789"><ele>409.0</ele><time>2026-04-25T08:10:17.998Z</time></trkpt><trkpt lat="45.7801471149774" lon="8.97414923433057"><ele>409.0</ele><time>2026-04-25T08:10:18.998Z</time></trkpt><trkpt lat="45.78026208227354" lon="8.97409296205377"><ele>409.0</ele><time>2026-04-25T08:10:19.998Z</time></trkpt><trkpt lat="45.78037068325782" lon="8.974031993838581"><ele>408.79999999999995</ele><time>2026-04-25T08:10:20.998Z</time></trkpt><trkpt lat="45.78047689861603" lon="8.973965432511612"><ele>408.59999999999997</ele><time>2026-04-25T08:10:21.998Z</time></trkpt><trkpt lat="45.780577511537786" lon="8.973903694380438"><ele>408.4</ele><time>2026-04-25T08:10:22.998Z</time></trkpt><trkpt lat="45.78066874464601" lon="8.9738517919597"><ele>408.2</ele><time>2026-04-25T08:10:23.998Z</time></trkpt><trkpt lat="45.78075623369757" lon="8.973798416146135"><ele>408.0</ele><time>2026-04-25T08:10:24.998Z</time></trkpt><trkpt lat="45.780851213868154" lon="8.973737641391592"><ele>408.0</ele><time>2026-04-25T08:10:25.998Z</time></trkpt><trkpt lat="45.78094571378631" lon="8.973683019457802"><ele>408.0</ele><time>2026-04-25T08:10:26.998Z</time></trkpt><trkpt lat="45.78102942003623" lon="8.973634447784676"><ele>408.0</ele><time>2026-04-25T08:10:27.998Z</time></trkpt><trkpt lat="45.781105854082405" lon="8.973591787283567"><ele>408.0</ele><time>2026-04-25T08:10:28.998Z</time></trkpt><trkpt lat="45.78117849662536" lon="8.973554463080387"><ele>408.0</ele><time>2026-04-25T08:10:29.998Z</time></trkpt><trkpt lat="45.78124757177225" lon="8.973517971491546"><ele>408.0</ele><time>2026-04-25T08:10:30.998Z</time></trkpt><trkpt lat="45.781318907471174" lon="8.973478702371773"><ele>407.79999999999995</ele><time>2026-04-25T08:10:31.998Z</time></trkpt><trkpt lat="45.78138956729837" lon="8.973435214608685"><ele>407.6</ele><time>2026-04-25T08:10:32.998Z</time></trkpt><trkpt lat="45.78146094289071" lon="8.973391897183074"><ele>407.4</ele><time>2026-04-25T08:10:33.998Z</time></trkpt><trkpt lat="45.78154740325549" lon="8.973341189204307"><ele>407.20000000000005</ele><time>2026-04-25T08:10:34.998Z</time></trkpt><trkpt lat="45.78164553354899" lon="8.973286430563093"><ele>407.0</ele><time>2026-04-25T08:10:35.998Z</time></trkpt><trkpt lat="45.781741148900224" lon="8.973228809606868"><ele>407.0</ele><time>2026-04-25T08:10:36.998Z</time></trkpt><trkpt lat="45.781839064681826" lon="8.97317136731013"><ele>407.0</ele><time>2026-04-25T08:10:37.998Z</time></trkpt><trkpt lat="45.78193676436009" lon="8.973143193132785"><ele>407.0</ele><time>2026-04-25T08:10:38.998Z</time></trkpt><trkpt lat="45.782029274154" lon="8.973086268745694"><ele>407.0</ele><time>2026-04-25T08:10:39.998Z</time></trkpt><trkpt lat="45.78211979980136" lon="8.973029922648863"><ele>407.0</ele><time>2026-04-25T08:10:40.998Z</time></trkpt><trkpt lat="45.78220501803074" lon="8.972980870271975"><ele>406.8333333333333</ele><time>2026-04-25T08:10:41.998Z</time></trkpt><trkpt lat="45.782279918314735" lon="8.972934464442314"><ele>406.66666666666663</ele><time>2026-04-25T08:10:42.998Z</time></trkpt><trkpt lat="45.78234873545335" lon="8.97289296941146"><ele>406.5</ele><time>2026-04-25T08:10:43.998Z</time></trkpt><trkpt lat="45.782439226057555" lon="8.972835794104627"><ele>406.33333333333337</ele><time>2026-04-25T08:10:45.998Z</time></trkpt><trkpt lat="45.782510492598774" lon="8.972796959406027"><ele>406.1666666666667</ele><time>2026-04-25T08:10:47.998Z</time></trkpt><trkpt lat="45.78260588695466" lon="8.972737142264364"><ele>406.0</ele><time>2026-04-25T08:10:49.995Z</time></trkpt><trkpt lat="45.782701699269666" lon="8.972711223456674"><ele>406.4</ele><time>2026-04-25T08:10:51.995Z</time></trkpt><trkpt lat="45.78278947700868" lon="8.972639025416546"><ele>406.8</ele><time>2026-04-25T08:10:53.996Z</time></trkpt><trkpt lat="45.78288109814338" lon="8.972524604866392"><ele>407.2</ele><time>2026-04-25T08:10:55.996Z</time></trkpt><trkpt lat="45.78291901702396" lon="8.97245121406204"><ele>407.59999999999997</ele><time>2026-04-25T08:10:56.996Z</time></trkpt><trkpt lat="45.78298293896081" lon="8.972306815576681"><ele>408.0</ele><time>2026-04-25T08:10:58.995Z</time></trkpt><trkpt lat="45.78301075406263" lon="8.972208833944167"><ele>407.1666666666667</ele><time>2026-04-25T08:10:59.996Z</time></trkpt><trkpt lat="45.78305319885517" lon="8.972111876200941"><ele>406.33333333333337</ele><time>2026-04-25T08:11:00.996Z</time></trkpt><trkpt lat="45.783078000466624" lon="8.97202850337562"><ele>405.5</ele><time>2026-04-25T08:11:01.996Z</time></trkpt><trkpt lat="45.78312625401069" lon="8.97186974562988"><ele>404.6666666666667</ele><time>2026-04-25T08:11:03.996Z</time></trkpt><trkpt lat="45.78314530718791" lon="8.97176248289427"><ele>403.83333333333337</ele><time>2026-04-25T08:11:05.996Z</time></trkpt><trkpt lat="45.783166566783265" lon="8.971633454364783"><ele>403.0</ele><time>2026-04-25T08:11:08.996Z</time></trkpt><trkpt lat="45.78319915167131" lon="8.971544061729618"><ele>403.0</ele><time>2026-04-25T08:11:16.996Z</time></trkpt><trkpt lat="45.78323256884965" lon="8.971392697912787"><ele>403.0</ele><time>2026-04-25T08:11:18.996Z</time></trkpt><trkpt lat="45.78325095214965" lon="8.971260406770035"><ele>403.0</ele><time>2026-04-25T08:11:19.996Z</time></trkpt><trkpt lat="45.78324712850179" lon="8.971093940850276"><ele>403.0</ele><time>2026-04-25T08:11:20.996Z</time></trkpt><trkpt lat="45.78324300578673" lon="8.970941345583253"><ele>403.0</ele><time>2026-04-25T08:11:21.996Z</time></trkpt><trkpt lat="45.78324356547807" lon="8.970772915336187"><ele>403.25</ele><time>2026-04-25T08:11:22.996Z</time></trkpt><trkpt lat="45.7832607210571" lon="8.970599493170399"><ele>403.5</ele><time>2026-04-25T08:11:23.996Z</time></trkpt><trkpt lat="45.78327672963239" lon="8.970416987874218"><ele>403.75</ele><time>2026-04-25T08:11:24.996Z</time></trkpt><trkpt lat="45.78332441364783" lon="8.97023870804291"><ele>404.0</ele><time>2026-04-25T08:11:25.996Z</time></trkpt><trkpt lat="45.78333408734989" lon="8.970062202144371"><ele>404.79999999999995</ele><time>2026-04-25T08:11:26.996Z</time></trkpt><trkpt lat="45.78334033460078" lon="8.969896331000532"><ele>405.59999999999997</ele><time>2026-04-25T08:11:27.996Z</time></trkpt><trkpt lat="45.7833447913608" lon="8.969740878942158"><ele>406.4</ele><time>2026-04-25T08:11:28.996Z</time></trkpt><trkpt lat="45.78337076405744" lon="8.969585004497322"><ele>407.2</ele><time>2026-04-25T08:11:29.996Z</time></trkpt><trkpt lat="45.78337543670452" lon="8.969429904959252"><ele>408.0</ele><time>2026-04-25T08:11:30.996Z</time></trkpt><trkpt lat="45.78338302270187" lon="8.969303031644941"><ele>408.3333333333333</ele><time>2026-04-25T08:11:31.996Z</time></trkpt><trkpt lat="45.783392388265796" lon="8.969188847893303"><ele>408.66666666666663</ele><time>2026-04-25T08:11:32.996Z</time></trkpt><trkpt lat="45.783416029436204" lon="8.969095578292814"><ele>409.0</ele><time>2026-04-25T08:11:33.996Z</time></trkpt><trkpt lat="45.78344064376876" lon="8.968936614176934"><ele>409.3333333333333</ele><time>2026-04-25T08:11:35.996Z</time></trkpt><trkpt lat="45.78345364620534" lon="8.968815497091677"><ele>409.66666666666663</ele><time>2026-04-25T08:11:37.996Z</time></trkpt><trkpt lat="45.78345849715267" lon="8.968703547985223"><ele>410.0</ele><time>2026-04-25T08:11:39.996Z</time></trkpt><trkpt lat="45.783477083428195" lon="8.968595385354455"><ele>410.0</ele><time>2026-04-25T08:11:41.996Z</time></trkpt><trkpt lat="45.78348688200032" lon="8.968499759920293"><ele>410.0</ele><time>2026-04-25T08:11:42.996Z</time></trkpt><trkpt lat="45.78349459877548" lon="8.968387183799457"><ele>410.0</ele><time>2026-04-25T08:11:43.996Z</time></trkpt><trkpt lat="45.78351415520907" lon="8.968249962031654"><ele>410.0</ele><time>2026-04-25T08:11:44.996Z</time></trkpt><trkpt lat="45.783534412667734" lon="8.968087412787195"><ele>410.0</ele><time>2026-04-25T08:11:45.996Z</time></trkpt><trkpt lat="45.78356135494209" lon="8.96791449158617"><ele>409.6</ele><time>2026-04-25T08:11:46.996Z</time></trkpt><trkpt lat="45.783593176272255" lon="8.967749089444034"><ele>409.2</ele><time>2026-04-25T08:11:47.996Z</time></trkpt><trkpt lat="45.78362051605222" lon="8.96760115645162"><ele>408.79999999999995</ele><time>2026-04-25T08:11:48.996Z</time></trkpt><trkpt lat="45.78364865911621" lon="8.967465292799242"><ele>408.4</ele><time>2026-04-25T08:11:49.996Z</time></trkpt><trkpt lat="45.7836734984131" lon="8.967356906894112"><ele>408.0</ele><time>2026-04-25T08:11:50.996Z</time></trkpt><trkpt lat="45.7836934216837" lon="8.96726789098666"><ele>407.59999999999997</ele><time>2026-04-25T08:11:51.996Z</time></trkpt><trkpt lat="45.783729727236924" lon="8.967134684798499"><ele>407.2</ele><time>2026-04-25T08:11:53.996Z</time></trkpt><trkpt lat="45.783744552948555" lon="8.96703943362273"><ele>406.8</ele><time>2026-04-25T08:11:56.996Z</time></trkpt><trkpt lat="45.78374465177172" lon="8.966880500813199"><ele>406.4</ele><time>2026-04-25T08:12:42.997Z</time></trkpt><trkpt lat="45.783768310408504" lon="8.966777493723571"><ele>406.0</ele><time>2026-04-25T08:12:43.997Z</time></trkpt><trkpt lat="45.783793060992096" lon="8.96664289815422"><ele>406.0</ele><time>2026-04-25T08:12:44.997Z</time></trkpt><trkpt lat="45.783818591472034" lon="8.966505895318683"><ele>406.0</ele><time>2026-04-25T08:12:45.997Z</time></trkpt><trkpt lat="45.78384370951473" lon="8.966349688405657"><ele>406.0</ele><time>2026-04-25T08:12:46.997Z</time></trkpt><trkpt lat="45.78387239982276" lon="8.96618401552704"><ele>406.0</ele><time>2026-04-25T08:12:47.997Z</time></trkpt><trkpt lat="45.78390347751147" lon="8.966022223795914"><ele>406.0</ele><time>2026-04-25T08:12:48.997Z</time></trkpt><trkpt lat="45.78394938631818" lon="8.965845540812968"><ele>406.0</ele><time>2026-04-25T08:12:49.997Z</time></trkpt><trkpt lat="45.78399970838672" lon="8.965668151353462"><ele>406.0</ele><time>2026-04-25T08:12:50.997Z</time></trkpt><trkpt lat="45.784036011438886" lon="8.965472735356991"><ele>406.0</ele><time>2026-04-25T08:12:51.997Z</time></trkpt><trkpt lat="45.784072863969044" lon="8.96528352307824"><ele>406.0</ele><time>2026-04-25T08:12:52.997Z</time></trkpt><trkpt lat="45.78410169267167" lon="8.965107581549168"><ele>406.0</ele><time>2026-04-25T08:12:53.997Z</time></trkpt><trkpt lat="45.78413458606064" lon="8.9649144697334"><ele>406.0</ele><time>2026-04-25T08:12:54.997Z</time></trkpt><trkpt lat="45.7841666734423" lon="8.964709136128864"><ele>406.0</ele><time>2026-04-25T08:12:55.995Z</time></trkpt><trkpt lat="45.784204823903714" lon="8.964505103629923"><ele>406.0</ele><time>2026-04-25T08:12:56.995Z</time></trkpt><trkpt lat="45.78424523044672" lon="8.964299193648078"><ele>405.33333333333337</ele><time>2026-04-25T08:12:57.995Z</time></trkpt><trkpt lat="45.78428331802603" lon="8.964093616351914"><ele>404.66666666666663</ele><time>2026-04-25T08:12:58.996Z</time></trkpt><trkpt lat="45.784321046753156" lon="8.963877283785989"><ele>404.0</ele><time>2026-04-25T08:12:59.995Z</time></trkpt><trkpt lat="45.784364049151954" lon="8.963660442301494"><ele>404.0</ele><time>2026-04-25T08:13:00.995Z</time></trkpt><trkpt lat="45.7844024540702" lon="8.963464490072704"><ele>404.0</ele><time>2026-04-25T08:13:01.995Z</time></trkpt><trkpt lat="45.784435053868826" lon="8.963310830230112"><ele>404.0</ele><time>2026-04-25T08:13:02.995Z</time></trkpt><trkpt lat="45.784471922114506" lon="8.963177101724856"><ele>404.0</ele><time>2026-04-25T08:13:03.995Z</time></trkpt><trkpt lat="45.78450942157391" lon="8.963057320501852"><ele>404.0</ele><time>2026-04-25T08:13:04.995Z</time></trkpt><trkpt lat="45.78452850718754" lon="8.96293602375206"><ele>404.0</ele><time>2026-04-25T08:13:05.995Z</time></trkpt><trkpt lat="45.78454998329504" lon="8.962787757123433"><ele>404.0</ele><time>2026-04-25T08:13:06.995Z</time></trkpt><trkpt lat="45.78461266837948" lon="8.962606811284138"><ele>404.0</ele><time>2026-04-25T08:13:07.995Z</time></trkpt><trkpt lat="45.784684988294785" lon="8.962395078371626"><ele>404.0</ele><time>2026-04-25T08:13:08.996Z</time></trkpt><trkpt lat="45.784755307601856" lon="8.962177920147507"><ele>404.0</ele><time>2026-04-25T08:13:09.996Z</time></trkpt><trkpt lat="45.78482307466394" lon="8.961978943693602"><ele>404.0</ele><time>2026-04-25T08:13:10.996Z</time></trkpt><trkpt lat="45.78488888532032" lon="8.96178203844078"><ele>404.0</ele><time>2026-04-25T08:13:11.996Z</time></trkpt><trkpt lat="45.78495703000541" lon="8.96158048003833"><ele>404.0</ele><time>2026-04-25T08:13:12.996Z</time></trkpt><trkpt lat="45.785024035004035" lon="8.961390980804454"><ele>404.0</ele><time>2026-04-25T08:13:13.996Z</time></trkpt><trkpt lat="45.785086865867186" lon="8.961207340338389"><ele>404.0</ele><time>2026-04-25T08:13:14.996Z</time></trkpt><trkpt lat="45.78514719490428" lon="8.961034518102313"><ele>404.0</ele><time>2026-04-25T08:13:15.996Z</time></trkpt><trkpt lat="45.78520220841652" lon="8.960873181775423"><ele>404.0</ele><time>2026-04-25T08:13:16.996Z</time></trkpt><trkpt lat="45.78525444416072" lon="8.960719134049917"><ele>404.0</ele><time>2026-04-25T08:13:17.996Z</time></trkpt><trkpt lat="45.78530228299387" lon="8.960574770984847"><ele>404.0</ele><time>2026-04-25T08:13:18.996Z</time></trkpt><trkpt lat="45.785348344585536" lon="8.960439384973595"><ele>404.0</ele><time>2026-04-25T08:13:19.996Z</time></trkpt><trkpt lat="45.785391385129415" lon="8.960310601088656"><ele>404.0</ele><time>2026-04-25T08:13:20.996Z</time></trkpt><trkpt lat="45.78543576207162" lon="8.96018955536311"><ele>404.0</ele><time>2026-04-25T08:13:21.996Z</time></trkpt><trkpt lat="45.7854747885958" lon="8.960072688862368"><ele>404.0</ele><time>2026-04-25T08:13:22.996Z</time></trkpt><trkpt lat="45.78551595356127" lon="8.95994522722033"><ele>404.0</ele><time>2026-04-25T08:13:23.996Z</time></trkpt><trkpt lat="45.78556151504857" lon="8.959816203966794"><ele>404.0</ele><time>2026-04-25T08:13:24.996Z</time></trkpt><trkpt lat="45.78560532215643" lon="8.959696536754901"><ele>404.0</ele><time>2026-04-25T08:13:25.996Z</time></trkpt><trkpt lat="45.78564585275281" lon="8.959583263729202"><ele>403.66666666666663</ele><time>2026-04-25T08:13:26.996Z</time></trkpt><trkpt lat="45.78567941567858" lon="8.959479872532656"><ele>403.3333333333333</ele><time>2026-04-25T08:13:27.996Z</time></trkpt><trkpt lat="45.785715026041494" lon="8.959367189654941"><ele>403.0</ele><time>2026-04-25T08:13:28.996Z</time></trkpt><trkpt lat="45.78575256390309" lon="8.959253922859624"><ele>402.66666666666663</ele><time>2026-04-25T08:13:29.996Z</time></trkpt><trkpt lat="45.78579030744554" lon="8.959147024446462"><ele>402.3333333333333</ele><time>2026-04-25T08:13:30.996Z</time></trkpt><trkpt lat="45.785822748038214" lon="8.959047544120553"><ele>402.0</ele><time>2026-04-25T08:13:31.996Z</time></trkpt><trkpt lat="45.78585740647864" lon="8.958944114243579"><ele>401.85714285714283</ele><time>2026-04-25T08:13:32.996Z</time></trkpt><trkpt lat="45.785892203230986" lon="8.958848964107673"><ele>401.7142857142857</ele><time>2026-04-25T08:13:33.996Z</time></trkpt><trkpt lat="45.785923304574034" lon="8.958760107776246"><ele>401.57142857142856</ele><time>2026-04-25T08:13:34.996Z</time></trkpt><trkpt lat="45.7859512407742" lon="8.958668307141883"><ele>401.42857142857144</ele><time>2026-04-25T08:13:35.996Z</time></trkpt><trkpt lat="45.785979951633614" lon="8.958576323245039"><ele>401.28571428571433</ele><time>2026-04-25T08:13:36.996Z</time></trkpt><trkpt lat="45.78601311824621" lon="8.958482283936721"><ele>401.14285714285717</ele><time>2026-04-25T08:13:37.996Z</time></trkpt><trkpt lat="45.7860447057376" lon="8.958399436992812"><ele>401.0</ele><time>2026-04-25T08:13:38.996Z</time></trkpt><trkpt lat="45.78609300672514" lon="8.958257555852214"><ele>401.3333333333333</ele><time>2026-04-25T08:13:40.996Z</time></trkpt><trkpt lat="45.78613319093931" lon="8.958136216668164"><ele>401.66666666666663</ele><time>2026-04-25T08:13:42.996Z</time></trkpt><trkpt lat="45.7861675563291" lon="8.958027243616991"><ele>402.0</ele><time>2026-04-25T08:13:44.996Z</time></trkpt><trkpt lat="45.786190722603436" lon="8.957930364062346"><ele>402.33333333333337</ele><time>2026-04-25T08:13:46.996Z</time></trkpt><trkpt lat="45.78623304344197" lon="8.95781753786664"><ele>402.6666666666667</ele><time>2026-04-25T08:13:48.996Z</time></trkpt><trkpt lat="45.78628066239338" lon="8.957736930476798"><ele>403.0</ele><time>2026-04-25T08:13:52.996Z</time></trkpt><trkpt lat="45.78630163380443" lon="8.957624519070377"><ele>402.79999999999995</ele><time>2026-04-25T08:13:56.997Z</time></trkpt><trkpt lat="45.786382924799895" lon="8.957527547916463"><ele>402.6</ele><time>2026-04-25T08:14:09.997Z</time></trkpt><trkpt lat="45.7864625773678" lon="8.957383125736067"><ele>402.4</ele><time>2026-04-25T08:14:11.997Z</time></trkpt><trkpt lat="45.78652754217517" lon="8.957316006072137"><ele>402.20000000000005</ele><time>2026-04-25T08:14:12.997Z</time></trkpt><trkpt lat="45.786591214545716" lon="8.957273317025987"><ele>402.0</ele><time>2026-04-25T08:14:13.997Z</time></trkpt><trkpt lat="45.78667151210736" lon="8.957224757382086"><ele>402.0</ele><time>2026-04-25T08:14:14.997Z</time></trkpt><trkpt lat="45.78673063861294" lon="8.957164827518934"><ele>402.0</ele><time>2026-04-25T08:14:15.997Z</time></trkpt><trkpt lat="45.78680083031972" lon="8.957164148078801"><ele>402.0</ele><time>2026-04-25T08:14:16.997Z</time></trkpt><trkpt lat="45.78689156558416" lon="8.957084181882006"><ele>402.0</ele><time>2026-04-25T08:14:18.997Z</time></trkpt><trkpt lat="45.78694491800828" lon="8.956945493964165"><ele>402.0</ele><time>2026-04-25T08:14:20.997Z</time></trkpt><trkpt lat="45.786952806513206" lon="8.956844957862025"><ele>402.0</ele><time>2026-04-25T08:14:21.997Z</time></trkpt><trkpt lat="45.786945854586506" lon="8.956740256903464"><ele>402.3333333333333</ele><time>2026-04-25T08:14:22.997Z</time></trkpt><trkpt lat="45.786926212767256" lon="8.956645302337524"><ele>402.66666666666663</ele><time>2026-04-25T08:14:23.997Z</time></trkpt><trkpt lat="45.78690602323035" lon="8.956553114706265"><ele>403.0</ele><time>2026-04-25T08:14:24.997Z</time></trkpt><trkpt lat="45.78688263500232" lon="8.956453164317997"><ele>403.3333333333333</ele><time>2026-04-25T08:14:25.997Z</time></trkpt><trkpt lat="45.78687036188684" lon="8.956337600977532"><ele>403.66666666666663</ele><time>2026-04-25T08:14:26.997Z</time></trkpt><trkpt lat="45.78686564513838" lon="8.956217659914739"><ele>404.0</ele><time>2026-04-25T08:14:27.997Z</time></trkpt><trkpt lat="45.78687787354331" lon="8.956090927016367"><ele>404.0</ele><time>2026-04-25T08:14:28.997Z</time></trkpt><trkpt lat="45.786906036595695" lon="8.955962579719797"><ele>404.0</ele><time>2026-04-25T08:14:29.997Z</time></trkpt><trkpt lat="45.78694004187487" lon="8.95583386590636"><ele>404.0</ele><time>2026-04-25T08:14:30.997Z</time></trkpt><trkpt lat="45.78697756669046" lon="8.955713599903863"><ele>404.0</ele><time>2026-04-25T08:14:31.997Z</time></trkpt><trkpt lat="45.787019042318576" lon="8.955590165089038"><ele>404.0</ele><time>2026-04-25T08:14:32.997Z</time></trkpt><trkpt lat="45.78706151207615" lon="8.955471329447095"><ele>404.3333333333333</ele><time>2026-04-25T08:14:33.997Z</time></trkpt><trkpt lat="45.78710392001478" lon="8.955353593155566"><ele>404.66666666666663</ele><time>2026-04-25T08:14:34.997Z</time></trkpt><trkpt lat="45.78713945556906" lon="8.95524695837593"><ele>405.0</ele><time>2026-04-25T08:14:35.997Z</time></trkpt><trkpt lat="45.78717239832446" lon="8.955157313385069"><ele>405.33333333333337</ele><time>2026-04-25T08:14:36.997Z</time></trkpt><trkpt lat="45.787231190391005" lon="8.954997839086598"><ele>405.6666666666667</ele><time>2026-04-25T08:14:38.997Z</time></trkpt><trkpt lat="45.78726009016582" lon="8.95491033580624"><ele>406.0</ele><time>2026-04-25T08:14:39.997Z</time></trkpt><trkpt lat="45.787294429623934" lon="8.9547743064433"><ele>406.0</ele><time>2026-04-25T08:14:40.997Z</time></trkpt><trkpt lat="45.787343277108135" lon="8.954598543308036"><ele>406.0</ele><time>2026-04-25T08:14:41.997Z</time></trkpt><trkpt lat="45.78740970472678" lon="8.954405843020039"><ele>406.0</ele><time>2026-04-25T08:14:42.997Z</time></trkpt><trkpt lat="45.78748675893264" lon="8.954212447064966"><ele>406.0</ele><time>2026-04-25T08:14:43.997Z</time></trkpt><trkpt lat="45.78755717012232" lon="8.954004202165235"><ele>405.33333333333337</ele><time>2026-04-25T08:14:44.997Z</time></trkpt><trkpt lat="45.78762851338676" lon="8.953792051448305"><ele>404.66666666666663</ele><time>2026-04-25T08:14:45.997Z</time></trkpt><trkpt lat="45.78769960789857" lon="8.953586156692094"><ele>404.0</ele><time>2026-04-25T08:14:46.997Z</time></trkpt><trkpt lat="45.78776424003722" lon="8.953395609386702"><ele>405.5</ele><time>2026-04-25T08:14:47.997Z</time></trkpt><trkpt lat="45.787830347219554" lon="8.953199352781898"><ele>407.0</ele><time>2026-04-25T08:14:48.997Z</time></trkpt><trkpt lat="45.78788958398071" lon="8.953019839271478"><ele>408.5</ele><time>2026-04-25T08:14:49.997Z</time></trkpt><trkpt lat="45.787944791967995" lon="8.95285075249166"><ele>410.0</ele><time>2026-04-25T08:14:50.997Z</time></trkpt><trkpt lat="45.78799992191098" lon="8.952696394397988"><ele>410.0</ele><time>2026-04-25T08:14:51.997Z</time></trkpt><trkpt lat="45.78804745630227" lon="8.952554108892787"><ele>410.0</ele><time>2026-04-25T08:14:52.997Z</time></trkpt><trkpt lat="45.7880915796094" lon="8.952422220283665"><ele>410.0</ele><time>2026-04-25T08:14:53.997Z</time></trkpt><trkpt lat="45.78813344117509" lon="8.952304166617141"><ele>410.0</ele><time>2026-04-25T08:14:54.997Z</time></trkpt><trkpt lat="45.788172472480454" lon="8.952196258644216"><ele>410.0</ele><time>2026-04-25T08:14:55.997Z</time></trkpt><trkpt lat="45.78820648263347" lon="8.952091766313227"><ele>410.49999999999994</ele><time>2026-04-25T08:14:56.997Z</time></trkpt><trkpt lat="45.78824036948034" lon="8.951986842722517"><ele>411.0</ele><time>2026-04-25T08:14:57.997Z</time></trkpt><trkpt lat="45.78827972705255" lon="8.95187228900514"><ele>411.5</ele><time>2026-04-25T08:14:58.997Z</time></trkpt><trkpt lat="45.7883167190087" lon="8.951759948415496"><ele>412.0</ele><time>2026-04-25T08:14:59.997Z</time></trkpt><trkpt lat="45.78834937925889" lon="8.951656081575559"><ele>412.49999999999994</ele><time>2026-04-25T08:15:00.997Z</time></trkpt><trkpt lat="45.78837686087471" lon="8.951555535234975"><ele>413.0</ele><time>2026-04-25T08:15:01.996Z</time></trkpt><trkpt lat="45.78839935955534" lon="8.951454139012133"><ele>413.0</ele><time>2026-04-25T08:15:02.995Z</time></trkpt><trkpt lat="45.78838149190229" lon="8.951356507930393"><ele>413.0</ele><time>2026-04-25T08:15:03.995Z</time></trkpt><trkpt lat="45.78844343196305" lon="8.951228130356183"><ele>413.0</ele><time>2026-04-25T08:15:04.995Z</time></trkpt><trkpt lat="45.78848361831837" lon="8.951079597642662"><ele>413.0</ele><time>2026-04-25T08:15:05.996Z</time></trkpt><trkpt lat="45.788530122170556" lon="8.950915936400168"><ele>413.0</ele><time>2026-04-25T08:15:06.996Z</time></trkpt><trkpt lat="45.78855244118003" lon="8.950754825510279"><ele>413.25</ele><time>2026-04-25T08:15:07.995Z</time></trkpt><trkpt lat="45.78854333617121" lon="8.9505870722497"><ele>413.5</ele><time>2026-04-25T08:15:08.995Z</time></trkpt><trkpt lat="45.78851984929818" lon="8.950404277887"><ele>413.75</ele><time>2026-04-25T08:15:09.995Z</time></trkpt><trkpt lat="45.78849322399014" lon="8.950207726983209"><ele>414.0</ele><time>2026-04-25T08:15:10.995Z</time></trkpt><trkpt lat="45.78846787144118" lon="8.950007485074385"><ele>414.5</ele><time>2026-04-25T08:15:11.995Z</time></trkpt><trkpt lat="45.788444187284234" lon="8.949802399186003"><ele>415.0</ele><time>2026-04-25T08:15:12.995Z</time></trkpt><trkpt lat="45.78841738272732" lon="8.94959638724266"><ele>415.5</ele><time>2026-04-25T08:15:13.995Z</time></trkpt><trkpt lat="45.78839138541268" lon="8.949395782067239"><ele>416.0</ele><time>2026-04-25T08:15:14.995Z</time></trkpt><trkpt lat="45.78836366919542" lon="8.949192589372887"><ele>416.0</ele><time>2026-04-25T08:15:15.995Z</time></trkpt><trkpt lat="45.788338216112805" lon="8.948987247809715"><ele>416.0</ele><time>2026-04-25T08:15:16.995Z</time></trkpt><trkpt lat="45.78831089530118" lon="8.948781974524834"><ele>416.0</ele><time>2026-04-25T08:15:17.995Z</time></trkpt><trkpt lat="45.78828062746179" lon="8.948575730812315"><ele>416.0</ele><time>2026-04-25T08:15:18.995Z</time></trkpt><trkpt lat="45.78824912002363" lon="8.948375456666291"><ele>416.6</ele><time>2026-04-25T08:15:19.995Z</time></trkpt><trkpt lat="45.78822520285726" lon="8.948175665086465"><ele>417.20000000000005</ele><time>2026-04-25T08:15:20.995Z</time></trkpt><trkpt lat="45.788211177750874" lon="8.948049043443136"><ele>417.79999999999995</ele><time>2026-04-25T08:15:21.995Z</time></trkpt><trkpt lat="45.7882107992554" lon="8.947945559099681"><ele>418.4</ele><time>2026-04-25T08:16:13.996Z</time></trkpt><trkpt lat="45.78818014970517" lon="8.947754579953193"><ele>419.0</ele><time>2026-04-25T08:16:15.996Z</time></trkpt><trkpt lat="45.78815696366659" lon="8.947657206679823"><ele>420.0</ele><time>2026-04-25T08:16:16.996Z</time></trkpt><trkpt lat="45.78813661187053" lon="8.94753333874871"><ele>421.0</ele><time>2026-04-25T08:16:17.996Z</time></trkpt><trkpt lat="45.78812262088921" lon="8.94738786454593"><ele>422.0</ele><time>2026-04-25T08:16:18.996Z</time></trkpt><trkpt lat="45.788117893001655" lon="8.947233243892779"><ele>423.0</ele><time>2026-04-25T08:16:19.996Z</time></trkpt><trkpt lat="45.78812685802265" lon="8.94707114656866"><ele>424.0</ele><time>2026-04-25T08:16:20.996Z</time></trkpt><trkpt lat="45.78814964371432" lon="8.946892022353667"><ele>424.25</ele><time>2026-04-25T08:16:21.996Z</time></trkpt><trkpt lat="45.788171842521514" lon="8.946703063501507"><ele>424.5</ele><time>2026-04-25T08:16:22.996Z</time></trkpt><trkpt lat="45.78820443835853" lon="8.946498456467541"><ele>424.75</ele><time>2026-04-25T08:16:23.996Z</time></trkpt><trkpt lat="45.788231893299276" lon="8.94627618198785"><ele>425.0</ele><time>2026-04-25T08:16:24.996Z</time></trkpt><trkpt lat="45.78826182026984" lon="8.946048656062706"><ele>425.3333333333333</ele><time>2026-04-25T08:16:25.996Z</time></trkpt><trkpt lat="45.7882949955227" lon="8.945813471572869"><ele>425.66666666666663</ele><time>2026-04-25T08:16:26.996Z</time></trkpt><trkpt lat="45.78832869556051" lon="8.945588091505357"><ele>426.0</ele><time>2026-04-25T08:16:27.996Z</time></trkpt><trkpt lat="45.78836198946485" lon="8.94535263469235"><ele>426.0</ele><time>2026-04-25T08:16:28.996Z</time></trkpt><trkpt lat="45.78839564014881" lon="8.945120269982986"><ele>426.0</ele><time>2026-04-25T08:16:29.996Z</time></trkpt><trkpt lat="45.78842933822774" lon="8.94488463591026"><ele>426.0</ele><time>2026-04-25T08:16:30.996Z</time></trkpt><trkpt lat="45.788464828778146" lon="8.944644952010663"><ele>425.33333333333337</ele><time>2026-04-25T08:16:31.996Z</time></trkpt><trkpt lat="45.788502010218274" lon="8.944410485607001"><ele>424.6666666666667</ele><time>2026-04-25T08:16:32.996Z</time></trkpt><trkpt lat="45.788538656708894" lon="8.944172079845353"><ele>424.0</ele><time>2026-04-25T08:16:33.996Z</time></trkpt><trkpt lat="45.78857516387764" lon="8.94393639543338"><ele>424.0</ele><time>2026-04-25T08:16:34.996Z</time></trkpt><trkpt lat="45.788612212491294" lon="8.943694478036681"><ele>424.0</ele><time>2026-04-25T08:16:35.996Z</time></trkpt><trkpt lat="45.788646676506346" lon="8.943459905477145"><ele>424.0</ele><time>2026-04-25T08:16:36.996Z</time></trkpt><trkpt lat="45.78868236919429" lon="8.943226954195234"><ele>424.33333333333337</ele><time>2026-04-25T08:16:37.996Z</time></trkpt><trkpt lat="45.78871957799445" lon="8.942987512248184"><ele>424.66666666666663</ele><time>2026-04-25T08:16:38.996Z</time></trkpt><trkpt lat="45.78875247311305" lon="8.942742863518776"><ele>425.0</ele><time>2026-04-25T08:16:39.996Z</time></trkpt><trkpt lat="45.78878806105503" lon="8.942507705672137"><ele>425.66666666666663</ele><time>2026-04-25T08:16:40.996Z</time></trkpt><trkpt lat="45.78881995423081" lon="8.942278752302567"><ele>426.33333333333337</ele><time>2026-04-25T08:16:41.996Z</time></trkpt><trkpt lat="45.78885398093385" lon="8.942042928713482"><ele>427.0</ele><time>2026-04-25T08:16:42.996Z</time></trkpt><trkpt lat="45.78889165522641" lon="8.941804881626117"><ele>428.0</ele><time>2026-04-25T08:16:43.996Z</time></trkpt><trkpt lat="45.78892486789693" lon="8.941559659265751"><ele>429.0</ele><time>2026-04-25T08:16:44.996Z</time></trkpt><trkpt lat="45.788960180556955" lon="8.941311872485043"><ele>430.0</ele><time>2026-04-25T08:16:45.996Z</time></trkpt><trkpt lat="45.78899325249981" lon="8.94105948649384"><ele>430.6666666666667</ele><time>2026-04-25T08:16:46.996Z</time></trkpt><trkpt lat="45.78903103746301" lon="8.940805829272408"><ele>431.33333333333337</ele><time>2026-04-25T08:16:47.996Z</time></trkpt><trkpt lat="45.78906985787467" lon="8.94053986703513"><ele>432.0</ele><time>2026-04-25T08:16:48.996Z</time></trkpt><trkpt lat="45.789102654152735" lon="8.940300655194916"><ele>432.0</ele><time>2026-04-25T08:16:49.997Z</time></trkpt><trkpt lat="45.78913534721899" lon="8.940065828435058"><ele>432.0</ele><time>2026-04-25T08:16:50.997Z</time></trkpt><trkpt lat="45.78917016572808" lon="8.939823359366834"><ele>432.0</ele><time>2026-04-25T08:16:51.997Z</time></trkpt><trkpt lat="45.789203654730855" lon="8.939583972629938"><ele>432.66666666666663</ele><time>2026-04-25T08:16:52.997Z</time></trkpt><trkpt lat="45.78923804220507" lon="8.939346611837012"><ele>433.3333333333333</ele><time>2026-04-25T08:16:53.997Z</time></trkpt><trkpt lat="45.789272119598316" lon="8.93911416660093"><ele>434.0</ele><time>2026-04-25T08:16:54.997Z</time></trkpt><trkpt lat="45.7893062036526" lon="8.938880082458988"><ele>434.66666666666663</ele><time>2026-04-25T08:16:55.997Z</time></trkpt><trkpt lat="45.78934054731571" lon="8.938641065842067"><ele>435.33333333333337</ele><time>2026-04-25T08:16:56.997Z</time></trkpt><trkpt lat="45.78937073801773" lon="8.938402797985292"><ele>436.0</ele><time>2026-04-25T08:16:57.997Z</time></trkpt><trkpt lat="45.789403535602105" lon="8.938167686803322"><ele>437.0</ele><time>2026-04-25T08:16:58.997Z</time></trkpt><trkpt lat="45.78944010531029" lon="8.93793657054548"><ele>438.0</ele><time>2026-04-25T08:16:59.997Z</time></trkpt><trkpt lat="45.78947070146875" lon="8.937702348302981"><ele>439.0</ele><time>2026-04-25T08:17:00.997Z</time></trkpt><trkpt lat="45.78950417215278" lon="8.93747123916965"><ele>439.33333333333337</ele><time>2026-04-25T08:17:01.997Z</time></trkpt><trkpt lat="45.789537060183235" lon="8.937248922921585"><ele>439.66666666666663</ele><time>2026-04-25T08:17:02.997Z</time></trkpt><trkpt lat="45.78956757262754" lon="8.937033152336305"><ele>440.0</ele><time>2026-04-25T08:17:03.997Z</time></trkpt><trkpt lat="45.78959684728945" lon="8.936826422571535"><ele>441.5</ele><time>2026-04-25T08:17:04.997Z</time></trkpt><trkpt lat="45.78962228746087" lon="8.936628466051985"><ele>443.0</ele><time>2026-04-25T08:17:05.997Z</time></trkpt><trkpt lat="45.789643908238155" lon="8.936439629376578"><ele>444.5</ele><time>2026-04-25T08:17:06.997Z</time></trkpt><trkpt lat="45.789649291531056" lon="8.936251057797673"><ele>446.0</ele><time>2026-04-25T08:17:07.994Z</time></trkpt><trkpt lat="45.789632203467015" lon="8.936088905384839"><ele>446.0</ele><time>2026-04-25T08:17:08.995Z</time></trkpt><trkpt lat="45.78958623222079" lon="8.935924094739324"><ele>446.0</ele><time>2026-04-25T08:17:09.995Z</time></trkpt><trkpt lat="45.7895197283969" lon="8.935783160343158"><ele>446.0</ele><time>2026-04-25T08:17:10.995Z</time></trkpt><trkpt lat="45.78944023561111" lon="8.935685956176815"><ele>446.0</ele><time>2026-04-25T08:17:11.994Z</time></trkpt><trkpt lat="45.789366205906546" lon="8.935612083613758"><ele>446.0</ele><time>2026-04-25T08:17:12.994Z</time></trkpt><trkpt lat="45.78930520427846" lon="8.935543847184338"><ele>446.49999999999994</ele><time>2026-04-25T08:17:13.995Z</time></trkpt><trkpt lat="45.78925750816356" lon="8.93547269187812"><ele>447.0</ele><time>2026-04-25T08:17:14.995Z</time></trkpt><trkpt lat="45.7892131425507" lon="8.935395073750366"><ele>447.5</ele><time>2026-04-25T08:17:15.995Z</time></trkpt><trkpt lat="45.78916734379212" lon="8.93528793915063"><ele>448.0</ele><time>2026-04-25T08:17:16.995Z</time></trkpt><trkpt lat="45.78912601079765" lon="8.93516103613556"><ele>448.49999999999994</ele><time>2026-04-25T08:17:17.995Z</time></trkpt><trkpt lat="45.78909791970339" lon="8.935021900694434"><ele>449.0</ele><time>2026-04-25T08:17:18.995Z</time></trkpt><trkpt lat="45.78907050410437" lon="8.93487356997422"><ele>449.0</ele><time>2026-04-25T08:17:19.995Z</time></trkpt><trkpt lat="45.78903904646457" lon="8.934717223996923"><ele>449.0</ele><time>2026-04-25T08:17:20.994Z</time></trkpt><trkpt lat="45.7890091846725" lon="8.934578125158684"><ele>449.0</ele><time>2026-04-25T08:17:21.995Z</time></trkpt><trkpt lat="45.78898237913078" lon="8.93444639268539"><ele>449.0</ele><time>2026-04-25T08:17:22.995Z</time></trkpt><trkpt lat="45.78895622575914" lon="8.934323830545143"><ele>449.0</ele><time>2026-04-25T08:17:23.995Z</time></trkpt><trkpt lat="45.78893534802222" lon="8.934210575568777"><ele>448.99999999999994</ele><time>2026-04-25T08:17:24.995Z</time></trkpt><trkpt lat="45.78891358960951" lon="8.93409990724578"><ele>449.0</ele><time>2026-04-25T08:17:25.995Z</time></trkpt><trkpt lat="45.788893710126835" lon="8.933993102772133"><ele>449.0</ele><time>2026-04-25T08:17:26.995Z</time></trkpt><trkpt lat="45.7888699774686" lon="8.933878135943539"><ele>449.0</ele><time>2026-04-25T08:17:27.995Z</time></trkpt><trkpt lat="45.7888516391934" lon="8.933767997808042"><ele>448.99999999999994</ele><time>2026-04-25T08:17:28.995Z</time></trkpt><trkpt lat="45.788836343356756" lon="8.933654144718583"><ele>449.0</ele><time>2026-04-25T08:17:29.995Z</time></trkpt><trkpt lat="45.7888167252848" lon="8.933534617680593"><ele>449.0</ele><time>2026-04-25T08:17:30.995Z</time></trkpt><trkpt lat="45.788798647447436" lon="8.93342152092584"><ele>448.99999999999994</ele><time>2026-04-25T08:17:31.995Z</time></trkpt><trkpt lat="45.788774774740766" lon="8.933312075991223"><ele>449.0</ele><time>2026-04-25T08:17:32.995Z</time></trkpt><trkpt lat="45.78874444151636" lon="8.933210798642742"><ele>449.0</ele><time>2026-04-25T08:17:33.995Z</time></trkpt><trkpt lat="45.7887056728795" lon="8.933131243410102"><ele>448.99999999999994</ele><time>2026-04-25T08:17:34.995Z</time></trkpt><trkpt lat="45.788667145232374" lon="8.933050055933265"><ele>449.0</ele><time>2026-04-25T08:17:35.995Z</time></trkpt><trkpt lat="45.788626536580885" lon="8.932958899367678"><ele>449.0</ele><time>2026-04-25T08:17:36.995Z</time></trkpt><trkpt lat="45.78858553768883" lon="8.932867285234423"><ele>448.71428571428567</ele><time>2026-04-25T08:17:37.995Z</time></trkpt><trkpt lat="45.78854800222324" lon="8.932785303971025"><ele>448.4285714285714</ele><time>2026-04-25T08:17:38.995Z</time></trkpt><trkpt lat="45.788510805049114" lon="8.932701273425714"><ele>448.1428571428571</ele><time>2026-04-25T08:17:39.995Z</time></trkpt><trkpt lat="45.78847333346435" lon="8.932616992742231"><ele>447.85714285714283</ele><time>2026-04-25T08:17:40.995Z</time></trkpt><trkpt lat="45.78843415579171" lon="8.93253557377688"><ele>447.57142857142856</ele><time>2026-04-25T08:17:41.995Z</time></trkpt><trkpt lat="45.7883889565458" lon="8.932449870294864"><ele>447.2857142857142</ele><time>2026-04-25T08:17:42.995Z</time></trkpt><trkpt lat="45.78835846729407" lon="8.93233976117005"><ele>447.0</ele><time>2026-04-25T08:17:43.995Z</time></trkpt><trkpt lat="45.78831382078729" lon="8.932241653507702"><ele>446.0</ele><time>2026-04-25T08:17:44.995Z</time></trkpt><trkpt lat="45.78826767642321" lon="8.93214011110205"><ele>445.00000000000006</ele><time>2026-04-25T08:17:45.995Z</time></trkpt><trkpt lat="45.788217417164574" lon="8.932029266201317"><ele>444.00000000000006</ele><time>2026-04-25T08:17:46.995Z</time></trkpt><trkpt lat="45.788161941249506" lon="8.93190655494482"><ele>443.0</ele><time>2026-04-25T08:17:47.995Z</time></trkpt><trkpt lat="45.788107255198476" lon="8.931788283088204"><ele>442.0</ele><time>2026-04-25T08:17:48.995Z</time></trkpt><trkpt lat="45.78805438801708" lon="8.931671844454703"><ele>441.6666666666667</ele><time>2026-04-25T08:17:49.995Z</time></trkpt><trkpt lat="45.788006608846686" lon="8.931567565494248"><ele>441.33333333333337</ele><time>2026-04-25T08:17:50.995Z</time></trkpt><trkpt lat="45.787966583195384" lon="8.931480337916414"><ele>441.0</ele><time>2026-04-25T08:17:51.995Z</time></trkpt><trkpt lat="45.78792870518936" lon="8.931397782810029"><ele>440.66666666666663</ele><time>2026-04-25T08:17:52.995Z</time></trkpt><trkpt lat="45.787880620678585" lon="8.93133446480592"><ele>440.3333333333333</ele><time>2026-04-25T08:17:53.995Z</time></trkpt><trkpt lat="45.787833209309056" lon="8.93118382316672"><ele>440.0</ele><time>2026-04-25T08:17:55.995Z</time></trkpt><trkpt lat="45.7878014087462" lon="8.93095410818582"><ele>439.49999999999994</ele><time>2026-04-25T08:17:58.995Z</time></trkpt><trkpt lat="45.7877966775666" lon="8.93084659214669"><ele>439.0</ele><time>2026-04-25T08:17:59.995Z</time></trkpt><trkpt lat="45.787792289063006" lon="8.930718292653735"><ele>438.5</ele><time>2026-04-25T08:18:00.995Z</time></trkpt><trkpt lat="45.78776274244152" lon="8.930597963439087"><ele>438.0</ele><time>2026-04-25T08:18:01.995Z</time></trkpt><trkpt lat="45.787719029694024" lon="8.930502739319895"><ele>437.49999999999994</ele><time>2026-04-25T08:18:02.995Z</time></trkpt><trkpt lat="45.78765500096752" lon="8.93041705566459"><ele>437.0</ele><time>2026-04-25T08:18:03.995Z</time></trkpt><trkpt lat="45.78757641281488" lon="8.930339086658117"><ele>436.6</ele><time>2026-04-25T08:18:04.995Z</time></trkpt><trkpt lat="45.78749117475771" lon="8.930257714370038"><ele>436.20000000000005</ele><time>2026-04-25T08:18:05.995Z</time></trkpt><trkpt lat="45.787420264539776" lon="8.930155790151428"><ele>435.8</ele><time>2026-04-25T08:18:06.995Z</time></trkpt><trkpt lat="45.787367657352945" lon="8.930033813887707"><ele>435.4</ele><time>2026-04-25T08:18:07.995Z</time></trkpt><trkpt lat="45.787327987974685" lon="8.929885411702903"><ele>435.0</ele><time>2026-04-25T08:18:08.995Z</time></trkpt><trkpt lat="45.787292436509446" lon="8.929721584454462"><ele>435.0</ele><time>2026-04-25T08:18:09.995Z</time></trkpt><trkpt lat="45.787256819402685" lon="8.92954893974042"><ele>435.0</ele><time>2026-04-25T08:18:10.995Z</time></trkpt><trkpt lat="45.787221281507996" lon="8.92936266960921"><ele>435.0</ele><time>2026-04-25T08:18:11.995Z</time></trkpt><trkpt lat="45.78719116305699" lon="8.92916075917381"><ele>435.0</ele><time>2026-04-25T08:18:12.995Z</time></trkpt><trkpt lat="45.78716477812678" lon="8.928950191025013"><ele>435.0</ele><time>2026-04-25T08:18:13.995Z</time></trkpt><trkpt lat="45.78713492015083" lon="8.928731293948122"><ele>435.0</ele><time>2026-04-25T08:18:14.995Z</time></trkpt><trkpt lat="45.78709987819459" lon="8.928490106120819"><ele>435.0</ele><time>2026-04-25T08:18:15.995Z</time></trkpt><trkpt lat="45.78705535906325" lon="8.928203415717615"><ele>434.66666666666663</ele><time>2026-04-25T08:18:16.995Z</time></trkpt><trkpt lat="45.78701966362288" lon="8.927918933845751"><ele>434.3333333333333</ele><time>2026-04-25T08:18:17.995Z</time></trkpt><trkpt lat="45.78698904679628" lon="8.927651621276187"><ele>434.0</ele><time>2026-04-25T08:18:18.995Z</time></trkpt><trkpt lat="45.786957065986904" lon="8.927380304002837"><ele>433.66666666666663</ele><time>2026-04-25T08:18:19.995Z</time></trkpt><trkpt lat="45.78693260704447" lon="8.927125273845213"><ele>433.33333333333337</ele><time>2026-04-25T08:18:20.995Z</time></trkpt><trkpt lat="45.78690594280271" lon="8.926883264403784"><ele>433.0</ele><time>2026-04-25T08:18:21.995Z</time></trkpt><trkpt lat="45.786877864863314" lon="8.926655173028143"><ele>432.6666666666667</ele><time>2026-04-25T08:18:22.995Z</time></trkpt><trkpt lat="45.786849260201116" lon="8.926429429543196"><ele>432.33333333333337</ele><time>2026-04-25T08:18:23.995Z</time></trkpt><trkpt lat="45.78681449144874" lon="8.926162209959852"><ele>432.0</ele><time>2026-04-25T08:18:24.995Z</time></trkpt><trkpt lat="45.78678074976828" lon="8.925875690341922"><ele>432.0</ele><time>2026-04-25T08:18:25.995Z</time></trkpt><trkpt lat="45.78675023506877" lon="8.925588145687325"><ele>432.0</ele><time>2026-04-25T08:18:26.995Z</time></trkpt><trkpt lat="45.78671360576636" lon="8.925306208220341"><ele>432.0</ele><time>2026-04-25T08:18:27.995Z</time></trkpt><trkpt lat="45.78667968549793" lon="8.925018661566606"><ele>431.66666666666663</ele><time>2026-04-25T08:18:28.995Z</time></trkpt><trkpt lat="45.786647580963994" lon="8.924736185746255"><ele>431.3333333333333</ele><time>2026-04-25T08:18:29.995Z</time></trkpt><trkpt lat="45.78661477144421" lon="8.924471081719473"><ele>431.0</ele><time>2026-04-25T08:18:30.995Z</time></trkpt><trkpt lat="45.786582482764466" lon="8.924210061384663"><ele>431.66666666666663</ele><time>2026-04-25T08:18:31.995Z</time></trkpt><trkpt lat="45.786550570563044" lon="8.923960256131732"><ele>432.33333333333337</ele><time>2026-04-25T08:18:32.995Z</time></trkpt><trkpt lat="45.78651881955096" lon="8.923725106292466"><ele>433.0</ele><time>2026-04-25T08:18:33.996Z</time></trkpt><trkpt lat="45.78649341624144" lon="8.923492793898172"><ele>433.6666666666667</ele><time>2026-04-25T08:18:34.996Z</time></trkpt><trkpt lat="45.78646772802388" lon="8.923249239239723"><ele>434.33333333333337</ele><time>2026-04-25T08:18:35.996Z</time></trkpt><trkpt lat="45.78643727071117" lon="8.923005790429448"><ele>435.0</ele><time>2026-04-25T08:18:36.996Z</time></trkpt><trkpt lat="45.78640825065577" lon="8.922775312786579"><ele>434.33333333333337</ele><time>2026-04-25T08:18:37.996Z</time></trkpt><trkpt lat="45.786378030078794" lon="8.922534852669612"><ele>433.6666666666667</ele><time>2026-04-25T08:18:38.996Z</time></trkpt><trkpt lat="45.78634765428894" lon="8.922280430249637"><ele>433.0</ele><time>2026-04-25T08:18:39.996Z</time></trkpt><trkpt lat="45.78631713414449" lon="8.922020252974782"><ele>433.0</ele><time>2026-04-25T08:18:40.996Z</time></trkpt><trkpt lat="45.78628576171159" lon="8.92175841460971"><ele>433.0</ele><time>2026-04-25T08:18:41.996Z</time></trkpt><trkpt lat="45.786253681673" lon="8.921497283583708"><ele>433.0</ele><time>2026-04-25T08:18:42.996Z</time></trkpt><trkpt lat="45.786221077873535" lon="8.921238940566461"><ele>432.0</ele><time>2026-04-25T08:18:43.996Z</time></trkpt><trkpt lat="45.78620923960175" lon="8.920933152758435"><ele>431.0</ele><time>2026-04-25T08:18:44.996Z</time></trkpt><trkpt lat="45.786173856458205" lon="8.9206246242112"><ele>430.0</ele><time>2026-04-25T08:18:45.996Z</time></trkpt><trkpt lat="45.78614081509898" lon="8.920330270520347"><ele>427.6666666666667</ele><time>2026-04-25T08:18:46.996Z</time></trkpt><trkpt lat="45.78610424863321" lon="8.920043622176495"><ele>425.33333333333337</ele><time>2026-04-25T08:18:47.996Z</time></trkpt><trkpt lat="45.78606926390967" lon="8.919761023883703"><ele>423.0</ele><time>2026-04-25T08:18:48.996Z</time></trkpt><trkpt lat="45.78603906479409" lon="8.919490907940858"><ele>423.66666666666663</ele><time>2026-04-25T08:18:49.996Z</time></trkpt><trkpt lat="45.786006035741835" lon="8.919213342085003"><ele>424.3333333333333</ele><time>2026-04-25T08:18:50.996Z</time></trkpt><trkpt lat="45.785968038198334" lon="8.91893114347694"><ele>425.0</ele><time>2026-04-25T08:18:51.996Z</time></trkpt><trkpt lat="45.7859314955035" lon="8.918646616471753"><ele>424.3333333333333</ele><time>2026-04-25T08:18:52.996Z</time></trkpt><trkpt lat="45.78589889925573" lon="8.918374239302386"><ele>423.66666666666663</ele><time>2026-04-25T08:18:53.996Z</time></trkpt><trkpt lat="45.78586656450297" lon="8.918109349361997"><ele>423.0</ele><time>2026-04-25T08:18:54.996Z</time></trkpt><trkpt lat="45.785836616240715" lon="8.917855672146676"><ele>423.0</ele><time>2026-04-25T08:18:55.996Z</time></trkpt><trkpt lat="45.785804813709206" lon="8.917598336897209"><ele>423.0</ele><time>2026-04-25T08:18:56.996Z</time></trkpt><trkpt lat="45.78577477677528" lon="8.917342076903743"><ele>423.0</ele><time>2026-04-25T08:18:57.996Z</time></trkpt><trkpt lat="45.785746402533555" lon="8.917087567335772"><ele>423.0</ele><time>2026-04-25T08:18:58.996Z</time></trkpt><trkpt lat="45.785721907710084" lon="8.916833993137248"><ele>423.0</ele><time>2026-04-25T08:18:59.996Z</time></trkpt><trkpt lat="45.785704815038166" lon="8.91658894704756"><ele>423.0</ele><time>2026-04-25T08:19:00.996Z</time></trkpt><trkpt lat="45.78569149919952" lon="8.916344708349744"><ele>420.66666666666663</ele><time>2026-04-25T08:19:01.996Z</time></trkpt><trkpt lat="45.78568255509626" lon="8.916100148989916"><ele>418.3333333333333</ele><time>2026-04-25T08:19:02.996Z</time></trkpt><trkpt lat="45.78567691726513" lon="8.915859815331158"><ele>416.0</ele><time>2026-04-25T08:19:03.996Z</time></trkpt><trkpt lat="45.785671989215025" lon="8.915619363560165"><ele>414.3333333333333</ele><time>2026-04-25T08:19:04.996Z</time></trkpt><trkpt lat="45.785669422978174" lon="8.91537934223085"><ele>412.66666666666663</ele><time>2026-04-25T08:19:05.996Z</time></trkpt><trkpt lat="45.78566468861084" lon="8.915141393216482"><ele>411.0</ele><time>2026-04-25T08:19:06.996Z</time></trkpt><trkpt lat="45.785663198685" lon="8.914904320238604"><ele>409.33333333333337</ele><time>2026-04-25T08:19:07.996Z</time></trkpt><trkpt lat="45.78566095642557" lon="8.914673951905838"><ele>407.6666666666667</ele><time>2026-04-25T08:19:08.996Z</time></trkpt><trkpt lat="45.78566491247252" lon="8.91444944042222"><ele>406.0</ele><time>2026-04-25T08:19:09.996Z</time></trkpt><trkpt lat="45.78566255965255" lon="8.914233618953554"><ele>403.0</ele><time>2026-04-25T08:19:10.996Z</time></trkpt><trkpt lat="45.78566531411376" lon="8.91402995229952"><ele>400.0</ele><time>2026-04-25T08:19:11.996Z</time></trkpt><trkpt lat="45.785664058047836" lon="8.9138414461199"><ele>397.0</ele><time>2026-04-25T08:19:12.996Z</time></trkpt><trkpt lat="45.78566013263361" lon="8.913652929227016"><ele>394.0</ele><time>2026-04-25T08:19:13.995Z</time></trkpt><trkpt lat="45.7856591052778" lon="8.913467573560007"><ele>393.79999999999995</ele><time>2026-04-25T08:19:14.994Z</time></trkpt><trkpt lat="45.7856616966099" lon="8.913289499928835"><ele>393.59999999999997</ele><time>2026-04-25T08:19:15.994Z</time></trkpt><trkpt lat="45.78566737704284" lon="8.91312333006732"><ele>393.4</ele><time>2026-04-25T08:19:16.995Z</time></trkpt><trkpt lat="45.78567035144817" lon="8.912973283204316"><ele>393.2</ele><time>2026-04-25T08:19:17.994Z</time></trkpt><trkpt lat="45.78567276043001" lon="8.912832156712428"><ele>393.0</ele><time>2026-04-25T08:19:18.994Z</time></trkpt><trkpt lat="45.7856830726723" lon="8.912694276225698"><ele>392.59999999999997</ele><time>2026-04-25T08:19:19.995Z</time></trkpt><trkpt lat="45.78570271767971" lon="8.912562289192579"><ele>392.2</ele><time>2026-04-25T08:19:20.995Z</time></trkpt><trkpt lat="45.785736030824445" lon="8.912431615768257"><ele>391.8</ele><time>2026-04-25T08:19:21.995Z</time></trkpt><trkpt lat="45.78578061849501" lon="8.912295751261036"><ele>391.4</ele><time>2026-04-25T08:19:22.995Z</time></trkpt><trkpt lat="45.78583198671104" lon="8.912162216054245"><ele>391.0</ele><time>2026-04-25T08:19:23.994Z</time></trkpt><trkpt lat="45.785884172624414" lon="8.912039399509878"><ele>391.0</ele><time>2026-04-25T08:19:24.994Z</time></trkpt><trkpt lat="45.7859206128364" lon="8.911907607069237"><ele>391.0</ele><time>2026-04-25T08:19:25.994Z</time></trkpt><trkpt lat="45.785922745917354" lon="8.911750315766445"><ele>391.0</ele><time>2026-04-25T08:19:26.995Z</time></trkpt><trkpt lat="45.785889721117464" lon="8.911594006185966"><ele>391.0</ele><time>2026-04-25T08:19:27.995Z</time></trkpt><trkpt lat="45.78584745886899" lon="8.911438698938413"><ele>391.0</ele><time>2026-04-25T08:19:28.995Z</time></trkpt><trkpt lat="45.785816835168504" lon="8.911286094803401"><ele>390.20000000000005</ele><time>2026-04-25T08:19:29.995Z</time></trkpt><trkpt lat="45.785790710409344" lon="8.911139248456816"><ele>389.40000000000003</ele><time>2026-04-25T08:19:30.995Z</time></trkpt><trkpt lat="45.78577107506035" lon="8.910989127569112"><ele>388.6</ele><time>2026-04-25T08:19:31.995Z</time></trkpt><trkpt lat="45.785765344819865" lon="8.910835980618874"><ele>387.8</ele><time>2026-04-25T08:19:32.995Z</time></trkpt><trkpt lat="45.78576989464319" lon="8.910669635461065"><ele>387.0</ele><time>2026-04-25T08:19:33.995Z</time></trkpt><trkpt lat="45.78577994546985" lon="8.910507878845554"><ele>387.0</ele><time>2026-04-25T08:19:34.995Z</time></trkpt><trkpt lat="45.78578739085377" lon="8.910348264809398"><ele>387.0</ele><time>2026-04-25T08:19:35.995Z</time></trkpt><trkpt lat="45.78579773674784" lon="8.91019211411486"><ele>387.0</ele><time>2026-04-25T08:19:36.995Z</time></trkpt><trkpt lat="45.78581398733802" lon="8.910050371096736"><ele>387.0</ele><time>2026-04-25T08:19:37.995Z</time></trkpt><trkpt lat="45.78582847716432" lon="8.909909345521152"><ele>387.0</ele><time>2026-04-25T08:19:38.995Z</time></trkpt><trkpt lat="45.78584173583206" lon="8.909775235063552"><ele>386.5</ele><time>2026-04-25T08:19:39.995Z</time></trkpt><trkpt lat="45.7858556824265" lon="8.909641056002416"><ele>386.0</ele><time>2026-04-25T08:19:40.995Z</time></trkpt><trkpt lat="45.78587029577714" lon="8.909470560395617"><ele>385.5</ele><time>2026-04-25T08:19:41.995Z</time></trkpt><trkpt lat="45.78588904947139" lon="8.909296682638155"><ele>385.0</ele><time>2026-04-25T08:19:42.995Z</time></trkpt><trkpt lat="45.78590559093009" lon="8.909131950777022"><ele>384.2</ele><time>2026-04-25T08:19:43.995Z</time></trkpt><trkpt lat="45.78591726644181" lon="8.908990320186023"><ele>383.4</ele><time>2026-04-25T08:19:44.995Z</time></trkpt><trkpt lat="45.78593012177562" lon="8.908842657062436"><ele>382.6</ele><time>2026-04-25T08:19:45.995Z</time></trkpt><trkpt lat="45.78594320819011" lon="8.908690059952464"><ele>381.8</ele><time>2026-04-25T08:19:46.995Z</time></trkpt><trkpt lat="45.78595682341213" lon="8.908526248099106"><ele>381.0</ele><time>2026-04-25T08:19:47.995Z</time></trkpt><trkpt lat="45.78597118003095" lon="8.908373114550217"><ele>381.0</ele><time>2026-04-25T08:19:48.995Z</time></trkpt><trkpt lat="45.78598665139552" lon="8.908225835851665"><ele>381.0</ele><time>2026-04-25T08:19:49.995Z</time></trkpt><trkpt lat="45.78599827897842" lon="8.90809846048734"><ele>381.0</ele><time>2026-04-25T08:19:50.995Z</time></trkpt><trkpt lat="45.7860096040369" lon="8.907985815570454"><ele>381.0</ele><time>2026-04-25T08:19:51.995Z</time></trkpt><trkpt lat="45.786019756734895" lon="8.90787948450494"><ele>381.0</ele><time>2026-04-25T08:19:52.995Z</time></trkpt><trkpt lat="45.78603031900501" lon="8.907770831510483"><ele>381.0</ele><time>2026-04-25T08:19:53.995Z</time></trkpt><trkpt lat="45.78605734505012" lon="8.9075972804189"><ele>380.6666666666667</ele><time>2026-04-25T08:19:54.995Z</time></trkpt><trkpt lat="45.786080421829126" lon="8.907365441634257"><ele>380.33333333333337</ele><time>2026-04-25T08:19:55.995Z</time></trkpt><trkpt lat="45.78611302105948" lon="8.907112978980717"><ele>380.0</ele><time>2026-04-25T08:19:56.995Z</time></trkpt><trkpt lat="45.78614792134495" lon="8.906859229203306"><ele>379.33333333333337</ele><time>2026-04-25T08:19:57.995Z</time></trkpt><trkpt lat="45.786180279273495" lon="8.906616482287587"><ele>378.6666666666667</ele><time>2026-04-25T08:19:58.995Z</time></trkpt><trkpt lat="45.786206528345886" lon="8.906364112122427"><ele>378.0</ele><time>2026-04-25T08:19:59.995Z</time></trkpt><trkpt lat="45.78623197800024" lon="8.90610645562334"><ele>377.6666666666667</ele><time>2026-04-25T08:20:00.995Z</time></trkpt><trkpt lat="45.786258670860946" lon="8.905849237833548"><ele>377.33333333333337</ele><time>2026-04-25T08:20:01.995Z</time></trkpt><trkpt lat="45.78628535569092" lon="8.905598534188234"><ele>377.0</ele><time>2026-04-25T08:20:02.995Z</time></trkpt><trkpt lat="45.78631041852137" lon="8.90534882283895"><ele>377.0</ele><time>2026-04-25T08:20:03.995Z</time></trkpt><trkpt lat="45.786332143312954" lon="8.90509569169755"><ele>377.0</ele><time>2026-04-25T08:20:04.995Z</time></trkpt><trkpt lat="45.78635598144635" lon="8.904850911643388"><ele>377.0</ele><time>2026-04-25T08:20:05.995Z</time></trkpt><trkpt lat="45.78637950740421" lon="8.904609327775383"><ele>377.0</ele><time>2026-04-25T08:20:06.995Z</time></trkpt><trkpt lat="45.78640364650704" lon="8.904373204759779"><ele>377.0</ele><time>2026-04-25T08:20:07.995Z</time></trkpt><trkpt lat="45.786426445569994" lon="8.904144005604467"><ele>377.0</ele><time>2026-04-25T08:20:08.995Z</time></trkpt><trkpt lat="45.78644938043495" lon="8.90391666669703"><ele>376.6666666666667</ele><time>2026-04-25T08:20:09.995Z</time></trkpt><trkpt lat="45.78647061548078" lon="8.903691265913432"><ele>376.3333333333333</ele><time>2026-04-25T08:20:10.995Z</time></trkpt><trkpt lat="45.786492470688955" lon="8.90345940125768"><ele>376.0</ele><time>2026-04-25T08:20:11.995Z</time></trkpt><trkpt lat="45.78651276356509" lon="8.903240632265097"><ele>375.75</ele><time>2026-04-25T08:20:12.995Z</time></trkpt><trkpt lat="45.78653468541718" lon="8.90302247662167"><ele>375.5</ele><time>2026-04-25T08:20:13.995Z</time></trkpt><trkpt lat="45.786553537391825" lon="8.90281644243718"><ele>375.25</ele><time>2026-04-25T08:20:14.996Z</time></trkpt><trkpt lat="45.78656926883306" lon="8.902627892477128"><ele>375.0</ele><time>2026-04-25T08:20:15.996Z</time></trkpt><trkpt lat="45.78658536871812" lon="8.902466692657018"><ele>374.6</ele><time>2026-04-25T08:20:16.996Z</time></trkpt><trkpt lat="45.786599487553694" lon="8.902336571298738"><ele>374.2</ele><time>2026-04-25T08:20:17.996Z</time></trkpt><trkpt lat="45.78661959209632" lon="8.902211361950513"><ele>373.79999999999995</ele><time>2026-04-25T08:20:18.996Z</time></trkpt><trkpt lat="45.786654074146064" lon="8.902103531961396"><ele>373.4</ele><time>2026-04-25T08:20:19.996Z</time></trkpt><trkpt lat="45.78667652359471" lon="8.901969887783858"><ele>373.0</ele><time>2026-04-25T08:20:20.996Z</time></trkpt><trkpt lat="45.78666448526575" lon="8.901783059541533"><ele>373.0</ele><time>2026-04-25T08:20:21.996Z</time></trkpt><trkpt lat="45.786668563124174" lon="8.901579391132836"><ele>373.0</ele><time>2026-04-25T08:20:22.996Z</time></trkpt><trkpt lat="45.78668596731171" lon="8.901396185544122"><ele>373.0</ele><time>2026-04-25T08:20:23.996Z</time></trkpt><trkpt lat="45.78670534768813" lon="8.901209775254133"><ele>373.0</ele><time>2026-04-25T08:20:24.996Z</time></trkpt><trkpt lat="45.78672046849659" lon="8.901031896765033"><ele>373.25</ele><time>2026-04-25T08:20:25.996Z</time></trkpt><trkpt lat="45.786735466272006" lon="8.900853714970555"><ele>373.5</ele><time>2026-04-25T08:20:26.996Z</time></trkpt><trkpt lat="45.786753130392064" lon="8.900676307240387"><ele>373.75</ele><time>2026-04-25T08:20:27.996Z</time></trkpt><trkpt lat="45.78677236426239" lon="8.90049577381212"><ele>374.0</ele><time>2026-04-25T08:20:28.996Z</time></trkpt><trkpt lat="45.78679037590765" lon="8.900330487933319"><ele>374.0</ele><time>2026-04-25T08:20:29.996Z</time></trkpt><trkpt lat="45.78681171276544" lon="8.900154718925378"><ele>374.0</ele><time>2026-04-25T08:20:30.996Z</time></trkpt><trkpt lat="45.786832370656995" lon="8.8999827469005"><ele>374.0</ele><time>2026-04-25T08:20:31.996Z</time></trkpt><trkpt lat="45.78685623371518" lon="8.899810978550898"><ele>374.0</ele><time>2026-04-25T08:20:32.996Z</time></trkpt><trkpt lat="45.786883583417875" lon="8.899647698151778"><ele>373.75</ele><time>2026-04-25T08:20:33.996Z</time></trkpt><trkpt lat="45.78690900745801" lon="8.899486844477789"><ele>373.5</ele><time>2026-04-25T08:20:34.996Z</time></trkpt><trkpt lat="45.7869321133462" lon="8.899327870723203"><ele>373.25</ele><time>2026-04-25T08:20:35.996Z</time></trkpt><trkpt lat="45.78695491800172" lon="8.899162920819174"><ele>373.0</ele><time>2026-04-25T08:20:36.996Z</time></trkpt><trkpt lat="45.78697677325352" lon="8.898987717378464"><ele>372.5</ele><time>2026-04-25T08:20:37.996Z</time></trkpt><trkpt lat="45.78699833881376" lon="8.898809294413075"><ele>372.0</ele><time>2026-04-25T08:20:38.996Z</time></trkpt><trkpt lat="45.78701590830623" lon="8.898630268604023"><ele>371.5</ele><time>2026-04-25T08:20:39.996Z</time></trkpt><trkpt lat="45.787026932354244" lon="8.89844651917928"><ele>371.0</ele><time>2026-04-25T08:20:40.996Z</time></trkpt><trkpt lat="45.787028211499155" lon="8.898263832804465"><ele>370.75</ele><time>2026-04-25T08:20:41.996Z</time></trkpt><trkpt lat="45.78702012448439" lon="8.898080593372807"><ele>370.5</ele><time>2026-04-25T08:20:42.996Z</time></trkpt><trkpt lat="45.78700792312345" lon="8.89790210026798"><ele>370.25</ele><time>2026-04-25T08:20:43.996Z</time></trkpt><trkpt lat="45.786996340859005" lon="8.89773000486467"><ele>370.0</ele><time>2026-04-25T08:20:44.996Z</time></trkpt><trkpt lat="45.78698511120467" lon="8.897560444120298"><ele>369.25</ele><time>2026-04-25T08:20:45.996Z</time></trkpt><trkpt lat="45.78697440329825" lon="8.897384189103205"><ele>368.5</ele><time>2026-04-25T08:20:46.996Z</time></trkpt><trkpt lat="45.78696101006523" lon="8.897211594158396"><ele>367.75</ele><time>2026-04-25T08:20:47.996Z</time></trkpt><trkpt lat="45.78694824446742" lon="8.897042384444774"><ele>367.0</ele><time>2026-04-25T08:20:48.996Z</time></trkpt><trkpt lat="45.786937616120206" lon="8.89687515008082"><ele>366.8</ele><time>2026-04-25T08:20:49.996Z</time></trkpt><trkpt lat="45.78692575781089" lon="8.896710807307567"><ele>366.6</ele><time>2026-04-25T08:20:50.996Z</time></trkpt><trkpt lat="45.78691354857615" lon="8.896553550611609"><ele>366.40000000000003</ele><time>2026-04-25T08:20:51.996Z</time></trkpt><trkpt lat="45.78690218244344" lon="8.896409820842445"><ele>366.20000000000005</ele><time>2026-04-25T08:20:52.996Z</time></trkpt><trkpt lat="45.78689174708311" lon="8.896271748022967"><ele>366.0</ele><time>2026-04-25T08:20:53.996Z</time></trkpt><trkpt lat="45.786885222402205" lon="8.89613826615169"><ele>366.0</ele><time>2026-04-25T08:20:54.996Z</time></trkpt><trkpt lat="45.78687834026121" lon="8.895996679904867"><ele>366.0</ele><time>2026-04-25T08:20:55.996Z</time></trkpt><trkpt lat="45.78687150540434" lon="8.895846337232221"><ele>366.0</ele><time>2026-04-25T08:20:56.996Z</time></trkpt><trkpt lat="45.78686890472631" lon="8.895697388540775"><ele>366.0</ele><time>2026-04-25T08:20:57.996Z</time></trkpt><trkpt lat="45.78687745839568" lon="8.895546153545501"><ele>366.0</ele><time>2026-04-25T08:20:58.996Z</time></trkpt><trkpt lat="45.786894251092164" lon="8.895395324397159"><ele>365.4</ele><time>2026-04-25T08:20:59.996Z</time></trkpt><trkpt lat="45.786913162037074" lon="8.89524627706697"><ele>364.8</ele><time>2026-04-25T08:21:00.996Z</time></trkpt><trkpt lat="45.78693211576345" lon="8.895105223000463"><ele>364.2</ele><time>2026-04-25T08:21:01.996Z</time></trkpt><trkpt lat="45.786956942337646" lon="8.894953476911871"><ele>363.59999999999997</ele><time>2026-04-25T08:21:02.996Z</time></trkpt><trkpt lat="45.78699495639629" lon="8.894784418241297"><ele>363.0</ele><time>2026-04-25T08:21:03.996Z</time></trkpt><trkpt lat="45.787049253421124" lon="8.894613096932465"><ele>360.25</ele><time>2026-04-25T08:21:04.996Z</time></trkpt><trkpt lat="45.787108068257545" lon="8.894454818941663"><ele>357.5</ele><time>2026-04-25T08:21:05.996Z</time></trkpt><trkpt lat="45.787176747950234" lon="8.894304391836462"><ele>354.75</ele><time>2026-04-25T08:21:06.996Z</time></trkpt><trkpt lat="45.78725427260811" lon="8.89416913489098"><ele>352.0</ele><time>2026-04-25T08:21:07.996Z</time></trkpt><trkpt lat="45.78733943469069" lon="8.894058337006216"><ele>350.25</ele><time>2026-04-25T08:21:08.996Z</time></trkpt><trkpt lat="45.78742788997351" lon="8.893958239402618"><ele>348.5</ele><time>2026-04-25T08:21:09.996Z</time></trkpt><trkpt lat="45.78752008244534" lon="8.893851060520104"><ele>346.75</ele><time>2026-04-25T08:21:10.996Z</time></trkpt><trkpt lat="45.78761597696651" lon="8.89374230302438"><ele>345.0</ele><time>2026-04-25T08:21:11.996Z</time></trkpt><trkpt lat="45.78771648289268" lon="8.893630947814557"><ele>344.5</ele><time>2026-04-25T08:21:12.996Z</time></trkpt><trkpt lat="45.787818371521126" lon="8.89351744889275"><ele>344.0</ele><time>2026-04-25T08:21:13.996Z</time></trkpt><trkpt lat="45.7879209593993" lon="8.893402018193205"><ele>343.5</ele><time>2026-04-25T08:21:14.996Z</time></trkpt><trkpt lat="45.788022579565535" lon="8.893283444931066"><ele>343.0</ele><time>2026-04-25T08:21:15.996Z</time></trkpt><trkpt lat="45.78812459422652" lon="8.893160806065127"><ele>343.0</ele><time>2026-04-25T08:21:16.996Z</time></trkpt><trkpt lat="45.78822552033111" lon="8.893044469040033"><ele>343.0</ele><time>2026-04-25T08:21:17.996Z</time></trkpt><trkpt lat="45.788319625375905" lon="8.892935550677514"><ele>343.0</ele><time>2026-04-25T08:21:18.996Z</time></trkpt><trkpt lat="45.78841448208059" lon="8.892822114242449"><ele>343.0</ele><time>2026-04-25T08:21:19.994Z</time></trkpt><trkpt lat="45.78850914365815" lon="8.892707748531848"><ele>342.75</ele><time>2026-04-25T08:21:20.994Z</time></trkpt><trkpt lat="45.78860328700436" lon="8.89259524530406"><ele>342.5</ele><time>2026-04-25T08:21:21.994Z</time></trkpt><trkpt lat="45.788698508363616" lon="8.892482992952655"><ele>342.25</ele><time>2026-04-25T08:21:22.994Z</time></trkpt><trkpt lat="45.788793318128135" lon="8.892372254154138"><ele>342.0</ele><time>2026-04-25T08:21:23.994Z</time></trkpt><trkpt lat="45.788882706917455" lon="8.892269319339368"><ele>343.0</ele><time>2026-04-25T08:21:24.995Z</time></trkpt><trkpt lat="45.78897588607612" lon="8.892194546548609"><ele>344.0</ele><time>2026-04-25T08:21:25.995Z</time></trkpt><trkpt lat="45.78905514495085" lon="8.892101855433145"><ele>345.0</ele><time>2026-04-25T08:21:26.994Z</time></trkpt><trkpt lat="45.78913136928825" lon="8.892014504514933"><ele>346.0</ele><time>2026-04-25T08:21:27.994Z</time></trkpt><trkpt lat="45.7892036200237" lon="8.891929739156852"><ele>347.0</ele><time>2026-04-25T08:21:28.994Z</time></trkpt><trkpt lat="45.78927670811892" lon="8.891845932940942"><ele>347.20000000000005</ele><time>2026-04-25T08:21:29.995Z</time></trkpt><trkpt lat="45.78935161693257" lon="8.891758379556922"><ele>347.4</ele><time>2026-04-25T08:21:30.995Z</time></trkpt><trkpt lat="45.78942717022933" lon="8.891667216397947"><ele>347.6</ele><time>2026-04-25T08:21:31.994Z</time></trkpt><trkpt lat="45.789500542345806" lon="8.891578841040653"><ele>347.79999999999995</ele><time>2026-04-25T08:21:32.994Z</time></trkpt><trkpt lat="45.78956947503199" lon="8.891493239596278"><ele>348.0</ele><time>2026-04-25T08:21:33.994Z</time></trkpt><trkpt lat="45.78963274634477" lon="8.891413015316923"><ele>349.0</ele><time>2026-04-25T08:21:34.994Z</time></trkpt><trkpt lat="45.78969159343299" lon="8.891342512788857"><ele>350.0</ele><time>2026-04-25T08:21:35.994Z</time></trkpt><trkpt lat="45.78974945634002" lon="8.891273442479749"><ele>351.0</ele><time>2026-04-25T08:21:36.994Z</time></trkpt><trkpt lat="45.789802886788195" lon="8.891213234122038"><ele>352.0</ele><time>2026-04-25T08:21:37.994Z</time></trkpt><trkpt lat="45.789890001976836" lon="8.891110506911433"><ele>353.0</ele><time>2026-04-25T08:21:39.994Z</time></trkpt><trkpt lat="45.78998760952341" lon="8.891028543675537"><ele>354.0</ele><time>2026-04-25T08:21:41.994Z</time></trkpt><trkpt lat="45.79008795747303" lon="8.890956868333687"><ele>354.4</ele><time>2026-04-25T08:21:43.994Z</time></trkpt><trkpt lat="45.79013432913084" lon="8.890892803534916"><ele>354.79999999999995</ele><time>2026-04-25T08:21:44.994Z</time></trkpt><trkpt lat="45.790182132541865" lon="8.890806577994761"><ele>355.20000000000005</ele><time>2026-04-25T08:21:45.994Z</time></trkpt><trkpt lat="45.79024956955829" lon="8.890698288771981"><ele>355.6</ele><time>2026-04-25T08:21:46.994Z</time></trkpt><trkpt lat="45.79034174254123" lon="8.890582273680991"><ele>356.0</ele><time>2026-04-25T08:21:47.994Z</time></trkpt><trkpt lat="45.79044356380945" lon="8.890477148088557"><ele>356.0</ele><time>2026-04-25T08:21:48.994Z</time></trkpt><trkpt lat="45.79056325239717" lon="8.890343413686207"><ele>356.0</ele><time>2026-04-25T08:21:49.994Z</time></trkpt><trkpt lat="45.79069072051058" lon="8.890198980205879"><ele>356.0</ele><time>2026-04-25T08:21:50.994Z</time></trkpt><trkpt lat="45.79081218793854" lon="8.89006981240934"><ele>356.25</ele><time>2026-04-25T08:21:51.994Z</time></trkpt><trkpt lat="45.790929587215075" lon="8.889938313934273"><ele>356.5</ele><time>2026-04-25T08:21:52.994Z</time></trkpt><trkpt lat="45.79103342443858" lon="8.889815402299096"><ele>356.75</ele><time>2026-04-25T08:21:53.994Z</time></trkpt><trkpt lat="45.791133081956325" lon="8.889701740354203"><ele>357.0</ele><time>2026-04-25T08:21:54.994Z</time></trkpt><trkpt lat="45.79123114101636" lon="8.889592063045924"><ele>357.0</ele><time>2026-04-25T08:21:55.994Z</time></trkpt><trkpt lat="45.79132131000492" lon="8.889494331464718"><ele>357.0</ele><time>2026-04-25T08:21:56.994Z</time></trkpt><trkpt lat="45.79141113747107" lon="8.88941393155969"><ele>357.0</ele><time>2026-04-25T08:21:57.994Z</time></trkpt><trkpt lat="45.791501267563596" lon="8.88933888210219"><ele>357.0</ele><time>2026-04-25T08:21:58.994Z</time></trkpt><trkpt lat="45.791584661128525" lon="8.889257975682279"><ele>357.0</ele><time>2026-04-25T08:21:59.994Z</time></trkpt><trkpt lat="45.79166069748175" lon="8.88915560520852"><ele>357.0</ele><time>2026-04-25T08:22:00.994Z</time></trkpt><trkpt lat="45.79175018359268" lon="8.889029193477514"><ele>357.0</ele><time>2026-04-25T08:22:01.994Z</time></trkpt><trkpt lat="45.791850182555265" lon="8.888900439427168"><ele>357.0</ele><time>2026-04-25T08:22:02.994Z</time></trkpt><trkpt lat="45.791956937476975" lon="8.88877685295461"><ele>357.0</ele><time>2026-04-25T08:22:03.994Z</time></trkpt><trkpt lat="45.79206236676406" lon="8.88865093923234"><ele>357.5</ele><time>2026-04-25T08:22:04.994Z</time></trkpt><trkpt lat="45.792154310027136" lon="8.888541043783745"><ele>358.0</ele><time>2026-04-25T08:22:05.994Z</time></trkpt><trkpt lat="45.792253851051285" lon="8.888424036531756"><ele>358.5</ele><time>2026-04-25T08:22:06.994Z</time></trkpt><trkpt lat="45.79236874511795" lon="8.888293383440093"><ele>359.0</ele><time>2026-04-25T08:22:07.994Z</time></trkpt><trkpt lat="45.792487001153624" lon="8.888163071377594"><ele>359.25</ele><time>2026-04-25T08:22:08.994Z</time></trkpt><trkpt lat="45.792597469248335" lon="8.888036071758973"><ele>359.5</ele><time>2026-04-25T08:22:09.994Z</time></trkpt><trkpt lat="45.79270493064454" lon="8.887910606931586"><ele>359.75</ele><time>2026-04-25T08:22:10.994Z</time></trkpt><trkpt lat="45.79280017984947" lon="8.88779257898104"><ele>360.0</ele><time>2026-04-25T08:22:11.994Z</time></trkpt><trkpt lat="45.792892891771544" lon="8.887688206088466"><ele>360.8</ele><time>2026-04-25T08:22:12.994Z</time></trkpt><trkpt lat="45.79297979725032" lon="8.887593161866185"><ele>361.6</ele><time>2026-04-25T08:22:13.994Z</time></trkpt><trkpt lat="45.79305847146908" lon="8.887503225971175"><ele>362.4</ele><time>2026-04-25T08:22:14.994Z</time></trkpt><trkpt lat="45.79313624149399" lon="8.887411554080701"><ele>363.2</ele><time>2026-04-25T08:22:15.994Z</time></trkpt><trkpt lat="45.79321795699128" lon="8.887319098342264"><ele>364.0</ele><time>2026-04-25T08:22:16.994Z</time></trkpt><trkpt lat="45.79330527358617" lon="8.88722242248522"><ele>364.0</ele><time>2026-04-25T08:22:17.994Z</time></trkpt><trkpt lat="45.79340817108368" lon="8.88710615189186"><ele>364.0</ele><time>2026-04-25T08:22:18.994Z</time></trkpt><trkpt lat="45.79350255689326" lon="8.886992481754797"><ele>364.0</ele><time>2026-04-25T08:22:19.994Z</time></trkpt><trkpt lat="45.79361033907561" lon="8.88686780838195"><ele>364.0</ele><time>2026-04-25T08:22:20.994Z</time></trkpt><trkpt lat="45.79371549458932" lon="8.886752175009034"><ele>363.5</ele><time>2026-04-25T08:22:21.994Z</time></trkpt><trkpt lat="45.79381134411232" lon="8.886644972849329"><ele>363.0</ele><time>2026-04-25T08:22:22.994Z</time></trkpt><trkpt lat="45.793901955903706" lon="8.88653729126026"><ele>362.5</ele><time>2026-04-25T08:22:23.994Z</time></trkpt><trkpt lat="45.793989391680526" lon="8.88643221435555"><ele>362.0</ele><time>2026-04-25T08:22:24.994Z</time></trkpt><trkpt lat="45.79407339799201" lon="8.886332234168698"><ele>362.0</ele><time>2026-04-25T08:22:25.994Z</time></trkpt><trkpt lat="45.79416551358599" lon="8.886224429277426"><ele>362.0</ele><time>2026-04-25T08:22:26.994Z</time></trkpt><trkpt lat="45.7942640271628" lon="8.886113671781885"><ele>362.0</ele><time>2026-04-25T08:22:27.995Z</time></trkpt><trkpt lat="45.79436372266971" lon="8.88599435399904"><ele>362.0</ele><time>2026-04-25T08:22:28.995Z</time></trkpt><trkpt lat="45.79445377080536" lon="8.885888254432777"><ele>362.8</ele><time>2026-04-25T08:22:29.995Z</time></trkpt><trkpt lat="45.79453818565711" lon="8.885786633092225"><ele>363.6</ele><time>2026-04-25T08:22:30.995Z</time></trkpt><trkpt lat="45.79461902397675" lon="8.885694913206896"><ele>364.40000000000003</ele><time>2026-04-25T08:22:31.995Z</time></trkpt><trkpt lat="45.79469311248003" lon="8.885607852739028"><ele>365.20000000000005</ele><time>2026-04-25T08:22:32.995Z</time></trkpt><trkpt lat="45.79476040596274" lon="8.885537552879656"><ele>366.0</ele><time>2026-04-25T08:22:33.995Z</time></trkpt><trkpt lat="45.7948252200015" lon="8.885465895100184"><ele>366.0</ele><time>2026-04-25T08:22:34.995Z</time></trkpt><trkpt lat="45.79488394044764" lon="8.885392445842507"><ele>366.0</ele><time>2026-04-25T08:22:35.995Z</time></trkpt><trkpt lat="45.794960832035905" lon="8.885316033787761"><ele>366.0</ele><time>2026-04-25T08:22:36.995Z</time></trkpt><trkpt lat="45.795020626901824" lon="8.885217177620563"><ele>366.0</ele><time>2026-04-25T08:22:37.995Z</time></trkpt><trkpt lat="45.79507708037073" lon="8.885151061629504"><ele>366.0</ele><time>2026-04-25T08:22:38.995Z</time></trkpt><trkpt lat="45.7951373762552" lon="8.885112033453652"><ele>366.0</ele><time>2026-04-25T08:22:39.995Z</time></trkpt><trkpt lat="45.795202435231154" lon="8.885037104995508"><ele>367.20000000000005</ele><time>2026-04-25T08:22:41.995Z</time></trkpt><trkpt lat="45.795298592913234" lon="8.884898770171604"><ele>368.40000000000003</ele><time>2026-04-25T08:22:44.995Z</time></trkpt><trkpt lat="45.795400544224144" lon="8.88481270437619"><ele>369.6</ele><time>2026-04-25T08:22:46.995Z</time></trkpt><trkpt lat="45.795458542071714" lon="8.884747023215242"><ele>370.8</ele><time>2026-04-25T08:22:47.995Z</time></trkpt><trkpt lat="45.79551650097861" lon="8.88468041888018"><ele>372.0</ele><time>2026-04-25T08:22:48.995Z</time></trkpt><trkpt lat="45.79557398702424" lon="8.884616976244748"><ele>372.0</ele><time>2026-04-25T08:22:49.995Z</time></trkpt><trkpt lat="45.79566152353718" lon="8.884517730759496"><ele>372.0</ele><time>2026-04-25T08:22:51.995Z</time></trkpt><trkpt lat="45.79574141284177" lon="8.884409737483551"><ele>372.0</ele><time>2026-04-25T08:22:53.995Z</time></trkpt><trkpt lat="45.795834593553785" lon="8.884304741300696"><ele>372.0</ele><time>2026-04-25T08:22:55.995Z</time></trkpt><trkpt lat="45.795884540153466" lon="8.884245286009893"><ele>372.0</ele><time>2026-04-25T08:22:56.995Z</time></trkpt><trkpt lat="45.79598210999842" lon="8.884135965730822"><ele>371.1666666666667</ele><time>2026-04-25T08:22:58.995Z</time></trkpt><trkpt lat="45.79607976519082" lon="8.884023463359904"><ele>370.3333333333333</ele><time>2026-04-25T08:23:00.995Z</time></trkpt><trkpt lat="45.7961336059987" lon="8.88396566041539"><ele>369.5</ele><time>2026-04-25T08:23:01.995Z</time></trkpt><trkpt lat="45.79618621060081" lon="8.883908461166344"><ele>368.66666666666663</ele><time>2026-04-25T08:23:02.995Z</time></trkpt><trkpt lat="45.796237443018015" lon="8.88384661800959"><ele>367.8333333333333</ele><time>2026-04-25T08:23:03.995Z</time></trkpt><trkpt lat="45.79629365904252" lon="8.883774958386038"><ele>367.0</ele><time>2026-04-25T08:23:04.995Z</time></trkpt><trkpt lat="45.79636210621999" lon="8.883695781590959"><ele>367.0</ele><time>2026-04-25T08:23:05.995Z</time></trkpt><trkpt lat="45.796436057999536" lon="8.883611153208133"><ele>367.0</ele><time>2026-04-25T08:23:06.995Z</time></trkpt><trkpt lat="45.79650565358302" lon="8.883533651870362"><ele>367.0</ele><time>2026-04-25T08:23:07.995Z</time></trkpt><trkpt lat="45.796573513486265" lon="8.883459088440839"><ele>367.0</ele><time>2026-04-25T08:23:08.995Z</time></trkpt><trkpt lat="45.79663158601621" lon="8.883398573254773"><ele>367.0</ele><time>2026-04-25T08:23:09.995Z</time></trkpt><trkpt lat="45.79668238002349" lon="8.883340558238807"><ele>367.0</ele><time>2026-04-25T08:23:10.995Z</time></trkpt><trkpt lat="45.79676894479719" lon="8.883240236713652"><ele>366.6</ele><time>2026-04-25T08:23:12.995Z</time></trkpt><trkpt lat="45.796826576180166" lon="8.883183560728574"><ele>366.20000000000005</ele><time>2026-04-25T08:23:14.995Z</time></trkpt><trkpt lat="45.79690742004442" lon="8.883115036346018"><ele>365.8</ele><time>2026-04-25T08:23:50.994Z</time></trkpt><trkpt lat="45.796994328867065" lon="8.883008491951733"><ele>365.4</ele><time>2026-04-25T08:23:52.994Z</time></trkpt><trkpt lat="45.79708912818963" lon="8.882901903952362"><ele>365.0</ele><time>2026-04-25T08:23:54.994Z</time></trkpt><trkpt lat="45.79714754477148" lon="8.882829552334604"><ele>364.8571428571429</ele><time>2026-04-25T08:23:55.994Z</time></trkpt><trkpt lat="45.79720744280045" lon="8.882756782670693"><ele>364.7142857142857</ele><time>2026-04-25T08:23:56.994Z</time></trkpt><trkpt lat="45.79726147261173" lon="8.882688076211586"><ele>364.57142857142856</ele><time>2026-04-25T08:23:57.994Z</time></trkpt><trkpt lat="45.797320500821215" lon="8.882620545450816"><ele>364.42857142857144</ele><time>2026-04-25T08:23:58.994Z</time></trkpt><trkpt lat="45.7973737333484" lon="8.882558497925103"><ele>364.2857142857143</ele><time>2026-04-25T08:23:59.994Z</time></trkpt><trkpt lat="45.79743170130139" lon="8.882494390022607"><ele>364.14285714285717</ele><time>2026-04-25T08:24:00.994Z</time></trkpt><trkpt lat="45.79749518449055" lon="8.882430405090993"><ele>364.0</ele><time>2026-04-25T08:24:01.994Z</time></trkpt><trkpt lat="45.79756595291534" lon="8.882352438081819"><ele>363.25</ele><time>2026-04-25T08:24:02.994Z</time></trkpt><trkpt lat="45.7976507814152" lon="8.88225506894889"><ele>362.5</ele><time>2026-04-25T08:24:03.994Z</time></trkpt><trkpt lat="45.79775262390584" lon="8.882138995689187"><ele>361.75</ele><time>2026-04-25T08:24:04.994Z</time></trkpt><trkpt lat="45.797855924831026" lon="8.882014816831926"><ele>361.0</ele><time>2026-04-25T08:24:05.994Z</time></trkpt><trkpt lat="45.79795496734545" lon="8.881891351435371"><ele>360.5</ele><time>2026-04-25T08:24:06.995Z</time></trkpt><trkpt lat="45.7980505497761" lon="8.881779883591838"><ele>360.0</ele><time>2026-04-25T08:24:07.995Z</time></trkpt><trkpt lat="45.79814342748246" lon="8.881674061761414"><ele>359.5</ele><time>2026-04-25T08:24:08.995Z</time></trkpt><trkpt lat="45.79822926530771" lon="8.881571428467517"><ele>359.0</ele><time>2026-04-25T08:24:09.995Z</time></trkpt><trkpt lat="45.79831185733883" lon="8.881476621278814"><ele>358.6</ele><time>2026-04-25T08:24:10.995Z</time></trkpt><trkpt lat="45.79839369359498" lon="8.881391105881272"><ele>358.2</ele><time>2026-04-25T08:24:11.995Z</time></trkpt><trkpt lat="45.798468122932206" lon="8.881303731965394"><ele>357.8</ele><time>2026-04-25T08:24:12.995Z</time></trkpt><trkpt lat="45.798548449040055" lon="8.881212801734526"><ele>357.40000000000003</ele><time>2026-04-25T08:24:13.995Z</time></trkpt><trkpt lat="45.79862518879423" lon="8.881121455342635"><ele>357.0</ele><time>2026-04-25T08:24:14.995Z</time></trkpt><trkpt lat="45.79870587416705" lon="8.8810368500338"><ele>356.8333333333333</ele><time>2026-04-25T08:24:15.995Z</time></trkpt><trkpt lat="45.79877912429327" lon="8.880957882328774"><ele>356.6666666666667</ele><time>2026-04-25T08:24:16.995Z</time></trkpt><trkpt lat="45.79884453456451" lon="8.88088185178686"><ele>356.5</ele><time>2026-04-25T08:24:17.995Z</time></trkpt><trkpt lat="45.79890534823875" lon="8.88080981501097"><ele>356.33333333333337</ele><time>2026-04-25T08:24:18.995Z</time></trkpt><trkpt lat="45.79895628660468" lon="8.880748907217923"><ele>356.1666666666667</ele><time>2026-04-25T08:24:19.995Z</time></trkpt><trkpt lat="45.799008263495395" lon="8.880690659664378"><ele>356.0</ele><time>2026-04-25T08:24:20.995Z</time></trkpt><trkpt lat="45.799092083246364" lon="8.88059110923454"><ele>355.8</ele><time>2026-04-25T08:24:22.995Z</time></trkpt><trkpt lat="45.799167796190766" lon="8.880546576231591"><ele>355.6</ele><time>2026-04-25T08:24:24.995Z</time></trkpt><trkpt lat="45.7992210515679" lon="8.880485821215796"><ele>355.4</ele><time>2026-04-25T08:24:27.995Z</time></trkpt><trkpt lat="45.79932771996485" lon="8.880441414348784"><ele>355.2</ele><time>2026-04-25T08:24:30.995Z</time></trkpt><trkpt lat="45.799434242418805" lon="8.880397618201373"><ele>355.0</ele><time>2026-04-25T08:24:32.995Z</time></trkpt><trkpt lat="45.799512873789894" lon="8.88028045944176"><ele>354.6</ele><time>2026-04-25T08:24:34.995Z</time></trkpt><trkpt lat="45.79957250556002" lon="8.880123724956011"><ele>354.2</ele><time>2026-04-25T08:24:36.995Z</time></trkpt><trkpt lat="45.799603527186264" lon="8.880033558496626"><ele>353.79999999999995</ele><time>2026-04-25T08:24:37.995Z</time></trkpt><trkpt lat="45.799647726710134" lon="8.879887488500069"><ele>353.4</ele><time>2026-04-25T08:24:39.995Z</time></trkpt><trkpt lat="45.799680523129126" lon="8.879715437869763"><ele>353.0</ele><time>2026-04-25T08:24:41.995Z</time></trkpt><trkpt lat="45.799703616416025" lon="8.879612837751049"><ele>352.83333333333337</ele><time>2026-04-25T08:24:42.995Z</time></trkpt><trkpt lat="45.79972312098941" lon="8.879511736022888"><ele>352.6666666666667</ele><time>2026-04-25T08:24:43.995Z</time></trkpt><trkpt lat="45.79973667162854" lon="8.87941636848521"><ele>352.5</ele><time>2026-04-25T08:24:44.995Z</time></trkpt><trkpt lat="45.79975147420554" lon="8.879325119279715"><ele>352.3333333333333</ele><time>2026-04-25T08:24:45.995Z</time></trkpt><trkpt lat="45.79976811062997" lon="8.879234773439151"><ele>352.16666666666663</ele><time>2026-04-25T08:24:46.995Z</time></trkpt><trkpt lat="45.79980230159148" lon="8.879063158674208"><ele>352.0</ele><time>2026-04-25T08:24:48.995Z</time></trkpt><trkpt lat="45.799820136019015" lon="8.878974329223919"><ele>352.0</ele><time>2026-04-25T08:24:49.995Z</time></trkpt><trkpt lat="45.79984670389794" lon="8.878878490223764"><ele>352.0</ele><time>2026-04-25T08:24:50.995Z</time></trkpt><trkpt lat="45.79987403578782" lon="8.878788113007142"><ele>352.0</ele><time>2026-04-25T08:24:51.995Z</time></trkpt><trkpt lat="45.79989991703584" lon="8.878702729809666"><ele>352.0</ele><time>2026-04-25T08:24:52.995Z</time></trkpt><trkpt lat="45.7999592772856" lon="8.878552964886989"><ele>352.0</ele><time>2026-04-25T08:24:54.995Z</time></trkpt><trkpt lat="45.80003228926935" lon="8.87842727425611"><ele>352.0</ele><time>2026-04-25T08:24:56.995Z</time></trkpt><trkpt lat="45.800024389290435" lon="8.878337219021267"><ele>352.0</ele><time>2026-04-25T08:24:57.995Z</time></trkpt><trkpt lat="45.80000607355137" lon="8.87819082233202"><ele>352.0</ele><time>2026-04-25T08:24:59.995Z</time></trkpt><trkpt lat="45.7999384443142" lon="8.878028289675047"><ele>352.0</ele><time>2026-04-25T08:25:01.995Z</time></trkpt><trkpt lat="45.799841715850256" lon="8.878049188853165"><ele>352.0</ele><time>2026-04-25T08:25:02.995Z</time></trkpt><trkpt lat="45.79977458358879" lon="8.877995374250336"><ele>352.0</ele><time>2026-04-25T08:25:03.995Z</time></trkpt><trkpt lat="45.799702250902264" lon="8.877965815221001"><ele>352.0</ele><time>2026-04-25T08:25:04.995Z</time></trkpt><trkpt lat="45.79962206055388" lon="8.877933161860044"><ele>352.0</ele><time>2026-04-25T08:25:05.995Z</time></trkpt><trkpt lat="45.799548468430764" lon="8.877880546535105"><ele>352.0</ele><time>2026-04-25T08:25:06.995Z</time></trkpt><trkpt lat="45.79945834488774" lon="8.877842181918473"><ele>352.0</ele><time>2026-04-25T08:25:07.995Z</time></trkpt><trkpt lat="45.799367586265824" lon="8.87780375844957"><ele>352.0</ele><time>2026-04-25T08:25:08.995Z</time></trkpt><trkpt lat="45.799270251410434" lon="8.877763788165451"><ele>352.20000000000005</ele><time>2026-04-25T08:25:09.995Z</time></trkpt><trkpt lat="45.79916827094683" lon="8.877721993791488"><ele>352.4</ele><time>2026-04-25T08:25:10.995Z</time></trkpt><trkpt lat="45.799066978470925" lon="8.877670399726677"><ele>352.6</ele><time>2026-04-25T08:25:11.995Z</time></trkpt><trkpt lat="45.798971753462034" lon="8.877606676834061"><ele>352.79999999999995</ele><time>2026-04-25T08:25:12.995Z</time></trkpt><trkpt lat="45.798886803956194" lon="8.877529537886883"><ele>353.0</ele><time>2026-04-25T08:25:13.995Z</time></trkpt><trkpt lat="45.798810939614775" lon="8.877440241290596"><ele>352.2</ele><time>2026-04-25T08:25:14.995Z</time></trkpt><trkpt lat="45.79872948599651" lon="8.877353262212926"><ele>351.4</ele><time>2026-04-25T08:25:15.995Z</time></trkpt><trkpt lat="45.79864944594824" lon="8.877256604188114"><ele>350.59999999999997</ele><time>2026-04-25T08:25:16.995Z</time></trkpt><trkpt lat="45.79856649406896" lon="8.877153215872788"><ele>349.79999999999995</ele><time>2026-04-25T08:25:17.995Z</time></trkpt><trkpt lat="45.79847731661783" lon="8.877038389458974"><ele>349.0</ele><time>2026-04-25T08:25:18.995Z</time></trkpt><trkpt lat="45.79840261519385" lon="8.876906698720084"><ele>347.75</ele><time>2026-04-25T08:25:19.996Z</time></trkpt><trkpt lat="45.798338961813805" lon="8.876755662347808"><ele>346.5</ele><time>2026-04-25T08:25:20.996Z</time></trkpt><trkpt lat="45.79829426330737" lon="8.876589350252248"><ele>345.25</ele><time>2026-04-25T08:25:21.996Z</time></trkpt><trkpt lat="45.79825209552931" lon="8.876427207394498"><ele>344.0</ele><time>2026-04-25T08:25:22.996Z</time></trkpt><trkpt lat="45.79819749316346" lon="8.876270544585294"><ele>344.0</ele><time>2026-04-25T08:25:23.996Z</time></trkpt><trkpt lat="45.798130419880394" lon="8.876125675910233"><ele>344.0</ele><time>2026-04-25T08:25:24.996Z</time></trkpt><trkpt lat="45.7980567395202" lon="8.875986620604131"><ele>344.0</ele><time>2026-04-25T08:25:25.996Z</time></trkpt><trkpt lat="45.79797460546345" lon="8.875865530730913"><ele>344.0</ele><time>2026-04-25T08:25:26.996Z</time></trkpt><trkpt lat="45.797894701517905" lon="8.875749481207308"><ele>343.2</ele><time>2026-04-25T08:25:27.996Z</time></trkpt><trkpt lat="45.797807924983694" lon="8.875639902969208"><ele>342.4</ele><time>2026-04-25T08:25:28.996Z</time></trkpt><trkpt lat="45.797715961210756" lon="8.875540228309815"><ele>341.6</ele><time>2026-04-25T08:25:29.996Z</time></trkpt><trkpt lat="45.79762602085914" lon="8.875450246502108"><ele>340.8</ele><time>2026-04-25T08:25:30.996Z</time></trkpt><trkpt lat="45.79755994169309" lon="8.875353670761422"><ele>340.0</ele><time>2026-04-25T08:25:31.993Z</time></trkpt><trkpt lat="45.797521487133515" lon="8.87523684268929"><ele>338.3333333333333</ele><time>2026-04-25T08:25:32.993Z</time></trkpt><trkpt lat="45.797517707978216" lon="8.8751117101768"><ele>336.66666666666663</ele><time>2026-04-25T08:25:33.993Z</time></trkpt><trkpt lat="45.79754865615287" lon="8.875001336929794"><ele>335.0</ele><time>2026-04-25T08:25:34.993Z</time></trkpt><trkpt lat="45.797603219147426" lon="8.874914420483897"><ele>333.3333333333333</ele><time>2026-04-25T08:25:35.993Z</time></trkpt><trkpt lat="45.79767058024272" lon="8.874855915415889"><ele>331.6666666666667</ele><time>2026-04-25T08:25:36.993Z</time></trkpt><trkpt lat="45.79775658457386" lon="8.874826411135128"><ele>330.0</ele><time>2026-04-25T08:25:37.993Z</time></trkpt><trkpt lat="45.797851598062316" lon="8.87481386125971"><ele>329.6</ele><time>2026-04-25T08:25:38.993Z</time></trkpt><trkpt lat="45.7979580246802" lon="8.87480969784549"><ele>329.2</ele><time>2026-04-25T08:25:39.993Z</time></trkpt><trkpt lat="45.798065799088654" lon="8.874814216833197"><ele>328.79999999999995</ele><time>2026-04-25T08:25:40.994Z</time></trkpt><trkpt lat="45.798182000792885" lon="8.874816908153932"><ele>328.4</ele><time>2026-04-25T08:25:41.993Z</time></trkpt><trkpt lat="45.79829584941363" lon="8.87482158747763"><ele>328.0</ele><time>2026-04-25T08:25:42.993Z</time></trkpt><trkpt lat="45.7984104286171" lon="8.874819659363988"><ele>330.25</ele><time>2026-04-25T08:25:43.993Z</time></trkpt><trkpt lat="45.798533077420075" lon="8.874813216710818"><ele>332.5</ele><time>2026-04-25T08:25:44.994Z</time></trkpt><trkpt lat="45.79865307124605" lon="8.874787627155023"><ele>334.75</ele><time>2026-04-25T08:25:45.994Z</time></trkpt><trkpt lat="45.79877264307738" lon="8.874728151987817"><ele>337.0</ele><time>2026-04-25T08:25:46.994Z</time></trkpt><trkpt lat="45.79888463529174" lon="8.874657433004787"><ele>337.0</ele><time>2026-04-25T08:25:47.994Z</time></trkpt><trkpt lat="45.79900122875628" lon="8.874582181769805"><ele>337.0</ele><time>2026-04-25T08:25:48.994Z</time></trkpt><trkpt lat="45.7991221240547" lon="8.874510666410918"><ele>337.0</ele><time>2026-04-25T08:25:49.994Z</time></trkpt><trkpt lat="45.799244761828064" lon="8.87443782678193"><ele>337.0</ele><time>2026-04-25T08:25:50.994Z</time></trkpt><trkpt lat="45.799374858870316" lon="8.874362117426108"><ele>334.0</ele><time>2026-04-25T08:25:51.994Z</time></trkpt><trkpt lat="45.7995000467938" lon="8.87426994910645"><ele>331.0</ele><time>2026-04-25T08:25:52.994Z</time></trkpt><trkpt lat="45.79961836162578" lon="8.874172999705365"><ele>328.0</ele><time>2026-04-25T08:25:53.994Z</time></trkpt><trkpt lat="45.799730726746866" lon="8.874066250881457"><ele>325.0</ele><time>2026-04-25T08:25:54.994Z</time></trkpt><trkpt lat="45.7998346263697" lon="8.873931186805226"><ele>325.0</ele><time>2026-04-25T08:25:55.994Z</time></trkpt><trkpt lat="45.79993146112308" lon="8.873790705275558"><ele>325.0</ele><time>2026-04-25T08:25:56.994Z</time></trkpt><trkpt lat="45.80002604977925" lon="8.873657813069439"><ele>325.0</ele><time>2026-04-25T08:25:57.994Z</time></trkpt><trkpt lat="45.80011757275749" lon="8.873528870511349"><ele>325.0</ele><time>2026-04-25T08:25:58.994Z</time></trkpt><trkpt lat="45.80020931099305" lon="8.873404093076864"><ele>323.75</ele><time>2026-04-25T08:25:59.994Z</time></trkpt><trkpt lat="45.80030077595878" lon="8.873281422409585"><ele>322.5</ele><time>2026-04-25T08:26:00.994Z</time></trkpt><trkpt lat="45.800391717571486" lon="8.873156724069462"><ele>321.25</ele><time>2026-04-25T08:26:01.994Z</time></trkpt><trkpt lat="45.80047545959905" lon="8.873050916292181"><ele>320.0</ele><time>2026-04-25T08:26:02.994Z</time></trkpt><trkpt lat="45.80056017111205" lon="8.872973774528393"><ele>320.0</ele><time>2026-04-25T08:26:03.994Z</time></trkpt><trkpt lat="45.800652610224944" lon="8.872940528307868"><ele>320.0</ele><time>2026-04-25T08:26:04.994Z</time></trkpt><trkpt lat="45.800727998661095" lon="8.872939562499104"><ele>320.0</ele><time>2026-04-25T08:26:05.994Z</time></trkpt><trkpt lat="45.800837753174235" lon="8.872966808206824"><ele>320.0</ele><time>2026-04-25T08:26:07.994Z</time></trkpt><trkpt lat="45.80092076043385" lon="8.873000150746021"><ele>320.0</ele><time>2026-04-25T08:26:09.994Z</time></trkpt><trkpt lat="45.80102813197015" lon="8.873039055635179"><ele>317.5</ele><time>2026-04-25T08:26:11.994Z</time></trkpt><trkpt lat="45.80108559044422" lon="8.873084006382188"><ele>315.0</ele><time>2026-04-25T08:26:12.994Z</time></trkpt><trkpt lat="45.80115733251093" lon="8.873104038749021"><ele>312.5</ele><time>2026-04-25T08:26:13.994Z</time></trkpt><trkpt lat="45.80122363457736" lon="8.873107395082634"><ele>310.0</ele><time>2026-04-25T08:26:14.994Z</time></trkpt><trkpt lat="45.80133625424711" lon="8.873059676595394"><ele>307.5</ele><time>2026-04-25T08:26:16.994Z</time></trkpt><trkpt lat="45.80140962077512" lon="8.872966998124886"><ele>305.0</ele><time>2026-04-25T08:26:18.994Z</time></trkpt><trkpt lat="45.80146366713026" lon="8.872825347988108"><ele>305.0</ele><time>2026-04-25T08:26:20.994Z</time></trkpt><trkpt lat="45.80149511472021" lon="8.872703389456275"><ele>305.0</ele><time>2026-04-25T08:26:22.994Z</time></trkpt><trkpt lat="45.801509846453115" lon="8.872572807398544"><ele>305.0</ele><time>2026-04-25T08:26:25.994Z</time></trkpt><trkpt lat="45.80152916514735" lon="8.872484306987191"><ele>305.0</ele><time>2026-04-25T08:26:27.994Z</time></trkpt><trkpt lat="45.801559880367854" lon="8.872391323190438"><ele>305.0</ele><time>2026-04-25T08:26:29.994Z</time></trkpt><trkpt lat="45.80158487027936" lon="8.872288888646056"><ele>305.0</ele><time>2026-04-25T08:26:32.994Z</time></trkpt><trkpt lat="45.80160447241558" lon="8.872197989376684"><ele>305.33333333333337</ele><time>2026-04-25T08:26:35.994Z</time></trkpt><trkpt lat="45.801648567718516" lon="8.872120567455756"><ele>305.6666666666667</ele><time>2026-04-25T08:26:40.994Z</time></trkpt><trkpt lat="45.80173177742611" lon="8.8720504677328"><ele>306.0</ele><time>2026-04-25T08:26:42.994Z</time></trkpt><trkpt lat="45.80177960909151" lon="8.871981180879136"><ele>306.3333333333333</ele><time>2026-04-25T08:26:43.994Z</time></trkpt><trkpt lat="45.80182594439788" lon="8.871884845124752"><ele>306.66666666666663</ele><time>2026-04-25T08:26:44.994Z</time></trkpt><trkpt lat="45.80186422245143" lon="8.871786098630954"><ele>307.0</ele><time>2026-04-25T08:26:45.994Z</time></trkpt><trkpt lat="45.801979767771385" lon="8.87163137337944"><ele>307.0</ele><time>2026-04-25T08:26:47.995Z</time></trkpt><trkpt lat="45.802067462892644" lon="8.871583411187967"><ele>307.0</ele><time>2026-04-25T08:26:48.995Z</time></trkpt><trkpt lat="45.80216764438086" lon="8.871550990486433"><ele>307.0</ele><time>2026-04-25T08:26:49.995Z</time></trkpt><trkpt lat="45.80227238418835" lon="8.871519733048329"><ele>307.0</ele><time>2026-04-25T08:26:50.995Z</time></trkpt><trkpt lat="45.80237300220825" lon="8.871498641993371"><ele>307.0</ele><time>2026-04-25T08:26:51.995Z</time></trkpt><trkpt lat="45.80248130242329" lon="8.871485708632422"><ele>307.0</ele><time>2026-04-25T08:26:52.995Z</time></trkpt><trkpt lat="45.80259131642055" lon="8.871498820658305"><ele>307.0</ele><time>2026-04-25T08:26:53.995Z</time></trkpt><trkpt lat="45.802703689145375" lon="8.871542310916348"><ele>307.0</ele><time>2026-04-25T08:26:54.995Z</time></trkpt><trkpt lat="45.80280965202754" lon="8.871615311517061"><ele>307.0</ele><time>2026-04-25T08:26:55.995Z</time></trkpt><trkpt lat="45.80290858251951" lon="8.871707482343538"><ele>309.0</ele><time>2026-04-25T08:26:56.995Z</time></trkpt><trkpt lat="45.802994781790055" lon="8.87182661619544"><ele>311.0</ele><time>2026-04-25T08:26:57.995Z</time></trkpt><trkpt lat="45.8030758991765" lon="8.871983335569043"><ele>313.0</ele><time>2026-04-25T08:26:58.995Z</time></trkpt><trkpt lat="45.803165335532135" lon="8.872169473610315"><ele>315.0</ele><time>2026-04-25T08:26:59.995Z</time></trkpt><trkpt lat="45.80326360763145" lon="8.872366161572641"><ele>315.0</ele><time>2026-04-25T08:27:00.995Z</time></trkpt><trkpt lat="45.80337114540137" lon="8.872577085703233"><ele>315.0</ele><time>2026-04-25T08:27:01.995Z</time></trkpt><trkpt lat="45.80348770013045" lon="8.872802919274957"><ele>315.0</ele><time>2026-04-25T08:27:02.995Z</time></trkpt><trkpt lat="45.80361128487283" lon="8.873034428818473"><ele>315.6666666666667</ele><time>2026-04-25T08:27:03.995Z</time></trkpt><trkpt lat="45.803730280599304" lon="8.873267061377353"><ele>316.33333333333337</ele><time>2026-04-25T08:27:04.995Z</time></trkpt><trkpt lat="45.80384923316426" lon="8.873494720424619"><ele>317.0</ele><time>2026-04-25T08:27:05.995Z</time></trkpt><trkpt lat="45.803963313405916" lon="8.873723111145518"><ele>317.0</ele><time>2026-04-25T08:27:06.995Z</time></trkpt><trkpt lat="45.80407260438631" lon="8.87394985534013"><ele>317.0</ele><time>2026-04-25T08:27:07.995Z</time></trkpt><trkpt lat="45.80417435078331" lon="8.874168759924773"><ele>317.0</ele><time>2026-04-25T08:27:08.995Z</time></trkpt><trkpt lat="45.80426738944198" lon="8.874382134969451"><ele>321.0</ele><time>2026-04-25T08:27:09.995Z</time></trkpt><trkpt lat="45.80436181018718" lon="8.874585406587727"><ele>325.0</ele><time>2026-04-25T08:27:10.995Z</time></trkpt><trkpt lat="45.80445709541909" lon="8.87478156483917"><ele>329.0</ele><time>2026-04-25T08:27:11.995Z</time></trkpt><trkpt lat="45.804557414018966" lon="8.874974688564427"><ele>325.0</ele><time>2026-04-25T08:27:12.995Z</time></trkpt><trkpt lat="45.80465784395679" lon="8.875153005930771"><ele>321.0</ele><time>2026-04-25T08:27:13.995Z</time></trkpt><trkpt lat="45.80476710839662" lon="8.875327350822216"><ele>317.0</ele><time>2026-04-25T08:27:14.995Z</time></trkpt><trkpt lat="45.804897049035574" lon="8.875484938536774"><ele>317.0</ele><time>2026-04-25T08:27:15.995Z</time></trkpt><trkpt lat="45.805043772555734" lon="8.875619362338544"><ele>317.0</ele><time>2026-04-25T08:27:16.995Z</time></trkpt><trkpt lat="45.80520132420419" lon="8.875753571863854"><ele>317.0</ele><time>2026-04-25T08:27:17.995Z</time></trkpt><trkpt lat="45.80534871582229" lon="8.875921104184426"><ele>321.33333333333337</ele><time>2026-04-25T08:27:18.995Z</time></trkpt><trkpt lat="45.805485984514455" lon="8.876103828007457"><ele>325.6666666666667</ele><time>2026-04-25T08:27:19.995Z</time></trkpt><trkpt lat="45.80561793005439" lon="8.876285006498225"><ele>330.0</ele><time>2026-04-25T08:27:20.995Z</time></trkpt><trkpt lat="45.80574289689547" lon="8.87647082800039"><ele>330.0</ele><time>2026-04-25T08:27:21.995Z</time></trkpt><trkpt lat="45.80585394766456" lon="8.876668137067345"><ele>330.0</ele><time>2026-04-25T08:27:22.995Z</time></trkpt><trkpt lat="45.80595294364113" lon="8.87688430302826"><ele>330.0</ele><time>2026-04-25T08:27:23.995Z</time></trkpt><trkpt lat="45.806049967779806" lon="8.877112717309805"><ele>330.6666666666667</ele><time>2026-04-25T08:27:24.995Z</time></trkpt><trkpt lat="45.806143916613024" lon="8.877331678079434"><ele>331.33333333333337</ele><time>2026-04-25T08:27:25.995Z</time></trkpt><trkpt lat="45.80624043069065" lon="8.877541803037362"><ele>332.0</ele><time>2026-04-25T08:27:26.995Z</time></trkpt><trkpt lat="45.80633554903302" lon="8.877744999095995"><ele>332.0</ele><time>2026-04-25T08:27:27.995Z</time></trkpt><trkpt lat="45.806437853040215" lon="8.877942548750031"><ele>332.0</ele><time>2026-04-25T08:27:28.995Z</time></trkpt><trkpt lat="45.80655986247385" lon="8.878138201443193"><ele>332.0</ele><time>2026-04-25T08:27:29.995Z</time></trkpt><trkpt lat="45.80670267077647" lon="8.878317063774356"><ele>333.6666666666667</ele><time>2026-04-25T08:27:30.995Z</time></trkpt><trkpt lat="45.80685983877288" lon="8.878477590747783"><ele>335.3333333333333</ele><time>2026-04-25T08:27:31.995Z</time></trkpt><trkpt lat="45.807025492608936" lon="8.878612983867214"><ele>337.0</ele><time>2026-04-25T08:27:32.995Z</time></trkpt><trkpt lat="45.80719013441642" lon="8.87874630774347"><ele>337.0</ele><time>2026-04-25T08:27:33.995Z</time></trkpt><trkpt lat="45.80735528837505" lon="8.878875593744333"><ele>337.0</ele><time>2026-04-25T08:27:34.995Z</time></trkpt><trkpt lat="45.80751612330934" lon="8.879002156020118"><ele>337.0</ele><time>2026-04-25T08:27:35.995Z</time></trkpt><trkpt lat="45.80766464273763" lon="8.879137213916076"><ele>340.0</ele><time>2026-04-25T08:27:36.995Z</time></trkpt><trkpt lat="45.8077965140862" lon="8.87928854441547"><ele>343.0</ele><time>2026-04-25T08:27:37.993Z</time></trkpt><trkpt lat="45.80792186493572" lon="8.879442625922627"><ele>346.0</ele><time>2026-04-25T08:27:38.993Z</time></trkpt><trkpt lat="45.80804449230752" lon="8.879590700099326"><ele>346.0</ele><time>2026-04-25T08:27:39.993Z</time></trkpt><trkpt lat="45.808150525833014" lon="8.879725769293954"><ele>346.0</ele><time>2026-04-25T08:27:40.993Z</time></trkpt><trkpt lat="45.8082412867682" lon="8.879862080393877"><ele>346.0</ele><time>2026-04-25T08:27:41.993Z</time></trkpt><trkpt lat="45.808362782861956" lon="8.8799439210283"><ele>346.0</ele><time>2026-04-25T08:27:42.993Z</time></trkpt><trkpt lat="45.80848788345718" lon="8.880007434345888"><ele>350.0</ele><time>2026-04-25T08:27:43.993Z</time></trkpt><trkpt lat="45.80862118041494" lon="8.88002563119768"><ele>354.0</ele><time>2026-04-25T08:27:44.993Z</time></trkpt><trkpt lat="45.80875877484522" lon="8.879994501652869"><ele>358.0</ele><time>2026-04-25T08:27:45.993Z</time></trkpt><trkpt lat="45.808885409040975" lon="8.879919578497821"><ele>362.0</ele><time>2026-04-25T08:27:46.993Z</time></trkpt><trkpt lat="45.80900532228943" lon="8.879811085258266"><ele>362.0</ele><time>2026-04-25T08:27:47.993Z</time></trkpt><trkpt lat="45.8090933900182" lon="8.879647541202889"><ele>362.0</ele><time>2026-04-25T08:27:48.993Z</time></trkpt><trkpt lat="45.809160843248385" lon="8.879454030932356"><ele>362.0</ele><time>2026-04-25T08:27:49.992Z</time></trkpt><trkpt lat="45.80919645319787" lon="8.879256681661845"><ele>362.0</ele><time>2026-04-25T08:27:50.993Z</time></trkpt><trkpt lat="45.80920448096687" lon="8.879049762410569"><ele>362.0</ele><time>2026-04-25T08:27:51.993Z</time></trkpt><trkpt lat="45.809197683525255" lon="8.878832346046018"><ele>362.0</ele><time>2026-04-25T08:27:52.993Z</time></trkpt><trkpt lat="45.80918800021063" lon="8.878589205929732"><ele>362.0</ele><time>2026-04-25T08:27:53.993Z</time></trkpt><trkpt lat="45.809180869640976" lon="8.87836602699356"><ele>361.75</ele><time>2026-04-25T08:27:54.993Z</time></trkpt><trkpt lat="45.80917863036374" lon="8.878153957032653"><ele>361.5</ele><time>2026-04-25T08:27:55.993Z</time></trkpt><trkpt lat="45.809175664991486" lon="8.877960654836455"><ele>361.25</ele><time>2026-04-25T08:27:56.993Z</time></trkpt><trkpt lat="45.80917078847465" lon="8.877767502204426"><ele>361.0</ele><time>2026-04-25T08:27:57.993Z</time></trkpt><trkpt lat="45.80917215528283" lon="8.877593611472337"><ele>360.75</ele><time>2026-04-25T08:27:58.993Z</time></trkpt><trkpt lat="45.80918438583072" lon="8.877423029782646"><ele>360.5</ele><time>2026-04-25T08:27:59.993Z</time></trkpt><trkpt lat="45.80921451816102" lon="8.877243723310846"><ele>360.25</ele><time>2026-04-25T08:28:00.993Z</time></trkpt><trkpt lat="45.80926107191337" lon="8.877074967389973"><ele>360.0</ele><time>2026-04-25T08:28:01.993Z</time></trkpt><trkpt lat="45.809325827976046" lon="8.876920275418675"><ele>362.75</ele><time>2026-04-25T08:28:02.994Z</time></trkpt><trkpt lat="45.8094087719929" lon="8.876792002001492"><ele>365.5</ele><time>2026-04-25T08:28:03.994Z</time></trkpt><trkpt lat="45.809514710871" lon="8.87670849784896"><ele>368.25</ele><time>2026-04-25T08:28:04.994Z</time></trkpt><trkpt lat="45.80961641864518" lon="8.876638762252695"><ele>371.0</ele><time>2026-04-25T08:28:05.994Z</time></trkpt><trkpt lat="45.80973407754801" lon="8.876590959764975"><ele>371.75</ele><time>2026-04-25T08:28:06.994Z</time></trkpt><trkpt lat="45.809859255391" lon="8.87657209786213"><ele>372.5</ele><time>2026-04-25T08:28:07.994Z</time></trkpt><trkpt lat="45.80997883469998" lon="8.876582899440937"><ele>373.25</ele><time>2026-04-25T08:28:08.994Z</time></trkpt><trkpt lat="45.8100848153583" lon="8.876623065249786"><ele>374.0</ele><time>2026-04-25T08:28:09.994Z</time></trkpt><trkpt lat="45.81018509972345" lon="8.876683628165585"><ele>374.25</ele><time>2026-04-25T08:28:10.994Z</time></trkpt><trkpt lat="45.810280370334794" lon="8.876765376509253"><ele>374.5</ele><time>2026-04-25T08:28:11.994Z</time></trkpt><trkpt lat="45.81036961489911" lon="8.87687408599193"><ele>374.75</ele><time>2026-04-25T08:28:12.994Z</time></trkpt><trkpt lat="45.81044111114888" lon="8.876997233746476"><ele>375.0</ele><time>2026-04-25T08:28:13.994Z</time></trkpt><trkpt lat="45.81049967502859" lon="8.877145468883556"><ele>375.0</ele><time>2026-04-25T08:28:14.994Z</time></trkpt><trkpt lat="45.810544893281026" lon="8.877316050425103"><ele>375.0</ele><time>2026-04-25T08:28:15.994Z</time></trkpt><trkpt lat="45.81056546211777" lon="8.877485918783474"><ele>375.0</ele><time>2026-04-25T08:28:16.994Z</time></trkpt><trkpt lat="45.81057519618113" lon="8.877661613835961"><ele>375.0</ele><time>2026-04-25T08:28:17.994Z</time></trkpt><trkpt lat="45.810584585268515" lon="8.877837761480556"><ele>375.25</ele><time>2026-04-25T08:28:18.994Z</time></trkpt><trkpt lat="45.81056795854995" lon="8.878025799600033"><ele>375.5</ele><time>2026-04-25T08:28:19.994Z</time></trkpt><trkpt lat="45.810542366136666" lon="8.87821309270653"><ele>375.75</ele><time>2026-04-25T08:28:20.994Z</time></trkpt><trkpt lat="45.810509985765954" lon="8.87838841801208"><ele>376.0</ele><time>2026-04-25T08:28:21.994Z</time></trkpt><trkpt lat="45.810474154403565" lon="8.878552861829775"><ele>376.5</ele><time>2026-04-25T08:28:22.994Z</time></trkpt><trkpt lat="45.81045124929118" lon="8.878716765769319"><ele>377.0</ele><time>2026-04-25T08:28:23.994Z</time></trkpt><trkpt lat="45.81044769992351" lon="8.878883107974582"><ele>377.5</ele><time>2026-04-25T08:28:24.994Z</time></trkpt><trkpt lat="45.81047024333497" lon="8.879047062940415"><ele>378.0</ele><time>2026-04-25T08:28:25.994Z</time></trkpt><trkpt lat="45.81050693252752" lon="8.87920344068663"><ele>377.75</ele><time>2026-04-25T08:28:26.994Z</time></trkpt><trkpt lat="45.810557536678665" lon="8.879355494819782"><ele>377.5</ele><time>2026-04-25T08:28:27.994Z</time></trkpt><trkpt lat="45.81062388142158" lon="8.879495983822475"><ele>377.25</ele><time>2026-04-25T08:28:28.994Z</time></trkpt><trkpt lat="45.810708106996714" lon="8.8796146164545"><ele>377.0</ele><time>2026-04-25T08:28:29.994Z</time></trkpt><trkpt lat="45.81080614772909" lon="8.879713702631248"><ele>377.0</ele><time>2026-04-25T08:28:30.994Z</time></trkpt><trkpt lat="45.810918752110894" lon="8.879792256210258"><ele>377.0</ele><time>2026-04-25T08:28:31.994Z</time></trkpt><trkpt lat="45.8110354037503" lon="8.879890222900695"><ele>377.0</ele><time>2026-04-25T08:28:32.994Z</time></trkpt><trkpt lat="45.81115675730265" lon="8.879964297595379"><ele>377.0</ele><time>2026-04-25T08:28:33.994Z</time></trkpt><trkpt lat="45.811277121996596" lon="8.88003969353991"><ele>378.25</ele><time>2026-04-25T08:28:34.994Z</time></trkpt><trkpt lat="45.81139816219464" lon="8.880115512655985"><ele>379.5</ele><time>2026-04-25T08:28:35.994Z</time></trkpt><trkpt lat="45.811513358088646" lon="8.880186467678387"><ele>380.75</ele><time>2026-04-25T08:28:36.994Z</time></trkpt><trkpt lat="45.8116280032094" lon="8.88025655380958"><ele>382.0</ele><time>2026-04-25T08:28:37.994Z</time></trkpt><trkpt lat="45.811743078817294" lon="8.88032690340427"><ele>383.0</ele><time>2026-04-25T08:28:38.994Z</time></trkpt><trkpt lat="45.81185678301412" lon="8.880399986506037"><ele>384.0</ele><time>2026-04-25T08:28:39.994Z</time></trkpt><trkpt lat="45.81197062473493" lon="8.880471960950342"><ele>385.0</ele><time>2026-04-25T08:28:40.994Z</time></trkpt><trkpt lat="45.81209374731408" lon="8.880549803370334"><ele>386.0</ele><time>2026-04-25T08:28:41.994Z</time></trkpt><trkpt lat="45.81224147349124" lon="8.88063780668789"><ele>386.0</ele><time>2026-04-25T08:28:42.994Z</time></trkpt><trkpt lat="45.81240111977689" lon="8.880735605312111"><ele>386.0</ele><time>2026-04-25T08:28:43.994Z</time></trkpt><trkpt lat="45.81255664622562" lon="8.88083316030837"><ele>386.0</ele><time>2026-04-25T08:28:44.994Z</time></trkpt><trkpt lat="45.81270351243998" lon="8.880925608706224"><ele>386.25</ele><time>2026-04-25T08:28:45.994Z</time></trkpt><trkpt lat="45.812836691026355" lon="8.881009376204988"><ele>386.5</ele><time>2026-04-25T08:28:46.994Z</time></trkpt><trkpt lat="45.81295939841406" lon="8.881086704431565"><ele>386.75</ele><time>2026-04-25T08:28:47.994Z</time></trkpt><trkpt lat="45.81307457569649" lon="8.881158545243578"><ele>387.0</ele><time>2026-04-25T08:28:48.994Z</time></trkpt><trkpt lat="45.81318741988914" lon="8.88122858661245"><ele>387.0</ele><time>2026-04-25T08:28:49.994Z</time></trkpt><trkpt lat="45.813312562540865" lon="8.881280599919425"><ele>387.0</ele><time>2026-04-25T08:28:50.994Z</time></trkpt><trkpt lat="45.813428716328" lon="8.881376154496182"><ele>387.0</ele><time>2026-04-25T08:28:51.994Z</time></trkpt><trkpt lat="45.81355393530395" lon="8.881460649339141"><ele>387.0</ele><time>2026-04-25T08:28:52.994Z</time></trkpt><trkpt lat="45.81367878424866" lon="8.881542841728697"><ele>387.0</ele><time>2026-04-25T08:28:53.994Z</time></trkpt><trkpt lat="45.81380924593513" lon="8.881624450938807"><ele>387.0</ele><time>2026-04-25T08:28:54.994Z</time></trkpt><trkpt lat="45.81393312383866" lon="8.881702032032198"><ele>387.0</ele><time>2026-04-25T08:28:55.994Z</time></trkpt><trkpt lat="45.814055688785885" lon="8.881779782367405"><ele>387.0</ele><time>2026-04-25T08:28:56.994Z</time></trkpt><trkpt lat="45.81418247085996" lon="8.881858548643464"><ele>387.0</ele><time>2026-04-25T08:28:57.994Z</time></trkpt><trkpt lat="45.81431218454149" lon="8.881935991909952"><ele>387.0</ele><time>2026-04-25T08:28:58.994Z</time></trkpt><trkpt lat="45.814442564426614" lon="8.882015029965828"><ele>387.0</ele><time>2026-04-25T08:28:59.994Z</time></trkpt><trkpt lat="45.814572526322934" lon="8.882092894964314"><ele>387.0</ele><time>2026-04-25T08:29:00.994Z</time></trkpt><trkpt lat="45.81470031037119" lon="8.88217106097025"><ele>387.0</ele><time>2026-04-25T08:29:01.994Z</time></trkpt><trkpt lat="45.81482589684222" lon="8.882250282997541"><ele>387.0</ele><time>2026-04-25T08:29:02.994Z</time></trkpt><trkpt lat="45.81495156843546" lon="8.882324502151498"><ele>387.0</ele><time>2026-04-25T08:29:03.994Z</time></trkpt><trkpt lat="45.815074967391624" lon="8.882393184405853"><ele>387.0</ele><time>2026-04-25T08:29:04.994Z</time></trkpt><trkpt lat="45.815202357674586" lon="8.882462614366496"><ele>388.0</ele><time>2026-04-25T08:29:05.994Z</time></trkpt><trkpt lat="45.81533131092424" lon="8.882525757135301"><ele>389.0</ele><time>2026-04-25T08:29:06.994Z</time></trkpt><trkpt lat="45.8154653676427" lon="8.882575245226198"><ele>390.0</ele><time>2026-04-25T08:29:07.994Z</time></trkpt><trkpt lat="45.81560262744542" lon="8.88261785011507"><ele>391.0</ele><time>2026-04-25T08:29:08.994Z</time></trkpt><trkpt lat="45.81573588017838" lon="8.882648798251093"><ele>391.8</ele><time>2026-04-25T08:29:09.994Z</time></trkpt><trkpt lat="45.81585950634066" lon="8.882666747075861"><ele>392.6</ele><time>2026-04-25T08:29:10.994Z</time></trkpt><trkpt lat="45.81597581772142" lon="8.882674094213842"><ele>393.4</ele><time>2026-04-25T08:29:11.994Z</time></trkpt><trkpt lat="45.81607902106211" lon="8.882675823103588"><ele>394.2</ele><time>2026-04-25T08:29:12.994Z</time></trkpt><trkpt lat="45.81617512289214" lon="8.882676146556536"><ele>395.0</ele><time>2026-04-25T08:29:13.994Z</time></trkpt><trkpt lat="45.81626258668484" lon="8.882673011711237"><ele>394.99999999999994</ele><time>2026-04-25T08:29:14.994Z</time></trkpt><trkpt lat="45.81633801630906" lon="8.882671715196404"><ele>395.0</ele><time>2026-04-25T08:29:15.995Z</time></trkpt><trkpt lat="45.81640578800977" lon="8.882672627455907"><ele>395.0</ele><time>2026-04-25T08:29:16.995Z</time></trkpt><trkpt lat="45.81647554159866" lon="8.88268132495999"><ele>395.0</ele><time>2026-04-25T08:29:17.995Z</time></trkpt><trkpt lat="45.81654985378626" lon="8.882707493893225"><ele>394.99999999999994</ele><time>2026-04-25T08:29:18.995Z</time></trkpt><trkpt lat="45.816627703387105" lon="8.882758998494971"><ele>395.0</ele><time>2026-04-25T08:29:19.995Z</time></trkpt><trkpt lat="45.8167133947508" lon="8.882823678277052"><ele>395.0</ele><time>2026-04-25T08:29:20.995Z</time></trkpt><trkpt lat="45.81678665461919" lon="8.882818204292946"><ele>395.0</ele><time>2026-04-25T08:29:21.995Z</time></trkpt><trkpt lat="45.81686685323419" lon="8.882765660938807"><ele>395.0</ele><time>2026-04-25T08:29:22.995Z</time></trkpt><trkpt lat="45.8169422679965" lon="8.882678079568903"><ele>395.0</ele><time>2026-04-25T08:29:23.995Z</time></trkpt><trkpt lat="45.8170247366981" lon="8.882607332648764"><ele>395.0</ele><time>2026-04-25T08:29:24.995Z</time></trkpt><trkpt lat="45.817119185912304" lon="8.882567507665579"><ele>394.5</ele><time>2026-04-25T08:29:25.995Z</time></trkpt><trkpt lat="45.817216911136086" lon="8.882540008738602"><ele>394.0</ele><time>2026-04-25T08:29:26.995Z</time></trkpt><trkpt lat="45.817318612360864" lon="8.882516024354633"><ele>393.5</ele><time>2026-04-25T08:29:27.995Z</time></trkpt><trkpt lat="45.81743886051177" lon="8.882498366091454"><ele>393.0</ele><time>2026-04-25T08:29:28.995Z</time></trkpt><trkpt lat="45.81758118822861" lon="8.882472198139922"><ele>394.0</ele><time>2026-04-25T08:29:29.995Z</time></trkpt><trkpt lat="45.81771976866486" lon="8.88244396377345"><ele>395.0</ele><time>2026-04-25T08:29:30.995Z</time></trkpt><trkpt lat="45.81785646115199" lon="8.882418668052715"><ele>396.0</ele><time>2026-04-25T08:29:31.995Z</time></trkpt><trkpt lat="45.8179913721276" lon="8.882394885388972"><ele>397.0</ele><time>2026-04-25T08:29:32.995Z</time></trkpt><trkpt lat="45.81812269188059" lon="8.882374787167867"><ele>397.0</ele><time>2026-04-25T08:29:33.995Z</time></trkpt><trkpt lat="45.8182551080762" lon="8.882351572476443"><ele>397.0</ele><time>2026-04-25T08:29:34.995Z</time></trkpt><trkpt lat="45.8183876064396" lon="8.882321663388582"><ele>397.0</ele><time>2026-04-25T08:29:35.995Z</time></trkpt><trkpt lat="45.818525921317914" lon="8.882295285048864"><ele>397.0</ele><time>2026-04-25T08:29:36.995Z</time></trkpt><trkpt lat="45.81866477970635" lon="8.88227004795629"><ele>398.0</ele><time>2026-04-25T08:29:37.995Z</time></trkpt><trkpt lat="45.81881281871829" lon="8.882244074881214"><ele>399.0</ele><time>2026-04-25T08:29:38.995Z</time></trkpt><trkpt lat="45.8189648292866" lon="8.88221757913456"><ele>400.0</ele><time>2026-04-25T08:29:39.995Z</time></trkpt><trkpt lat="45.81913576877088" lon="8.882191781564956"><ele>400.0</ele><time>2026-04-25T08:29:40.995Z</time></trkpt><trkpt lat="45.81931467626746" lon="8.882165197374128"><ele>400.0</ele><time>2026-04-25T08:29:41.995Z</time></trkpt><trkpt lat="45.81948643908397" lon="8.882149096788899"><ele>400.0</ele><time>2026-04-25T08:29:42.995Z</time></trkpt><trkpt lat="45.819652976563084" lon="8.882141848881968"><ele>400.6666666666667</ele><time>2026-04-25T08:29:43.993Z</time></trkpt><trkpt lat="45.81981692144251" lon="8.882141483682119"><ele>401.33333333333337</ele><time>2026-04-25T08:29:44.992Z</time></trkpt><trkpt lat="45.81999182778159" lon="8.88214789830115"><ele>402.0</ele><time>2026-04-25T08:29:45.992Z</time></trkpt><trkpt lat="45.82016871824652" lon="8.882166537447153"><ele>402.66666666666663</ele><time>2026-04-25T08:29:46.992Z</time></trkpt><trkpt lat="45.82034605726437" lon="8.882191437852082"><ele>403.3333333333333</ele><time>2026-04-25T08:29:47.992Z</time></trkpt><trkpt lat="45.82052041399192" lon="8.882230861367791"><ele>404.0</ele><time>2026-04-25T08:29:48.992Z</time></trkpt><trkpt lat="45.82069628027626" lon="8.882278562021833"><ele>404.0</ele><time>2026-04-25T08:29:49.993Z</time></trkpt><trkpt lat="45.82086817555358" lon="8.882335820995214"><ele>404.0</ele><time>2026-04-25T08:29:50.993Z</time></trkpt><trkpt lat="45.82103380392588" lon="8.882402062990186"><ele>404.0</ele><time>2026-04-25T08:29:51.993Z</time></trkpt><trkpt lat="45.82119585264059" lon="8.882472507577098"><ele>402.0</ele><time>2026-04-25T08:29:52.992Z</time></trkpt><trkpt lat="45.821359360965644" lon="8.882552551465292"><ele>400.0</ele><time>2026-04-25T08:29:53.992Z</time></trkpt><trkpt lat="45.82151851528851" lon="8.882643034939894"><ele>398.0</ele><time>2026-04-25T08:29:54.992Z</time></trkpt><trkpt lat="45.821679836352324" lon="8.882742375358964"><ele>396.3333333333333</ele><time>2026-04-25T08:29:55.993Z</time></trkpt><trkpt lat="45.82184967361051" lon="8.88285760084653"><ele>394.66666666666663</ele><time>2026-04-25T08:29:56.993Z</time></trkpt><trkpt lat="45.82202324169" lon="8.882991162508702"><ele>393.0</ele><time>2026-04-25T08:29:57.993Z</time></trkpt><trkpt lat="45.82220278398949" lon="8.883176354458012"><ele>393.0</ele><time>2026-04-25T08:29:58.993Z</time></trkpt><trkpt lat="45.82239749469158" lon="8.883363609515227"><ele>393.0</ele><time>2026-04-25T08:29:59.993Z</time></trkpt><trkpt lat="45.82259001594536" lon="8.883560772576994"><ele>395.5</ele><time>2026-04-25T08:30:00.993Z</time></trkpt><trkpt lat="45.82277472400425" lon="8.883753122089516"><ele>398.0</ele><time>2026-04-25T08:30:01.993Z</time></trkpt><trkpt lat="45.82297022458877" lon="8.883927451177339"><ele>398.0</ele><time>2026-04-25T08:30:02.993Z</time></trkpt><trkpt lat="45.82314973966501" lon="8.884115889735819"><ele>398.0</ele><time>2026-04-25T08:30:03.993Z</time></trkpt><trkpt lat="45.82332791984122" lon="8.884301280001056"><ele>398.0</ele><time>2026-04-25T08:30:04.993Z</time></trkpt><trkpt lat="45.82351946400297" lon="8.884498876230682"><ele>399.0</ele><time>2026-04-25T08:30:05.993Z</time></trkpt><trkpt lat="45.82372305960627" lon="8.884739569415025"><ele>400.0</ele><time>2026-04-25T08:30:06.993Z</time></trkpt><trkpt lat="45.823960089125" lon="8.884986486082008"><ele>401.5</ele><time>2026-04-25T08:30:07.993Z</time></trkpt><trkpt lat="45.824216774386564" lon="8.88523857892415"><ele>403.0</ele><time>2026-04-25T08:30:08.993Z</time></trkpt><trkpt lat="45.82447650302277" lon="8.88551602449313"><ele>403.0</ele><time>2026-04-25T08:30:09.993Z</time></trkpt><trkpt lat="45.824722549623814" lon="8.885769559684874"><ele>403.0</ele><time>2026-04-25T08:30:10.993Z</time></trkpt><trkpt lat="45.8249602400742" lon="8.886016587748708"><ele>404.5</ele><time>2026-04-25T08:30:11.993Z</time></trkpt><trkpt lat="45.82519592627652" lon="8.886258537914003"><ele>406.0</ele><time>2026-04-25T08:30:12.993Z</time></trkpt><trkpt lat="45.82542305005031" lon="8.886492378738218"><ele>406.0</ele><time>2026-04-25T08:30:13.993Z</time></trkpt><trkpt lat="45.82564511528579" lon="8.886719476668508"><ele>406.0</ele><time>2026-04-25T08:30:14.993Z</time></trkpt><trkpt lat="45.82585559606574" lon="8.886936392685806"><ele>408.0</ele><time>2026-04-25T08:30:15.993Z</time></trkpt><trkpt lat="45.826065695095096" lon="8.887149188928962"><ele>410.0</ele><time>2026-04-25T08:30:16.993Z</time></trkpt><trkpt lat="45.82626772720508" lon="8.887356564890194"><ele>410.0</ele><time>2026-04-25T08:30:17.993Z</time></trkpt><trkpt lat="45.82644991716443" lon="8.887574178805432"><ele>410.0</ele><time>2026-04-25T08:30:18.993Z</time></trkpt><trkpt lat="45.82663348976573" lon="8.887763857247053"><ele>410.3333333333333</ele><time>2026-04-25T08:30:19.993Z</time></trkpt><trkpt lat="45.82681538375061" lon="8.8879518012501"><ele>410.66666666666663</ele><time>2026-04-25T08:30:20.993Z</time></trkpt><trkpt lat="45.82700327044443" lon="8.888117503930875"><ele>411.0</ele><time>2026-04-25T08:30:21.993Z</time></trkpt><trkpt lat="45.827168241368014" lon="8.888317228375485"><ele>411.66666666666663</ele><time>2026-04-25T08:30:22.993Z</time></trkpt><trkpt lat="45.827336532995815" lon="8.88849152269835"><ele>412.3333333333333</ele><time>2026-04-25T08:30:23.993Z</time></trkpt><trkpt lat="45.8275004723273" lon="8.88866121860579"><ele>413.0</ele><time>2026-04-25T08:30:24.993Z</time></trkpt><trkpt lat="45.827663497973866" lon="8.888829946748602"><ele>413.3333333333333</ele><time>2026-04-25T08:30:25.993Z</time></trkpt><trkpt lat="45.82782452459734" lon="8.888996606055867"><ele>413.66666666666663</ele><time>2026-04-25T08:30:26.993Z</time></trkpt><trkpt lat="45.8279867926982" lon="8.889164549939775"><ele>414.0</ele><time>2026-04-25T08:30:27.993Z</time></trkpt><trkpt lat="45.828147054069206" lon="8.889331163490299"><ele>414.0</ele><time>2026-04-25T08:30:28.993Z</time></trkpt><trkpt lat="45.828306582839204" lon="8.88949745595018"><ele>414.0</ele><time>2026-04-25T08:30:29.993Z</time></trkpt><trkpt lat="45.82846441235189" lon="8.889663222289103"><ele>414.0</ele><time>2026-04-25T08:30:30.993Z</time></trkpt><trkpt lat="45.828622535795276" lon="8.889829679106299"><ele>414.0</ele><time>2026-04-25T08:30:31.993Z</time></trkpt><trkpt lat="45.82877954776796" lon="8.889994966231034"><ele>414.0</ele><time>2026-04-25T08:30:32.993Z</time></trkpt><trkpt lat="45.82893679046097" lon="8.890160506737578"><ele>414.0</ele><time>2026-04-25T08:30:33.993Z</time></trkpt><trkpt lat="45.829095838962814" lon="8.890327949363844"><ele>414.33333333333337</ele><time>2026-04-25T08:30:34.993Z</time></trkpt><trkpt lat="45.82926197524325" lon="8.890468216039082"><ele>414.6666666666667</ele><time>2026-04-25T08:30:35.993Z</time></trkpt><trkpt lat="45.829416512921156" lon="8.890633370393877"><ele>415.0</ele><time>2026-04-25T08:30:36.993Z</time></trkpt><trkpt lat="45.82957239425323" lon="8.890794902536248"><ele>412.6666666666667</ele><time>2026-04-25T08:30:37.993Z</time></trkpt><trkpt lat="45.82972853372682" lon="8.890953019042161"><ele>410.33333333333337</ele><time>2026-04-25T08:30:38.993Z</time></trkpt><trkpt lat="45.82988149539302" lon="8.891109203639747"><ele>408.0</ele><time>2026-04-25T08:30:39.993Z</time></trkpt><trkpt lat="45.83003527441648" lon="8.891266187836333"><ele>406.0</ele><time>2026-04-25T08:30:40.993Z</time></trkpt><trkpt lat="45.83018547080767" lon="8.891422440670025"><ele>404.0</ele><time>2026-04-25T08:30:41.993Z</time></trkpt><trkpt lat="45.830335885405844" lon="8.891576250620897"><ele>402.0</ele><time>2026-04-25T08:30:42.993Z</time></trkpt><trkpt lat="45.83049349381037" lon="8.891739647061195"><ele>402.66666666666663</ele><time>2026-04-25T08:30:43.993Z</time></trkpt><trkpt lat="45.83066957944404" lon="8.89191616396059"><ele>403.3333333333333</ele><time>2026-04-25T08:30:44.993Z</time></trkpt><trkpt lat="45.83085830269311" lon="8.892107867377891"><ele>404.0</ele><time>2026-04-25T08:30:45.993Z</time></trkpt><trkpt lat="45.83105297593315" lon="8.89230637802972"><ele>404.0</ele><time>2026-04-25T08:30:46.993Z</time></trkpt><trkpt lat="45.83126393501576" lon="8.8925143380199"><ele>404.0</ele><time>2026-04-25T08:30:47.993Z</time></trkpt><trkpt lat="45.83148000740256" lon="8.892743397593135"><ele>404.5</ele><time>2026-04-25T08:30:48.993Z</time></trkpt><trkpt lat="45.83168860496448" lon="8.89297182685998"><ele>405.0</ele><time>2026-04-25T08:30:49.993Z</time></trkpt><trkpt lat="45.831897709619255" lon="8.893194134921556"><ele>405.0</ele><time>2026-04-25T08:30:50.993Z</time></trkpt><trkpt lat="45.83210506518474" lon="8.89340869645196"><ele>405.0</ele><time>2026-04-25T08:30:51.993Z</time></trkpt><trkpt lat="45.8323051789849" lon="8.893615509612742"><ele>407.0</ele><time>2026-04-25T08:30:52.993Z</time></trkpt><trkpt lat="45.832495453181075" lon="8.893812329314217"><ele>409.0</ele><time>2026-04-25T08:30:53.993Z</time></trkpt><trkpt lat="45.83268256636097" lon="8.894004985995343"><ele>409.0</ele><time>2026-04-25T08:30:54.993Z</time></trkpt><trkpt lat="45.83286024995592" lon="8.894188280538444"><ele>409.0</ele><time>2026-04-25T08:30:55.993Z</time></trkpt><trkpt lat="45.83302742305396" lon="8.894362774182333"><ele>409.0</ele><time>2026-04-25T08:30:56.993Z</time></trkpt><trkpt lat="45.83319076924958" lon="8.894530092603793"><ele>409.6666666666667</ele><time>2026-04-25T08:30:57.994Z</time></trkpt><trkpt lat="45.83335268684774" lon="8.89469892454129"><ele>410.33333333333337</ele><time>2026-04-25T08:30:58.994Z</time></trkpt><trkpt lat="45.83350542891102" lon="8.89486119879478"><ele>411.0</ele><time>2026-04-25T08:30:59.994Z</time></trkpt><trkpt lat="45.833657607195015" lon="8.89501846608986"><ele>413.33333333333337</ele><time>2026-04-25T08:31:00.994Z</time></trkpt><trkpt lat="45.833811044300894" lon="8.895179686166378"><ele>415.6666666666667</ele><time>2026-04-25T08:31:01.994Z</time></trkpt><trkpt lat="45.8339569996401" lon="8.895334385472284"><ele>418.0</ele><time>2026-04-25T08:31:02.994Z</time></trkpt><trkpt lat="45.8341029997579" lon="8.895485213524164"><ele>418.0</ele><time>2026-04-25T08:31:03.994Z</time></trkpt><trkpt lat="45.83425051160137" lon="8.895636102546113"><ele>418.0</ele><time>2026-04-25T08:31:04.994Z</time></trkpt><trkpt lat="45.834392879599086" lon="8.895780520563259"><ele>418.0</ele><time>2026-04-25T08:31:05.994Z</time></trkpt><trkpt lat="45.83453315142471" lon="8.89592405578507"><ele>418.0</ele><time>2026-04-25T08:31:06.994Z</time></trkpt><trkpt lat="45.83466959592021" lon="8.8960686637281"><ele>418.0</ele><time>2026-04-25T08:31:07.994Z</time></trkpt><trkpt lat="45.834810580488366" lon="8.896224604856453"><ele>418.0</ele><time>2026-04-25T08:31:08.994Z</time></trkpt><trkpt lat="45.834964393195825" lon="8.896403531928277"><ele>418.0</ele><time>2026-04-25T08:31:09.994Z</time></trkpt><trkpt lat="45.8351242577709" lon="8.896606722500612"><ele>418.0</ele><time>2026-04-25T08:31:10.994Z</time></trkpt><trkpt lat="45.83527415502866" lon="8.896822666195144"><ele>418.0</ele><time>2026-04-25T08:31:11.994Z</time></trkpt><trkpt lat="45.83541683716579" lon="8.897060879948585"><ele>417.5</ele><time>2026-04-25T08:31:12.994Z</time></trkpt><trkpt lat="45.83566042150196" lon="8.897538623319614"><ele>417.0</ele><time>2026-04-25T08:31:14.994Z</time></trkpt><trkpt lat="45.83576955787038" lon="8.89777264581483"><ele>415.33333333333337</ele><time>2026-04-25T08:31:15.994Z</time></trkpt><trkpt lat="45.83586698303585" lon="8.897989034835938"><ele>413.6666666666667</ele><time>2026-04-25T08:31:16.994Z</time></trkpt><trkpt lat="45.835948356043176" lon="8.898201438387991"><ele>412.0</ele><time>2026-04-25T08:31:17.994Z</time></trkpt><trkpt lat="45.836019069914414" lon="8.898411308717437"><ele>410.6666666666667</ele><time>2026-04-25T08:31:18.994Z</time></trkpt><trkpt lat="45.8360826615883" lon="8.898614850302785"><ele>409.33333333333337</ele><time>2026-04-25T08:31:19.994Z</time></trkpt><trkpt lat="45.83614166550493" lon="8.898819984647995"><ele>408.0</ele><time>2026-04-25T08:31:20.994Z</time></trkpt><trkpt lat="45.83619807382903" lon="8.899038943661099"><ele>406.66666666666663</ele><time>2026-04-25T08:31:21.994Z</time></trkpt><trkpt lat="45.836249356666976" lon="8.899261815913103"><ele>405.3333333333333</ele><time>2026-04-25T08:31:22.994Z</time></trkpt><trkpt lat="45.83629903696403" lon="8.89949707378465"><ele>404.0</ele><time>2026-04-25T08:31:23.994Z</time></trkpt><trkpt lat="45.83634155016363" lon="8.899742314427382"><ele>404.0</ele><time>2026-04-25T08:31:24.994Z</time></trkpt><trkpt lat="45.83637923554276" lon="8.899992690343366"><ele>404.0</ele><time>2026-04-25T08:31:25.994Z</time></trkpt><trkpt lat="45.836411894282314" lon="8.900229617777699"><ele>404.0</ele><time>2026-04-25T08:31:26.994Z</time></trkpt><trkpt lat="45.83644247312236" lon="8.900465828713413"><ele>403.66666666666663</ele><time>2026-04-25T08:31:27.994Z</time></trkpt><trkpt lat="45.836474132925915" lon="8.900708453637916"><ele>403.33333333333337</ele><time>2026-04-25T08:31:28.994Z</time></trkpt><trkpt lat="45.8365133517153" lon="8.90098009788508"><ele>403.0</ele><time>2026-04-25T08:31:29.994Z</time></trkpt><trkpt lat="45.836556882754316" lon="8.901258670174649"><ele>403.0</ele><time>2026-04-25T08:31:30.994Z</time></trkpt><trkpt lat="45.83659128162254" lon="8.901537725366603"><ele>403.0</ele><time>2026-04-25T08:31:31.994Z</time></trkpt><trkpt lat="45.836625706751754" lon="8.901812603430447"><ele>403.0</ele><time>2026-04-25T08:31:32.994Z</time></trkpt><trkpt lat="45.836656866251126" lon="8.902076087428345"><ele>402.0</ele><time>2026-04-25T08:31:33.994Z</time></trkpt><trkpt lat="45.83669471942085" lon="8.902341013315537"><ele>401.0</ele><time>2026-04-25T08:31:34.994Z</time></trkpt><trkpt lat="45.836724039980496" lon="8.902596776096503"><ele>400.0</ele><time>2026-04-25T08:31:35.994Z</time></trkpt><trkpt lat="45.83675274199342" lon="8.902844408593015"><ele>400.0</ele><time>2026-04-25T08:31:36.994Z</time></trkpt><trkpt lat="45.83678234838461" lon="8.903087179047098"><ele>400.0</ele><time>2026-04-25T08:31:37.994Z</time></trkpt><trkpt lat="45.836810847180104" lon="8.903317903441959"><ele>400.0</ele><time>2026-04-25T08:31:38.994Z</time></trkpt><trkpt lat="45.83683888052383" lon="8.903550149458798"><ele>398.33333333333337</ele><time>2026-04-25T08:31:39.994Z</time></trkpt><trkpt lat="45.836852739628235" lon="8.903794449963035"><ele>396.66666666666663</ele><time>2026-04-25T08:31:40.994Z</time></trkpt><trkpt lat="45.836884909311514" lon="8.904042700679714"><ele>395.0</ele><time>2026-04-25T08:31:41.994Z</time></trkpt><trkpt lat="45.836918736010894" lon="8.904305967526145"><ele>395.0</ele><time>2026-04-25T08:31:42.994Z</time></trkpt><trkpt lat="45.8369474310185" lon="8.904532037325016"><ele>395.0</ele><time>2026-04-25T08:31:43.994Z</time></trkpt><trkpt lat="45.83697183274221" lon="8.904724283138572"><ele>395.0</ele><time>2026-04-25T08:31:44.994Z</time></trkpt><trkpt lat="45.83700910956558" lon="8.90489305704295"><ele>395.0</ele><time>2026-04-25T08:31:45.994Z</time></trkpt><trkpt lat="45.83702316314763" lon="8.905036172198663"><ele>392.8</ele><time>2026-04-25T08:31:46.994Z</time></trkpt><trkpt lat="45.837035270504046" lon="8.905159619749206"><ele>390.6</ele><time>2026-04-25T08:31:47.994Z</time></trkpt><trkpt lat="45.8370403294394" lon="8.905282586256622"><ele>388.4</ele><time>2026-04-25T08:31:48.994Z</time></trkpt><trkpt lat="45.837041163858004" lon="8.90541159629646"><ele>386.2</ele><time>2026-04-25T08:31:49.992Z</time></trkpt><trkpt lat="45.83703835190389" lon="8.905543643918152"><ele>384.0</ele><time>2026-04-25T08:31:50.992Z</time></trkpt><trkpt lat="45.83705261247309" lon="8.905692823732391"><ele>384.0</ele><time>2026-04-25T08:31:51.992Z</time></trkpt><trkpt lat="45.837093840488826" lon="8.90587592165134"><ele>384.0</ele><time>2026-04-25T08:31:52.992Z</time></trkpt><trkpt lat="45.83714488173527" lon="8.90611124599968"><ele>384.0</ele><time>2026-04-25T08:31:53.992Z</time></trkpt><trkpt lat="45.83718774383427" lon="8.906390280396861"><ele>382.3333333333333</ele><time>2026-04-25T08:31:54.992Z</time></trkpt><trkpt lat="45.837225631041356" lon="8.906668064362076"><ele>380.66666666666663</ele><time>2026-04-25T08:31:55.992Z</time></trkpt><trkpt lat="45.83725895542923" lon="8.906929718196457"><ele>379.0</ele><time>2026-04-25T08:31:56.992Z</time></trkpt><trkpt lat="45.837295258367156" lon="8.90720529009454"><ele>379.0</ele><time>2026-04-25T08:31:57.992Z</time></trkpt><trkpt lat="45.837334247482005" lon="8.90748722974073"><ele>379.0</ele><time>2026-04-25T08:31:58.992Z</time></trkpt><trkpt lat="45.83736897647327" lon="8.907747015767539"><ele>379.0</ele><time>2026-04-25T08:31:59.992Z</time></trkpt><trkpt lat="45.837416548126306" lon="8.907995137660961"><ele>379.0</ele><time>2026-04-25T08:32:00.992Z</time></trkpt><trkpt lat="45.837471566701886" lon="8.908234366761231"><ele>379.0</ele><time>2026-04-25T08:32:01.992Z</time></trkpt><trkpt lat="45.837534678310604" lon="8.908462115684495"><ele>379.0</ele><time>2026-04-25T08:32:02.992Z</time></trkpt><trkpt lat="45.83760184400103" lon="8.908655627421812"><ele>378.5</ele><time>2026-04-25T08:32:03.992Z</time></trkpt><trkpt lat="45.83766583684898" lon="8.908816458749929"><ele>378.0</ele><time>2026-04-25T08:32:04.992Z</time></trkpt><trkpt lat="45.83773090321092" lon="8.90896433825838"><ele>377.5</ele><time>2026-04-25T08:32:05.992Z</time></trkpt><trkpt lat="45.83779982685402" lon="8.90910017595197"><ele>377.0</ele><time>2026-04-25T08:32:06.992Z</time></trkpt><trkpt lat="45.83787217576682" lon="8.909228465104906"><ele>377.1666666666667</ele><time>2026-04-25T08:32:07.992Z</time></trkpt><trkpt lat="45.83794641322154" lon="8.90934233436472"><ele>377.33333333333337</ele><time>2026-04-25T08:32:08.992Z</time></trkpt><trkpt lat="45.838008637340685" lon="8.909426660405034"><ele>377.5</ele><time>2026-04-25T08:32:09.992Z</time></trkpt><trkpt lat="45.838065428513815" lon="8.909504198185545"><ele>377.6666666666667</ele><time>2026-04-25T08:32:10.992Z</time></trkpt><trkpt lat="45.83811417190172" lon="8.909577613447151"><ele>377.8333333333333</ele><time>2026-04-25T08:32:11.992Z</time></trkpt><trkpt lat="45.838153329719" lon="8.909651943176776"><ele>378.0</ele><time>2026-04-25T08:32:12.992Z</time></trkpt><trkpt lat="45.83820471027834" lon="8.90979915676971"><ele>378.0</ele><time>2026-04-25T08:32:14.992Z</time></trkpt><trkpt lat="45.838256716300656" lon="8.909936721358138"><ele>378.0</ele><time>2026-04-25T08:32:16.992Z</time></trkpt><trkpt lat="45.83831214601554" lon="8.909980431885712"><ele>378.0</ele><time>2026-04-25T08:32:17.992Z</time></trkpt><trkpt lat="45.83837841892189" lon="8.910003703836326"><ele>378.0</ele><time>2026-04-25T08:32:18.992Z</time></trkpt><trkpt lat="45.8384471474366" lon="8.910037007389285"><ele>378.0</ele><time>2026-04-25T08:32:19.992Z</time></trkpt><trkpt lat="45.838505344409114" lon="8.910090663279423"><ele>378.0</ele><time>2026-04-25T08:32:20.992Z</time></trkpt><trkpt lat="45.83859747848046" lon="8.91020380002597"><ele>378.2</ele><time>2026-04-25T08:32:22.992Z</time></trkpt><trkpt lat="45.83864402619661" lon="8.91026911932809"><ele>378.4</ele><time>2026-04-25T08:32:23.992Z</time></trkpt><trkpt lat="45.83868861468179" lon="8.910338394898469"><ele>378.59999999999997</ele><time>2026-04-25T08:32:24.992Z</time></trkpt><trkpt lat="45.8387586670351" lon="8.910464983723083"><ele>378.79999999999995</ele><time>2026-04-25T08:32:26.992Z</time></trkpt><trkpt lat="45.83881566870071" lon="8.910613524047287"><ele>379.0</ele><time>2026-04-25T08:32:28.992Z</time></trkpt><trkpt lat="45.83889358614547" lon="8.910733600176707"><ele>379.0</ele><time>2026-04-25T08:32:30.992Z</time></trkpt><trkpt lat="45.838975199140904" lon="8.910730926804037"><ele>379.0</ele><time>2026-04-25T08:32:31.992Z</time></trkpt><trkpt lat="45.839012813155044" lon="8.910583607270725"><ele>379.0</ele><time>2026-04-25T08:32:32.992Z</time></trkpt><trkpt lat="45.839038898994346" lon="8.91046561030487"><ele>379.0</ele><time>2026-04-25T08:32:33.992Z</time></trkpt><trkpt lat="45.8390859751637" lon="8.910356346662905"><ele>379.0</ele><time>2026-04-25T08:32:34.992Z</time></trkpt><trkpt lat="45.83916416429419" lon="8.910276962333086"><ele>379.0</ele><time>2026-04-25T08:32:35.992Z</time></trkpt><trkpt lat="45.8392787161463" lon="8.910240819843816"><ele>379.0</ele><time>2026-04-25T08:32:36.992Z</time></trkpt><trkpt lat="45.83941035330426" lon="8.910254749422682"><ele>379.0</ele><time>2026-04-25T08:32:37.992Z</time></trkpt><trkpt lat="45.83953266831269" lon="8.910293146866307"><ele>379.0</ele><time>2026-04-25T08:32:38.992Z</time></trkpt><trkpt lat="45.83964134323375" lon="8.910326703380727"><ele>379.16666666666663</ele><time>2026-04-25T08:32:39.992Z</time></trkpt><trkpt lat="45.83973347497411" lon="8.91035681651642"><ele>379.3333333333333</ele><time>2026-04-25T08:32:40.992Z</time></trkpt><trkpt lat="45.83981497283715" lon="8.910382439474919"><ele>379.5</ele><time>2026-04-25T08:32:41.992Z</time></trkpt><trkpt lat="45.83987917056133" lon="8.910408689999837"><ele>379.6666666666667</ele><time>2026-04-25T08:32:42.993Z</time></trkpt><trkpt lat="45.8399520174995" lon="8.910445307144242"><ele>379.83333333333337</ele><time>2026-04-25T08:32:44.993Z</time></trkpt><trkpt lat="45.840047679987734" lon="8.910492381130355"><ele>380.0</ele><time>2026-04-25T08:32:46.993Z</time></trkpt><trkpt lat="45.84011483409068" lon="8.910478026188764"><ele>380.75</ele><time>2026-04-25T08:32:47.993Z</time></trkpt><trkpt lat="45.840194840092956" lon="8.910396125782267"><ele>381.5</ele><time>2026-04-25T08:32:48.993Z</time></trkpt><trkpt lat="45.840293574933355" lon="8.910263377991427"><ele>382.25</ele><time>2026-04-25T08:32:49.993Z</time></trkpt><trkpt lat="45.840389275061405" lon="8.910107799429587"><ele>383.0</ele><time>2026-04-25T08:32:50.993Z</time></trkpt><trkpt lat="45.84049259572823" lon="8.909965132726123"><ele>383.33333333333337</ele><time>2026-04-25T08:32:51.993Z</time></trkpt><trkpt lat="45.840608153770184" lon="8.90980284469327"><ele>383.6666666666667</ele><time>2026-04-25T08:32:52.993Z</time></trkpt><trkpt lat="45.84073057217538" lon="8.909629778370451"><ele>384.0</ele><time>2026-04-25T08:32:53.993Z</time></trkpt><trkpt lat="45.84085437039894" lon="8.909451028650746"><ele>384.33333333333337</ele><time>2026-04-25T08:32:54.993Z</time></trkpt><trkpt lat="45.84097065913842" lon="8.909284573139685"><ele>384.6666666666667</ele><time>2026-04-25T08:32:55.993Z</time></trkpt><trkpt lat="45.84107745171077" lon="8.909136991597977"><ele>385.0</ele><time>2026-04-25T08:32:56.993Z</time></trkpt><trkpt lat="45.84118243472096" lon="8.908993599002088"><ele>385.0</ele><time>2026-04-25T08:32:57.993Z</time></trkpt><trkpt lat="45.84129179185121" lon="8.90884484337855"><ele>385.0</ele><time>2026-04-25T08:32:58.993Z</time></trkpt><trkpt lat="45.841406480856236" lon="8.908697042109925"><ele>385.0</ele><time>2026-04-25T08:32:59.993Z</time></trkpt><trkpt lat="45.841540949213496" lon="8.908570024347467"><ele>385.0</ele><time>2026-04-25T08:33:00.993Z</time></trkpt><trkpt lat="45.84169435782287" lon="8.908476839142388"><ele>385.0</ele><time>2026-04-25T08:33:01.993Z</time></trkpt><trkpt lat="45.8418574830681" lon="8.908417281950392"><ele>385.0</ele><time>2026-04-25T08:33:02.993Z</time></trkpt><trkpt lat="45.84203660370961" lon="8.908409395436616"><ele>385.6666666666667</ele><time>2026-04-25T08:33:03.993Z</time></trkpt><trkpt lat="45.842232130931855" lon="8.908461052239831"><ele>386.33333333333337</ele><time>2026-04-25T08:33:04.993Z</time></trkpt><trkpt lat="45.84244104877329" lon="8.908546287245475"><ele>387.0</ele><time>2026-04-25T08:33:05.993Z</time></trkpt><trkpt lat="45.8426458267389" lon="8.908642394325133"><ele>390.66666666666663</ele><time>2026-04-25T08:33:06.993Z</time></trkpt><trkpt lat="45.8428291280999" lon="8.908742941958781"><ele>394.3333333333333</ele><time>2026-04-25T08:33:07.993Z</time></trkpt><trkpt lat="45.842998966466055" lon="8.908832630309933"><ele>398.0</ele><time>2026-04-25T08:33:08.993Z</time></trkpt><trkpt lat="45.843157948898686" lon="8.908901816263143"><ele>398.0</ele><time>2026-04-25T08:33:09.993Z</time></trkpt><trkpt lat="45.84332359662602" lon="8.908958299064258"><ele>398.0</ele><time>2026-04-25T08:33:10.993Z</time></trkpt><trkpt lat="45.8434891128328" lon="8.90900407428604"><ele>398.0</ele><time>2026-04-25T08:33:11.993Z</time></trkpt><trkpt lat="45.84364960018257" lon="8.909028035532895"><ele>400.3333333333333</ele><time>2026-04-25T08:33:12.993Z</time></trkpt><trkpt lat="45.84381164277408" lon="8.90904484749105"><ele>402.66666666666663</ele><time>2026-04-25T08:33:13.993Z</time></trkpt><trkpt lat="45.8439707418414" lon="8.909065431487997"><ele>405.0</ele><time>2026-04-25T08:33:14.993Z</time></trkpt><trkpt lat="45.84412044709643" lon="8.909080314541399"><ele>405.0</ele><time>2026-04-25T08:33:15.993Z</time></trkpt><trkpt lat="45.84426621104657" lon="8.909093405747768"><ele>405.0</ele><time>2026-04-25T08:33:16.993Z</time></trkpt><trkpt lat="45.84442381809953" lon="8.90910179422975"><ele>405.0</ele><time>2026-04-25T08:33:17.993Z</time></trkpt><trkpt lat="45.84457640366791" lon="8.909118908265333"><ele>405.5</ele><time>2026-04-25T08:33:18.993Z</time></trkpt><trkpt lat="45.844720292243046" lon="8.90913262170271"><ele>406.0</ele><time>2026-04-25T08:33:19.993Z</time></trkpt><trkpt lat="45.84486676084678" lon="8.909140561346005"><ele>406.5</ele><time>2026-04-25T08:33:20.993Z</time></trkpt><trkpt lat="45.845017005194975" lon="8.909145555005962"><ele>407.0</ele><time>2026-04-25T08:33:21.993Z</time></trkpt><trkpt lat="45.845166857250106" lon="8.909153586632042"><ele>407.25</ele><time>2026-04-25T08:33:22.993Z</time></trkpt><trkpt lat="45.84531443126868" lon="8.909164582313753"><ele>407.5</ele><time>2026-04-25T08:33:23.993Z</time></trkpt><trkpt lat="45.84545654320734" lon="8.909199722563713"><ele>407.75</ele><time>2026-04-25T08:33:24.993Z</time></trkpt><trkpt lat="45.845589509199705" lon="8.90921280021233"><ele>408.0</ele><time>2026-04-25T08:33:25.993Z</time></trkpt><trkpt lat="45.84572296797676" lon="8.909202782747274"><ele>408.5</ele><time>2026-04-25T08:33:26.993Z</time></trkpt><trkpt lat="45.84585543005623" lon="8.90924523600558"><ele>409.0</ele><time>2026-04-25T08:33:27.993Z</time></trkpt><trkpt lat="45.845981426040545" lon="8.909257397183874"><ele>409.5</ele><time>2026-04-25T08:33:28.993Z</time></trkpt><trkpt lat="45.846118162763204" lon="8.909259240270233"><ele>410.0</ele><time>2026-04-25T08:33:29.993Z</time></trkpt><trkpt lat="45.84625470130072" lon="8.909251993053255"><ele>410.0</ele><time>2026-04-25T08:33:30.993Z</time></trkpt><trkpt lat="45.846395057053535" lon="8.909240336700794"><ele>410.0</ele><time>2026-04-25T08:33:31.993Z</time></trkpt><trkpt lat="45.8465321133881" lon="8.909225014449117"><ele>410.0</ele><time>2026-04-25T08:33:32.993Z</time></trkpt><trkpt lat="45.846666606092796" lon="8.909212949393451"><ele>410.0</ele><time>2026-04-25T08:33:33.993Z</time></trkpt><trkpt lat="45.8468008934354" lon="8.909197397869205"><ele>410.75</ele><time>2026-04-25T08:33:34.993Z</time></trkpt><trkpt lat="45.84693889143325" lon="8.909186656565922"><ele>411.5</ele><time>2026-04-25T08:33:35.993Z</time></trkpt><trkpt lat="45.847083916162504" lon="8.909176444417785"><ele>412.25</ele><time>2026-04-25T08:33:36.993Z</time></trkpt><trkpt lat="45.847226598177" lon="8.909158430259222"><ele>413.0</ele><time>2026-04-25T08:33:37.993Z</time></trkpt><trkpt lat="45.84736844891965" lon="8.909142771704834"><ele>413.0</ele><time>2026-04-25T08:33:38.993Z</time></trkpt><trkpt lat="45.847502006903945" lon="8.90912659153687"><ele>413.0</ele><time>2026-04-25T08:33:39.993Z</time></trkpt><trkpt lat="45.84763292059564" lon="8.909109541891226"><ele>413.0</ele><time>2026-04-25T08:33:40.993Z</time></trkpt><trkpt lat="45.847760195642685" lon="8.909097117586633"><ele>413.0</ele><time>2026-04-25T08:33:41.993Z</time></trkpt><trkpt lat="45.84788301731875" lon="8.909088750390422"><ele>413.75</ele><time>2026-04-25T08:33:42.993Z</time></trkpt><trkpt lat="45.84801088812841" lon="8.909076160023378"><ele>414.5</ele><time>2026-04-25T08:33:43.993Z</time></trkpt><trkpt lat="45.848133579791266" lon="8.909060869291453"><ele>415.25</ele><time>2026-04-25T08:33:44.993Z</time></trkpt><trkpt lat="45.848246503709554" lon="8.909046678316301"><ele>416.0</ele><time>2026-04-25T08:33:45.993Z</time></trkpt><trkpt lat="45.848353075377034" lon="8.909030425280347"><ele>416.0</ele><time>2026-04-25T08:33:46.993Z</time></trkpt><trkpt lat="45.848453453654194" lon="8.90901088213588"><ele>416.0</ele><time>2026-04-25T08:33:47.993Z</time></trkpt><trkpt lat="45.848550610509726" lon="8.909026018175208"><ele>416.0</ele><time>2026-04-25T08:33:48.993Z</time></trkpt><trkpt lat="45.84864802612269" lon="8.909011037020065"><ele>416.0</ele><time>2026-04-25T08:33:49.993Z</time></trkpt><trkpt lat="45.84874177632897" lon="8.90897605921855"><ele>416.0</ele><time>2026-04-25T08:33:50.993Z</time></trkpt><trkpt lat="45.84883640096278" lon="8.90900972354288"><ele>415.4</ele><time>2026-04-25T08:33:51.993Z</time></trkpt><trkpt lat="45.84893849535039" lon="8.909002538008744"><ele>414.8</ele><time>2026-04-25T08:33:52.993Z</time></trkpt><trkpt lat="45.84903724779699" lon="8.908999286768035"><ele>414.2</ele><time>2026-04-25T08:33:53.993Z</time></trkpt><trkpt lat="45.8491335039849" lon="8.90900452471349"><ele>413.59999999999997</ele><time>2026-04-25T08:33:54.993Z</time></trkpt><trkpt lat="45.849198630017824" lon="8.90907641738083"><ele>413.0</ele><time>2026-04-25T08:33:55.991Z</time></trkpt><trkpt lat="45.84926496807022" lon="8.909118251161862"><ele>412.66666666666663</ele><time>2026-04-25T08:33:56.992Z</time></trkpt><trkpt lat="45.849331067039046" lon="8.909143063380705"><ele>412.3333333333333</ele><time>2026-04-25T08:33:57.992Z</time></trkpt><trkpt lat="45.8494133376265" lon="8.909143933746316"><ele>412.0</ele><time>2026-04-25T08:33:58.992Z</time></trkpt><trkpt lat="45.84947006853385" lon="8.90906420132686"><ele>411.66666666666663</ele><time>2026-04-25T08:33:59.992Z</time></trkpt><trkpt lat="45.849547474501556" lon="8.90902299562393"><ele>411.3333333333333</ele><time>2026-04-25T08:34:00.992Z</time></trkpt><trkpt lat="45.84962723096053" lon="8.909000294245448"><ele>411.0</ele><time>2026-04-25T08:34:01.991Z</time></trkpt><trkpt lat="45.84972364633082" lon="8.90899243010776"><ele>411.0</ele><time>2026-04-25T08:34:02.992Z</time></trkpt><trkpt lat="45.84983347871591" lon="8.908979906871492"><ele>411.0</ele><time>2026-04-25T08:34:03.992Z</time></trkpt><trkpt lat="45.849954603841496" lon="8.908974249343334"><ele>411.0</ele><time>2026-04-25T08:34:04.992Z</time></trkpt><trkpt lat="45.85007703893648" lon="8.90897172036633"><ele>411.0</ele><time>2026-04-25T08:34:05.992Z</time></trkpt><trkpt lat="45.850190832925406" lon="8.908964824041648"><ele>412.0</ele><time>2026-04-25T08:34:06.992Z</time></trkpt><trkpt lat="45.85030081457144" lon="8.908958900923384"><ele>413.0</ele><time>2026-04-25T08:34:07.992Z</time></trkpt><trkpt lat="45.85040125891308" lon="8.908956992618945"><ele>414.0</ele><time>2026-04-25T08:34:08.991Z</time></trkpt><trkpt lat="45.85050135170772" lon="8.908953179449027"><ele>415.0</ele><time>2026-04-25T08:34:09.991Z</time></trkpt><trkpt lat="45.85060197475272" lon="8.908946648064802"><ele>416.0</ele><time>2026-04-25T08:34:10.991Z</time></trkpt><trkpt lat="45.85070220601524" lon="8.908933117628665"><ele>415.99999999999994</ele><time>2026-04-25T08:34:11.991Z</time></trkpt><trkpt lat="45.85079837512075" lon="8.90892590427833"><ele>416.0</ele><time>2026-04-25T08:34:12.991Z</time></trkpt><trkpt lat="45.850891354293175" lon="8.908916258664751"><ele>416.0</ele><time>2026-04-25T08:34:13.991Z</time></trkpt><trkpt lat="45.85097581018795" lon="8.908909809580715"><ele>416.0</ele><time>2026-04-25T08:34:14.992Z</time></trkpt><trkpt lat="45.851054287069196" lon="8.908902717289763"><ele>415.99999999999994</ele><time>2026-04-25T08:34:15.992Z</time></trkpt><trkpt lat="45.85112411764016" lon="8.908902373863882"><ele>416.0</ele><time>2026-04-25T08:34:16.992Z</time></trkpt><trkpt lat="45.851188899798835" lon="8.908896369166728"><ele>414.8</ele><time>2026-04-25T08:34:17.992Z</time></trkpt><trkpt lat="45.85130928516732" lon="8.908879643913957"><ele>413.6</ele><time>2026-04-25T08:34:19.992Z</time></trkpt><trkpt lat="45.85137937131511" lon="8.90887271339485"><ele>412.4</ele><time>2026-04-25T08:34:20.992Z</time></trkpt><trkpt lat="45.85146421138146" lon="8.908865734091302"><ele>411.2</ele><time>2026-04-25T08:34:21.992Z</time></trkpt><trkpt lat="45.85156391608321" lon="8.908869622607218"><ele>410.0</ele><time>2026-04-25T08:34:22.992Z</time></trkpt><trkpt lat="45.851661252788766" lon="8.908883148668174"><ele>410.0</ele><time>2026-04-25T08:34:23.992Z</time></trkpt><trkpt lat="45.85175465028816" lon="8.908894955335905"><ele>410.0</ele><time>2026-04-25T08:34:24.992Z</time></trkpt><trkpt lat="45.851855844663014" lon="8.908897042245048"><ele>410.0</ele><time>2026-04-25T08:34:25.992Z</time></trkpt><trkpt lat="45.8519610570998" lon="8.908894983877785"><ele>410.0</ele><time>2026-04-25T08:34:26.992Z</time></trkpt><trkpt lat="45.8520668844584" lon="8.908891023973494"><ele>410.0</ele><time>2026-04-25T08:34:27.992Z</time></trkpt><trkpt lat="45.85216993410398" lon="8.908889957646894"><ele>410.0</ele><time>2026-04-25T08:34:28.992Z</time></trkpt><trkpt lat="45.85227436137638" lon="8.9088859449858"><ele>410.0</ele><time>2026-04-25T08:34:29.992Z</time></trkpt><trkpt lat="45.85237687474687" lon="8.908880328672902"><ele>410.0</ele><time>2026-04-25T08:34:30.992Z</time></trkpt><trkpt lat="45.852481565570535" lon="8.908878822432673"><ele>410.0</ele><time>2026-04-25T08:34:31.992Z</time></trkpt><trkpt lat="45.85258999718154" lon="8.908872233269511"><ele>410.0</ele><time>2026-04-25T08:34:32.992Z</time></trkpt><trkpt lat="45.85269068245595" lon="8.908869913830316"><ele>410.0</ele><time>2026-04-25T08:34:33.992Z</time></trkpt><trkpt lat="45.852795284861735" lon="8.908865419384053"><ele>410.0</ele><time>2026-04-25T08:34:34.992Z</time></trkpt><trkpt lat="45.852901067483444" lon="8.908858442066474"><ele>410.0</ele><time>2026-04-25T08:34:35.992Z</time></trkpt><trkpt lat="45.853005824932346" lon="8.908849151272365"><ele>410.0</ele><time>2026-04-25T08:34:36.992Z</time></trkpt><trkpt lat="45.85311451628601" lon="8.908833896214045"><ele>410.0</ele><time>2026-04-25T08:34:37.992Z</time></trkpt><trkpt lat="45.85322065806018" lon="8.90882390059079"><ele>410.0</ele><time>2026-04-25T08:34:38.992Z</time></trkpt><trkpt lat="45.853331475764655" lon="8.908810324302449"><ele>410.0</ele><time>2026-04-25T08:34:39.992Z</time></trkpt><trkpt lat="45.85344667132943" lon="8.90879902811636"><ele>410.0</ele><time>2026-04-25T08:34:40.992Z</time></trkpt><trkpt lat="45.85357486923178" lon="8.908779615191783"><ele>410.0</ele><time>2026-04-25T08:34:41.992Z</time></trkpt><trkpt lat="45.85370825959013" lon="8.908763843456395"><ele>410.25</ele><time>2026-04-25T08:34:42.992Z</time></trkpt><trkpt lat="45.853834358729145" lon="8.908749999516361"><ele>410.5</ele><time>2026-04-25T08:34:43.992Z</time></trkpt><trkpt lat="45.85395217982431" lon="8.908731736850099"><ele>410.75</ele><time>2026-04-25T08:34:44.992Z</time></trkpt><trkpt lat="45.854061380362936" lon="8.908712914765452"><ele>411.0</ele><time>2026-04-25T08:34:45.992Z</time></trkpt><trkpt lat="45.85416175081213" lon="8.90870090924307"><ele>411.0</ele><time>2026-04-25T08:34:46.992Z</time></trkpt><trkpt lat="45.85424235555793" lon="8.908686058163097"><ele>411.0</ele><time>2026-04-25T08:34:47.992Z</time></trkpt><trkpt lat="45.85430603592279" lon="8.908678984803968"><ele>411.0</ele><time>2026-04-25T08:34:48.992Z</time></trkpt><trkpt lat="45.854408214425504" lon="8.908664284975401"><ele>411.0</ele><time>2026-04-25T08:34:50.992Z</time></trkpt><trkpt lat="45.854518172169065" lon="8.908655114167521"><ele>411.0</ele><time>2026-04-25T08:34:52.992Z</time></trkpt><trkpt lat="45.854656416113734" lon="8.90862867896911"><ele>411.6666666666667</ele><time>2026-04-25T08:34:54.992Z</time></trkpt><trkpt lat="45.85474493956802" lon="8.908616868995132"><ele>412.33333333333337</ele><time>2026-04-25T08:34:55.992Z</time></trkpt><trkpt lat="45.85482984095878" lon="8.908603191188243"><ele>413.0</ele><time>2026-04-25T08:34:56.992Z</time></trkpt><trkpt lat="45.854900648149105" lon="8.908590449945352"><ele>413.6666666666667</ele><time>2026-04-25T08:34:57.992Z</time></trkpt><trkpt lat="45.85496542297378" lon="8.908603261749825"><ele>414.33333333333337</ele><time>2026-04-25T08:34:58.992Z</time></trkpt><trkpt lat="45.85507866738931" lon="8.908591802164864"><ele>415.0</ele><time>2026-04-25T08:35:00.992Z</time></trkpt><trkpt lat="45.85515867220139" lon="8.90857005210266"><ele>415.6666666666667</ele><time>2026-04-25T08:35:01.992Z</time></trkpt><trkpt lat="45.85524899957128" lon="8.908590036086323"><ele>416.33333333333337</ele><time>2026-04-25T08:35:02.992Z</time></trkpt><trkpt lat="45.85533881103749" lon="8.90860169928597"><ele>417.0</ele><time>2026-04-25T08:35:03.992Z</time></trkpt><trkpt lat="45.8554262070722" lon="8.908607824504344"><ele>417.66666666666663</ele><time>2026-04-25T08:35:04.992Z</time></trkpt><trkpt lat="45.855514786437816" lon="8.90861368017897"><ele>418.3333333333333</ele><time>2026-04-25T08:35:05.992Z</time></trkpt><trkpt lat="45.855603873638145" lon="8.908617694529713"><ele>419.0</ele><time>2026-04-25T08:35:06.992Z</time></trkpt><trkpt lat="45.85568557532139" lon="8.908618442079751"><ele>418.99999999999994</ele><time>2026-04-25T08:35:07.992Z</time></trkpt><trkpt lat="45.85576819843742" lon="8.908619321366098"><ele>419.0</ele><time>2026-04-25T08:35:08.992Z</time></trkpt><trkpt lat="45.855840424445915" lon="8.908630574789697"><ele>419.0</ele><time>2026-04-25T08:35:09.992Z</time></trkpt><trkpt lat="45.85596490796286" lon="8.908642979703025"><ele>419.0</ele><time>2026-04-25T08:35:11.992Z</time></trkpt><trkpt lat="45.856034591244224" lon="8.908648239325654"><ele>418.99999999999994</ele><time>2026-04-25T08:35:12.992Z</time></trkpt><trkpt lat="45.85611956617414" lon="8.90865411002619"><ele>419.0</ele><time>2026-04-25T08:35:13.992Z</time></trkpt><trkpt lat="45.8562174314024" lon="8.908660888285475"><ele>419.25</ele><time>2026-04-25T08:35:14.992Z</time></trkpt><trkpt lat="45.856324030999524" lon="8.908662625543753"><ele>419.5</ele><time>2026-04-25T08:35:15.992Z</time></trkpt><trkpt lat="45.8564294129431" lon="8.90867514010699"><ele>419.75</ele><time>2026-04-25T08:35:16.992Z</time></trkpt><trkpt lat="45.856545177377726" lon="8.908680744367167"><ele>420.0</ele><time>2026-04-25T08:35:17.992Z</time></trkpt><trkpt lat="45.856666561452975" lon="8.90868111043364"><ele>420.0</ele><time>2026-04-25T08:35:18.992Z</time></trkpt><trkpt lat="45.85677993583837" lon="8.908688931351001"><ele>420.0</ele><time>2026-04-25T08:35:19.992Z</time></trkpt><trkpt lat="45.85688045963123" lon="8.908694703124768"><ele>420.0</ele><time>2026-04-25T08:35:20.992Z</time></trkpt><trkpt lat="45.85696773153388" lon="8.908707692493133"><ele>420.0</ele><time>2026-04-25T08:35:21.992Z</time></trkpt><trkpt lat="45.85704703595503" lon="8.90871159785683"><ele>420.0</ele><time>2026-04-25T08:35:22.992Z</time></trkpt><trkpt lat="45.857124379165654" lon="8.90872126544675"><ele>419.8</ele><time>2026-04-25T08:35:23.992Z</time></trkpt><trkpt lat="45.85721946120582" lon="8.908731221943286"><ele>419.6</ele><time>2026-04-25T08:35:24.992Z</time></trkpt><trkpt lat="45.857322292249094" lon="8.908739116859627"><ele>419.4</ele><time>2026-04-25T08:35:25.992Z</time></trkpt><trkpt lat="45.85741649629542" lon="8.90874750656615"><ele>419.2</ele><time>2026-04-25T08:35:26.992Z</time></trkpt><trkpt lat="45.85751096111151" lon="8.90875677500893"><ele>419.0</ele><time>2026-04-25T08:35:27.993Z</time></trkpt><trkpt lat="45.857608857637736" lon="8.908772910205002"><ele>419.3333333333333</ele><time>2026-04-25T08:35:28.993Z</time></trkpt><trkpt lat="45.8577018054129" lon="8.908798663160459"><ele>419.66666666666663</ele><time>2026-04-25T08:35:29.993Z</time></trkpt><trkpt lat="45.85777954979416" lon="8.908828946628123"><ele>420.0</ele><time>2026-04-25T08:35:30.993Z</time></trkpt><trkpt lat="45.85785649051382" lon="8.908868918250457"><ele>420.33333333333337</ele><time>2026-04-25T08:35:31.993Z</time></trkpt><trkpt lat="45.857927964176994" lon="8.908902048155731"><ele>420.6666666666667</ele><time>2026-04-25T08:35:32.993Z</time></trkpt><trkpt lat="45.85800120172032" lon="8.908936075071411"><ele>421.0</ele><time>2026-04-25T08:35:33.993Z</time></trkpt><trkpt lat="45.85809130720598" lon="8.908978455297728"><ele>421.0</ele><time>2026-04-25T08:35:34.993Z</time></trkpt><trkpt lat="45.85818245327409" lon="8.909023357084287"><ele>421.0</ele><time>2026-04-25T08:35:35.993Z</time></trkpt><trkpt lat="45.858276045909086" lon="8.909064764937844"><ele>421.0</ele><time>2026-04-25T08:35:36.993Z</time></trkpt><trkpt lat="45.858362296663266" lon="8.90910238569112"><ele>421.0</ele><time>2026-04-25T08:35:37.993Z</time></trkpt><trkpt lat="45.858452185649725" lon="8.90913753040992"><ele>421.0</ele><time>2026-04-25T08:35:38.993Z</time></trkpt><trkpt lat="45.85853183947376" lon="8.90916687062109"><ele>421.00000000000006</ele><time>2026-04-25T08:35:39.993Z</time></trkpt><trkpt lat="45.85861066740362" lon="8.909200114743744"><ele>421.0</ele><time>2026-04-25T08:35:40.993Z</time></trkpt><trkpt lat="45.858685201166054" lon="8.909229973594734"><ele>421.0</ele><time>2026-04-25T08:35:41.993Z</time></trkpt><trkpt lat="45.85874615967981" lon="8.909258005015607"><ele>421.0</ele><time>2026-04-25T08:35:42.993Z</time></trkpt><trkpt lat="45.858809491121036" lon="8.909277121338386"><ele>421.00000000000006</ele><time>2026-04-25T08:35:43.993Z</time></trkpt><trkpt lat="45.858931623090356" lon="8.909305843804944"><ele>421.0</ele><time>2026-04-25T08:35:45.993Z</time></trkpt><trkpt lat="45.859010994435096" lon="8.909378921901393"><ele>421.4</ele><time>2026-04-25T08:35:47.993Z</time></trkpt><trkpt lat="45.85901926563041" lon="8.909487069958368"><ele>421.8</ele><time>2026-04-25T08:35:49.993Z</time></trkpt><trkpt lat="45.85895067306712" lon="8.909590633669524"><ele>422.2</ele><time>2026-04-25T08:35:51.993Z</time></trkpt><trkpt lat="45.858861783628605" lon="8.90963897148181"><ele>422.59999999999997</ele><time>2026-04-25T08:35:53.993Z</time></trkpt><trkpt lat="45.85874921544218" lon="8.909600791304744"><ele>423.0</ele><time>2026-04-25T08:35:55.993Z</time></trkpt><trkpt lat="45.85869702586034" lon="8.909443784913043"><ele>423.0</ele><time>2026-04-25T08:35:58.993Z</time></trkpt><trkpt lat="45.85872869700219" lon="8.909342290218136"><ele>423.0</ele><time>2026-04-25T08:36:00.993Z</time></trkpt><trkpt lat="45.858806498565606" lon="8.90926095557136"><ele>423.0</ele><time>2026-04-25T08:55:55.962Z</time></trkpt><trkpt lat="45.85886748445168" lon="8.909293873546288"><ele>423.0</ele><time>2026-04-25T08:55:56.962Z</time></trkpt><trkpt lat="45.85900998577261" lon="8.909376247575759"><ele>423.0</ele><time>2026-04-25T08:55:58.962Z</time></trkpt><trkpt lat="45.85909001542291" lon="8.909426442430147"><ele>423.0</ele><time>2026-04-25T08:55:59.962Z</time></trkpt><trkpt lat="45.85916486820314" lon="8.909411828342014"><ele>423.0</ele><time>2026-04-25T08:56:00.962Z</time></trkpt><trkpt lat="45.85925769902913" lon="8.909362101702213"><ele>423.0</ele><time>2026-04-25T08:56:01.962Z</time></trkpt><trkpt lat="45.85936420862821" lon="8.909312419647813"><ele>423.0</ele><time>2026-04-25T08:56:02.962Z</time></trkpt><trkpt lat="45.859458200226314" lon="8.90929273905448"><ele>423.0</ele><time>2026-04-25T08:56:03.962Z</time></trkpt><trkpt lat="45.859541760089556" lon="8.909294981489799"><ele>424.3333333333333</ele><time>2026-04-25T08:56:04.962Z</time></trkpt><trkpt lat="45.85962457321243" lon="8.90929780123714"><ele>425.66666666666663</ele><time>2026-04-25T08:56:05.962Z</time></trkpt><trkpt lat="45.85970181944431" lon="8.909303617221742"><ele>427.0</ele><time>2026-04-25T08:56:06.962Z</time></trkpt><trkpt lat="45.859782089289304" lon="8.90930151356042"><ele>428.3333333333333</ele><time>2026-04-25T08:56:07.962Z</time></trkpt><trkpt lat="45.859863795155405" lon="8.909298231488384"><ele>429.66666666666663</ele><time>2026-04-25T08:56:08.962Z</time></trkpt><trkpt lat="45.85994572778455" lon="8.909296126690284"><ele>431.0</ele><time>2026-04-25T08:56:09.962Z</time></trkpt><trkpt lat="45.86002969093353" lon="8.90929081112973"><ele>431.4</ele><time>2026-04-25T08:56:10.962Z</time></trkpt><trkpt lat="45.86012403030637" lon="8.909281017994198"><ele>431.8</ele><time>2026-04-25T08:56:11.962Z</time></trkpt><trkpt lat="45.860223832407655" lon="8.909275080898682"><ele>432.19999999999993</ele><time>2026-04-25T08:56:12.962Z</time></trkpt><trkpt lat="45.8603275263016" lon="8.90926492244178"><ele>432.59999999999997</ele><time>2026-04-25T08:56:13.962Z</time></trkpt><trkpt lat="45.86043016288324" lon="8.909250561787331"><ele>433.0</ele><time>2026-04-25T08:56:14.962Z</time></trkpt><trkpt lat="45.860535762641504" lon="8.909235507576717"><ele>431.79999999999995</ele><time>2026-04-25T08:56:15.962Z</time></trkpt><trkpt lat="45.86064383560959" lon="8.909230344841925"><ele>430.59999999999997</ele><time>2026-04-25T08:56:16.962Z</time></trkpt><trkpt lat="45.86075158055322" lon="8.90922750411414"><ele>429.40000000000003</ele><time>2026-04-25T08:56:17.962Z</time></trkpt><trkpt lat="45.860862503166565" lon="8.909227286292126"><ele>428.20000000000005</ele><time>2026-04-25T08:56:18.962Z</time></trkpt><trkpt lat="45.86098231964313" lon="8.909213720168317"><ele>427.0</ele><time>2026-04-25T08:56:19.962Z</time></trkpt><trkpt lat="45.86111123930258" lon="8.909204363397768"><ele>427.0</ele><time>2026-04-25T08:56:20.962Z</time></trkpt><trkpt lat="45.861237081248966" lon="8.909193991719945"><ele>427.0</ele><time>2026-04-25T08:56:21.962Z</time></trkpt><trkpt lat="45.86136986002554" lon="8.909187126080015"><ele>427.0</ele><time>2026-04-25T08:56:22.962Z</time></trkpt><trkpt lat="45.86149463574814" lon="8.909167527646206"><ele>427.0</ele><time>2026-04-25T08:56:23.962Z</time></trkpt><trkpt lat="45.86161476860056" lon="8.909168380158464"><ele>427.0</ele><time>2026-04-25T08:56:24.962Z</time></trkpt><trkpt lat="45.86174464910274" lon="8.909175999493145"><ele>427.0</ele><time>2026-04-25T08:56:25.962Z</time></trkpt><trkpt lat="45.86187599164257" lon="8.909172688766079"><ele>427.0</ele><time>2026-04-25T08:56:26.962Z</time></trkpt><trkpt lat="45.86200585112856" lon="8.909165465673622"><ele>427.0</ele><time>2026-04-25T08:56:27.962Z</time></trkpt><trkpt lat="45.8621367581205" lon="8.909160679837075"><ele>427.25</ele><time>2026-04-25T08:56:28.962Z</time></trkpt><trkpt lat="45.86226820762938" lon="8.909154187712428"><ele>427.5</ele><time>2026-04-25T08:56:29.962Z</time></trkpt><trkpt lat="45.86240304441556" lon="8.909141976567325"><ele>427.75</ele><time>2026-04-25T08:56:30.962Z</time></trkpt><trkpt lat="45.862542740467056" lon="8.909135558756637"><ele>428.0</ele><time>2026-04-25T08:56:31.962Z</time></trkpt><trkpt lat="45.862676245614146" lon="8.909131150482485"><ele>429.75</ele><time>2026-04-25T08:56:32.962Z</time></trkpt><trkpt lat="45.862809253196026" lon="8.909125189988904"><ele>431.5</ele><time>2026-04-25T08:56:33.962Z</time></trkpt><trkpt lat="45.86295322583611" lon="8.909115153408873"><ele>433.25</ele><time>2026-04-25T08:56:34.962Z</time></trkpt><trkpt lat="45.863109210264035" lon="8.9091072759553"><ele>435.0</ele><time>2026-04-25T08:56:35.962Z</time></trkpt><trkpt lat="45.86324780909746" lon="8.909100976673596"><ele>435.0</ele><time>2026-04-25T08:56:36.962Z</time></trkpt><trkpt lat="45.86336755484705" lon="8.90908812197473"><ele>435.0</ele><time>2026-04-25T08:56:37.962Z</time></trkpt><trkpt lat="45.86347472469797" lon="8.909082541210037"><ele>435.0</ele><time>2026-04-25T08:56:38.962Z</time></trkpt><trkpt lat="45.863565154082224" lon="8.909072758740825"><ele>435.0</ele><time>2026-04-25T08:56:39.962Z</time></trkpt><trkpt lat="45.863642366621214" lon="8.909063944529558"><ele>435.0</ele><time>2026-04-25T08:56:40.962Z</time></trkpt><trkpt lat="45.86371024912653" lon="8.90906327893161"><ele>435.8</ele><time>2026-04-25T08:56:41.962Z</time></trkpt><trkpt lat="45.8638287698315" lon="8.909091811851516"><ele>436.6</ele><time>2026-04-25T08:56:43.962Z</time></trkpt><trkpt lat="45.86388371668576" lon="8.909157022884152"><ele>437.4</ele><time>2026-04-25T08:56:44.962Z</time></trkpt><trkpt lat="45.86400482148049" lon="8.909126459484794"><ele>438.2</ele><time>2026-04-25T08:56:46.962Z</time></trkpt><trkpt lat="45.8640660404005" lon="8.909072830891438"><ele>439.0</ele><time>2026-04-25T08:56:47.962Z</time></trkpt><trkpt lat="45.86413739312309" lon="8.909008073114684"><ele>439.0</ele><time>2026-04-25T08:56:48.962Z</time></trkpt><trkpt lat="45.86422328109314" lon="8.908956276088425"><ele>439.0</ele><time>2026-04-25T08:56:49.962Z</time></trkpt><trkpt lat="45.86431814153459" lon="8.908925879536818"><ele>439.0</ele><time>2026-04-25T08:56:50.962Z</time></trkpt><trkpt lat="45.86441488730518" lon="8.908905925151023"><ele>439.0</ele><time>2026-04-25T08:56:51.962Z</time></trkpt><trkpt lat="45.86451361106503" lon="8.908888605077102"><ele>439.0</ele><time>2026-04-25T08:56:52.962Z</time></trkpt><trkpt lat="45.86462075902662" lon="8.908867156336797"><ele>439.25</ele><time>2026-04-25T08:56:53.962Z</time></trkpt><trkpt lat="45.86472964678266" lon="8.908834433809773"><ele>439.5</ele><time>2026-04-25T08:56:54.962Z</time></trkpt><trkpt lat="45.864834921624535" lon="8.908798277875224"><ele>439.75</ele><time>2026-04-25T08:56:55.962Z</time></trkpt><trkpt lat="45.86493910048356" lon="8.908743112855982"><ele>440.0</ele><time>2026-04-25T08:56:56.962Z</time></trkpt><trkpt lat="45.865067516717" lon="8.908686345568457"><ele>440.66666666666663</ele><time>2026-04-25T08:56:57.962Z</time></trkpt><trkpt lat="45.86521358129398" lon="8.908592548808302"><ele>441.33333333333337</ele><time>2026-04-25T08:56:58.962Z</time></trkpt><trkpt lat="45.8653388935234" lon="8.908470076989426"><ele>442.0</ele><time>2026-04-25T08:56:59.962Z</time></trkpt><trkpt lat="45.86547587287884" lon="8.908366919213353"><ele>443.6666666666667</ele><time>2026-04-25T08:57:00.962Z</time></trkpt><trkpt lat="45.86561010805845" lon="8.908266222420002"><ele>445.33333333333337</ele><time>2026-04-25T08:57:01.96Z</time></trkpt><trkpt lat="45.865748399052556" lon="8.90815731031184"><ele>447.0</ele><time>2026-04-25T08:57:02.959Z</time></trkpt><trkpt lat="45.86588107738795" lon="8.908036456704611"><ele>451.0</ele><time>2026-04-25T08:57:03.959Z</time></trkpt><trkpt lat="45.86599983786401" lon="8.907893800289862"><ele>455.0</ele><time>2026-04-25T08:57:04.959Z</time></trkpt><trkpt lat="45.866097532653114" lon="8.907719625103669"><ele>459.0</ele><time>2026-04-25T08:57:05.96Z</time></trkpt><trkpt lat="45.86618852461883" lon="8.90753565819641"><ele>459.0</ele><time>2026-04-25T08:57:06.96Z</time></trkpt><trkpt lat="45.86626347058317" lon="8.9073670397271"><ele>459.0</ele><time>2026-04-25T08:57:07.959Z</time></trkpt><trkpt lat="45.86632588460701" lon="8.907208239485032"><ele>459.0</ele><time>2026-04-25T08:57:08.959Z</time></trkpt><trkpt lat="45.86638833240428" lon="8.907061587268924"><ele>459.0</ele><time>2026-04-25T08:57:09.959Z</time></trkpt><trkpt lat="45.8664673752287" lon="8.906938005684264"><ele>459.0</ele><time>2026-04-25T08:57:10.96Z</time></trkpt><trkpt lat="45.866572139698654" lon="8.906846454857995"><ele>459.0</ele><time>2026-04-25T08:57:11.959Z</time></trkpt><trkpt lat="45.86669296634107" lon="8.906804731076466"><ele>459.0</ele><time>2026-04-25T08:57:12.959Z</time></trkpt><trkpt lat="45.86682097223651" lon="8.906836165396452"><ele>459.0</ele><time>2026-04-25T08:57:13.96Z</time></trkpt><trkpt lat="45.86692899326726" lon="8.90696115193872"><ele>465.0</ele><time>2026-04-25T08:57:14.959Z</time></trkpt><trkpt lat="45.86703013747283" lon="8.907106098342831"><ele>471.0</ele><time>2026-04-25T08:57:15.959Z</time></trkpt><trkpt lat="45.86711662109524" lon="8.907255048020394"><ele>477.0</ele><time>2026-04-25T08:57:16.959Z</time></trkpt><trkpt lat="45.867191138362124" lon="8.90741617712343"><ele>483.0</ele><time>2026-04-25T08:57:17.959Z</time></trkpt><trkpt lat="45.8671988537848" lon="8.907621436735498"><ele>483.0</ele><time>2026-04-25T08:57:18.959Z</time></trkpt><trkpt lat="45.867185212155995" lon="8.907795714923198"><ele>483.0</ele><time>2026-04-25T08:57:19.959Z</time></trkpt><trkpt lat="45.867125752912685" lon="8.907973826156729"><ele>483.0</ele><time>2026-04-25T08:57:20.959Z</time></trkpt><trkpt lat="45.86707393127144" lon="8.908124554785074"><ele>483.0</ele><time>2026-04-25T08:57:21.959Z</time></trkpt><trkpt lat="45.86703807525788" lon="8.90827768746883"><ele>481.0</ele><time>2026-04-25T08:57:22.959Z</time></trkpt><trkpt lat="45.86707054557212" lon="8.908451148739683"><ele>479.0</ele><time>2026-04-25T08:57:23.959Z</time></trkpt><trkpt lat="45.867142013126994" lon="8.908606157948363"><ele>477.0</ele><time>2026-04-25T08:57:24.959Z</time></trkpt><trkpt lat="45.86724869112041" lon="8.90871534042919"><ele>475.0</ele><time>2026-04-25T08:57:25.959Z</time></trkpt><trkpt lat="45.86733602125658" lon="8.908827642339505"><ele>475.0</ele><time>2026-04-25T08:57:26.959Z</time></trkpt><trkpt lat="45.867408177306686" lon="8.908959538738"><ele>475.0</ele><time>2026-04-25T08:57:27.959Z</time></trkpt><trkpt lat="45.86751047197985" lon="8.909053358930572"><ele>475.0</ele><time>2026-04-25T08:57:28.959Z</time></trkpt><trkpt lat="45.86761716252991" lon="8.909087253100394"><ele>475.0</ele><time>2026-04-25T08:57:29.959Z</time></trkpt><trkpt lat="45.867711091691405" lon="8.909097417120549"><ele>475.0</ele><time>2026-04-25T08:57:30.959Z</time></trkpt><trkpt lat="45.86779649068812" lon="8.909049633858963"><ele>478.25</ele><time>2026-04-25T08:57:31.959Z</time></trkpt><trkpt lat="45.86788436271384" lon="8.908933485436348"><ele>481.5</ele><time>2026-04-25T08:57:32.959Z</time></trkpt><trkpt lat="45.86799190054475" lon="8.908804100296193"><ele>484.75</ele><time>2026-04-25T08:57:33.959Z</time></trkpt><trkpt lat="45.868088799966586" lon="8.908711520946683"><ele>488.0</ele><time>2026-04-25T08:57:34.959Z</time></trkpt><trkpt lat="45.86817947212822" lon="8.908634555265248"><ele>488.0</ele><time>2026-04-25T08:57:35.959Z</time></trkpt><trkpt lat="45.868276138188996" lon="8.908562127280504"><ele>487.99999999999994</ele><time>2026-04-25T08:57:36.959Z</time></trkpt><trkpt lat="45.8683744241613" lon="8.908516243866776"><ele>487.99999999999994</ele><time>2026-04-25T08:57:37.959Z</time></trkpt><trkpt lat="45.868466946255886" lon="8.908501455822481"><ele>488.0</ele><time>2026-04-25T08:57:38.959Z</time></trkpt><trkpt lat="45.86856004585386" lon="8.908531568464612"><ele>488.0</ele><time>2026-04-25T08:57:39.959Z</time></trkpt><trkpt lat="45.86864738430546" lon="8.908535931508606"><ele>490.0</ele><time>2026-04-25T08:57:40.959Z</time></trkpt><trkpt lat="45.868734608562455" lon="8.908585108507491"><ele>491.99999999999994</ele><time>2026-04-25T08:57:41.959Z</time></trkpt><trkpt lat="45.8688347316391" lon="8.908605852461626"><ele>493.99999999999994</ele><time>2026-04-25T08:57:42.959Z</time></trkpt><trkpt lat="45.86891998078917" lon="8.908660466864688"><ele>496.0</ele><time>2026-04-25T08:57:43.959Z</time></trkpt><trkpt lat="45.869009386022455" lon="8.908727983498622"><ele>498.0</ele><time>2026-04-25T08:57:44.959Z</time></trkpt><trkpt lat="45.869135705928706" lon="8.908745649277918"><ele>498.0</ele><time>2026-04-25T08:57:45.959Z</time></trkpt><trkpt lat="45.869273259863434" lon="8.908707100539454"><ele>498.0</ele><time>2026-04-25T08:57:46.959Z</time></trkpt><trkpt lat="45.869397921777654" lon="8.908654912520234"><ele>498.0</ele><time>2026-04-25T08:57:47.959Z</time></trkpt><trkpt lat="45.86949928385428" lon="8.908595973818207"><ele>498.0</ele><time>2026-04-25T08:57:48.959Z</time></trkpt><trkpt lat="45.86958516776706" lon="8.90854491916724"><ele>497.57142857142856</ele><time>2026-04-25T08:57:49.959Z</time></trkpt><trkpt lat="45.8696593569391" lon="8.908503533467782"><ele>497.1428571428571</ele><time>2026-04-25T08:57:50.959Z</time></trkpt><trkpt lat="45.86972124489835" lon="8.908470948042599"><ele>496.71428571428567</ele><time>2026-04-25T08:57:51.959Z</time></trkpt><trkpt lat="45.869818290167224" lon="8.908424937893724"><ele>496.2857142857142</ele><time>2026-04-25T08:57:53.959Z</time></trkpt><trkpt lat="45.86987933648789" lon="8.908400140801861"><ele>495.85714285714283</ele><time>2026-04-25T08:57:55.959Z</time></trkpt><trkpt lat="45.86994201414541" lon="8.908360111106221"><ele>495.42857142857133</ele><time>2026-04-25T08:57:59.959Z</time></trkpt><trkpt lat="45.87000994088667" lon="8.90838248911693"><ele>494.99999999999994</ele><time>2026-04-25T08:58:01.959Z</time></trkpt><trkpt lat="45.87007207438445" lon="8.908427214228372"><ele>494.6666666666667</ele><time>2026-04-25T08:58:03.959Z</time></trkpt><trkpt lat="45.8701303824633" lon="8.908305267146044"><ele>494.33333333333337</ele><time>2026-04-25T08:58:05.959Z</time></trkpt><trkpt lat="45.870111588706685" lon="8.908198827615095"><ele>494.0</ele><time>2026-04-25T08:58:07.959Z</time></trkpt><trkpt lat="45.8700614771585" lon="8.908118012410988"><ele>493.6666666666667</ele><time>2026-04-25T08:58:11.96Z</time></trkpt><trkpt lat="45.87009996616666" lon="8.907994402839638"><ele>493.33333333333337</ele><time>2026-04-25T08:58:12.96Z</time></trkpt><trkpt lat="45.870117941591886" lon="8.907896420114115"><ele>493.0</ele><time>2026-04-25T08:58:14.96Z</time></trkpt><trkpt lat="45.87015034138254" lon="8.907807845079262"><ele>492.33333333333337</ele><time>2026-04-25T08:58:16.96Z</time></trkpt><trkpt lat="45.87017217308119" lon="8.907704250843063"><ele>491.6666666666667</ele><time>2026-04-25T08:58:18.96Z</time></trkpt><trkpt lat="45.870203386685574" lon="8.907603782713014"><ele>491.0</ele><time>2026-04-25T08:58:20.96Z</time></trkpt><trkpt lat="45.870233007691425" lon="8.907493035170242"><ele>490.33333333333337</ele><time>2026-04-25T08:58:22.96Z</time></trkpt><trkpt lat="45.87025910230994" lon="8.907395472115088"><ele>489.6666666666667</ele><time>2026-04-25T08:58:24.96Z</time></trkpt><trkpt lat="45.870309218521086" lon="8.907255373701057"><ele>489.0</ele><time>2026-04-25T08:58:26.96Z</time></trkpt><trkpt lat="45.870324897904034" lon="8.90715425322497"><ele>488.4</ele><time>2026-04-25T08:58:27.96Z</time></trkpt><trkpt lat="45.87035365825204" lon="8.90704220899011"><ele>487.79999999999995</ele><time>2026-04-25T08:58:28.96Z</time></trkpt><trkpt lat="45.870376466547086" lon="8.90691137194957"><ele>487.20000000000005</ele><time>2026-04-25T08:58:29.96Z</time></trkpt><trkpt lat="45.870398230083744" lon="8.906768034273625"><ele>486.6</ele><time>2026-04-25T08:58:30.96Z</time></trkpt><trkpt lat="45.87040517607802" lon="8.90661740700406"><ele>486.0</ele><time>2026-04-25T08:58:31.96Z</time></trkpt><trkpt lat="45.87041302970246" lon="8.906472999940586"><ele>486.0</ele><time>2026-04-25T08:58:32.96Z</time></trkpt><trkpt lat="45.87041469834926" lon="8.906340456164386"><ele>486.0</ele><time>2026-04-25T08:58:33.96Z</time></trkpt><trkpt lat="45.87043314306782" lon="8.906219033758914"><ele>486.0</ele><time>2026-04-25T08:58:34.96Z</time></trkpt><trkpt lat="45.87042954650359" lon="8.906100633597791"><ele>486.0</ele><time>2026-04-25T08:58:35.96Z</time></trkpt><trkpt lat="45.870440759309254" lon="8.905974546026238"><ele>486.0</ele><time>2026-04-25T08:58:36.96Z</time></trkpt><trkpt lat="45.8704244361116" lon="8.90584600581106"><ele>486.0</ele><time>2026-04-25T08:58:37.96Z</time></trkpt><trkpt lat="45.87040898480118" lon="8.90572146127689"><ele>486.5</ele><time>2026-04-25T08:58:38.96Z</time></trkpt><trkpt lat="45.870384859816575" lon="8.905603022199376"><ele>487.0</ele><time>2026-04-25T08:58:39.96Z</time></trkpt><trkpt lat="45.870356160929354" lon="8.90548270824962"><ele>487.5</ele><time>2026-04-25T08:58:40.96Z</time></trkpt><trkpt lat="45.8703309758774" lon="8.905372362673122"><ele>488.0</ele><time>2026-04-25T08:58:41.96Z</time></trkpt><trkpt lat="45.87031327055307" lon="8.90527143331937"><ele>488.5</ele><time>2026-04-25T08:58:42.96Z</time></trkpt><trkpt lat="45.87031800733007" lon="8.9051488771293"><ele>489.0</ele><time>2026-04-25T08:58:44.96Z</time></trkpt><trkpt lat="45.87038850330186" lon="8.905030917223172"><ele>489.0</ele><time>2026-04-25T08:58:47.96Z</time></trkpt><trkpt lat="45.87045334787231" lon="8.904964954691623"><ele>489.0</ele><time>2026-04-25T08:58:48.96Z</time></trkpt><trkpt lat="45.87052438033633" lon="8.904900204142749"><ele>489.0</ele><time>2026-04-25T08:58:49.96Z</time></trkpt><trkpt lat="45.87058489953362" lon="8.90483537468353"><ele>489.0</ele><time>2026-04-25T08:58:50.96Z</time></trkpt><trkpt lat="45.87065071118612" lon="8.904784458087132"><ele>489.0</ele><time>2026-04-25T08:58:51.96Z</time></trkpt><trkpt lat="45.870662658356714" lon="8.904516445764356"><ele>489.0</ele><time>2026-04-25T08:58:53.96Z</time></trkpt><trkpt lat="45.87063715064843" lon="8.904344350307849"><ele>489.0</ele><time>2026-04-25T08:58:54.96Z</time></trkpt><trkpt lat="45.87059631807637" lon="8.90417837161593"><ele>489.0</ele><time>2026-04-25T08:58:55.96Z</time></trkpt><trkpt lat="45.87058318668142" lon="8.904001919814984"><ele>489.0</ele><time>2026-04-25T08:58:56.96Z</time></trkpt><trkpt lat="45.87054659118882" lon="8.903820428373171"><ele>486.5</ele><time>2026-04-25T08:58:57.96Z</time></trkpt><trkpt lat="45.87046849547031" lon="8.903649031579588"><ele>484.0</ele><time>2026-04-25T08:58:58.96Z</time></trkpt><trkpt lat="45.87039721101963" lon="8.903468163574415"><ele>481.5</ele><time>2026-04-25T08:58:59.96Z</time></trkpt><trkpt lat="45.87032112395508" lon="8.903284461355883"><ele>479.0</ele><time>2026-04-25T08:59:00.96Z</time></trkpt><trkpt lat="45.87024727692367" lon="8.90309987743093"><ele>478.0</ele><time>2026-04-25T08:59:01.96Z</time></trkpt><trkpt lat="45.87019030183887" lon="8.902896034447654"><ele>477.0</ele><time>2026-04-25T08:59:02.959Z</time></trkpt><trkpt lat="45.87012152191965" lon="8.90270345069145"><ele>476.0</ele><time>2026-04-25T08:59:03.959Z</time></trkpt><trkpt lat="45.87005552281268" lon="8.902506751303806"><ele>476.0</ele><time>2026-04-25T08:59:04.958Z</time></trkpt><trkpt lat="45.86998964309768" lon="8.902304059155693"><ele>476.0</ele><time>2026-04-25T08:59:05.957Z</time></trkpt><trkpt lat="45.86992055741107" lon="8.902098611816307"><ele>476.0</ele><time>2026-04-25T08:59:06.957Z</time></trkpt><trkpt lat="45.86984953255479" lon="8.901896769938332"><ele>470.3333333333333</ele><time>2026-04-25T08:59:07.954Z</time></trkpt><trkpt lat="45.869771829058365" lon="8.901685849444071"><ele>464.66666666666663</ele><time>2026-04-25T08:59:08.954Z</time></trkpt><trkpt lat="45.86968236115069" lon="8.901463929366438"><ele>459.0</ele><time>2026-04-25T08:59:09.953Z</time></trkpt><trkpt lat="45.869592546949136" lon="8.901245972767542"><ele>459.0</ele><time>2026-04-25T08:59:10.953Z</time></trkpt><trkpt lat="45.869522265093515" lon="8.901048953459194"><ele>459.0</ele><time>2026-04-25T08:59:11.952Z</time></trkpt><trkpt lat="45.869443710668484" lon="8.900850611472585"><ele>459.0</ele><time>2026-04-25T08:59:12.951Z</time></trkpt><trkpt lat="45.86938122641323" lon="8.900673714514316"><ele>456.25</ele><time>2026-04-25T08:59:13.951Z</time></trkpt><trkpt lat="45.869344404918515" lon="8.900492994699922"><ele>453.5</ele><time>2026-04-25T08:59:14.951Z</time></trkpt><trkpt lat="45.86933282517015" lon="8.900294364718336"><ele>450.75</ele><time>2026-04-25T08:59:15.951Z</time></trkpt><trkpt lat="45.86932803862014" lon="8.900079348997942"><ele>448.0</ele><time>2026-04-25T08:59:16.95Z</time></trkpt><trkpt lat="45.869345445931025" lon="8.899853980054557"><ele>447.25</ele><time>2026-04-25T08:59:17.949Z</time></trkpt><trkpt lat="45.86935740461445" lon="8.89963432708091"><ele>446.5</ele><time>2026-04-25T08:59:18.949Z</time></trkpt><trkpt lat="45.86936392163578" lon="8.899429511368206"><ele>445.75</ele><time>2026-04-25T08:59:19.949Z</time></trkpt><trkpt lat="45.86936744368097" lon="8.899226815734664"><ele>445.0</ele><time>2026-04-25T08:59:20.949Z</time></trkpt><trkpt lat="45.86936322262494" lon="8.899026090186858"><ele>443.5</ele><time>2026-04-25T08:59:21.948Z</time></trkpt><trkpt lat="45.869354941543875" lon="8.898809031378146"><ele>442.0</ele><time>2026-04-25T08:59:22.948Z</time></trkpt><trkpt lat="45.86932822103521" lon="8.89860307352556"><ele>440.5</ele><time>2026-04-25T08:59:23.948Z</time></trkpt><trkpt lat="45.86930101763686" lon="8.898398209092674"><ele>439.0</ele><time>2026-04-25T08:59:24.948Z</time></trkpt><trkpt lat="45.869257217259864" lon="8.898194803186234"><ele>441.25</ele><time>2026-04-25T08:59:25.948Z</time></trkpt><trkpt lat="45.869234707185065" lon="8.897986217592527"><ele>443.5</ele><time>2026-04-25T08:59:26.947Z</time></trkpt><trkpt lat="45.869188928350525" lon="8.897792585641323"><ele>445.75</ele><time>2026-04-25T08:59:27.947Z</time></trkpt><trkpt lat="45.8691117621491" lon="8.897603699936262"><ele>448.0</ele><time>2026-04-25T08:59:28.947Z</time></trkpt><trkpt lat="45.8690226284627" lon="8.897402146399124"><ele>448.0</ele><time>2026-04-25T08:59:29.947Z</time></trkpt><trkpt lat="45.868918734388814" lon="8.897218668890776"><ele>448.0</ele><time>2026-04-25T08:59:30.947Z</time></trkpt><trkpt lat="45.86879975247062" lon="8.897053174057623"><ele>448.0</ele><time>2026-04-25T08:59:31.947Z</time></trkpt><trkpt lat="45.868679843894434" lon="8.896904752003731"><ele>450.5</ele><time>2026-04-25T08:59:32.947Z</time></trkpt><trkpt lat="45.86857869058388" lon="8.896751931058091"><ele>453.0</ele><time>2026-04-25T08:59:33.946Z</time></trkpt><trkpt lat="45.86849843854825" lon="8.896577057207956"><ele>455.5</ele><time>2026-04-25T08:59:34.946Z</time></trkpt><trkpt lat="45.86844233003059" lon="8.896387024529613"><ele>458.0</ele><time>2026-04-25T08:59:35.946Z</time></trkpt><trkpt lat="45.86838071723894" lon="8.896185594448857"><ele>458.0</ele><time>2026-04-25T08:59:36.946Z</time></trkpt><trkpt lat="45.86832055479385" lon="8.896001228868592"><ele>458.0</ele><time>2026-04-25T08:59:37.946Z</time></trkpt><trkpt lat="45.868216914790935" lon="8.895833695304946"><ele>458.0</ele><time>2026-04-25T08:59:38.946Z</time></trkpt><trkpt lat="45.86810357932387" lon="8.895672958412005"><ele>453.0</ele><time>2026-04-25T08:59:39.946Z</time></trkpt><trkpt lat="45.86798841061124" lon="8.895516606329526"><ele>448.0</ele><time>2026-04-25T08:59:40.946Z</time></trkpt><trkpt lat="45.867881336514316" lon="8.895383223925089"><ele>443.0</ele><time>2026-04-25T08:59:41.946Z</time></trkpt><trkpt lat="45.86777641187659" lon="8.89527306577166"><ele>438.0</ele><time>2026-04-25T08:59:42.946Z</time></trkpt><trkpt lat="45.86766474904343" lon="8.895196729868227"><ele>440.5</ele><time>2026-04-25T08:59:43.946Z</time></trkpt><trkpt lat="45.86752583348526" lon="8.895161237945537"><ele>443.0</ele><time>2026-04-25T08:59:44.946Z</time></trkpt><trkpt lat="45.86737378010943" lon="8.895151476478844"><ele>445.5</ele><time>2026-04-25T08:59:45.946Z</time></trkpt><trkpt lat="45.86723002809799" lon="8.895140380271249"><ele>448.0</ele><time>2026-04-25T08:59:46.946Z</time></trkpt><trkpt lat="45.8670958206076" lon="8.89512321848561"><ele>448.0</ele><time>2026-04-25T08:59:47.946Z</time></trkpt><trkpt lat="45.866969803417504" lon="8.895106061638787"><ele>448.0</ele><time>2026-04-25T08:59:48.946Z</time></trkpt><trkpt lat="45.8668396179881" lon="8.89508866059267"><ele>448.0</ele><time>2026-04-25T08:59:49.946Z</time></trkpt><trkpt lat="45.866703860281106" lon="8.89507547486957"><ele>448.0</ele><time>2026-04-25T08:59:50.946Z</time></trkpt><trkpt lat="45.86656561158156" lon="8.895067022925637"><ele>441.5</ele><time>2026-04-25T08:59:51.945Z</time></trkpt><trkpt lat="45.86641995685218" lon="8.89505660284402"><ele>435.0</ele><time>2026-04-25T08:59:52.945Z</time></trkpt><trkpt lat="45.8662772357624" lon="8.895042280811534"><ele>428.5</ele><time>2026-04-25T08:59:53.945Z</time></trkpt><trkpt lat="45.866132527615356" lon="8.895024678157574"><ele>422.0</ele><time>2026-04-25T08:59:54.945Z</time></trkpt><trkpt lat="45.865992082928216" lon="8.895008295914433"><ele>419.0</ele><time>2026-04-25T08:59:55.945Z</time></trkpt><trkpt lat="45.865859933771524" lon="8.894985457238914"><ele>416.0</ele><time>2026-04-25T08:59:56.945Z</time></trkpt><trkpt lat="45.86573477243909" lon="8.894945663582583"><ele>413.0</ele><time>2026-04-25T08:59:57.945Z</time></trkpt><trkpt lat="45.86562721714155" lon="8.894888238998803"><ele>410.0</ele><time>2026-04-25T08:59:58.945Z</time></trkpt><trkpt lat="45.86554517777248" lon="8.894826081342858"><ele>410.0</ele><time>2026-04-25T08:59:59.945Z</time></trkpt><trkpt lat="45.86547815743204" lon="8.894740769244121"><ele>410.0</ele><time>2026-04-25T09:00:00.945Z</time></trkpt><trkpt lat="45.86543951453356" lon="8.894633407470227"><ele>410.0</ele><time>2026-04-25T09:00:01.945Z</time></trkpt><trkpt lat="45.865418656292896" lon="8.894509898229733"><ele>410.0</ele><time>2026-04-25T09:00:02.945Z</time></trkpt><trkpt lat="45.86543952330081" lon="8.894384216994133"><ele>410.0</ele><time>2026-04-25T09:00:03.945Z</time></trkpt><trkpt lat="45.86547532245179" lon="8.894233493567135"><ele>408.25</ele><time>2026-04-25T09:00:04.945Z</time></trkpt><trkpt lat="45.86550525691478" lon="8.89405535841653"><ele>406.5</ele><time>2026-04-25T09:00:05.945Z</time></trkpt><trkpt lat="45.86552809034473" lon="8.893861728158578"><ele>404.75</ele><time>2026-04-25T09:00:06.945Z</time></trkpt><trkpt lat="45.86554731203211" lon="8.89366503144144"><ele>403.0</ele><time>2026-04-25T09:00:07.945Z</time></trkpt><trkpt lat="45.865560835011344" lon="8.893475425798751"><ele>400.5</ele><time>2026-04-25T09:00:08.945Z</time></trkpt><trkpt lat="45.86556847093171" lon="8.893293790860865"><ele>398.0</ele><time>2026-04-25T09:00:09.945Z</time></trkpt><trkpt lat="45.86555878917351" lon="8.89312182461256"><ele>395.5</ele><time>2026-04-25T09:00:10.945Z</time></trkpt><trkpt lat="45.86552407966808" lon="8.892961031811197"><ele>393.0</ele><time>2026-04-25T09:00:11.945Z</time></trkpt><trkpt lat="45.86546027718492" lon="8.892808560015713"><ele>393.0</ele><time>2026-04-25T09:00:12.945Z</time></trkpt><trkpt lat="45.86537124664525" lon="8.892683286844465"><ele>393.0</ele><time>2026-04-25T09:00:13.945Z</time></trkpt><trkpt lat="45.86526748038108" lon="8.892582269381602"><ele>393.0</ele><time>2026-04-25T09:00:14.945Z</time></trkpt><trkpt lat="45.86515951005546" lon="8.892498227970844"><ele>393.0</ele><time>2026-04-25T09:00:15.945Z</time></trkpt><trkpt lat="45.8650834118281" lon="8.892402140874001"><ele>392.0</ele><time>2026-04-25T09:00:16.945Z</time></trkpt><trkpt lat="45.865009360005274" lon="8.892346367571243"><ele>391.0</ele><time>2026-04-25T09:00:17.945Z</time></trkpt><trkpt lat="45.86498427934035" lon="8.89220053384539"><ele>390.0</ele><time>2026-04-25T09:00:19.945Z</time></trkpt><trkpt lat="45.86503132067414" lon="8.892126965786765"><ele>389.0</ele><time>2026-04-25T09:00:20.945Z</time></trkpt><trkpt lat="45.8651320915998" lon="8.89209495143433"><ele>388.0</ele><time>2026-04-25T09:00:21.945Z</time></trkpt><trkpt lat="45.86526478196047" lon="8.892132628364273"><ele>386.75</ele><time>2026-04-25T09:00:22.945Z</time></trkpt><trkpt lat="45.865400883482025" lon="8.892146292975363"><ele>385.5</ele><time>2026-04-25T09:00:23.945Z</time></trkpt><trkpt lat="45.86553369726934" lon="8.892176077276693"><ele>384.25</ele><time>2026-04-25T09:00:24.945Z</time></trkpt><trkpt lat="45.865673645194015" lon="8.892212218014603"><ele>383.0</ele><time>2026-04-25T09:00:25.945Z</time></trkpt><trkpt lat="45.86580882808435" lon="8.89225562085239"><ele>383.0</ele><time>2026-04-25T09:00:26.945Z</time></trkpt><trkpt lat="45.865940035794814" lon="8.892301376365007"><ele>383.0</ele><time>2026-04-25T09:00:27.945Z</time></trkpt><trkpt lat="45.86606672866166" lon="8.892346104988253"><ele>383.0</ele><time>2026-04-25T09:00:28.945Z</time></trkpt><trkpt lat="45.866191769944564" lon="8.89238737800254"><ele>383.0</ele><time>2026-04-25T09:00:29.945Z</time></trkpt><trkpt lat="45.86630584435927" lon="8.892452100239007"><ele>383.0</ele><time>2026-04-25T09:00:30.945Z</time></trkpt><trkpt lat="45.86642602520019" lon="8.892496827730767"><ele>383.0</ele><time>2026-04-25T09:00:31.945Z</time></trkpt><trkpt lat="45.866544538278745" lon="8.892538343892536"><ele>383.0</ele><time>2026-04-25T09:00:32.945Z</time></trkpt><trkpt lat="45.86666462873716" lon="8.89258123124781"><ele>383.0</ele><time>2026-04-25T09:00:33.945Z</time></trkpt><trkpt lat="45.86678238254883" lon="8.892623263606309"><ele>383.0</ele><time>2026-04-25T09:00:34.945Z</time></trkpt><trkpt lat="45.86689307764133" lon="8.89265082371709"><ele>383.0</ele><time>2026-04-25T09:00:35.945Z</time></trkpt><trkpt lat="45.867004666845155" lon="8.89267349394176"><ele>383.0</ele><time>2026-04-25T09:00:36.945Z</time></trkpt><trkpt lat="45.86710295865787" lon="8.89272108504494"><ele>383.0</ele><time>2026-04-25T09:00:37.945Z</time></trkpt><trkpt lat="45.867193219808854" lon="8.892729268074513"><ele>383.0</ele><time>2026-04-25T09:00:38.945Z</time></trkpt><trkpt lat="45.8672730587893" lon="8.89275230852329"><ele>383.0</ele><time>2026-04-25T09:00:39.945Z</time></trkpt><trkpt lat="45.86737355725784" lon="8.89281782103291"><ele>383.0</ele><time>2026-04-25T09:00:41.945Z</time></trkpt><trkpt lat="45.8674743474562" lon="8.892868320531178"><ele>383.0</ele><time>2026-04-25T09:00:43.945Z</time></trkpt><trkpt lat="45.8675626724006" lon="8.892864028666652"><ele>383.0</ele><time>2026-04-25T09:00:45.945Z</time></trkpt><trkpt lat="45.86766536523505" lon="8.89278465732848"><ele>383.0</ele><time>2026-04-25T09:00:47.945Z</time></trkpt><trkpt lat="45.86764534470219" lon="8.892668762763677"><ele>383.0</ele><time>2026-04-25T09:00:48.945Z</time></trkpt><trkpt lat="45.867549927416675" lon="8.892636626002647"><ele>383.0</ele><time>2026-04-25T09:00:49.945Z</time></trkpt><trkpt lat="45.867482875221874" lon="8.89260443383034"><ele>383.0</ele><time>2026-04-25T09:00:50.945Z</time></trkpt><trkpt lat="45.86742016288066" lon="8.892579587525335"><ele>383.0</ele><time>2026-04-25T09:00:51.945Z</time></trkpt><trkpt lat="45.86735759846545" lon="8.892558667118585"><ele>383.0</ele><time>2026-04-25T09:00:52.945Z</time></trkpt><trkpt lat="45.867293520101946" lon="8.892533994692027"><ele>383.0</ele><time>2026-04-25T09:00:53.945Z</time></trkpt><trkpt lat="45.86717823308051" lon="8.892496065404401"><ele>378.0</ele><time>2026-04-25T09:00:55.945Z</time></trkpt><trkpt lat="45.86709206447345" lon="8.892433164833887"><ele>373.0</ele><time>2026-04-25T09:00:57.945Z</time></trkpt><trkpt lat="45.86703875306262" lon="8.892323256486092"><ele>368.0</ele><time>2026-04-25T09:00:59.945Z</time></trkpt><trkpt lat="45.867112756636935" lon="8.892200636664192"><ele>363.0</ele><time>2026-04-25T09:01:01.945Z</time></trkpt><trkpt lat="45.86718887919359" lon="8.892245747676485"><ele>358.0</ele><time>2026-04-25T09:01:02.945Z</time></trkpt><trkpt lat="45.86726421910324" lon="8.892271223585517"><ele>358.00000000000006</ele><time>2026-04-25T09:01:03.945Z</time></trkpt><trkpt lat="45.86734392666454" lon="8.89227440501855"><ele>358.0</ele><time>2026-04-25T09:01:04.945Z</time></trkpt><trkpt lat="45.8674156482556" lon="8.892319126041214"><ele>358.0</ele><time>2026-04-25T09:01:05.945Z</time></trkpt><trkpt lat="45.867485005806806" lon="8.892349602478859"><ele>358.0</ele><time>2026-04-25T09:01:06.945Z</time></trkpt><trkpt lat="45.86755414729062" lon="8.892380128070512"><ele>358.0</ele><time>2026-04-25T09:01:07.945Z</time></trkpt><trkpt lat="45.867618126224905" lon="8.892411094860131"><ele>358.00000000000006</ele><time>2026-04-25T09:01:08.945Z</time></trkpt><trkpt lat="45.867682777095425" lon="8.892439047903997"><ele>358.0</ele><time>2026-04-25T09:01:09.945Z</time></trkpt><trkpt lat="45.8677642999541" lon="8.892461669914578"><ele>355.79999999999995</ele><time>2026-04-25T09:01:10.945Z</time></trkpt><trkpt lat="45.86784286803603" lon="8.89245353182126"><ele>353.6</ele><time>2026-04-25T09:01:11.945Z</time></trkpt><trkpt lat="45.86791323056735" lon="8.892404589223284"><ele>351.4</ele><time>2026-04-25T09:01:12.945Z</time></trkpt><trkpt lat="45.86799362123311" lon="8.892310890686897"><ele>349.20000000000005</ele><time>2026-04-25T09:01:13.943Z</time></trkpt><trkpt lat="45.86802293980859" lon="8.892089504691668"><ele>347.0</ele><time>2026-04-25T09:01:14.943Z</time></trkpt><trkpt lat="45.86804673113348" lon="8.891883642478001"><ele>345.5</ele><time>2026-04-25T09:01:15.943Z</time></trkpt><trkpt lat="45.868069452373014" lon="8.891691982681492"><ele>344.0</ele><time>2026-04-25T09:01:16.943Z</time></trkpt><trkpt lat="45.86809649535113" lon="8.891499977616665"><ele>342.5</ele><time>2026-04-25T09:01:17.943Z</time></trkpt><trkpt lat="45.86811750890576" lon="8.891311863858308"><ele>341.0</ele><time>2026-04-25T09:01:18.943Z</time></trkpt><trkpt lat="45.86813658175732" lon="8.891130298613657"><ele>341.0</ele><time>2026-04-25T09:01:19.943Z</time></trkpt><trkpt lat="45.86815724156609" lon="8.890973846932384"><ele>341.0</ele><time>2026-04-25T09:01:20.943Z</time></trkpt><trkpt lat="45.86816919057315" lon="8.890879590179761"><ele>341.0</ele><time>2026-04-25T09:01:21.943Z</time></trkpt><trkpt lat="45.868187673691985" lon="8.890755882486772"><ele>341.0</ele><time>2026-04-25T09:01:23.943Z</time></trkpt><trkpt lat="45.8682061910311" lon="8.890647765747964"><ele>341.0</ele><time>2026-04-25T09:01:30.943Z</time></trkpt><trkpt lat="45.86823753808602" lon="8.890387059062107"><ele>340.25</ele><time>2026-04-25T09:01:32.943Z</time></trkpt><trkpt lat="45.86823809276064" lon="8.890175156091681"><ele>339.5</ele><time>2026-04-25T09:01:33.943Z</time></trkpt><trkpt lat="45.86820810992594" lon="8.889986624582006"><ele>338.75</ele><time>2026-04-25T09:01:34.943Z</time></trkpt><trkpt lat="45.868198327748914" lon="8.889798834833158"><ele>338.0</ele><time>2026-04-25T09:01:35.943Z</time></trkpt><trkpt lat="45.86819012399445" lon="8.889596492517349"><ele>337.75</ele><time>2026-04-25T09:01:36.943Z</time></trkpt><trkpt lat="45.86819198039084" lon="8.889413684973103"><ele>337.5</ele><time>2026-04-25T09:01:37.943Z</time></trkpt><trkpt lat="45.86822222577143" lon="8.889240941349826"><ele>337.25</ele><time>2026-04-25T09:01:38.943Z</time></trkpt><trkpt lat="45.8682781786401" lon="8.88910118119964"><ele>337.0</ele><time>2026-04-25T09:01:39.943Z</time></trkpt><trkpt lat="45.8683578312697" lon="8.888972873513769"><ele>337.66666666666663</ele><time>2026-04-25T09:01:40.943Z</time></trkpt><trkpt lat="45.868486264538845" lon="8.88883883154147"><ele>338.3333333333333</ele><time>2026-04-25T09:01:41.943Z</time></trkpt><trkpt lat="45.86864037463401" lon="8.88872074991331"><ele>339.0</ele><time>2026-04-25T09:01:42.943Z</time></trkpt><trkpt lat="45.86877994302277" lon="8.888613666178992"><ele>339.0</ele><time>2026-04-25T09:01:43.943Z</time></trkpt><trkpt lat="45.86890916692867" lon="8.888517111997581"><ele>339.0</ele><time>2026-04-25T09:01:44.943Z</time></trkpt><trkpt lat="45.86903244666585" lon="8.888430549242537"><ele>339.0</ele><time>2026-04-25T09:01:45.943Z</time></trkpt><trkpt lat="45.86914922656463" lon="8.888360307733539"><ele>339.0</ele><time>2026-04-25T09:01:46.943Z</time></trkpt><trkpt lat="45.86926047754825" lon="8.888308370448627"><ele>340.2</ele><time>2026-04-25T09:01:47.943Z</time></trkpt><trkpt lat="45.86936800243295" lon="8.888274366541681"><ele>341.4</ele><time>2026-04-25T09:01:48.943Z</time></trkpt><trkpt lat="45.869483075353095" lon="8.888260818909849"><ele>342.6</ele><time>2026-04-25T09:01:49.943Z</time></trkpt><trkpt lat="45.86959331153953" lon="8.888263978252233"><ele>343.8</ele><time>2026-04-25T09:01:50.943Z</time></trkpt><trkpt lat="45.869700121496514" lon="8.888264224132428"><ele>345.0</ele><time>2026-04-25T09:01:51.943Z</time></trkpt><trkpt lat="45.86980073503378" lon="8.888273728827164"><ele>345.0</ele><time>2026-04-25T09:01:52.943Z</time></trkpt><trkpt lat="45.86991171947327" lon="8.888281321780214"><ele>345.0</ele><time>2026-04-25T09:01:53.943Z</time></trkpt><trkpt lat="45.870056199469104" lon="8.888264160531763"><ele>345.0</ele><time>2026-04-25T09:01:54.943Z</time></trkpt><trkpt lat="45.87022498320543" lon="8.88821583900589"><ele>345.0</ele><time>2026-04-25T09:01:55.943Z</time></trkpt><trkpt lat="45.8703910478335" lon="8.888165153615327"><ele>343.6666666666667</ele><time>2026-04-25T09:01:56.943Z</time></trkpt><trkpt lat="45.87054302773676" lon="8.888123570795356"><ele>342.33333333333337</ele><time>2026-04-25T09:01:57.943Z</time></trkpt><trkpt lat="45.87069244283985" lon="8.88807970115676"><ele>341.0</ele><time>2026-04-25T09:01:58.943Z</time></trkpt><trkpt lat="45.87083350869059" lon="8.888044925475663"><ele>340.75</ele><time>2026-04-25T09:01:59.943Z</time></trkpt><trkpt lat="45.8709618045131" lon="8.888012971476781"><ele>340.5</ele><time>2026-04-25T09:02:00.943Z</time></trkpt><trkpt lat="45.87108370683851" lon="8.887981632826477"><ele>340.25</ele><time>2026-04-25T09:02:01.943Z</time></trkpt><trkpt lat="45.871199758108155" lon="8.887972833348622"><ele>340.0</ele><time>2026-04-25T09:02:02.943Z</time></trkpt><trkpt lat="45.87132007134929" lon="8.88794624925832"><ele>340.0</ele><time>2026-04-25T09:02:03.943Z</time></trkpt><trkpt lat="45.87143030535422" lon="8.887919011420435"><ele>340.0</ele><time>2026-04-25T09:02:04.943Z</time></trkpt><trkpt lat="45.87153318408432" lon="8.88788555779208"><ele>340.0</ele><time>2026-04-25T09:02:05.943Z</time></trkpt><trkpt lat="45.871634866469854" lon="8.887844932971001"><ele>340.0</ele><time>2026-04-25T09:02:06.943Z</time></trkpt><trkpt lat="45.87174227342624" lon="8.88779078217464"><ele>340.0</ele><time>2026-04-25T09:02:07.943Z</time></trkpt><trkpt lat="45.87183919836413" lon="8.887728048427034"><ele>340.4</ele><time>2026-04-25T09:02:08.943Z</time></trkpt><trkpt lat="45.871939975867825" lon="8.887678462405072"><ele>340.8</ele><time>2026-04-25T09:02:09.943Z</time></trkpt><trkpt lat="45.87201978006111" lon="8.887591430246037"><ele>341.20000000000005</ele><time>2026-04-25T09:02:10.943Z</time></trkpt><trkpt lat="45.87211467147744" lon="8.887530906332707"><ele>341.6</ele><time>2026-04-25T09:02:11.943Z</time></trkpt><trkpt lat="45.87221034886821" lon="8.887474316776071"><ele>342.0</ele><time>2026-04-25T09:02:12.943Z</time></trkpt><trkpt lat="45.87230792131751" lon="8.887421268914101"><ele>342.0</ele><time>2026-04-25T09:02:13.943Z</time></trkpt><trkpt lat="45.8724066946822" lon="8.887371564447914"><ele>342.0</ele><time>2026-04-25T09:02:14.943Z</time></trkpt><trkpt lat="45.872499552585765" lon="8.887334323280296"><ele>342.0</ele><time>2026-04-25T09:02:15.943Z</time></trkpt><trkpt lat="45.87258516211362" lon="8.887298852930536"><ele>342.0</ele><time>2026-04-25T09:02:16.943Z</time></trkpt><trkpt lat="45.872681277977044" lon="8.887293437504132"><ele>342.0</ele><time>2026-04-25T09:02:18.943Z</time></trkpt><trkpt lat="45.872754885231664" lon="8.887414854341394"><ele>342.1666666666667</ele><time>2026-04-25T09:02:20.943Z</time></trkpt><trkpt lat="45.872820579989444" lon="8.88746610450645"><ele>342.3333333333333</ele><time>2026-04-25T09:02:21.943Z</time></trkpt><trkpt lat="45.87289593995886" lon="8.887537627240013"><ele>342.5</ele><time>2026-04-25T09:02:22.943Z</time></trkpt><trkpt lat="45.872980705103174" lon="8.8876190779367"><ele>342.66666666666663</ele><time>2026-04-25T09:02:23.943Z</time></trkpt><trkpt lat="45.87306684954217" lon="8.887679579527024"><ele>342.8333333333333</ele><time>2026-04-25T09:02:24.943Z</time></trkpt><trkpt lat="45.87313225089072" lon="8.88770347865606"><ele>343.0</ele><time>2026-04-25T09:02:25.943Z</time></trkpt><trkpt lat="45.87320917445813" lon="8.887755335301776"><ele>342.4</ele><time>2026-04-25T09:02:27.943Z</time></trkpt><trkpt lat="45.8732671485656" lon="8.887939647057598"><ele>341.79999999999995</ele><time>2026-04-25T09:02:29.943Z</time></trkpt><trkpt lat="45.87327912100285" lon="8.888042479469636"><ele>341.2</ele><time>2026-04-25T09:02:30.943Z</time></trkpt><trkpt lat="45.87331730637918" lon="8.888160639602527"><ele>340.6</ele><time>2026-04-25T09:02:32.943Z</time></trkpt><trkpt lat="45.8732857781229" lon="8.888248818279147"><ele>340.0</ele><time>2026-04-25T09:02:34.943Z</time></trkpt><trkpt lat="45.87315232794627" lon="8.888309427904774"><ele>340.0</ele><time>2026-04-25T09:02:36.943Z</time></trkpt><trkpt lat="45.87307573269857" lon="8.88833926554716"><ele>340.0</ele><time>2026-04-25T09:02:37.943Z</time></trkpt><trkpt lat="45.87300133435445" lon="8.888357055773083"><ele>340.0</ele><time>2026-04-25T09:02:38.943Z</time></trkpt><trkpt lat="45.872932515387134" lon="8.888370529791876"><ele>340.0</ele><time>2026-04-25T09:02:39.943Z</time></trkpt><trkpt lat="45.8728533558943" lon="8.888406931557588"><ele>340.0</ele><time>2026-04-25T09:02:40.943Z</time></trkpt><trkpt lat="45.87278645245827" lon="8.888468717684423"><ele>340.0</ele><time>2026-04-25T09:02:41.943Z</time></trkpt><trkpt lat="45.87273041159684" lon="8.888554556154906"><ele>339.5</ele><time>2026-04-25T09:02:42.943Z</time></trkpt><trkpt lat="45.872670326650436" lon="8.888638774863432"><ele>339.0</ele><time>2026-04-25T09:02:43.943Z</time></trkpt><trkpt lat="45.872627736594374" lon="8.888763119806494"><ele>338.5</ele><time>2026-04-25T09:02:44.943Z</time></trkpt><trkpt lat="45.87259704934897" lon="8.888871307951147"><ele>338.0</ele><time>2026-04-25T09:02:45.943Z</time></trkpt><trkpt lat="45.87256635495193" lon="8.889003438566291"><ele>337.5</ele><time>2026-04-25T09:02:47.943Z</time></trkpt><trkpt lat="45.872530218948334" lon="8.889122013097362"><ele>337.0</ele><time>2026-04-25T09:02:54.943Z</time></trkpt><trkpt lat="45.87253153312161" lon="8.88923769943824"><ele>337.0</ele><time>2026-04-25T09:02:55.943Z</time></trkpt><trkpt lat="45.872529979373304" lon="8.889357419073269"><ele>337.0</ele><time>2026-04-25T09:02:56.943Z</time></trkpt><trkpt lat="45.87251834031996" lon="8.889490840925752"><ele>337.0</ele><time>2026-04-25T09:02:57.943Z</time></trkpt><trkpt lat="45.872505407696714" lon="8.889626599805467"><ele>337.0</ele><time>2026-04-25T09:02:58.943Z</time></trkpt><trkpt lat="45.872510262915" lon="8.889731984816722"><ele>337.0</ele><time>2026-04-25T09:02:59.943Z</time></trkpt><trkpt lat="45.87253334937423" lon="8.889822741800081"><ele>337.0</ele><time>2026-04-25T09:03:00.943Z</time></trkpt><trkpt lat="45.87265095148035" lon="8.889922548909924"><ele>336.25</ele><time>2026-04-25T09:03:02.943Z</time></trkpt><trkpt lat="45.87275878340346" lon="8.889899739398395"><ele>335.5</ele><time>2026-04-25T09:03:03.943Z</time></trkpt><trkpt lat="45.872879514315265" lon="8.889862474036512"><ele>334.75</ele><time>2026-04-25T09:03:04.943Z</time></trkpt><trkpt lat="45.87299608722762" lon="8.889803796613391"><ele>334.0</ele><time>2026-04-25T09:03:05.943Z</time></trkpt><trkpt lat="45.87311913124231" lon="8.88974851532918"><ele>334.0</ele><time>2026-04-25T09:03:06.943Z</time></trkpt><trkpt lat="45.87324183139743" lon="8.889689151828224"><ele>334.0</ele><time>2026-04-25T09:03:07.943Z</time></trkpt><trkpt lat="45.87336892645964" lon="8.889627711390625"><ele>334.0</ele><time>2026-04-25T09:03:08.943Z</time></trkpt><trkpt lat="45.87351855817414" lon="8.889558392604524"><ele>334.0</ele><time>2026-04-25T09:03:09.943Z</time></trkpt><trkpt lat="45.87366731633611" lon="8.889506700151339"><ele>335.0</ele><time>2026-04-25T09:03:10.943Z</time></trkpt><trkpt lat="45.873822825069695" lon="8.889462581584036"><ele>336.0</ele><time>2026-04-25T09:03:11.943Z</time></trkpt><trkpt lat="45.873988617304285" lon="8.88942532017296"><ele>337.0</ele><time>2026-04-25T09:03:12.943Z</time></trkpt><trkpt lat="45.87416325644351" lon="8.889398915166757"><ele>337.66666666666663</ele><time>2026-04-25T09:03:13.944Z</time></trkpt><trkpt lat="45.874342026631" lon="8.889380306300604"><ele>338.3333333333333</ele><time>2026-04-25T09:03:14.944Z</time></trkpt><trkpt lat="45.874509313292904" lon="8.889375431635262"><ele>339.0</ele><time>2026-04-25T09:03:15.944Z</time></trkpt><trkpt lat="45.87466263823911" lon="8.889377646457286"><ele>339.0</ele><time>2026-04-25T09:03:16.944Z</time></trkpt><trkpt lat="45.874805565798425" lon="8.889447232734137"><ele>339.0</ele><time>2026-04-25T09:03:17.944Z</time></trkpt><trkpt lat="45.87494366495021" lon="8.889540005805193"><ele>339.0</ele><time>2026-04-25T09:03:18.944Z</time></trkpt><trkpt lat="45.87507122224554" lon="8.88963317133635"><ele>339.0</ele><time>2026-04-25T09:03:19.941Z</time></trkpt><trkpt lat="45.87522169756093" lon="8.889661268577532"><ele>339.25</ele><time>2026-04-25T09:03:20.941Z</time></trkpt><trkpt lat="45.87535704151222" lon="8.889581218766782"><ele>339.5</ele><time>2026-04-25T09:03:21.941Z</time></trkpt><trkpt lat="45.87549553269516" lon="8.889487050672942"><ele>339.75</ele><time>2026-04-25T09:03:22.941Z</time></trkpt><trkpt lat="45.875623131209075" lon="8.88938676195096"><ele>340.0</ele><time>2026-04-25T09:03:23.941Z</time></trkpt><trkpt lat="45.87576540700124" lon="8.889308006989825"><ele>339.25</ele><time>2026-04-25T09:03:24.941Z</time></trkpt><trkpt lat="45.8759001925588" lon="8.889242738953735"><ele>338.5</ele><time>2026-04-25T09:03:25.941Z</time></trkpt><trkpt lat="45.87602793965166" lon="8.889189443046467"><ele>337.75</ele><time>2026-04-25T09:03:26.941Z</time></trkpt><trkpt lat="45.876158333368835" lon="8.889154329887388"><ele>337.0</ele><time>2026-04-25T09:03:27.941Z</time></trkpt><trkpt lat="45.87630067256271" lon="8.889152985772553"><ele>337.0</ele><time>2026-04-25T09:03:28.941Z</time></trkpt><trkpt lat="45.87644417234835" lon="8.88914313186838"><ele>337.0</ele><time>2026-04-25T09:03:29.941Z</time></trkpt><trkpt lat="45.87660232084116" lon="8.889168293329133"><ele>337.0</ele><time>2026-04-25T09:03:30.941Z</time></trkpt><trkpt lat="45.876787757964884" lon="8.889108134288794"><ele>336.66666666666663</ele><time>2026-04-25T09:03:31.941Z</time></trkpt><trkpt lat="45.87698930900759" lon="8.889086625043634"><ele>336.3333333333333</ele><time>2026-04-25T09:03:32.941Z</time></trkpt><trkpt lat="45.877167940967894" lon="8.889050234383538"><ele>336.0</ele><time>2026-04-25T09:03:33.941Z</time></trkpt><trkpt lat="45.877340936003904" lon="8.889015546720298"><ele>336.0</ele><time>2026-04-25T09:03:34.941Z</time></trkpt><trkpt lat="45.87751328811421" lon="8.888981423573759"><ele>336.0</ele><time>2026-04-25T09:03:35.941Z</time></trkpt><trkpt lat="45.87767672279956" lon="8.888949285115416"><ele>336.0</ele><time>2026-04-25T09:03:36.941Z</time></trkpt><trkpt lat="45.87784246621844" lon="8.888928188648999"><ele>337.3333333333333</ele><time>2026-04-25T09:03:37.941Z</time></trkpt><trkpt lat="45.87802347022923" lon="8.888902541277954"><ele>338.66666666666663</ele><time>2026-04-25T09:03:38.941Z</time></trkpt><trkpt lat="45.878203824582336" lon="8.88890846784297"><ele>340.0</ele><time>2026-04-25T09:03:39.941Z</time></trkpt><trkpt lat="45.87837991229419" lon="8.888920432319585"><ele>340.66666666666663</ele><time>2026-04-25T09:03:40.941Z</time></trkpt><trkpt lat="45.87854604517665" lon="8.888947727573191"><ele>341.3333333333333</ele><time>2026-04-25T09:03:41.941Z</time></trkpt><trkpt lat="45.8787237254126" lon="8.888924985708094"><ele>342.0</ele><time>2026-04-25T09:03:42.941Z</time></trkpt><trkpt lat="45.87889052538251" lon="8.888840969186393"><ele>342.0</ele><time>2026-04-25T09:03:43.941Z</time></trkpt><trkpt lat="45.879043960411735" lon="8.888777769213446"><ele>342.0</ele><time>2026-04-25T09:03:44.941Z</time></trkpt><trkpt lat="45.87919079064657" lon="8.888727261710015"><ele>342.0</ele><time>2026-04-25T09:03:45.941Z</time></trkpt><trkpt lat="45.87932280411057" lon="8.888687811710435"><ele>342.0</ele><time>2026-04-25T09:03:46.941Z</time></trkpt><trkpt lat="45.87945089513109" lon="8.888646444697622"><ele>343.0</ele><time>2026-04-25T09:03:47.941Z</time></trkpt><trkpt lat="45.87957690910977" lon="8.888596842722032"><ele>344.0</ele><time>2026-04-25T09:03:48.941Z</time></trkpt><trkpt lat="45.8797042061524" lon="8.888541854821165"><ele>345.0</ele><time>2026-04-25T09:03:49.941Z</time></trkpt><trkpt lat="45.87983417607252" lon="8.888496352190739"><ele>346.0</ele><time>2026-04-25T09:03:50.941Z</time></trkpt><trkpt lat="45.87997722933313" lon="8.888454794848395"><ele>345.5</ele><time>2026-04-25T09:03:51.941Z</time></trkpt><trkpt lat="45.880124242499534" lon="8.88841725600733"><ele>345.0</ele><time>2026-04-25T09:03:52.941Z</time></trkpt><trkpt lat="45.88026720022797" lon="8.88839011405241"><ele>344.5</ele><time>2026-04-25T09:03:53.941Z</time></trkpt><trkpt lat="45.88040497079076" lon="8.888392678258851"><ele>344.0</ele><time>2026-04-25T09:03:54.941Z</time></trkpt><trkpt lat="45.880540886766525" lon="8.888348214200514"><ele>344.0</ele><time>2026-04-25T09:03:55.941Z</time></trkpt><trkpt lat="45.880669466838796" lon="8.888328406719177"><ele>344.0</ele><time>2026-04-25T09:03:56.941Z</time></trkpt><trkpt lat="45.88080235905671" lon="8.888312850889474"><ele>344.0</ele><time>2026-04-25T09:03:57.941Z</time></trkpt><trkpt lat="45.88094751321078" lon="8.888295225789756"><ele>344.0</ele><time>2026-04-25T09:03:58.941Z</time></trkpt><trkpt lat="45.881095460701566" lon="8.888260108722223"><ele>344.0</ele><time>2026-04-25T09:03:59.941Z</time></trkpt><trkpt lat="45.88122997234591" lon="8.888207382543023"><ele>344.0</ele><time>2026-04-25T09:04:00.941Z</time></trkpt><trkpt lat="45.8813716596048" lon="8.88816447553418"><ele>344.0</ele><time>2026-04-25T09:04:01.941Z</time></trkpt><trkpt lat="45.881500741872735" lon="8.888106941032245"><ele>344.0</ele><time>2026-04-25T09:04:02.941Z</time></trkpt><trkpt lat="45.881626834365804" lon="8.88805073911754"><ele>344.0</ele><time>2026-04-25T09:04:03.941Z</time></trkpt><trkpt lat="45.881737158626194" lon="8.887981142743525"><ele>344.0</ele><time>2026-04-25T09:04:04.941Z</time></trkpt><trkpt lat="45.88187006964741" lon="8.887940727333834"><ele>344.0</ele><time>2026-04-25T09:04:05.941Z</time></trkpt><trkpt lat="45.8820172257493" lon="8.887910706143936"><ele>344.0</ele><time>2026-04-25T09:04:06.941Z</time></trkpt><trkpt lat="45.88217251039284" lon="8.887918629160207"><ele>343.75</ele><time>2026-04-25T09:04:07.941Z</time></trkpt><trkpt lat="45.88232309940651" lon="8.8879060985799"><ele>343.5</ele><time>2026-04-25T09:04:08.941Z</time></trkpt><trkpt lat="45.882458422740136" lon="8.887900668276146"><ele>343.25</ele><time>2026-04-25T09:04:09.941Z</time></trkpt><trkpt lat="45.88256829257096" lon="8.887907033248919"><ele>343.0</ele><time>2026-04-25T09:04:10.941Z</time></trkpt><trkpt lat="45.88267128271313" lon="8.887917480780674"><ele>343.75</ele><time>2026-04-25T09:04:11.941Z</time></trkpt><trkpt lat="45.882776692981274" lon="8.88792896413813"><ele>344.5</ele><time>2026-04-25T09:04:12.941Z</time></trkpt><trkpt lat="45.88290422548582" lon="8.887944345675923"><ele>345.25</ele><time>2026-04-25T09:04:13.941Z</time></trkpt><trkpt lat="45.88304077351527" lon="8.887970885555594"><ele>346.0</ele><time>2026-04-25T09:04:14.941Z</time></trkpt><trkpt lat="45.88316525212003" lon="8.888001663806618"><ele>346.0</ele><time>2026-04-25T09:04:15.941Z</time></trkpt><trkpt lat="45.8832885069258" lon="8.88801090733275"><ele>346.0</ele><time>2026-04-25T09:04:16.941Z</time></trkpt><trkpt lat="45.88341069878758" lon="8.888062776841734"><ele>346.0</ele><time>2026-04-25T09:04:17.941Z</time></trkpt><trkpt lat="45.88353243161162" lon="8.888095557637028"><ele>346.0</ele><time>2026-04-25T09:04:18.941Z</time></trkpt><trkpt lat="45.883645515936045" lon="8.888122128077256"><ele>346.25</ele><time>2026-04-25T09:04:19.941Z</time></trkpt><trkpt lat="45.88375096446652" lon="8.888148793936653"><ele>346.5</ele><time>2026-04-25T09:04:20.941Z</time></trkpt><trkpt lat="45.8838603555362" lon="8.888185528629547"><ele>346.75</ele><time>2026-04-25T09:04:21.941Z</time></trkpt><trkpt lat="45.8839796180378" lon="8.8882336750799"><ele>347.0</ele><time>2026-04-25T09:04:22.941Z</time></trkpt><trkpt lat="45.884103007662915" lon="8.888287423133708"><ele>347.0</ele><time>2026-04-25T09:04:23.941Z</time></trkpt><trkpt lat="45.88422343187151" lon="8.888348960214103"><ele>347.0</ele><time>2026-04-25T09:04:24.941Z</time></trkpt><trkpt lat="45.88433137533735" lon="8.888406336492013"><ele>347.0</ele><time>2026-04-25T09:04:25.941Z</time></trkpt><trkpt lat="45.884441999258364" lon="8.888468014275814"><ele>347.0</ele><time>2026-04-25T09:04:26.941Z</time></trkpt><trkpt lat="45.88455317379462" lon="8.888529433840533"><ele>348.0</ele><time>2026-04-25T09:04:27.941Z</time></trkpt><trkpt lat="45.884666892838354" lon="8.88859184003439"><ele>349.0</ele><time>2026-04-25T09:04:28.941Z</time></trkpt><trkpt lat="45.884784397616066" lon="8.888653271942351"><ele>350.0</ele><time>2026-04-25T09:04:29.941Z</time></trkpt><trkpt lat="45.88490373073226" lon="8.888701555005099"><ele>351.0</ele><time>2026-04-25T09:04:30.941Z</time></trkpt><trkpt lat="45.88502869794101" lon="8.888733873296315"><ele>350.75</ele><time>2026-04-25T09:04:31.941Z</time></trkpt><trkpt lat="45.8851574236492" lon="8.888767773217992"><ele>350.5</ele><time>2026-04-25T09:04:32.941Z</time></trkpt><trkpt lat="45.88528205218705" lon="8.88880395578903"><ele>350.25</ele><time>2026-04-25T09:04:33.942Z</time></trkpt><trkpt lat="45.88539419496611" lon="8.888832221103527"><ele>350.0</ele><time>2026-04-25T09:04:34.942Z</time></trkpt><trkpt lat="45.88549788930714" lon="8.888855360067252"><ele>350.0</ele><time>2026-04-25T09:04:35.942Z</time></trkpt><trkpt lat="45.885597408989476" lon="8.88886252997951"><ele>350.0</ele><time>2026-04-25T09:04:36.942Z</time></trkpt><trkpt lat="45.885703784411795" lon="8.888856791103288"><ele>350.0</ele><time>2026-04-25T09:04:37.942Z</time></trkpt><trkpt lat="45.885818453232545" lon="8.888839355625096"><ele>350.0</ele><time>2026-04-25T09:04:38.942Z</time></trkpt><trkpt lat="45.88594402171757" lon="8.888810023969649"><ele>350.0</ele><time>2026-04-25T09:04:39.942Z</time></trkpt><trkpt lat="45.88606874351992" lon="8.888760536246636"><ele>350.0</ele><time>2026-04-25T09:04:40.942Z</time></trkpt><trkpt lat="45.88619267120997" lon="8.88869721416992"><ele>350.0</ele><time>2026-04-25T09:04:41.942Z</time></trkpt><trkpt lat="45.88631037532156" lon="8.888646208112476"><ele>350.0</ele><time>2026-04-25T09:04:42.942Z</time></trkpt><trkpt lat="45.88643135990899" lon="8.8886150369203"><ele>350.0</ele><time>2026-04-25T09:04:43.942Z</time></trkpt><trkpt lat="45.88655519122857" lon="8.888600201321836"><ele>350.0</ele><time>2026-04-25T09:04:44.942Z</time></trkpt><trkpt lat="45.886675357316165" lon="8.888592069519959"><ele>350.0</ele><time>2026-04-25T09:04:45.942Z</time></trkpt><trkpt lat="45.88679389197156" lon="8.88858458377365"><ele>350.0</ele><time>2026-04-25T09:04:46.942Z</time></trkpt><trkpt lat="45.886913665582824" lon="8.888578623625529"><ele>350.0</ele><time>2026-04-25T09:04:47.942Z</time></trkpt><trkpt lat="45.88703710716078" lon="8.888572339240712"><ele>350.0</ele><time>2026-04-25T09:04:48.942Z</time></trkpt><trkpt lat="45.887164879735515" lon="8.888562290697184"><ele>350.0</ele><time>2026-04-25T09:04:49.942Z</time></trkpt><trkpt lat="45.8872890712149" lon="8.888538851022364"><ele>350.0</ele><time>2026-04-25T09:04:50.942Z</time></trkpt><trkpt lat="45.88739987412871" lon="8.888522331430012"><ele>350.0</ele><time>2026-04-25T09:04:51.942Z</time></trkpt><trkpt lat="45.88750001470897" lon="8.888504469037722"><ele>350.0</ele><time>2026-04-25T09:04:52.942Z</time></trkpt><trkpt lat="45.88759182051866" lon="8.888491026380068"><ele>350.0</ele><time>2026-04-25T09:04:53.942Z</time></trkpt><trkpt lat="45.887674423285596" lon="8.888488627361507"><ele>350.0</ele><time>2026-04-25T09:04:54.942Z</time></trkpt><trkpt lat="45.88775900767799" lon="8.888497929837934"><ele>350.0</ele><time>2026-04-25T09:04:55.942Z</time></trkpt><trkpt lat="45.88784464630957" lon="8.888508970752207"><ele>350.0</ele><time>2026-04-25T09:04:56.942Z</time></trkpt><trkpt lat="45.88793113509187" lon="8.888510201412181"><ele>350.0</ele><time>2026-04-25T09:04:57.942Z</time></trkpt><trkpt lat="45.88801675273402" lon="8.888498150984793"><ele>349.83333333333337</ele><time>2026-04-25T09:04:58.942Z</time></trkpt><trkpt lat="45.888092443778724" lon="8.888493736741482"><ele>349.6666666666667</ele><time>2026-04-25T09:04:59.942Z</time></trkpt><trkpt lat="45.88819630295241" lon="8.888536880982336"><ele>349.5</ele><time>2026-04-25T09:05:01.942Z</time></trkpt><trkpt lat="45.88823749270636" lon="8.88863068985552"><ele>349.3333333333333</ele><time>2026-04-25T09:05:03.942Z</time></trkpt><trkpt lat="45.888243798261655" lon="8.888783838818268"><ele>349.16666666666663</ele><time>2026-04-25T09:05:05.942Z</time></trkpt><trkpt lat="45.88824075013714" lon="8.888886950618042"><ele>349.0</ele><time>2026-04-25T09:05:06.942Z</time></trkpt><trkpt lat="45.88826646778066" lon="8.88897336310443"><ele>349.0</ele><time>2026-04-25T09:05:07.942Z</time></trkpt><trkpt lat="45.888317362460334" lon="8.88905217068438"><ele>349.0</ele><time>2026-04-25T09:05:08.942Z</time></trkpt><trkpt lat="45.88839020725995" lon="8.889127787604906"><ele>349.0</ele><time>2026-04-25T09:05:09.942Z</time></trkpt><trkpt lat="45.888481328057836" lon="8.889200858789719"><ele>349.0</ele><time>2026-04-25T09:05:10.942Z</time></trkpt><trkpt lat="45.88857282830814" lon="8.8892703789696"><ele>349.0</ele><time>2026-04-25T09:05:11.942Z</time></trkpt><trkpt lat="45.88865364033032" lon="8.889334958500013"><ele>348.99999999999994</ele><time>2026-04-25T09:05:12.942Z</time></trkpt><trkpt lat="45.88872320743035" lon="8.88938741482877"><ele>349.0</ele><time>2026-04-25T09:05:13.942Z</time></trkpt><trkpt lat="45.888791793186876" lon="8.88943834779879"><ele>349.0</ele><time>2026-04-25T09:05:14.942Z</time></trkpt><trkpt lat="45.888861833604935" lon="8.889491807901404"><ele>349.0</ele><time>2026-04-25T09:05:15.942Z</time></trkpt><trkpt lat="45.888920110468256" lon="8.889544081459457"><ele>349.0</ele><time>2026-04-25T09:05:16.942Z</time></trkpt><trkpt lat="45.888978860629564" lon="8.889589435482442"><ele>348.99999999999994</ele><time>2026-04-25T09:05:17.942Z</time></trkpt><trkpt lat="45.88904086604929" lon="8.889636491045877"><ele>349.0</ele><time>2026-04-25T09:05:18.942Z</time></trkpt><trkpt lat="45.8891182024517" lon="8.889700246111659"><ele>349.0</ele><time>2026-04-25T09:05:19.942Z</time></trkpt><trkpt lat="45.889195742370035" lon="8.889761441216017"><ele>349.0</ele><time>2026-04-25T09:05:20.942Z</time></trkpt><trkpt lat="45.8892722831975" lon="8.889828282908828"><ele>349.0</ele><time>2026-04-25T09:05:21.942Z</time></trkpt><trkpt lat="45.88933939051666" lon="8.88988678242932"><ele>349.0</ele><time>2026-04-25T09:05:22.942Z</time></trkpt><trkpt lat="45.889396702956184" lon="8.889932961156363"><ele>349.0</ele><time>2026-04-25T09:05:23.942Z</time></trkpt><trkpt lat="45.88945742382503" lon="8.889986932944"><ele>349.0</ele><time>2026-04-25T09:05:24.942Z</time></trkpt><trkpt lat="45.88952084850818" lon="8.890037364974914"><ele>348.99999999999994</ele><time>2026-04-25T09:05:25.939Z</time></trkpt><trkpt lat="45.88958351373787" lon="8.890084668260226"><ele>349.0</ele><time>2026-04-25T09:05:26.94Z</time></trkpt><trkpt lat="45.88965169456011" lon="8.890125048335006"><ele>349.0</ele><time>2026-04-25T09:05:27.94Z</time></trkpt><trkpt lat="45.88972356416243" lon="8.890157904163617"><ele>349.0</ele><time>2026-04-25T09:05:28.94Z</time></trkpt><trkpt lat="45.88980379548079" lon="8.890190037319378"><ele>349.0</ele><time>2026-04-25T09:05:29.939Z</time></trkpt><trkpt lat="45.88987570726736" lon="8.890217874836091"><ele>348.99999999999994</ele><time>2026-04-25T09:05:30.939Z</time></trkpt><trkpt lat="45.88994321010741" lon="8.890239097421416"><ele>349.0</ele><time>2026-04-25T09:05:31.939Z</time></trkpt><trkpt lat="45.89005062539733" lon="8.890266628837402"><ele>348.3333333333333</ele><time>2026-04-25T09:05:33.939Z</time></trkpt><trkpt lat="45.890146358311576" lon="8.890306156750635"><ele>347.66666666666663</ele><time>2026-04-25T09:05:35.939Z</time></trkpt><trkpt lat="45.89021243127184" lon="8.890323247786014"><ele>347.0</ele><time>2026-04-25T09:05:36.939Z</time></trkpt><trkpt lat="45.89029766160913" lon="8.89035575403862"><ele>346.3333333333333</ele><time>2026-04-25T09:05:37.939Z</time></trkpt><trkpt lat="45.890381230039004" lon="8.890417733982357"><ele>345.6666666666667</ele><time>2026-04-25T09:05:38.939Z</time></trkpt><trkpt lat="45.89046701715665" lon="8.890472125877134"><ele>345.0</ele><time>2026-04-25T09:05:39.939Z</time></trkpt><trkpt lat="45.89055115967159" lon="8.890523495394968"><ele>345.0</ele><time>2026-04-25T09:05:40.939Z</time></trkpt><trkpt lat="45.89062586917334" lon="8.890568773722858"><ele>345.0</ele><time>2026-04-25T09:05:41.939Z</time></trkpt><trkpt lat="45.89069418019748" lon="8.89063689855741"><ele>345.0</ele><time>2026-04-25T09:05:42.939Z</time></trkpt><trkpt lat="45.890766395386485" lon="8.890652725430513"><ele>345.0</ele><time>2026-04-25T09:05:43.939Z</time></trkpt><trkpt lat="45.890889754246686" lon="8.890712709227643"><ele>345.0</ele><time>2026-04-25T09:05:45.939Z</time></trkpt><trkpt lat="45.89096301976495" lon="8.890736371328925"><ele>345.0</ele><time>2026-04-25T09:05:46.939Z</time></trkpt><trkpt lat="45.89103776588353" lon="8.890776015848036"><ele>344.6</ele><time>2026-04-25T09:05:47.939Z</time></trkpt><trkpt lat="45.891114874803584" lon="8.890838277494128"><ele>344.2</ele><time>2026-04-25T09:05:48.939Z</time></trkpt><trkpt lat="45.89119013117191" lon="8.890923833634542"><ele>343.79999999999995</ele><time>2026-04-25T09:05:49.939Z</time></trkpt><trkpt lat="45.8912599891955" lon="8.891019516396481"><ele>343.4</ele><time>2026-04-25T09:05:50.939Z</time></trkpt><trkpt lat="45.89131957648629" lon="8.891117373912358"><ele>343.0</ele><time>2026-04-25T09:05:51.939Z</time></trkpt><trkpt lat="45.891366907474016" lon="8.891207597195159"><ele>343.0</ele><time>2026-04-25T09:05:52.939Z</time></trkpt><trkpt lat="45.89140461906201" lon="8.891282693132133"><ele>343.0</ele><time>2026-04-25T09:05:53.939Z</time></trkpt><trkpt lat="45.8914683034449" lon="8.891422349601543"><ele>343.0</ele><time>2026-04-25T09:05:55.939Z</time></trkpt><trkpt lat="45.89152597051888" lon="8.891567336557427"><ele>343.0</ele><time>2026-04-25T09:05:57.939Z</time></trkpt><trkpt lat="45.8915505772695" lon="8.891654310408853"><ele>343.0</ele><time>2026-04-25T09:05:58.939Z</time></trkpt><trkpt lat="45.891572363843785" lon="8.891746643908347"><ele>343.0</ele><time>2026-04-25T09:05:59.939Z</time></trkpt><trkpt lat="45.89159976853078" lon="8.891842411615906"><ele>342.8333333333333</ele><time>2026-04-25T09:06:00.939Z</time></trkpt><trkpt lat="45.8916373739744" lon="8.891945977039336"><ele>342.66666666666663</ele><time>2026-04-25T09:06:01.939Z</time></trkpt><trkpt lat="45.8916801377279" lon="8.892030660635646"><ele>342.5</ele><time>2026-04-25T09:06:02.939Z</time></trkpt><trkpt lat="45.89173460936172" lon="8.892116025039702"><ele>342.3333333333333</ele><time>2026-04-25T09:06:03.939Z</time></trkpt><trkpt lat="45.8918006992329" lon="8.892199976702493"><ele>342.1666666666667</ele><time>2026-04-25T09:06:04.939Z</time></trkpt><trkpt lat="45.89186029101599" lon="8.892266101314126"><ele>342.0</ele><time>2026-04-25T09:06:05.939Z</time></trkpt><trkpt lat="45.89191952467785" lon="8.892355712627149"><ele>341.40000000000003</ele><time>2026-04-25T09:06:06.939Z</time></trkpt><trkpt lat="45.8919977690002" lon="8.892407930466577"><ele>340.8</ele><time>2026-04-25T09:06:07.939Z</time></trkpt><trkpt lat="45.892063902018876" lon="8.892468791016537"><ele>340.2</ele><time>2026-04-25T09:06:08.939Z</time></trkpt><trkpt lat="45.89214590629299" lon="8.892539925386366"><ele>339.6</ele><time>2026-04-25T09:06:09.939Z</time></trkpt><trkpt lat="45.89223224595618" lon="8.892630422613495"><ele>339.0</ele><time>2026-04-25T09:06:10.939Z</time></trkpt><trkpt lat="45.89232298603493" lon="8.892741293908244"><ele>339.0</ele><time>2026-04-25T09:06:11.939Z</time></trkpt><trkpt lat="45.89240444917155" lon="8.892858219584586"><ele>339.0</ele><time>2026-04-25T09:06:12.939Z</time></trkpt><trkpt lat="45.89248225206095" lon="8.892963623782874"><ele>339.0</ele><time>2026-04-25T09:06:13.939Z</time></trkpt><trkpt lat="45.892567149811455" lon="8.893044363511414"><ele>339.0</ele><time>2026-04-25T09:06:14.939Z</time></trkpt><trkpt lat="45.8926862721013" lon="8.893095166152618"><ele>339.0</ele><time>2026-04-25T09:06:15.939Z</time></trkpt><trkpt lat="45.89281498500103" lon="8.89311600085663"><ele>336.75</ele><time>2026-04-25T09:06:16.939Z</time></trkpt><trkpt lat="45.89293984592746" lon="8.893145356057332"><ele>334.5</ele><time>2026-04-25T09:06:17.939Z</time></trkpt><trkpt lat="45.893063079805465" lon="8.893129362658032"><ele>332.25</ele><time>2026-04-25T09:06:18.939Z</time></trkpt><trkpt lat="45.89317344742547" lon="8.893160737343468"><ele>330.0</ele><time>2026-04-25T09:06:19.939Z</time></trkpt><trkpt lat="45.89327298869361" lon="8.893228498697038"><ele>330.0</ele><time>2026-04-25T09:06:20.939Z</time></trkpt><trkpt lat="45.89335801882527" lon="8.893326199942551"><ele>330.0</ele><time>2026-04-25T09:06:21.939Z</time></trkpt><trkpt lat="45.893443424973285" lon="8.893460345838271"><ele>330.0</ele><time>2026-04-25T09:06:22.939Z</time></trkpt><trkpt lat="45.893526658179255" lon="8.893607986858067"><ele>330.0</ele><time>2026-04-25T09:06:23.939Z</time></trkpt><trkpt lat="45.89360983738821" lon="8.893755375031489"><ele>325.75</ele><time>2026-04-25T09:06:24.939Z</time></trkpt><trkpt lat="45.89369599402234" lon="8.893891783792347"><ele>321.5</ele><time>2026-04-25T09:06:25.939Z</time></trkpt><trkpt lat="45.89377324175297" lon="8.894022144512691"><ele>317.25</ele><time>2026-04-25T09:06:26.939Z</time></trkpt><trkpt lat="45.893849429084916" lon="8.894155763842864"><ele>313.0</ele><time>2026-04-25T09:06:27.939Z</time></trkpt><trkpt lat="45.89393006729313" lon="8.894288671305157"><ele>313.0</ele><time>2026-04-25T09:06:28.939Z</time></trkpt><trkpt lat="45.894012694018116" lon="8.89441522990926"><ele>313.0</ele><time>2026-04-25T09:06:29.939Z</time></trkpt><trkpt lat="45.894104378585794" lon="8.894529654657658"><ele>313.0</ele><time>2026-04-25T09:06:30.939Z</time></trkpt><trkpt lat="45.89420101283802" lon="8.894634705543252"><ele>313.0</ele><time>2026-04-25T09:06:31.939Z</time></trkpt><trkpt lat="45.89430414274384" lon="8.894723791316686"><ele>309.25</ele><time>2026-04-25T09:06:32.939Z</time></trkpt><trkpt lat="45.89441290020239" lon="8.894795851632088"><ele>305.5</ele><time>2026-04-25T09:06:33.939Z</time></trkpt><trkpt lat="45.894540856274006" lon="8.894847327534954"><ele>301.75</ele><time>2026-04-25T09:06:34.939Z</time></trkpt><trkpt lat="45.89466951838097" lon="8.894897074791489"><ele>298.0</ele><time>2026-04-25T09:06:35.939Z</time></trkpt><trkpt lat="45.89478869654169" lon="8.894953209011723"><ele>298.0</ele><time>2026-04-25T09:06:36.939Z</time></trkpt><trkpt lat="45.89489662972509" lon="8.89501905589536"><ele>298.0</ele><time>2026-04-25T09:06:37.939Z</time></trkpt><trkpt lat="45.89500044973464" lon="8.895092520897085"><ele>298.0</ele><time>2026-04-25T09:06:38.939Z</time></trkpt><trkpt lat="45.89510309206958" lon="8.895170280761686"><ele>298.0</ele><time>2026-04-25T09:06:39.939Z</time></trkpt><trkpt lat="45.89520179673126" lon="8.895235230004744"><ele>296.4</ele><time>2026-04-25T09:06:40.939Z</time></trkpt><trkpt lat="45.895303401915854" lon="8.895282218490552"><ele>294.8</ele><time>2026-04-25T09:06:41.939Z</time></trkpt><trkpt lat="45.895402597520956" lon="8.895326491363623"><ele>293.2</ele><time>2026-04-25T09:06:42.939Z</time></trkpt><trkpt lat="45.89550997665543" lon="8.89536459102747"><ele>291.6</ele><time>2026-04-25T09:06:43.94Z</time></trkpt><trkpt lat="45.89561871202764" lon="8.895389704491427"><ele>290.0</ele><time>2026-04-25T09:06:44.94Z</time></trkpt><trkpt lat="45.89572575630243" lon="8.895404774763607"><ele>290.0</ele><time>2026-04-25T09:06:45.94Z</time></trkpt><trkpt lat="45.89582474486427" lon="8.895417250074951"><ele>290.0</ele><time>2026-04-25T09:06:46.94Z</time></trkpt><trkpt lat="45.89591335194107" lon="8.895432336744125"><ele>290.0</ele><time>2026-04-25T09:06:47.94Z</time></trkpt><trkpt lat="45.895987608958016" lon="8.89544825280174"><ele>290.0</ele><time>2026-04-25T09:06:48.94Z</time></trkpt><trkpt lat="45.89606145344974" lon="8.895480949105933"><ele>290.0</ele><time>2026-04-25T09:06:50.94Z</time></trkpt><trkpt lat="45.896174705390074" lon="8.895563890392765"><ele>289.6</ele><time>2026-04-25T09:06:55.94Z</time></trkpt><trkpt lat="45.89623622924856" lon="8.895666943379391"><ele>289.2</ele><time>2026-04-25T09:06:56.94Z</time></trkpt><trkpt lat="45.896315551734666" lon="8.89578742344262"><ele>288.8</ele><time>2026-04-25T09:06:57.94Z</time></trkpt><trkpt lat="45.89639196166084" lon="8.895901119023588"><ele>288.4</ele><time>2026-04-25T09:06:58.94Z</time></trkpt><trkpt lat="45.89648162361297" lon="8.896023821275165"><ele>288.0</ele><time>2026-04-25T09:06:59.94Z</time></trkpt><trkpt lat="45.89658079912511" lon="8.896139322434923"><ele>288.0</ele><time>2026-04-25T09:07:00.94Z</time></trkpt><trkpt lat="45.896689090448426" lon="8.89624408367168"><ele>288.0</ele><time>2026-04-25T09:07:01.94Z</time></trkpt><trkpt lat="45.89680076923526" lon="8.896343937654597"><ele>288.0</ele><time>2026-04-25T09:07:02.94Z</time></trkpt><trkpt lat="45.8969167292913" lon="8.896448225340944"><ele>288.0</ele><time>2026-04-25T09:07:03.94Z</time></trkpt><trkpt lat="45.89704225986852" lon="8.896578068860327"><ele>287.3333333333333</ele><time>2026-04-25T09:07:04.94Z</time></trkpt><trkpt lat="45.89715740314922" lon="8.89671469073623"><ele>286.66666666666663</ele><time>2026-04-25T09:07:05.94Z</time></trkpt><trkpt lat="45.89727693682579" lon="8.89687420249463"><ele>286.0</ele><time>2026-04-25T09:07:06.94Z</time></trkpt><trkpt lat="45.89739848304865" lon="8.897034203371478"><ele>286.0</ele><time>2026-04-25T09:07:07.94Z</time></trkpt><trkpt lat="45.89751139941468" lon="8.897185650499098"><ele>286.0</ele><time>2026-04-25T09:07:08.94Z</time></trkpt><trkpt lat="45.89761707742025" lon="8.897330527185849"><ele>286.0</ele><time>2026-04-25T09:07:09.94Z</time></trkpt><trkpt lat="45.89771332089105" lon="8.89746071236963"><ele>286.0</ele><time>2026-04-25T09:07:10.94Z</time></trkpt><trkpt lat="45.897802938940686" lon="8.897586008768107"><ele>285.5</ele><time>2026-04-25T09:07:11.94Z</time></trkpt><trkpt lat="45.897889064880914" lon="8.897705537020405"><ele>285.0</ele><time>2026-04-25T09:07:12.94Z</time></trkpt><trkpt lat="45.897971953229906" lon="8.89781996506558"><ele>284.5</ele><time>2026-04-25T09:07:13.94Z</time></trkpt><trkpt lat="45.898062726350304" lon="8.897936728654685"><ele>284.0</ele><time>2026-04-25T09:07:14.94Z</time></trkpt><trkpt lat="45.89815636614158" lon="8.898056979617763"><ele>284.0</ele><time>2026-04-25T09:07:15.94Z</time></trkpt><trkpt lat="45.8982566780853" lon="8.898188752309432"><ele>284.0</ele><time>2026-04-25T09:07:16.94Z</time></trkpt><trkpt lat="45.89835435863336" lon="8.89831969270712"><ele>284.0</ele><time>2026-04-25T09:07:17.94Z</time></trkpt><trkpt lat="45.898441712552064" lon="8.89844414780155"><ele>284.0</ele><time>2026-04-25T09:07:18.94Z</time></trkpt><trkpt lat="45.89852985513507" lon="8.898567912549874"><ele>283.25</ele><time>2026-04-25T09:07:19.94Z</time></trkpt><trkpt lat="45.89861951857562" lon="8.898704196665657"><ele>282.5</ele><time>2026-04-25T09:07:20.94Z</time></trkpt><trkpt lat="45.89871280275016" lon="8.89884018620977"><ele>281.75</ele><time>2026-04-25T09:07:21.94Z</time></trkpt><trkpt lat="45.89880570355213" lon="8.898979431782688"><ele>281.0</ele><time>2026-04-25T09:07:22.94Z</time></trkpt><trkpt lat="45.89889579428854" lon="8.899112426759569"><ele>281.5</ele><time>2026-04-25T09:07:23.94Z</time></trkpt><trkpt lat="45.898996216624646" lon="8.899257674557006"><ele>282.0</ele><time>2026-04-25T09:07:24.94Z</time></trkpt><trkpt lat="45.899095501822096" lon="8.899404170408738"><ele>282.5</ele><time>2026-04-25T09:07:25.94Z</time></trkpt><trkpt lat="45.899191787414146" lon="8.899551363963841"><ele>283.0</ele><time>2026-04-25T09:07:26.94Z</time></trkpt><trkpt lat="45.899285113319344" lon="8.899705017320201"><ele>283.0</ele><time>2026-04-25T09:07:27.94Z</time></trkpt><trkpt lat="45.899370100527086" lon="8.899848724617438"><ele>283.0</ele><time>2026-04-25T09:07:28.94Z</time></trkpt><trkpt lat="45.89945345210609" lon="8.899985850257822"><ele>283.0</ele><time>2026-04-25T09:07:29.94Z</time></trkpt><trkpt lat="45.89952895944754" lon="8.90011899616636"><ele>283.0</ele><time>2026-04-25T09:07:30.94Z</time></trkpt><trkpt lat="45.899604984975184" lon="8.900249531604178"><ele>283.0</ele><time>2026-04-25T09:07:31.937Z</time></trkpt><trkpt lat="45.89967900983194" lon="8.900376604704292"><ele>283.0</ele><time>2026-04-25T09:07:32.937Z</time></trkpt><trkpt lat="45.89975221415093" lon="8.900503961950431"><ele>283.0</ele><time>2026-04-25T09:07:33.937Z</time></trkpt><trkpt lat="45.89982946009478" lon="8.90062897123417"><ele>283.0</ele><time>2026-04-25T09:07:34.937Z</time></trkpt><trkpt lat="45.89990718053767" lon="8.900762982289464"><ele>283.0</ele><time>2026-04-25T09:07:35.936Z</time></trkpt><trkpt lat="45.89998581268504" lon="8.900906721590193"><ele>283.0</ele><time>2026-04-25T09:07:36.936Z</time></trkpt><trkpt lat="45.90006481166112" lon="8.90104897419291"><ele>283.0</ele><time>2026-04-25T09:07:37.937Z</time></trkpt><trkpt lat="45.900145446084096" lon="8.901194434982369"><ele>283.0</ele><time>2026-04-25T09:07:38.937Z</time></trkpt><trkpt lat="45.90022110505086" lon="8.90133960661501"><ele>283.25</ele><time>2026-04-25T09:07:39.937Z</time></trkpt><trkpt lat="45.90029643610765" lon="8.901484752863702"><ele>283.5</ele><time>2026-04-25T09:07:40.937Z</time></trkpt><trkpt lat="45.90037306119708" lon="8.901626504112164"><ele>283.75</ele><time>2026-04-25T09:07:41.937Z</time></trkpt><trkpt lat="45.900446837375895" lon="8.90175575574246"><ele>284.0</ele><time>2026-04-25T09:07:42.937Z</time></trkpt><trkpt lat="45.90051663580926" lon="8.901885137981282"><ele>284.0</ele><time>2026-04-25T09:07:43.936Z</time></trkpt><trkpt lat="45.90058165193745" lon="8.902003423751292"><ele>284.0</ele><time>2026-04-25T09:07:44.937Z</time></trkpt><trkpt lat="45.90063751649715" lon="8.902099547182681"><ele>284.0</ele><time>2026-04-25T09:07:45.937Z</time></trkpt><trkpt lat="45.900682279710125" lon="8.90217874101853"><ele>284.0</ele><time>2026-04-25T09:07:46.937Z</time></trkpt><trkpt lat="45.90073258112752" lon="8.902289652879725"><ele>284.0</ele><time>2026-04-25T09:07:48.937Z</time></trkpt><trkpt lat="45.900782844733904" lon="8.902388528411045"><ele>284.0</ele><time>2026-04-25T09:07:51.937Z</time></trkpt><trkpt lat="45.90084550687704" lon="8.902486013999773"><ele>284.0</ele><time>2026-04-25T09:08:13.937Z</time></trkpt><trkpt lat="45.900881916918685" lon="8.902564366822038"><ele>284.0</ele><time>2026-04-25T09:08:14.937Z</time></trkpt><trkpt lat="45.90092419337733" lon="8.902642494324692"><ele>284.0</ele><time>2026-04-25T09:08:15.937Z</time></trkpt><trkpt lat="45.900970514924616" lon="8.902720968379008"><ele>284.0</ele><time>2026-04-25T09:08:16.937Z</time></trkpt><trkpt lat="45.901029701141915" lon="8.902807359466946"><ele>284.0</ele><time>2026-04-25T09:08:17.937Z</time></trkpt><trkpt lat="45.90109580778516" lon="8.90290003758701"><ele>284.0</ele><time>2026-04-25T09:08:18.937Z</time></trkpt><trkpt lat="45.90116342584475" lon="8.90299389250468"><ele>283.2</ele><time>2026-04-25T09:08:19.937Z</time></trkpt><trkpt lat="45.901235368644535" lon="8.903091364227375"><ele>282.4</ele><time>2026-04-25T09:08:20.937Z</time></trkpt><trkpt lat="45.90131380240366" lon="8.903188806885245"><ele>281.6</ele><time>2026-04-25T09:08:21.937Z</time></trkpt><trkpt lat="45.901395858890346" lon="8.903273695295859"><ele>280.8</ele><time>2026-04-25T09:08:22.937Z</time></trkpt><trkpt lat="45.901480094400675" lon="8.903348008145814"><ele>280.0</ele><time>2026-04-25T09:08:23.937Z</time></trkpt><trkpt lat="45.90156595170391" lon="8.90341891402146"><ele>279.8</ele><time>2026-04-25T09:08:24.937Z</time></trkpt><trkpt lat="45.90165149856583" lon="8.90347832745327"><ele>279.6</ele><time>2026-04-25T09:08:25.937Z</time></trkpt><trkpt lat="45.90173826800211" lon="8.903530544641063"><ele>279.4</ele><time>2026-04-25T09:08:26.937Z</time></trkpt><trkpt lat="45.901825615857724" lon="8.903583646119257"><ele>279.2</ele><time>2026-04-25T09:08:27.937Z</time></trkpt><trkpt lat="45.90191693067564" lon="8.903637924343698"><ele>279.0</ele><time>2026-04-25T09:08:28.937Z</time></trkpt><trkpt lat="45.902011167338934" lon="8.903694284476902"><ele>279.0</ele><time>2026-04-25T09:08:29.937Z</time></trkpt><trkpt lat="45.902094880745736" lon="8.903755957477067"><ele>279.0</ele><time>2026-04-25T09:08:30.937Z</time></trkpt><trkpt lat="45.90217214024081" lon="8.903823310371848"><ele>279.0</ele><time>2026-04-25T09:08:31.937Z</time></trkpt><trkpt lat="45.90224719664364" lon="8.903895785276774"><ele>279.0</ele><time>2026-04-25T09:08:32.937Z</time></trkpt><trkpt lat="45.902323056874735" lon="8.9039608422703"><ele>279.0</ele><time>2026-04-25T09:08:33.937Z</time></trkpt><trkpt lat="45.90239920398695" lon="8.90402292936277"><ele>279.0</ele><time>2026-04-25T09:08:34.937Z</time></trkpt><trkpt lat="45.902474578657014" lon="8.904092119654095"><ele>279.0</ele><time>2026-04-25T09:08:35.937Z</time></trkpt><trkpt lat="45.90254440638002" lon="8.904158240849387"><ele>279.0</ele><time>2026-04-25T09:08:36.937Z</time></trkpt><trkpt lat="45.90259684976372" lon="8.904217698564262"><ele>279.0</ele><time>2026-04-25T09:08:37.937Z</time></trkpt><trkpt lat="45.902682424433124" lon="8.904328278623716"><ele>279.0</ele><time>2026-04-25T09:08:39.937Z</time></trkpt><trkpt lat="45.902738130668666" lon="8.904481751946001"><ele>278.6666666666667</ele><time>2026-04-25T09:08:41.937Z</time></trkpt><trkpt lat="45.902754131859716" lon="8.904587431409414"><ele>278.3333333333333</ele><time>2026-04-25T09:08:42.937Z</time></trkpt><trkpt lat="45.90275827993491" lon="8.904697638736506"><ele>278.0</ele><time>2026-04-25T09:08:43.937Z</time></trkpt><trkpt lat="45.90277080988774" lon="8.904799614306937"><ele>277.66666666666663</ele><time>2026-04-25T09:08:44.937Z</time></trkpt><trkpt lat="45.902791414019326" lon="8.90490302528627"><ele>277.3333333333333</ele><time>2026-04-25T09:08:45.937Z</time></trkpt><trkpt lat="45.90282273409108" lon="8.905016296499264"><ele>277.0</ele><time>2026-04-25T09:08:46.937Z</time></trkpt><trkpt lat="45.902870436227204" lon="8.905107039908652"><ele>278.16666666666663</ele><time>2026-04-25T09:08:47.937Z</time></trkpt><trkpt lat="45.90292900630229" lon="8.905204543288871"><ele>279.3333333333333</ele><time>2026-04-25T09:08:48.937Z</time></trkpt><trkpt lat="45.902988794768106" lon="8.905282058983522"><ele>280.5</ele><time>2026-04-25T09:08:49.937Z</time></trkpt><trkpt lat="45.903062796635425" lon="8.90537151931205"><ele>281.6666666666667</ele><time>2026-04-25T09:08:50.937Z</time></trkpt><trkpt lat="45.9031293407855" lon="8.905442049379733"><ele>282.83333333333337</ele><time>2026-04-25T09:08:51.937Z</time></trkpt><trkpt lat="45.903187296177514" lon="8.905497994496297"><ele>284.0</ele><time>2026-04-25T09:08:52.937Z</time></trkpt><trkpt lat="45.90324518105473" lon="8.905554575505"><ele>284.0</ele><time>2026-04-25T09:08:54.937Z</time></trkpt><trkpt lat="45.903179438639874" lon="8.905569884851941"><ele>284.0</ele><time>2026-04-25T09:09:04.937Z</time></trkpt><trkpt lat="45.9031201014784" lon="8.90551507832044"><ele>284.0</ele><time>2026-04-25T09:09:05.937Z</time></trkpt><trkpt lat="45.90304971474087" lon="8.905458911708344"><ele>284.0</ele><time>2026-04-25T09:09:06.937Z</time></trkpt><trkpt lat="45.90298765955281" lon="8.90539767798261"><ele>284.0</ele><time>2026-04-25T09:09:07.937Z</time></trkpt><trkpt lat="45.9029300417748" lon="8.905318844764949"><ele>284.0</ele><time>2026-04-25T09:09:08.937Z</time></trkpt><trkpt lat="45.90284537632308" lon="8.905158179736583"><ele>282.83333333333337</ele><time>2026-04-25T09:09:09.937Z</time></trkpt><trkpt lat="45.90280275477689" lon="8.90504519509957"><ele>281.6666666666667</ele><time>2026-04-25T09:09:10.937Z</time></trkpt><trkpt lat="45.90277298461228" lon="8.904911836926773"><ele>280.5</ele><time>2026-04-25T09:09:11.937Z</time></trkpt><trkpt lat="45.90274979288438" lon="8.904779432145022"><ele>279.3333333333333</ele><time>2026-04-25T09:09:12.937Z</time></trkpt><trkpt lat="45.90273922902596" lon="8.904665746105186"><ele>278.16666666666663</ele><time>2026-04-25T09:09:13.937Z</time></trkpt><trkpt lat="45.90272469086954" lon="8.90456544551463"><ele>277.0</ele><time>2026-04-25T09:09:14.937Z</time></trkpt><trkpt lat="45.90270708025624" lon="8.904465050598354"><ele>277.0</ele><time>2026-04-25T09:09:15.937Z</time></trkpt><trkpt lat="45.902682075182504" lon="8.904379122338618"><ele>277.0</ele><time>2026-04-25T09:09:16.937Z</time></trkpt><trkpt lat="45.902653273018636" lon="8.904295404322358"><ele>277.0</ele><time>2026-04-25T09:09:17.937Z</time></trkpt><trkpt lat="45.90259585877348" lon="8.904154056222428"><ele>277.0</ele><time>2026-04-25T09:09:19.937Z</time></trkpt><trkpt lat="45.90258183042006" lon="8.903957727092854"><ele>277.0</ele><time>2026-04-25T09:09:21.937Z</time></trkpt><trkpt lat="45.90259476023223" lon="8.90383942884685"><ele>276.2</ele><time>2026-04-25T09:09:22.937Z</time></trkpt><trkpt lat="45.90261237636333" lon="8.903705505947983"><ele>275.4</ele><time>2026-04-25T09:09:23.937Z</time></trkpt><trkpt lat="45.90262999908938" lon="8.903564816253125"><ele>274.6</ele><time>2026-04-25T09:09:24.937Z</time></trkpt><trkpt lat="45.90264565046159" lon="8.903413864780301"><ele>273.8</ele><time>2026-04-25T09:09:25.937Z</time></trkpt><trkpt lat="45.90266143858054" lon="8.90326951463411"><ele>273.0</ele><time>2026-04-25T09:09:26.937Z</time></trkpt><trkpt lat="45.902703384920414" lon="8.903118133927805"><ele>272.75</ele><time>2026-04-25T09:09:27.937Z</time></trkpt><trkpt lat="45.90273242765395" lon="8.902959739097138"><ele>272.5</ele><time>2026-04-25T09:09:28.937Z</time></trkpt><trkpt lat="45.90274766469882" lon="8.90279705658073"><ele>272.25</ele><time>2026-04-25T09:09:29.937Z</time></trkpt><trkpt lat="45.90276506969847" lon="8.902618398561785"><ele>272.0</ele><time>2026-04-25T09:09:30.937Z</time></trkpt><trkpt lat="45.90278494730792" lon="8.902444887311827"><ele>272.4</ele><time>2026-04-25T09:09:31.937Z</time></trkpt><trkpt lat="45.90280333897702" lon="8.90228150870342"><ele>272.79999999999995</ele><time>2026-04-25T09:09:32.937Z</time></trkpt><trkpt lat="45.9028211851652" lon="8.90213352152951"><ele>273.2</ele><time>2026-04-25T09:09:33.938Z</time></trkpt><trkpt lat="45.90284947677985" lon="8.902002262909798"><ele>273.59999999999997</ele><time>2026-04-25T09:09:34.938Z</time></trkpt><trkpt lat="45.902890969422465" lon="8.901870220335077"><ele>274.0</ele><time>2026-04-25T09:09:35.938Z</time></trkpt><trkpt lat="45.902941698434056" lon="8.901752185732148"><ele>273.8</ele><time>2026-04-25T09:09:36.938Z</time></trkpt><trkpt lat="45.903007371910455" lon="8.901636181996171"><ele>273.59999999999997</ele><time>2026-04-25T09:09:37.935Z</time></trkpt><trkpt lat="45.903084420552766" lon="8.901542939519627"><ele>273.4</ele><time>2026-04-25T09:09:38.935Z</time></trkpt><trkpt lat="45.90316318457983" lon="8.901477599246043"><ele>273.2</ele><time>2026-04-25T09:09:39.935Z</time></trkpt><trkpt lat="45.90324480558708" lon="8.901411943433626"><ele>273.0</ele><time>2026-04-25T09:09:40.935Z</time></trkpt><trkpt lat="45.903317497059184" lon="8.901335019431455"><ele>273.0</ele><time>2026-04-25T09:09:41.935Z</time></trkpt><trkpt lat="45.90339423526899" lon="8.901256039785778"><ele>273.0</ele><time>2026-04-25T09:09:42.935Z</time></trkpt><trkpt lat="45.90347264769433" lon="8.901172010114184"><ele>273.0</ele><time>2026-04-25T09:09:43.935Z</time></trkpt><trkpt lat="45.903547074240464" lon="8.90108642945646"><ele>273.0</ele><time>2026-04-25T09:09:44.935Z</time></trkpt><trkpt lat="45.90361774780741" lon="8.90099224216555"><ele>273.0</ele><time>2026-04-25T09:09:45.935Z</time></trkpt><trkpt lat="45.903673089816444" lon="8.900918887243902"><ele>273.0</ele><time>2026-04-25T09:09:46.935Z</time></trkpt><trkpt lat="45.903741862113996" lon="8.900825090064648"><ele>273.0</ele><time>2026-04-25T09:09:48.935Z</time></trkpt><trkpt lat="45.903840789286185" lon="8.900710378016663"><ele>273.0</ele><time>2026-04-25T09:10:10.935Z</time></trkpt><trkpt lat="45.90391270442857" lon="8.90061355630483"><ele>273.0</ele><time>2026-04-25T09:10:11.935Z</time></trkpt><trkpt lat="45.90399505970049" lon="8.900501135034563"><ele>273.0</ele><time>2026-04-25T09:10:12.935Z</time></trkpt><trkpt lat="45.904092701105554" lon="8.900365880464982"><ele>273.0</ele><time>2026-04-25T09:10:13.935Z</time></trkpt><trkpt lat="45.90418477052231" lon="8.900191531433746"><ele>273.0</ele><time>2026-04-25T09:10:14.935Z</time></trkpt><trkpt lat="45.904236805485475" lon="8.899964983925404"><ele>273.0</ele><time>2026-04-25T09:10:15.935Z</time></trkpt><trkpt lat="45.90431708626037" lon="8.899727025795041"><ele>272.3333333333333</ele><time>2026-04-25T09:10:16.935Z</time></trkpt><trkpt lat="45.904385414906535" lon="8.899491710161056"><ele>271.66666666666663</ele><time>2026-04-25T09:10:17.935Z</time></trkpt><trkpt lat="45.90445622491903" lon="8.89927251819906"><ele>271.0</ele><time>2026-04-25T09:10:18.935Z</time></trkpt><trkpt lat="45.904530790663344" lon="8.899060349198004"><ele>271.0</ele><time>2026-04-25T09:10:19.935Z</time></trkpt><trkpt lat="45.90461135960911" lon="8.898863550851082"><ele>271.0</ele><time>2026-04-25T09:10:20.935Z</time></trkpt><trkpt lat="45.90467604506111" lon="8.898652847924918"><ele>271.0</ele><time>2026-04-25T09:10:21.935Z</time></trkpt><trkpt lat="45.90476484012011" lon="8.89846712776491"><ele>271.3333333333333</ele><time>2026-04-25T09:10:22.935Z</time></trkpt><trkpt lat="45.90485641319998" lon="8.898279503088895"><ele>271.6666666666667</ele><time>2026-04-25T09:10:23.935Z</time></trkpt><trkpt lat="45.904946809108296" lon="8.898096132529515"><ele>272.0</ele><time>2026-04-25T09:10:24.935Z</time></trkpt><trkpt lat="45.905030251966345" lon="8.897931400906742"><ele>272.0</ele><time>2026-04-25T09:10:25.935Z</time></trkpt><trkpt lat="45.905111208431805" lon="8.897779381954873"><ele>272.0</ele><time>2026-04-25T09:10:26.935Z</time></trkpt><trkpt lat="45.90519385889789" lon="8.89764269818822"><ele>272.0</ele><time>2026-04-25T09:10:27.935Z</time></trkpt><trkpt lat="45.90528991711876" lon="8.897473761640644"><ele>272.0</ele><time>2026-04-25T09:10:28.935Z</time></trkpt><trkpt lat="45.90538279098206" lon="8.897252635324355"><ele>272.0</ele><time>2026-04-25T09:10:29.935Z</time></trkpt><trkpt lat="45.905502053312" lon="8.897013434899238"><ele>272.0</ele><time>2026-04-25T09:10:30.935Z</time></trkpt><trkpt lat="45.90561265851591" lon="8.896786755461996"><ele>272.0</ele><time>2026-04-25T09:10:31.935Z</time></trkpt><trkpt lat="45.90572460995597" lon="8.89660000365963"><ele>272.0</ele><time>2026-04-25T09:10:32.935Z</time></trkpt><trkpt lat="45.905830924729145" lon="8.896433971160292"><ele>272.0</ele><time>2026-04-25T09:10:33.935Z</time></trkpt><trkpt lat="45.90592295923845" lon="8.896281752677849"><ele>272.0</ele><time>2026-04-25T09:10:34.935Z</time></trkpt><trkpt lat="45.90602982468399" lon="8.896147726881912"><ele>272.0</ele><time>2026-04-25T09:10:35.935Z</time></trkpt><trkpt lat="45.90611388442152" lon="8.896012934273068"><ele>272.8</ele><time>2026-04-25T09:10:36.935Z</time></trkpt><trkpt lat="45.90618139705791" lon="8.895878241163752"><ele>273.6</ele><time>2026-04-25T09:10:37.935Z</time></trkpt><trkpt lat="45.90625809282897" lon="8.895775178891602"><ele>274.40000000000003</ele><time>2026-04-25T09:10:38.935Z</time></trkpt><trkpt lat="45.90633363053994" lon="8.895693561824084"><ele>275.2</ele><time>2026-04-25T09:10:39.935Z</time></trkpt><trkpt lat="45.90642053639721" lon="8.895633749955346"><ele>276.0</ele><time>2026-04-25T09:10:40.935Z</time></trkpt><trkpt lat="45.90650446232976" lon="8.895582476878275"><ele>276.0</ele><time>2026-04-25T09:10:41.935Z</time></trkpt><trkpt lat="45.90659255822147" lon="8.895529894158193"><ele>276.0</ele><time>2026-04-25T09:10:42.935Z</time></trkpt><trkpt lat="45.90668663672902" lon="8.89548446174643"><ele>276.0</ele><time>2026-04-25T09:10:43.935Z</time></trkpt><trkpt lat="45.9067801806165" lon="8.895450468790807"><ele>276.0</ele><time>2026-04-25T09:10:44.935Z</time></trkpt><trkpt lat="45.906874766575136" lon="8.895442597723376"><ele>276.0</ele><time>2026-04-25T09:10:45.935Z</time></trkpt><trkpt lat="45.906979589726205" lon="8.895483036472127"><ele>277.2</ele><time>2026-04-25T09:10:46.935Z</time></trkpt><trkpt lat="45.90707804282276" lon="8.895540273194891"><ele>278.40000000000003</ele><time>2026-04-25T09:10:47.935Z</time></trkpt><trkpt lat="45.90717751486831" lon="8.895587553310175"><ele>279.6</ele><time>2026-04-25T09:10:48.935Z</time></trkpt><trkpt lat="45.907279892796986" lon="8.895639806998991"><ele>280.8</ele><time>2026-04-25T09:10:49.935Z</time></trkpt><trkpt lat="45.9073943511636" lon="8.89569351756142"><ele>282.0</ele><time>2026-04-25T09:10:50.935Z</time></trkpt><trkpt lat="45.9075039209381" lon="8.895750086462005"><ele>282.5</ele><time>2026-04-25T09:10:51.935Z</time></trkpt><trkpt lat="45.90761924229281" lon="8.895814784611417"><ele>283.0</ele><time>2026-04-25T09:10:52.935Z</time></trkpt><trkpt lat="45.907731957139816" lon="8.895879746554751"><ele>283.5</ele><time>2026-04-25T09:10:53.935Z</time></trkpt><trkpt lat="45.90784169845751" lon="8.895947887960586"><ele>284.0</ele><time>2026-04-25T09:10:54.935Z</time></trkpt><trkpt lat="45.90795408697624" lon="8.896022533498915"><ele>284.0</ele><time>2026-04-25T09:10:55.935Z</time></trkpt><trkpt lat="45.90805574058738" lon="8.89611408842397"><ele>284.0</ele><time>2026-04-25T09:10:56.935Z</time></trkpt><trkpt lat="45.908154877372624" lon="8.896233630702437"><ele>284.0</ele><time>2026-04-25T09:10:57.935Z</time></trkpt><trkpt lat="45.90826058334887" lon="8.896362857002163"><ele>284.0</ele><time>2026-04-25T09:10:58.935Z</time></trkpt><trkpt lat="45.90837504770065" lon="8.896506770677247"><ele>285.0</ele><time>2026-04-25T09:10:59.935Z</time></trkpt><trkpt lat="45.908494903890045" lon="8.896647323905022"><ele>286.0</ele><time>2026-04-25T09:11:00.935Z</time></trkpt><trkpt lat="45.90861794300316" lon="8.89678777275516"><ele>287.0</ele><time>2026-04-25T09:11:01.935Z</time></trkpt><trkpt lat="45.908730317437985" lon="8.89693190694089"><ele>287.0</ele><time>2026-04-25T09:11:02.935Z</time></trkpt><trkpt lat="45.90883936356204" lon="8.89706914790969"><ele>287.0</ele><time>2026-04-25T09:11:03.935Z</time></trkpt><trkpt lat="45.90894831667887" lon="8.897219615429622"><ele>287.0</ele><time>2026-04-25T09:11:04.935Z</time></trkpt><trkpt lat="45.909052898442376" lon="8.897368211921032"><ele>287.0</ele><time>2026-04-25T09:11:05.935Z</time></trkpt><trkpt lat="45.90914839841464" lon="8.897516985262063"><ele>284.5</ele><time>2026-04-25T09:11:06.935Z</time></trkpt><trkpt lat="45.90924371643785" lon="8.897646059697784"><ele>282.0</ele><time>2026-04-25T09:11:07.935Z</time></trkpt><trkpt lat="45.90935032230887" lon="8.897734799427733"><ele>279.5</ele><time>2026-04-25T09:11:08.935Z</time></trkpt><trkpt lat="45.909474703449064" lon="8.897772842538657"><ele>277.0</ele><time>2026-04-25T09:11:09.935Z</time></trkpt><trkpt lat="45.909635708820694" lon="8.897753309388653"><ele>277.0</ele><time>2026-04-25T09:11:10.935Z</time></trkpt><trkpt lat="45.90979217219212" lon="8.89773488788325"><ele>277.0</ele><time>2026-04-25T09:11:11.935Z</time></trkpt><trkpt lat="45.90993674470096" lon="8.897770132632578"><ele>277.0</ele><time>2026-04-25T09:11:12.935Z</time></trkpt><trkpt lat="45.910093787556995" lon="8.897768098187797"><ele>276.75</ele><time>2026-04-25T09:11:13.935Z</time></trkpt><trkpt lat="45.91023639999909" lon="8.897811936353365"><ele>276.5</ele><time>2026-04-25T09:11:14.935Z</time></trkpt><trkpt lat="45.910389482066236" lon="8.897837753174386"><ele>276.25</ele><time>2026-04-25T09:11:15.935Z</time></trkpt><trkpt lat="45.91053834304192" lon="8.897841305231774"><ele>276.0</ele><time>2026-04-25T09:11:16.935Z</time></trkpt><trkpt lat="45.91069005397319" lon="8.897864900587551"><ele>276.0</ele><time>2026-04-25T09:11:17.935Z</time></trkpt><trkpt lat="45.91083884705519" lon="8.897886246928437"><ele>276.0</ele><time>2026-04-25T09:11:18.935Z</time></trkpt><trkpt lat="45.91099337295527" lon="8.897895991941244"><ele>276.0</ele><time>2026-04-25T09:11:19.935Z</time></trkpt><trkpt lat="45.91114647692617" lon="8.89791686142652"><ele>276.3333333333333</ele><time>2026-04-25T09:11:20.936Z</time></trkpt><trkpt lat="45.911298911038436" lon="8.897913318190982"><ele>276.66666666666663</ele><time>2026-04-25T09:11:21.936Z</time></trkpt><trkpt lat="45.91145077010907" lon="8.897889437800558"><ele>277.0</ele><time>2026-04-25T09:11:22.936Z</time></trkpt><trkpt lat="45.911598468218074" lon="8.897897901466196"><ele>278.0</ele><time>2026-04-25T09:11:23.936Z</time></trkpt><trkpt lat="45.91174848114936" lon="8.89786495423394"><ele>279.0</ele><time>2026-04-25T09:11:24.936Z</time></trkpt><trkpt lat="45.91190558317439" lon="8.897852815401096"><ele>280.0</ele><time>2026-04-25T09:11:25.936Z</time></trkpt><trkpt lat="45.912068576090725" lon="8.897840928890155"><ele>280.0</ele><time>2026-04-25T09:11:26.936Z</time></trkpt><trkpt lat="45.912251450114134" lon="8.89783011530504"><ele>280.0</ele><time>2026-04-25T09:11:27.936Z</time></trkpt><trkpt lat="45.912449539167135" lon="8.8978155685765"><ele>280.0</ele><time>2026-04-25T09:11:28.936Z</time></trkpt><trkpt lat="45.91262575871458" lon="8.897800981899644"><ele>281.3333333333333</ele><time>2026-04-25T09:11:29.936Z</time></trkpt><trkpt lat="45.912784842818894" lon="8.897795122412921"><ele>282.6666666666667</ele><time>2026-04-25T09:11:30.936Z</time></trkpt><trkpt lat="45.91294189340774" lon="8.897795121642558"><ele>284.0</ele><time>2026-04-25T09:11:31.936Z</time></trkpt><trkpt lat="45.91310609255674" lon="8.897807489795168"><ele>284.0</ele><time>2026-04-25T09:11:32.936Z</time></trkpt><trkpt lat="45.91326846127944" lon="8.897838938260232"><ele>284.0</ele><time>2026-04-25T09:11:33.936Z</time></trkpt><trkpt lat="45.91342811707724" lon="8.89788504672341"><ele>284.0</ele><time>2026-04-25T09:11:34.936Z</time></trkpt><trkpt lat="45.913587354954984" lon="8.89791337490096"><ele>285.6666666666667</ele><time>2026-04-25T09:11:35.936Z</time></trkpt><trkpt lat="45.91375368010633" lon="8.897939139064164"><ele>287.3333333333333</ele><time>2026-04-25T09:11:36.936Z</time></trkpt><trkpt lat="45.91391849390818" lon="8.897954363882427"><ele>289.0</ele><time>2026-04-25T09:11:37.936Z</time></trkpt><trkpt lat="45.91407945935957" lon="8.897968324241083"><ele>289.0</ele><time>2026-04-25T09:11:38.936Z</time></trkpt><trkpt lat="45.91423618008039" lon="8.89798124923748"><ele>289.0</ele><time>2026-04-25T09:11:39.936Z</time></trkpt><trkpt lat="45.914385943026254" lon="8.897990310677098"><ele>289.0</ele><time>2026-04-25T09:11:40.936Z</time></trkpt><trkpt lat="45.914528905724445" lon="8.89800412234812"><ele>290.0</ele><time>2026-04-25T09:11:41.936Z</time></trkpt><trkpt lat="45.914684686416685" lon="8.898035068251776"><ele>291.0</ele><time>2026-04-25T09:11:42.936Z</time></trkpt><trkpt lat="45.91484789234151" lon="8.89810150264615"><ele>292.0</ele><time>2026-04-25T09:11:43.933Z</time></trkpt><trkpt lat="45.91501482426253" lon="8.898197523785187"><ele>295.66666666666663</ele><time>2026-04-25T09:11:44.933Z</time></trkpt><trkpt lat="45.91516891382877" lon="8.898290337057562"><ele>299.3333333333333</ele><time>2026-04-25T09:11:45.933Z</time></trkpt><trkpt lat="45.91532268622287" lon="8.898390985928504"><ele>303.0</ele><time>2026-04-25T09:11:46.933Z</time></trkpt><trkpt lat="45.91547572640885" lon="8.898496970342022"><ele>291.6666666666667</ele><time>2026-04-25T09:11:47.933Z</time></trkpt><trkpt lat="45.91562819246872" lon="8.8986001649528"><ele>280.33333333333337</ele><time>2026-04-25T09:11:48.933Z</time></trkpt><trkpt lat="45.91577498430821" lon="8.898692271143828"><ele>269.0</ele><time>2026-04-25T09:11:49.933Z</time></trkpt><trkpt lat="45.915951648515374" lon="8.89874512564419"><ele>262.33333333333337</ele><time>2026-04-25T09:11:50.933Z</time></trkpt><trkpt lat="45.916164107290136" lon="8.89877074250256"><ele>255.66666666666669</ele><time>2026-04-25T09:11:51.933Z</time></trkpt><trkpt lat="45.91638467341392" lon="8.89879547937789"><ele>249.0</ele><time>2026-04-25T09:11:52.933Z</time></trkpt><trkpt lat="45.916613379927426" lon="8.898814190310738"><ele>249.0</ele><time>2026-04-25T09:11:53.933Z</time></trkpt><trkpt lat="45.91683406392751" lon="8.898825614934477"><ele>249.0</ele><time>2026-04-25T09:11:54.933Z</time></trkpt><trkpt lat="45.917054633625376" lon="8.898844791297963"><ele>249.0</ele><time>2026-04-25T09:11:55.933Z</time></trkpt><trkpt lat="45.917264756460334" lon="8.898865851809367"><ele>258.6666666666667</ele><time>2026-04-25T09:11:56.933Z</time></trkpt><trkpt lat="45.9174631342486" lon="8.898901955130285"><ele>268.33333333333337</ele><time>2026-04-25T09:11:57.933Z</time></trkpt><trkpt lat="45.91765363044684" lon="8.898947476276398"><ele>278.0</ele><time>2026-04-25T09:11:58.933Z</time></trkpt><trkpt lat="45.91783519364277" lon="8.898998615843226"><ele>278.0</ele><time>2026-04-25T09:11:59.933Z</time></trkpt><trkpt lat="45.9179956479662" lon="8.89903445851201"><ele>278.0</ele><time>2026-04-25T09:12:00.933Z</time></trkpt><trkpt lat="45.918140930145086" lon="8.899065411916661"><ele>278.0</ele><time>2026-04-25T09:12:01.933Z</time></trkpt><trkpt lat="45.91827740834417" lon="8.899104818579447"><ele>278.0</ele><time>2026-04-25T09:12:02.933Z</time></trkpt><trkpt lat="45.91839048997032" lon="8.89915552994803"><ele>277.25</ele><time>2026-04-25T09:12:03.933Z</time></trkpt><trkpt lat="45.91850820906608" lon="8.899157239617857"><ele>276.5</ele><time>2026-04-25T09:12:04.933Z</time></trkpt><trkpt lat="45.91861569484511" lon="8.899091309149622"><ele>275.75</ele><time>2026-04-25T09:12:05.933Z</time></trkpt><trkpt lat="45.91873005633365" lon="8.899042242368372"><ele>275.0</ele><time>2026-04-25T09:12:06.933Z</time></trkpt><trkpt lat="45.91883982684024" lon="8.898907107944137"><ele>275.0</ele><time>2026-04-25T09:12:07.933Z</time></trkpt><trkpt lat="45.91895209277508" lon="8.898724716895835"><ele>275.0</ele><time>2026-04-25T09:12:08.933Z</time></trkpt><trkpt lat="45.91904986465689" lon="8.89855695264856"><ele>275.0</ele><time>2026-04-25T09:12:09.933Z</time></trkpt><trkpt lat="45.91914102807489" lon="8.898371223624933"><ele>275.33333333333337</ele><time>2026-04-25T09:12:10.933Z</time></trkpt><trkpt lat="45.91925162532119" lon="8.898187827403444"><ele>275.6666666666667</ele><time>2026-04-25T09:12:11.933Z</time></trkpt><trkpt lat="45.91935284201539" lon="8.89801569726175"><ele>276.0</ele><time>2026-04-25T09:12:12.933Z</time></trkpt><trkpt lat="45.9194519846688" lon="8.897836805714192"><ele>276.0</ele><time>2026-04-25T09:12:13.933Z</time></trkpt><trkpt lat="45.9195475213694" lon="8.897644066477154"><ele>276.0</ele><time>2026-04-25T09:12:14.933Z</time></trkpt><trkpt lat="45.919620885833105" lon="8.897421642986615"><ele>276.0</ele><time>2026-04-25T09:12:15.933Z</time></trkpt><trkpt lat="45.91968873819273" lon="8.897177775996363"><ele>275.6666666666667</ele><time>2026-04-25T09:12:16.933Z</time></trkpt><trkpt lat="45.91970995950631" lon="8.89693526784538"><ele>275.33333333333337</ele><time>2026-04-25T09:12:17.933Z</time></trkpt><trkpt lat="45.91976931836027" lon="8.896696475685879"><ele>275.0</ele><time>2026-04-25T09:12:18.933Z</time></trkpt><trkpt lat="45.91984271472929" lon="8.896459956949787"><ele>275.33333333333337</ele><time>2026-04-25T09:12:19.933Z</time></trkpt><trkpt lat="45.91992695016358" lon="8.896239223227624"><ele>275.6666666666667</ele><time>2026-04-25T09:12:20.933Z</time></trkpt><trkpt lat="45.92002456780573" lon="8.896029281630662"><ele>276.0</ele><time>2026-04-25T09:12:21.933Z</time></trkpt><trkpt lat="45.92013675528507" lon="8.895830028212078"><ele>276.0</ele><time>2026-04-25T09:12:22.933Z</time></trkpt><trkpt lat="45.92025871494861" lon="8.895638611929474"><ele>276.0</ele><time>2026-04-25T09:12:23.933Z</time></trkpt><trkpt lat="45.92040211579302" lon="8.895446302338176"><ele>276.0</ele><time>2026-04-25T09:12:24.933Z</time></trkpt><trkpt lat="45.92055047534291" lon="8.895247093582348"><ele>276.6666666666667</ele><time>2026-04-25T09:12:25.933Z</time></trkpt><trkpt lat="45.92070287203108" lon="8.895058614365556"><ele>277.33333333333337</ele><time>2026-04-25T09:12:26.933Z</time></trkpt><trkpt lat="45.920849264761735" lon="8.89489021997005"><ele>278.0</ele><time>2026-04-25T09:12:27.933Z</time></trkpt><trkpt lat="45.92100641510599" lon="8.894721332044094"><ele>278.0</ele><time>2026-04-25T09:12:28.933Z</time></trkpt><trkpt lat="45.92116276130926" lon="8.894539762829288"><ele>278.0</ele><time>2026-04-25T09:12:29.933Z</time></trkpt><trkpt lat="45.92131783890942" lon="8.89435271134342"><ele>278.0</ele><time>2026-04-25T09:12:30.933Z</time></trkpt><trkpt lat="45.921466463723846" lon="8.89416061601108"><ele>279.0</ele><time>2026-04-25T09:12:31.933Z</time></trkpt><trkpt lat="45.92160108312976" lon="8.893969744179106"><ele>280.0</ele><time>2026-04-25T09:12:32.933Z</time></trkpt><trkpt lat="45.9217276426994" lon="8.893761580457477"><ele>281.0</ele><time>2026-04-25T09:12:33.933Z</time></trkpt><trkpt lat="45.92183367584652" lon="8.893539080954406"><ele>277.6666666666667</ele><time>2026-04-25T09:12:34.933Z</time></trkpt><trkpt lat="45.92191929915044" lon="8.893326012091597"><ele>274.3333333333333</ele><time>2026-04-25T09:12:35.933Z</time></trkpt><trkpt lat="45.92199305527129" lon="8.893098725003176"><ele>271.0</ele><time>2026-04-25T09:12:36.933Z</time></trkpt><trkpt lat="45.92205566207782" lon="8.892861893550034"><ele>271.0</ele><time>2026-04-25T09:12:37.933Z</time></trkpt><trkpt lat="45.92211241483171" lon="8.892621385061998"><ele>271.0</ele><time>2026-04-25T09:12:38.933Z</time></trkpt><trkpt lat="45.92217327809852" lon="8.892380787847536"><ele>271.0</ele><time>2026-04-25T09:12:39.933Z</time></trkpt><trkpt lat="45.922235366122266" lon="8.89214683924242"><ele>271.0</ele><time>2026-04-25T09:12:40.933Z</time></trkpt><trkpt lat="45.92230791218311" lon="8.891926313659187"><ele>271.0</ele><time>2026-04-25T09:12:41.933Z</time></trkpt><trkpt lat="45.92240141527111" lon="8.891742848440694"><ele>271.0</ele><time>2026-04-25T09:12:42.933Z</time></trkpt><trkpt lat="45.92252087772832" lon="8.891566568702004"><ele>271.25</ele><time>2026-04-25T09:12:43.933Z</time></trkpt><trkpt lat="45.92263746843029" lon="8.891429021103908"><ele>271.5</ele><time>2026-04-25T09:12:44.933Z</time></trkpt><trkpt lat="45.9227507859466" lon="8.891314055928113"><ele>271.75</ele><time>2026-04-25T09:12:45.933Z</time></trkpt><trkpt lat="45.922865415809056" lon="8.89120953430625"><ele>272.0</ele><time>2026-04-25T09:12:46.933Z</time></trkpt><trkpt lat="45.92298675524982" lon="8.891123836794154"><ele>272.0</ele><time>2026-04-25T09:12:47.933Z</time></trkpt><trkpt lat="45.92311419730504" lon="8.891018241437525"><ele>272.0</ele><time>2026-04-25T09:12:48.933Z</time></trkpt><trkpt lat="45.92325476453533" lon="8.89092196496433"><ele>272.0</ele><time>2026-04-25T09:12:49.933Z</time></trkpt><trkpt lat="45.92340881293939" lon="8.890844233825696"><ele>275.0</ele><time>2026-04-25T09:12:50.933Z</time></trkpt><trkpt lat="45.923560978191254" lon="8.890794346996719"><ele>278.0</ele><time>2026-04-25T09:12:51.933Z</time></trkpt><trkpt lat="45.92370950989969" lon="8.890758871814644"><ele>281.0</ele><time>2026-04-25T09:12:52.933Z</time></trkpt><trkpt lat="45.92386765977292" lon="8.890737582059508"><ele>281.0</ele><time>2026-04-25T09:12:53.933Z</time></trkpt><trkpt lat="45.924024940140676" lon="8.89071878824025"><ele>281.0</ele><time>2026-04-25T09:12:54.933Z</time></trkpt><trkpt lat="45.92417008464694" lon="8.890683817322861"><ele>281.0</ele><time>2026-04-25T09:12:55.933Z</time></trkpt><trkpt lat="45.924308474862485" lon="8.890625718868842"><ele>281.0</ele><time>2026-04-25T09:12:56.933Z</time></trkpt><trkpt lat="45.924429292023554" lon="8.8905670660778"><ele>278.75</ele><time>2026-04-25T09:12:57.933Z</time></trkpt><trkpt lat="45.924549096558806" lon="8.890496693210245"><ele>276.5</ele><time>2026-04-25T09:12:58.933Z</time></trkpt><trkpt lat="45.924663428325346" lon="8.890428298481181"><ele>274.25</ele><time>2026-04-25T09:12:59.933Z</time></trkpt><trkpt lat="45.924787620968665" lon="8.890355829709852"><ele>272.0</ele><time>2026-04-25T09:13:00.933Z</time></trkpt><trkpt lat="45.924912342563594" lon="8.890283641232212"><ele>272.0</ele><time>2026-04-25T09:13:01.933Z</time></trkpt><trkpt lat="45.9250465244504" lon="8.890213710094297"><ele>272.0</ele><time>2026-04-25T09:13:02.933Z</time></trkpt><trkpt lat="45.92519126725434" lon="8.89016010788145"><ele>272.0</ele><time>2026-04-25T09:13:03.933Z</time></trkpt><trkpt lat="45.92534891657365" lon="8.890110363296627"><ele>278.33333333333337</ele><time>2026-04-25T09:13:04.933Z</time></trkpt><trkpt lat="45.925518222830256" lon="8.89005560042654"><ele>284.6666666666667</ele><time>2026-04-25T09:13:05.933Z</time></trkpt><trkpt lat="45.9256923704417" lon="8.889989049527987"><ele>291.0</ele><time>2026-04-25T09:13:06.933Z</time></trkpt><trkpt lat="45.92586678355623" lon="8.88990753319965"><ele>286.3333333333333</ele><time>2026-04-25T09:13:07.933Z</time></trkpt><trkpt lat="45.92603303651836" lon="8.88982195547539"><ele>281.66666666666663</ele><time>2026-04-25T09:13:08.933Z</time></trkpt><trkpt lat="45.926183670976975" lon="8.889744150761251"><ele>277.0</ele><time>2026-04-25T09:13:09.933Z</time></trkpt><trkpt lat="45.926321058314066" lon="8.88966888738038"><ele>277.0</ele><time>2026-04-25T09:13:10.933Z</time></trkpt><trkpt lat="45.92644803415289" lon="8.889587228679654"><ele>277.0</ele><time>2026-04-25T09:13:11.933Z</time></trkpt><trkpt lat="45.926579297370445" lon="8.88952007310932"><ele>277.0</ele><time>2026-04-25T09:13:12.933Z</time></trkpt><trkpt lat="45.92672915567165" lon="8.8894865969331"><ele>277.0</ele><time>2026-04-25T09:13:13.933Z</time></trkpt><trkpt lat="45.926897085727745" lon="8.889487319531659"><ele>275.3333333333333</ele><time>2026-04-25T09:13:14.933Z</time></trkpt><trkpt lat="45.92705388490797" lon="8.889493364631408"><ele>273.6666666666667</ele><time>2026-04-25T09:13:15.933Z</time></trkpt><trkpt lat="45.927204381592404" lon="8.88949605457936"><ele>272.0</ele><time>2026-04-25T09:13:16.933Z</time></trkpt><trkpt lat="45.927360103481526" lon="8.889495332734015"><ele>272.0</ele><time>2026-04-25T09:13:17.933Z</time></trkpt><trkpt lat="45.9275159203928" lon="8.889478769576138"><ele>272.0</ele><time>2026-04-25T09:13:18.933Z</time></trkpt><trkpt lat="45.92766835581204" lon="8.889453771252208"><ele>272.0</ele><time>2026-04-25T09:13:19.933Z</time></trkpt><trkpt lat="45.927817706610355" lon="8.889437834028628"><ele>271.75</ele><time>2026-04-25T09:13:20.933Z</time></trkpt><trkpt lat="45.92795597306544" lon="8.889421233353017"><ele>271.5</ele><time>2026-04-25T09:13:21.933Z</time></trkpt><trkpt lat="45.928084291205714" lon="8.889408765790337"><ele>271.25</ele><time>2026-04-25T09:13:22.933Z</time></trkpt><trkpt lat="45.92820220668229" lon="8.889394129178365"><ele>271.0</ele><time>2026-04-25T09:13:23.933Z</time></trkpt><trkpt lat="45.92831569817609" lon="8.889378927765344"><ele>271.5</ele><time>2026-04-25T09:13:24.933Z</time></trkpt><trkpt lat="45.92843226097698" lon="8.88936482619421"><ele>272.0</ele><time>2026-04-25T09:13:25.933Z</time></trkpt><trkpt lat="45.928560757527435" lon="8.889355001883123"><ele>272.5</ele><time>2026-04-25T09:13:26.933Z</time></trkpt><trkpt lat="45.92869914874652" lon="8.889350114813887"><ele>273.0</ele><time>2026-04-25T09:13:27.933Z</time></trkpt><trkpt lat="45.92884199984212" lon="8.889336515125326"><ele>273.0</ele><time>2026-04-25T09:13:28.933Z</time></trkpt><trkpt lat="45.928984843020686" lon="8.889307934465888"><ele>273.0</ele><time>2026-04-25T09:13:29.933Z</time></trkpt><trkpt lat="45.929128510075394" lon="8.889260184582593"><ele>273.0</ele><time>2026-04-25T09:13:30.933Z</time></trkpt><trkpt lat="45.929268717980015" lon="8.889183518886556"><ele>273.0</ele><time>2026-04-25T09:13:31.933Z</time></trkpt><trkpt lat="45.92940648088841" lon="8.889074464587228"><ele>273.6666666666667</ele><time>2026-04-25T09:13:32.933Z</time></trkpt><trkpt lat="45.92954014037271" lon="8.888930416981607"><ele>274.33333333333337</ele><time>2026-04-25T09:13:33.933Z</time></trkpt><trkpt lat="45.929658004035346" lon="8.888767318356804"><ele>275.0</ele><time>2026-04-25T09:13:34.933Z</time></trkpt><trkpt lat="45.92977057526829" lon="8.888621206902311"><ele>275.0</ele><time>2026-04-25T09:13:35.933Z</time></trkpt><trkpt lat="45.92988758656065" lon="8.88851334094107"><ele>275.0</ele><time>2026-04-25T09:13:36.933Z</time></trkpt><trkpt lat="45.930006851667805" lon="8.888428624398173"><ele>275.0</ele><time>2026-04-25T09:13:37.933Z</time></trkpt><trkpt lat="45.930124684599924" lon="8.888376492509304"><ele>275.0</ele><time>2026-04-25T09:13:38.933Z</time></trkpt><trkpt lat="45.93024866812299" lon="8.888358130999185"><ele>276.25</ele><time>2026-04-25T09:13:39.933Z</time></trkpt><trkpt lat="45.930372482226694" lon="8.888351723976289"><ele>277.5</ele><time>2026-04-25T09:13:40.933Z</time></trkpt><trkpt lat="45.93050145824604" lon="8.88832970408353"><ele>278.75</ele><time>2026-04-25T09:13:41.933Z</time></trkpt><trkpt lat="45.93064306221956" lon="8.888292815438675"><ele>280.0</ele><time>2026-04-25T09:13:42.933Z</time></trkpt><trkpt lat="45.93078241823857" lon="8.88823835193751"><ele>279.5</ele><time>2026-04-25T09:13:43.933Z</time></trkpt><trkpt lat="45.9309098488152" lon="8.888191691394105"><ele>279.0</ele><time>2026-04-25T09:13:44.933Z</time></trkpt><trkpt lat="45.93103775881864" lon="8.888143725610046"><ele>278.5</ele><time>2026-04-25T09:13:45.933Z</time></trkpt><trkpt lat="45.931171840684584" lon="8.88809838955566"><ele>278.0</ele><time>2026-04-25T09:13:46.933Z</time></trkpt><trkpt lat="45.93129698211646" lon="8.888058728943028"><ele>278.0</ele><time>2026-04-25T09:13:47.933Z</time></trkpt><trkpt lat="45.93142533917056" lon="8.888018599714625"><ele>278.0</ele><time>2026-04-25T09:13:48.933Z</time></trkpt><trkpt lat="45.93155952181746" lon="8.88798468672462"><ele>278.0</ele><time>2026-04-25T09:13:49.931Z</time></trkpt><trkpt lat="45.9316964609712" lon="8.887964344308804"><ele>278.0</ele><time>2026-04-25T09:13:50.932Z</time></trkpt><trkpt lat="45.93183333749121" lon="8.887961595066615"><ele>278.75</ele><time>2026-04-25T09:13:51.932Z</time></trkpt><trkpt lat="45.93196452343981" lon="8.887953959460328"><ele>279.5</ele><time>2026-04-25T09:13:52.931Z</time></trkpt><trkpt lat="45.932101125598045" lon="8.887959334316653"><ele>280.25</ele><time>2026-04-25T09:13:53.931Z</time></trkpt><trkpt lat="45.93223182554458" lon="8.887967508815525"><ele>281.0</ele><time>2026-04-25T09:13:54.931Z</time></trkpt><trkpt lat="45.932358827376824" lon="8.887972749808617"><ele>281.0</ele><time>2026-04-25T09:13:55.931Z</time></trkpt><trkpt lat="45.93248451377961" lon="8.887956804339225"><ele>281.0</ele><time>2026-04-25T09:13:56.931Z</time></trkpt><trkpt lat="45.9326135831976" lon="8.887932818280202"><ele>281.0</ele><time>2026-04-25T09:13:57.931Z</time></trkpt><trkpt lat="45.93274369227049" lon="8.887901599758335"><ele>281.0</ele><time>2026-04-25T09:13:58.931Z</time></trkpt><trkpt lat="45.93287909219617" lon="8.88787037283763"><ele>279.25</ele><time>2026-04-25T09:13:59.931Z</time></trkpt><trkpt lat="45.93302633522326" lon="8.887843458156313"><ele>277.5</ele><time>2026-04-25T09:14:00.931Z</time></trkpt><trkpt lat="45.93317247723958" lon="8.887806583500906"><ele>275.75</ele><time>2026-04-25T09:14:01.931Z</time></trkpt><trkpt lat="45.933320627072874" lon="8.88779774408433"><ele>274.0</ele><time>2026-04-25T09:14:02.931Z</time></trkpt><trkpt lat="45.93346393024727" lon="8.887752347950682"><ele>273.5</ele><time>2026-04-25T09:14:03.931Z</time></trkpt><trkpt lat="45.93360749650858" lon="8.887722460404754"><ele>273.0</ele><time>2026-04-25T09:14:04.931Z</time></trkpt><trkpt lat="45.9337520159546" lon="8.887708799401192"><ele>272.5</ele><time>2026-04-25T09:14:05.931Z</time></trkpt><trkpt lat="45.93390752856464" lon="8.887697689367457"><ele>272.0</ele><time>2026-04-25T09:14:06.931Z</time></trkpt><trkpt lat="45.934065527658525" lon="8.887684472768715"><ele>272.6666666666667</ele><time>2026-04-25T09:14:07.931Z</time></trkpt><trkpt lat="45.93422277347514" lon="8.88767840596048"><ele>273.3333333333333</ele><time>2026-04-25T09:14:08.931Z</time></trkpt><trkpt lat="45.93438023029353" lon="8.887684993790206"><ele>274.0</ele><time>2026-04-25T09:14:09.931Z</time></trkpt><trkpt lat="45.93454142755376" lon="8.887694242659204"><ele>274.0</ele><time>2026-04-25T09:14:10.931Z</time></trkpt><trkpt lat="45.93470420654272" lon="8.887704010373248"><ele>274.0</ele><time>2026-04-25T09:14:11.931Z</time></trkpt><trkpt lat="45.93486502610089" lon="8.887717411140867"><ele>274.0</ele><time>2026-04-25T09:14:12.931Z</time></trkpt><trkpt lat="45.93503046395182" lon="8.88773472991912"><ele>273.3333333333333</ele><time>2026-04-25T09:14:13.931Z</time></trkpt><trkpt lat="45.93519958104204" lon="8.887748075720806"><ele>272.6666666666667</ele><time>2026-04-25T09:14:14.931Z</time></trkpt><trkpt lat="45.93536728446879" lon="8.887758853405144"><ele>272.0</ele><time>2026-04-25T09:14:15.931Z</time></trkpt><trkpt lat="45.93553388066733" lon="8.887773562364316"><ele>272.0</ele><time>2026-04-25T09:14:16.931Z</time></trkpt><trkpt lat="45.93570265535023" lon="8.887789165560783"><ele>272.0</ele><time>2026-04-25T09:14:17.931Z</time></trkpt><trkpt lat="45.93587127859915" lon="8.887802891783736"><ele>272.0</ele><time>2026-04-25T09:14:18.931Z</time></trkpt><trkpt lat="45.93603461545094" lon="8.887818733757507"><ele>273.0</ele><time>2026-04-25T09:14:19.931Z</time></trkpt><trkpt lat="45.93619676534464" lon="8.887835578107616"><ele>274.0</ele><time>2026-04-25T09:14:20.931Z</time></trkpt><trkpt lat="45.936357557190746" lon="8.88785927182508"><ele>275.0</ele><time>2026-04-25T09:14:21.931Z</time></trkpt><trkpt lat="45.93650994079929" lon="8.887883909316313"><ele>275.0</ele><time>2026-04-25T09:14:22.931Z</time></trkpt><trkpt lat="45.93665827447387" lon="8.887928688266111"><ele>275.0</ele><time>2026-04-25T09:14:23.93Z</time></trkpt><trkpt lat="45.936802963361494" lon="8.887993633962536"><ele>275.0</ele><time>2026-04-25T09:14:24.929Z</time></trkpt><trkpt lat="45.936953419536366" lon="8.888068304444833"><ele>277.6666666666667</ele><time>2026-04-25T09:14:25.927Z</time></trkpt><trkpt lat="45.93710195353827" lon="8.88813266810482"><ele>280.3333333333333</ele><time>2026-04-25T09:14:26.926Z</time></trkpt><trkpt lat="45.93725220664792" lon="8.888191108437082"><ele>283.0</ele><time>2026-04-25T09:14:27.925Z</time></trkpt><trkpt lat="45.937398587019274" lon="8.888251042089987"><ele>283.0</ele><time>2026-04-25T09:14:28.925Z</time></trkpt><trkpt lat="45.93754367361663" lon="8.888288309929203"><ele>283.0</ele><time>2026-04-25T09:14:29.924Z</time></trkpt><trkpt lat="45.93769598467282" lon="8.888312820739596"><ele>283.0</ele><time>2026-04-25T09:14:30.923Z</time></trkpt><trkpt lat="45.93785870489701" lon="8.888338084685403"><ele>286.66666666666663</ele><time>2026-04-25T09:14:31.922Z</time></trkpt><trkpt lat="45.93801216633701" lon="8.888369557955844"><ele>290.3333333333333</ele><time>2026-04-25T09:14:32.921Z</time></trkpt><trkpt lat="45.938166081603555" lon="8.888402629247834"><ele>294.0</ele><time>2026-04-25T09:14:33.921Z</time></trkpt><trkpt lat="45.93831749830509" lon="8.888445171083491"><ele>292.0</ele><time>2026-04-25T09:14:34.92Z</time></trkpt><trkpt lat="45.93846390283516" lon="8.888499150149357"><ele>290.0</ele><time>2026-04-25T09:14:35.92Z</time></trkpt><trkpt lat="45.93860151644158" lon="8.888567629404141"><ele>288.0</ele><time>2026-04-25T09:14:36.919Z</time></trkpt><trkpt lat="45.938742711359176" lon="8.88865058128323"><ele>286.0</ele><time>2026-04-25T09:14:37.918Z</time></trkpt><trkpt lat="45.93889069011143" lon="8.888743510778419"><ele>286.0</ele><time>2026-04-25T09:14:38.918Z</time></trkpt><trkpt lat="45.939043035333235" lon="8.888834062975564"><ele>286.0</ele><time>2026-04-25T09:14:39.918Z</time></trkpt><trkpt lat="45.93920040246483" lon="8.888931345869295"><ele>286.0</ele><time>2026-04-25T09:14:40.917Z</time></trkpt><trkpt lat="45.939353535802816" lon="8.889037657636983"><ele>282.0</ele><time>2026-04-25T09:14:41.917Z</time></trkpt><trkpt lat="45.93949348242793" lon="8.88914106291696"><ele>278.0</ele><time>2026-04-25T09:14:42.916Z</time></trkpt><trkpt lat="45.93962199338689" lon="8.889247840985796"><ele>274.0</ele><time>2026-04-25T09:14:43.916Z</time></trkpt><trkpt lat="45.93974919427079" lon="8.889355815543786"><ele>274.0</ele><time>2026-04-25T09:14:44.916Z</time></trkpt><trkpt lat="45.93988421082568" lon="8.889462695813588"><ele>274.0</ele><time>2026-04-25T09:14:45.915Z</time></trkpt><trkpt lat="45.940020000543555" lon="8.889559383316985"><ele>274.0</ele><time>2026-04-25T09:14:46.915Z</time></trkpt><trkpt lat="45.94015754214689" lon="8.889653105445266"><ele>276.5</ele><time>2026-04-25T09:14:47.915Z</time></trkpt><trkpt lat="45.94029014442475" lon="8.889738326130097"><ele>279.0</ele><time>2026-04-25T09:14:48.915Z</time></trkpt><trkpt lat="45.94042861415582" lon="8.889806696266742"><ele>281.5</ele><time>2026-04-25T09:14:49.914Z</time></trkpt><trkpt lat="45.94057102565211" lon="8.88985226249099"><ele>284.0</ele><time>2026-04-25T09:14:50.914Z</time></trkpt><trkpt lat="45.94072352401283" lon="8.889861554112594"><ele>284.0</ele><time>2026-04-25T09:14:51.914Z</time></trkpt><trkpt lat="45.94087741732766" lon="8.889845223377154"><ele>284.0</ele><time>2026-04-25T09:14:52.914Z</time></trkpt><trkpt lat="45.941033846038984" lon="8.88983052778513"><ele>284.0</ele><time>2026-04-25T09:14:53.914Z</time></trkpt><trkpt lat="45.941183370725064" lon="8.889831157381186"><ele>284.0</ele><time>2026-04-25T09:14:54.913Z</time></trkpt><trkpt lat="45.941320685053306" lon="8.88986051265022"><ele>284.0</ele><time>2026-04-25T09:14:55.913Z</time></trkpt><trkpt lat="45.941456379169516" lon="8.889901549025929"><ele>284.0</ele><time>2026-04-25T09:14:56.913Z</time></trkpt><trkpt lat="45.941586530599615" lon="8.88993339838836"><ele>284.0</ele><time>2026-04-25T09:14:57.913Z</time></trkpt><trkpt lat="45.94171221948806" lon="8.889962808010198"><ele>284.5</ele><time>2026-04-25T09:14:58.913Z</time></trkpt><trkpt lat="45.94183293806584" lon="8.890018207079022"><ele>285.0</ele><time>2026-04-25T09:14:59.913Z</time></trkpt><trkpt lat="45.94194550085102" lon="8.890098829675303"><ele>285.5</ele><time>2026-04-25T09:15:00.913Z</time></trkpt><trkpt lat="45.94204696863724" lon="8.890213224887882"><ele>286.0</ele><time>2026-04-25T09:15:01.912Z</time></trkpt><trkpt lat="45.94214045520759" lon="8.890345149094381"><ele>284.0</ele><time>2026-04-25T09:15:02.912Z</time></trkpt><trkpt lat="45.94222698699408" lon="8.890498630806114"><ele>282.0</ele><time>2026-04-25T09:15:03.912Z</time></trkpt><trkpt lat="45.9423143693053" lon="8.89067032242272"><ele>280.0</ele><time>2026-04-25T09:15:04.912Z</time></trkpt><trkpt lat="45.942399098002994" lon="8.890847655218828"><ele>278.0</ele><time>2026-04-25T09:15:05.912Z</time></trkpt><trkpt lat="45.942483611691586" lon="8.891024391095181"><ele>278.5</ele><time>2026-04-25T09:15:06.912Z</time></trkpt><trkpt lat="45.94256504034641" lon="8.891185417839813"><ele>279.0</ele><time>2026-04-25T09:15:07.912Z</time></trkpt><trkpt lat="45.942663417709824" lon="8.891327078656866"><ele>279.5</ele><time>2026-04-25T09:15:08.912Z</time></trkpt><trkpt lat="45.94277712230986" lon="8.891462511696881"><ele>280.0</ele><time>2026-04-25T09:15:09.912Z</time></trkpt><trkpt lat="45.94289174726712" lon="8.89158471055586"><ele>280.0</ele><time>2026-04-25T09:15:10.912Z</time></trkpt><trkpt lat="45.94300694791741" lon="8.891693789405656"><ele>280.0</ele><time>2026-04-25T09:15:11.912Z</time></trkpt><trkpt lat="45.943120847069984" lon="8.89178926727844"><ele>280.0</ele><time>2026-04-25T09:15:12.912Z</time></trkpt><trkpt lat="45.94323300818756" lon="8.891877321648094"><ele>280.0</ele><time>2026-04-25T09:15:13.912Z</time></trkpt><trkpt lat="45.9433355750545" lon="8.891973269531675"><ele>280.5</ele><time>2026-04-25T09:15:14.911Z</time></trkpt><trkpt lat="45.9434400636817" lon="8.892081807720862"><ele>281.0</ele><time>2026-04-25T09:15:15.911Z</time></trkpt><trkpt lat="45.943542205908194" lon="8.892176615072174"><ele>281.5</ele><time>2026-04-25T09:15:16.911Z</time></trkpt><trkpt lat="45.943642842207964" lon="8.89225336458448"><ele>282.0</ele><time>2026-04-25T09:15:17.911Z</time></trkpt><trkpt lat="45.943757227525744" lon="8.892330173486059"><ele>282.0</ele><time>2026-04-25T09:15:18.911Z</time></trkpt><trkpt lat="45.94388048678853" lon="8.892414942284015"><ele>282.0</ele><time>2026-04-25T09:15:19.911Z</time></trkpt><trkpt lat="45.94400715099207" lon="8.892487862917362"><ele>282.0</ele><time>2026-04-25T09:15:20.911Z</time></trkpt><trkpt lat="45.94412807330151" lon="8.892544381263917"><ele>282.0</ele><time>2026-04-25T09:15:21.911Z</time></trkpt><trkpt lat="45.94424737211361" lon="8.892584001604764"><ele>281.0</ele><time>2026-04-25T09:15:22.911Z</time></trkpt><trkpt lat="45.94435850337448" lon="8.892617032839139"><ele>280.0</ele><time>2026-04-25T09:15:23.911Z</time></trkpt><trkpt lat="45.94446378463331" lon="8.892647472203356"><ele>279.0</ele><time>2026-04-25T09:15:24.911Z</time></trkpt><trkpt lat="45.94456588761937" lon="8.892672882994676"><ele>278.0</ele><time>2026-04-25T09:15:25.911Z</time></trkpt><trkpt lat="45.944677287105264" lon="8.892695226946842"><ele>277.0</ele><time>2026-04-25T09:15:26.911Z</time></trkpt><trkpt lat="45.944794679728254" lon="8.892726077377315"><ele>277.0</ele><time>2026-04-25T09:15:27.911Z</time></trkpt><trkpt lat="45.944917751015645" lon="8.892751706945043"><ele>277.0</ele><time>2026-04-25T09:15:28.911Z</time></trkpt><trkpt lat="45.94503084992345" lon="8.892762616055414"><ele>277.0</ele><time>2026-04-25T09:15:29.911Z</time></trkpt><trkpt lat="45.94513916406514" lon="8.892747141998697"><ele>277.0</ele><time>2026-04-25T09:15:30.911Z</time></trkpt><trkpt lat="45.945259992589314" lon="8.892707589739839"><ele>277.5</ele><time>2026-04-25T09:15:31.911Z</time></trkpt><trkpt lat="45.945381309082315" lon="8.892639748632558"><ele>278.0</ele><time>2026-04-25T09:15:32.911Z</time></trkpt><trkpt lat="45.94550728799375" lon="8.892546628459968"><ele>278.5</ele><time>2026-04-25T09:15:33.911Z</time></trkpt><trkpt lat="45.9456291934918" lon="8.89244552093664"><ele>279.0</ele><time>2026-04-25T09:15:34.911Z</time></trkpt><trkpt lat="45.9457393320653" lon="8.89235930395156"><ele>279.0</ele><time>2026-04-25T09:15:35.911Z</time></trkpt><trkpt lat="45.945838989697194" lon="8.892270147750152"><ele>279.0</ele><time>2026-04-25T09:15:36.911Z</time></trkpt><trkpt lat="45.94594614684633" lon="8.89219614886896"><ele>279.0</ele><time>2026-04-25T09:15:37.911Z</time></trkpt><trkpt lat="45.946052936309194" lon="8.89210393352488"><ele>279.0</ele><time>2026-04-25T09:15:38.911Z</time></trkpt><trkpt lat="45.946149006528294" lon="8.892013728637084"><ele>279.0</ele><time>2026-04-25T09:15:39.911Z</time></trkpt><trkpt lat="45.94623106437142" lon="8.891911113315796"><ele>279.0</ele><time>2026-04-25T09:15:40.911Z</time></trkpt><trkpt lat="45.94633538535659" lon="8.891837426480647"><ele>279.0</ele><time>2026-04-25T09:15:41.911Z</time></trkpt><trkpt lat="45.94644131994951" lon="8.891750127070404"><ele>279.0</ele><time>2026-04-25T09:15:42.911Z</time></trkpt><trkpt lat="45.946547238900976" lon="8.891663300636823"><ele>279.0</ele><time>2026-04-25T09:15:43.911Z</time></trkpt><trkpt lat="45.94664691255273" lon="8.891580105698571"><ele>279.0</ele><time>2026-04-25T09:15:44.911Z</time></trkpt><trkpt lat="45.946741477695724" lon="8.89150575480151"><ele>279.0</ele><time>2026-04-25T09:15:45.911Z</time></trkpt><trkpt lat="45.94683329969553" lon="8.891430026546761"><ele>279.0</ele><time>2026-04-25T09:15:46.911Z</time></trkpt><trkpt lat="45.94691238441426" lon="8.891364569504391"><ele>279.0</ele><time>2026-04-25T09:15:47.911Z</time></trkpt><trkpt lat="45.94699803545907" lon="8.891321685404675"><ele>278.99999999999994</ele><time>2026-04-25T09:15:48.911Z</time></trkpt><trkpt lat="45.947066675143745" lon="8.89126261435238"><ele>279.0</ele><time>2026-04-25T09:15:49.911Z</time></trkpt><trkpt lat="45.947129858340354" lon="8.891207892185236"><ele>279.0</ele><time>2026-04-25T09:15:50.911Z</time></trkpt><trkpt lat="45.94718810204231" lon="8.891153001038722"><ele>279.0</ele><time>2026-04-25T09:15:51.911Z</time></trkpt><trkpt lat="45.94724555098132" lon="8.89109923678273"><ele>279.0</ele><time>2026-04-25T09:15:52.911Z</time></trkpt><trkpt lat="45.9473099126897" lon="8.89104898312842"><ele>278.99999999999994</ele><time>2026-04-25T09:15:53.911Z</time></trkpt><trkpt lat="45.94738091129112" lon="8.890991619154121"><ele>279.0</ele><time>2026-04-25T09:15:54.911Z</time></trkpt><trkpt lat="45.94745320442172" lon="8.890941325552243"><ele>278.8333333333333</ele><time>2026-04-25T09:15:55.909Z</time></trkpt><trkpt lat="45.94752110027363" lon="8.89088803587458"><ele>278.6666666666667</ele><time>2026-04-25T09:15:56.909Z</time></trkpt><trkpt lat="45.94758465942164" lon="8.890839175050338"><ele>278.5</ele><time>2026-04-25T09:15:57.909Z</time></trkpt><trkpt lat="45.947646179777344" lon="8.890796301489319"><ele>278.33333333333337</ele><time>2026-04-25T09:15:58.909Z</time></trkpt><trkpt lat="45.94770724859123" lon="8.890751662819012"><ele>278.1666666666667</ele><time>2026-04-25T09:15:59.909Z</time></trkpt><trkpt lat="45.94776674649809" lon="8.890707549901629"><ele>278.0</ele><time>2026-04-25T09:16:00.909Z</time></trkpt><trkpt lat="45.94786411492104" lon="8.89064935314129"><ele>277.33333333333337</ele><time>2026-04-25T09:16:02.909Z</time></trkpt><trkpt lat="45.94793183967867" lon="8.890611433955314"><ele>276.6666666666667</ele><time>2026-04-25T09:19:23.906Z</time></trkpt><trkpt lat="45.948021790952055" lon="8.890488450584803"><ele>276.0</ele><time>2026-04-25T09:19:25.906Z</time></trkpt><trkpt lat="45.94808126681763" lon="8.89041298020062"><ele>275.3333333333333</ele><time>2026-04-25T09:19:26.906Z</time></trkpt><trkpt lat="45.94814012750413" lon="8.890350347720096"><ele>274.66666666666663</ele><time>2026-04-25T09:19:27.906Z</time></trkpt><trkpt lat="45.948204204612104" lon="8.890283712552066"><ele>274.0</ele><time>2026-04-25T09:19:28.906Z</time></trkpt><trkpt lat="45.94826756504376" lon="8.890216243785343"><ele>274.0</ele><time>2026-04-25T09:19:29.906Z</time></trkpt><trkpt lat="45.948332377935955" lon="8.890141279836039"><ele>274.0</ele><time>2026-04-25T09:19:30.906Z</time></trkpt><trkpt lat="45.94840429132111" lon="8.890074333767167"><ele>274.0</ele><time>2026-04-25T09:19:31.906Z</time></trkpt><trkpt lat="45.94847254469738" lon="8.890003676181117"><ele>274.0</ele><time>2026-04-25T09:19:32.906Z</time></trkpt><trkpt lat="45.948534336633195" lon="8.889942634395961"><ele>274.0</ele><time>2026-04-25T09:19:33.906Z</time></trkpt><trkpt lat="45.948600827482124" lon="8.889883431526076"><ele>274.0</ele><time>2026-04-25T09:19:34.906Z</time></trkpt><trkpt lat="45.94866809710684" lon="8.88982071182559"><ele>274.4</ele><time>2026-04-25T09:19:35.906Z</time></trkpt><trkpt lat="45.94874758336423" lon="8.889748983460322"><ele>274.79999999999995</ele><time>2026-04-25T09:19:36.906Z</time></trkpt><trkpt lat="45.94883367095787" lon="8.889687731195032"><ele>275.20000000000005</ele><time>2026-04-25T09:19:37.906Z</time></trkpt><trkpt lat="45.94892903891867" lon="8.889620410686486"><ele>275.6</ele><time>2026-04-25T09:19:38.906Z</time></trkpt><trkpt lat="45.94902727669055" lon="8.889553014534673"><ele>276.0</ele><time>2026-04-25T09:19:39.906Z</time></trkpt><trkpt lat="45.94912456437012" lon="8.88948547885227"><ele>276.8</ele><time>2026-04-25T09:19:40.906Z</time></trkpt><trkpt lat="45.94922153637393" lon="8.889420248270593"><ele>277.6</ele><time>2026-04-25T09:19:41.906Z</time></trkpt><trkpt lat="45.94930156426007" lon="8.88938608107017"><ele>278.4</ele><time>2026-04-25T09:19:42.906Z</time></trkpt><trkpt lat="45.94935826728403" lon="8.889302301935968"><ele>279.2</ele><time>2026-04-25T09:19:44.906Z</time></trkpt><trkpt lat="45.949320942148134" lon="8.889138214305824"><ele>280.0</ele><time>2026-04-25T09:19:46.906Z</time></trkpt><trkpt lat="45.94932935729722" lon="8.889040025740023"><ele>280.4</ele><time>2026-04-25T09:19:47.906Z</time></trkpt><trkpt lat="45.94927715677942" lon="8.888841137275143"><ele>280.8</ele><time>2026-04-25T09:19:49.906Z</time></trkpt><trkpt lat="45.949206218952135" lon="8.888761568708842"><ele>281.2</ele><time>2026-04-25T09:19:50.906Z</time></trkpt><trkpt lat="45.94912087775123" lon="8.888683487419895"><ele>281.6</ele><time>2026-04-25T09:19:51.906Z</time></trkpt><trkpt lat="45.949033773148535" lon="8.888604222968173"><ele>282.0</ele><time>2026-04-25T09:19:52.906Z</time></trkpt><trkpt lat="45.94894537096394" lon="8.888524131002972"><ele>282.0</ele><time>2026-04-25T09:19:53.906Z</time></trkpt><trkpt lat="45.948841777309106" lon="8.888430283464201"><ele>282.0</ele><time>2026-04-25T09:19:54.906Z</time></trkpt><trkpt lat="45.94872612236557" lon="8.888349982563781"><ele>282.0</ele><time>2026-04-25T09:19:55.906Z</time></trkpt><trkpt lat="45.948614109346714" lon="8.88824568930359"><ele>282.0</ele><time>2026-04-25T09:19:56.906Z</time></trkpt><trkpt lat="45.948506722854674" lon="8.888155801583466"><ele>283.2</ele><time>2026-04-25T09:19:57.906Z</time></trkpt><trkpt lat="45.94841863581245" lon="8.888065770715546"><ele>284.4</ele><time>2026-04-25T09:19:58.906Z</time></trkpt><trkpt lat="45.94833295631369" lon="8.888024095583605"><ele>285.6</ele><time>2026-04-25T09:19:59.906Z</time></trkpt><trkpt lat="45.94825889394936" lon="8.888003877449394"><ele>286.8</ele><time>2026-04-25T09:20:00.906Z</time></trkpt><trkpt lat="45.948195976874096" lon="8.88789558706266"><ele>288.0</ele><time>2026-04-25T09:20:02.906Z</time></trkpt><trkpt lat="45.9482613828664" lon="8.887771639227598"><ele>288.0</ele><time>2026-04-25T09:20:04.906Z</time></trkpt><trkpt lat="45.94834029459852" lon="8.887764693752752"><ele>288.0</ele><time>2026-04-25T09:20:05.906Z</time></trkpt><trkpt lat="45.948439073727336" lon="8.887798573176728"><ele>288.0</ele><time>2026-04-25T09:20:06.906Z</time></trkpt><trkpt lat="45.948544148866134" lon="8.887849662889849"><ele>288.0</ele><time>2026-04-25T09:20:07.904Z</time></trkpt><trkpt lat="45.948642665979676" lon="8.887922891078244"><ele>288.0</ele><time>2026-04-25T09:20:08.904Z</time></trkpt><trkpt lat="45.948748579572" lon="8.888003827091458"><ele>290.0</ele><time>2026-04-25T09:20:09.904Z</time></trkpt><trkpt lat="45.948843391746884" lon="8.88810220150325"><ele>292.0</ele><time>2026-04-25T09:20:10.904Z</time></trkpt><trkpt lat="45.94892671187438" lon="8.888208950904694"><ele>294.0</ele><time>2026-04-25T09:20:11.904Z</time></trkpt><trkpt lat="45.94901071428959" lon="8.888314903444087"><ele>296.0</ele><time>2026-04-25T09:20:12.904Z</time></trkpt><trkpt lat="45.949102774739586" lon="8.88839746960026"><ele>298.0</ele><time>2026-04-25T09:20:13.904Z</time></trkpt><trkpt lat="45.949224488602816" lon="8.888457468429571"><ele>298.0</ele><time>2026-04-25T09:20:14.904Z</time></trkpt><trkpt lat="45.94937453619612" lon="8.88852472482069"><ele>298.0</ele><time>2026-04-25T09:20:15.904Z</time></trkpt><trkpt lat="45.94951325823313" lon="8.888585374991667"><ele>298.0</ele><time>2026-04-25T09:20:16.904Z</time></trkpt><trkpt lat="45.94965241148705" lon="8.888645881879146"><ele>298.0</ele><time>2026-04-25T09:20:17.903Z</time></trkpt><trkpt lat="45.94979290750028" lon="8.888705172657259"><ele>298.0</ele><time>2026-04-25T09:20:18.903Z</time></trkpt><trkpt lat="45.949937013532306" lon="8.888775593208194"><ele>298.0</ele><time>2026-04-25T09:20:19.904Z</time></trkpt><trkpt lat="45.95007472238853" lon="8.888857724194317"><ele>298.0</ele><time>2026-04-25T09:20:20.904Z</time></trkpt><trkpt lat="45.95020933543443" lon="8.888950127205774"><ele>304.0</ele><time>2026-04-25T09:20:21.904Z</time></trkpt><trkpt lat="45.950358726573846" lon="8.889035668645782"><ele>310.0</ele><time>2026-04-25T09:20:22.904Z</time></trkpt><trkpt lat="45.95051257634022" lon="8.8891340043962"><ele>316.0</ele><time>2026-04-25T09:20:23.904Z</time></trkpt><trkpt lat="45.95068091342522" lon="8.889194841573262"><ele>316.0</ele><time>2026-04-25T09:20:24.904Z</time></trkpt><trkpt lat="45.950855277662896" lon="8.889255876194381"><ele>316.0</ele><time>2026-04-25T09:20:25.904Z</time></trkpt><trkpt lat="45.95102917136308" lon="8.88931475202005"><ele>316.0</ele><time>2026-04-25T09:20:26.904Z</time></trkpt><trkpt lat="45.95119999299029" lon="8.889377725978472"><ele>313.66666666666663</ele><time>2026-04-25T09:20:27.904Z</time></trkpt><trkpt lat="45.95136135271874" lon="8.889440425496167"><ele>311.3333333333333</ele><time>2026-04-25T09:20:28.904Z</time></trkpt><trkpt lat="45.95152320842115" lon="8.889514489677634"><ele>309.0</ele><time>2026-04-25T09:20:29.904Z</time></trkpt><trkpt lat="45.95166989565633" lon="8.88958093361875"><ele>310.25</ele><time>2026-04-25T09:20:30.904Z</time></trkpt><trkpt lat="45.951792850135874" lon="8.889649825053997"><ele>311.5</ele><time>2026-04-25T09:20:31.904Z</time></trkpt><trkpt lat="45.951905900574374" lon="8.889722480948764"><ele>312.75</ele><time>2026-04-25T09:20:32.904Z</time></trkpt><trkpt lat="45.95201812038656" lon="8.889759602606935"><ele>314.0</ele><time>2026-04-25T09:20:33.904Z</time></trkpt><trkpt lat="45.95213197191883" lon="8.8897521160752"><ele>314.0</ele><time>2026-04-25T09:20:34.904Z</time></trkpt><trkpt lat="45.952243928422874" lon="8.889679043616802"><ele>314.0</ele><time>2026-04-25T09:20:35.904Z</time></trkpt><trkpt lat="45.952375423996045" lon="8.889654748996561"><ele>314.0</ele><time>2026-04-25T09:20:36.904Z</time></trkpt><trkpt lat="45.95248739077484" lon="8.889637518093224"><ele>314.0</ele><time>2026-04-25T09:20:37.904Z</time></trkpt><trkpt lat="45.95257299735108" lon="8.889631254120108"><ele>314.0</ele><time>2026-04-25T09:20:38.904Z</time></trkpt><trkpt lat="45.9526434781355" lon="8.889588747023318"><ele>314.0</ele><time>2026-04-25T09:20:39.904Z</time></trkpt><trkpt lat="45.95266556899731" lon="8.889484899976406"><ele>314.0</ele><time>2026-04-25T09:20:40.904Z</time></trkpt><trkpt lat="45.95263594929187" lon="8.889322699313581"><ele>314.0</ele><time>2026-04-25T09:20:42.904Z</time></trkpt><trkpt lat="45.95256579597658" lon="8.889317102721984"><ele>314.0</ele><time>2026-04-25T09:20:43.904Z</time></trkpt><trkpt lat="45.952459782919206" lon="8.889372394119862"><ele>314.0</ele><time>2026-04-25T09:20:44.904Z</time></trkpt><trkpt lat="45.95235997952712" lon="8.889417979295532"><ele>314.0</ele><time>2026-04-25T09:20:45.904Z</time></trkpt><trkpt lat="45.95226220134131" lon="8.88944670610172"><ele>314.0</ele><time>2026-04-25T09:20:46.904Z</time></trkpt><trkpt lat="45.95216075313682" lon="8.889455828893704"><ele>314.0</ele><time>2026-04-25T09:20:47.904Z</time></trkpt><trkpt lat="45.95207150966926" lon="8.88942407080065"><ele>314.0</ele><time>2026-04-25T09:20:48.904Z</time></trkpt><trkpt lat="45.951980191235315" lon="8.889366285328714"><ele>314.0</ele><time>2026-04-25T09:20:49.904Z</time></trkpt><trkpt lat="45.95187691935517" lon="8.889286211992696"><ele>314.0</ele><time>2026-04-25T09:20:50.904Z</time></trkpt><trkpt lat="45.95178912023905" lon="8.889163389937604"><ele>314.0</ele><time>2026-04-25T09:20:51.904Z</time></trkpt><trkpt lat="45.951683578330986" lon="8.889060953976463"><ele>314.0</ele><time>2026-04-25T09:20:52.904Z</time></trkpt><trkpt lat="45.951563719348144" lon="8.88896302925977"><ele>319.25</ele><time>2026-04-25T09:20:53.904Z</time></trkpt><trkpt lat="45.9514345349669" lon="8.888865385529302"><ele>324.5</ele><time>2026-04-25T09:20:54.904Z</time></trkpt><trkpt lat="45.95130521300598" lon="8.888778630379575"><ele>329.75</ele><time>2026-04-25T09:20:55.904Z</time></trkpt><trkpt lat="45.95117053538354" lon="8.888708499172866"><ele>335.0</ele><time>2026-04-25T09:20:56.904Z</time></trkpt><trkpt lat="45.95103710259582" lon="8.888630640133952"><ele>335.0</ele><time>2026-04-25T09:20:57.904Z</time></trkpt><trkpt lat="45.95090624376922" lon="8.888541183556978"><ele>335.0</ele><time>2026-04-25T09:20:58.904Z</time></trkpt><trkpt lat="45.95078355357237" lon="8.888453912301737"><ele>335.0</ele><time>2026-04-25T09:20:59.904Z</time></trkpt><trkpt lat="45.95066484217695" lon="8.88836653587591"><ele>335.0</ele><time>2026-04-25T09:21:00.904Z</time></trkpt><trkpt lat="45.95055984609883" lon="8.888299166736942"><ele>339.25</ele><time>2026-04-25T09:21:01.904Z</time></trkpt><trkpt lat="45.95046307986346" lon="8.888233417030241"><ele>343.5</ele><time>2026-04-25T09:21:02.904Z</time></trkpt><trkpt lat="45.95036567232063" lon="8.888096892530587"><ele>347.75</ele><time>2026-04-25T09:21:03.904Z</time></trkpt><trkpt lat="45.950256218440956" lon="8.887930917502063"><ele>352.0</ele><time>2026-04-25T09:21:04.904Z</time></trkpt><trkpt lat="45.9501188122427" lon="8.887761712528727"><ele>356.0</ele><time>2026-04-25T09:21:05.904Z</time></trkpt><trkpt lat="45.94999200564692" lon="8.887639822045049"><ele>360.0</ele><time>2026-04-25T09:21:06.904Z</time></trkpt><trkpt lat="45.94987311463877" lon="8.887526193583406"><ele>364.0</ele><time>2026-04-25T09:21:07.904Z</time></trkpt><trkpt lat="45.9497523899368" lon="8.88740930997927"><ele>368.0</ele><time>2026-04-25T09:21:08.904Z</time></trkpt><trkpt lat="45.94963601130985" lon="8.887305398221496"><ele>368.0</ele><time>2026-04-25T09:21:09.904Z</time></trkpt><trkpt lat="45.949519274643755" lon="8.887220101136718"><ele>368.0</ele><time>2026-04-25T09:21:10.904Z</time></trkpt><trkpt lat="45.94940816102796" lon="8.887153524025365"><ele>368.0</ele><time>2026-04-25T09:21:11.904Z</time></trkpt><trkpt lat="45.9493133543394" lon="8.887072587281244"><ele>368.0</ele><time>2026-04-25T09:21:12.904Z</time></trkpt><trkpt lat="45.949216465935415" lon="8.886949523501736"><ele>368.5</ele><time>2026-04-25T09:21:13.904Z</time></trkpt><trkpt lat="45.94912954546773" lon="8.886813487761605"><ele>369.0</ele><time>2026-04-25T09:21:14.904Z</time></trkpt><trkpt lat="45.94904022126593" lon="8.886704211431582"><ele>369.5</ele><time>2026-04-25T09:21:15.904Z</time></trkpt><trkpt lat="45.948939871213675" lon="8.886589977732049"><ele>370.0</ele><time>2026-04-25T09:21:16.904Z</time></trkpt><trkpt lat="45.94883366281993" lon="8.886499780170642"><ele>370.0</ele><time>2026-04-25T09:21:17.904Z</time></trkpt><trkpt lat="45.94874124375048" lon="8.886430940718688"><ele>370.0</ele><time>2026-04-25T09:21:18.904Z</time></trkpt><trkpt lat="45.94866390061992" lon="8.886375456409416"><ele>370.0</ele><time>2026-04-25T09:21:19.904Z</time></trkpt><trkpt lat="45.948619896368555" lon="8.886310114290886"><ele>370.0</ele><time>2026-04-25T09:21:20.904Z</time></trkpt><trkpt lat="45.94861370647505" lon="8.88614670508335"><ele>370.0</ele><time>2026-04-25T09:21:22.904Z</time></trkpt><trkpt lat="45.94869958857469" lon="8.88612099504402"><ele>370.0</ele><time>2026-04-25T09:21:23.904Z</time></trkpt><trkpt lat="45.948755990045974" lon="8.886213997723788"><ele>370.0</ele><time>2026-04-25T09:21:24.904Z</time></trkpt><trkpt lat="45.94882072104786" lon="8.88631880729861"><ele>370.0</ele><time>2026-04-25T09:21:25.904Z</time></trkpt><trkpt lat="45.94889911515366" lon="8.886409683885931"><ele>370.0</ele><time>2026-04-25T09:21:26.904Z</time></trkpt><trkpt lat="45.94897599527693" lon="8.88650694583518"><ele>370.0</ele><time>2026-04-25T09:21:27.905Z</time></trkpt><trkpt lat="45.94905206260645" lon="8.88660218650284"><ele>370.0</ele><time>2026-04-25T09:21:28.905Z</time></trkpt><trkpt lat="45.94912556001624" lon="8.886686210163523"><ele>370.0</ele><time>2026-04-25T09:21:29.905Z</time></trkpt><trkpt lat="45.94919619167723" lon="8.88674509316637"><ele>370.0</ele><time>2026-04-25T09:21:30.905Z</time></trkpt><trkpt lat="45.949268538638734" lon="8.886708697818717"><ele>370.0</ele><time>2026-04-25T09:21:31.905Z</time></trkpt><trkpt lat="45.94932414255991" lon="8.886580194080935"><ele>370.0</ele><time>2026-04-25T09:21:33.905Z</time></trkpt><trkpt lat="45.949298076107354" lon="8.88647692605696"><ele>370.0</ele><time>2026-04-25T09:21:34.905Z</time></trkpt><trkpt lat="45.949227654521565" lon="8.886403789098246"><ele>370.0</ele><time>2026-04-25T09:21:35.905Z</time></trkpt><trkpt lat="45.9491347646767" lon="8.886344576078494"><ele>370.0</ele><time>2026-04-25T09:21:36.905Z</time></trkpt><trkpt lat="45.94903743890528" lon="8.886261656996096"><ele>370.0</ele><time>2026-04-25T09:21:37.905Z</time></trkpt><trkpt lat="45.948945921176986" lon="8.886177183772205"><ele>370.0</ele><time>2026-04-25T09:21:38.905Z</time></trkpt><trkpt lat="45.948850064876005" lon="8.886088684136231"><ele>370.0</ele><time>2026-04-25T09:21:39.905Z</time></trkpt><trkpt lat="45.94874436139402" lon="8.88599950639516"><ele>373.0</ele><time>2026-04-25T09:21:40.905Z</time></trkpt><trkpt lat="45.94863653518058" lon="8.885905491496912"><ele>376.0</ele><time>2026-04-25T09:21:41.905Z</time></trkpt><trkpt lat="45.94852376569993" lon="8.885811027845953"><ele>379.0</ele><time>2026-04-25T09:21:42.905Z</time></trkpt><trkpt lat="45.94841491896184" lon="8.885701791330302"><ele>382.0</ele><time>2026-04-25T09:21:43.905Z</time></trkpt><trkpt lat="45.94830100530021" lon="8.885617143828698"><ele>382.0</ele><time>2026-04-25T09:21:44.905Z</time></trkpt><trkpt lat="45.94817923389428" lon="8.885523929902972"><ele>382.0</ele><time>2026-04-25T09:21:45.905Z</time></trkpt><trkpt lat="45.94806235323013" lon="8.885413852943921"><ele>382.0</ele><time>2026-04-25T09:21:46.905Z</time></trkpt><trkpt lat="45.94794967816421" lon="8.885286185929314"><ele>382.0</ele><time>2026-04-25T09:21:47.905Z</time></trkpt><trkpt lat="45.94784291912479" lon="8.885170580361033"><ele>385.5</ele><time>2026-04-25T09:21:48.905Z</time></trkpt><trkpt lat="45.94774051661645" lon="8.885082394798738"><ele>389.0</ele><time>2026-04-25T09:21:49.905Z</time></trkpt><trkpt lat="45.94762079884777" lon="8.885044706131659"><ele>392.5</ele><time>2026-04-25T09:21:50.905Z</time></trkpt><trkpt lat="45.94747669822293" lon="8.885049474773641"><ele>396.0</ele><time>2026-04-25T09:21:51.905Z</time></trkpt><trkpt lat="45.947340397242485" lon="8.8850095071159"><ele>396.0</ele><time>2026-04-25T09:21:52.905Z</time></trkpt><trkpt lat="45.94720675200196" lon="8.88495443358706"><ele>396.0</ele><time>2026-04-25T09:21:53.905Z</time></trkpt><trkpt lat="45.947088055096344" lon="8.88490568276138"><ele>396.0</ele><time>2026-04-25T09:21:54.905Z</time></trkpt><trkpt lat="45.94699601743355" lon="8.88486999619996"><ele>396.0</ele><time>2026-04-25T09:21:55.905Z</time></trkpt><trkpt lat="45.946921621911045" lon="8.884839987929878"><ele>396.0</ele><time>2026-04-25T09:21:56.905Z</time></trkpt><trkpt lat="45.946900832255636" lon="8.884747973695843"><ele>396.0</ele><time>2026-04-25T09:21:57.905Z</time></trkpt><trkpt lat="45.94696861741576" lon="8.884623167140676"><ele>396.0</ele><time>2026-04-25T09:21:59.905Z</time></trkpt><trkpt lat="45.94704989685161" lon="8.884671973233766"><ele>396.0</ele><time>2026-04-25T09:22:00.905Z</time></trkpt><trkpt lat="45.94717087845929" lon="8.884669413485039"><ele>396.0</ele><time>2026-04-25T09:22:01.905Z</time></trkpt><trkpt lat="45.94730347721232" lon="8.884696416888184"><ele>396.0</ele><time>2026-04-25T09:22:02.905Z</time></trkpt><trkpt lat="45.94742953676505" lon="8.88469660641078"><ele>396.0</ele><time>2026-04-25T09:22:03.905Z</time></trkpt><trkpt lat="45.94755930853578" lon="8.884693596121215"><ele>396.0</ele><time>2026-04-25T09:22:04.905Z</time></trkpt><trkpt lat="45.94767566729849" lon="8.884720470556212"><ele>396.0</ele><time>2026-04-25T09:22:05.905Z</time></trkpt><trkpt lat="45.94779137706437" lon="8.884741679438132"><ele>399.25</ele><time>2026-04-25T09:22:06.905Z</time></trkpt><trkpt lat="45.94790465187314" lon="8.884792166437565"><ele>402.5</ele><time>2026-04-25T09:22:07.905Z</time></trkpt><trkpt lat="45.948018830916936" lon="8.88486468214939"><ele>405.75</ele><time>2026-04-25T09:22:08.905Z</time></trkpt><trkpt lat="45.948117787798296" lon="8.884934798465922"><ele>409.0</ele><time>2026-04-25T09:22:09.905Z</time></trkpt><trkpt lat="45.94822100436299" lon="8.88498224461002"><ele>409.0</ele><time>2026-04-25T09:22:10.905Z</time></trkpt><trkpt lat="45.9483293332488" lon="8.884994311732386"><ele>409.0</ele><time>2026-04-25T09:22:11.905Z</time></trkpt><trkpt lat="45.948446068776775" lon="8.88496441846206"><ele>409.0</ele><time>2026-04-25T09:22:12.905Z</time></trkpt><trkpt lat="45.94855032788204" lon="8.884945207346258"><ele>409.0</ele><time>2026-04-25T09:22:13.902Z</time></trkpt><trkpt lat="45.948639977303586" lon="8.884948153862274"><ele>409.0</ele><time>2026-04-25T09:22:14.903Z</time></trkpt><trkpt lat="45.948719606288996" lon="8.884959042282707"><ele>414.5</ele><time>2026-04-25T09:22:15.903Z</time></trkpt><trkpt lat="45.94881437840893" lon="8.884882973793323"><ele>420.0</ele><time>2026-04-25T09:22:17.902Z</time></trkpt><trkpt lat="45.94878214436921" lon="8.88470239522581"><ele>425.5</ele><time>2026-04-25T09:22:19.903Z</time></trkpt><trkpt lat="45.94869582150171" lon="8.884650597577842"><ele>431.0</ele><time>2026-04-25T09:22:20.902Z</time></trkpt><trkpt lat="45.94857935959796" lon="8.884687411704151"><ele>431.0</ele><time>2026-04-25T09:22:21.902Z</time></trkpt><trkpt lat="45.948478716270586" lon="8.884720248679605"><ele>431.0</ele><time>2026-04-25T09:22:22.903Z</time></trkpt><trkpt lat="45.94839630278398" lon="8.884748610959443"><ele>431.0</ele><time>2026-04-25T09:22:23.903Z</time></trkpt><trkpt lat="45.94827073816803" lon="8.884755784051556"><ele>431.0</ele><time>2026-04-25T09:22:25.902Z</time></trkpt><trkpt lat="45.94821146645282" lon="8.884707699754083"><ele>431.0</ele><time>2026-04-25T09:22:26.902Z</time></trkpt><trkpt lat="45.94814271234645" lon="8.884644235042122"><ele>425.5</ele><time>2026-04-25T09:22:27.902Z</time></trkpt><trkpt lat="45.948062564047" lon="8.884564032552653"><ele>420.0</ele><time>2026-04-25T09:22:28.902Z</time></trkpt><trkpt lat="45.94796734541838" lon="8.88447432735412"><ele>414.5</ele><time>2026-04-25T09:22:29.902Z</time></trkpt><trkpt lat="45.947870584172996" lon="8.88438070789963"><ele>409.0</ele><time>2026-04-25T09:22:30.902Z</time></trkpt><trkpt lat="45.94775245748749" lon="8.884267308301752"><ele>411.25</ele><time>2026-04-25T09:22:31.902Z</time></trkpt><trkpt lat="45.94762010369472" lon="8.884139944716729"><ele>413.5</ele><time>2026-04-25T09:22:32.902Z</time></trkpt><trkpt lat="45.94750534895633" lon="8.884023358979109"><ele>415.75</ele><time>2026-04-25T09:22:33.902Z</time></trkpt><trkpt lat="45.947403591600064" lon="8.883904871846456"><ele>418.0</ele><time>2026-04-25T09:22:34.902Z</time></trkpt><trkpt lat="45.947297033032605" lon="8.883818183936253"><ele>418.0</ele><time>2026-04-25T09:22:35.902Z</time></trkpt><trkpt lat="45.9471954431853" lon="8.883703250410923"><ele>418.0</ele><time>2026-04-25T09:22:36.902Z</time></trkpt><trkpt lat="45.947088407700086" lon="8.88362841312909"><ele>418.0</ele><time>2026-04-25T09:22:37.902Z</time></trkpt><trkpt lat="45.94699769625031" lon="8.883591100120587"><ele>418.0</ele><time>2026-04-25T09:22:38.902Z</time></trkpt><trkpt lat="45.946942396102116" lon="8.883527349108181"><ele>418.0</ele><time>2026-04-25T09:22:39.902Z</time></trkpt><trkpt lat="45.94688290664225" lon="8.88348026495356"><ele>418.0</ele><time>2026-04-25T09:22:40.902Z</time></trkpt><trkpt lat="45.946870304905964" lon="8.883383826166819"><ele>418.0</ele><time>2026-04-25T09:22:41.902Z</time></trkpt><trkpt lat="45.94693317845684" lon="8.883296393747777"><ele>418.0</ele><time>2026-04-25T09:22:42.902Z</time></trkpt><trkpt lat="45.947016113641574" lon="8.883331169721405"><ele>418.0</ele><time>2026-04-25T09:22:43.902Z</time></trkpt><trkpt lat="45.94709420045719" lon="8.88340726908198"><ele>418.0</ele><time>2026-04-25T09:22:44.902Z</time></trkpt><trkpt lat="45.947200454678246" lon="8.883466712812794"><ele>418.0</ele><time>2026-04-25T09:22:45.902Z</time></trkpt><trkpt lat="45.94731158680248" lon="8.883555515286634"><ele>418.0</ele><time>2026-04-25T09:22:46.902Z</time></trkpt><trkpt lat="45.94743060785055" lon="8.88365491286817"><ele>418.0</ele><time>2026-04-25T09:22:47.902Z</time></trkpt><trkpt lat="45.94753543373306" lon="8.883753607677761"><ele>418.0</ele><time>2026-04-25T09:22:48.902Z</time></trkpt><trkpt lat="45.947629777721104" lon="8.883858238275428"><ele>421.4</ele><time>2026-04-25T09:22:49.902Z</time></trkpt><trkpt lat="45.94773267169094" lon="8.883949133638703"><ele>424.79999999999995</ele><time>2026-04-25T09:22:50.902Z</time></trkpt><trkpt lat="45.94784905180032" lon="8.884022884121018"><ele>428.2</ele><time>2026-04-25T09:22:51.902Z</time></trkpt><trkpt lat="45.94794667509078" lon="8.884070249958416"><ele>431.6</ele><time>2026-04-25T09:22:52.902Z</time></trkpt><trkpt lat="45.94803053475728" lon="8.884110774723867"><ele>435.0</ele><time>2026-04-25T09:22:53.902Z</time></trkpt><trkpt lat="45.948097610365494" lon="8.88412786970716"><ele>435.0</ele><time>2026-04-25T09:22:54.902Z</time></trkpt><trkpt lat="45.94820140489839" lon="8.884093335451254"><ele>435.0</ele><time>2026-04-25T09:22:56.902Z</time></trkpt><trkpt lat="45.94823594185677" lon="8.884013252445378"><ele>435.0</ele><time>2026-04-25T09:22:57.902Z</time></trkpt><trkpt lat="45.94818953465504" lon="8.88382052194521"><ele>435.0</ele><time>2026-04-25T09:22:59.902Z</time></trkpt><trkpt lat="45.94807482971855" lon="8.883738366420825"><ele>435.0</ele><time>2026-04-25T09:23:00.902Z</time></trkpt><trkpt lat="45.947971318381" lon="8.88365092449248"><ele>435.0</ele><time>2026-04-25T09:23:01.902Z</time></trkpt><trkpt lat="45.947868346388475" lon="8.88355822268238"><ele>435.0</ele><time>2026-04-25T09:23:02.902Z</time></trkpt><trkpt lat="45.9477551560679" lon="8.883456321667238"><ele>435.0</ele><time>2026-04-25T09:23:03.902Z</time></trkpt><trkpt lat="45.94764001808946" lon="8.88335758186785"><ele>435.0</ele><time>2026-04-25T09:23:04.902Z</time></trkpt><trkpt lat="45.94752389094985" lon="8.883260357042682"><ele>437.25</ele><time>2026-04-25T09:23:05.902Z</time></trkpt><trkpt lat="45.94741430390875" lon="8.883168771867167"><ele>439.5</ele><time>2026-04-25T09:23:06.902Z</time></trkpt><trkpt lat="45.947302461237484" lon="8.883060206327269"><ele>441.75</ele><time>2026-04-25T09:23:07.902Z</time></trkpt><trkpt lat="45.947192820268135" lon="8.882954447710363"><ele>444.0</ele><time>2026-04-25T09:23:08.902Z</time></trkpt><trkpt lat="45.94707936613466" lon="8.882852310107737"><ele>444.0</ele><time>2026-04-25T09:23:09.902Z</time></trkpt><trkpt lat="45.94696796820322" lon="8.882765119824079"><ele>444.0</ele><time>2026-04-25T09:23:10.902Z</time></trkpt><trkpt lat="45.94686402776288" lon="8.88271360380951"><ele>444.0</ele><time>2026-04-25T09:23:11.902Z</time></trkpt><trkpt lat="45.94677825974359" lon="8.882693254761278"><ele>444.0</ele><time>2026-04-25T09:23:12.902Z</time></trkpt><trkpt lat="45.94670053034039" lon="8.8826596313995"><ele>444.0</ele><time>2026-04-25T09:23:13.902Z</time></trkpt><trkpt lat="45.94662758824985" lon="8.88261612075074"><ele>444.0</ele><time>2026-04-25T09:23:14.902Z</time></trkpt><trkpt lat="45.94657563953319" lon="8.882500325434384"><ele>444.0</ele><time>2026-04-25T09:23:15.902Z</time></trkpt><trkpt lat="45.94657118129765" lon="8.882314663367284"><ele>444.0</ele><time>2026-04-25T09:23:16.902Z</time></trkpt><trkpt lat="45.946594226673085" lon="8.882114632435162"><ele>444.0</ele><time>2026-04-25T09:23:17.902Z</time></trkpt><trkpt lat="45.946604434492535" lon="8.88190568246028"><ele>445.6</ele><time>2026-04-25T09:23:18.902Z</time></trkpt><trkpt lat="45.9466113223426" lon="8.881721991113354"><ele>447.2</ele><time>2026-04-25T09:23:19.902Z</time></trkpt><trkpt lat="45.94661813850985" lon="8.88155884563654"><ele>448.80000000000007</ele><time>2026-04-25T09:23:20.902Z</time></trkpt><trkpt lat="45.946622180520734" lon="8.88141124940268"><ele>450.40000000000003</ele><time>2026-04-25T09:23:21.902Z</time></trkpt><trkpt lat="45.946616583323824" lon="8.881285223877043"><ele>452.0</ele><time>2026-04-25T09:23:22.902Z</time></trkpt><trkpt lat="45.94663358097057" lon="8.881160204554913"><ele>452.0</ele><time>2026-04-25T09:23:23.902Z</time></trkpt><trkpt lat="45.94668186588351" lon="8.881056776759277"><ele>452.0</ele><time>2026-04-25T09:23:24.902Z</time></trkpt><trkpt lat="45.94675592985597" lon="8.880944423721292"><ele>452.0</ele><time>2026-04-25T09:23:25.902Z</time></trkpt><trkpt lat="45.946867646553414" lon="8.880836134393224"><ele>452.0</ele><time>2026-04-25T09:23:26.902Z</time></trkpt><trkpt lat="45.947018689173746" lon="8.880791929074757"><ele>454.0</ele><time>2026-04-25T09:23:27.902Z</time></trkpt><trkpt lat="45.94715571314666" lon="8.880753760438445"><ele>456.0</ele><time>2026-04-25T09:23:28.902Z</time></trkpt><trkpt lat="45.94727894643706" lon="8.880666612173092"><ele>458.0</ele><time>2026-04-25T09:23:29.902Z</time></trkpt><trkpt lat="45.947399741496724" lon="8.880586383082754"><ele>460.0</ele><time>2026-04-25T09:23:30.902Z</time></trkpt><trkpt lat="45.94750336050111" lon="8.880497860979903"><ele>461.2</ele><time>2026-04-25T09:23:31.902Z</time></trkpt><trkpt lat="45.947581636889964" lon="8.880381180145006"><ele>462.4</ele><time>2026-04-25T09:23:32.902Z</time></trkpt><trkpt lat="45.94762302457504" lon="8.880228255144262"><ele>463.6</ele><time>2026-04-25T09:23:33.902Z</time></trkpt><trkpt lat="45.94764361898453" lon="8.880084126928065"><ele>464.8</ele><time>2026-04-25T09:23:34.902Z</time></trkpt><trkpt lat="45.947690974497135" lon="8.879967548908864"><ele>466.0</ele><time>2026-04-25T09:23:35.902Z</time></trkpt><trkpt lat="45.9477577589002" lon="8.879886904106936"><ele>466.0</ele><time>2026-04-25T09:23:36.902Z</time></trkpt><trkpt lat="45.94784480556661" lon="8.879905135941081"><ele>466.0</ele><time>2026-04-25T09:23:37.902Z</time></trkpt><trkpt lat="45.94794833241825" lon="8.87989285120589"><ele>466.0</ele><time>2026-04-25T09:23:38.902Z</time></trkpt><trkpt lat="45.94807111145227" lon="8.87981525516609"><ele>466.0</ele><time>2026-04-25T09:23:39.902Z</time></trkpt><trkpt lat="45.94821682346825" lon="8.879716322920775"><ele>466.0</ele><time>2026-04-25T09:23:40.902Z</time></trkpt><trkpt lat="45.94835119172378" lon="8.879592692189396"><ele>466.0</ele><time>2026-04-25T09:23:41.902Z</time></trkpt><trkpt lat="45.94846811655414" lon="8.879474975171636"><ele>466.0</ele><time>2026-04-25T09:23:42.902Z</time></trkpt><trkpt lat="45.948587695747705" lon="8.879383550827255"><ele>466.0</ele><time>2026-04-25T09:23:43.902Z</time></trkpt><trkpt lat="45.9487020640883" lon="8.879272188405354"><ele>466.75</ele><time>2026-04-25T09:23:44.902Z</time></trkpt><trkpt lat="45.9488206191335" lon="8.87915600828745"><ele>467.5</ele><time>2026-04-25T09:23:45.902Z</time></trkpt><trkpt lat="45.948919208210924" lon="8.879028710214163"><ele>468.25</ele><time>2026-04-25T09:23:46.902Z</time></trkpt><trkpt lat="45.94902055013074" lon="8.878918361733344"><ele>469.0</ele><time>2026-04-25T09:23:47.902Z</time></trkpt><trkpt lat="45.949109743434335" lon="8.878818056383189"><ele>469.0</ele><time>2026-04-25T09:23:48.902Z</time></trkpt><trkpt lat="45.94919055377792" lon="8.878727688171258"><ele>469.0</ele><time>2026-04-25T09:23:49.902Z</time></trkpt><trkpt lat="45.94927094326984" lon="8.878644607276708"><ele>469.0</ele><time>2026-04-25T09:23:50.902Z</time></trkpt><trkpt lat="45.94935186161141" lon="8.878560280590085"><ele>469.0</ele><time>2026-04-25T09:23:51.902Z</time></trkpt><trkpt lat="45.94943434529466" lon="8.878500495475265"><ele>469.0</ele><time>2026-04-25T09:23:52.902Z</time></trkpt><trkpt lat="45.94952523569801" lon="8.878503200800669"><ele>470.2</ele><time>2026-04-25T09:23:53.902Z</time></trkpt><trkpt lat="45.94961824152163" lon="8.878515587515833"><ele>471.4</ele><time>2026-04-25T09:23:54.902Z</time></trkpt><trkpt lat="45.949728443290695" lon="8.878524060290127"><ele>472.6</ele><time>2026-04-25T09:23:55.902Z</time></trkpt><trkpt lat="45.94983482248727" lon="8.878509662727616"><ele>473.8</ele><time>2026-04-25T09:23:56.902Z</time></trkpt><trkpt lat="45.94994225449791" lon="8.878511485957894"><ele>475.0</ele><time>2026-04-25T09:23:57.902Z</time></trkpt><trkpt lat="45.95002962585144" lon="8.878482076330652"><ele>470.5</ele><time>2026-04-25T09:23:58.902Z</time></trkpt><trkpt lat="45.95009441324516" lon="8.878393390171581"><ele>466.0</ele><time>2026-04-25T09:23:59.902Z</time></trkpt><trkpt lat="45.95015256790397" lon="8.8782626356475"><ele>461.5</ele><time>2026-04-25T09:24:00.902Z</time></trkpt><trkpt lat="45.9501918484106" lon="8.878085218032744"><ele>457.0</ele><time>2026-04-25T09:24:01.902Z</time></trkpt><trkpt lat="45.95021521152686" lon="8.877902168988527"><ele>457.0</ele><time>2026-04-25T09:24:02.902Z</time></trkpt><trkpt lat="45.95022826447515" lon="8.877726472738024"><ele>457.0</ele><time>2026-04-25T09:24:03.902Z</time></trkpt><trkpt lat="45.950223347674566" lon="8.877556064790534"><ele>457.0</ele><time>2026-04-25T09:24:04.902Z</time></trkpt><trkpt lat="45.95020768569616" lon="8.877390950256055"><ele>457.0</ele><time>2026-04-25T09:24:05.902Z</time></trkpt><trkpt lat="45.950193215547344" lon="8.87724163499697"><ele>457.00000000000006</ele><time>2026-04-25T09:24:06.902Z</time></trkpt><trkpt lat="45.9501818287081" lon="8.877109420433651"><ele>457.0</ele><time>2026-04-25T09:24:07.902Z</time></trkpt><trkpt lat="45.95016986366902" lon="8.876997211572542"><ele>457.0</ele><time>2026-04-25T09:24:08.902Z</time></trkpt><trkpt lat="45.95012375968267" lon="8.876885734229964"><ele>457.0</ele><time>2026-04-25T09:24:10.902Z</time></trkpt><trkpt lat="45.950073516370644" lon="8.876825858735122"><ele>457.00000000000006</ele><time>2026-04-25T09:24:12.902Z</time></trkpt><trkpt lat="45.95003524064156" lon="8.87674372877589"><ele>457.0</ele><time>2026-04-25T09:24:19.9Z</time></trkpt><trkpt lat="45.94993904297185" lon="8.876819694013538"><ele>456.50000000000006</ele><time>2026-04-25T09:24:20.9Z</time></trkpt><trkpt lat="45.94987594261736" lon="8.876851779457313"><ele>456.0</ele><time>2026-04-25T09:24:21.9Z</time></trkpt><trkpt lat="45.94981595078178" lon="8.876892237236842"><ele>455.5</ele><time>2026-04-25T09:24:22.9Z</time></trkpt><trkpt lat="45.949753037722864" lon="8.876934754393742"><ele>455.0</ele><time>2026-04-25T09:24:23.9Z</time></trkpt><trkpt lat="45.94967801779453" lon="8.876988030186414"><ele>454.50000000000006</ele><time>2026-04-25T09:24:59.9Z</time></trkpt><trkpt lat="45.949583959969914" lon="8.877060238501171"><ele>454.0</ele><time>2026-04-25T09:25:01.9Z</time></trkpt><trkpt lat="45.949502255495226" lon="8.877129905256359"><ele>454.0</ele><time>2026-04-25T09:25:02.9Z</time></trkpt><trkpt lat="45.94942875947957" lon="8.877203625677618"><ele>454.0</ele><time>2026-04-25T09:25:03.9Z</time></trkpt><trkpt lat="45.94934897857737" lon="8.877255631934966"><ele>454.0</ele><time>2026-04-25T09:25:04.9Z</time></trkpt><trkpt lat="45.94926156491041" lon="8.877308982728197"><ele>454.0</ele><time>2026-04-25T09:25:05.9Z</time></trkpt><trkpt lat="45.94914975555237" lon="8.877327107731938"><ele>454.0</ele><time>2026-04-25T09:25:06.9Z</time></trkpt><trkpt lat="45.94903763102091" lon="8.877348824007303"><ele>455.79999999999995</ele><time>2026-04-25T09:25:07.9Z</time></trkpt><trkpt lat="45.94892917521156" lon="8.877378681464917"><ele>457.59999999999997</ele><time>2026-04-25T09:25:08.9Z</time></trkpt><trkpt lat="45.94882329646597" lon="8.877398001927329"><ele>459.4</ele><time>2026-04-25T09:25:09.9Z</time></trkpt><trkpt lat="45.948737219230956" lon="8.877394870845766"><ele>461.2</ele><time>2026-04-25T09:25:10.9Z</time></trkpt><trkpt lat="45.94865311094381" lon="8.877432552479366"><ele>463.0</ele><time>2026-04-25T09:25:11.9Z</time></trkpt><trkpt lat="45.948558318241155" lon="8.877489735292338"><ele>463.0</ele><time>2026-04-25T09:25:12.9Z</time></trkpt><trkpt lat="45.94849298181565" lon="8.877539072311075"><ele>462.99999999999994</ele><time>2026-04-25T09:25:13.9Z</time></trkpt><trkpt lat="45.94842610435732" lon="8.877564489175674"><ele>462.99999999999994</ele><time>2026-04-25T09:25:15.9Z</time></trkpt><trkpt lat="45.94835878573554" lon="8.877658383023277"><ele>463.0</ele><time>2026-04-25T09:25:16.9Z</time></trkpt><trkpt lat="45.94827062447457" lon="8.877561757686678"><ele>463.0</ele><time>2026-04-25T09:25:17.9Z</time></trkpt><trkpt lat="45.948416081685075" lon="8.877467601615566"><ele>463.0</ele><time>2026-04-25T09:25:18.9Z</time></trkpt><trkpt lat="45.94849468557554" lon="8.877378465721518"><ele>462.99999999999994</ele><time>2026-04-25T09:25:20.9Z</time></trkpt><trkpt lat="45.94848878571873" lon="8.877280349925217"><ele>462.99999999999994</ele><time>2026-04-25T09:25:23.9Z</time></trkpt><trkpt lat="45.94839023412293" lon="8.877170988959328"><ele>463.0</ele><time>2026-04-25T09:25:25.9Z</time></trkpt><trkpt lat="45.94829301572214" lon="8.877116655512252"><ele>463.0</ele><time>2026-04-25T09:25:26.9Z</time></trkpt><trkpt lat="45.94821239693337" lon="8.87706457322176"><ele>466.4</ele><time>2026-04-25T09:25:27.9Z</time></trkpt><trkpt lat="45.948124996500546" lon="8.877022734938324"><ele>469.79999999999995</ele><time>2026-04-25T09:25:28.9Z</time></trkpt><trkpt lat="45.94803147796679" lon="8.876975731707143"><ele>473.2</ele><time>2026-04-25T09:25:29.9Z</time></trkpt><trkpt lat="45.94792007756592" lon="8.876963602941414"><ele>476.6</ele><time>2026-04-25T09:25:30.9Z</time></trkpt><trkpt lat="45.94782047847517" lon="8.876971879961031"><ele>480.0</ele><time>2026-04-25T09:25:31.9Z</time></trkpt><trkpt lat="45.947726005602185" lon="8.876961258254166"><ele>480.0</ele><time>2026-04-25T09:25:32.9Z</time></trkpt><trkpt lat="45.947646642956016" lon="8.876952068703174"><ele>480.0</ele><time>2026-04-25T09:25:33.9Z</time></trkpt><trkpt lat="45.94758045862764" lon="8.876947949286492"><ele>480.0</ele><time>2026-04-25T09:25:34.9Z</time></trkpt><trkpt lat="45.94751701160805" lon="8.876940605741396"><ele>480.0</ele><time>2026-04-25T09:25:35.9Z</time></trkpt><trkpt lat="45.947413241350354" lon="8.876963916902394"><ele>480.0</ele><time>2026-04-25T09:25:36.9Z</time></trkpt><trkpt lat="45.94730813148375" lon="8.87705343027446"><ele>480.0</ele><time>2026-04-25T09:25:37.9Z</time></trkpt><trkpt lat="45.947202017886305" lon="8.877151971261528"><ele>481.3333333333333</ele><time>2026-04-25T09:25:38.9Z</time></trkpt><trkpt lat="45.94711146160817" lon="8.87720673409992"><ele>482.66666666666663</ele><time>2026-04-25T09:25:39.9Z</time></trkpt><trkpt lat="45.94702551055852" lon="8.877247087869035"><ele>484.0</ele><time>2026-04-25T09:25:40.9Z</time></trkpt><trkpt lat="45.946949006719855" lon="8.877284111624153"><ele>485.3333333333333</ele><time>2026-04-25T09:25:41.9Z</time></trkpt><trkpt lat="45.94687249914748" lon="8.877274020451802"><ele>486.66666666666663</ele><time>2026-04-25T09:25:42.9Z</time></trkpt><trkpt lat="45.9467982356909" lon="8.877237263287533"><ele>488.0</ele><time>2026-04-25T09:25:43.9Z</time></trkpt><trkpt lat="45.9467025783377" lon="8.877200866475789"><ele>490.0</ele><time>2026-04-25T09:25:44.9Z</time></trkpt><trkpt lat="45.94660881132162" lon="8.877108234152114"><ele>491.99999999999994</ele><time>2026-04-25T09:25:45.9Z</time></trkpt><trkpt lat="45.94651795203859" lon="8.877020685672388"><ele>493.99999999999994</ele><time>2026-04-25T09:25:46.9Z</time></trkpt><trkpt lat="45.94643615426607" lon="8.876947165841395"><ele>496.0</ele><time>2026-04-25T09:25:47.9Z</time></trkpt><trkpt lat="45.946352464889856" lon="8.876860123402935"><ele>498.0</ele><time>2026-04-25T09:25:48.9Z</time></trkpt><trkpt lat="45.94627891320965" lon="8.87672651336659"><ele>501.0</ele><time>2026-04-25T09:25:49.9Z</time></trkpt><trkpt lat="45.946203731583296" lon="8.876563575710692"><ele>504.0</ele><time>2026-04-25T09:25:50.9Z</time></trkpt><trkpt lat="45.946128064792696" lon="8.876383153895299"><ele>507.0</ele><time>2026-04-25T09:25:51.9Z</time></trkpt><trkpt lat="45.946061151803576" lon="8.876205329267547"><ele>510.0</ele><time>2026-04-25T09:25:52.9Z</time></trkpt><trkpt lat="45.94599613161344" lon="8.87601744215612"><ele>511.25</ele><time>2026-04-25T09:25:53.9Z</time></trkpt><trkpt lat="45.94592362020379" lon="8.875829999896135"><ele>512.5</ele><time>2026-04-25T09:25:54.9Z</time></trkpt><trkpt lat="45.945844595385154" lon="8.875671111767733"><ele>513.75</ele><time>2026-04-25T09:25:55.9Z</time></trkpt><trkpt lat="45.945747359970255" lon="8.875548130919363"><ele>515.0</ele><time>2026-04-25T09:25:56.9Z</time></trkpt><trkpt lat="45.945625622978376" lon="8.87545829624187"><ele>515.0</ele><time>2026-04-25T09:25:57.9Z</time></trkpt><trkpt lat="45.945468571732654" lon="8.8754340099958"><ele>515.0</ele><time>2026-04-25T09:25:58.9Z</time></trkpt><trkpt lat="45.94531865746603" lon="8.875392040029066"><ele>515.0</ele><time>2026-04-25T09:25:59.9Z</time></trkpt><trkpt lat="45.94517376561557" lon="8.875291907071086"><ele>512.0</ele><time>2026-04-25T09:26:00.9Z</time></trkpt><trkpt lat="45.94502198386343" lon="8.875196851475474"><ele>509.0</ele><time>2026-04-25T09:26:01.9Z</time></trkpt><trkpt lat="45.9448771433722" lon="8.875107146943321"><ele>506.0</ele><time>2026-04-25T09:26:02.9Z</time></trkpt><trkpt lat="45.94475279524601" lon="8.87502966397004"><ele>510.20000000000005</ele><time>2026-04-25T09:26:03.9Z</time></trkpt><trkpt lat="45.94463811573078" lon="8.87497598921201"><ele>514.4000000000001</ele><time>2026-04-25T09:26:04.9Z</time></trkpt><trkpt lat="45.94454806112539" lon="8.874907977293375"><ele>518.6</ele><time>2026-04-25T09:26:05.9Z</time></trkpt><trkpt lat="45.94445898041994" lon="8.874838810769079"><ele>522.8000000000001</ele><time>2026-04-25T09:26:06.9Z</time></trkpt><trkpt lat="45.944371188452656" lon="8.874760845294277"><ele>527.0</ele><time>2026-04-25T09:26:07.9Z</time></trkpt><trkpt lat="45.944284704891665" lon="8.874696509843035"><ele>526.5</ele><time>2026-04-25T09:26:08.9Z</time></trkpt><trkpt lat="45.94418567151793" lon="8.874634381718652"><ele>526.0</ele><time>2026-04-25T09:26:09.9Z</time></trkpt><trkpt lat="45.94403362542986" lon="8.87462199253154"><ele>525.5</ele><time>2026-04-25T09:26:10.9Z</time></trkpt><trkpt lat="45.94387100399255" lon="8.874638812714998"><ele>525.0</ele><time>2026-04-25T09:26:11.9Z</time></trkpt><trkpt lat="45.943716467279124" lon="8.874658112382104"><ele>525.0</ele><time>2026-04-25T09:26:12.9Z</time></trkpt><trkpt lat="45.94355658777591" lon="8.874663843087214"><ele>525.0</ele><time>2026-04-25T09:26:13.9Z</time></trkpt><trkpt lat="45.94339712718349" lon="8.874659375580713"><ele>525.0</ele><time>2026-04-25T09:26:14.9Z</time></trkpt><trkpt lat="45.943238839923495" lon="8.874581715333264"><ele>527.2</ele><time>2026-04-25T09:26:15.9Z</time></trkpt><trkpt lat="45.94310224397927" lon="8.874506698463838"><ele>529.4</ele><time>2026-04-25T09:26:16.9Z</time></trkpt><trkpt lat="45.9429655046189" lon="8.874445589260137"><ele>531.6</ele><time>2026-04-25T09:26:17.9Z</time></trkpt><trkpt lat="45.94288374501032" lon="8.874385550287293"><ele>533.8</ele><time>2026-04-25T09:26:18.9Z</time></trkpt><trkpt lat="45.94282225125675" lon="8.874346436621012"><ele>536.0</ele><time>2026-04-25T09:26:19.9Z</time></trkpt><trkpt lat="45.94275787370164" lon="8.874342259538512"><ele>536.0</ele><time>2026-04-25T09:26:20.9Z</time></trkpt><trkpt lat="45.94269437320844" lon="8.874334585884027"><ele>536.0</ele><time>2026-04-25T09:26:21.9Z</time></trkpt><trkpt lat="45.94257014149865" lon="8.874401343028769"><ele>536.0</ele><time>2026-04-25T09:26:22.9Z</time></trkpt><trkpt lat="45.94247508618724" lon="8.87453219234713"><ele>536.0</ele><time>2026-04-25T09:26:23.9Z</time></trkpt><trkpt lat="45.94238089598087" lon="8.874677906299981"><ele>538.8</ele><time>2026-04-25T09:26:24.9Z</time></trkpt><trkpt lat="45.942298538434706" lon="8.874805733768381"><ele>541.6</ele><time>2026-04-25T09:26:25.898Z</time></trkpt><trkpt lat="45.94223400145388" lon="8.874907970060823"><ele>544.4</ele><time>2026-04-25T09:26:26.898Z</time></trkpt><trkpt lat="45.9421847278097" lon="8.874980818391402"><ele>547.2</ele><time>2026-04-25T09:26:27.898Z</time></trkpt><trkpt lat="45.94206250843833" lon="8.875020782774646"><ele>550.0</ele><time>2026-04-25T09:26:29.897Z</time></trkpt><trkpt lat="45.94195049409577" lon="8.874952450321674"><ele>550.0</ele><time>2026-04-25T09:26:30.897Z</time></trkpt><trkpt lat="45.941864823558" lon="8.874873927090112"><ele>550.0</ele><time>2026-04-25T09:26:31.898Z</time></trkpt><trkpt lat="45.94180562450912" lon="8.874817199287456"><ele>550.0</ele><time>2026-04-25T09:26:32.898Z</time></trkpt><trkpt lat="45.941752960864825" lon="8.874750563320404"><ele>550.0</ele><time>2026-04-25T09:26:33.898Z</time></trkpt><trkpt lat="45.94172635875744" lon="8.874630777679723"><ele>550.0</ele><time>2026-04-25T09:26:34.898Z</time></trkpt><trkpt lat="45.9417261318473" lon="8.874503059239082"><ele>550.0</ele><time>2026-04-25T09:26:35.897Z</time></trkpt><trkpt lat="45.94176713499227" lon="8.87434390955769"><ele>550.4</ele><time>2026-04-25T09:26:36.897Z</time></trkpt><trkpt lat="45.94178607616516" lon="8.874222983832805"><ele>550.8</ele><time>2026-04-25T09:26:37.897Z</time></trkpt><trkpt lat="45.94180023995448" lon="8.874130399069113"><ele>551.2</ele><time>2026-04-25T09:26:38.897Z</time></trkpt><trkpt lat="45.94178031168716" lon="8.873913132374842"><ele>551.6</ele><time>2026-04-25T09:26:40.897Z</time></trkpt><trkpt lat="45.941722630125355" lon="8.873761045188928"><ele>552.0</ele><time>2026-04-25T09:26:41.897Z</time></trkpt><trkpt lat="45.94166758063021" lon="8.873580978936074"><ele>554.6</ele><time>2026-04-25T09:26:42.897Z</time></trkpt><trkpt lat="45.94160575576358" lon="8.873395562096421"><ele>557.2</ele><time>2026-04-25T09:26:43.897Z</time></trkpt><trkpt lat="45.941549825552634" lon="8.873232573627142"><ele>559.8</ele><time>2026-04-25T09:26:44.897Z</time></trkpt><trkpt lat="45.941508905125104" lon="8.873098275857586"><ele>562.4</ele><time>2026-04-25T09:26:45.897Z</time></trkpt><trkpt lat="45.94150950388435" lon="8.872990531226696"><ele>565.0</ele><time>2026-04-25T09:26:46.897Z</time></trkpt><trkpt lat="45.941609310652595" lon="8.872919462230996"><ele>565.0</ele><time>2026-04-25T09:26:48.897Z</time></trkpt><trkpt lat="45.94169948978855" lon="8.872942623649937"><ele>565.0</ele><time>2026-04-25T09:26:49.897Z</time></trkpt><trkpt lat="45.94181586204095" lon="8.872930360451495"><ele>565.0</ele><time>2026-04-25T09:26:50.897Z</time></trkpt><trkpt lat="45.941929640487864" lon="8.872938033188756"><ele>565.0</ele><time>2026-04-25T09:26:51.897Z</time></trkpt><trkpt lat="45.94203592381441" lon="8.872934823522332"><ele>565.0</ele><time>2026-04-25T09:26:52.897Z</time></trkpt><trkpt lat="45.94212035748192" lon="8.872909177301539"><ele>565.0</ele><time>2026-04-25T09:26:53.897Z</time></trkpt><trkpt lat="45.942182538023644" lon="8.872841424273645"><ele>565.0</ele><time>2026-04-25T09:26:54.897Z</time></trkpt><trkpt lat="45.942234857104104" lon="8.872749248093786"><ele>565.0</ele><time>2026-04-25T09:26:55.897Z</time></trkpt><trkpt lat="45.94227959994742" lon="8.872668731444985"><ele>565.0</ele><time>2026-04-25T09:26:56.897Z</time></trkpt><trkpt lat="45.942301358340686" lon="8.872564966830009"><ele>565.0</ele><time>2026-04-25T09:26:57.897Z</time></trkpt><trkpt lat="45.94228761911883" lon="8.872449793908835"><ele>565.0</ele><time>2026-04-25T09:26:58.897Z</time></trkpt><trkpt lat="45.94228618470167" lon="8.872340214047881"><ele>567.3333333333334</ele><time>2026-04-25T09:26:59.897Z</time></trkpt><trkpt lat="45.942315380727024" lon="8.87224265473023"><ele>569.6666666666667</ele><time>2026-04-25T09:27:00.897Z</time></trkpt><trkpt lat="45.94236166895273" lon="8.872133643447327"><ele>572.0</ele><time>2026-04-25T09:27:01.897Z</time></trkpt><trkpt lat="45.94242378342807" lon="8.872021756841333"><ele>574.3333333333334</ele><time>2026-04-25T09:27:02.897Z</time></trkpt><trkpt lat="45.94247939565331" lon="8.871906506385862"><ele>576.6666666666666</ele><time>2026-04-25T09:27:03.897Z</time></trkpt><trkpt lat="45.94253105315424" lon="8.871805064111696"><ele>579.0</ele><time>2026-04-25T09:27:04.897Z</time></trkpt><trkpt lat="45.94258737419467" lon="8.871726938510811"><ele>580.8</ele><time>2026-04-25T09:27:05.897Z</time></trkpt><trkpt lat="45.94262621060719" lon="8.871654497147368"><ele>582.5999999999999</ele><time>2026-04-25T09:27:06.897Z</time></trkpt><trkpt lat="45.94266011517655" lon="8.87152860867181"><ele>584.4</ele><time>2026-04-25T09:27:08.897Z</time></trkpt><trkpt lat="45.94264013592407" lon="8.871411600682128"><ele>586.1999999999999</ele><time>2026-04-25T09:27:09.897Z</time></trkpt><trkpt lat="45.94253046192343" lon="8.871369955523143"><ele>588.0</ele><time>2026-04-25T09:27:10.897Z</time></trkpt><trkpt lat="45.942459047280344" lon="8.871468337099177"><ele>588.0</ele><time>2026-04-25T09:27:11.897Z</time></trkpt><trkpt lat="45.94238307867919" lon="8.871430155609215"><ele>588.0</ele><time>2026-04-25T09:27:15.897Z</time></trkpt><trkpt lat="45.942347950050554" lon="8.871343507797585"><ele>588.0</ele><time>2026-04-25T09:27:16.897Z</time></trkpt><trkpt lat="45.942299604107276" lon="8.871238151932436"><ele>588.0</ele><time>2026-04-25T09:27:17.897Z</time></trkpt><trkpt lat="45.94225055710715" lon="8.871142052259206"><ele>588.0</ele><time>2026-04-25T09:27:18.897Z</time></trkpt><trkpt lat="45.94219931488161" lon="8.871056805346816"><ele>588.0</ele><time>2026-04-25T09:27:19.897Z</time></trkpt><trkpt lat="45.94209150786196" lon="8.870975031077448"><ele>588.0</ele><time>2026-04-25T09:27:20.897Z</time></trkpt><trkpt lat="45.94199208129007" lon="8.870951807578187"><ele>588.0</ele><time>2026-04-25T09:27:21.897Z</time></trkpt><trkpt lat="45.94189630943168" lon="8.870849125889844"><ele>588.0</ele><time>2026-04-25T09:27:22.897Z</time></trkpt><trkpt lat="45.941804491439896" lon="8.870753635756463"><ele>588.0</ele><time>2026-04-25T09:27:23.897Z</time></trkpt><trkpt lat="45.94173836882087" lon="8.870600543472891"><ele>589.1999999999999</ele><time>2026-04-25T09:27:24.897Z</time></trkpt><trkpt lat="45.941694554782515" lon="8.87045424333492"><ele>590.4</ele><time>2026-04-25T09:27:25.897Z</time></trkpt><trkpt lat="45.94165931021058" lon="8.870320417255984"><ele>591.5999999999999</ele><time>2026-04-25T09:27:26.897Z</time></trkpt><trkpt lat="45.941626086347824" lon="8.870184835769214"><ele>592.8</ele><time>2026-04-25T09:27:27.897Z</time></trkpt><trkpt lat="45.941603129711304" lon="8.870061965737463"><ele>594.0</ele><time>2026-04-25T09:27:28.897Z</time></trkpt><trkpt lat="45.94159388062646" lon="8.869924302336088"><ele>596.0</ele><time>2026-04-25T09:27:29.897Z</time></trkpt><trkpt lat="45.94159869730726" lon="8.869780550621094"><ele>598.0</ele><time>2026-04-25T09:27:30.897Z</time></trkpt><trkpt lat="45.94159602512304" lon="8.869603525555604"><ele>600.0</ele><time>2026-04-25T09:27:31.897Z</time></trkpt><trkpt lat="45.94157269070235" lon="8.869399033923415"><ele>602.0</ele><time>2026-04-25T09:27:32.897Z</time></trkpt><trkpt lat="45.94154917550747" lon="8.869212135847578"><ele>605.0</ele><time>2026-04-25T09:27:33.897Z</time></trkpt><trkpt lat="45.94153638953273" lon="8.869020032029182"><ele>608.0</ele><time>2026-04-25T09:27:34.897Z</time></trkpt><trkpt lat="45.94153684345868" lon="8.868818307786393"><ele>611.0</ele><time>2026-04-25T09:27:35.897Z</time></trkpt><trkpt lat="45.94154050542153" lon="8.868617326281331"><ele>614.0</ele><time>2026-04-25T09:27:36.897Z</time></trkpt><trkpt lat="45.9415587467832" lon="8.868426260368699"><ele>616.5</ele><time>2026-04-25T09:27:37.897Z</time></trkpt><trkpt lat="45.94158499574131" lon="8.868266252684435"><ele>619.0</ele><time>2026-04-25T09:27:38.897Z</time></trkpt><trkpt lat="45.941589999227574" lon="8.868114303646273"><ele>621.5</ele><time>2026-04-25T09:27:39.897Z</time></trkpt><trkpt lat="45.941562412779675" lon="8.867948394615984"><ele>624.0</ele><time>2026-04-25T09:27:40.897Z</time></trkpt><trkpt lat="45.94148490118587" lon="8.867776130675457"><ele>630.3333333333334</ele><time>2026-04-25T09:27:41.897Z</time></trkpt><trkpt lat="45.94140510009249" lon="8.867594417903318"><ele>636.6666666666667</ele><time>2026-04-25T09:27:42.897Z</time></trkpt><trkpt lat="45.94132746759258" lon="8.867396032262217"><ele>643.0</ele><time>2026-04-25T09:27:43.897Z</time></trkpt><trkpt lat="45.94126043874229" lon="8.867201174135971"><ele>643.0</ele><time>2026-04-25T09:27:44.897Z</time></trkpt><trkpt lat="45.9411894589925" lon="8.867040871710076"><ele>643.0</ele><time>2026-04-25T09:27:45.897Z</time></trkpt><trkpt lat="45.94114991668984" lon="8.86686702700608"><ele>643.0</ele><time>2026-04-25T09:27:46.897Z</time></trkpt><trkpt lat="45.941092212468924" lon="8.866732031392901"><ele>643.0</ele><time>2026-04-25T09:27:47.897Z</time></trkpt><trkpt lat="45.94103933256004" lon="8.866619801001407"><ele>641.4</ele><time>2026-04-25T09:27:48.897Z</time></trkpt><trkpt lat="45.94099166845473" lon="8.866518641649208"><ele>639.8</ele><time>2026-04-25T09:27:49.897Z</time></trkpt><trkpt lat="45.94094038570219" lon="8.866409802301913"><ele>638.2</ele><time>2026-04-25T09:27:50.897Z</time></trkpt><trkpt lat="45.940853551374516" lon="8.866323658873291"><ele>636.6</ele><time>2026-04-25T09:27:51.897Z</time></trkpt><trkpt lat="45.94079373663801" lon="8.86616895990457"><ele>635.0</ele><time>2026-04-25T09:27:52.897Z</time></trkpt><trkpt lat="45.940714249143504" lon="8.865996530089397"><ele>640.6666666666666</ele><time>2026-04-25T09:27:53.897Z</time></trkpt><trkpt lat="45.940618338068624" lon="8.865813996010296"><ele>646.3333333333334</ele><time>2026-04-25T09:27:54.897Z</time></trkpt><trkpt lat="45.94052367746721" lon="8.865638261303406"><ele>652.0</ele><time>2026-04-25T09:27:55.897Z</time></trkpt><trkpt lat="45.94043835759186" lon="8.865480045433653"><ele>652.0</ele><time>2026-04-25T09:27:56.897Z</time></trkpt><trkpt lat="45.94035170729975" lon="8.865322372168942"><ele>652.0</ele><time>2026-04-25T09:27:57.897Z</time></trkpt><trkpt lat="45.94025919428956" lon="8.86517853512344"><ele>652.0</ele><time>2026-04-25T09:27:58.897Z</time></trkpt><trkpt lat="45.94016452679232" lon="8.865051461945328"><ele>652.0</ele><time>2026-04-25T09:27:59.897Z</time></trkpt><trkpt lat="45.94006995054523" lon="8.864936564193343"><ele>650.5</ele><time>2026-04-25T09:28:00.897Z</time></trkpt><trkpt lat="45.939972843235424" lon="8.86481444956117"><ele>649.0</ele><time>2026-04-25T09:28:01.897Z</time></trkpt><trkpt lat="45.93985908467267" lon="8.864695514709668"><ele>647.5</ele><time>2026-04-25T09:28:02.897Z</time></trkpt><trkpt lat="45.93973354946449" lon="8.864605361918862"><ele>646.0</ele><time>2026-04-25T09:28:03.897Z</time></trkpt><trkpt lat="45.93961437183927" lon="8.864507356287636"><ele>646.0</ele><time>2026-04-25T09:28:04.897Z</time></trkpt><trkpt lat="45.939514296539954" lon="8.864390364987973"><ele>646.0</ele><time>2026-04-25T09:28:05.897Z</time></trkpt><trkpt lat="45.93943416319383" lon="8.864268694762934"><ele>646.0</ele><time>2026-04-25T09:28:06.897Z</time></trkpt><trkpt lat="45.93936310932971" lon="8.864171343503445"><ele>646.0</ele><time>2026-04-25T09:28:07.897Z</time></trkpt><trkpt lat="45.939322848198245" lon="8.864092481924457"><ele>646.0</ele><time>2026-04-25T09:28:08.897Z</time></trkpt><trkpt lat="45.939354590651476" lon="8.863953078332827"><ele>650.5</ele><time>2026-04-25T09:28:10.897Z</time></trkpt><trkpt lat="45.93943131494357" lon="8.863934971035183"><ele>655.0</ele><time>2026-04-25T09:28:11.897Z</time></trkpt><trkpt lat="45.93954141549659" lon="8.863982018457344"><ele>659.5</ele><time>2026-04-25T09:28:12.897Z</time></trkpt><trkpt lat="45.939681191666196" lon="8.864042048913047"><ele>664.0</ele><time>2026-04-25T09:28:13.897Z</time></trkpt><trkpt lat="45.939828115296656" lon="8.864089243486916"><ele>664.0</ele><time>2026-04-25T09:28:14.897Z</time></trkpt><trkpt lat="45.9399505466552" lon="8.864131385400514"><ele>664.0</ele><time>2026-04-25T09:28:15.897Z</time></trkpt><trkpt lat="45.94005358318198" lon="8.864172014515994"><ele>664.0</ele><time>2026-04-25T09:28:16.897Z</time></trkpt><trkpt lat="45.94012464809565" lon="8.864234020221668"><ele>664.0</ele><time>2026-04-25T09:28:17.897Z</time></trkpt><trkpt lat="45.940190534447595" lon="8.864308788449723"><ele>664.0</ele><time>2026-04-25T09:28:18.897Z</time></trkpt><trkpt lat="45.9402709117573" lon="8.864347777313384"><ele>665.8000000000001</ele><time>2026-04-25T09:28:19.897Z</time></trkpt><trkpt lat="45.940381051235185" lon="8.864357905241745"><ele>667.6</ele><time>2026-04-25T09:28:20.897Z</time></trkpt><trkpt lat="45.94046828910141" lon="8.864416313517507"><ele>669.4</ele><time>2026-04-25T09:28:21.897Z</time></trkpt><trkpt lat="45.94053458749682" lon="8.86452042192388"><ele>671.2</ele><time>2026-04-25T09:28:22.897Z</time></trkpt><trkpt lat="45.940584890456776" lon="8.864612982358253"><ele>673.0</ele><time>2026-04-25T09:28:23.897Z</time></trkpt><trkpt lat="45.94066974775231" lon="8.864657008428425"><ele>673.0</ele><time>2026-04-25T09:28:25.897Z</time></trkpt><trkpt lat="45.94068696681683" lon="8.864515217706836"><ele>673.0</ele><time>2026-04-25T09:28:27.897Z</time></trkpt><trkpt lat="45.940632997400584" lon="8.864418939217833"><ele>673.0</ele><time>2026-04-25T09:28:28.897Z</time></trkpt><trkpt lat="45.94057667649311" lon="8.86429955763145"><ele>673.0</ele><time>2026-04-25T09:28:29.897Z</time></trkpt><trkpt lat="45.940525334855785" lon="8.86414891878219"><ele>673.0</ele><time>2026-04-25T09:28:30.897Z</time></trkpt><trkpt lat="45.94045073129272" lon="8.8640029244244"><ele>676.0</ele><time>2026-04-25T09:28:31.895Z</time></trkpt><trkpt lat="45.94037713817587" lon="8.863872230450108"><ele>679.0</ele><time>2026-04-25T09:28:32.896Z</time></trkpt><trkpt lat="45.94032100503579" lon="8.86374383736468"><ele>682.0</ele><time>2026-04-25T09:28:33.896Z</time></trkpt><trkpt lat="45.94027452792845" lon="8.863609424164881"><ele>685.0</ele><time>2026-04-25T09:28:34.895Z</time></trkpt><trkpt lat="45.94019334353399" lon="8.863510471564624"><ele>688.0</ele><time>2026-04-25T09:28:35.896Z</time></trkpt><trkpt lat="45.94009315049416" lon="8.86343563597162"><ele>685.75</ele><time>2026-04-25T09:28:36.896Z</time></trkpt><trkpt lat="45.93999843433237" lon="8.863324923385376"><ele>683.5</ele><time>2026-04-25T09:28:37.895Z</time></trkpt><trkpt lat="45.93990333305045" lon="8.863160686852979"><ele>681.25</ele><time>2026-04-25T09:28:38.895Z</time></trkpt><trkpt lat="45.93981928517961" lon="8.86299627729557"><ele>679.0</ele><time>2026-04-25T09:28:39.895Z</time></trkpt><trkpt lat="45.93974099209753" lon="8.862849113243149"><ele>679.0</ele><time>2026-04-25T09:28:40.895Z</time></trkpt><trkpt lat="45.93966930261314" lon="8.862712046361738"><ele>679.0</ele><time>2026-04-25T09:28:41.895Z</time></trkpt><trkpt lat="45.93962193504708" lon="8.862598887379697"><ele>679.0</ele><time>2026-04-25T09:28:42.895Z</time></trkpt><trkpt lat="45.93959329835839" lon="8.862479697653429"><ele>679.0</ele><time>2026-04-25T09:28:43.895Z</time></trkpt><trkpt lat="45.939597324648965" lon="8.862351636668427"><ele>679.0</ele><time>2026-04-25T09:28:44.895Z</time></trkpt><trkpt lat="45.93959287805209" lon="8.862249852288707"><ele>682.8333333333334</ele><time>2026-04-25T09:28:45.895Z</time></trkpt><trkpt lat="45.939484960065826" lon="8.862193080138582"><ele>686.6666666666667</ele><time>2026-04-25T09:28:47.895Z</time></trkpt><trkpt lat="45.9394153343387" lon="8.862232212521278"><ele>690.5</ele><time>2026-04-25T09:28:48.895Z</time></trkpt><trkpt lat="45.93934763007364" lon="8.862207045639495"><ele>694.3333333333334</ele><time>2026-04-25T09:28:49.895Z</time></trkpt><trkpt lat="45.939294644143565" lon="8.862110978358544"><ele>698.1666666666666</ele><time>2026-04-25T09:28:50.895Z</time></trkpt><trkpt lat="45.93926179516524" lon="8.861974663895245"><ele>702.0</ele><time>2026-04-25T09:28:51.895Z</time></trkpt><trkpt lat="45.93924815930421" lon="8.861846908586834"><ele>700.5</ele><time>2026-04-25T09:28:52.895Z</time></trkpt><trkpt lat="45.9392346078115" lon="8.861746589859276"><ele>699.0</ele><time>2026-04-25T09:28:53.895Z</time></trkpt><trkpt lat="45.93917931603439" lon="8.861696087064233"><ele>697.5</ele><time>2026-04-25T09:28:54.895Z</time></trkpt><trkpt lat="45.9391018425486" lon="8.861691766519249"><ele>696.0</ele><time>2026-04-25T09:28:55.895Z</time></trkpt><trkpt lat="45.939021656034555" lon="8.861663487445124"><ele>694.5</ele><time>2026-04-25T09:28:56.895Z</time></trkpt><trkpt lat="45.938949562940806" lon="8.861540437854853"><ele>693.0</ele><time>2026-04-25T09:28:57.895Z</time></trkpt><trkpt lat="45.93888855346385" lon="8.861397605783539"><ele>693.0</ele><time>2026-04-25T09:28:58.895Z</time></trkpt><trkpt lat="45.938831913960016" lon="8.861274577862188"><ele>693.0</ele><time>2026-04-25T09:28:59.895Z</time></trkpt><trkpt lat="45.93880353463139" lon="8.861152124909587"><ele>693.0</ele><time>2026-04-25T09:29:00.895Z</time></trkpt><trkpt lat="45.93880260244825" lon="8.861038005331142"><ele>693.0</ele><time>2026-04-25T09:29:01.895Z</time></trkpt><trkpt lat="45.93883371187868" lon="8.860929794182704"><ele>693.0</ele><time>2026-04-25T09:29:02.895Z</time></trkpt><trkpt lat="45.93885278222777" lon="8.860810705574773"><ele>693.0</ele><time>2026-04-25T09:29:03.895Z</time></trkpt><trkpt lat="45.93883963515379" lon="8.860683345765645"><ele>695.4</ele><time>2026-04-25T09:29:04.895Z</time></trkpt><trkpt lat="45.93880382422439" lon="8.860545917343089"><ele>697.8</ele><time>2026-04-25T09:29:05.895Z</time></trkpt><trkpt lat="45.93875022162646" lon="8.860412559193543"><ele>700.2</ele><time>2026-04-25T09:29:06.895Z</time></trkpt><trkpt lat="45.93868096397806" lon="8.860297479951361"><ele>702.6</ele><time>2026-04-25T09:29:07.895Z</time></trkpt><trkpt lat="45.938580256402894" lon="8.860212775197544"><ele>705.0</ele><time>2026-04-25T09:29:08.895Z</time></trkpt><trkpt lat="45.93849617111299" lon="8.860134953401081"><ele>706.25</ele><time>2026-04-25T09:29:09.895Z</time></trkpt><trkpt lat="45.938413657191006" lon="8.860045761191126"><ele>707.5</ele><time>2026-04-25T09:29:10.895Z</time></trkpt><trkpt lat="45.93833003134406" lon="8.85993048819374"><ele>708.75</ele><time>2026-04-25T09:29:11.895Z</time></trkpt><trkpt lat="45.93825172295128" lon="8.859795840057052"><ele>710.0</ele><time>2026-04-25T09:29:12.895Z</time></trkpt><trkpt lat="45.938190959536456" lon="8.859655260239974"><ele>710.0</ele><time>2026-04-25T09:29:13.895Z</time></trkpt><trkpt lat="45.938127444678955" lon="8.85953201295524"><ele>710.0</ele><time>2026-04-25T09:29:14.895Z</time></trkpt><trkpt lat="45.938064187022164" lon="8.859406196171872"><ele>710.0</ele><time>2026-04-25T09:29:15.895Z</time></trkpt><trkpt lat="45.93801024967819" lon="8.859280091943992"><ele>710.0</ele><time>2026-04-25T09:29:16.895Z</time></trkpt><trkpt lat="45.93795256309558" lon="8.859145440908742"><ele>710.0</ele><time>2026-04-25T09:29:17.895Z</time></trkpt><trkpt lat="45.93789734243608" lon="8.858993798115996"><ele>712.75</ele><time>2026-04-25T09:29:18.895Z</time></trkpt><trkpt lat="45.93784962473479" lon="8.85883473541603"><ele>715.5</ele><time>2026-04-25T09:29:19.895Z</time></trkpt><trkpt lat="45.937806747650264" lon="8.85866035038887"><ele>718.25</ele><time>2026-04-25T09:29:20.895Z</time></trkpt><trkpt lat="45.93777147710752" lon="8.85850569272241"><ele>721.0</ele><time>2026-04-25T09:29:21.895Z</time></trkpt><trkpt lat="45.93774540245608" lon="8.858380071320305"><ele>722.2857142857143</ele><time>2026-04-25T09:29:22.895Z</time></trkpt><trkpt lat="45.937726455974726" lon="8.858271230691376"><ele>723.5714285714286</ele><time>2026-04-25T09:29:23.895Z</time></trkpt><trkpt lat="45.93770264071836" lon="8.858168934588443"><ele>724.8571428571429</ele><time>2026-04-25T09:29:24.895Z</time></trkpt><trkpt lat="45.937665940166085" lon="8.858081273638819"><ele>726.1428571428571</ele><time>2026-04-25T09:29:25.895Z</time></trkpt><trkpt lat="45.93761641602763" lon="8.858012033509105"><ele>727.4285714285714</ele><time>2026-04-25T09:29:26.896Z</time></trkpt><trkpt lat="45.937569164145806" lon="8.857943816032638"><ele>728.7142857142858</ele><time>2026-04-25T09:29:28.896Z</time></trkpt><trkpt lat="45.937619904888514" lon="8.858038914634887"><ele>730.0</ele><time>2026-04-25T09:29:38.896Z</time></trkpt><trkpt lat="45.93769404067567" lon="8.858109361668378"><ele>730.0</ele><time>2026-04-25T09:29:45.896Z</time></trkpt><trkpt lat="45.93777273655136" lon="8.858058057163172"><ele>730.0</ele><time>2026-04-25T09:29:48.896Z</time></trkpt><trkpt lat="45.93784573340792" lon="8.858014099978028"><ele>730.0</ele><time>2026-04-25T09:29:50.896Z</time></trkpt><trkpt lat="45.93789764999866" lon="8.858082707959623"><ele>730.0</ele><time>2026-04-25T09:29:52.896Z</time></trkpt><trkpt lat="45.93794714596677" lon="8.858153394078014"><ele>730.0</ele><time>2026-04-25T09:29:54.896Z</time></trkpt><trkpt lat="45.93799829035662" lon="8.8580597333306"><ele>730.0</ele><time>2026-04-25T09:29:56.896Z</time></trkpt><trkpt lat="45.93798065353476" lon="8.85796717594075"><ele>730.0</ele><time>2026-04-25T09:29:58.896Z</time></trkpt><trkpt lat="45.937885550045934" lon="8.857799116391485"><ele>730.0</ele><time>2026-04-25T09:30:00.896Z</time></trkpt><trkpt lat="45.937845071901144" lon="8.857693226089774"><ele>730.0</ele><time>2026-04-25T09:30:01.896Z</time></trkpt><trkpt lat="45.93780795073193" lon="8.857569847595691"><ele>730.0</ele><time>2026-04-25T09:30:02.896Z</time></trkpt><trkpt lat="45.937765168537695" lon="8.857424826398487"><ele>730.0</ele><time>2026-04-25T09:30:03.896Z</time></trkpt><trkpt lat="45.93771455950108" lon="8.857296355241893"><ele>731.2</ele><time>2026-04-25T09:30:04.896Z</time></trkpt><trkpt lat="45.93766741583639" lon="8.857165253081758"><ele>732.4</ele><time>2026-04-25T09:30:05.896Z</time></trkpt><trkpt lat="45.937625220061946" lon="8.857048190500084"><ele>733.5999999999999</ele><time>2026-04-25T09:30:06.896Z</time></trkpt><trkpt lat="45.93758734445244" lon="8.856928190172596"><ele>734.8</ele><time>2026-04-25T09:30:07.896Z</time></trkpt><trkpt lat="45.9375305374637" lon="8.856816232316998"><ele>736.0</ele><time>2026-04-25T09:30:08.896Z</time></trkpt><trkpt lat="45.9374552260027" lon="8.856705690092085"><ele>736.0</ele><time>2026-04-25T09:30:09.896Z</time></trkpt><trkpt lat="45.93734200550797" lon="8.856606579423048"><ele>736.0</ele><time>2026-04-25T09:30:10.896Z</time></trkpt><trkpt lat="45.937236313819525" lon="8.856487487065122"><ele>736.0</ele><time>2026-04-25T09:30:11.896Z</time></trkpt><trkpt lat="45.937138894568605" lon="8.85636907204645"><ele>736.0</ele><time>2026-04-25T09:30:12.896Z</time></trkpt><trkpt lat="45.93706115132671" lon="8.856258108195341"><ele>736.0</ele><time>2026-04-25T09:30:13.896Z</time></trkpt><trkpt lat="45.936973361249095" lon="8.856172195702463"><ele>736.0</ele><time>2026-04-25T09:30:14.896Z</time></trkpt><trkpt lat="45.93687756576787" lon="8.856095933238835"><ele>736.0</ele><time>2026-04-25T09:30:15.896Z</time></trkpt><trkpt lat="45.93679427549068" lon="8.856016023710882"><ele>736.0</ele><time>2026-04-25T09:30:16.896Z</time></trkpt><trkpt lat="45.93672197350276" lon="8.855919620312585"><ele>736.0</ele><time>2026-04-25T09:30:17.896Z</time></trkpt><trkpt lat="45.93664545068914" lon="8.855810237987509"><ele>735.5999999999999</ele><time>2026-04-25T09:30:18.896Z</time></trkpt><trkpt lat="45.93658268530728" lon="8.855685597266422"><ele>735.2</ele><time>2026-04-25T09:30:19.896Z</time></trkpt><trkpt lat="45.93652269093622" lon="8.85557027152987"><ele>734.8</ele><time>2026-04-25T09:30:20.896Z</time></trkpt><trkpt lat="45.93647282010688" lon="8.855451028082394"><ele>734.4000000000001</ele><time>2026-04-25T09:30:21.896Z</time></trkpt><trkpt lat="45.93645208540366" lon="8.85533197812911"><ele>734.0</ele><time>2026-04-25T09:30:22.896Z</time></trkpt><trkpt lat="45.936444593679035" lon="8.855232930212589"><ele>734.0</ele><time>2026-04-25T09:30:23.896Z</time></trkpt><trkpt lat="45.93642493305152" lon="8.855145096574141"><ele>734.0</ele><time>2026-04-25T09:30:25.896Z</time></trkpt><trkpt lat="45.93643320436656" lon="8.854955964604308"><ele>734.0</ele><time>2026-04-25T09:30:27.896Z</time></trkpt><trkpt lat="45.936439950792646" lon="8.854844090225681"><ele>734.0</ele><time>2026-04-25T09:30:28.896Z</time></trkpt><trkpt lat="45.936448132478816" lon="8.854731155436621"><ele>734.0</ele><time>2026-04-25T09:30:29.896Z</time></trkpt><trkpt lat="45.93646187690258" lon="8.854602254745075"><ele>734.0</ele><time>2026-04-25T09:30:30.896Z</time></trkpt><trkpt lat="45.93648869377389" lon="8.854458327259929"><ele>736.4000000000001</ele><time>2026-04-25T09:30:31.896Z</time></trkpt><trkpt lat="45.936512408557995" lon="8.854315476065484"><ele>738.8</ele><time>2026-04-25T09:30:32.896Z</time></trkpt><trkpt lat="45.93650253349041" lon="8.854184022356199"><ele>741.2</ele><time>2026-04-25T09:30:33.896Z</time></trkpt><trkpt lat="45.93644120515188" lon="8.854071752348847"><ele>743.5999999999999</ele><time>2026-04-25T09:30:34.896Z</time></trkpt><trkpt lat="45.93633608688875" lon="8.853961449656698"><ele>746.0</ele><time>2026-04-25T09:30:35.896Z</time></trkpt><trkpt lat="45.93620123523114" lon="8.853832771378206"><ele>746.5</ele><time>2026-04-25T09:30:36.896Z</time></trkpt><trkpt lat="45.936080447701045" lon="8.853706549021213"><ele>747.0</ele><time>2026-04-25T09:30:37.893Z</time></trkpt><trkpt lat="45.935971216096554" lon="8.853594739788758"><ele>747.5</ele><time>2026-04-25T09:30:38.893Z</time></trkpt><trkpt lat="45.93584962766193" lon="8.853485648576608"><ele>748.0</ele><time>2026-04-25T09:30:39.893Z</time></trkpt><trkpt lat="45.93572658407174" lon="8.853374780224577"><ele>751.0</ele><time>2026-04-25T09:30:40.893Z</time></trkpt><trkpt lat="45.93562166076631" lon="8.853282195981473"><ele>754.0</ele><time>2026-04-25T09:30:41.893Z</time></trkpt><trkpt lat="45.93552646646004" lon="8.853195665229771"><ele>757.0</ele><time>2026-04-25T09:30:42.893Z</time></trkpt><trkpt lat="45.93543672401137" lon="8.853114134913595"><ele>760.0</ele><time>2026-04-25T09:30:43.893Z</time></trkpt><trkpt lat="45.935369031573295" lon="8.853027514153414"><ele>763.0</ele><time>2026-04-25T09:30:44.893Z</time></trkpt><trkpt lat="45.935330105964866" lon="8.852925050242693"><ele>763.0</ele><time>2026-04-25T09:30:45.893Z</time></trkpt><trkpt lat="45.935308193787236" lon="8.852807586616304"><ele>763.0</ele><time>2026-04-25T09:30:46.893Z</time></trkpt><trkpt lat="45.93530564453933" lon="8.852658613143548"><ele>763.0</ele><time>2026-04-25T09:30:47.893Z</time></trkpt><trkpt lat="45.93530749584385" lon="8.852530725318958"><ele>763.0</ele><time>2026-04-25T09:30:48.893Z</time></trkpt><trkpt lat="45.93535598204134" lon="8.852430443899832"><ele>763.0</ele><time>2026-04-25T09:30:50.893Z</time></trkpt><trkpt lat="45.935490678744834" lon="8.852427472553813"><ele>765.4</ele><time>2026-04-25T09:30:52.893Z</time></trkpt><trkpt lat="45.935553963911694" lon="8.852523099552092"><ele>767.8</ele><time>2026-04-25T09:30:53.893Z</time></trkpt><trkpt lat="45.93560764324944" lon="8.852611054344608"><ele>770.2</ele><time>2026-04-25T09:30:54.893Z</time></trkpt><trkpt lat="45.935715311903536" lon="8.8525860903757"><ele>772.6</ele><time>2026-04-25T09:30:56.893Z</time></trkpt><trkpt lat="45.93573648083201" lon="8.852468690108095"><ele>775.0</ele><time>2026-04-25T09:30:57.893Z</time></trkpt><trkpt lat="45.9357192059398" lon="8.852322209850323"><ele>775.0</ele><time>2026-04-25T09:30:58.893Z</time></trkpt><trkpt lat="45.93566823807682" lon="8.852150461798166"><ele>775.0</ele><time>2026-04-25T09:30:59.893Z</time></trkpt><trkpt lat="45.935629441360696" lon="8.851969752233055"><ele>775.0</ele><time>2026-04-25T09:31:00.893Z</time></trkpt><trkpt lat="45.935602052503675" lon="8.851810950544348"><ele>775.0</ele><time>2026-04-25T09:31:01.893Z</time></trkpt><trkpt lat="45.93557843306961" lon="8.851663651014885"><ele>777.5</ele><time>2026-04-25T09:31:02.893Z</time></trkpt><trkpt lat="45.9355504165915" lon="8.851529568766786"><ele>780.0</ele><time>2026-04-25T09:31:03.893Z</time></trkpt><trkpt lat="45.93549606867095" lon="8.851405258393063"><ele>782.5</ele><time>2026-04-25T09:31:04.893Z</time></trkpt><trkpt lat="45.93539193668425" lon="8.851289258705814"><ele>785.0</ele><time>2026-04-25T09:31:05.893Z</time></trkpt><trkpt lat="45.93527350109674" lon="8.85117102540475"><ele>785.0</ele><time>2026-04-25T09:31:06.893Z</time></trkpt><trkpt lat="45.9351526068508" lon="8.851103002929765"><ele>785.0</ele><time>2026-04-25T09:31:07.893Z</time></trkpt><trkpt lat="45.93503861220916" lon="8.851044635763369"><ele>785.0</ele><time>2026-04-25T09:31:08.893Z</time></trkpt><trkpt lat="45.934942759548974" lon="8.850972766201645"><ele>785.0</ele><time>2026-04-25T09:31:09.893Z</time></trkpt><trkpt lat="45.934851978531846" lon="8.850887452194787"><ele>787.75</ele><time>2026-04-25T09:31:10.893Z</time></trkpt><trkpt lat="45.934779183044235" lon="8.850758987352291"><ele>790.5</ele><time>2026-04-25T09:31:11.893Z</time></trkpt><trkpt lat="45.93467799220651" lon="8.850613537258212"><ele>793.25</ele><time>2026-04-25T09:31:12.893Z</time></trkpt><trkpt lat="45.93459067817472" lon="8.850476224928723"><ele>796.0</ele><time>2026-04-25T09:31:13.893Z</time></trkpt><trkpt lat="45.93453337483195" lon="8.850330156733467"><ele>795.9999999999999</ele><time>2026-04-25T09:31:14.893Z</time></trkpt><trkpt lat="45.9344864308272" lon="8.850193268892852"><ele>796.0</ele><time>2026-04-25T09:31:15.893Z</time></trkpt><trkpt lat="45.934453281559854" lon="8.850068504665238"><ele>796.0</ele><time>2026-04-25T09:31:16.893Z</time></trkpt><trkpt lat="45.934429648927285" lon="8.84996191006197"><ele>796.0</ele><time>2026-04-25T09:31:17.893Z</time></trkpt><trkpt lat="45.93440670263325" lon="8.849866237097721"><ele>795.9999999999999</ele><time>2026-04-25T09:31:18.893Z</time></trkpt><trkpt lat="45.93438502485102" lon="8.849760903753532"><ele>796.0</ele><time>2026-04-25T09:31:19.893Z</time></trkpt><trkpt lat="45.934377987124236" lon="8.849635316081967"><ele>798.5</ele><time>2026-04-25T09:31:20.893Z</time></trkpt><trkpt lat="45.934356624331855" lon="8.849494126582462"><ele>801.0</ele><time>2026-04-25T09:31:21.893Z</time></trkpt><trkpt lat="45.934315592923504" lon="8.849325368738668"><ele>803.5</ele><time>2026-04-25T09:31:22.893Z</time></trkpt><trkpt lat="45.93425896825801" lon="8.849166295409152"><ele>806.0</ele><time>2026-04-25T09:31:23.893Z</time></trkpt><trkpt lat="45.93420103303919" lon="8.84900452210659"><ele>806.0</ele><time>2026-04-25T09:31:24.893Z</time></trkpt><trkpt lat="45.93413267372911" lon="8.848858511076461"><ele>806.0</ele><time>2026-04-25T09:31:25.893Z</time></trkpt><trkpt lat="45.93407156348649" lon="8.84872319010476"><ele>806.0</ele><time>2026-04-25T09:31:26.893Z</time></trkpt><trkpt lat="45.93401977109596" lon="8.848587386994318"><ele>806.0</ele><time>2026-04-25T09:31:27.893Z</time></trkpt><trkpt lat="45.93399093819989" lon="8.848440609844179"><ele>806.0</ele><time>2026-04-25T09:31:28.893Z</time></trkpt><trkpt lat="45.933958086507026" lon="8.848276414279944"><ele>805.5999999999999</ele><time>2026-04-25T09:31:29.893Z</time></trkpt><trkpt lat="45.933944779287835" lon="8.84810466064106"><ele>805.2</ele><time>2026-04-25T09:31:30.893Z</time></trkpt><trkpt lat="45.93392898096146" lon="8.84793525956573"><ele>804.8</ele><time>2026-04-25T09:31:31.893Z</time></trkpt><trkpt lat="45.933934438714424" lon="8.847803556911762"><ele>804.4000000000001</ele><time>2026-04-25T09:31:32.893Z</time></trkpt><trkpt lat="45.933927058586455" lon="8.847671190343046"><ele>804.0</ele><time>2026-04-25T09:31:33.893Z</time></trkpt><trkpt lat="45.93386975064117" lon="8.84751074804642"><ele>801.3333333333333</ele><time>2026-04-25T09:31:34.893Z</time></trkpt><trkpt lat="45.93376865604025" lon="8.847318914652918"><ele>798.6666666666666</ele><time>2026-04-25T09:31:35.893Z</time></trkpt><trkpt lat="45.93369171235524" lon="8.847113659539653"><ele>796.0</ele><time>2026-04-25T09:31:36.893Z</time></trkpt><trkpt lat="45.9336128377707" lon="8.846939592258247"><ele>796.0</ele><time>2026-04-25T09:31:37.893Z</time></trkpt><trkpt lat="45.933513078601806" lon="8.846808476920605"><ele>796.0</ele><time>2026-04-25T09:31:38.893Z</time></trkpt><trkpt lat="45.93325074944054" lon="8.846528783400416"><ele>785.0</ele><time>2026-04-25T09:31:40.821Z</time></trkpt><trkpt lat="45.93277732446598" lon="8.846182234792371"><ele>785.0</ele><time>2026-04-25T09:31:43.821Z</time></trkpt><trkpt lat="45.93262103695175" lon="8.84608565723435"><ele>785.0</ele><time>2026-04-25T09:31:44.821Z</time></trkpt><trkpt lat="45.932473174245885" lon="8.846006063023736"><ele>785.0</ele><time>2026-04-25T09:31:45.821Z</time></trkpt><trkpt lat="45.93233806046562" lon="8.84591556871994"><ele>782.25</ele><time>2026-04-25T09:31:46.821Z</time></trkpt><trkpt lat="45.93221048092361" lon="8.84581596706199"><ele>779.5</ele><time>2026-04-25T09:31:47.821Z</time></trkpt><trkpt lat="45.9320865539015" lon="8.845716865348043"><ele>776.75</ele><time>2026-04-25T09:31:48.821Z</time></trkpt><trkpt lat="45.931962632629556" lon="8.845632301818515"><ele>774.0</ele><time>2026-04-25T09:31:49.821Z</time></trkpt><trkpt lat="45.93182182812592" lon="8.845557283994735"><ele>774.25</ele><time>2026-04-25T09:31:50.821Z</time></trkpt><trkpt lat="45.9316868168896" lon="8.845488640966426"><ele>774.5</ele><time>2026-04-25T09:31:51.821Z</time></trkpt><trkpt lat="45.93156038275956" lon="8.8454247384258"><ele>774.75</ele><time>2026-04-25T09:31:52.821Z</time></trkpt><trkpt lat="45.931429654321214" lon="8.845385981816488"><ele>775.0</ele><time>2026-04-25T09:31:53.821Z</time></trkpt><trkpt lat="45.93130512239957" lon="8.845358055734017"><ele>775.0</ele><time>2026-04-25T09:31:54.821Z</time></trkpt><trkpt lat="45.9311925919014" lon="8.845337485191855"><ele>775.0</ele><time>2026-04-25T09:31:55.821Z</time></trkpt><trkpt lat="45.931087079333906" lon="8.845366453874442"><ele>775.0</ele><time>2026-04-25T09:31:56.821Z</time></trkpt><trkpt lat="45.930996898392664" lon="8.845447695717343"><ele>775.0</ele><time>2026-04-25T09:31:57.821Z</time></trkpt><trkpt lat="45.93091844412837" lon="8.845545992137476"><ele>775.0</ele><time>2026-04-25T09:31:58.821Z</time></trkpt><trkpt lat="45.9308449722839" lon="8.845597710758351"><ele>775.0</ele><time>2026-04-25T09:31:59.821Z</time></trkpt><trkpt lat="45.93077602287449" lon="8.845518725671578"><ele>775.0</ele><time>2026-04-25T09:32:01.821Z</time></trkpt><trkpt lat="45.93081405426669" lon="8.845375263856463"><ele>775.0</ele><time>2026-04-25T09:32:03.821Z</time></trkpt><trkpt lat="45.93088820052829" lon="8.845327318990863"><ele>775.0</ele><time>2026-04-25T09:32:04.821Z</time></trkpt><trkpt lat="45.93098766387472" lon="8.845279825992444"><ele>775.0</ele><time>2026-04-25T09:32:05.821Z</time></trkpt><trkpt lat="45.93108546604378" lon="8.845205049412408"><ele>771.25</ele><time>2026-04-25T09:32:06.821Z</time></trkpt><trkpt lat="45.93120001061483" lon="8.845096584981388"><ele>767.5</ele><time>2026-04-25T09:32:07.821Z</time></trkpt><trkpt lat="45.9312992920473" lon="8.844993799086993"><ele>763.75</ele><time>2026-04-25T09:32:08.821Z</time></trkpt><trkpt lat="45.931408293865516" lon="8.844915275742203"><ele>760.0</ele><time>2026-04-25T09:32:09.821Z</time></trkpt><trkpt lat="45.93155639881326" lon="8.84483838901847"><ele>760.0</ele><time>2026-04-25T09:32:10.821Z</time></trkpt><trkpt lat="45.931723492889915" lon="8.844785698051222"><ele>760.0</ele><time>2026-04-25T09:32:11.821Z</time></trkpt><trkpt lat="45.93186698236592" lon="8.844731462541812"><ele>760.0</ele><time>2026-04-25T09:32:12.821Z</time></trkpt><trkpt lat="45.9320005253782" lon="8.84469516253189"><ele>760.25</ele><time>2026-04-25T09:32:13.821Z</time></trkpt><trkpt lat="45.93212514414422" lon="8.844634710025039"><ele>760.5</ele><time>2026-04-25T09:32:14.821Z</time></trkpt><trkpt lat="45.93224877667614" lon="8.844546785544985"><ele>760.75</ele><time>2026-04-25T09:32:15.821Z</time></trkpt><trkpt lat="45.93236499836552" lon="8.844452360811466"><ele>761.0</ele><time>2026-04-25T09:32:16.821Z</time></trkpt><trkpt lat="45.932486804268606" lon="8.844367451164338"><ele>760.5999999999999</ele><time>2026-04-25T09:32:17.821Z</time></trkpt><trkpt lat="45.932608200368165" lon="8.844319218580054"><ele>760.2</ele><time>2026-04-25T09:32:18.821Z</time></trkpt><trkpt lat="45.93271797585252" lon="8.844295737947304"><ele>759.8</ele><time>2026-04-25T09:32:19.821Z</time></trkpt><trkpt lat="45.93281079753608" lon="8.844293176978907"><ele>759.4000000000001</ele><time>2026-04-25T09:32:20.821Z</time></trkpt><trkpt lat="45.93289420828545" lon="8.844298661455557"><ele>759.0</ele><time>2026-04-25T09:32:21.821Z</time></trkpt><trkpt lat="45.932962943099575" lon="8.844316038116549"><ele>756.0</ele><time>2026-04-25T09:32:22.821Z</time></trkpt><trkpt lat="45.933019613275974" lon="8.844168463222337"><ele>753.0</ele><time>2026-04-25T09:32:24.821Z</time></trkpt><trkpt lat="45.932990322399895" lon="8.844037270183035"><ele>750.0</ele><time>2026-04-25T09:32:25.821Z</time></trkpt><trkpt lat="45.93293423740746" lon="8.843877580319033"><ele>747.0</ele><time>2026-04-25T09:32:26.821Z</time></trkpt><trkpt lat="45.93285616626874" lon="8.84366966456787"><ele>747.0</ele><time>2026-04-25T09:32:27.821Z</time></trkpt><trkpt lat="45.932764250999035" lon="8.843491465610375"><ele>747.0</ele><time>2026-04-25T09:32:28.821Z</time></trkpt><trkpt lat="45.93267184023724" lon="8.843342125300014"><ele>747.0</ele><time>2026-04-25T09:32:29.821Z</time></trkpt><trkpt lat="45.932592487029" lon="8.843194514663692"><ele>747.0</ele><time>2026-04-25T09:32:30.821Z</time></trkpt><trkpt lat="45.93251805624048" lon="8.843062662970985"><ele>744.25</ele><time>2026-04-25T09:32:31.821Z</time></trkpt><trkpt lat="45.932428121821246" lon="8.842953091897416"><ele>741.5</ele><time>2026-04-25T09:32:32.821Z</time></trkpt><trkpt lat="45.93231413072384" lon="8.842879272308654"><ele>738.75</ele><time>2026-04-25T09:32:33.821Z</time></trkpt><trkpt lat="45.9321801359426" lon="8.842819904481631"><ele>736.0</ele><time>2026-04-25T09:32:34.821Z</time></trkpt><trkpt lat="45.93204406168003" lon="8.842761887467057"><ele>736.0</ele><time>2026-04-25T09:32:35.821Z</time></trkpt><trkpt lat="45.93186587915535" lon="8.842699674440729"><ele>736.0</ele><time>2026-04-25T09:32:36.82Z</time></trkpt><trkpt lat="45.93171965803023" lon="8.842628158786347"><ele>736.0</ele><time>2026-04-25T09:32:37.82Z</time></trkpt><trkpt lat="45.93157076161737" lon="8.842525897346418"><ele>733.0</ele><time>2026-04-25T09:32:38.82Z</time></trkpt><trkpt lat="45.931442977200625" lon="8.842444709947804"><ele>730.0</ele><time>2026-04-25T09:32:39.82Z</time></trkpt><trkpt lat="45.931329393152545" lon="8.842387198037956"><ele>727.0</ele><time>2026-04-25T09:32:40.82Z</time></trkpt><trkpt lat="45.93123096819136" lon="8.842340022387596"><ele>724.0</ele><time>2026-04-25T09:32:41.82Z</time></trkpt><trkpt lat="45.93114668456639" lon="8.842348154043185"><ele>721.0</ele><time>2026-04-25T09:32:42.82Z</time></trkpt><trkpt lat="45.9310764433942" lon="8.842374603502238"><ele>721.0</ele><time>2026-04-25T09:32:43.818Z</time></trkpt><trkpt lat="45.93100577862015" lon="8.84234825690768"><ele>721.0</ele><time>2026-04-25T09:32:45.818Z</time></trkpt><trkpt lat="45.931070427257815" lon="8.842181497568681"><ele>721.0</ele><time>2026-04-25T09:32:47.818Z</time></trkpt><trkpt lat="45.93115769982054" lon="8.842076792653923"><ele>721.0</ele><time>2026-04-25T09:32:48.818Z</time></trkpt><trkpt lat="45.93125785209461" lon="8.842006941514127"><ele>721.0</ele><time>2026-04-25T09:32:49.818Z</time></trkpt><trkpt lat="45.931327827755695" lon="8.841915520818956"><ele>719.5999999999999</ele><time>2026-04-25T09:32:50.818Z</time></trkpt><trkpt lat="45.93136179991594" lon="8.84177406225497"><ele>718.2</ele><time>2026-04-25T09:32:51.818Z</time></trkpt><trkpt lat="45.93137453755377" lon="8.841611174852698"><ele>716.8</ele><time>2026-04-25T09:32:52.818Z</time></trkpt><trkpt lat="45.931404570916015" lon="8.841476401540113"><ele>715.4000000000001</ele><time>2026-04-25T09:32:53.818Z</time></trkpt><trkpt lat="45.93145923055872" lon="8.841358832698797"><ele>714.0</ele><time>2026-04-25T09:32:54.818Z</time></trkpt><trkpt lat="45.931546463467775" lon="8.84124263865518"><ele>714.0</ele><time>2026-04-25T09:32:55.818Z</time></trkpt><trkpt lat="45.93164069267" lon="8.84111178090074"><ele>714.0</ele><time>2026-04-25T09:32:56.818Z</time></trkpt><trkpt lat="45.93172158825954" lon="8.84097409134932"><ele>714.0</ele><time>2026-04-25T09:32:57.818Z</time></trkpt><trkpt lat="45.9318276878221" lon="8.840876886488175"><ele>714.0</ele><time>2026-04-25T09:32:58.818Z</time></trkpt><trkpt lat="45.931932488005415" lon="8.84079569477216"><ele>710.0</ele><time>2026-04-25T09:32:59.818Z</time></trkpt><trkpt lat="45.9320157675525" lon="8.840687973089858"><ele>706.0</ele><time>2026-04-25T09:33:00.818Z</time></trkpt><trkpt lat="45.93208953248142" lon="8.840564815012092"><ele>702.0</ele><time>2026-04-25T09:33:01.818Z</time></trkpt><trkpt lat="45.93212695612323" lon="8.840393055193843"><ele>698.0</ele><time>2026-04-25T09:33:02.818Z</time></trkpt><trkpt lat="45.932175371960156" lon="8.840246873774738"><ele>698.0</ele><time>2026-04-25T09:33:03.818Z</time></trkpt><trkpt lat="45.93223550149126" lon="8.840153931339803"><ele>698.0</ele><time>2026-04-25T09:33:04.818Z</time></trkpt><trkpt lat="45.93231686212957" lon="8.84009455775781"><ele>698.0</ele><time>2026-04-25T09:33:05.818Z</time></trkpt><trkpt lat="45.932418712945214" lon="8.840081967098591"><ele>698.0</ele><time>2026-04-25T09:33:06.818Z</time></trkpt><trkpt lat="45.932511911149845" lon="8.840091868627418"><ele>698.0</ele><time>2026-04-25T09:33:07.818Z</time></trkpt><trkpt lat="45.93260088776456" lon="8.840149709374895"><ele>695.5999999999999</ele><time>2026-04-25T09:33:08.818Z</time></trkpt><trkpt lat="45.9326829530606" lon="8.8402214756327"><ele>693.1999999999999</ele><time>2026-04-25T09:33:09.818Z</time></trkpt><trkpt lat="45.932759734403405" lon="8.840278853116969"><ele>690.8</ele><time>2026-04-25T09:33:10.818Z</time></trkpt><trkpt lat="45.93283083480546" lon="8.84031758394968"><ele>688.4</ele><time>2026-04-25T09:33:11.817Z</time></trkpt><trkpt lat="45.93291317852309" lon="8.840228977216704"><ele>686.0</ele><time>2026-04-25T09:33:13.817Z</time></trkpt><trkpt lat="45.93290654609606" lon="8.840101060976151"><ele>686.25</ele><time>2026-04-25T09:33:14.817Z</time></trkpt><trkpt lat="45.93283445237449" lon="8.839992613084721"><ele>686.5</ele><time>2026-04-25T09:33:15.817Z</time></trkpt><trkpt lat="45.93273145664015" lon="8.839856719113648"><ele>686.75</ele><time>2026-04-25T09:33:16.817Z</time></trkpt><trkpt lat="45.932619833829854" lon="8.83967788305023"><ele>687.0</ele><time>2026-04-25T09:33:17.817Z</time></trkpt><trkpt lat="45.93250784218742" lon="8.839506699002856"><ele>687.0</ele><time>2026-04-25T09:33:18.817Z</time></trkpt><trkpt lat="45.932400382371" lon="8.83933173585765"><ele>687.0</ele><time>2026-04-25T09:33:19.817Z</time></trkpt><trkpt lat="45.93229226852431" lon="8.839146855623328"><ele>687.0</ele><time>2026-04-25T09:33:20.817Z</time></trkpt><trkpt lat="45.93218858575453" lon="8.838962174201404"><ele>682.0</ele><time>2026-04-25T09:33:21.817Z</time></trkpt><trkpt lat="45.93208434255343" lon="8.838781518925709"><ele>677.0</ele><time>2026-04-25T09:33:22.817Z</time></trkpt><trkpt lat="45.93196954033099" lon="8.838607255777287"><ele>672.0</ele><time>2026-04-25T09:33:23.817Z</time></trkpt><trkpt lat="45.93186467780283" lon="8.838418443356927"><ele>668.6666666666666</ele><time>2026-04-25T09:33:24.817Z</time></trkpt><trkpt lat="45.931757624768125" lon="8.838227651579974"><ele>665.3333333333333</ele><time>2026-04-25T09:33:25.817Z</time></trkpt><trkpt lat="45.93165704005534" lon="8.838015199899942"><ele>662.0</ele><time>2026-04-25T09:33:26.817Z</time></trkpt><trkpt lat="45.93155222977999" lon="8.837826138601775"><ele>662.0</ele><time>2026-04-25T09:33:27.817Z</time></trkpt><trkpt lat="45.93145333749049" lon="8.83764093730413"><ele>662.0</ele><time>2026-04-25T09:33:28.817Z</time></trkpt><trkpt lat="45.9313561145131" lon="8.837443838529229"><ele>662.0</ele><time>2026-04-25T09:33:29.817Z</time></trkpt><trkpt lat="45.93127928823305" lon="8.83727099638409"><ele>660.2</ele><time>2026-04-25T09:33:30.817Z</time></trkpt><trkpt lat="45.93120775188655" lon="8.83711920172462"><ele>658.4000000000001</ele><time>2026-04-25T09:33:31.817Z</time></trkpt><trkpt lat="45.931136707834504" lon="8.837007405111548"><ele>656.5999999999999</ele><time>2026-04-25T09:33:32.817Z</time></trkpt><trkpt lat="45.93106938394912" lon="8.836923003144344"><ele>654.8</ele><time>2026-04-25T09:33:33.817Z</time></trkpt><trkpt lat="45.93101765019273" lon="8.836825277357903"><ele>653.0</ele><time>2026-04-25T09:33:34.817Z</time></trkpt><trkpt lat="45.931001469425766" lon="8.836705274916183"><ele>651.8</ele><time>2026-04-25T09:33:35.817Z</time></trkpt><trkpt lat="45.93101200992691" lon="8.836573548050364"><ele>650.5999999999999</ele><time>2026-04-25T09:33:36.817Z</time></trkpt><trkpt lat="45.93105655773744" lon="8.83643053330529"><ele>649.4000000000001</ele><time>2026-04-25T09:33:37.817Z</time></trkpt><trkpt lat="45.931120095684605" lon="8.836320746348019"><ele>648.2</ele><time>2026-04-25T09:33:38.817Z</time></trkpt><trkpt lat="45.9311906851781" lon="8.83622035890824"><ele>647.0</ele><time>2026-04-25T09:33:39.817Z</time></trkpt><trkpt lat="45.93127022849542" lon="8.836141609003885"><ele>647.0</ele><time>2026-04-25T09:33:40.817Z</time></trkpt><trkpt lat="45.931363171746405" lon="8.83609659996085"><ele>647.0</ele><time>2026-04-25T09:33:41.817Z</time></trkpt><trkpt lat="45.93144266208887" lon="8.83607346311418"><ele>647.0</ele><time>2026-04-25T09:33:42.817Z</time></trkpt><trkpt lat="45.93154506357523" lon="8.835958828987385"><ele>647.0</ele><time>2026-04-25T09:33:44.817Z</time></trkpt><trkpt lat="45.931542621006635" lon="8.835826152396978"><ele>647.0</ele><time>2026-04-25T09:33:45.817Z</time></trkpt><trkpt lat="45.931534685916525" lon="8.835652355538905"><ele>645.3333333333333</ele><time>2026-04-25T09:33:46.817Z</time></trkpt><trkpt lat="45.93150901961343" lon="8.83544508574484"><ele>643.6666666666666</ele><time>2026-04-25T09:33:47.817Z</time></trkpt><trkpt lat="45.93148401020177" lon="8.83521934681251"><ele>642.0</ele><time>2026-04-25T09:33:48.817Z</time></trkpt><trkpt lat="45.93144350808254" lon="8.834996195823797"><ele>639.8000000000001</ele><time>2026-04-25T09:33:49.817Z</time></trkpt><trkpt lat="45.93140982717704" lon="8.834829998146521"><ele>637.6</ele><time>2026-04-25T09:33:50.817Z</time></trkpt><trkpt lat="45.9313909220993" lon="8.834703257313485"><ele>635.4000000000001</ele><time>2026-04-25T09:33:51.817Z</time></trkpt><trkpt lat="45.93137396134407" lon="8.834595458848815"><ele>633.2</ele><time>2026-04-25T09:33:52.817Z</time></trkpt><trkpt lat="45.931345085120405" lon="8.834490573928326"><ele>631.0</ele><time>2026-04-25T09:33:53.817Z</time></trkpt><trkpt lat="45.93123152304821" lon="8.834436969385354"><ele>631.0</ele><time>2026-04-25T09:33:55.817Z</time></trkpt><trkpt lat="45.93116634650994" lon="8.834570802212605"><ele>631.0</ele><time>2026-04-25T09:33:57.817Z</time></trkpt><trkpt lat="45.931164595695776" lon="8.834728680215468"><ele>631.0</ele><time>2026-04-25T09:33:58.817Z</time></trkpt><trkpt lat="45.93113000789093" lon="8.83483023981722"><ele>631.0</ele><time>2026-04-25T09:33:59.817Z</time></trkpt><trkpt lat="45.931059407609624" lon="8.834877712113144"><ele>631.0</ele><time>2026-04-25T09:34:00.817Z</time></trkpt><trkpt lat="45.930955276782676" lon="8.834817509343097"><ele>630.25</ele><time>2026-04-25T09:34:01.817Z</time></trkpt><trkpt lat="45.93083544139402" lon="8.83474234693808"><ele>629.5</ele><time>2026-04-25T09:34:02.817Z</time></trkpt><trkpt lat="45.930707491528956" lon="8.83463728683457"><ele>628.75</ele><time>2026-04-25T09:34:03.817Z</time></trkpt><trkpt lat="45.93056844197032" lon="8.834581836339384"><ele>628.0</ele><time>2026-04-25T09:34:04.817Z</time></trkpt><trkpt lat="45.93044613742795" lon="8.834557198864868"><ele>628.0</ele><time>2026-04-25T09:34:05.817Z</time></trkpt><trkpt lat="45.93033470319316" lon="8.834510048027306"><ele>628.0</ele><time>2026-04-25T09:34:06.817Z</time></trkpt><trkpt lat="45.93024765413335" lon="8.834459495718539"><ele>628.0</ele><time>2026-04-25T09:34:07.817Z</time></trkpt><trkpt lat="45.93018774513152" lon="8.834330693972493"><ele>628.0</ele><time>2026-04-25T09:34:09.817Z</time></trkpt><trkpt lat="45.930280221217934" lon="8.834227414382232"><ele>628.0</ele><time>2026-04-25T09:34:11.817Z</time></trkpt><trkpt lat="45.93035016900714" lon="8.834243853317643"><ele>625.8</ele><time>2026-04-25T09:34:12.817Z</time></trkpt><trkpt lat="45.930421890717135" lon="8.83414366941388"><ele>623.5999999999999</ele><time>2026-04-25T09:34:14.817Z</time></trkpt><trkpt lat="45.93040609944643" lon="8.834023778554283"><ele>621.4000000000001</ele><time>2026-04-25T09:34:15.817Z</time></trkpt><trkpt lat="45.93038878131983" lon="8.83386723661781"><ele>619.2</ele><time>2026-04-25T09:34:16.817Z</time></trkpt><trkpt lat="45.9303676721733" lon="8.83371021846546"><ele>617.0</ele><time>2026-04-25T09:34:17.817Z</time></trkpt><trkpt lat="45.93036623403158" lon="8.833565805394725"><ele>614.4</ele><time>2026-04-25T09:34:18.817Z</time></trkpt><trkpt lat="45.930380352831094" lon="8.833461324665857"><ele>611.8000000000001</ele><time>2026-04-25T09:34:19.817Z</time></trkpt><trkpt lat="45.93031614380593" lon="8.833366429941814"><ele>609.2</ele><time>2026-04-25T09:34:21.817Z</time></trkpt><trkpt lat="45.93024590084508" lon="8.833347283679446"><ele>606.6</ele><time>2026-04-25T09:34:22.817Z</time></trkpt><trkpt lat="45.93014058824468" lon="8.83334261208346"><ele>604.0</ele><time>2026-04-25T09:34:23.817Z</time></trkpt><trkpt lat="45.93001218479287" lon="8.83334753663369"><ele>602.75</ele><time>2026-04-25T09:34:24.816Z</time></trkpt><trkpt lat="45.92985781165315" lon="8.833325704283046"><ele>601.5</ele><time>2026-04-25T09:34:25.816Z</time></trkpt><trkpt lat="45.92973715763367" lon="8.833258754398214"><ele>600.25</ele><time>2026-04-25T09:34:26.816Z</time></trkpt><trkpt lat="45.92964593877077" lon="8.833119529976727"><ele>599.0</ele><time>2026-04-25T09:34:27.816Z</time></trkpt><trkpt lat="45.929580253466604" lon="8.832944700645998"><ele>599.0</ele><time>2026-04-25T09:34:28.816Z</time></trkpt><trkpt lat="45.92953306516735" lon="8.832769708468721"><ele>599.0</ele><time>2026-04-25T09:34:29.816Z</time></trkpt><trkpt lat="45.92948642333489" lon="8.832585926623414"><ele>599.0</ele><time>2026-04-25T09:34:30.816Z</time></trkpt><trkpt lat="45.929443053578375" lon="8.832420675281544"><ele>599.0</ele><time>2026-04-25T09:34:31.816Z</time></trkpt><trkpt lat="45.92939714555752" lon="8.832271663151001"><ele>597.0</ele><time>2026-04-25T09:34:32.816Z</time></trkpt><trkpt lat="45.929344097331814" lon="8.832155041683952"><ele>595.0</ele><time>2026-04-25T09:34:33.816Z</time></trkpt><trkpt lat="45.92926943603294" lon="8.832034450466221"><ele>593.0</ele><time>2026-04-25T09:34:34.816Z</time></trkpt><trkpt lat="45.929159739600465" lon="8.831951458887753"><ele>591.0</ele><time>2026-04-25T09:34:35.816Z</time></trkpt><trkpt lat="45.92902715028812" lon="8.83187432052922"><ele>591.0</ele><time>2026-04-25T09:34:36.816Z</time></trkpt><trkpt lat="45.928898596638525" lon="8.831807614980681"><ele>591.0</ele><time>2026-04-25T09:34:37.816Z</time></trkpt><trkpt lat="45.9287689435458" lon="8.831726820074465"><ele>591.0</ele><time>2026-04-25T09:34:38.816Z</time></trkpt><trkpt lat="45.928649245688426" lon="8.83162589429966"><ele>591.0</ele><time>2026-04-25T09:34:39.816Z</time></trkpt><trkpt lat="45.92854302715519" lon="8.831486426571733"><ele>589.75</ele><time>2026-04-25T09:34:40.816Z</time></trkpt><trkpt lat="45.928431260495664" lon="8.831335275051929"><ele>588.5</ele><time>2026-04-25T09:34:41.816Z</time></trkpt><trkpt lat="45.92833130671878" lon="8.831200958435007"><ele>587.25</ele><time>2026-04-25T09:34:42.816Z</time></trkpt><trkpt lat="45.928241533912775" lon="8.83108930395078"><ele>586.0</ele><time>2026-04-25T09:34:43.816Z</time></trkpt><trkpt lat="45.92815654631301" lon="8.830986875117766"><ele>584.2</ele><time>2026-04-25T09:34:44.816Z</time></trkpt><trkpt lat="45.92807396299381" lon="8.830878936454669"><ele>582.4000000000001</ele><time>2026-04-25T09:34:45.816Z</time></trkpt><trkpt lat="45.928002685045854" lon="8.830793276815953"><ele>580.6</ele><time>2026-04-25T09:34:46.816Z</time></trkpt><trkpt lat="45.927915584489305" lon="8.83073101423226"><ele>578.8000000000001</ele><time>2026-04-25T09:34:47.816Z</time></trkpt><trkpt lat="45.92783296112767" lon="8.830676206029684"><ele>577.0</ele><time>2026-04-25T09:34:48.816Z</time></trkpt><trkpt lat="45.927782372878426" lon="8.830598363989685"><ele>577.0</ele><time>2026-04-25T09:34:49.815Z</time></trkpt><trkpt lat="45.92775592052482" lon="8.830504430533509"><ele>577.0</ele><time>2026-04-25T09:34:50.814Z</time></trkpt><trkpt lat="45.92777955600756" lon="8.830414905628365"><ele>577.0</ele><time>2026-04-25T09:34:51.814Z</time></trkpt><trkpt lat="45.92782364095812" lon="8.830320276176758"><ele>577.0</ele><time>2026-04-25T09:34:52.814Z</time></trkpt><trkpt lat="45.92789521493491" lon="8.830178004000478"><ele>577.0</ele><time>2026-04-25T09:34:53.814Z</time></trkpt><trkpt lat="45.927970364770395" lon="8.830060456504535"><ele>577.0</ele><time>2026-04-25T09:34:54.814Z</time></trkpt><trkpt lat="45.92800546603028" lon="8.829962928226065"><ele>574.0</ele><time>2026-04-25T09:34:55.814Z</time></trkpt><trkpt lat="45.92798210414497" lon="8.829815211158529"><ele>571.0</ele><time>2026-04-25T09:34:57.814Z</time></trkpt><trkpt lat="45.92789454505253" lon="8.829768414219954"><ele>568.0</ele><time>2026-04-25T09:34:58.814Z</time></trkpt><trkpt lat="45.9277786775573" lon="8.829774336442448"><ele>565.0</ele><time>2026-04-25T09:34:59.814Z</time></trkpt><trkpt lat="45.92764258101118" lon="8.829762581738354"><ele>564.2</ele><time>2026-04-25T09:35:00.814Z</time></trkpt><trkpt lat="45.9275186138215" lon="8.829804685179115"><ele>563.4</ele><time>2026-04-25T09:35:01.814Z</time></trkpt><trkpt lat="45.927424820133666" lon="8.829842335744186"><ele>562.6</ele><time>2026-04-25T09:35:02.813Z</time></trkpt><trkpt lat="45.927343586980875" lon="8.829834593769828"><ele>561.8</ele><time>2026-04-25T09:35:03.813Z</time></trkpt><trkpt lat="45.927284688537405" lon="8.829767132134867"><ele>561.0</ele><time>2026-04-25T09:35:04.813Z</time></trkpt><trkpt lat="45.92725996916185" lon="8.829644053270927"><ele>561.0</ele><time>2026-04-25T09:35:05.813Z</time></trkpt><trkpt lat="45.92725554009689" lon="8.829496109374347"><ele>561.0</ele><time>2026-04-25T09:35:06.813Z</time></trkpt><trkpt lat="45.92730260447355" lon="8.829333594670798"><ele>561.0</ele><time>2026-04-25T09:35:07.813Z</time></trkpt><trkpt lat="45.92737267688111" lon="8.829199922262198"><ele>561.0</ele><time>2026-04-25T09:35:08.813Z</time></trkpt><trkpt lat="45.92738926334877" lon="8.829077704788697"><ele>561.0</ele><time>2026-04-25T09:35:09.813Z</time></trkpt><trkpt lat="45.927380579774095" lon="8.828960901883052"><ele>559.5</ele><time>2026-04-25T09:35:10.813Z</time></trkpt><trkpt lat="45.92733949255566" lon="8.828838920033922"><ele>558.0</ele><time>2026-04-25T09:35:11.813Z</time></trkpt><trkpt lat="45.92729934741912" lon="8.828722099404045"><ele>556.5</ele><time>2026-04-25T09:35:12.813Z</time></trkpt><trkpt lat="45.92719451453318" lon="8.828624698635446"><ele>555.0</ele><time>2026-04-25T09:35:13.813Z</time></trkpt><trkpt lat="45.927038525861036" lon="8.82852818907013"><ele>550.6666666666666</ele><time>2026-04-25T09:35:14.813Z</time></trkpt><trkpt lat="45.92687842142371" lon="8.828444708202534"><ele>546.3333333333333</ele><time>2026-04-25T09:35:15.813Z</time></trkpt><trkpt lat="45.92672108116399" lon="8.828360214110427"><ele>542.0</ele><time>2026-04-25T09:35:16.813Z</time></trkpt><trkpt lat="45.92658226139966" lon="8.828291091086323"><ele>541.75</ele><time>2026-04-25T09:35:17.813Z</time></trkpt><trkpt lat="45.926447054615664" lon="8.82825015916735"><ele>541.5</ele><time>2026-04-25T09:35:18.813Z</time></trkpt><trkpt lat="45.92633740182611" lon="8.828209211222656"><ele>541.25</ele><time>2026-04-25T09:35:19.813Z</time></trkpt><trkpt lat="45.9262368647129" lon="8.828157227040329"><ele>541.0</ele><time>2026-04-25T09:35:20.813Z</time></trkpt><trkpt lat="45.9261622831539" lon="8.828061343209717"><ele>541.0</ele><time>2026-04-25T09:35:21.813Z</time></trkpt><trkpt lat="45.92610324097139" lon="8.827949224149794"><ele>541.0</ele><time>2026-04-25T09:35:22.813Z</time></trkpt><trkpt lat="45.92607445464099" lon="8.827864913509465"><ele>541.0</ele><time>2026-04-25T09:35:23.813Z</time></trkpt><trkpt lat="45.926146096334875" lon="8.827685031665652"><ele>541.0</ele><time>2026-04-25T09:35:25.813Z</time></trkpt><trkpt lat="45.92624135495623" lon="8.827563788180433"><ele>541.0</ele><time>2026-04-25T09:35:26.813Z</time></trkpt><trkpt lat="45.926386654854554" lon="8.827476969560008"><ele>538.4</ele><time>2026-04-25T09:35:27.813Z</time></trkpt><trkpt lat="45.92649576785759" lon="8.82745744714435"><ele>535.8</ele><time>2026-04-25T09:35:28.813Z</time></trkpt><trkpt lat="45.92658680826205" lon="8.827471144381846"><ele>533.1999999999999</ele><time>2026-04-25T09:35:29.813Z</time></trkpt><trkpt lat="45.92668109365762" lon="8.827484723342346"><ele>530.6</ele><time>2026-04-25T09:35:30.813Z</time></trkpt><trkpt lat="45.9267791398362" lon="8.82747697826786"><ele>528.0</ele><time>2026-04-25T09:35:31.813Z</time></trkpt><trkpt lat="45.9269123526604" lon="8.827511585787516"><ele>528.0</ele><time>2026-04-25T09:35:32.813Z</time></trkpt><trkpt lat="45.927041602016324" lon="8.827544934200581"><ele>528.0</ele><time>2026-04-25T09:35:33.813Z</time></trkpt><trkpt lat="45.9271524113154" lon="8.827595887747163"><ele>528.0</ele><time>2026-04-25T09:35:34.813Z</time></trkpt><trkpt lat="45.927236953545545" lon="8.827621432369245"><ele>528.0</ele><time>2026-04-25T09:35:35.813Z</time></trkpt><trkpt lat="45.92731085626221" lon="8.827580764522265"><ele>528.0</ele><time>2026-04-25T09:35:36.813Z</time></trkpt><trkpt lat="45.927376848305066" lon="8.827461101299638"><ele>528.0</ele><time>2026-04-25T09:35:37.813Z</time></trkpt><trkpt lat="45.92743354073556" lon="8.827316204033538"><ele>528.0</ele><time>2026-04-25T09:35:38.813Z</time></trkpt><trkpt lat="45.927480994483275" lon="8.827143430743561"><ele>528.0</ele><time>2026-04-25T09:35:39.813Z</time></trkpt><trkpt lat="45.92754191793934" lon="8.826970210512513"><ele>528.0</ele><time>2026-04-25T09:35:40.813Z</time></trkpt><trkpt lat="45.92761046867546" lon="8.826827333643859"><ele>526.6</ele><time>2026-04-25T09:35:41.813Z</time></trkpt><trkpt lat="45.927689302710974" lon="8.826719553978853"><ele>525.1999999999999</ele><time>2026-04-25T09:35:42.813Z</time></trkpt><trkpt lat="45.92777022073104" lon="8.82663266433506"><ele>523.8</ele><time>2026-04-25T09:35:43.813Z</time></trkpt><trkpt lat="45.92786412590194" lon="8.826570448578531"><ele>522.4</ele><time>2026-04-25T09:35:44.813Z</time></trkpt><trkpt lat="45.92798483580701" lon="8.8265145525562"><ele>521.0</ele><time>2026-04-25T09:35:45.813Z</time></trkpt><trkpt lat="45.92814003812744" lon="8.82646238309171"><ele>521.0</ele><time>2026-04-25T09:35:46.813Z</time></trkpt><trkpt lat="45.928299261758454" lon="8.826404663157682"><ele>521.0</ele><time>2026-04-25T09:35:47.813Z</time></trkpt><trkpt lat="45.92845312838575" lon="8.826326293936088"><ele>521.0</ele><time>2026-04-25T09:35:48.813Z</time></trkpt><trkpt lat="45.928605394223595" lon="8.82623711308938"><ele>522.75</ele><time>2026-04-25T09:35:49.813Z</time></trkpt><trkpt lat="45.928751464832374" lon="8.826166940213353"><ele>524.5</ele><time>2026-04-25T09:35:50.813Z</time></trkpt><trkpt lat="45.928889291355176" lon="8.826112317261583"><ele>526.25</ele><time>2026-04-25T09:35:51.813Z</time></trkpt><trkpt lat="45.92900915309735" lon="8.826083861238619"><ele>528.0</ele><time>2026-04-25T09:35:52.813Z</time></trkpt><trkpt lat="45.92910206127728" lon="8.826073578083482"><ele>528.0</ele><time>2026-04-25T09:35:53.813Z</time></trkpt><trkpt lat="45.92917236510019" lon="8.826065876091356"><ele>528.0</ele><time>2026-04-25T09:35:54.813Z</time></trkpt><trkpt lat="45.9292071949814" lon="8.82595497705515"><ele>528.0</ele><time>2026-04-25T09:35:56.813Z</time></trkpt><trkpt lat="45.92908574006122" lon="8.825879516943854"><ele>528.0</ele><time>2026-04-25T09:35:58.813Z</time></trkpt><trkpt lat="45.92895636721468" lon="8.825902892130184"><ele>528.0</ele><time>2026-04-25T09:35:59.813Z</time></trkpt><trkpt lat="45.92881054994759" lon="8.825933330702524"><ele>521.0</ele><time>2026-04-25T09:36:00.813Z</time></trkpt><trkpt lat="45.92867945549191" lon="8.825929130103528"><ele>514.0</ele><time>2026-04-25T09:36:01.813Z</time></trkpt><trkpt lat="45.92856861541979" lon="8.82588558804229"><ele>507.0</ele><time>2026-04-25T09:36:02.813Z</time></trkpt><trkpt lat="45.92848901962252" lon="8.825807453762852"><ele>500.0</ele><time>2026-04-25T09:36:03.813Z</time></trkpt><trkpt lat="45.9284123651229" lon="8.82566469868207"><ele>499.25</ele><time>2026-04-25T09:36:04.813Z</time></trkpt><trkpt lat="45.92831004251094" lon="8.825506327135145"><ele>498.5</ele><time>2026-04-25T09:36:05.813Z</time></trkpt><trkpt lat="45.92820448359774" lon="8.825394012421933"><ele>497.75</ele><time>2026-04-25T09:36:06.813Z</time></trkpt><trkpt lat="45.928117344337515" lon="8.825309975002854"><ele>497.0</ele><time>2026-04-25T09:36:07.813Z</time></trkpt><trkpt lat="45.928048906531686" lon="8.82521026746368"><ele>494.0</ele><time>2026-04-25T09:36:08.813Z</time></trkpt><trkpt lat="45.928010871106984" lon="8.82508157260442"><ele>491.00000000000006</ele><time>2026-04-25T09:36:09.813Z</time></trkpt><trkpt lat="45.928003683546216" lon="8.824924771475374"><ele>488.00000000000006</ele><time>2026-04-25T09:36:10.813Z</time></trkpt><trkpt lat="45.92801088368083" lon="8.824791108086613"><ele>485.0</ele><time>2026-04-25T09:36:11.813Z</time></trkpt><trkpt lat="45.9279985412099" lon="8.824676060137516"><ele>482.0</ele><time>2026-04-25T09:36:12.813Z</time></trkpt><trkpt lat="45.927941338243635" lon="8.824576983789008"><ele>482.0</ele><time>2026-04-25T09:36:13.813Z</time></trkpt><trkpt lat="45.927857666336315" lon="8.824498929978589"><ele>482.00000000000006</ele><time>2026-04-25T09:36:14.813Z</time></trkpt><trkpt lat="45.92776852336248" lon="8.824409803212909"><ele>482.00000000000006</ele><time>2026-04-25T09:36:15.812Z</time></trkpt><trkpt lat="45.92767703258718" lon="8.824294263420025"><ele>482.0</ele><time>2026-04-25T09:36:16.812Z</time></trkpt><trkpt lat="45.92759138615303" lon="8.824177273198236"><ele>482.0</ele><time>2026-04-25T09:36:17.812Z</time></trkpt><trkpt lat="45.927499331869384" lon="8.824061027219283"><ele>482.75</ele><time>2026-04-25T09:36:18.812Z</time></trkpt><trkpt lat="45.92739233917226" lon="8.823961432152455"><ele>483.5</ele><time>2026-04-25T09:36:19.812Z</time></trkpt><trkpt lat="45.92731173046892" lon="8.82384317178401"><ele>484.25</ele><time>2026-04-25T09:36:20.812Z</time></trkpt><trkpt lat="45.92722529970083" lon="8.823747927869915"><ele>485.0</ele><time>2026-04-25T09:36:21.812Z</time></trkpt><trkpt lat="45.927138909970814" lon="8.82364145766226"><ele>485.0</ele><time>2026-04-25T09:36:22.812Z</time></trkpt><trkpt lat="45.92706245599439" lon="8.823531341729339"><ele>485.0</ele><time>2026-04-25T09:36:23.812Z</time></trkpt><trkpt lat="45.926999570563964" lon="8.82341561265172"><ele>485.0</ele><time>2026-04-25T09:36:24.812Z</time></trkpt><trkpt lat="45.92695789074146" lon="8.823275134367783"><ele>485.0</ele><time>2026-04-25T09:36:25.812Z</time></trkpt><trkpt lat="45.926924140125685" lon="8.823114808388077"><ele>485.0</ele><time>2026-04-25T09:36:26.812Z</time></trkpt><trkpt lat="45.9268718887768" lon="8.822973052652536"><ele>485.0</ele><time>2026-04-25T09:36:27.812Z</time></trkpt><trkpt lat="45.926812562864" lon="8.822830532643536"><ele>485.0</ele><time>2026-04-25T09:36:28.812Z</time></trkpt><trkpt lat="45.926766624409844" lon="8.822713954155494"><ele>485.0</ele><time>2026-04-25T09:36:29.812Z</time></trkpt><trkpt lat="45.92668459480744" lon="8.822644054891313"><ele>485.0</ele><time>2026-04-25T09:36:30.812Z</time></trkpt><trkpt lat="45.92655943116301" lon="8.82260769118449"><ele>485.0</ele><time>2026-04-25T09:36:31.812Z</time></trkpt><trkpt lat="45.92643360089428" lon="8.822603574466884"><ele>482.25</ele><time>2026-04-25T09:36:32.812Z</time></trkpt><trkpt lat="45.926313084372914" lon="8.822611952797454"><ele>479.5</ele><time>2026-04-25T09:36:33.812Z</time></trkpt><trkpt lat="45.92618850240177" lon="8.822639586602367"><ele>476.75</ele><time>2026-04-25T09:36:34.812Z</time></trkpt><trkpt lat="45.92607848283225" lon="8.822659748276495"><ele>474.0</ele><time>2026-04-25T09:36:35.812Z</time></trkpt><trkpt lat="45.925970806194115" lon="8.822671954932899"><ele>471.79999999999995</ele><time>2026-04-25T09:36:36.812Z</time></trkpt><trkpt lat="45.925867233595184" lon="8.822715521482426"><ele>469.59999999999997</ele><time>2026-04-25T09:36:37.812Z</time></trkpt><trkpt lat="45.925769977691914" lon="8.822765678693953"><ele>467.4</ele><time>2026-04-25T09:36:38.812Z</time></trkpt><trkpt lat="45.92567659399923" lon="8.822811395690039"><ele>465.2</ele><time>2026-04-25T09:36:39.812Z</time></trkpt><trkpt lat="45.925601642873325" lon="8.822831885535319"><ele>463.0</ele><time>2026-04-25T09:36:40.812Z</time></trkpt><trkpt lat="45.925528298601726" lon="8.822824507920586"><ele>463.0</ele><time>2026-04-25T09:36:41.812Z</time></trkpt><trkpt lat="45.92547259017413" lon="8.822767627772691"><ele>462.99999999999994</ele><time>2026-04-25T09:36:42.812Z</time></trkpt><trkpt lat="45.92543156172881" lon="8.822664415561594"><ele>462.99999999999994</ele><time>2026-04-25T09:36:43.812Z</time></trkpt><trkpt lat="45.92539134715053" lon="8.822550577958658"><ele>463.0</ele><time>2026-04-25T09:36:44.812Z</time></trkpt><trkpt lat="45.925323652110535" lon="8.822428528181296"><ele>463.0</ele><time>2026-04-25T09:36:45.812Z</time></trkpt><trkpt lat="45.925255730604796" lon="8.822295399156244"><ele>461.59999999999997</ele><time>2026-04-25T09:36:46.812Z</time></trkpt><trkpt lat="45.92519443572189" lon="8.82216566165537"><ele>460.19999999999993</ele><time>2026-04-25T09:36:47.812Z</time></trkpt><trkpt lat="45.925154580886954" lon="8.82203559654633"><ele>458.8</ele><time>2026-04-25T09:36:48.812Z</time></trkpt><trkpt lat="45.92514723603311" lon="8.82191353907495"><ele>457.4</ele><time>2026-04-25T09:36:49.812Z</time></trkpt><trkpt lat="45.92519094652652" lon="8.821769424273954"><ele>456.0</ele><time>2026-04-25T09:36:51.812Z</time></trkpt><trkpt lat="45.92525706694979" lon="8.821651746161525"><ele>455.1666666666667</ele><time>2026-04-25T09:36:53.812Z</time></trkpt><trkpt lat="45.92519007078656" lon="8.821500207256328"><ele>454.33333333333337</ele><time>2026-04-25T09:36:55.81Z</time></trkpt><trkpt lat="45.92512025663648" lon="8.821449897954537"><ele>453.5</ele><time>2026-04-25T09:36:56.81Z</time></trkpt><trkpt lat="45.92504278991519" lon="8.821408726834578"><ele>452.6666666666667</ele><time>2026-04-25T09:36:58.81Z</time></trkpt><trkpt lat="45.92498077429051" lon="8.821372530486773"><ele>451.83333333333337</ele><time>2026-04-25T09:37:01.81Z</time></trkpt><trkpt lat="45.92497566396746" lon="8.82126597875045"><ele>451.0</ele><time>2026-04-25T09:37:16.81Z</time></trkpt><trkpt lat="45.92504466106965" lon="8.821162644353398"><ele>451.0</ele><time>2026-04-25T09:37:18.81Z</time></trkpt><trkpt lat="45.92513961148339" lon="8.821132024421429"><ele>451.0</ele><time>2026-04-25T09:37:19.81Z</time></trkpt><trkpt lat="45.92523929012919" lon="8.821121575191645"><ele>451.0</ele><time>2026-04-25T09:37:20.81Z</time></trkpt><trkpt lat="45.925327036362674" lon="8.821090407495983"><ele>451.0</ele><time>2026-04-25T09:37:21.81Z</time></trkpt><trkpt lat="45.92542478891684" lon="8.82104784225392"><ele>451.0</ele><time>2026-04-25T09:37:22.81Z</time></trkpt><trkpt lat="45.92553171392203" lon="8.820998554900063"><ele>449.75</ele><time>2026-04-25T09:37:23.81Z</time></trkpt><trkpt lat="45.92564230500175" lon="8.820948265037666"><ele>448.5</ele><time>2026-04-25T09:37:24.81Z</time></trkpt><trkpt lat="45.925767516351016" lon="8.820913664664118"><ele>447.25</ele><time>2026-04-25T09:37:25.81Z</time></trkpt><trkpt lat="45.92589722410792" lon="8.820894863119145"><ele>446.0</ele><time>2026-04-25T09:37:26.81Z</time></trkpt><trkpt lat="45.926013770064564" lon="8.820877974171882"><ele>445.20000000000005</ele><time>2026-04-25T09:37:27.81Z</time></trkpt><trkpt lat="45.92610683430722" lon="8.82086479608393"><ele>444.40000000000003</ele><time>2026-04-25T09:37:28.81Z</time></trkpt><trkpt lat="45.926173466983954" lon="8.820854778257916"><ele>443.6</ele><time>2026-04-25T09:37:29.81Z</time></trkpt><trkpt lat="45.9262706813658" lon="8.820839237208473"><ele>442.8</ele><time>2026-04-25T09:37:33.81Z</time></trkpt><trkpt lat="45.926412177469466" lon="8.820838556898375"><ele>442.0</ele><time>2026-04-25T09:37:35.81Z</time></trkpt><trkpt lat="45.92650252846849" lon="8.820850276762583"><ele>442.00000000000006</ele><time>2026-04-25T09:37:36.81Z</time></trkpt><trkpt lat="45.926577593891494" lon="8.820863695091065"><ele>442.0</ele><time>2026-04-25T09:37:37.81Z</time></trkpt><trkpt lat="45.9266461969652" lon="8.820887146700885"><ele>442.0</ele><time>2026-04-25T09:37:38.81Z</time></trkpt><trkpt lat="45.92671062786473" lon="8.820921740115269"><ele>442.0</ele><time>2026-04-25T09:37:39.81Z</time></trkpt><trkpt lat="45.926776662255456" lon="8.820976620748855"><ele>442.0</ele><time>2026-04-25T09:37:40.81Z</time></trkpt><trkpt lat="45.9268454365096" lon="8.821034366766714"><ele>442.00000000000006</ele><time>2026-04-25T09:37:41.81Z</time></trkpt><trkpt lat="45.926921504900314" lon="8.821044010876616"><ele>442.0</ele><time>2026-04-25T09:37:42.81Z</time></trkpt><trkpt lat="45.92698191028981" lon="8.821008152398985"><ele>440.8</ele><time>2026-04-25T09:37:43.81Z</time></trkpt><trkpt lat="45.92703442366345" lon="8.820938628319375"><ele>439.6</ele><time>2026-04-25T09:37:44.81Z</time></trkpt><trkpt lat="45.92707017717619" lon="8.820805836861584"><ele>438.40000000000003</ele><time>2026-04-25T09:37:45.81Z</time></trkpt><trkpt lat="45.92711514675493" lon="8.820656999151467"><ele>437.20000000000005</ele><time>2026-04-25T09:37:46.81Z</time></trkpt><trkpt lat="45.927193628936735" lon="8.820536746103118"><ele>436.0</ele><time>2026-04-25T09:37:47.81Z</time></trkpt><trkpt lat="45.92730166740961" lon="8.820423944678558"><ele>436.0</ele><time>2026-04-25T09:37:48.81Z</time></trkpt><trkpt lat="45.92741473020626" lon="8.820335436765529"><ele>436.0</ele><time>2026-04-25T09:37:49.81Z</time></trkpt><trkpt lat="45.9275349956364" lon="8.820261890149547"><ele>436.0</ele><time>2026-04-25T09:37:50.809Z</time></trkpt><trkpt lat="45.927645872145035" lon="8.820177638048811"><ele>436.0</ele><time>2026-04-25T09:37:51.809Z</time></trkpt><trkpt lat="45.92775623632861" lon="8.820072228167987"><ele>435.33333333333337</ele><time>2026-04-25T09:37:52.809Z</time></trkpt><trkpt lat="45.92788780129373" lon="8.81995202241716"><ele>434.66666666666663</ele><time>2026-04-25T09:37:53.809Z</time></trkpt><trkpt lat="45.928021739711696" lon="8.819824114909915"><ele>434.0</ele><time>2026-04-25T09:37:54.809Z</time></trkpt><trkpt lat="45.9281580710995" lon="8.819686941838953"><ele>434.0</ele><time>2026-04-25T09:37:55.809Z</time></trkpt><trkpt lat="45.92829959081526" lon="8.819543651099732"><ele>434.0</ele><time>2026-04-25T09:37:56.809Z</time></trkpt><trkpt lat="45.92845691137701" lon="8.81939097521905"><ele>434.0</ele><time>2026-04-25T09:37:57.809Z</time></trkpt><trkpt lat="45.92862837157803" lon="8.819217887374712"><ele>433.0</ele><time>2026-04-25T09:37:58.809Z</time></trkpt><trkpt lat="45.92882092204385" lon="8.819016916131703"><ele>432.0</ele><time>2026-04-25T09:37:59.809Z</time></trkpt><trkpt lat="45.92902175923827" lon="8.81881922293093"><ele>432.0</ele><time>2026-04-25T09:38:00.809Z</time></trkpt><trkpt lat="45.92921684926757" lon="8.818621698040323"><ele>432.0</ele><time>2026-04-25T09:38:01.809Z</time></trkpt><trkpt lat="45.92939273780399" lon="8.818438023871511"><ele>432.0</ele><time>2026-04-25T09:38:02.809Z</time></trkpt><trkpt lat="45.92955957909787" lon="8.818266463547818"><ele>432.0</ele><time>2026-04-25T09:38:03.809Z</time></trkpt><trkpt lat="45.929727723560276" lon="8.818091082413172"><ele>432.0</ele><time>2026-04-25T09:38:04.809Z</time></trkpt><trkpt lat="45.929891321412775" lon="8.817928511128866"><ele>432.0</ele><time>2026-04-25T09:38:05.809Z</time></trkpt><trkpt lat="45.93004695307989" lon="8.817768723837093"><ele>432.0</ele><time>2026-04-25T09:38:06.809Z</time></trkpt><trkpt lat="45.93019188738901" lon="8.817611636025383"><ele>432.0</ele><time>2026-04-25T09:38:07.809Z</time></trkpt><trkpt lat="45.930325894496384" lon="8.81746802946145"><ele>432.0</ele><time>2026-04-25T09:38:08.809Z</time></trkpt><trkpt lat="45.93045332237015" lon="8.817327510416577"><ele>432.0</ele><time>2026-04-25T09:38:09.809Z</time></trkpt><trkpt lat="45.93057201628404" lon="8.817200308292323"><ele>432.0</ele><time>2026-04-25T09:38:10.809Z</time></trkpt><trkpt lat="45.93068527174726" lon="8.817081621446706"><ele>432.0</ele><time>2026-04-25T09:38:11.809Z</time></trkpt><trkpt lat="45.930786561292805" lon="8.816976547567757"><ele>432.0</ele><time>2026-04-25T09:38:12.809Z</time></trkpt><trkpt lat="45.93089271506453" lon="8.816867127867377"><ele>432.0</ele><time>2026-04-25T09:38:13.809Z</time></trkpt><trkpt lat="45.93100903002098" lon="8.816754581909839"><ele>432.0</ele><time>2026-04-25T09:38:14.809Z</time></trkpt><trkpt lat="45.93113185523105" lon="8.81663642301882"><ele>432.0</ele><time>2026-04-25T09:38:15.809Z</time></trkpt><trkpt lat="45.93125973510603" lon="8.816490240158629"><ele>432.0</ele><time>2026-04-25T09:38:16.809Z</time></trkpt><trkpt lat="45.93138065948034" lon="8.816313281743557"><ele>432.0</ele><time>2026-04-25T09:38:17.809Z</time></trkpt><trkpt lat="45.931482580843166" lon="8.816108674776642"><ele>432.0</ele><time>2026-04-25T09:38:18.809Z</time></trkpt><trkpt lat="45.93157165879824" lon="8.815862691843487"><ele>431.0</ele><time>2026-04-25T09:38:19.809Z</time></trkpt><trkpt lat="45.931649893562216" lon="8.815582643662033"><ele>430.0</ele><time>2026-04-25T09:38:20.809Z</time></trkpt><trkpt lat="45.93172259943" lon="8.81529226168594"><ele>429.0</ele><time>2026-04-25T09:38:21.809Z</time></trkpt><trkpt lat="45.93179170574116" lon="8.814997461761399"><ele>432.33333333333337</ele><time>2026-04-25T09:38:22.809Z</time></trkpt><trkpt lat="45.93186059505556" lon="8.814707302014483"><ele>435.6666666666667</ele><time>2026-04-25T09:38:23.809Z</time></trkpt><trkpt lat="45.93192904605851" lon="8.814419050277936"><ele>439.0</ele><time>2026-04-25T09:38:24.809Z</time></trkpt><trkpt lat="45.931994878115184" lon="8.814135109832346"><ele>439.33333333333337</ele><time>2026-04-25T09:38:25.809Z</time></trkpt><trkpt lat="45.932060372088955" lon="8.813858415187056"><ele>439.66666666666663</ele><time>2026-04-25T09:38:26.809Z</time></trkpt><trkpt lat="45.93212090877651" lon="8.813598122264464"><ele>440.0</ele><time>2026-04-25T09:38:27.809Z</time></trkpt><trkpt lat="45.932174867240164" lon="8.813357003098735"><ele>439.3333333333333</ele><time>2026-04-25T09:38:28.809Z</time></trkpt><trkpt lat="45.9322272562369" lon="8.81312594998382"><ele>438.66666666666663</ele><time>2026-04-25T09:38:29.809Z</time></trkpt><trkpt lat="45.932278058494475" lon="8.81292119879017"><ele>438.0</ele><time>2026-04-25T09:38:30.809Z</time></trkpt><trkpt lat="45.93232849041718" lon="8.81272435254412"><ele>436.5</ele><time>2026-04-25T09:38:31.809Z</time></trkpt><trkpt lat="45.93237778951869" lon="8.812538320081245"><ele>435.0</ele><time>2026-04-25T09:38:32.809Z</time></trkpt><trkpt lat="45.93242263924568" lon="8.81235328798376"><ele>433.5</ele><time>2026-04-25T09:38:33.809Z</time></trkpt><trkpt lat="45.93246725242413" lon="8.812167391561466"><ele>432.0</ele><time>2026-04-25T09:38:34.809Z</time></trkpt><trkpt lat="45.93250806247881" lon="8.811985144555722"><ele>431.0</ele><time>2026-04-25T09:38:35.809Z</time></trkpt><trkpt lat="45.93254801640069" lon="8.811809250535811"><ele>430.0</ele><time>2026-04-25T09:38:36.809Z</time></trkpt><trkpt lat="45.93258473158027" lon="8.81164832314397"><ele>429.0</ele><time>2026-04-25T09:38:37.809Z</time></trkpt><trkpt lat="45.9326204770477" lon="8.811491960779001"><ele>428.0</ele><time>2026-04-25T09:38:38.809Z</time></trkpt><trkpt lat="45.932653211847764" lon="8.811341491848331"><ele>428.75</ele><time>2026-04-25T09:38:39.809Z</time></trkpt><trkpt lat="45.93268294629581" lon="8.811206769468791"><ele>429.5</ele><time>2026-04-25T09:38:40.809Z</time></trkpt><trkpt lat="45.93271936670441" lon="8.811053791586849"><ele>430.25</ele><time>2026-04-25T09:38:41.809Z</time></trkpt><trkpt lat="45.93276023216973" lon="8.810879028529556"><ele>431.0</ele><time>2026-04-25T09:38:42.809Z</time></trkpt><trkpt lat="45.93281250255391" lon="8.810635260478206"><ele>431.0</ele><time>2026-04-25T09:38:43.809Z</time></trkpt><trkpt lat="45.93287705024727" lon="8.81033103204568"><ele>431.0</ele><time>2026-04-25T09:38:44.809Z</time></trkpt><trkpt lat="45.932960210071606" lon="8.810011705551734"><ele>430.0</ele><time>2026-04-25T09:38:45.809Z</time></trkpt><trkpt lat="45.933053538424176" lon="8.809661026404683"><ele>429.0</ele><time>2026-04-25T09:38:46.809Z</time></trkpt><trkpt lat="45.93313372362135" lon="8.809325039721104"><ele>428.5</ele><time>2026-04-25T09:38:47.809Z</time></trkpt><trkpt lat="45.93320666168628" lon="8.808999421591837"><ele>428.0</ele><time>2026-04-25T09:38:48.809Z</time></trkpt><trkpt lat="45.93327761798144" lon="8.808704472606415"><ele>429.0</ele><time>2026-04-25T09:38:49.809Z</time></trkpt><trkpt lat="45.933343128058205" lon="8.808430354301416"><ele>430.0</ele><time>2026-04-25T09:38:50.809Z</time></trkpt><trkpt lat="45.933402741640236" lon="8.808178694546763"><ele>431.0</ele><time>2026-04-25T09:38:51.809Z</time></trkpt><trkpt lat="45.9334595870224" lon="8.807939670513983"><ele>432.5</ele><time>2026-04-25T09:38:52.809Z</time></trkpt><trkpt lat="45.933518249863184" lon="8.807719111893672"><ele>434.0</ele><time>2026-04-25T09:38:53.809Z</time></trkpt><trkpt lat="45.933570465547085" lon="8.807511936067879"><ele>435.5</ele><time>2026-04-25T09:38:54.809Z</time></trkpt><trkpt lat="45.933612550737756" lon="8.807335995711817"><ele>437.0</ele><time>2026-04-25T09:38:55.809Z</time></trkpt><trkpt lat="45.93364736386943" lon="8.807193738085394"><ele>436.99999999999994</ele><time>2026-04-25T09:38:56.809Z</time></trkpt><trkpt lat="45.93367785556582" lon="8.807069002763813"><ele>437.0</ele><time>2026-04-25T09:38:57.809Z</time></trkpt><trkpt lat="45.93369935480686" lon="8.806965414851387"><ele>437.0</ele><time>2026-04-25T09:38:58.809Z</time></trkpt><trkpt lat="45.93372303815132" lon="8.806867110862425"><ele>437.0</ele><time>2026-04-25T09:38:59.809Z</time></trkpt><trkpt lat="45.93374637447744" lon="8.806766090453156"><ele>436.99999999999994</ele><time>2026-04-25T09:39:00.809Z</time></trkpt><trkpt lat="45.9337768806272" lon="8.806647633984646"><ele>437.0</ele><time>2026-04-25T09:39:01.806Z</time></trkpt><trkpt lat="45.9338138272508" lon="8.806510904879696"><ele>436.8</ele><time>2026-04-25T09:39:02.806Z</time></trkpt><trkpt lat="45.93384852894639" lon="8.806373107402315"><ele>436.6</ele><time>2026-04-25T09:39:03.806Z</time></trkpt><trkpt lat="45.93387686756634" lon="8.806239986901442"><ele>436.40000000000003</ele><time>2026-04-25T09:39:04.806Z</time></trkpt><trkpt lat="45.933905865297966" lon="8.806114893615671"><ele>436.20000000000005</ele><time>2026-04-25T09:39:05.806Z</time></trkpt><trkpt lat="45.9339394826107" lon="8.805983142706173"><ele>436.0</ele><time>2026-04-25T09:39:06.806Z</time></trkpt><trkpt lat="45.93397124595495" lon="8.805843923679046"><ele>435.6</ele><time>2026-04-25T09:39:07.806Z</time></trkpt><trkpt lat="45.934006837727935" lon="8.805697136436057"><ele>435.20000000000005</ele><time>2026-04-25T09:39:08.806Z</time></trkpt><trkpt lat="45.93404424481885" lon="8.80555376060857"><ele>434.79999999999995</ele><time>2026-04-25T09:39:09.806Z</time></trkpt><trkpt lat="45.93408366107043" lon="8.805415404418017"><ele>434.4</ele><time>2026-04-25T09:39:10.806Z</time></trkpt><trkpt lat="45.93412011031321" lon="8.805278598892254"><ele>434.0</ele><time>2026-04-25T09:39:11.806Z</time></trkpt><trkpt lat="45.93415108212751" lon="8.80513437254586"><ele>433.49999999999994</ele><time>2026-04-25T09:39:12.806Z</time></trkpt><trkpt lat="45.93417998411572" lon="8.805007394773982"><ele>433.0</ele><time>2026-04-25T09:39:13.805Z</time></trkpt><trkpt lat="45.93420727632291" lon="8.804890062120775"><ele>432.5</ele><time>2026-04-25T09:39:14.806Z</time></trkpt><trkpt lat="45.934235426299956" lon="8.804768746840608"><ele>432.0</ele><time>2026-04-25T09:39:15.806Z</time></trkpt><trkpt lat="45.934266844721684" lon="8.804644388123563"><ele>431.49999999999994</ele><time>2026-04-25T09:39:16.806Z</time></trkpt><trkpt lat="45.934299001527734" lon="8.804528984584422"><ele>431.0</ele><time>2026-04-25T09:39:17.806Z</time></trkpt><trkpt lat="45.934331270085806" lon="8.804410882535405"><ele>432.16666666666663</ele><time>2026-04-25T09:39:18.806Z</time></trkpt><trkpt lat="45.93435770681224" lon="8.804285363640444"><ele>433.3333333333333</ele><time>2026-04-25T09:39:19.806Z</time></trkpt><trkpt lat="45.93438366727465" lon="8.804161662059292"><ele>434.5</ele><time>2026-04-25T09:39:20.806Z</time></trkpt><trkpt lat="45.93440898949275" lon="8.80404104081585"><ele>435.66666666666663</ele><time>2026-04-25T09:39:21.806Z</time></trkpt><trkpt lat="45.934432952791056" lon="8.80392010770923"><ele>436.8333333333333</ele><time>2026-04-25T09:39:22.806Z</time></trkpt><trkpt lat="45.93445545224027" lon="8.803809918666003"><ele>438.0</ele><time>2026-04-25T09:39:23.806Z</time></trkpt><trkpt lat="45.934473239208465" lon="8.803711133872948"><ele>438.0</ele><time>2026-04-25T09:39:24.806Z</time></trkpt><trkpt lat="45.9344893476836" lon="8.803622129879276"><ele>438.0</ele><time>2026-04-25T09:39:25.806Z</time></trkpt><trkpt lat="45.934499302483445" lon="8.803458737089235"><ele>438.0</ele><time>2026-04-25T09:39:27.805Z</time></trkpt><trkpt lat="45.93454379334706" lon="8.803321220380143"><ele>438.0</ele><time>2026-04-25T09:39:29.805Z</time></trkpt><trkpt lat="45.93460360973021" lon="8.803259821952983"><ele>438.0</ele><time>2026-04-25T09:39:30.805Z</time></trkpt><trkpt lat="45.93464202106292" lon="8.803185421148617"><ele>438.0</ele><time>2026-04-25T09:39:31.805Z</time></trkpt><trkpt lat="45.93462325150653" lon="8.803087529536377"><ele>437.3333333333333</ele><time>2026-04-25T09:39:32.805Z</time></trkpt><trkpt lat="45.93462850431197" lon="8.80299691650071"><ele>436.66666666666663</ele><time>2026-04-25T09:39:33.805Z</time></trkpt><trkpt lat="45.934645390202384" lon="8.802892942757865"><ele>436.0</ele><time>2026-04-25T09:39:34.805Z</time></trkpt><trkpt lat="45.93467218648568" lon="8.802735796382123"><ele>435.3333333333333</ele><time>2026-04-25T09:39:36.805Z</time></trkpt><trkpt lat="45.93466812152421" lon="8.802643295710322"><ele>434.66666666666663</ele><time>2026-04-25T09:39:39.805Z</time></trkpt><trkpt lat="45.93474871024273" lon="8.802608960191431"><ele>434.0</ele><time>2026-04-25T09:39:40.805Z</time></trkpt><trkpt lat="45.93478514217512" lon="8.802481071678546"><ele>433.4</ele><time>2026-04-25T09:39:42.805Z</time></trkpt><trkpt lat="45.93480437391043" lon="8.802383195072242"><ele>432.79999999999995</ele><time>2026-04-25T09:39:43.805Z</time></trkpt><trkpt lat="45.93483457657154" lon="8.802246977547975"><ele>432.20000000000005</ele><time>2026-04-25T09:39:44.805Z</time></trkpt><trkpt lat="45.934871035665005" lon="8.802111790140179"><ele>431.6</ele><time>2026-04-25T09:39:45.805Z</time></trkpt><trkpt lat="45.93491802462982" lon="8.801964056923303"><ele>431.0</ele><time>2026-04-25T09:39:46.805Z</time></trkpt><trkpt lat="45.93497514582044" lon="8.801822237418063"><ele>431.25</ele><time>2026-04-25T09:39:47.805Z</time></trkpt><trkpt lat="45.93504346921645" lon="8.801685916331213"><ele>431.5</ele><time>2026-04-25T09:39:48.805Z</time></trkpt><trkpt lat="45.93512740845515" lon="8.801553902285624"><ele>431.75</ele><time>2026-04-25T09:39:49.805Z</time></trkpt><trkpt lat="45.9352258521311" lon="8.801430584472978"><ele>432.0</ele><time>2026-04-25T09:39:50.805Z</time></trkpt><trkpt lat="45.935341768618514" lon="8.801317462246102"><ele>432.0</ele><time>2026-04-25T09:39:51.805Z</time></trkpt><trkpt lat="45.93545877947735" lon="8.801212599747416"><ele>432.0</ele><time>2026-04-25T09:39:52.805Z</time></trkpt><trkpt lat="45.9355905480081" lon="8.801113143664383"><ele>432.0</ele><time>2026-04-25T09:39:53.805Z</time></trkpt><trkpt lat="45.935724069904595" lon="8.801010709260906"><ele>432.0</ele><time>2026-04-25T09:39:54.805Z</time></trkpt><trkpt lat="45.93586427670011" lon="8.800903583427473"><ele>432.0</ele><time>2026-04-25T09:39:55.805Z</time></trkpt><trkpt lat="45.936008445870016" lon="8.800797589047605"><ele>432.0</ele><time>2026-04-25T09:39:56.805Z</time></trkpt><trkpt lat="45.93615405427115" lon="8.800683774769118"><ele>432.0</ele><time>2026-04-25T09:39:57.805Z</time></trkpt><trkpt lat="45.936312139101055" lon="8.80056556358096"><ele>432.0</ele><time>2026-04-25T09:39:58.805Z</time></trkpt><trkpt lat="45.93649004774581" lon="8.800435466522329"><ele>432.0</ele><time>2026-04-25T09:39:59.805Z</time></trkpt><trkpt lat="45.936657242024154" lon="8.800307807241785"><ele>432.0</ele><time>2026-04-25T09:40:00.805Z</time></trkpt><trkpt lat="45.936828058795506" lon="8.800178688062363"><ele>431.66666666666663</ele><time>2026-04-25T09:40:01.805Z</time></trkpt><trkpt lat="45.93699606248267" lon="8.800051153802654"><ele>431.3333333333333</ele><time>2026-04-25T09:40:02.805Z</time></trkpt><trkpt lat="45.93715981556799" lon="8.799934792074845"><ele>431.0</ele><time>2026-04-25T09:40:03.805Z</time></trkpt><trkpt lat="45.93732376857384" lon="8.799819757160325"><ele>431.0</ele><time>2026-04-25T09:40:04.805Z</time></trkpt><trkpt lat="45.93748554243132" lon="8.79969995517426"><ele>431.0</ele><time>2026-04-25T09:40:05.805Z</time></trkpt><trkpt lat="45.93764073760255" lon="8.799587808041354"><ele>431.0</ele><time>2026-04-25T09:40:06.805Z</time></trkpt><trkpt lat="45.93779090576491" lon="8.799481967951543"><ele>430.0</ele><time>2026-04-25T09:40:07.805Z</time></trkpt><trkpt lat="45.93793504115302" lon="8.799379488862591"><ele>429.0</ele><time>2026-04-25T09:40:08.805Z</time></trkpt><trkpt lat="45.93807249549315" lon="8.79928446128187"><ele>428.0</ele><time>2026-04-25T09:40:09.805Z</time></trkpt><trkpt lat="45.938200863821464" lon="8.799190170859768"><ele>428.0</ele><time>2026-04-25T09:40:10.805Z</time></trkpt><trkpt lat="45.938319019535804" lon="8.799079296718489"><ele>428.0</ele><time>2026-04-25T09:40:11.805Z</time></trkpt><trkpt lat="45.938420836162734" lon="8.798944644114368"><ele>428.0</ele><time>2026-04-25T09:40:12.805Z</time></trkpt><trkpt lat="45.93850595955063" lon="8.7987610286089"><ele>428.0</ele><time>2026-04-25T09:40:13.805Z</time></trkpt><trkpt lat="45.938564818029626" lon="8.798534880944452"><ele>430.3333333333333</ele><time>2026-04-25T09:40:14.805Z</time></trkpt><trkpt lat="45.93859124995048" lon="8.798305970827261"><ele>432.66666666666663</ele><time>2026-04-25T09:40:15.805Z</time></trkpt><trkpt lat="45.93863036378196" lon="8.798094777859617"><ele>435.0</ele><time>2026-04-25T09:40:16.805Z</time></trkpt><trkpt lat="45.93869922609734" lon="8.797867808890153"><ele>434.33333333333337</ele><time>2026-04-25T09:40:17.805Z</time></trkpt><trkpt lat="45.93879154056762" lon="8.797638925496104"><ele>433.6666666666667</ele><time>2026-04-25T09:40:18.805Z</time></trkpt><trkpt lat="45.93887852847257" lon="8.797417566930923"><ele>433.0</ele><time>2026-04-25T09:40:19.805Z</time></trkpt><trkpt lat="45.93898128196224" lon="8.79721961109599"><ele>433.0</ele><time>2026-04-25T09:40:20.805Z</time></trkpt><trkpt lat="45.93910990904961" lon="8.79702597270444"><ele>433.0</ele><time>2026-04-25T09:40:21.805Z</time></trkpt><trkpt lat="45.93924064955746" lon="8.79684721643104"><ele>433.0</ele><time>2026-04-25T09:40:22.805Z</time></trkpt><trkpt lat="45.93937176012697" lon="8.79667020337115"><ele>433.33333333333337</ele><time>2026-04-25T09:40:23.805Z</time></trkpt><trkpt lat="45.939496568793686" lon="8.79650021179723"><ele>433.66666666666663</ele><time>2026-04-25T09:40:24.805Z</time></trkpt><trkpt lat="45.93963104943951" lon="8.796336354927853"><ele>434.0</ele><time>2026-04-25T09:40:25.805Z</time></trkpt><trkpt lat="45.93978514227669" lon="8.7961965053727"><ele>434.0</ele><time>2026-04-25T09:40:26.805Z</time></trkpt><trkpt lat="45.93994735387495" lon="8.796085451900867"><ele>434.0</ele><time>2026-04-25T09:40:27.805Z</time></trkpt><trkpt lat="45.9401155779724" lon="8.79598625138944"><ele>434.0</ele><time>2026-04-25T09:40:28.805Z</time></trkpt><trkpt lat="45.940286791119696" lon="8.795890086000131"><ele>432.66666666666663</ele><time>2026-04-25T09:40:29.805Z</time></trkpt><trkpt lat="45.940442166641034" lon="8.795794020865635"><ele>431.33333333333337</ele><time>2026-04-25T09:40:30.805Z</time></trkpt><trkpt lat="45.9405852899296" lon="8.795688843122079"><ele>430.0</ele><time>2026-04-25T09:40:31.805Z</time></trkpt><trkpt lat="45.94071934674015" lon="8.795586542595979"><ele>430.0</ele><time>2026-04-25T09:40:32.805Z</time></trkpt><trkpt lat="45.94084552866811" lon="8.795475680610195"><ele>430.0</ele><time>2026-04-25T09:40:33.805Z</time></trkpt><trkpt lat="45.940966621194704" lon="8.795363706577284"><ele>430.0</ele><time>2026-04-25T09:40:34.805Z</time></trkpt><trkpt lat="45.94108256322438" lon="8.795241182429876"><ele>430.0</ele><time>2026-04-25T09:40:35.805Z</time></trkpt><trkpt lat="45.94118103655284" lon="8.79509366775803"><ele>429.6666666666667</ele><time>2026-04-25T09:40:36.805Z</time></trkpt><trkpt lat="45.94125955703796" lon="8.794914374369117"><ele>429.33333333333337</ele><time>2026-04-25T09:40:37.805Z</time></trkpt><trkpt lat="45.94132643362041" lon="8.794714453681328"><ele>429.0</ele><time>2026-04-25T09:40:38.805Z</time></trkpt><trkpt lat="45.941394850057186" lon="8.79450861734154"><ele>425.0</ele><time>2026-04-25T09:40:39.805Z</time></trkpt><trkpt lat="45.941466133708474" lon="8.794310980335592"><ele>421.0</ele><time>2026-04-25T09:40:40.804Z</time></trkpt><trkpt lat="45.941538582421686" lon="8.794120524987498"><ele>417.0</ele><time>2026-04-25T09:40:41.804Z</time></trkpt><trkpt lat="45.941614170916516" lon="8.793931126713051"><ele>417.0</ele><time>2026-04-25T09:40:42.804Z</time></trkpt><trkpt lat="45.94170430808765" lon="8.793741587803805"><ele>417.0</ele><time>2026-04-25T09:40:43.804Z</time></trkpt><trkpt lat="45.94180492578506" lon="8.793569142753588"><ele>417.0</ele><time>2026-04-25T09:40:44.804Z</time></trkpt><trkpt lat="45.94190468830559" lon="8.793399307540275"><ele>418.25</ele><time>2026-04-25T09:40:45.804Z</time></trkpt><trkpt lat="45.94199700134028" lon="8.793233792661722"><ele>419.5</ele><time>2026-04-25T09:40:46.804Z</time></trkpt><trkpt lat="45.94208437462886" lon="8.793068961496072"><ele>420.75</ele><time>2026-04-25T09:40:47.804Z</time></trkpt><trkpt lat="45.9421731970795" lon="8.792901942582523"><ele>422.0</ele><time>2026-04-25T09:40:48.804Z</time></trkpt><trkpt lat="45.94226403840048" lon="8.792727319890684"><ele>422.5</ele><time>2026-04-25T09:40:49.804Z</time></trkpt><trkpt lat="45.942351212229845" lon="8.792559203953417"><ele>423.0</ele><time>2026-04-25T09:40:50.804Z</time></trkpt><trkpt lat="45.94243841879913" lon="8.792395834806236"><ele>423.5</ele><time>2026-04-25T09:40:51.804Z</time></trkpt><trkpt lat="45.94252713429688" lon="8.792239642605656"><ele>424.0</ele><time>2026-04-25T09:40:52.804Z</time></trkpt><trkpt lat="45.94261704309188" lon="8.792088824333911"><ele>424.0</ele><time>2026-04-25T09:40:53.804Z</time></trkpt><trkpt lat="45.94271551910525" lon="8.791943692710845"><ele>424.0</ele><time>2026-04-25T09:40:54.804Z</time></trkpt><trkpt lat="45.94282979073794" lon="8.791799794988746"><ele>424.0</ele><time>2026-04-25T09:40:55.804Z</time></trkpt><trkpt lat="45.94295013827018" lon="8.791660150079206"><ele>424.0</ele><time>2026-04-25T09:40:56.804Z</time></trkpt><trkpt lat="45.943066529387245" lon="8.79152275229454"><ele>424.25</ele><time>2026-04-25T09:40:57.804Z</time></trkpt><trkpt lat="45.9431795294491" lon="8.791394530272528"><ele>424.5</ele><time>2026-04-25T09:40:58.804Z</time></trkpt><trkpt lat="45.94328815245725" lon="8.791266990878267"><ele>424.75</ele><time>2026-04-25T09:40:59.804Z</time></trkpt><trkpt lat="45.943394837311914" lon="8.791140765828736"><ele>425.0</ele><time>2026-04-25T09:41:00.804Z</time></trkpt><trkpt lat="45.94349560443245" lon="8.791016866331551"><ele>421.75</ele><time>2026-04-25T09:41:01.804Z</time></trkpt><trkpt lat="45.94359640901274" lon="8.790893481263316"><ele>418.5</ele><time>2026-04-25T09:41:02.804Z</time></trkpt><trkpt lat="45.94369241221458" lon="8.790753514033394"><ele>415.25</ele><time>2026-04-25T09:41:03.804Z</time></trkpt><trkpt lat="45.943776510534065" lon="8.790587566627373"><ele>412.0</ele><time>2026-04-25T09:41:04.804Z</time></trkpt><trkpt lat="45.94383898449693" lon="8.790403482551497"><ele>412.0</ele><time>2026-04-25T09:41:05.804Z</time></trkpt><trkpt lat="45.943880405751344" lon="8.79018594323466"><ele>412.0</ele><time>2026-04-25T09:41:06.804Z</time></trkpt><trkpt lat="45.94391462003675" lon="8.789951393281017"><ele>412.0</ele><time>2026-04-25T09:41:07.802Z</time></trkpt><trkpt lat="45.94394606618855" lon="8.789703331524553"><ele>409.6666666666667</ele><time>2026-04-25T09:41:08.802Z</time></trkpt><trkpt lat="45.94397488730263" lon="8.789460573182948"><ele>407.33333333333337</ele><time>2026-04-25T09:41:09.802Z</time></trkpt><trkpt lat="45.9440027357346" lon="8.789228775834658"><ele>405.0</ele><time>2026-04-25T09:41:10.802Z</time></trkpt><trkpt lat="45.944027967160345" lon="8.78900646709092"><ele>403.0</ele><time>2026-04-25T09:41:11.802Z</time></trkpt><trkpt lat="45.9440508519623" lon="8.788779316808506"><ele>401.0</ele><time>2026-04-25T09:41:12.802Z</time></trkpt><trkpt lat="45.94405665897464" lon="8.788559753387661"><ele>399.0</ele><time>2026-04-25T09:41:13.802Z</time></trkpt><trkpt lat="45.94403602576415" lon="8.788329919366642"><ele>398.66666666666663</ele><time>2026-04-25T09:41:14.802Z</time></trkpt><trkpt lat="45.94400889503722" lon="8.788097296209154"><ele>398.3333333333333</ele><time>2026-04-25T09:41:15.802Z</time></trkpt><trkpt lat="45.943988364078756" lon="8.78787672005058"><ele>398.0</ele><time>2026-04-25T09:41:16.801Z</time></trkpt><trkpt lat="45.94398472195776" lon="8.78766105620415"><ele>397.0</ele><time>2026-04-25T09:41:17.802Z</time></trkpt><trkpt lat="45.9439985921194" lon="8.787457648624665"><ele>396.0</ele><time>2026-04-25T09:41:18.802Z</time></trkpt><trkpt lat="45.944026731708995" lon="8.787260370042313"><ele>395.0</ele><time>2026-04-25T09:41:19.801Z</time></trkpt><trkpt lat="45.944058510500234" lon="8.787054948909061"><ele>394.0</ele><time>2026-04-25T09:41:20.801Z</time></trkpt><trkpt lat="45.94408504613076" lon="8.78683396657642"><ele>391.0</ele><time>2026-04-25T09:41:21.801Z</time></trkpt><trkpt lat="45.94411590484164" lon="8.786585725565788"><ele>388.0</ele><time>2026-04-25T09:41:22.801Z</time></trkpt><trkpt lat="45.94414240885504" lon="8.78634671844778"><ele>385.0</ele><time>2026-04-25T09:41:23.801Z</time></trkpt><trkpt lat="45.944158943906274" lon="8.786112054022436"><ele>384.0</ele><time>2026-04-25T09:41:24.801Z</time></trkpt><trkpt lat="45.94414808213072" lon="8.785887614099265"><ele>383.0</ele><time>2026-04-25T09:41:25.801Z</time></trkpt><trkpt lat="45.944123467665754" lon="8.785666993718998"><ele>382.0</ele><time>2026-04-25T09:41:26.801Z</time></trkpt><trkpt lat="45.94409385035453" lon="8.785446802784577"><ele>382.0</ele><time>2026-04-25T09:41:27.801Z</time></trkpt><trkpt lat="45.94407141339614" lon="8.785246138031122"><ele>382.0</ele><time>2026-04-25T09:41:28.801Z</time></trkpt><trkpt lat="45.94405835757337" lon="8.785060674265699"><ele>382.0</ele><time>2026-04-25T09:41:29.801Z</time></trkpt><trkpt lat="45.94407865787001" lon="8.784897053970164"><ele>382.0</ele><time>2026-04-25T09:41:30.801Z</time></trkpt><trkpt lat="45.944132731007514" lon="8.784742322451795"><ele>379.0</ele><time>2026-04-25T09:41:31.801Z</time></trkpt><trkpt lat="45.94421859940675" lon="8.784586813610554"><ele>376.0</ele><time>2026-04-25T09:41:32.801Z</time></trkpt><trkpt lat="45.94432449367637" lon="8.784439395003544"><ele>373.0</ele><time>2026-04-25T09:41:33.801Z</time></trkpt><trkpt lat="45.94443728907229" lon="8.784308741938549"><ele>370.0</ele><time>2026-04-25T09:41:34.801Z</time></trkpt><trkpt lat="45.944545349505944" lon="8.784186369636188"><ele>370.0</ele><time>2026-04-25T09:41:35.801Z</time></trkpt><trkpt lat="45.944649845831" lon="8.784067921809008"><ele>370.0</ele><time>2026-04-25T09:41:36.801Z</time></trkpt><trkpt lat="45.9447517285589" lon="8.783987004366525"><ele>370.0</ele><time>2026-04-25T09:41:37.801Z</time></trkpt><trkpt lat="45.944864011939444" lon="8.78394197026324"><ele>370.0</ele><time>2026-04-25T09:41:38.801Z</time></trkpt><trkpt lat="45.944981338193976" lon="8.783942643470535"><ele>371.25</ele><time>2026-04-25T09:41:39.801Z</time></trkpt><trkpt lat="45.94510025269007" lon="8.783963136642312"><ele>372.5</ele><time>2026-04-25T09:41:40.801Z</time></trkpt><trkpt lat="45.94521841511443" lon="8.7839820804195"><ele>373.75</ele><time>2026-04-25T09:41:41.801Z</time></trkpt><trkpt lat="45.9453343917656" lon="8.7839922348385"><ele>375.0</ele><time>2026-04-25T09:41:42.801Z</time></trkpt><trkpt lat="45.945441411753436" lon="8.783991752228935"><ele>375.0</ele><time>2026-04-25T09:41:43.801Z</time></trkpt><trkpt lat="45.9455463008007" lon="8.783933612753536"><ele>375.0</ele><time>2026-04-25T09:41:44.801Z</time></trkpt><trkpt lat="45.94564520720914" lon="8.78383829576769"><ele>375.0</ele><time>2026-04-25T09:41:45.801Z</time></trkpt><trkpt lat="45.94571526933462" lon="8.783716976837022"><ele>375.0</ele><time>2026-04-25T09:41:46.801Z</time></trkpt><trkpt lat="45.94579784376448" lon="8.783620965951748"><ele>375.0</ele><time>2026-04-25T09:41:47.801Z</time></trkpt><trkpt lat="45.94590150141976" lon="8.783553898107305"><ele>375.0</ele><time>2026-04-25T09:41:48.801Z</time></trkpt><trkpt lat="45.94600454362256" lon="8.78352479999794"><ele>375.0</ele><time>2026-04-25T09:41:49.801Z</time></trkpt><trkpt lat="45.94610903301721" lon="8.783488772813385"><ele>375.0</ele><time>2026-04-25T09:41:50.801Z</time></trkpt><trkpt lat="45.94621082635117" lon="8.78342120465248"><ele>375.0</ele><time>2026-04-25T09:41:51.801Z</time></trkpt><trkpt lat="45.946297903189425" lon="8.783319882272853"><ele>375.0</ele><time>2026-04-25T09:41:52.801Z</time></trkpt><trkpt lat="45.946363956167275" lon="8.783174627233098"><ele>371.75</ele><time>2026-04-25T09:41:53.801Z</time></trkpt><trkpt lat="45.94638917532383" lon="8.783006834247889"><ele>368.5</ele><time>2026-04-25T09:41:54.801Z</time></trkpt><trkpt lat="45.9463768036489" lon="8.782831726250508"><ele>365.25</ele><time>2026-04-25T09:41:55.801Z</time></trkpt><trkpt lat="45.94634773046543" lon="8.782670346818898"><ele>362.0</ele><time>2026-04-25T09:41:56.801Z</time></trkpt><trkpt lat="45.946321121867996" lon="8.782513169331171"><ele>361.6</ele><time>2026-04-25T09:41:57.801Z</time></trkpt><trkpt lat="45.94630306507323" lon="8.782357262860426"><ele>361.20000000000005</ele><time>2026-04-25T09:41:58.801Z</time></trkpt><trkpt lat="45.94630570990861" lon="8.782210983270812"><ele>360.8</ele><time>2026-04-25T09:41:59.801Z</time></trkpt><trkpt lat="45.94635233144972" lon="8.782072398323342"><ele>360.4</ele><time>2026-04-25T09:42:00.801Z</time></trkpt><trkpt lat="45.94641770851126" lon="8.78194203009884"><ele>360.0</ele><time>2026-04-25T09:42:01.801Z</time></trkpt><trkpt lat="45.94649951968741" lon="8.781836222086538"><ele>358.4</ele><time>2026-04-25T09:42:02.8Z</time></trkpt><trkpt lat="45.94657705894425" lon="8.781714597242598"><ele>356.8</ele><time>2026-04-25T09:42:03.8Z</time></trkpt><trkpt lat="45.94664933176774" lon="8.781600948220358"><ele>355.20000000000005</ele><time>2026-04-25T09:42:04.8Z</time></trkpt><trkpt lat="45.94671874280343" lon="8.781489881806765"><ele>353.6</ele><time>2026-04-25T09:42:05.8Z</time></trkpt><trkpt lat="45.94679022436302" lon="8.781386137535021"><ele>352.0</ele><time>2026-04-25T09:42:06.8Z</time></trkpt><trkpt lat="45.946863707282134" lon="8.781296587130958"><ele>352.0</ele><time>2026-04-25T09:42:07.8Z</time></trkpt><trkpt lat="45.94694902815767" lon="8.781227288037137"><ele>352.0</ele><time>2026-04-25T09:42:08.8Z</time></trkpt><trkpt lat="45.94705484786155" lon="8.781193452711602"><ele>352.0</ele><time>2026-04-25T09:42:09.8Z</time></trkpt><trkpt lat="45.94715931278218" lon="8.78117809583086"><ele>352.0</ele><time>2026-04-25T09:42:10.8Z</time></trkpt><trkpt lat="45.94726097174576" lon="8.781168338017299"><ele>352.0</ele><time>2026-04-25T09:42:11.8Z</time></trkpt><trkpt lat="45.94736038930078" lon="8.781162326981743"><ele>352.0</ele><time>2026-04-25T09:42:12.8Z</time></trkpt><trkpt lat="45.947454754131805" lon="8.781158698302663"><ele>352.0</ele><time>2026-04-25T09:42:13.8Z</time></trkpt><trkpt lat="45.94754745786049" lon="8.781153821860835"><ele>352.0</ele><time>2026-04-25T09:42:14.8Z</time></trkpt><trkpt lat="45.947639957341444" lon="8.781169204807206"><ele>352.0</ele><time>2026-04-25T09:42:15.8Z</time></trkpt><trkpt lat="45.94773209699814" lon="8.781208055183814"><ele>352.0</ele><time>2026-04-25T09:42:16.8Z</time></trkpt><trkpt lat="45.947813473037876" lon="8.78124462919236"><ele>348.6</ele><time>2026-04-25T09:42:17.8Z</time></trkpt><trkpt lat="45.94789359660519" lon="8.781300899129821"><ele>345.20000000000005</ele><time>2026-04-25T09:42:18.8Z</time></trkpt><trkpt lat="45.94796151527877" lon="8.781360283024352"><ele>341.8</ele><time>2026-04-25T09:42:19.8Z</time></trkpt><trkpt lat="45.94802093405996" lon="8.781418777149426"><ele>338.4</ele><time>2026-04-25T09:42:20.8Z</time></trkpt><trkpt lat="45.948115222056984" lon="8.781515221642524"><ele>335.0</ele><time>2026-04-25T09:42:22.8Z</time></trkpt><trkpt lat="45.94820076277215" lon="8.781609653855126"><ele>335.0</ele><time>2026-04-25T09:42:24.8Z</time></trkpt><trkpt lat="45.94829560253411" lon="8.781597113048104"><ele>335.0</ele><time>2026-04-25T09:42:26.8Z</time></trkpt><trkpt lat="45.948303137864556" lon="8.781460173466078"><ele>335.0</ele><time>2026-04-25T09:42:28.8Z</time></trkpt><trkpt lat="45.94824052799264" lon="8.781387714483602"><ele>335.0</ele><time>2026-04-25T09:42:29.8Z</time></trkpt><trkpt lat="45.948134550507255" lon="8.781276140821118"><ele>335.0</ele><time>2026-04-25T09:42:30.8Z</time></trkpt><trkpt lat="45.948004164551485" lon="8.781174583936092"><ele>335.0</ele><time>2026-04-25T09:42:31.8Z</time></trkpt><trkpt lat="45.94785078985465" lon="8.781070771195429"><ele>335.0</ele><time>2026-04-25T09:42:32.8Z</time></trkpt><trkpt lat="45.94771174528424" lon="8.780943604846783"><ele>335.0</ele><time>2026-04-25T09:42:33.8Z</time></trkpt><trkpt lat="45.947582524715216" lon="8.780811358413017"><ele>333.75</ele><time>2026-04-25T09:42:34.8Z</time></trkpt><trkpt lat="45.94746296240012" lon="8.780693109205702"><ele>332.5</ele><time>2026-04-25T09:42:35.8Z</time></trkpt><trkpt lat="45.94736060197471" lon="8.78059098811434"><ele>331.25</ele><time>2026-04-25T09:42:36.8Z</time></trkpt><trkpt lat="45.947258748531176" lon="8.780500216112875"><ele>330.0</ele><time>2026-04-25T09:42:37.8Z</time></trkpt><trkpt lat="45.94717501840842" lon="8.780396365111336"><ele>330.0</ele><time>2026-04-25T09:42:38.8Z</time></trkpt><trkpt lat="45.94711315342587" lon="8.780279631711217"><ele>330.0</ele><time>2026-04-25T09:42:39.8Z</time></trkpt><trkpt lat="45.94705567413269" lon="8.780168404642474"><ele>330.0</ele><time>2026-04-25T09:42:40.8Z</time></trkpt><trkpt lat="45.946994068693215" lon="8.780081373716811"><ele>330.0</ele><time>2026-04-25T09:42:41.8Z</time></trkpt><trkpt lat="45.94692176242052" lon="8.780027087407325"><ele>330.0</ele><time>2026-04-25T09:42:42.8Z</time></trkpt><trkpt lat="45.946845931285075" lon="8.780006297736136"><ele>330.0</ele><time>2026-04-25T09:42:43.8Z</time></trkpt><trkpt lat="45.94676461277653" lon="8.780008927268938"><ele>327.6666666666667</ele><time>2026-04-25T09:42:44.8Z</time></trkpt><trkpt lat="45.94667940539377" lon="8.78000976520058"><ele>325.3333333333333</ele><time>2026-04-25T09:42:45.8Z</time></trkpt><trkpt lat="45.94659544807701" lon="8.780017816588765"><ele>323.0</ele><time>2026-04-25T09:42:46.8Z</time></trkpt><trkpt lat="45.94650783903758" lon="8.780035375799654"><ele>320.66666666666663</ele><time>2026-04-25T09:42:47.8Z</time></trkpt><trkpt lat="45.94642975079298" lon="8.780068090551742"><ele>318.3333333333333</ele><time>2026-04-25T09:42:48.8Z</time></trkpt><trkpt lat="45.946364847151855" lon="8.780109241050742"><ele>316.0</ele><time>2026-04-25T09:42:49.8Z</time></trkpt><trkpt lat="45.94626113089057" lon="8.780143106098118"><ele>316.0</ele><time>2026-04-25T09:42:51.8Z</time></trkpt><trkpt lat="45.94620181135237" lon="8.780174293865528"><ele>316.0</ele><time>2026-04-25T09:42:52.8Z</time></trkpt><trkpt lat="45.946106904662926" lon="8.7801635751529"><ele>316.0</ele><time>2026-04-25T09:42:54.8Z</time></trkpt><trkpt lat="45.94614655939723" lon="8.780035916166572"><ele>316.0</ele><time>2026-04-25T09:42:56.8Z</time></trkpt><trkpt lat="45.946226553006866" lon="8.780019867029917"><ele>316.0</ele><time>2026-04-25T09:42:57.8Z</time></trkpt><trkpt lat="45.94635264077921" lon="8.779988902017125"><ele>316.0</ele><time>2026-04-25T09:42:58.8Z</time></trkpt><trkpt lat="45.94648622438974" lon="8.77994130370724"><ele>316.0</ele><time>2026-04-25T09:42:59.8Z</time></trkpt><trkpt lat="45.946591589482225" lon="8.779866870839294"><ele>316.0</ele><time>2026-04-25T09:43:00.8Z</time></trkpt><trkpt lat="45.94669529071695" lon="8.779825964395759"><ele>316.0</ele><time>2026-04-25T09:43:01.8Z</time></trkpt><trkpt lat="45.94679218056442" lon="8.779789799597824"><ele>314.40000000000003</ele><time>2026-04-25T09:43:02.8Z</time></trkpt><trkpt lat="45.94688822247432" lon="8.779763868557238"><ele>312.8</ele><time>2026-04-25T09:43:03.8Z</time></trkpt><trkpt lat="45.9469808296876" lon="8.779746122934705"><ele>311.20000000000005</ele><time>2026-04-25T09:43:04.8Z</time></trkpt><trkpt lat="45.94708070824271" lon="8.779788330386134"><ele>309.6</ele><time>2026-04-25T09:43:05.8Z</time></trkpt><trkpt lat="45.947192415330015" lon="8.779842098997289"><ele>308.0</ele><time>2026-04-25T09:43:06.8Z</time></trkpt><trkpt lat="45.94731818382747" lon="8.779914461910485"><ele>308.0</ele><time>2026-04-25T09:43:07.8Z</time></trkpt><trkpt lat="45.94747070945715" lon="8.779980905833751"><ele>308.0</ele><time>2026-04-25T09:43:08.8Z</time></trkpt><trkpt lat="45.94763114151307" lon="8.780023093585317"><ele>308.0</ele><time>2026-04-25T09:43:09.8Z</time></trkpt><trkpt lat="45.94778369135788" lon="8.780048842423788"><ele>307.0</ele><time>2026-04-25T09:43:10.8Z</time></trkpt><trkpt lat="45.94790931177654" lon="8.7800632363605"><ele>306.0</ele><time>2026-04-25T09:43:11.8Z</time></trkpt><trkpt lat="45.94801908638855" lon="8.780074278377624"><ele>305.0</ele><time>2026-04-25T09:43:12.8Z</time></trkpt><trkpt lat="45.9481100884248" lon="8.780094037939895"><ele>304.0</ele><time>2026-04-25T09:43:13.798Z</time></trkpt><trkpt lat="45.948185775073405" lon="8.780096020981293"><ele>303.0</ele><time>2026-04-25T09:43:14.797Z</time></trkpt><trkpt lat="45.948272683049254" lon="8.780087229577278"><ele>303.0</ele><time>2026-04-25T09:43:16.798Z</time></trkpt><trkpt lat="45.94829761094204" lon="8.779988327153557"><ele>303.0</ele><time>2026-04-25T09:43:18.798Z</time></trkpt><trkpt lat="45.94823967963788" lon="8.779882296609287"><ele>303.0</ele><time>2026-04-25T09:43:20.798Z</time></trkpt><trkpt lat="45.94816241623894" lon="8.77985839313415"><ele>303.0</ele><time>2026-04-25T09:43:21.798Z</time></trkpt><trkpt lat="45.94806289226077" lon="8.779855797786157"><ele>303.0</ele><time>2026-04-25T09:43:22.798Z</time></trkpt><trkpt lat="45.947958564296194" lon="8.779839418387196"><ele>303.0</ele><time>2026-04-25T09:43:23.797Z</time></trkpt><trkpt lat="45.94786600404469" lon="8.779782405646435"><ele>303.0</ele><time>2026-04-25T09:43:24.797Z</time></trkpt><trkpt lat="45.9477664802794" lon="8.779760113936783"><ele>303.0</ele><time>2026-04-25T09:43:25.798Z</time></trkpt><trkpt lat="45.94767495061412" lon="8.779714810353795"><ele>303.0</ele><time>2026-04-25T09:43:26.797Z</time></trkpt><trkpt lat="45.947583115644285" lon="8.779669189341718"><ele>303.0</ele><time>2026-04-25T09:43:27.797Z</time></trkpt><trkpt lat="45.94748878629518" lon="8.77961114908767"><ele>304.0</ele><time>2026-04-25T09:43:28.797Z</time></trkpt><trkpt lat="45.94739100819029" lon="8.779544043677708"><ele>305.0</ele><time>2026-04-25T09:43:29.797Z</time></trkpt><trkpt lat="45.94729280252148" lon="8.779469436591201"><ele>306.0</ele><time>2026-04-25T09:43:30.797Z</time></trkpt><trkpt lat="45.94719185807083" lon="8.779414224679785"><ele>307.0</ele><time>2026-04-25T09:43:31.797Z</time></trkpt><trkpt lat="45.94707586524836" lon="8.779387557114921"><ele>308.0</ele><time>2026-04-25T09:43:32.797Z</time></trkpt><trkpt lat="45.946952937830105" lon="8.779365710946246"><ele>302.25</ele><time>2026-04-25T09:43:33.797Z</time></trkpt><trkpt lat="45.946834140935614" lon="8.779345883125274"><ele>296.5</ele><time>2026-04-25T09:43:34.797Z</time></trkpt><trkpt lat="45.94672041809953" lon="8.77931600148883"><ele>290.75</ele><time>2026-04-25T09:43:35.797Z</time></trkpt><trkpt lat="45.94661005338817" lon="8.77928136717618"><ele>285.0</ele><time>2026-04-25T09:43:36.797Z</time></trkpt><trkpt lat="45.94650393105818" lon="8.77924277490984"><ele>285.0</ele><time>2026-04-25T09:43:37.797Z</time></trkpt><trkpt lat="45.94640706701983" lon="8.779211132177247"><ele>285.0</ele><time>2026-04-25T09:43:38.797Z</time></trkpt><trkpt lat="45.94630983496223" lon="8.779194183611658"><ele>285.0</ele><time>2026-04-25T09:43:39.797Z</time></trkpt><trkpt lat="45.946215981759636" lon="8.779200935737933"><ele>285.0</ele><time>2026-04-25T09:43:40.797Z</time></trkpt><trkpt lat="45.946123260220354" lon="8.779230449221549"><ele>285.0</ele><time>2026-04-25T09:43:41.797Z</time></trkpt><trkpt lat="45.946029117640244" lon="8.779269503486336"><ele>285.0</ele><time>2026-04-25T09:43:42.797Z</time></trkpt><trkpt lat="45.94595325347409" lon="8.779303646219502"><ele>285.0</ele><time>2026-04-25T09:43:43.797Z</time></trkpt><trkpt lat="45.945889175757884" lon="8.779330938630768"><ele>285.0</ele><time>2026-04-25T09:43:44.797Z</time></trkpt><trkpt lat="45.94579938173242" lon="8.779356057105295"><ele>285.0</ele><time>2026-04-25T09:43:46.797Z</time></trkpt><trkpt lat="45.945719365196034" lon="8.779379647033494"><ele>285.0</ele><time>2026-04-25T09:43:49.797Z</time></trkpt><trkpt lat="45.94565018240318" lon="8.779366791789641"><ele>285.0</ele><time>2026-04-25T09:43:51.797Z</time></trkpt><trkpt lat="45.945639735521674" lon="8.779244918248075"><ele>285.0</ele><time>2026-04-25T09:43:53.797Z</time></trkpt><trkpt lat="45.94571322469256" lon="8.779252275610146"><ele>285.0</ele><time>2026-04-25T09:43:54.797Z</time></trkpt><trkpt lat="45.94578085264507" lon="8.77921722520268"><ele>285.0</ele><time>2026-04-25T09:43:55.797Z</time></trkpt><trkpt lat="45.94585632158645" lon="8.779177057954719"><ele>285.0</ele><time>2026-04-25T09:43:56.797Z</time></trkpt><trkpt lat="45.94593157092088" lon="8.779110833495023"><ele>285.0</ele><time>2026-04-25T09:43:57.797Z</time></trkpt><trkpt lat="45.946021506627275" lon="8.779085492678249"><ele>285.0</ele><time>2026-04-25T09:43:58.797Z</time></trkpt><trkpt lat="45.94611086270253" lon="8.779035957560723"><ele>285.0</ele><time>2026-04-25T09:43:59.797Z</time></trkpt><trkpt lat="45.94621144888257" lon="8.778980196869238"><ele>285.0</ele><time>2026-04-25T09:44:00.797Z</time></trkpt><trkpt lat="45.94631898475952" lon="8.778920583659417"><ele>285.0</ele><time>2026-04-25T09:44:01.797Z</time></trkpt><trkpt lat="45.94642622273718" lon="8.77886113558111"><ele>285.0</ele><time>2026-04-25T09:44:02.797Z</time></trkpt><trkpt lat="45.94653259844973" lon="8.778803594354786"><ele>285.0</ele><time>2026-04-25T09:44:03.797Z</time></trkpt><trkpt lat="45.94664300600684" lon="8.778750354343813"><ele>285.0</ele><time>2026-04-25T09:44:04.797Z</time></trkpt><trkpt lat="45.9467578400683" lon="8.778680223653627"><ele>285.0</ele><time>2026-04-25T09:44:05.797Z</time></trkpt><trkpt lat="45.946882767063954" lon="8.778651448090784"><ele>285.0</ele><time>2026-04-25T09:44:06.797Z</time></trkpt><trkpt lat="45.94700403125187" lon="8.778685674314646"><ele>284.25</ele><time>2026-04-25T09:44:07.797Z</time></trkpt><trkpt lat="45.94712514345712" lon="8.778685795828475"><ele>283.5</ele><time>2026-04-25T09:44:08.797Z</time></trkpt><trkpt lat="45.94724127150863" lon="8.778657273894483"><ele>282.75</ele><time>2026-04-25T09:44:09.797Z</time></trkpt><trkpt lat="45.947348389923825" lon="8.778615170047193"><ele>282.0</ele><time>2026-04-25T09:44:10.797Z</time></trkpt><trkpt lat="45.94745855169316" lon="8.77857575999175"><ele>283.0</ele><time>2026-04-25T09:44:11.797Z</time></trkpt><trkpt lat="45.94757384018903" lon="8.77854717886497"><ele>284.0</ele><time>2026-04-25T09:44:12.797Z</time></trkpt><trkpt lat="45.94769455735498" lon="8.778526222376668"><ele>285.0</ele><time>2026-04-25T09:44:13.797Z</time></trkpt><trkpt lat="45.947809784847095" lon="8.778500481109033"><ele>286.0</ele><time>2026-04-25T09:44:14.797Z</time></trkpt><trkpt lat="45.94792058601116" lon="8.778461282269781"><ele>282.2</ele><time>2026-04-25T09:44:15.797Z</time></trkpt><trkpt lat="45.94801604457188" lon="8.778382196873618"><ele>278.40000000000003</ele><time>2026-04-25T09:44:16.797Z</time></trkpt><trkpt lat="45.948112021027846" lon="8.778322246016263"><ele>274.6</ele><time>2026-04-25T09:44:17.796Z</time></trkpt><trkpt lat="45.94819795853582" lon="8.77824642616909"><ele>270.8</ele><time>2026-04-25T09:44:18.796Z</time></trkpt><trkpt lat="45.94828309264959" lon="8.778146399449318"><ele>267.0</ele><time>2026-04-25T09:44:19.796Z</time></trkpt><trkpt lat="45.94835321260139" lon="8.77803571307267"><ele>267.8</ele><time>2026-04-25T09:44:20.796Z</time></trkpt><trkpt lat="45.948412268801206" lon="8.77793382169943"><ele>268.6</ele><time>2026-04-25T09:44:21.796Z</time></trkpt><trkpt lat="45.94847438645713" lon="8.777824786416419"><ele>269.40000000000003</ele><time>2026-04-25T09:44:22.796Z</time></trkpt><trkpt lat="45.9485322057162" lon="8.777722927325257"><ele>270.2</ele><time>2026-04-25T09:44:23.796Z</time></trkpt><trkpt lat="45.94858664077873" lon="8.777627533292101"><ele>271.0</ele><time>2026-04-25T09:44:24.796Z</time></trkpt><trkpt lat="45.948642746048314" lon="8.777530287161584"><ele>271.0</ele><time>2026-04-25T09:44:25.796Z</time></trkpt><trkpt lat="45.94870271475465" lon="8.777413798043012"><ele>271.0</ele><time>2026-04-25T09:44:26.796Z</time></trkpt><trkpt lat="45.9487642384405" lon="8.777298299124544"><ele>271.0</ele><time>2026-04-25T09:44:27.796Z</time></trkpt><trkpt lat="45.948826968892945" lon="8.777184867375682"><ele>271.0</ele><time>2026-04-25T09:44:28.796Z</time></trkpt><trkpt lat="45.94889379728521" lon="8.777079479528647"><ele>271.0</ele><time>2026-04-25T09:44:29.796Z</time></trkpt><trkpt lat="45.94895581141987" lon="8.776978573972793"><ele>271.0</ele><time>2026-04-25T09:44:30.796Z</time></trkpt><trkpt lat="45.949003704113224" lon="8.776861136468138"><ele>271.0</ele><time>2026-04-25T09:44:31.796Z</time></trkpt><trkpt lat="45.94903728458596" lon="8.776728376194452"><ele>271.0</ele><time>2026-04-25T09:44:32.796Z</time></trkpt><trkpt lat="45.949070364631616" lon="8.776602905765424"><ele>271.0</ele><time>2026-04-25T09:44:33.796Z</time></trkpt><trkpt lat="45.9490968800441" lon="8.776481520792023"><ele>271.0</ele><time>2026-04-25T09:44:34.796Z</time></trkpt><trkpt lat="45.949093802917595" lon="8.776356185038352"><ele>268.5</ele><time>2026-04-25T09:44:35.796Z</time></trkpt><trkpt lat="45.94905233814161" lon="8.776250597935789"><ele>266.0</ele><time>2026-04-25T09:44:36.796Z</time></trkpt><trkpt lat="45.94899897332189" lon="8.776157077285617"><ele>263.5</ele><time>2026-04-25T09:44:37.796Z</time></trkpt><trkpt lat="45.94893696637405" lon="8.776061181684513"><ele>261.0</ele><time>2026-04-25T09:44:38.796Z</time></trkpt><trkpt lat="45.94887353863543" lon="8.77597607651748"><ele>258.5</ele><time>2026-04-25T09:44:39.796Z</time></trkpt><trkpt lat="45.94881931911602" lon="8.775873642362647"><ele>256.0</ele><time>2026-04-25T09:44:40.796Z</time></trkpt><trkpt lat="45.94877604897406" lon="8.7757567035295"><ele>255.20000000000002</ele><time>2026-04-25T09:44:41.796Z</time></trkpt><trkpt lat="45.94874038213331" lon="8.775637148911674"><ele>254.40000000000003</ele><time>2026-04-25T09:44:42.796Z</time></trkpt><trkpt lat="45.94870539833818" lon="8.775507202985906"><ele>253.6</ele><time>2026-04-25T09:44:43.796Z</time></trkpt><trkpt lat="45.94867279169129" lon="8.775366032783598"><ele>252.8</ele><time>2026-04-25T09:44:44.796Z</time></trkpt><trkpt lat="45.94864269263415" lon="8.775219967976513"><ele>252.0</ele><time>2026-04-25T09:44:45.796Z</time></trkpt><trkpt lat="45.94862149406775" lon="8.775072113257625"><ele>251.8</ele><time>2026-04-25T09:44:46.796Z</time></trkpt><trkpt lat="45.94860832074512" lon="8.7749349358383"><ele>251.6</ele><time>2026-04-25T09:44:47.796Z</time></trkpt><trkpt lat="45.94859811616893" lon="8.774789809990196"><ele>251.40000000000003</ele><time>2026-04-25T09:44:48.796Z</time></trkpt><trkpt lat="45.94859064194439" lon="8.77465213961989"><ele>251.20000000000002</ele><time>2026-04-25T09:44:49.796Z</time></trkpt><trkpt lat="45.94858510794031" lon="8.774519139909302"><ele>251.0</ele><time>2026-04-25T09:44:50.796Z</time></trkpt><trkpt lat="45.94858107468939" lon="8.774392232683013"><ele>250.66666666666669</ele><time>2026-04-25T09:44:51.796Z</time></trkpt><trkpt lat="45.948582470820185" lon="8.77427237036997"><ele>250.33333333333334</ele><time>2026-04-25T09:44:52.796Z</time></trkpt><trkpt lat="45.94858507056862" lon="8.774144623721027"><ele>250.0</ele><time>2026-04-25T09:44:53.796Z</time></trkpt><trkpt lat="45.94858260954521" lon="8.77400600773156"><ele>249.66666666666669</ele><time>2026-04-25T09:44:54.796Z</time></trkpt><trkpt lat="45.948579418595166" lon="8.773875990941237"><ele>249.33333333333334</ele><time>2026-04-25T09:44:55.796Z</time></trkpt><trkpt lat="45.94857595606979" lon="8.77376563023593"><ele>249.0</ele><time>2026-04-25T09:44:56.796Z</time></trkpt><trkpt lat="45.94857493652066" lon="8.773617692623858"><ele>249.0</ele><time>2026-04-25T09:44:58.796Z</time></trkpt><trkpt lat="45.948572398869274" lon="8.773523017055544"><ele>248.99999999999997</ele><time>2026-04-25T09:45:10.796Z</time></trkpt><trkpt lat="45.94856504456698" lon="8.773326557709572"><ele>248.99999999999997</ele><time>2026-04-25T09:45:12.796Z</time></trkpt><trkpt lat="45.9485459030703" lon="8.77315591449366"><ele>249.0</ele><time>2026-04-25T09:45:14.796Z</time></trkpt><trkpt lat="45.948541523146325" lon="8.773065192744626"><ele>249.0</ele><time>2026-04-25T09:45:15.796Z</time></trkpt><trkpt lat="45.9485483536529" lon="8.772925046719857"><ele>248.25</ele><time>2026-04-25T09:45:17.796Z</time></trkpt><trkpt lat="45.94854392044266" lon="8.772787359797132"><ele>247.5</ele><time>2026-04-25T09:45:19.794Z</time></trkpt><trkpt lat="45.94873126855142" lon="8.772712740230293"><ele>246.75</ele><time>2026-04-25T09:45:23.794Z</time></trkpt><trkpt lat="45.94882634100768" lon="8.77272421362605"><ele>246.0</ele><time>2026-04-25T09:45:25.794Z</time></trkpt><trkpt lat="45.948892631978445" lon="8.772744639655693"><ele>246.0</ele><time>2026-04-25T09:45:27.794Z</time></trkpt><trkpt lat="45.94878378218333" lon="8.772705151817771"><ele>246.00000000000003</ele><time>2026-04-25T09:46:07.793Z</time></trkpt><trkpt lat="45.94870193599167" lon="8.772699483241402"><ele>246.00000000000003</ele><time>2026-04-25T09:46:08.793Z</time></trkpt><trkpt lat="45.94863422403887" lon="8.772694793599568"><ele>246.0</ele><time>2026-04-25T09:46:09.792Z</time></trkpt><trkpt lat="45.9485567327207" lon="8.772689426660389"><ele>246.0</ele><time>2026-04-25T09:46:11.792Z</time></trkpt><trkpt lat="45.94856602472166" lon="8.772448971609194"><ele>245.0</ele><time>2026-04-25T09:46:14.792Z</time></trkpt><trkpt lat="45.9486384787334" lon="8.772288333013057"><ele>244.0</ele><time>2026-04-25T09:46:15.792Z</time></trkpt><trkpt lat="45.94864434124868" lon="8.772100299083558"><ele>243.0</ele><time>2026-04-25T09:46:16.792Z</time></trkpt><trkpt lat="45.94863456424305" lon="8.771932839130514"><ele>242.0</ele><time>2026-04-25T09:46:17.792Z</time></trkpt><trkpt lat="45.94844797556144" lon="8.771767453001837"><ele>241.75</ele><time>2026-04-25T09:46:18.792Z</time></trkpt><trkpt lat="45.94843894840953" lon="8.771568689409067"><ele>241.5</ele><time>2026-04-25T09:46:19.792Z</time></trkpt><trkpt lat="45.94842708719477" lon="8.771379705546124"><ele>241.25</ele><time>2026-04-25T09:46:20.792Z</time></trkpt><trkpt lat="45.948418035962035" lon="8.771189212415509"><ele>241.0</ele><time>2026-04-25T09:46:21.792Z</time></trkpt><trkpt lat="45.948409527457834" lon="8.771016036395167"><ele>240.20000000000002</ele><time>2026-04-25T09:46:22.792Z</time></trkpt><trkpt lat="45.94839894447201" lon="8.770855434552436"><ele>239.40000000000003</ele><time>2026-04-25T09:46:23.792Z</time></trkpt><trkpt lat="45.94839264283273" lon="8.77070963415092"><ele>238.6</ele><time>2026-04-25T09:46:24.792Z</time></trkpt><trkpt lat="45.948387173143836" lon="8.770583752573827"><ele>237.8</ele><time>2026-04-25T09:46:25.792Z</time></trkpt><trkpt lat="45.94838540862115" lon="8.770461341087335"><ele>237.0</ele><time>2026-04-25T09:46:26.792Z</time></trkpt><trkpt lat="45.948381013936" lon="8.770335502647992"><ele>237.16666666666666</ele><time>2026-04-25T09:46:27.792Z</time></trkpt><trkpt lat="45.94837617017791" lon="8.77021816009679"><ele>237.33333333333331</ele><time>2026-04-25T09:46:28.792Z</time></trkpt><trkpt lat="45.948370636146414" lon="8.770111317097454"><ele>237.5</ele><time>2026-04-25T09:46:29.792Z</time></trkpt><trkpt lat="45.94836699128261" lon="8.769995518198641"><ele>237.66666666666666</ele><time>2026-04-25T09:46:30.792Z</time></trkpt><trkpt lat="45.94836091624173" lon="8.769894506124754"><ele>237.83333333333331</ele><time>2026-04-25T09:46:31.792Z</time></trkpt><trkpt lat="45.94835465303156" lon="8.769798833615821"><ele>238.0</ele><time>2026-04-25T09:46:32.792Z</time></trkpt><trkpt lat="45.94834721945454" lon="8.769690106213815"><ele>237.4</ele><time>2026-04-25T09:46:33.792Z</time></trkpt><trkpt lat="45.94833914201718" lon="8.769567497335697"><ele>236.8</ele><time>2026-04-25T09:46:34.792Z</time></trkpt><trkpt lat="45.94833042197856" lon="8.76943510569323"><ele>236.2</ele><time>2026-04-25T09:46:35.792Z</time></trkpt><trkpt lat="45.948318434922655" lon="8.769284282570371"><ele>235.6</ele><time>2026-04-25T09:46:36.792Z</time></trkpt><trkpt lat="45.94830878026133" lon="8.769090911371542"><ele>235.0</ele><time>2026-04-25T09:46:37.792Z</time></trkpt><trkpt lat="45.9482993677282" lon="8.76888588598141"><ele>234.75</ele><time>2026-04-25T09:46:38.792Z</time></trkpt><trkpt lat="45.94829124078089" lon="8.768683447237624"><ele>234.5</ele><time>2026-04-25T09:46:39.792Z</time></trkpt><trkpt lat="45.94828137455881" lon="8.76849700037712"><ele>234.25</ele><time>2026-04-25T09:46:40.792Z</time></trkpt><trkpt lat="45.94827478132963" lon="8.76832301532199"><ele>234.0</ele><time>2026-04-25T09:46:41.794Z</time></trkpt><trkpt lat="45.94827170300588" lon="8.768167357658127"><ele>234.5</ele><time>2026-04-25T09:46:42.796Z</time></trkpt><trkpt lat="45.94827559497774" lon="8.768064590956739"><ele>235.0</ele><time>2026-04-25T09:46:43.798Z</time></trkpt><trkpt lat="45.94827965706102" lon="8.767968882408688"><ele>235.5</ele><time>2026-04-25T09:46:47.805Z</time></trkpt><trkpt lat="45.94833383108746" lon="8.767906643552932"><ele>236.0</ele><time>2026-04-25T09:49:53.823Z</time></trkpt><trkpt lat="45.94827567094124" lon="8.767854298010114"><ele>236.5</ele><time>2026-04-25T09:50:00.823Z</time></trkpt><trkpt lat="45.94825041157784" lon="8.767691615678027"><ele>237.0</ele><time>2026-04-25T09:50:02.823Z</time></trkpt><trkpt lat="45.948240213193124" lon="8.767589931486373"><ele>237.8</ele><time>2026-04-25T09:50:03.823Z</time></trkpt><trkpt lat="45.948240004601026" lon="8.76749351364006"><ele>238.6</ele><time>2026-04-25T09:50:08.823Z</time></trkpt><trkpt lat="45.94825597224261" lon="8.76731623627148"><ele>239.40000000000003</ele><time>2026-04-25T09:50:10.823Z</time></trkpt><trkpt lat="45.94814772896515" lon="8.767267461032755"><ele>240.20000000000002</ele><time>2026-04-25T09:50:12.823Z</time></trkpt><trkpt lat="45.948075878821236" lon="8.767320263826052"><ele>241.0</ele><time>2026-04-25T09:50:13.823Z</time></trkpt><trkpt lat="45.94798477038535" lon="8.767368168823605"><ele>241.0</ele><time>2026-04-25T09:50:14.823Z</time></trkpt><trkpt lat="45.947899042053436" lon="8.767375681499443"><ele>241.00000000000003</ele><time>2026-04-25T09:50:15.823Z</time></trkpt><trkpt lat="45.9478283326972" lon="8.767483890385655"><ele>241.00000000000003</ele><time>2026-04-25T09:50:17.823Z</time></trkpt><trkpt lat="45.94790378783825" lon="8.767591085919717"><ele>241.0</ele><time>2026-04-25T09:50:19.823Z</time></trkpt><trkpt lat="45.947968191135416" lon="8.767589761732825"><ele>241.0</ele><time>2026-04-25T09:50:20.823Z</time></trkpt><trkpt lat="45.94806523676414" lon="8.76758574119234"><ele>241.0</ele><time>2026-04-25T09:50:22.823Z</time></trkpt><trkpt lat="45.94815103753602" lon="8.767664860071005"><ele>241.0</ele><time>2026-04-25T09:50:24.823Z</time></trkpt><trkpt lat="45.94821292407446" lon="8.767856084026944"><ele>241.0</ele><time>2026-04-25T09:50:26.823Z</time></trkpt><trkpt lat="45.94823985385324" lon="8.768015589104778"><ele>241.0</ele><time>2026-04-25T09:50:27.823Z</time></trkpt><trkpt lat="45.9482561950327" lon="8.768220899645343"><ele>239.66666666666666</ele><time>2026-04-25T09:50:28.823Z</time></trkpt><trkpt lat="45.948256477766286" lon="8.768478627779773"><ele>238.33333333333331</ele><time>2026-04-25T09:50:29.823Z</time></trkpt><trkpt lat="45.94825309786211" lon="8.768789457125498"><ele>237.0</ele><time>2026-04-25T09:50:30.823Z</time></trkpt><trkpt lat="45.94826243585624" lon="8.769101775825314"><ele>236.33333333333331</ele><time>2026-04-25T09:50:31.823Z</time></trkpt><trkpt lat="45.94828760845976" lon="8.769391036463366"><ele>235.66666666666666</ele><time>2026-04-25T09:50:32.823Z</time></trkpt><trkpt lat="45.948305451207126" lon="8.769666106066273"><ele>235.0</ele><time>2026-04-25T09:50:33.823Z</time></trkpt><trkpt lat="45.9483214968076" lon="8.769935430906918"><ele>235.0</ele><time>2026-04-25T09:50:34.823Z</time></trkpt><trkpt lat="45.94834258343284" lon="8.770186151479196"><ele>235.0</ele><time>2026-04-25T09:50:35.823Z</time></trkpt><trkpt lat="45.94835769951272" lon="8.770424201440578"><ele>235.0</ele><time>2026-04-25T09:50:36.823Z</time></trkpt><trkpt lat="45.9483786729721" lon="8.770644106235057"><ele>235.5</ele><time>2026-04-25T09:50:37.823Z</time></trkpt><trkpt lat="45.94839715091881" lon="8.770856155641999"><ele>236.0</ele><time>2026-04-25T09:50:38.823Z</time></trkpt><trkpt lat="45.948402482611556" lon="8.771065048313284"><ele>236.5</ele><time>2026-04-25T09:50:39.823Z</time></trkpt><trkpt lat="45.94841383601473" lon="8.771269288373738"><ele>237.0</ele><time>2026-04-25T09:50:40.823Z</time></trkpt><trkpt lat="45.94841931312217" lon="8.771476928600146"><ele>238.0</ele><time>2026-04-25T09:50:41.823Z</time></trkpt><trkpt lat="45.94842661297879" lon="8.771690608993135"><ele>239.0</ele><time>2026-04-25T09:50:42.823Z</time></trkpt><trkpt lat="45.948433033238004" lon="8.77190325191955"><ele>240.0</ele><time>2026-04-25T09:50:43.823Z</time></trkpt><trkpt lat="45.94843992400445" lon="8.772112801305559"><ele>241.0</ele><time>2026-04-25T09:50:44.823Z</time></trkpt><trkpt lat="45.94845508576003" lon="8.77229479594793"><ele>241.20000000000002</ele><time>2026-04-25T09:50:45.823Z</time></trkpt><trkpt lat="45.94846705422263" lon="8.772444507374654"><ele>241.40000000000003</ele><time>2026-04-25T09:50:46.823Z</time></trkpt><trkpt lat="45.948488904992146" lon="8.772569374841932"><ele>241.6</ele><time>2026-04-25T09:50:47.823Z</time></trkpt><trkpt lat="45.94852111771978" lon="8.772657730032522"><ele>241.8</ele><time>2026-04-25T09:50:48.823Z</time></trkpt><trkpt lat="45.94864904065272" lon="8.772699690997857"><ele>242.0</ele><time>2026-04-25T09:50:50.823Z</time></trkpt><trkpt lat="45.94874142347931" lon="8.772687692278799"><ele>242.0</ele><time>2026-04-25T09:50:51.823Z</time></trkpt><trkpt lat="45.9488520796112" lon="8.772675517323734"><ele>242.0</ele><time>2026-04-25T09:50:52.823Z</time></trkpt><trkpt lat="45.948986674224614" lon="8.772676678111463"><ele>242.0</ele><time>2026-04-25T09:50:53.823Z</time></trkpt><trkpt lat="45.94912447160005" lon="8.772688176492544"><ele>242.0</ele><time>2026-04-25T09:50:54.823Z</time></trkpt><trkpt lat="45.949251310574546" lon="8.772706964609304"><ele>242.5</ele><time>2026-04-25T09:50:55.823Z</time></trkpt><trkpt lat="45.949386271144036" lon="8.77269971867742"><ele>243.0</ele><time>2026-04-25T09:50:56.823Z</time></trkpt><trkpt lat="45.94951639863246" lon="8.772709334200993"><ele>243.5</ele><time>2026-04-25T09:50:57.823Z</time></trkpt><trkpt lat="45.9496513625416" lon="8.772718205726477"><ele>244.0</ele><time>2026-04-25T09:50:58.823Z</time></trkpt><trkpt lat="45.949785959311136" lon="8.772733577396444"><ele>244.0</ele><time>2026-04-25T09:50:59.823Z</time></trkpt><trkpt lat="45.94992102428736" lon="8.772771146938185"><ele>244.0</ele><time>2026-04-25T09:51:00.823Z</time></trkpt><trkpt lat="45.95005980969604" lon="8.772832015552213"><ele>244.0</ele><time>2026-04-25T09:51:01.823Z</time></trkpt><trkpt lat="45.95019000297065" lon="8.772927320617134"><ele>244.0</ele><time>2026-04-25T09:51:02.823Z</time></trkpt><trkpt lat="45.950315255675164" lon="8.773011610317347"><ele>244.25</ele><time>2026-04-25T09:51:03.823Z</time></trkpt><trkpt lat="45.95044536054082" lon="8.77308579398828"><ele>244.5</ele><time>2026-04-25T09:51:04.823Z</time></trkpt><trkpt lat="45.95057930502475" lon="8.77316574192024"><ele>244.75</ele><time>2026-04-25T09:51:05.823Z</time></trkpt><trkpt lat="45.95071590663135" lon="8.773253594659412"><ele>245.0</ele><time>2026-04-25T09:51:06.823Z</time></trkpt><trkpt lat="45.950859762388646" lon="8.773340052732895"><ele>247.66666666666669</ele><time>2026-04-25T09:51:07.823Z</time></trkpt><trkpt lat="45.95100614504576" lon="8.773431835534522"><ele>250.33333333333331</ele><time>2026-04-25T09:51:08.823Z</time></trkpt><trkpt lat="45.95115706347231" lon="8.773519543498367"><ele>253.0</ele><time>2026-04-25T09:51:09.823Z</time></trkpt><trkpt lat="45.95130946915542" lon="8.773603264599515"><ele>255.75</ele><time>2026-04-25T09:51:10.823Z</time></trkpt><trkpt lat="45.951450404852274" lon="8.773687009445602"><ele>258.5</ele><time>2026-04-25T09:51:11.823Z</time></trkpt><trkpt lat="45.951576185538684" lon="8.7737672878284"><ele>261.25</ele><time>2026-04-25T09:51:12.823Z</time></trkpt><trkpt lat="45.951649395374226" lon="8.77385317083276"><ele>264.0</ele><time>2026-04-25T09:51:13.823Z</time></trkpt><trkpt lat="45.951681415060996" lon="8.773935954040676"><ele>264.0</ele><time>2026-04-25T09:51:14.823Z</time></trkpt><trkpt lat="45.95166907368444" lon="8.774036294687374"><ele>264.0</ele><time>2026-04-25T09:51:15.823Z</time></trkpt><trkpt lat="45.95162614913656" lon="8.774138126356034"><ele>264.0</ele><time>2026-04-25T09:51:16.823Z</time></trkpt><trkpt lat="45.95155080743192" lon="8.77425099842424"><ele>264.0</ele><time>2026-04-25T09:51:17.823Z</time></trkpt><trkpt lat="45.95149063743865" lon="8.77440444888542"><ele>264.0</ele><time>2026-04-25T09:51:18.823Z</time></trkpt><trkpt lat="45.95145738726811" lon="8.774556323104546"><ele>266.4</ele><time>2026-04-25T09:51:19.823Z</time></trkpt><trkpt lat="45.95143925540299" lon="8.77469852856762"><ele>268.79999999999995</ele><time>2026-04-25T09:51:20.823Z</time></trkpt><trkpt lat="45.95141813323765" lon="8.774860315432546"><ele>271.20000000000005</ele><time>2026-04-25T09:51:21.823Z</time></trkpt><trkpt lat="45.95138760247129" lon="8.774998652392428"><ele>273.6</ele><time>2026-04-25T09:51:22.823Z</time></trkpt><trkpt lat="45.95136693150361" lon="8.775134114852637"><ele>276.0</ele><time>2026-04-25T09:51:23.823Z</time></trkpt><trkpt lat="45.95134024664104" lon="8.775243153042187"><ele>276.0</ele><time>2026-04-25T09:51:24.823Z</time></trkpt><trkpt lat="45.95135603499033" lon="8.77536232927244"><ele>276.0</ele><time>2026-04-25T09:51:26.823Z</time></trkpt><trkpt lat="45.95145364301996" lon="8.775322795808687"><ele>276.0</ele><time>2026-04-25T09:51:28.823Z</time></trkpt><trkpt lat="45.95147771785814" lon="8.775224333719994"><ele>276.0</ele><time>2026-04-25T09:51:29.823Z</time></trkpt><trkpt lat="45.95149411185615" lon="8.775113534235297"><ele>276.0</ele><time>2026-04-25T09:51:30.823Z</time></trkpt><trkpt lat="45.95151885280485" lon="8.774995120096445"><ele>276.0</ele><time>2026-04-25T09:51:31.823Z</time></trkpt><trkpt lat="45.95156431082929" lon="8.77486649471851"><ele>276.0</ele><time>2026-04-25T09:51:32.823Z</time></trkpt><trkpt lat="45.95160039720765" lon="8.774741051594365"><ele>276.0</ele><time>2026-04-25T09:51:33.823Z</time></trkpt><trkpt lat="45.951634983092944" lon="8.7746328556545"><ele>276.0</ele><time>2026-04-25T09:51:34.823Z</time></trkpt><trkpt lat="45.95168396523673" lon="8.774536846280158"><ele>276.0</ele><time>2026-04-25T09:51:35.823Z</time></trkpt><trkpt lat="45.951773250610685" lon="8.77441657101952"><ele>276.0</ele><time>2026-04-25T09:51:36.823Z</time></trkpt><trkpt lat="45.95189319402414" lon="8.77429534671301"><ele>280.75</ele><time>2026-04-25T09:51:37.821Z</time></trkpt><trkpt lat="45.95199520216592" lon="8.774159631697007"><ele>285.5</ele><time>2026-04-25T09:51:38.821Z</time></trkpt><trkpt lat="45.952089486724795" lon="8.774019535463308"><ele>290.25</ele><time>2026-04-25T09:51:39.821Z</time></trkpt><trkpt lat="45.95217183595862" lon="8.773868514426061"><ele>295.0</ele><time>2026-04-25T09:51:40.82Z</time></trkpt><trkpt lat="45.95224503820048" lon="8.77370396694739"><ele>289.66666666666663</ele><time>2026-04-25T09:51:41.821Z</time></trkpt><trkpt lat="45.95231987662545" lon="8.773494544041265"><ele>284.3333333333333</ele><time>2026-04-25T09:51:42.821Z</time></trkpt><trkpt lat="45.95240336154872" lon="8.773261776680384"><ele>279.0</ele><time>2026-04-25T09:51:43.821Z</time></trkpt><trkpt lat="45.95248720084008" lon="8.773031796071267"><ele>281.75</ele><time>2026-04-25T09:51:44.82Z</time></trkpt><trkpt lat="45.952556404717704" lon="8.77283319112663"><ele>284.5</ele><time>2026-04-25T09:51:45.82Z</time></trkpt><trkpt lat="45.95261818819914" lon="8.772679404422819"><ele>287.25</ele><time>2026-04-25T09:51:46.82Z</time></trkpt><trkpt lat="45.95268523115793" lon="8.772570808960069"><ele>290.0</ele><time>2026-04-25T09:51:47.821Z</time></trkpt><trkpt lat="45.95276205642386" lon="8.772484174015819"><ele>290.0</ele><time>2026-04-25T09:51:48.821Z</time></trkpt><trkpt lat="45.95284143322345" lon="8.77242874165431"><ele>290.0</ele><time>2026-04-25T09:51:49.82Z</time></trkpt><trkpt lat="45.95292728808028" lon="8.772391263647135"><ele>290.0</ele><time>2026-04-25T09:51:50.821Z</time></trkpt><trkpt lat="45.95302089020277" lon="8.77234965167557"><ele>290.0</ele><time>2026-04-25T09:51:51.821Z</time></trkpt><trkpt lat="45.953120388374565" lon="8.77227456763691"><ele>290.0</ele><time>2026-04-25T09:51:52.821Z</time></trkpt><trkpt lat="45.95321826557436" lon="8.772171859881379"><ele>290.0</ele><time>2026-04-25T09:51:53.821Z</time></trkpt><trkpt lat="45.953316207466784" lon="8.772068169666522"><ele>290.0</ele><time>2026-04-25T09:51:54.821Z</time></trkpt><trkpt lat="45.953405983954966" lon="8.771983270214992"><ele>290.0</ele><time>2026-04-25T09:51:55.82Z</time></trkpt><trkpt lat="45.95350331042054" lon="8.771905534521403"><ele>290.0</ele><time>2026-04-25T09:51:56.82Z</time></trkpt><trkpt lat="45.95360425667026" lon="8.771845988721148"><ele>290.0</ele><time>2026-04-25T09:51:57.82Z</time></trkpt><trkpt lat="45.95371319104635" lon="8.771814167966646"><ele>290.5</ele><time>2026-04-25T09:51:58.82Z</time></trkpt><trkpt lat="45.953843660528655" lon="8.771813027603288"><ele>291.0</ele><time>2026-04-25T09:51:59.82Z</time></trkpt><trkpt lat="45.953975385695394" lon="8.771807550288875"><ele>291.5</ele><time>2026-04-25T09:52:00.82Z</time></trkpt><trkpt lat="45.95410100470298" lon="8.771757582110151"><ele>292.0</ele><time>2026-04-25T09:52:01.82Z</time></trkpt><trkpt lat="45.95426651227304" lon="8.771663371752505"><ele>299.3333333333333</ele><time>2026-04-25T09:52:02.82Z</time></trkpt><trkpt lat="45.95442843740161" lon="8.77154420525766"><ele>306.6666666666667</ele><time>2026-04-25T09:52:03.82Z</time></trkpt><trkpt lat="45.954566572579346" lon="8.771419643216705"><ele>314.0</ele><time>2026-04-25T09:52:04.82Z</time></trkpt><trkpt lat="45.95467330294706" lon="8.771304491588845"><ele>314.0</ele><time>2026-04-25T09:52:05.82Z</time></trkpt><trkpt lat="45.95476246514736" lon="8.771191517179792"><ele>314.0</ele><time>2026-04-25T09:52:06.82Z</time></trkpt><trkpt lat="45.95483841667675" lon="8.771082444181246"><ele>314.0</ele><time>2026-04-25T09:52:07.82Z</time></trkpt><trkpt lat="45.954896979000814" lon="8.770983462576124"><ele>314.0</ele><time>2026-04-25T09:52:08.82Z</time></trkpt><trkpt lat="45.95495083259151" lon="8.770921179449951"><ele>314.0</ele><time>2026-04-25T09:52:09.82Z</time></trkpt><trkpt lat="45.95507606889888" lon="8.770954775552399"><ele>314.0</ele><time>2026-04-25T09:52:11.82Z</time></trkpt><trkpt lat="45.95511905537481" lon="8.771047131953274"><ele>314.0</ele><time>2026-04-25T09:52:12.82Z</time></trkpt><trkpt lat="45.95512140739232" lon="8.771161576693494"><ele>314.0</ele><time>2026-04-25T09:52:13.82Z</time></trkpt><trkpt lat="45.955087016897814" lon="8.771265485064827"><ele>314.0</ele><time>2026-04-25T09:52:14.82Z</time></trkpt><trkpt lat="45.95500488327114" lon="8.771360331649387"><ele>314.0</ele><time>2026-04-25T09:52:15.82Z</time></trkpt><trkpt lat="45.95488951946015" lon="8.77143620616195"><ele>314.0</ele><time>2026-04-25T09:52:16.82Z</time></trkpt><trkpt lat="45.954806097179045" lon="8.771544280020207"><ele>314.0</ele><time>2026-04-25T09:52:17.82Z</time></trkpt><trkpt lat="45.954724640674925" lon="8.771718522699128"><ele>314.0</ele><time>2026-04-25T09:52:18.82Z</time></trkpt><trkpt lat="45.9546332566" lon="8.771956892371351"><ele>314.0</ele><time>2026-04-25T09:52:19.82Z</time></trkpt><trkpt lat="45.95455987446185" lon="8.772195990425693"><ele>319.0</ele><time>2026-04-25T09:52:20.82Z</time></trkpt><trkpt lat="45.95450552840297" lon="8.772425532312322"><ele>324.0</ele><time>2026-04-25T09:52:21.82Z</time></trkpt><trkpt lat="45.95443524685918" lon="8.77262331439757"><ele>329.0</ele><time>2026-04-25T09:52:22.82Z</time></trkpt><trkpt lat="45.95435732159519" lon="8.772818822213432"><ele>326.0</ele><time>2026-04-25T09:52:23.82Z</time></trkpt><trkpt lat="45.95425813290565" lon="8.773002687245343"><ele>323.0</ele><time>2026-04-25T09:52:24.82Z</time></trkpt><trkpt lat="45.954145232102505" lon="8.77317243619573"><ele>320.0</ele><time>2026-04-25T09:52:25.82Z</time></trkpt><trkpt lat="45.95403318110608" lon="8.773333312090644"><ele>320.0</ele><time>2026-04-25T09:52:26.82Z</time></trkpt><trkpt lat="45.953926274858844" lon="8.773464139101735"><ele>320.0</ele><time>2026-04-25T09:52:27.82Z</time></trkpt><trkpt lat="45.95381932002728" lon="8.773563972341313"><ele>320.0</ele><time>2026-04-25T09:52:28.82Z</time></trkpt><trkpt lat="45.95371037127643" lon="8.773683795708397"><ele>320.0</ele><time>2026-04-25T09:52:29.82Z</time></trkpt><trkpt lat="45.953590116444914" lon="8.773781773772104"><ele>319.4</ele><time>2026-04-25T09:52:30.82Z</time></trkpt><trkpt lat="45.95348574180364" lon="8.773870383509738"><ele>318.8</ele><time>2026-04-25T09:52:31.82Z</time></trkpt><trkpt lat="45.95340577903693" lon="8.773960600402285"><ele>318.2</ele><time>2026-04-25T09:52:32.82Z</time></trkpt><trkpt lat="45.95335791899575" lon="8.774062378917836"><ele>317.6</ele><time>2026-04-25T09:52:33.82Z</time></trkpt><trkpt lat="45.95336629388165" lon="8.774181171872296"><ele>317.0</ele><time>2026-04-25T09:52:34.82Z</time></trkpt><trkpt lat="45.95341066280947" lon="8.774270704890931"><ele>320.4</ele><time>2026-04-25T09:52:35.82Z</time></trkpt><trkpt lat="45.95346584548485" lon="8.774323233376695"><ele>323.79999999999995</ele><time>2026-04-25T09:52:36.82Z</time></trkpt><trkpt lat="45.95355028148012" lon="8.774335993950372"><ele>327.2</ele><time>2026-04-25T09:52:37.82Z</time></trkpt><trkpt lat="45.95364306427818" lon="8.774290915816765"><ele>330.59999999999997</ele><time>2026-04-25T09:52:38.82Z</time></trkpt><trkpt lat="45.95375047711986" lon="8.774182654178613"><ele>334.0</ele><time>2026-04-25T09:52:39.82Z</time></trkpt><trkpt lat="45.95388699990088" lon="8.77396786123586"><ele>334.0</ele><time>2026-04-25T09:52:40.82Z</time></trkpt><trkpt lat="45.95400735032286" lon="8.77380812607496"><ele>334.0</ele><time>2026-04-25T09:52:41.82Z</time></trkpt><trkpt lat="45.9541261748164" lon="8.773671698991818"><ele>334.0</ele><time>2026-04-25T09:52:42.82Z</time></trkpt><trkpt lat="45.95425686550768" lon="8.77353361949647"><ele>336.25</ele><time>2026-04-25T09:52:43.82Z</time></trkpt><trkpt lat="45.95439441724759" lon="8.773393694905176"><ele>338.5</ele><time>2026-04-25T09:52:44.82Z</time></trkpt><trkpt lat="45.954517100314554" lon="8.773280613852934"><ele>340.75</ele><time>2026-04-25T09:52:45.82Z</time></trkpt><trkpt lat="45.95463221437655" lon="8.773198595520151"><ele>343.0</ele><time>2026-04-25T09:52:46.82Z</time></trkpt><trkpt lat="45.95472752554918" lon="8.77309229845864"><ele>343.0</ele><time>2026-04-25T09:52:47.82Z</time></trkpt><trkpt lat="45.95480753606714" lon="8.772910912893108"><ele>343.0</ele><time>2026-04-25T09:52:48.82Z</time></trkpt><trkpt lat="45.95489167949485" lon="8.772702908261925"><ele>343.0</ele><time>2026-04-25T09:52:49.82Z</time></trkpt><trkpt lat="45.95497265529161" lon="8.772537144393588"><ele>345.75</ele><time>2026-04-25T09:52:50.82Z</time></trkpt><trkpt lat="45.955055180171044" lon="8.77239757942536"><ele>348.5</ele><time>2026-04-25T09:52:51.82Z</time></trkpt><trkpt lat="45.95511724986371" lon="8.772275521768716"><ele>351.25</ele><time>2026-04-25T09:52:52.82Z</time></trkpt><trkpt lat="45.95520689234546" lon="8.772129487866763"><ele>354.0</ele><time>2026-04-25T09:52:53.82Z</time></trkpt><trkpt lat="45.95535842194253" lon="8.771980008174543"><ele>354.0</ele><time>2026-04-25T09:52:54.82Z</time></trkpt><trkpt lat="45.95550562944986" lon="8.771869236380919"><ele>354.0</ele><time>2026-04-25T09:52:55.82Z</time></trkpt><trkpt lat="45.95562450178992" lon="8.771784404913605"><ele>354.0</ele><time>2026-04-25T09:52:56.82Z</time></trkpt><trkpt lat="45.955731566070284" lon="8.771719605199527"><ele>354.0</ele><time>2026-04-25T09:52:57.82Z</time></trkpt><trkpt lat="45.95581848220842" lon="8.771679544869542"><ele>354.79999999999995</ele><time>2026-04-25T09:52:58.82Z</time></trkpt><trkpt lat="45.95590948667596" lon="8.77169595068653"><ele>355.59999999999997</ele><time>2026-04-25T09:52:59.82Z</time></trkpt><trkpt lat="45.956008530839426" lon="8.771745616052808"><ele>356.4</ele><time>2026-04-25T09:53:00.82Z</time></trkpt><trkpt lat="45.95610621264863" lon="8.771767341643853"><ele>357.2</ele><time>2026-04-25T09:53:01.82Z</time></trkpt><trkpt lat="45.95617835291365" lon="8.77171362437991"><ele>358.0</ele><time>2026-04-25T09:53:02.82Z</time></trkpt><trkpt lat="45.956211888677366" lon="8.771592015981872"><ele>358.0</ele><time>2026-04-25T09:53:03.82Z</time></trkpt><trkpt lat="45.95624625643695" lon="8.771396605008833"><ele>358.0</ele><time>2026-04-25T09:53:04.82Z</time></trkpt><trkpt lat="45.95629716131376" lon="8.77121484905678"><ele>358.0</ele><time>2026-04-25T09:53:05.82Z</time></trkpt><trkpt lat="45.95636419971068" lon="8.77105646465317"><ele>358.0</ele><time>2026-04-25T09:53:06.82Z</time></trkpt><trkpt lat="45.956454581008764" lon="8.770891805059081"><ele>358.5</ele><time>2026-04-25T09:53:07.82Z</time></trkpt><trkpt lat="45.95656256457676" lon="8.770736524131596"><ele>359.0</ele><time>2026-04-25T09:53:08.82Z</time></trkpt><trkpt lat="45.95665739641307" lon="8.770604901125719"><ele>359.5</ele><time>2026-04-25T09:53:09.82Z</time></trkpt><trkpt lat="45.95673418984979" lon="8.77047477307586"><ele>360.0</ele><time>2026-04-25T09:53:10.82Z</time></trkpt><trkpt lat="45.95680941502288" lon="8.770365745280175"><ele>360.0</ele><time>2026-04-25T09:53:11.82Z</time></trkpt><trkpt lat="45.95688827164496" lon="8.770286028666362"><ele>360.0</ele><time>2026-04-25T09:53:12.82Z</time></trkpt><trkpt lat="45.95696355766546" lon="8.770260982878106"><ele>360.0</ele><time>2026-04-25T09:53:13.82Z</time></trkpt><trkpt lat="45.95703161933045" lon="8.770302027237797"><ele>360.0</ele><time>2026-04-25T09:53:14.82Z</time></trkpt><trkpt lat="45.957071779097056" lon="8.770405585062251"><ele>360.0</ele><time>2026-04-25T09:53:15.82Z</time></trkpt><trkpt lat="45.957071846630384" lon="8.770517137227174"><ele>360.0</ele><time>2026-04-25T09:53:16.82Z</time></trkpt><trkpt lat="45.9569618982881" lon="8.770598507203875"><ele>360.0</ele><time>2026-04-25T09:53:18.82Z</time></trkpt><trkpt lat="45.95686098188776" lon="8.770612020049649"><ele>360.0</ele><time>2026-04-25T09:53:19.82Z</time></trkpt><trkpt lat="45.95676956389393" lon="8.770683983485267"><ele>360.0</ele><time>2026-04-25T09:53:20.82Z</time></trkpt><trkpt lat="45.956676171772706" lon="8.77076960511929"><ele>360.0</ele><time>2026-04-25T09:53:21.82Z</time></trkpt><trkpt lat="45.956602957141804" lon="8.77086797729608"><ele>360.0</ele><time>2026-04-25T09:53:22.82Z</time></trkpt><trkpt lat="45.95653295248219" lon="8.770972356078664"><ele>359.6</ele><time>2026-04-25T09:53:23.82Z</time></trkpt><trkpt lat="45.95646186801992" lon="8.77110766514434"><ele>359.2</ele><time>2026-04-25T09:53:24.82Z</time></trkpt><trkpt lat="45.95640944289647" lon="8.771261909077166"><ele>358.79999999999995</ele><time>2026-04-25T09:53:25.82Z</time></trkpt><trkpt lat="45.956364393110285" lon="8.771403651417064"><ele>358.4</ele><time>2026-04-25T09:53:26.82Z</time></trkpt><trkpt lat="45.956343506254285" lon="8.771528088822102"><ele>358.0</ele><time>2026-04-25T09:53:27.82Z</time></trkpt><trkpt lat="45.95633204191166" lon="8.771642004579153"><ele>358.0</ele><time>2026-04-25T09:53:28.82Z</time></trkpt><trkpt lat="45.95636813351069" lon="8.771767316218623"><ele>358.0</ele><time>2026-04-25T09:53:29.82Z</time></trkpt><trkpt lat="45.95643350826854" lon="8.771905336963025"><ele>358.0</ele><time>2026-04-25T09:53:30.82Z</time></trkpt><trkpt lat="45.95647059072105" lon="8.772032844975195"><ele>358.0</ele><time>2026-04-25T09:53:31.82Z</time></trkpt><trkpt lat="45.95643937634508" lon="8.772118760356436"><ele>358.0</ele><time>2026-04-25T09:53:32.82Z</time></trkpt><trkpt lat="45.956351861244954" lon="8.77217889254246"><ele>361.0</ele><time>2026-04-25T09:53:33.82Z</time></trkpt><trkpt lat="45.95623136262124" lon="8.772251345376993"><ele>364.0</ele><time>2026-04-25T09:53:34.82Z</time></trkpt><trkpt lat="45.9561098564331" lon="8.772333233906897"><ele>367.0</ele><time>2026-04-25T09:53:35.82Z</time></trkpt><trkpt lat="45.955998354726596" lon="8.772410975936971"><ele>370.0</ele><time>2026-04-25T09:53:36.82Z</time></trkpt><trkpt lat="45.95590340006272" lon="8.772470724083048"><ele>369.6</ele><time>2026-04-25T09:53:37.82Z</time></trkpt><trkpt lat="45.955832018860164" lon="8.772534903527763"><ele>369.2</ele><time>2026-04-25T09:53:38.82Z</time></trkpt><trkpt lat="45.95578333421253" lon="8.77261914151151"><ele>368.79999999999995</ele><time>2026-04-25T09:53:39.82Z</time></trkpt><trkpt lat="45.95574421452077" lon="8.77273696640172"><ele>368.4</ele><time>2026-04-25T09:53:40.82Z</time></trkpt><trkpt lat="45.955698072577086" lon="8.772889684943411"><ele>368.0</ele><time>2026-04-25T09:53:41.82Z</time></trkpt><trkpt lat="45.955653974431925" lon="8.773047820959562"><ele>368.0</ele><time>2026-04-25T09:53:42.82Z</time></trkpt><trkpt lat="45.955624219095384" lon="8.77319350935871"><ele>368.0</ele><time>2026-04-25T09:53:43.817Z</time></trkpt><trkpt lat="45.95559299840396" lon="8.773360583641853"><ele>368.0</ele><time>2026-04-25T09:53:44.818Z</time></trkpt><trkpt lat="45.95557049090572" lon="8.773535844679216"><ele>368.0</ele><time>2026-04-25T09:53:45.818Z</time></trkpt><trkpt lat="45.95555551397061" lon="8.773712191792331"><ele>367.75</ele><time>2026-04-25T09:53:46.817Z</time></trkpt><trkpt lat="45.95555116910066" lon="8.773899325437393"><ele>367.5</ele><time>2026-04-25T09:53:47.817Z</time></trkpt><trkpt lat="45.95553447902323" lon="8.774085286770383"><ele>367.25</ele><time>2026-04-25T09:53:48.817Z</time></trkpt><trkpt lat="45.955502841982565" lon="8.774232570309984"><ele>367.0</ele><time>2026-04-25T09:53:49.817Z</time></trkpt><trkpt lat="45.955459085412514" lon="8.774343737470648"><ele>368.16666666666663</ele><time>2026-04-25T09:53:50.818Z</time></trkpt><trkpt lat="45.95543362160084" lon="8.77445045643416"><ele>369.3333333333333</ele><time>2026-04-25T09:53:51.818Z</time></trkpt><trkpt lat="45.9554482562017" lon="8.77455057777948"><ele>370.5</ele><time>2026-04-25T09:53:52.817Z</time></trkpt><trkpt lat="45.95548933382559" lon="8.774658542017363"><ele>371.6666666666667</ele><time>2026-04-25T09:53:53.817Z</time></trkpt><trkpt lat="45.955547812386584" lon="8.774747806361736"><ele>372.83333333333337</ele><time>2026-04-25T09:53:54.817Z</time></trkpt><trkpt lat="45.955632587107516" lon="8.774791540933323"><ele>374.0</ele><time>2026-04-25T09:53:55.817Z</time></trkpt><trkpt lat="45.95576316700382" lon="8.774772819966824"><ele>381.33333333333337</ele><time>2026-04-25T09:53:56.817Z</time></trkpt><trkpt lat="45.95592561312814" lon="8.774731748124427"><ele>388.6666666666667</ele><time>2026-04-25T09:53:57.817Z</time></trkpt><trkpt lat="45.956088831460605" lon="8.77469182501572"><ele>396.0</ele><time>2026-04-25T09:53:58.817Z</time></trkpt><trkpt lat="45.95622020035931" lon="8.774627384459853"><ele>396.0</ele><time>2026-04-25T09:53:59.817Z</time></trkpt><trkpt lat="45.95634524831204" lon="8.774550359047868"><ele>396.0</ele><time>2026-04-25T09:54:00.817Z</time></trkpt><trkpt lat="45.95644533704594" lon="8.774444854431506"><ele>396.0</ele><time>2026-04-25T09:54:01.817Z</time></trkpt><trkpt lat="45.95651431327682" lon="8.774321689801951"><ele>396.0</ele><time>2026-04-25T09:54:02.817Z</time></trkpt><trkpt lat="45.95658117552686" lon="8.774225073794259"><ele>395.8</ele><time>2026-04-25T09:54:03.817Z</time></trkpt><trkpt lat="45.95665779158972" lon="8.774188501722149"><ele>395.6</ele><time>2026-04-25T09:54:04.817Z</time></trkpt><trkpt lat="45.95674596952262" lon="8.774183044231835"><ele>395.4</ele><time>2026-04-25T09:54:05.817Z</time></trkpt><trkpt lat="45.95685623623725" lon="8.774182308035977"><ele>395.2</ele><time>2026-04-25T09:54:06.817Z</time></trkpt><trkpt lat="45.956971059874945" lon="8.774194044220062"><ele>395.0</ele><time>2026-04-25T09:54:07.817Z</time></trkpt><trkpt lat="45.957052039440484" lon="8.774186217576466"><ele>395.0</ele><time>2026-04-25T09:54:08.817Z</time></trkpt><trkpt lat="45.9571391564012" lon="8.774205880642288"><ele>395.0</ele><time>2026-04-25T09:54:10.817Z</time></trkpt><trkpt lat="45.9571259583602" lon="8.774298922951727"><ele>395.0</ele><time>2026-04-25T09:54:12.816Z</time></trkpt><trkpt lat="45.95701442320806" lon="8.774365749508542"><ele>395.0</ele><time>2026-04-25T09:54:14.816Z</time></trkpt><trkpt lat="45.956939003902136" lon="8.774347327451387"><ele>395.0</ele><time>2026-04-25T09:54:15.816Z</time></trkpt><trkpt lat="45.95681943536428" lon="8.774343072739365"><ele>395.16666666666663</ele><time>2026-04-25T09:54:17.816Z</time></trkpt><trkpt lat="45.95672528003206" lon="8.77439981301662"><ele>395.3333333333333</ele><time>2026-04-25T09:54:19.816Z</time></trkpt><trkpt lat="45.95664267072832" lon="8.774504051641642"><ele>395.5</ele><time>2026-04-25T09:54:21.816Z</time></trkpt><trkpt lat="45.9566111476856" lon="8.774595247570385"><ele>395.66666666666663</ele><time>2026-04-25T09:54:22.816Z</time></trkpt><trkpt lat="45.9565806800814" lon="8.77469477144482"><ele>395.8333333333333</ele><time>2026-04-25T09:54:23.816Z</time></trkpt><trkpt lat="45.95655416072907" lon="8.774791079941357"><ele>396.0</ele><time>2026-04-25T09:54:24.816Z</time></trkpt><trkpt lat="45.956527081468565" lon="8.774886882646706"><ele>396.0</ele><time>2026-04-25T09:54:25.816Z</time></trkpt><trkpt lat="45.9564956576945" lon="8.774980138871951"><ele>396.0</ele><time>2026-04-25T09:54:26.816Z</time></trkpt><trkpt lat="45.95645268715509" lon="8.77508947651526"><ele>396.0</ele><time>2026-04-25T09:54:27.816Z</time></trkpt><trkpt lat="45.956414405747864" lon="8.775198100841273"><ele>396.0</ele><time>2026-04-25T09:54:28.816Z</time></trkpt><trkpt lat="45.956381962055836" lon="8.77529222967105"><ele>396.0</ele><time>2026-04-25T09:54:29.816Z</time></trkpt><trkpt lat="45.956341821511025" lon="8.775436083004461"><ele>396.0</ele><time>2026-04-25T09:54:31.816Z</time></trkpt><trkpt lat="45.95630039502354" lon="8.775569100857282"><ele>398.0</ele><time>2026-04-25T09:54:33.816Z</time></trkpt><trkpt lat="45.95626667305176" lon="8.775760857399488"><ele>400.0</ele><time>2026-04-25T09:54:35.816Z</time></trkpt><trkpt lat="45.956259300220054" lon="8.77586831063998"><ele>402.0</ele><time>2026-04-25T09:54:36.816Z</time></trkpt><trkpt lat="45.956246141428494" lon="8.775972119471906"><ele>404.0</ele><time>2026-04-25T09:54:37.816Z</time></trkpt><trkpt lat="45.95620470560372" lon="8.776053972353171"><ele>406.0</ele><time>2026-04-25T09:54:38.816Z</time></trkpt><trkpt lat="45.956169807111664" lon="8.776137618321611"><ele>408.0</ele><time>2026-04-25T09:54:39.816Z</time></trkpt><trkpt lat="45.956118771558316" lon="8.776295707403515"><ele>409.3333333333333</ele><time>2026-04-25T09:54:41.816Z</time></trkpt><trkpt lat="45.956115972664065" lon="8.776404290904791"><ele>410.66666666666663</ele><time>2026-04-25T09:54:42.816Z</time></trkpt><trkpt lat="45.956129622399374" lon="8.776516178038895"><ele>412.0</ele><time>2026-04-25T09:54:43.816Z</time></trkpt><trkpt lat="45.95614715755186" lon="8.776607728451271"><ele>413.3333333333333</ele><time>2026-04-25T09:54:44.816Z</time></trkpt><trkpt lat="45.95618118747694" lon="8.776754103193449"><ele>414.66666666666663</ele><time>2026-04-25T09:54:46.816Z</time></trkpt><trkpt lat="45.956228577494244" lon="8.77684566627164"><ele>416.0</ele><time>2026-04-25T09:54:48.816Z</time></trkpt><trkpt lat="45.95633404155034" lon="8.776736554978545"><ele>416.0</ele><time>2026-04-25T09:54:50.816Z</time></trkpt><trkpt lat="45.956339398740354" lon="8.776616794134227"><ele>416.0</ele><time>2026-04-25T09:54:51.816Z</time></trkpt><trkpt lat="45.9563286679282" lon="8.776495176196752"><ele>416.0</ele><time>2026-04-25T09:54:52.816Z</time></trkpt><trkpt lat="45.95633149378404" lon="8.77639208856721"><ele>416.0</ele><time>2026-04-25T09:54:53.816Z</time></trkpt><trkpt lat="45.956374730493025" lon="8.77622884877019"><ele>416.0</ele><time>2026-04-25T09:54:55.816Z</time></trkpt><trkpt lat="45.95643356499175" lon="8.776131769209734"><ele>416.0</ele><time>2026-04-25T09:54:56.816Z</time></trkpt><trkpt lat="45.95650569531784" lon="8.776040935974267"><ele>416.0</ele><time>2026-04-25T09:54:57.816Z</time></trkpt><trkpt lat="45.95659202348882" lon="8.775949754877233"><ele>416.0</ele><time>2026-04-25T09:54:58.816Z</time></trkpt><trkpt lat="45.95665887898198" lon="8.775860188382584"><ele>416.0</ele><time>2026-04-25T09:54:59.816Z</time></trkpt><trkpt lat="45.95671650292659" lon="8.775775002563424"><ele>416.0</ele><time>2026-04-25T09:55:00.816Z</time></trkpt><trkpt lat="45.956772243182364" lon="8.775671802527318"><ele>416.3333333333333</ele><time>2026-04-25T09:55:01.816Z</time></trkpt><trkpt lat="45.956822357222556" lon="8.775580820072985"><ele>416.66666666666663</ele><time>2026-04-25T09:55:02.816Z</time></trkpt><trkpt lat="45.95688581484811" lon="8.775498799253997"><ele>417.0</ele><time>2026-04-25T09:55:03.816Z</time></trkpt><trkpt lat="45.95696802081039" lon="8.77542717927797"><ele>417.33333333333337</ele><time>2026-04-25T09:55:04.816Z</time></trkpt><trkpt lat="45.95704391740976" lon="8.775379385351302"><ele>417.6666666666667</ele><time>2026-04-25T09:55:05.816Z</time></trkpt><trkpt lat="45.95711687126602" lon="8.775343987410848"><ele>418.0</ele><time>2026-04-25T09:55:06.816Z</time></trkpt><trkpt lat="45.95719902053656" lon="8.775324367724718"><ele>418.0</ele><time>2026-04-25T09:55:07.816Z</time></trkpt><trkpt lat="45.95729071565383" lon="8.77529634698183"><ele>418.0</ele><time>2026-04-25T09:55:08.816Z</time></trkpt><trkpt lat="45.95738648313385" lon="8.775286308863407"><ele>418.0</ele><time>2026-04-25T09:55:09.816Z</time></trkpt><trkpt lat="45.95748983299026" lon="8.775297415414219"><ele>418.0</ele><time>2026-04-25T09:55:10.816Z</time></trkpt><trkpt lat="45.95758993373915" lon="8.775333597423735"><ele>418.0</ele><time>2026-04-25T09:55:11.816Z</time></trkpt><trkpt lat="45.95767903375564" lon="8.77537083667818"><ele>418.4</ele><time>2026-04-25T09:55:12.816Z</time></trkpt><trkpt lat="45.95777134577713" lon="8.77541109419301"><ele>418.79999999999995</ele><time>2026-04-25T09:55:13.816Z</time></trkpt><trkpt lat="45.95786189944586" lon="8.775454199987422"><ele>419.2</ele><time>2026-04-25T09:55:14.816Z</time></trkpt><trkpt lat="45.95794542261146" lon="8.775494986578963"><ele>419.6</ele><time>2026-04-25T09:55:15.816Z</time></trkpt><trkpt lat="45.95802163160178" lon="8.775548460544414"><ele>420.0</ele><time>2026-04-25T09:55:16.816Z</time></trkpt><trkpt lat="45.9580880345825" lon="8.775624516312208"><ele>420.0</ele><time>2026-04-25T09:55:17.816Z</time></trkpt><trkpt lat="45.958136992494175" lon="8.77568878711439"><ele>420.0</ele><time>2026-04-25T09:55:18.816Z</time></trkpt><trkpt lat="45.958189257650474" lon="8.775763560871953"><ele>420.0</ele><time>2026-04-25T09:55:19.816Z</time></trkpt><trkpt lat="45.95824673522911" lon="8.775822040877015"><ele>420.0</ele><time>2026-04-25T09:55:20.816Z</time></trkpt><trkpt lat="45.9583745140444" lon="8.77580909693407"><ele>420.0</ele><time>2026-04-25T09:55:22.816Z</time></trkpt><trkpt lat="45.958441630201975" lon="8.77577303173663"><ele>420.0</ele><time>2026-04-25T09:55:23.816Z</time></trkpt><trkpt lat="45.95850265930838" lon="8.77571834042071"><ele>419.75</ele><time>2026-04-25T09:55:24.816Z</time></trkpt><trkpt lat="45.958563762943236" lon="8.7755957128579"><ele>419.5</ele><time>2026-04-25T09:55:25.816Z</time></trkpt><trkpt lat="45.95863318164968" lon="8.77540500230879"><ele>419.25</ele><time>2026-04-25T09:55:26.816Z</time></trkpt><trkpt lat="45.95872598921618" lon="8.775242151517471"><ele>419.0</ele><time>2026-04-25T09:55:27.816Z</time></trkpt><trkpt lat="45.9588187991254" lon="8.775117599079612"><ele>419.0</ele><time>2026-04-25T09:55:28.816Z</time></trkpt><trkpt lat="45.958912712794884" lon="8.775033517005847"><ele>419.0</ele><time>2026-04-25T09:55:29.816Z</time></trkpt><trkpt lat="45.958992156700084" lon="8.774995396575292"><ele>419.0</ele><time>2026-04-25T09:55:30.816Z</time></trkpt><trkpt lat="45.959064047225056" lon="8.775029881689376"><ele>419.0</ele><time>2026-04-25T09:55:31.816Z</time></trkpt><trkpt lat="45.9591188542851" lon="8.775130611046379"><ele>419.0</ele><time>2026-04-25T09:55:32.816Z</time></trkpt><trkpt lat="45.959157486900985" lon="8.775285179713624"><ele>421.5</ele><time>2026-04-25T09:55:33.816Z</time></trkpt><trkpt lat="45.95920934277344" lon="8.775455374412877"><ele>424.0</ele><time>2026-04-25T09:55:34.816Z</time></trkpt><trkpt lat="45.959292321476" lon="8.77561097730939"><ele>426.5</ele><time>2026-04-25T09:55:35.816Z</time></trkpt><trkpt lat="45.959388639482555" lon="8.775760100909729"><ele>429.0</ele><time>2026-04-25T09:55:36.816Z</time></trkpt><trkpt lat="45.95947032325383" lon="8.775898462841418"><ele>427.4</ele><time>2026-04-25T09:55:37.816Z</time></trkpt><trkpt lat="45.95953375590458" lon="8.776033249453377"><ele>425.79999999999995</ele><time>2026-04-25T09:55:38.816Z</time></trkpt><trkpt lat="45.959596678558235" lon="8.776139695970524"><ele>424.20000000000005</ele><time>2026-04-25T09:55:39.816Z</time></trkpt><trkpt lat="45.95965501962195" lon="8.776193398825706"><ele>422.6</ele><time>2026-04-25T09:55:40.816Z</time></trkpt><trkpt lat="45.95972099308404" lon="8.776231583160232"><ele>421.0</ele><time>2026-04-25T09:55:42.816Z</time></trkpt><trkpt lat="45.95971040101935" lon="8.776078843676142"><ele>422.6</ele><time>2026-04-25T10:00:22.807Z</time></trkpt><trkpt lat="45.959641924154965" lon="8.775932559385218"><ele>424.20000000000005</ele><time>2026-04-25T10:00:23.807Z</time></trkpt><trkpt lat="45.959575528128205" lon="8.775769326420884"><ele>425.79999999999995</ele><time>2026-04-25T10:00:24.807Z</time></trkpt><trkpt lat="45.959519648326314" lon="8.775656583456087"><ele>427.4</ele><time>2026-04-25T10:00:25.807Z</time></trkpt><trkpt lat="45.95949159655004" lon="8.775545549560839"><ele>429.0</ele><time>2026-04-25T10:00:26.807Z</time></trkpt><trkpt lat="45.95952772635123" lon="8.775451233591978"><ele>429.0</ele><time>2026-04-25T10:00:27.807Z</time></trkpt><trkpt lat="45.95959472875323" lon="8.775301549206455"><ele>429.0</ele><time>2026-04-25T10:00:28.807Z</time></trkpt><trkpt lat="45.959651720014186" lon="8.775166354018783"><ele>429.0</ele><time>2026-04-25T10:00:29.807Z</time></trkpt><trkpt lat="45.95968598527522" lon="8.775071527430185"><ele>429.0</ele><time>2026-04-25T10:00:30.807Z</time></trkpt><trkpt lat="45.959728639295854" lon="8.774951221740261"><ele>429.0</ele><time>2026-04-25T10:00:31.806Z</time></trkpt><trkpt lat="45.95976633794338" lon="8.77482801575037"><ele>430.2</ele><time>2026-04-25T10:00:32.806Z</time></trkpt><trkpt lat="45.95981409215385" lon="8.774705704318569"><ele>431.4</ele><time>2026-04-25T10:00:33.806Z</time></trkpt><trkpt lat="45.95987932384334" lon="8.774581173615111"><ele>432.6</ele><time>2026-04-25T10:00:34.806Z</time></trkpt><trkpt lat="45.959946479475136" lon="8.774498712949987"><ele>433.8</ele><time>2026-04-25T10:00:35.806Z</time></trkpt><trkpt lat="45.96002167003592" lon="8.774441978552256"><ele>435.0</ele><time>2026-04-25T10:00:36.806Z</time></trkpt><trkpt lat="45.96011456115724" lon="8.774444701979663"><ele>436.5</ele><time>2026-04-25T10:00:37.806Z</time></trkpt><trkpt lat="45.96024478989748" lon="8.774462616183394"><ele>438.0</ele><time>2026-04-25T10:00:38.806Z</time></trkpt><trkpt lat="45.960408498778676" lon="8.774487839037235"><ele>439.5</ele><time>2026-04-25T10:00:39.806Z</time></trkpt><trkpt lat="45.96055356673202" lon="8.77450971930603"><ele>441.0</ele><time>2026-04-25T10:00:40.806Z</time></trkpt><trkpt lat="45.9606869447798" lon="8.774547879959806"><ele>441.0</ele><time>2026-04-25T10:00:41.806Z</time></trkpt><trkpt lat="45.960825672134426" lon="8.774557687721193"><ele>441.0</ele><time>2026-04-25T10:00:42.806Z</time></trkpt><trkpt lat="45.96096509758825" lon="8.774576929612925"><ele>441.0</ele><time>2026-04-25T10:00:43.806Z</time></trkpt><trkpt lat="45.96110132800882" lon="8.774594747967154"><ele>441.0</ele><time>2026-04-25T10:00:44.806Z</time></trkpt><trkpt lat="45.961231469496056" lon="8.774614331965543"><ele>442.0</ele><time>2026-04-25T10:00:45.806Z</time></trkpt><trkpt lat="45.961362858347115" lon="8.774637854561957"><ele>443.0</ele><time>2026-04-25T10:00:46.806Z</time></trkpt><trkpt lat="45.96148972734592" lon="8.774656181051581"><ele>444.0</ele><time>2026-04-25T10:00:47.806Z</time></trkpt><trkpt lat="45.961620803515906" lon="8.774670732261779"><ele>445.0</ele><time>2026-04-25T10:00:48.806Z</time></trkpt><trkpt lat="45.96176156335725" lon="8.77465211355033"><ele>447.33333333333337</ele><time>2026-04-25T10:00:49.806Z</time></trkpt><trkpt lat="45.96190904861011" lon="8.7746157639466"><ele>449.66666666666663</ele><time>2026-04-25T10:00:50.806Z</time></trkpt><trkpt lat="45.962099106321105" lon="8.774537247347638"><ele>452.0</ele><time>2026-04-25T10:00:51.806Z</time></trkpt><trkpt lat="45.96227942763646" lon="8.774464473680487"><ele>452.0</ele><time>2026-04-25T10:00:52.806Z</time></trkpt><trkpt lat="45.9624521857286" lon="8.774401439496444"><ele>452.0</ele><time>2026-04-25T10:00:53.806Z</time></trkpt><trkpt lat="45.96262305159983" lon="8.774321120923759"><ele>452.0</ele><time>2026-04-25T10:00:54.806Z</time></trkpt><trkpt lat="45.96278351016681" lon="8.774261314555657"><ele>454.0</ele><time>2026-04-25T10:00:55.806Z</time></trkpt><trkpt lat="45.96294494730047" lon="8.77420838564594"><ele>456.0</ele><time>2026-04-25T10:00:56.806Z</time></trkpt><trkpt lat="45.9630934950549" lon="8.774159454230784"><ele>458.0</ele><time>2026-04-25T10:00:57.806Z</time></trkpt><trkpt lat="45.963244446993755" lon="8.774097884123771"><ele>458.0</ele><time>2026-04-25T10:00:58.806Z</time></trkpt><trkpt lat="45.9633769773093" lon="8.774037426783206"><ele>458.0</ele><time>2026-04-25T10:00:59.806Z</time></trkpt><trkpt lat="45.96349132279563" lon="8.77397924631873"><ele>458.0</ele><time>2026-04-25T10:01:00.806Z</time></trkpt><trkpt lat="45.96359768009177" lon="8.773886418904278"><ele>458.0</ele><time>2026-04-25T10:01:01.806Z</time></trkpt><trkpt lat="45.96369807719741" lon="8.773752130609406"><ele>458.0</ele><time>2026-04-25T10:01:02.806Z</time></trkpt><trkpt lat="45.96380821189771" lon="8.773579389158991"><ele>458.0</ele><time>2026-04-25T10:01:03.806Z</time></trkpt><trkpt lat="45.963919343928296" lon="8.773411361275313"><ele>458.0</ele><time>2026-04-25T10:01:04.806Z</time></trkpt><trkpt lat="45.964021609760785" lon="8.77324258924818"><ele>460.0</ele><time>2026-04-25T10:01:05.806Z</time></trkpt><trkpt lat="45.96412019359003" lon="8.773082038523022"><ele>462.0</ele><time>2026-04-25T10:01:06.806Z</time></trkpt><trkpt lat="45.96421593254201" lon="8.772925089361078"><ele>464.0</ele><time>2026-04-25T10:01:07.806Z</time></trkpt><trkpt lat="45.96430625368324" lon="8.772783856004864"><ele>466.0</ele><time>2026-04-25T10:01:08.806Z</time></trkpt><trkpt lat="45.96441709045134" lon="8.772637691036135"><ele>469.25</ele><time>2026-04-25T10:01:09.806Z</time></trkpt><trkpt lat="45.96452849432045" lon="8.772461328860372"><ele>472.5</ele><time>2026-04-25T10:01:10.806Z</time></trkpt><trkpt lat="45.964626889899144" lon="8.772313556408209"><ele>475.75</ele><time>2026-04-25T10:01:11.806Z</time></trkpt><trkpt lat="45.96471709989492" lon="8.772180157933109"><ele>479.0</ele><time>2026-04-25T10:01:12.806Z</time></trkpt><trkpt lat="45.96478883726059" lon="8.772061415524375"><ele>479.0</ele><time>2026-04-25T10:01:13.806Z</time></trkpt><trkpt lat="45.96485025479218" lon="8.771963608228909"><ele>479.0</ele><time>2026-04-25T10:01:14.806Z</time></trkpt><trkpt lat="45.964907073527385" lon="8.771877919631917"><ele>479.0</ele><time>2026-04-25T10:01:15.806Z</time></trkpt><trkpt lat="45.96495441037315" lon="8.771782836914989"><ele>479.0</ele><time>2026-04-25T10:01:16.806Z</time></trkpt><trkpt lat="45.9650466462605" lon="8.771730089173541"><ele>479.0</ele><time>2026-04-25T10:01:17.806Z</time></trkpt><trkpt lat="45.96515259748132" lon="8.771724582307533"><ele>475.5</ele><time>2026-04-25T10:01:18.806Z</time></trkpt><trkpt lat="45.96526857452221" lon="8.771720037268748"><ele>472.0</ele><time>2026-04-25T10:01:19.806Z</time></trkpt><trkpt lat="45.96538741560804" lon="8.771723766986401"><ele>468.5</ele><time>2026-04-25T10:01:20.806Z</time></trkpt><trkpt lat="45.965504394482906" lon="8.771731917488337"><ele>465.0</ele><time>2026-04-25T10:01:21.806Z</time></trkpt><trkpt lat="45.96563087789155" lon="8.77175220729838"><ele>465.0</ele><time>2026-04-25T10:01:22.806Z</time></trkpt><trkpt lat="45.96576159592228" lon="8.771792940084136"><ele>465.0</ele><time>2026-04-25T10:01:23.806Z</time></trkpt><trkpt lat="45.965888098062166" lon="8.771870853049686"><ele>465.0</ele><time>2026-04-25T10:01:24.806Z</time></trkpt><trkpt lat="45.9660261595265" lon="8.771931474380215"><ele>465.0</ele><time>2026-04-25T10:01:25.806Z</time></trkpt><trkpt lat="45.966163086139815" lon="8.771988843498967"><ele>468.25</ele><time>2026-04-25T10:01:26.806Z</time></trkpt><trkpt lat="45.9663043806277" lon="8.772049703353574"><ele>471.5</ele><time>2026-04-25T10:01:27.806Z</time></trkpt><trkpt lat="45.966441058408975" lon="8.772110060144884"><ele>474.75</ele><time>2026-04-25T10:01:28.806Z</time></trkpt><trkpt lat="45.96658058138675" lon="8.772134205585477"><ele>478.0</ele><time>2026-04-25T10:01:29.806Z</time></trkpt><trkpt lat="45.96671462617504" lon="8.772117702728524"><ele>478.0</ele><time>2026-04-25T10:01:30.806Z</time></trkpt><trkpt lat="45.96685871170366" lon="8.772055249298672"><ele>478.0</ele><time>2026-04-25T10:01:31.806Z</time></trkpt><trkpt lat="45.96700232818785" lon="8.771943474963434"><ele>478.0</ele><time>2026-04-25T10:01:32.806Z</time></trkpt><trkpt lat="45.9671413936571" lon="8.771799738029276"><ele>478.0</ele><time>2026-04-25T10:01:33.806Z</time></trkpt><trkpt lat="45.96728422153758" lon="8.771648902149362"><ele>478.0</ele><time>2026-04-25T10:01:34.806Z</time></trkpt><trkpt lat="45.96742992205354" lon="8.771494611023883"><ele>478.0</ele><time>2026-04-25T10:01:35.806Z</time></trkpt><trkpt lat="45.9675728918819" lon="8.771344349624867"><ele>479.5</ele><time>2026-04-25T10:01:36.806Z</time></trkpt><trkpt lat="45.96770107293351" lon="8.771209860674903"><ele>481.0</ele><time>2026-04-25T10:01:37.806Z</time></trkpt><trkpt lat="45.967812944859816" lon="8.771094181547975"><ele>482.5</ele><time>2026-04-25T10:01:38.806Z</time></trkpt><trkpt lat="45.96790875004544" lon="8.770983899790574"><ele>484.0</ele><time>2026-04-25T10:01:39.806Z</time></trkpt><trkpt lat="45.96799978113563" lon="8.770940816920438"><ele>484.0</ele><time>2026-04-25T10:01:40.806Z</time></trkpt><trkpt lat="45.96807912018213" lon="8.770953042049678"><ele>484.0</ele><time>2026-04-25T10:01:41.806Z</time></trkpt><trkpt lat="45.968134034117355" lon="8.77105450438262"><ele>484.0</ele><time>2026-04-25T10:01:42.806Z</time></trkpt><trkpt lat="45.968213834790234" lon="8.771178708042807"><ele>484.0</ele><time>2026-04-25T10:01:43.806Z</time></trkpt><trkpt lat="45.968292807650926" lon="8.771308780955255"><ele>484.0</ele><time>2026-04-25T10:01:44.806Z</time></trkpt><trkpt lat="45.96836072571838" lon="8.771416570093438"><ele>488.25</ele><time>2026-04-25T10:01:45.806Z</time></trkpt><trkpt lat="45.96843234218317" lon="8.771490274783678"><ele>492.5</ele><time>2026-04-25T10:01:46.806Z</time></trkpt><trkpt lat="45.96854010256263" lon="8.771598219576529"><ele>496.75</ele><time>2026-04-25T10:01:48.806Z</time></trkpt><trkpt lat="45.968738800973355" lon="8.771570780878362"><ele>501.0</ele><time>2026-04-25T10:01:50.806Z</time></trkpt><trkpt lat="45.96886468280308" lon="8.77152073794769"><ele>501.0</ele><time>2026-04-25T10:01:51.806Z</time></trkpt><trkpt lat="45.969002720373354" lon="8.77147012519104"><ele>501.0</ele><time>2026-04-25T10:01:52.806Z</time></trkpt><trkpt lat="45.96929706393095" lon="8.771379195140467"><ele>501.0</ele><time>2026-04-25T10:01:54.806Z</time></trkpt><trkpt lat="45.96944970183204" lon="8.771322977286605"><ele>505.0</ele><time>2026-04-25T10:01:55.806Z</time></trkpt><trkpt lat="45.96960561263341" lon="8.77126749754166"><ele>509.0</ele><time>2026-04-25T10:01:56.805Z</time></trkpt><trkpt lat="45.96976443698606" lon="8.771214785927146"><ele>513.0</ele><time>2026-04-25T10:01:57.805Z</time></trkpt><trkpt lat="45.96991934953301" lon="8.771166273729149"><ele>514.75</ele><time>2026-04-25T10:01:58.805Z</time></trkpt><trkpt lat="45.970074005428415" lon="8.771115313512446"><ele>516.5</ele><time>2026-04-25T10:01:59.805Z</time></trkpt><trkpt lat="45.97020860200307" lon="8.771063037422845"><ele>518.25</ele><time>2026-04-25T10:02:00.805Z</time></trkpt><trkpt lat="45.97034235525217" lon="8.771021881630299"><ele>520.0</ele><time>2026-04-25T10:02:01.804Z</time></trkpt><trkpt lat="45.97048726455891" lon="8.770969353527285"><ele>520.0</ele><time>2026-04-25T10:02:02.804Z</time></trkpt><trkpt lat="45.970635872847964" lon="8.770887659964213"><ele>520.0</ele><time>2026-04-25T10:02:03.804Z</time></trkpt><trkpt lat="45.97077121599312" lon="8.770792914236765"><ele>520.0</ele><time>2026-04-25T10:02:04.804Z</time></trkpt><trkpt lat="45.97089807681825" lon="8.770694096455887"><ele>527.3333333333334</ele><time>2026-04-25T10:02:05.804Z</time></trkpt><trkpt lat="45.97102237793683" lon="8.770588140949114"><ele>534.6666666666666</ele><time>2026-04-25T10:02:06.804Z</time></trkpt><trkpt lat="45.97114335194292" lon="8.770462902238787"><ele>542.0</ele><time>2026-04-25T10:02:07.801Z</time></trkpt><trkpt lat="45.97126880118564" lon="8.770327749837056"><ele>542.0</ele><time>2026-04-25T10:02:08.8Z</time></trkpt><trkpt lat="45.97138270022157" lon="8.770195488979668"><ele>542.0</ele><time>2026-04-25T10:02:09.8Z</time></trkpt><trkpt lat="45.97149792674976" lon="8.770071555243923"><ele>542.0</ele><time>2026-04-25T10:02:10.8Z</time></trkpt><trkpt lat="45.97161238230672" lon="8.769941241915046"><ele>542.0</ele><time>2026-04-25T10:02:11.8Z</time></trkpt><trkpt lat="45.97171885890365" lon="8.769813931410763"><ele>540.5</ele><time>2026-04-25T10:02:12.8Z</time></trkpt><trkpt lat="45.97183284050311" lon="8.769701905553084"><ele>539.0</ele><time>2026-04-25T10:02:13.8Z</time></trkpt><trkpt lat="45.97195973287667" lon="8.76959626845756"><ele>537.5</ele><time>2026-04-25T10:02:14.8Z</time></trkpt><trkpt lat="45.972088215201616" lon="8.769510254769958"><ele>536.0</ele><time>2026-04-25T10:02:15.8Z</time></trkpt><trkpt lat="45.972212452918164" lon="8.769429306022529"><ele>535.5</ele><time>2026-04-25T10:02:16.8Z</time></trkpt><trkpt lat="45.97233148624896" lon="8.769346796745497"><ele>535.0</ele><time>2026-04-25T10:02:17.799Z</time></trkpt><trkpt lat="45.97244060867656" lon="8.769275628665246"><ele>534.5</ele><time>2026-04-25T10:02:18.799Z</time></trkpt><trkpt lat="45.97255248699264" lon="8.76919948199095"><ele>534.0</ele><time>2026-04-25T10:02:19.8Z</time></trkpt><trkpt lat="45.97265586909108" lon="8.769134496772251"><ele>534.0</ele><time>2026-04-25T10:02:20.799Z</time></trkpt><trkpt lat="45.97274975578143" lon="8.769083707454739"><ele>534.0</ele><time>2026-04-25T10:02:21.799Z</time></trkpt><trkpt lat="45.97284088820425" lon="8.769039850746475"><ele>534.0</ele><time>2026-04-25T10:02:22.799Z</time></trkpt><trkpt lat="45.972921180206676" lon="8.768990632348524"><ele>534.0</ele><time>2026-04-25T10:02:23.799Z</time></trkpt><trkpt lat="45.9729868869271" lon="8.768946797656826"><ele>534.0</ele><time>2026-04-25T10:02:24.799Z</time></trkpt><trkpt lat="45.97309611250794" lon="8.76884471122429"><ele>534.0</ele><time>2026-04-25T10:02:26.799Z</time></trkpt><trkpt lat="45.97315180837424" lon="8.768764067383605"><ele>534.0</ele><time>2026-04-25T10:02:27.799Z</time></trkpt><trkpt lat="45.973215771080085" lon="8.768683697166367"><ele>534.0</ele><time>2026-04-25T10:02:28.799Z</time></trkpt><trkpt lat="45.97327658202874" lon="8.768638935887703"><ele>534.0</ele><time>2026-04-25T10:02:29.799Z</time></trkpt><trkpt lat="45.97334208601094" lon="8.768605114460202"><ele>534.0</ele><time>2026-04-25T10:02:30.799Z</time></trkpt><trkpt lat="45.973412804234066" lon="8.768565644026499"><ele>534.0</ele><time>2026-04-25T10:02:31.798Z</time></trkpt><trkpt lat="45.97348864449257" lon="8.768530220095593"><ele>531.5</ele><time>2026-04-25T10:02:32.798Z</time></trkpt><trkpt lat="45.97357246093161" lon="8.768468595184675"><ele>529.0</ele><time>2026-04-25T10:02:33.798Z</time></trkpt><trkpt lat="45.973637237889314" lon="8.768359136427634"><ele>526.5</ele><time>2026-04-25T10:02:34.798Z</time></trkpt><trkpt lat="45.97370103467281" lon="8.768180201540705"><ele>524.0</ele><time>2026-04-25T10:02:35.798Z</time></trkpt><trkpt lat="45.97373107213978" lon="8.767979003631396"><ele>524.0</ele><time>2026-04-25T10:02:36.798Z</time></trkpt><trkpt lat="45.97375766763456" lon="8.767812941840058"><ele>524.0</ele><time>2026-04-25T10:02:37.798Z</time></trkpt><trkpt lat="45.97376997237691" lon="8.767640279775021"><ele>524.0</ele><time>2026-04-25T10:02:38.798Z</time></trkpt><trkpt lat="45.973788377925935" lon="8.767482925377882"><ele>524.0</ele><time>2026-04-25T10:02:39.798Z</time></trkpt><trkpt lat="45.973851688249354" lon="8.767365769040712"><ele>522.6666666666666</ele><time>2026-04-25T10:02:40.798Z</time></trkpt><trkpt lat="45.973970677821285" lon="8.767254385885137"><ele>521.3333333333334</ele><time>2026-04-25T10:02:41.798Z</time></trkpt><trkpt lat="45.9741096546888" lon="8.76713347228286"><ele>520.0</ele><time>2026-04-25T10:02:42.798Z</time></trkpt><trkpt lat="45.97424035169928" lon="8.767018241587095"><ele>518.75</ele><time>2026-04-25T10:02:43.798Z</time></trkpt><trkpt lat="45.97436752099363" lon="8.766900465604278"><ele>517.5</ele><time>2026-04-25T10:02:44.798Z</time></trkpt><trkpt lat="45.97449026925873" lon="8.76678766600959"><ele>516.25</ele><time>2026-04-25T10:02:45.798Z</time></trkpt><trkpt lat="45.97460976855022" lon="8.76668221489637"><ele>515.0</ele><time>2026-04-25T10:02:46.798Z</time></trkpt><trkpt lat="45.97473437928897" lon="8.76658781156809"><ele>513.6666666666666</ele><time>2026-04-25T10:02:47.798Z</time></trkpt><trkpt lat="45.9748678257512" lon="8.766505103844286"><ele>512.3333333333334</ele><time>2026-04-25T10:02:48.798Z</time></trkpt><trkpt lat="45.975007358256676" lon="8.766428087228784"><ele>511.0</ele><time>2026-04-25T10:02:49.798Z</time></trkpt><trkpt lat="45.975164168225234" lon="8.766360019501773"><ele>507.0</ele><time>2026-04-25T10:02:50.798Z</time></trkpt><trkpt lat="45.975310604957535" lon="8.766253940521045"><ele>503.0</ele><time>2026-04-25T10:02:51.798Z</time></trkpt><trkpt lat="45.97545521099909" lon="8.766155148824808"><ele>499.0</ele><time>2026-04-25T10:02:52.798Z</time></trkpt><trkpt lat="45.97559928772965" lon="8.766067639872627"><ele>498.75</ele><time>2026-04-25T10:02:53.798Z</time></trkpt><trkpt lat="45.975729642650464" lon="8.765986385859648"><ele>498.5</ele><time>2026-04-25T10:02:54.798Z</time></trkpt><trkpt lat="45.975866731846956" lon="8.76591598701375"><ele>498.25</ele><time>2026-04-25T10:02:55.798Z</time></trkpt><trkpt lat="45.97600603165628" lon="8.765872810614127"><ele>498.0</ele><time>2026-04-25T10:02:56.798Z</time></trkpt><trkpt lat="45.976168521358915" lon="8.76585001887291"><ele>495.66666666666663</ele><time>2026-04-25T10:02:57.798Z</time></trkpt><trkpt lat="45.97635894167879" lon="8.76584366694075"><ele>493.3333333333333</ele><time>2026-04-25T10:02:58.798Z</time></trkpt><trkpt lat="45.97653391085402" lon="8.765803354169481"><ele>491.0</ele><time>2026-04-25T10:02:59.798Z</time></trkpt><trkpt lat="45.976700154551466" lon="8.765746244761218"><ele>491.0</ele><time>2026-04-25T10:03:00.798Z</time></trkpt><trkpt lat="45.97685339894381" lon="8.765661235354191"><ele>491.0</ele><time>2026-04-25T10:03:01.798Z</time></trkpt><trkpt lat="45.97699921500719" lon="8.765544067497284"><ele>491.0</ele><time>2026-04-25T10:03:02.798Z</time></trkpt><trkpt lat="45.977136907784825" lon="8.76537399527459"><ele>489.5</ele><time>2026-04-25T10:03:03.798Z</time></trkpt><trkpt lat="45.977274925908574" lon="8.765122100879681"><ele>488.0</ele><time>2026-04-25T10:03:04.798Z</time></trkpt><trkpt lat="45.977445660445085" lon="8.764841781633413"><ele>487.66666666666663</ele><time>2026-04-25T10:03:05.798Z</time></trkpt><trkpt lat="45.97758237049102" lon="8.76458677715889"><ele>487.33333333333337</ele><time>2026-04-25T10:03:06.798Z</time></trkpt><trkpt lat="45.97770170849535" lon="8.764354667207366"><ele>487.0</ele><time>2026-04-25T10:03:07.798Z</time></trkpt><trkpt lat="45.977816400605505" lon="8.764131831005843"><ele>487.0</ele><time>2026-04-25T10:03:08.798Z</time></trkpt><trkpt lat="45.9779289216892" lon="8.76393410982922"><ele>487.0</ele><time>2026-04-25T10:03:09.798Z</time></trkpt><trkpt lat="45.97802989527843" lon="8.763752341329651"><ele>487.0</ele><time>2026-04-25T10:03:10.798Z</time></trkpt><trkpt lat="45.978134188239686" lon="8.763596293782417"><ele>483.6666666666667</ele><time>2026-04-25T10:03:11.798Z</time></trkpt><trkpt lat="45.97827725945005" lon="8.763456520504345"><ele>480.33333333333337</ele><time>2026-04-25T10:03:12.798Z</time></trkpt><trkpt lat="45.978427670215986" lon="8.763357421488852"><ele>477.0</ele><time>2026-04-25T10:03:13.798Z</time></trkpt><trkpt lat="45.97858831110752" lon="8.76327812763933"><ele>476.0</ele><time>2026-04-25T10:03:14.798Z</time></trkpt><trkpt lat="45.97875425915711" lon="8.76321110801487"><ele>475.0</ele><time>2026-04-25T10:03:15.798Z</time></trkpt><trkpt lat="45.978912488243026" lon="8.763147776447877"><ele>474.0</ele><time>2026-04-25T10:03:16.798Z</time></trkpt><trkpt lat="45.9790809715417" lon="8.763089205358234"><ele>471.33333333333337</ele><time>2026-04-25T10:03:17.798Z</time></trkpt><trkpt lat="45.979259746114536" lon="8.76302653087671"><ele>468.6666666666667</ele><time>2026-04-25T10:03:18.798Z</time></trkpt><trkpt lat="45.979444873573975" lon="8.762962736473826"><ele>466.0</ele><time>2026-04-25T10:03:19.798Z</time></trkpt><trkpt lat="45.979633126954916" lon="8.762900239751593"><ele>466.0</ele><time>2026-04-25T10:03:20.798Z</time></trkpt><trkpt lat="45.97981476199721" lon="8.762849133905334"><ele>466.0</ele><time>2026-04-25T10:03:21.798Z</time></trkpt><trkpt lat="45.97999618567376" lon="8.762816839799681"><ele>466.0</ele><time>2026-04-25T10:03:22.798Z</time></trkpt><trkpt lat="45.980173089256716" lon="8.76279244054238"><ele>464.0</ele><time>2026-04-25T10:03:23.798Z</time></trkpt><trkpt lat="45.980352825207795" lon="8.76276913800649"><ele>462.0</ele><time>2026-04-25T10:03:24.798Z</time></trkpt><trkpt lat="45.98052869967637" lon="8.762753574825934"><ele>460.0</ele><time>2026-04-25T10:03:25.798Z</time></trkpt><trkpt lat="45.9807054792213" lon="8.762750544618534"><ele>453.6666666666667</ele><time>2026-04-25T10:03:26.798Z</time></trkpt><trkpt lat="45.98088283919006" lon="8.76275129029054"><ele>447.33333333333337</ele><time>2026-04-25T10:03:27.798Z</time></trkpt><trkpt lat="45.98105292050706" lon="8.762762277931104"><ele>441.0</ele><time>2026-04-25T10:03:28.798Z</time></trkpt><trkpt lat="45.98120811994643" lon="8.762776528784116"><ele>441.0</ele><time>2026-04-25T10:03:29.798Z</time></trkpt><trkpt lat="45.98135202207747" lon="8.7627625139135"><ele>441.0</ele><time>2026-04-25T10:03:30.798Z</time></trkpt><trkpt lat="45.98148127168595" lon="8.762814054912466"><ele>441.0</ele><time>2026-04-25T10:03:31.798Z</time></trkpt><trkpt lat="45.981606137287244" lon="8.762881933667604"><ele>441.0</ele><time>2026-04-25T10:03:32.798Z</time></trkpt><trkpt lat="45.981710774772914" lon="8.762993166175093"><ele>436.0</ele><time>2026-04-25T10:03:33.798Z</time></trkpt><trkpt lat="45.98178889520213" lon="8.76313527015689"><ele>431.0</ele><time>2026-04-25T10:03:34.798Z</time></trkpt><trkpt lat="45.98184667365562" lon="8.763275338666558"><ele>426.0</ele><time>2026-04-25T10:03:35.798Z</time></trkpt><trkpt lat="45.98190633876255" lon="8.76338976546215"><ele>421.0</ele><time>2026-04-25T10:03:36.798Z</time></trkpt><trkpt lat="45.98198680327956" lon="8.763429950159274"><ele>416.0</ele><time>2026-04-25T10:03:37.798Z</time></trkpt><trkpt lat="45.982062638150886" lon="8.763431622413355"><ele>416.0</ele><time>2026-04-25T10:03:38.798Z</time></trkpt><trkpt lat="45.982136844855795" lon="8.763372070616779"><ele>416.0</ele><time>2026-04-25T10:03:39.798Z</time></trkpt><trkpt lat="45.982174185799224" lon="8.76324741092697"><ele>416.0</ele><time>2026-04-25T10:03:40.798Z</time></trkpt><trkpt lat="45.982164145414444" lon="8.763102984291528"><ele>416.0</ele><time>2026-04-25T10:03:41.798Z</time></trkpt><trkpt lat="45.98207522730302" lon="8.762933784965941"><ele>416.0</ele><time>2026-04-25T10:03:42.798Z</time></trkpt><trkpt lat="45.98199825405746" lon="8.762728033510346"><ele>415.25</ele><time>2026-04-25T10:03:43.798Z</time></trkpt><trkpt lat="45.981909076948675" lon="8.762564874184267"><ele>414.5</ele><time>2026-04-25T10:03:44.798Z</time></trkpt><trkpt lat="45.98179888052197" lon="8.762445961341871"><ele>413.75</ele><time>2026-04-25T10:03:45.798Z</time></trkpt><trkpt lat="45.981673678809194" lon="8.762381065461698"><ele>413.0</ele><time>2026-04-25T10:03:46.798Z</time></trkpt><trkpt lat="45.9815612863708" lon="8.762316031506378"><ele>416.0</ele><time>2026-04-25T10:03:47.798Z</time></trkpt><trkpt lat="45.9814635012198" lon="8.762261171893613"><ele>419.0</ele><time>2026-04-25T10:03:48.798Z</time></trkpt><trkpt lat="45.98139212160748" lon="8.762183860247873"><ele>421.99999999999994</ele><time>2026-04-25T10:03:49.798Z</time></trkpt><trkpt lat="45.98139478849335" lon="8.762080712993443"><ele>425.0</ele><time>2026-04-25T10:03:50.798Z</time></trkpt><trkpt lat="45.981453809382714" lon="8.76194509335484"><ele>428.0</ele><time>2026-04-25T10:03:52.798Z</time></trkpt><trkpt lat="45.98153975799511" lon="8.76194373012176"><ele>428.0</ele><time>2026-04-25T10:03:53.798Z</time></trkpt><trkpt lat="45.98164714602761" lon="8.762010592315201"><ele>428.0</ele><time>2026-04-25T10:03:54.798Z</time></trkpt><trkpt lat="45.981788602584814" lon="8.762098879780313"><ele>428.0</ele><time>2026-04-25T10:03:55.797Z</time></trkpt><trkpt lat="45.98193534193973" lon="8.76217542833348"><ele>428.0</ele><time>2026-04-25T10:03:56.797Z</time></trkpt><trkpt lat="45.98207194954739" lon="8.762258776851924"><ele>424.25</ele><time>2026-04-25T10:03:57.797Z</time></trkpt><trkpt lat="45.982202093336674" lon="8.76233596169484"><ele>420.5</ele><time>2026-04-25T10:03:58.797Z</time></trkpt><trkpt lat="45.98232680393463" lon="8.76241591396794"><ele>416.75</ele><time>2026-04-25T10:03:59.797Z</time></trkpt><trkpt lat="45.982442871440234" lon="8.76252260794343"><ele>413.0</ele><time>2026-04-25T10:04:00.797Z</time></trkpt><trkpt lat="45.98253203185007" lon="8.76265923860689"><ele>407.5</ele><time>2026-04-25T10:04:01.797Z</time></trkpt><trkpt lat="45.982606971101426" lon="8.762824991680034"><ele>402.0</ele><time>2026-04-25T10:04:02.797Z</time></trkpt><trkpt lat="45.98265455286811" lon="8.763003363649032"><ele>396.5</ele><time>2026-04-25T10:04:03.797Z</time></trkpt><trkpt lat="45.98271106693878" lon="8.763146005734793"><ele>391.0</ele><time>2026-04-25T10:04:04.797Z</time></trkpt><trkpt lat="45.98278223474814" lon="8.76323473648835"><ele>391.0</ele><time>2026-04-25T10:04:05.797Z</time></trkpt><trkpt lat="45.98290964225142" lon="8.763257260859255"><ele>391.0</ele><time>2026-04-25T10:04:07.797Z</time></trkpt><trkpt lat="45.983004053312214" lon="8.763235203860349"><ele>391.0</ele><time>2026-04-25T10:04:08.797Z</time></trkpt><trkpt lat="45.98306896923798" lon="8.763103404504268"><ele>391.0</ele><time>2026-04-25T10:04:09.797Z</time></trkpt><trkpt lat="45.98308692848143" lon="8.762928853833243"><ele>391.0</ele><time>2026-04-25T10:04:10.797Z</time></trkpt><trkpt lat="45.983055801423625" lon="8.762749984629307"><ele>391.0</ele><time>2026-04-25T10:04:11.797Z</time></trkpt><trkpt lat="45.98301689557134" lon="8.762566683738866"><ele>391.0</ele><time>2026-04-25T10:04:12.797Z</time></trkpt><trkpt lat="45.98297525782879" lon="8.762376018113683"><ele>391.0</ele><time>2026-04-25T10:04:13.796Z</time></trkpt><trkpt lat="45.9829316038335" lon="8.7622056447014"><ele>390.75</ele><time>2026-04-25T10:04:14.795Z</time></trkpt><trkpt lat="45.98287438643253" lon="8.762059331677005"><ele>390.5</ele><time>2026-04-25T10:04:15.795Z</time></trkpt><trkpt lat="45.98278885871171" lon="8.761934795938316"><ele>390.25</ele><time>2026-04-25T10:04:16.795Z</time></trkpt><trkpt lat="45.98267116458098" lon="8.761818579489356"><ele>390.0</ele><time>2026-04-25T10:04:17.795Z</time></trkpt><trkpt lat="45.98253177494929" lon="8.761712355393925"><ele>391.0</ele><time>2026-04-25T10:04:18.795Z</time></trkpt><trkpt lat="45.982393182679346" lon="8.761622609964025"><ele>392.0</ele><time>2026-04-25T10:04:19.796Z</time></trkpt><trkpt lat="45.98228417842968" lon="8.761547164431123"><ele>393.0</ele><time>2026-04-25T10:04:20.795Z</time></trkpt><trkpt lat="45.98220782529867" lon="8.76148390441828"><ele>394.0</ele><time>2026-04-25T10:04:21.795Z</time></trkpt><trkpt lat="45.98215901711975" lon="8.761414441912876"><ele>395.0</ele><time>2026-04-25T10:04:22.795Z</time></trkpt><trkpt lat="45.98214707109099" lon="8.761262158459699"><ele>395.0</ele><time>2026-04-25T10:04:24.795Z</time></trkpt><trkpt lat="45.98220727383804" lon="8.761196311571535"><ele>395.0</ele><time>2026-04-25T10:04:25.795Z</time></trkpt><trkpt lat="45.98230400048381" lon="8.761196216248697"><ele>395.0</ele><time>2026-04-25T10:04:26.795Z</time></trkpt><trkpt lat="45.982394683710446" lon="8.76122113458269"><ele>395.0</ele><time>2026-04-25T10:04:27.795Z</time></trkpt><trkpt lat="45.98249307116726" lon="8.761251939567856"><ele>395.0</ele><time>2026-04-25T10:04:28.795Z</time></trkpt><trkpt lat="45.982609696016674" lon="8.761241572373061"><ele>390.5</ele><time>2026-04-25T10:04:29.795Z</time></trkpt><trkpt lat="45.98272656008061" lon="8.761172298388972"><ele>386.0</ele><time>2026-04-25T10:04:30.795Z</time></trkpt><trkpt lat="45.982845314162915" lon="8.76107546700182"><ele>381.5</ele><time>2026-04-25T10:04:31.795Z</time></trkpt><trkpt lat="45.98296502840996" lon="8.760927083828955"><ele>377.0</ele><time>2026-04-25T10:04:32.795Z</time></trkpt><trkpt lat="45.98308641091112" lon="8.76078142262644"><ele>375.33333333333337</ele><time>2026-04-25T10:04:33.795Z</time></trkpt><trkpt lat="45.98321333702986" lon="8.76062566235091"><ele>373.6666666666667</ele><time>2026-04-25T10:04:34.795Z</time></trkpt><trkpt lat="45.98333573602275" lon="8.760473063202987"><ele>372.0</ele><time>2026-04-25T10:04:35.795Z</time></trkpt><trkpt lat="45.98344932194656" lon="8.760330401902738"><ele>366.75</ele><time>2026-04-25T10:04:36.795Z</time></trkpt><trkpt lat="45.98354620412458" lon="8.760168895036685"><ele>361.5</ele><time>2026-04-25T10:04:37.794Z</time></trkpt><trkpt lat="45.98360834577882" lon="8.759990948364337"><ele>356.25</ele><time>2026-04-25T10:04:38.794Z</time></trkpt><trkpt lat="45.98363583658369" lon="8.75983450806585"><ele>351.0</ele><time>2026-04-25T10:04:39.794Z</time></trkpt><trkpt lat="45.98364889148745" lon="8.759639413766623"><ele>351.0</ele><time>2026-04-25T10:04:40.794Z</time></trkpt><trkpt lat="45.98364006231593" lon="8.75941786073696"><ele>351.0</ele><time>2026-04-25T10:04:41.794Z</time></trkpt><trkpt lat="45.983581398921764" lon="8.759166897827614"><ele>351.0</ele><time>2026-04-25T10:04:42.794Z</time></trkpt><trkpt lat="45.983520732100935" lon="8.758895446071365"><ele>350.3333333333333</ele><time>2026-04-25T10:04:43.794Z</time></trkpt><trkpt lat="45.98344442759668" lon="8.758626738023072"><ele>349.66666666666663</ele><time>2026-04-25T10:04:44.794Z</time></trkpt><trkpt lat="45.98337719915187" lon="8.758370579045522"><ele>349.0</ele><time>2026-04-25T10:04:45.794Z</time></trkpt><trkpt lat="45.983313197921355" lon="8.758121921068403"><ele>348.66666666666663</ele><time>2026-04-25T10:04:46.794Z</time></trkpt><trkpt lat="45.98323536880249" lon="8.757887083937153"><ele>348.3333333333333</ele><time>2026-04-25T10:04:47.794Z</time></trkpt><trkpt lat="45.98316961456631" lon="8.757645657070052"><ele>348.0</ele><time>2026-04-25T10:04:48.794Z</time></trkpt><trkpt lat="45.983123142480764" lon="8.757407891521902"><ele>348.0</ele><time>2026-04-25T10:04:49.794Z</time></trkpt><trkpt lat="45.98304959190752" lon="8.757183449841884"><ele>348.0</ele><time>2026-04-25T10:04:50.794Z</time></trkpt><trkpt lat="45.982993265338735" lon="8.756957400060484"><ele>348.0</ele><time>2026-04-25T10:04:51.794Z</time></trkpt><trkpt lat="45.982937586467024" lon="8.756731294734749"><ele>343.3333333333333</ele><time>2026-04-25T10:04:52.794Z</time></trkpt><trkpt lat="45.982862807125784" lon="8.756518378711585"><ele>338.66666666666663</ele><time>2026-04-25T10:04:53.794Z</time></trkpt><trkpt lat="45.98281854078469" lon="8.75630495940771"><ele>334.0</ele><time>2026-04-25T10:04:54.794Z</time></trkpt><trkpt lat="45.98276035077263" lon="8.756108393234756"><ele>332.25</ele><time>2026-04-25T10:04:55.794Z</time></trkpt><trkpt lat="45.982710323564305" lon="8.755917080654887"><ele>330.5</ele><time>2026-04-25T10:04:56.794Z</time></trkpt><trkpt lat="45.982665379887656" lon="8.755723333966237"><ele>328.75</ele><time>2026-04-25T10:04:57.794Z</time></trkpt><trkpt lat="45.98264443369947" lon="8.755526203319434"><ele>327.0</ele><time>2026-04-25T10:04:58.794Z</time></trkpt><trkpt lat="45.98266137024651" lon="8.755310144327455"><ele>326.3333333333333</ele><time>2026-04-25T10:04:59.794Z</time></trkpt><trkpt lat="45.982699686364434" lon="8.755103739186348"><ele>325.66666666666663</ele><time>2026-04-25T10:05:00.794Z</time></trkpt><trkpt lat="45.982737413343166" lon="8.754886156429036"><ele>325.0</ele><time>2026-04-25T10:05:01.794Z</time></trkpt><trkpt lat="45.98275466060745" lon="8.754676236135587"><ele>325.0</ele><time>2026-04-25T10:05:02.794Z</time></trkpt><trkpt lat="45.98274023047995" lon="8.754452065259034"><ele>325.0</ele><time>2026-04-25T10:05:03.794Z</time></trkpt><trkpt lat="45.98268449257355" lon="8.754246762066964"><ele>325.0</ele><time>2026-04-25T10:05:04.794Z</time></trkpt><trkpt lat="45.98260305400869" lon="8.754062135315019"><ele>326.3333333333333</ele><time>2026-04-25T10:05:05.794Z</time></trkpt><trkpt lat="45.98249375852454" lon="8.753899271608198"><ele>327.6666666666667</ele><time>2026-04-25T10:05:06.794Z</time></trkpt><trkpt lat="45.982336314947695" lon="8.753757871950084"><ele>329.0</ele><time>2026-04-25T10:05:07.794Z</time></trkpt><trkpt lat="45.98216956397086" lon="8.753632431104018"><ele>323.33333333333337</ele><time>2026-04-25T10:05:08.794Z</time></trkpt><trkpt lat="45.98200892696405" lon="8.753508420361607"><ele>317.6666666666667</ele><time>2026-04-25T10:05:09.794Z</time></trkpt><trkpt lat="45.98185573071761" lon="8.753413449327113"><ele>312.0</ele><time>2026-04-25T10:05:10.794Z</time></trkpt><trkpt lat="45.981689294503234" lon="8.753364029203219"><ele>313.3333333333333</ele><time>2026-04-25T10:05:11.794Z</time></trkpt><trkpt lat="45.98151650983444" lon="8.7533632473596"><ele>314.66666666666663</ele><time>2026-04-25T10:05:12.794Z</time></trkpt><trkpt lat="45.98133837852237" lon="8.753400993966093"><ele>316.0</ele><time>2026-04-25T10:05:13.794Z</time></trkpt><trkpt lat="45.981160683859635" lon="8.753420702842114"><ele>316.0</ele><time>2026-04-25T10:05:14.794Z</time></trkpt><trkpt lat="45.980998511820246" lon="8.753387028892588"><ele>316.0</ele><time>2026-04-25T10:05:15.794Z</time></trkpt><trkpt lat="45.980852557338764" lon="8.753344020857384"><ele>316.0</ele><time>2026-04-25T10:05:16.794Z</time></trkpt><trkpt lat="45.9806848169147" lon="8.753323637021765"><ele>313.0</ele><time>2026-04-25T10:05:17.794Z</time></trkpt><trkpt lat="45.98048670681113" lon="8.753360643381217"><ele>310.0</ele><time>2026-04-25T10:05:18.794Z</time></trkpt><trkpt lat="45.980288839177526" lon="8.753404763332016"><ele>307.0</ele><time>2026-04-25T10:05:19.794Z</time></trkpt><trkpt lat="45.98009071662753" lon="8.753479523797042"><ele>309.3333333333333</ele><time>2026-04-25T10:05:20.794Z</time></trkpt><trkpt lat="45.97989323962096" lon="8.753523760462665"><ele>311.6666666666667</ele><time>2026-04-25T10:05:21.794Z</time></trkpt><trkpt lat="45.97969936180503" lon="8.753565780212277"><ele>314.0</ele><time>2026-04-25T10:05:22.794Z</time></trkpt><trkpt lat="45.97950942324562" lon="8.753606082136944"><ele>314.0</ele><time>2026-04-25T10:05:23.794Z</time></trkpt><trkpt lat="45.979328424585034" lon="8.753658211222852"><ele>314.0</ele><time>2026-04-25T10:05:24.794Z</time></trkpt><trkpt lat="45.97915429994462" lon="8.75371607884584"><ele>314.0</ele><time>2026-04-25T10:05:25.794Z</time></trkpt><trkpt lat="45.97897668682039" lon="8.753761251941896"><ele>311.0</ele><time>2026-04-25T10:05:26.794Z</time></trkpt><trkpt lat="45.97879675267239" lon="8.753804747800604"><ele>308.0</ele><time>2026-04-25T10:05:27.794Z</time></trkpt><trkpt lat="45.97862605045822" lon="8.75384990210736"><ele>305.0</ele><time>2026-04-25T10:05:28.794Z</time></trkpt><trkpt lat="45.97846040292866" lon="8.753902125602552"><ele>302.0</ele><time>2026-04-25T10:05:29.794Z</time></trkpt><trkpt lat="45.97831056698983" lon="8.7539510102605"><ele>299.0</ele><time>2026-04-25T10:05:30.794Z</time></trkpt><trkpt lat="45.978185004019586" lon="8.753991759069624"><ele>296.0</ele><time>2026-04-25T10:05:31.794Z</time></trkpt><trkpt lat="45.978079966705174" lon="8.754031562571848"><ele>293.0</ele><time>2026-04-25T10:05:32.794Z</time></trkpt><trkpt lat="45.97797891806782" lon="8.754047913249316"><ele>293.0</ele><time>2026-04-25T10:05:33.794Z</time></trkpt><trkpt lat="45.97789506959149" lon="8.754036106611123"><ele>293.0</ele><time>2026-04-25T10:05:34.794Z</time></trkpt><trkpt lat="45.97781255906998" lon="8.75400041486261"><ele>293.0</ele><time>2026-04-25T10:05:35.794Z</time></trkpt><trkpt lat="45.9777395631057" lon="8.753915805822968"><ele>293.0</ele><time>2026-04-25T10:05:36.794Z</time></trkpt><trkpt lat="45.97769635559951" lon="8.753766275074186"><ele>293.0</ele><time>2026-04-25T10:05:37.794Z</time></trkpt><trkpt lat="45.977726256664944" lon="8.753610023793623"><ele>288.5</ele><time>2026-04-25T10:05:38.794Z</time></trkpt><trkpt lat="45.9778221816487" lon="8.753500027148178"><ele>284.0</ele><time>2026-04-25T10:05:39.794Z</time></trkpt><trkpt lat="45.97794470501716" lon="8.753386635917593"><ele>279.5</ele><time>2026-04-25T10:05:40.794Z</time></trkpt><trkpt lat="45.97807459206735" lon="8.753279309461977"><ele>275.0</ele><time>2026-04-25T10:05:41.794Z</time></trkpt><trkpt lat="45.9782078689174" lon="8.753158850027974"><ele>275.0</ele><time>2026-04-25T10:05:42.794Z</time></trkpt><trkpt lat="45.978334865864404" lon="8.753044798590574"><ele>275.0</ele><time>2026-04-25T10:05:43.794Z</time></trkpt><trkpt lat="45.97845730487012" lon="8.752944476803176"><ele>275.0</ele><time>2026-04-25T10:05:44.794Z</time></trkpt><trkpt lat="45.97858088428796" lon="8.752842129548577"><ele>275.0</ele><time>2026-04-25T10:05:45.794Z</time></trkpt><trkpt lat="45.978708102871884" lon="8.752735626438035"><ele>271.33333333333337</ele><time>2026-04-25T10:05:46.794Z</time></trkpt><trkpt lat="45.97884050533827" lon="8.752625765234415"><ele>267.6666666666667</ele><time>2026-04-25T10:05:47.794Z</time></trkpt><trkpt lat="45.97897078546448" lon="8.752517497044863"><ele>264.0</ele><time>2026-04-25T10:05:48.794Z</time></trkpt><trkpt lat="45.979105922021674" lon="8.752425999343844"><ele>266.0</ele><time>2026-04-25T10:05:49.794Z</time></trkpt><trkpt lat="45.97924722174135" lon="8.752386810725666"><ele>268.0</ele><time>2026-04-25T10:05:50.794Z</time></trkpt><trkpt lat="45.97938849331488" lon="8.75235112266157"><ele>270.0</ele><time>2026-04-25T10:05:51.794Z</time></trkpt><trkpt lat="45.97953878100405" lon="8.7523303258343"><ele>272.0</ele><time>2026-04-25T10:05:52.794Z</time></trkpt><trkpt lat="45.979683526886134" lon="8.752284804325477"><ele>272.0</ele><time>2026-04-25T10:05:53.794Z</time></trkpt><trkpt lat="45.979825262327225" lon="8.752221419676717"><ele>272.0</ele><time>2026-04-25T10:05:54.794Z</time></trkpt><trkpt lat="45.979982894148385" lon="8.752104497665178"><ele>272.0</ele><time>2026-04-25T10:05:55.794Z</time></trkpt><trkpt lat="45.98017276439672" lon="8.751949849285914"><ele>266.6666666666667</ele><time>2026-04-25T10:05:56.794Z</time></trkpt><trkpt lat="45.980349409860786" lon="8.751799024769838"><ele>261.3333333333333</ele><time>2026-04-25T10:05:57.794Z</time></trkpt><trkpt lat="45.98052656000678" lon="8.751657416061875"><ele>256.0</ele><time>2026-04-25T10:05:58.794Z</time></trkpt><trkpt lat="45.98069932494972" lon="8.751523156815603"><ele>256.66666666666663</ele><time>2026-04-25T10:05:59.794Z</time></trkpt><trkpt lat="45.980871555461334" lon="8.751394176893509"><ele>257.3333333333333</ele><time>2026-04-25T10:06:00.794Z</time></trkpt><trkpt lat="45.98103251148768" lon="8.751265339912761"><ele>258.0</ele><time>2026-04-25T10:06:01.794Z</time></trkpt><trkpt lat="45.98118558908723" lon="8.751143112227952"><ele>252.66666666666669</ele><time>2026-04-25T10:06:02.794Z</time></trkpt><trkpt lat="45.98133730377051" lon="8.7510212781852"><ele>247.33333333333334</ele><time>2026-04-25T10:06:03.794Z</time></trkpt><trkpt lat="45.98148509640798" lon="8.750899715755429"><ele>242.0</ele><time>2026-04-25T10:06:04.794Z</time></trkpt><trkpt lat="45.981637019796985" lon="8.750785664903123"><ele>242.33333333333334</ele><time>2026-04-25T10:06:05.794Z</time></trkpt><trkpt lat="45.981790573171054" lon="8.750680655536373"><ele>242.66666666666669</ele><time>2026-04-25T10:06:06.794Z</time></trkpt><trkpt lat="45.98193514400128" lon="8.750582938913505"><ele>243.0</ele><time>2026-04-25T10:06:07.794Z</time></trkpt><trkpt lat="45.982077412379134" lon="8.750494619947963"><ele>243.0</ele><time>2026-04-25T10:06:08.794Z</time></trkpt><trkpt lat="45.98221702981114" lon="8.75042050815843"><ele>243.0</ele><time>2026-04-25T10:06:09.794Z</time></trkpt><trkpt lat="45.98235932753154" lon="8.750374819755928"><ele>243.0</ele><time>2026-04-25T10:06:10.794Z</time></trkpt><trkpt lat="45.98251270547854" lon="8.750402252016379"><ele>243.0</ele><time>2026-04-25T10:06:11.794Z</time></trkpt><trkpt lat="45.98269137798235" lon="8.750438518383977"><ele>241.0</ele><time>2026-04-25T10:06:12.794Z</time></trkpt><trkpt lat="45.98287967164507" lon="8.750483299183571"><ele>239.0</ele><time>2026-04-25T10:06:13.794Z</time></trkpt><trkpt lat="45.9830775155959" lon="8.750532136375966"><ele>237.0</ele><time>2026-04-25T10:06:14.794Z</time></trkpt><trkpt lat="45.98326352812387" lon="8.750578053131749"><ele>233.66666666666669</ele><time>2026-04-25T10:06:15.794Z</time></trkpt><trkpt lat="45.98344917839833" lon="8.750624246758807"><ele>230.33333333333334</ele><time>2026-04-25T10:06:16.794Z</time></trkpt><trkpt lat="45.98363177805581" lon="8.750665818469413"><ele>227.0</ele><time>2026-04-25T10:06:17.794Z</time></trkpt><trkpt lat="45.983812956495235" lon="8.750669913516285"><ele>227.0</ele><time>2026-04-25T10:06:18.794Z</time></trkpt><trkpt lat="45.98398243861967" lon="8.750662084890237"><ele>227.0</ele><time>2026-04-25T10:06:19.792Z</time></trkpt><trkpt lat="45.984145615597875" lon="8.75063221024276"><ele>227.0</ele><time>2026-04-25T10:06:20.792Z</time></trkpt><trkpt lat="45.984300267363516" lon="8.750615013291739"><ele>226.25</ele><time>2026-04-25T10:06:21.792Z</time></trkpt><trkpt lat="45.984457842845906" lon="8.750562366786422"><ele>225.5</ele><time>2026-04-25T10:06:22.792Z</time></trkpt><trkpt lat="45.98460246193729" lon="8.750511603903837"><ele>224.75</ele><time>2026-04-25T10:06:23.792Z</time></trkpt><trkpt lat="45.98472412961655" lon="8.750468701763944"><ele>224.0</ele><time>2026-04-25T10:06:24.792Z</time></trkpt><trkpt lat="45.984830225746485" lon="8.75043367634305"><ele>224.00000000000003</ele><time>2026-04-25T10:06:25.791Z</time></trkpt><trkpt lat="45.984917261356436" lon="8.750401754654535"><ele>224.0</ele><time>2026-04-25T10:06:26.791Z</time></trkpt><trkpt lat="45.984999691093684" lon="8.750388979188886"><ele>224.0</ele><time>2026-04-25T10:06:27.791Z</time></trkpt><trkpt lat="45.98508760944169" lon="8.75039229971828"><ele>224.0</ele><time>2026-04-25T10:06:28.791Z</time></trkpt><trkpt lat="45.985164106088554" lon="8.750392292389357"><ele>224.00000000000003</ele><time>2026-04-25T10:06:29.791Z</time></trkpt><trkpt lat="45.98522739501655" lon="8.750359652664883"><ele>224.0</ele><time>2026-04-25T10:06:30.791Z</time></trkpt><trkpt lat="45.985255731341816" lon="8.750261153979695"><ele>220.5</ele><time>2026-04-25T10:06:31.791Z</time></trkpt><trkpt lat="45.9853060504264" lon="8.750162953900304"><ele>217.0</ele><time>2026-04-25T10:06:32.791Z</time></trkpt><trkpt lat="45.98546230154616" lon="8.75015472124499"><ele>213.5</ele><time>2026-04-25T10:06:33.791Z</time></trkpt><trkpt lat="45.985593073632984" lon="8.750095130146896"><ele>210.0</ele><time>2026-04-25T10:06:34.791Z</time></trkpt><trkpt lat="45.985730867734695" lon="8.75004285616831"><ele>209.33333333333331</ele><time>2026-04-25T10:06:35.791Z</time></trkpt><trkpt lat="45.985871292641406" lon="8.749983396420923"><ele>208.66666666666666</ele><time>2026-04-25T10:06:36.791Z</time></trkpt><trkpt lat="45.98602128179638" lon="8.74991750965718"><ele>208.0</ele><time>2026-04-25T10:06:37.791Z</time></trkpt><trkpt lat="45.986160841174886" lon="8.749852761592784"><ele>208.0</ele><time>2026-04-25T10:06:38.791Z</time></trkpt><trkpt lat="45.98628873235875" lon="8.749803137457407"><ele>208.0</ele><time>2026-04-25T10:06:39.791Z</time></trkpt><trkpt lat="45.98640419886286" lon="8.749759186416162"><ele>208.0</ele><time>2026-04-25T10:06:40.791Z</time></trkpt><trkpt lat="45.98650595133528" lon="8.749716867305878"><ele>208.0</ele><time>2026-04-25T10:06:41.791Z</time></trkpt><trkpt lat="45.986602051521444" lon="8.749678832685435"><ele>207.8</ele><time>2026-04-25T10:06:42.791Z</time></trkpt><trkpt lat="45.98669333516897" lon="8.7496420780667"><ele>207.60000000000002</ele><time>2026-04-25T10:06:43.791Z</time></trkpt><trkpt lat="45.986779361572786" lon="8.749609393147846"><ele>207.39999999999998</ele><time>2026-04-25T10:06:44.791Z</time></trkpt><trkpt lat="45.986865138527406" lon="8.74957092704797"><ele>207.2</ele><time>2026-04-25T10:06:45.791Z</time></trkpt><trkpt lat="45.98695310009465" lon="8.749536629984926"><ele>207.0</ele><time>2026-04-25T10:06:46.791Z</time></trkpt><trkpt lat="45.98703387378592" lon="8.749497684360287"><ele>207.0</ele><time>2026-04-25T10:06:47.791Z</time></trkpt><trkpt lat="45.98710694963505" lon="8.749469772891638"><ele>207.0</ele><time>2026-04-25T10:06:48.791Z</time></trkpt><trkpt lat="45.98718769203048" lon="8.749438182372819"><ele>207.0</ele><time>2026-04-25T10:06:49.791Z</time></trkpt><trkpt lat="45.98727158266933" lon="8.74940545626724"><ele>207.0</ele><time>2026-04-25T10:06:50.791Z</time></trkpt><trkpt lat="45.9873621224145" lon="8.749369630013042"><ele>207.0</ele><time>2026-04-25T10:06:51.791Z</time></trkpt><trkpt lat="45.98746805549152" lon="8.74932472229339"><ele>206.0</ele><time>2026-04-25T10:06:52.791Z</time></trkpt><trkpt lat="45.98758327647433" lon="8.749278286064266"><ele>205.0</ele><time>2026-04-25T10:06:53.791Z</time></trkpt><trkpt lat="45.987709439798955" lon="8.749224021915577"><ele>204.0</ele><time>2026-04-25T10:06:54.791Z</time></trkpt><trkpt lat="45.987836555713464" lon="8.749176192933449"><ele>203.0</ele><time>2026-04-25T10:06:55.791Z</time></trkpt><trkpt lat="45.987960814067414" lon="8.749129375735032"><ele>203.0</ele><time>2026-04-25T10:06:56.791Z</time></trkpt><trkpt lat="45.988096212610465" lon="8.749077699230154"><ele>203.0</ele><time>2026-04-25T10:06:57.791Z</time></trkpt><trkpt lat="45.98823416825973" lon="8.749015367680284"><ele>203.0</ele><time>2026-04-25T10:06:58.791Z</time></trkpt><trkpt lat="45.98836651109847" lon="8.748948789174598"><ele>203.0</ele><time>2026-04-25T10:06:59.791Z</time></trkpt><trkpt lat="45.9884918962016" lon="8.748895884647565"><ele>203.2</ele><time>2026-04-25T10:07:00.791Z</time></trkpt><trkpt lat="45.98860884805841" lon="8.748845655361798"><ele>203.4</ele><time>2026-04-25T10:07:01.791Z</time></trkpt><trkpt lat="45.988718926969334" lon="8.748800836345909"><ele>203.6</ele><time>2026-04-25T10:07:02.791Z</time></trkpt><trkpt lat="45.98881400616903" lon="8.748766482199319"><ele>203.79999999999998</ele><time>2026-04-25T10:07:03.791Z</time></trkpt><trkpt lat="45.98889584045897" lon="8.748734900408582"><ele>204.0</ele><time>2026-04-25T10:07:04.791Z</time></trkpt><trkpt lat="45.98897064469445" lon="8.748697467945311"><ele>204.0</ele><time>2026-04-25T10:07:05.791Z</time></trkpt><trkpt lat="45.98906365995265" lon="8.74862276154942"><ele>204.0</ele><time>2026-04-25T10:07:07.791Z</time></trkpt><trkpt lat="45.98912923185076" lon="8.7486204600641"><ele>204.0</ele><time>2026-04-25T10:07:09.791Z</time></trkpt><trkpt lat="45.98919222047692" lon="8.748594892789521"><ele>204.0</ele><time>2026-04-25T10:07:12.791Z</time></trkpt><trkpt lat="45.98925704813578" lon="8.748568578942992"><ele>204.0</ele><time>2026-04-25T10:07:15.791Z</time></trkpt><trkpt lat="45.9892550201727" lon="8.7483369113204"><ele>203.66666666666666</ele><time>2026-04-25T10:09:17.788Z</time></trkpt><trkpt lat="45.98928574710755" lon="8.748422745889195"><ele>203.33333333333331</ele><time>2026-04-25T10:09:48.787Z</time></trkpt><trkpt lat="45.98921684723155" lon="8.748510528935626"><ele>203.0</ele><time>2026-04-25T10:10:08.787Z</time></trkpt><trkpt lat="45.989254993804686" lon="8.748417839210259"><ele>202.66666666666666</ele><time>2026-04-25T10:15:28.777Z</time></trkpt><trkpt lat="45.98926413492722" lon="8.748518149357812"><ele>202.33333333333331</ele><time>2026-04-25T10:16:29.776Z</time></trkpt><trkpt lat="45.98929340787041" lon="8.748411214031348"><ele>202.0</ele><time>2026-04-25T10:20:51.805Z</time></trkpt><trkpt lat="45.989233934330294" lon="8.748361387494207"><ele>202.0</ele><time>2026-04-25T10:20:54.805Z</time></trkpt><trkpt lat="45.989179001495465" lon="8.748483589778667"><ele>202.0</ele><time>2026-04-25T10:20:58.805Z</time></trkpt><trkpt lat="45.9891106882007" lon="8.748554121339387"><ele>202.0</ele><time>2026-04-25T10:21:03.802Z</time></trkpt><trkpt lat="45.989005844688876" lon="8.748633900875358"><ele>202.0</ele><time>2026-04-25T10:21:05.801Z</time></trkpt><trkpt lat="45.9889295305558" lon="8.748675998055143"><ele>202.0</ele><time>2026-04-25T10:21:06.801Z</time></trkpt><trkpt lat="45.98884163096063" lon="8.74871587368439"><ele>202.5</ele><time>2026-04-25T10:21:07.802Z</time></trkpt><trkpt lat="45.988748930154124" lon="8.74875840739553"><ele>203.0</ele><time>2026-04-25T10:21:08.802Z</time></trkpt><trkpt lat="45.98864119803532" lon="8.748796300276522"><ele>203.5</ele><time>2026-04-25T10:21:09.802Z</time></trkpt><trkpt lat="45.988523960422185" lon="8.748843458265684"><ele>204.0</ele><time>2026-04-25T10:21:10.802Z</time></trkpt><trkpt lat="45.98840362473425" lon="8.748887726522252"><ele>203.75</ele><time>2026-04-25T10:21:11.802Z</time></trkpt><trkpt lat="45.98829251497639" lon="8.748937948093513"><ele>203.5</ele><time>2026-04-25T10:21:12.802Z</time></trkpt><trkpt lat="45.988174254820194" lon="8.748964714044847"><ele>203.25</ele><time>2026-04-25T10:21:13.801Z</time></trkpt><trkpt lat="45.98806542496691" lon="8.749044056991307"><ele>203.0</ele><time>2026-04-25T10:21:14.802Z</time></trkpt><trkpt lat="45.98794706998251" lon="8.74909590388448"><ele>203.0</ele><time>2026-04-25T10:21:15.802Z</time></trkpt><trkpt lat="45.98780877490033" lon="8.749154582974807"><ele>203.0</ele><time>2026-04-25T10:21:16.802Z</time></trkpt><trkpt lat="45.98762784709762" lon="8.749221663420508"><ele>203.0</ele><time>2026-04-25T10:21:17.802Z</time></trkpt><trkpt lat="45.987437861768356" lon="8.749308602124511"><ele>204.33333333333334</ele><time>2026-04-25T10:21:18.802Z</time></trkpt><trkpt lat="45.98725511995119" lon="8.749380272696477"><ele>205.66666666666669</ele><time>2026-04-25T10:21:19.802Z</time></trkpt><trkpt lat="45.98708020960985" lon="8.749454055423943"><ele>207.0</ele><time>2026-04-25T10:21:20.802Z</time></trkpt><trkpt lat="45.98691777352228" lon="8.749514168494734"><ele>207.0</ele><time>2026-04-25T10:21:21.802Z</time></trkpt><trkpt lat="45.986760905592064" lon="8.749569919146708"><ele>207.0</ele><time>2026-04-25T10:21:22.802Z</time></trkpt><trkpt lat="45.986619186539045" lon="8.749621712929667"><ele>207.0</ele><time>2026-04-25T10:21:23.802Z</time></trkpt><trkpt lat="45.98648682638709" lon="8.749679366448037"><ele>207.0</ele><time>2026-04-25T10:21:24.802Z</time></trkpt><trkpt lat="45.98635718930218" lon="8.749741505813246"><ele>207.25</ele><time>2026-04-25T10:21:25.802Z</time></trkpt><trkpt lat="45.98622581785029" lon="8.74980109594494"><ele>207.5</ele><time>2026-04-25T10:21:26.802Z</time></trkpt><trkpt lat="45.98610376556999" lon="8.749855777380164"><ele>207.75</ele><time>2026-04-25T10:21:27.802Z</time></trkpt><trkpt lat="45.985986127357954" lon="8.749902685051838"><ele>208.0</ele><time>2026-04-25T10:21:28.802Z</time></trkpt><trkpt lat="45.98587487524649" lon="8.7499512161895"><ele>208.4</ele><time>2026-04-25T10:21:29.802Z</time></trkpt><trkpt lat="45.985773189228325" lon="8.749993742956061"><ele>208.8</ele><time>2026-04-25T10:21:30.802Z</time></trkpt><trkpt lat="45.985675144921025" lon="8.750031917784288"><ele>209.2</ele><time>2026-04-25T10:21:31.802Z</time></trkpt><trkpt lat="45.98559060714323" lon="8.75005966195909"><ele>209.6</ele><time>2026-04-25T10:21:32.802Z</time></trkpt><trkpt lat="45.98550069697808" lon="8.750094578254101"><ele>210.0</ele><time>2026-04-25T10:21:33.802Z</time></trkpt><trkpt lat="45.98541399535698" lon="8.750123193484564"><ele>210.0</ele><time>2026-04-25T10:21:34.802Z</time></trkpt><trkpt lat="45.98532378518586" lon="8.750157940492054"><ele>210.0</ele><time>2026-04-25T10:21:35.802Z</time></trkpt><trkpt lat="45.98522111077544" lon="8.750168091614357"><ele>210.0</ele><time>2026-04-25T10:21:36.802Z</time></trkpt><trkpt lat="45.985115660938206" lon="8.75014877543251"><ele>210.0</ele><time>2026-04-25T10:21:37.802Z</time></trkpt><trkpt lat="45.98499542370403" lon="8.750091479921293"><ele>210.0</ele><time>2026-04-25T10:21:38.802Z</time></trkpt><trkpt lat="45.98486378609984" lon="8.750000262145559"><ele>209.66666666666669</ele><time>2026-04-25T10:21:39.802Z</time></trkpt><trkpt lat="45.98472389699922" lon="8.749876490434417"><ele>209.33333333333334</ele><time>2026-04-25T10:21:40.802Z</time></trkpt><trkpt lat="45.98458627286611" lon="8.749757834001889"><ele>209.0</ele><time>2026-04-25T10:21:41.802Z</time></trkpt><trkpt lat="45.98445574465168" lon="8.74965364316085"><ele>209.0</ele><time>2026-04-25T10:21:42.802Z</time></trkpt><trkpt lat="45.98431659366662" lon="8.74955787623526"><ele>209.0</ele><time>2026-04-25T10:21:43.802Z</time></trkpt><trkpt lat="45.98418959811681" lon="8.74947720276114"><ele>209.0</ele><time>2026-04-25T10:21:44.802Z</time></trkpt><trkpt lat="45.98405854388052" lon="8.749432998164488"><ele>209.0</ele><time>2026-04-25T10:21:45.802Z</time></trkpt><trkpt lat="45.983920687497495" lon="8.74941937806174"><ele>209.25</ele><time>2026-04-25T10:21:46.802Z</time></trkpt><trkpt lat="45.98377891301064" lon="8.749439440290617"><ele>209.5</ele><time>2026-04-25T10:21:47.802Z</time></trkpt><trkpt lat="45.983655808039" lon="8.749443173707187"><ele>209.75</ele><time>2026-04-25T10:21:48.802Z</time></trkpt><trkpt lat="45.98354383493528" lon="8.749453873850605"><ele>210.0</ele><time>2026-04-25T10:21:49.802Z</time></trkpt><trkpt lat="45.983437974709865" lon="8.749454794562693"><ele>210.83333333333334</ele><time>2026-04-25T10:21:50.802Z</time></trkpt><trkpt lat="45.983341843299975" lon="8.749454146770397"><ele>211.66666666666669</ele><time>2026-04-25T10:21:51.802Z</time></trkpt><trkpt lat="45.98325312405527" lon="8.749460332012418"><ele>212.5</ele><time>2026-04-25T10:21:52.802Z</time></trkpt><trkpt lat="45.98317079235067" lon="8.749469507824642"><ele>213.33333333333334</ele><time>2026-04-25T10:21:53.802Z</time></trkpt><trkpt lat="45.98309218327763" lon="8.74946617001192"><ele>214.16666666666669</ele><time>2026-04-25T10:21:54.802Z</time></trkpt><trkpt lat="45.98302549935276" lon="8.749438050564468"><ele>215.0</ele><time>2026-04-25T10:21:55.802Z</time></trkpt><trkpt lat="45.98296128636585" lon="8.749408747288786"><ele>215.0</ele><time>2026-04-25T10:21:56.802Z</time></trkpt><trkpt lat="45.98287962986047" lon="8.749374693789123"><ele>215.0</ele><time>2026-04-25T10:21:57.802Z</time></trkpt><trkpt lat="45.982798123168685" lon="8.749398750193905"><ele>215.0</ele><time>2026-04-25T10:21:58.802Z</time></trkpt><trkpt lat="45.982713333130754" lon="8.749446478883634"><ele>215.0</ele><time>2026-04-25T10:21:59.802Z</time></trkpt><trkpt lat="45.982615054742126" lon="8.749485070659107"><ele>215.0</ele><time>2026-04-25T10:22:00.802Z</time></trkpt><trkpt lat="45.98249925632958" lon="8.74950048906561"><ele>216.66666666666669</ele><time>2026-04-25T10:22:01.802Z</time></trkpt><trkpt lat="45.982341007349156" lon="8.749499908412085"><ele>218.33333333333331</ele><time>2026-04-25T10:22:02.802Z</time></trkpt><trkpt lat="45.98216544162667" lon="8.749499512694232"><ele>220.0</ele><time>2026-04-25T10:22:03.802Z</time></trkpt><trkpt lat="45.982012568649" lon="8.749497784162081"><ele>220.0</ele><time>2026-04-25T10:22:04.802Z</time></trkpt><trkpt lat="45.98186751909033" lon="8.749501090734801"><ele>220.0</ele><time>2026-04-25T10:22:05.802Z</time></trkpt><trkpt lat="45.981728119661646" lon="8.749506810136268"><ele>220.0</ele><time>2026-04-25T10:22:06.802Z</time></trkpt><trkpt lat="45.981592156020255" lon="8.749522356812115"><ele>220.0</ele><time>2026-04-25T10:22:07.802Z</time></trkpt><trkpt lat="45.98146964863906" lon="8.74953212820928"><ele>220.25</ele><time>2026-04-25T10:22:08.802Z</time></trkpt><trkpt lat="45.98134615667187" lon="8.749537048969291"><ele>220.5</ele><time>2026-04-25T10:22:09.802Z</time></trkpt><trkpt lat="45.98121806936391" lon="8.749558983104722"><ele>220.75</ele><time>2026-04-25T10:22:10.802Z</time></trkpt><trkpt lat="45.98108449181745" lon="8.749581928905275"><ele>221.0</ele><time>2026-04-25T10:22:11.802Z</time></trkpt><trkpt lat="45.98093893957248" lon="8.749598880688522"><ele>220.25</ele><time>2026-04-25T10:22:12.802Z</time></trkpt><trkpt lat="45.98078341761855" lon="8.749608404159835"><ele>219.5</ele><time>2026-04-25T10:22:13.802Z</time></trkpt><trkpt lat="45.98064139205419" lon="8.749628975050427"><ele>218.75</ele><time>2026-04-25T10:22:14.802Z</time></trkpt><trkpt lat="45.980507640899276" lon="8.74966539896786"><ele>218.0</ele><time>2026-04-25T10:22:15.802Z</time></trkpt><trkpt lat="45.98037312395075" lon="8.749717063152888"><ele>218.0</ele><time>2026-04-25T10:22:16.802Z</time></trkpt><trkpt lat="45.98023909453175" lon="8.749788841160333"><ele>218.0</ele><time>2026-04-25T10:22:17.802Z</time></trkpt><trkpt lat="45.98007708637986" lon="8.749893233780114"><ele>218.0</ele><time>2026-04-25T10:22:18.802Z</time></trkpt><trkpt lat="45.97987475661625" lon="8.750040270952315"><ele>224.5</ele><time>2026-04-25T10:22:19.802Z</time></trkpt><trkpt lat="45.979633658882044" lon="8.75024027476876"><ele>231.0</ele><time>2026-04-25T10:22:20.802Z</time></trkpt><trkpt lat="45.97938082810459" lon="8.750448415982493"><ele>223.0</ele><time>2026-04-25T10:22:21.802Z</time></trkpt><trkpt lat="45.97912155712339" lon="8.750633397792658"><ele>215.0</ele><time>2026-04-25T10:22:22.802Z</time></trkpt><trkpt lat="45.97889509548025" lon="8.75084553451136"><ele>215.0</ele><time>2026-04-25T10:22:23.802Z</time></trkpt><trkpt lat="45.97867575924661" lon="8.751025793393335"><ele>215.0</ele><time>2026-04-25T10:22:24.802Z</time></trkpt><trkpt lat="45.978463463472586" lon="8.751177927735274"><ele>219.5</ele><time>2026-04-25T10:22:25.802Z</time></trkpt><trkpt lat="45.97823353333044" lon="8.751271746309122"><ele>224.0</ele><time>2026-04-25T10:22:26.802Z</time></trkpt><trkpt lat="45.97802315613439" lon="8.751326689847726"><ele>224.0</ele><time>2026-04-25T10:22:27.802Z</time></trkpt><trkpt lat="45.977795672657194" lon="8.751329306823916"><ele>224.0</ele><time>2026-04-25T10:22:28.802Z</time></trkpt><trkpt lat="45.97755849910923" lon="8.751345289707508"><ele>220.0</ele><time>2026-04-25T10:22:29.802Z</time></trkpt><trkpt lat="45.97733423920569" lon="8.751381459865442"><ele>216.0</ele><time>2026-04-25T10:22:30.802Z</time></trkpt><trkpt lat="45.97712844627099" lon="8.751382591835254"><ele>212.0</ele><time>2026-04-25T10:22:31.802Z</time></trkpt><trkpt lat="45.97693768305041" lon="8.751392969971837"><ele>212.0</ele><time>2026-04-25T10:22:32.802Z</time></trkpt><trkpt lat="45.97675482469797" lon="8.751406320345913"><ele>212.0</ele><time>2026-04-25T10:22:33.802Z</time></trkpt><trkpt lat="45.97656173772175" lon="8.75138032305554"><ele>212.0</ele><time>2026-04-25T10:22:34.802Z</time></trkpt><trkpt lat="45.9763653577514" lon="8.751410018934397"><ele>211.0</ele><time>2026-04-25T10:22:35.802Z</time></trkpt><trkpt lat="45.97617712900118" lon="8.751478446683787"><ele>210.0</ele><time>2026-04-25T10:22:36.802Z</time></trkpt><trkpt lat="45.97599680210812" lon="8.751567352787996"><ele>209.0</ele><time>2026-04-25T10:22:37.802Z</time></trkpt><trkpt lat="45.975817935971385" lon="8.751707854920832"><ele>209.33333333333334</ele><time>2026-04-25T10:22:38.802Z</time></trkpt><trkpt lat="45.97566007524161" lon="8.751879354911786"><ele>209.66666666666669</ele><time>2026-04-25T10:22:39.802Z</time></trkpt><trkpt lat="45.975501582352045" lon="8.752020273048753"><ele>210.0</ele><time>2026-04-25T10:22:40.802Z</time></trkpt><trkpt lat="45.975357671573256" lon="8.752158515333791"><ele>210.0</ele><time>2026-04-25T10:22:41.802Z</time></trkpt><trkpt lat="45.975216080741696" lon="8.75229460383884"><ele>210.0</ele><time>2026-04-25T10:22:42.802Z</time></trkpt><trkpt lat="45.97506226333727" lon="8.752434959116657"><ele>210.0</ele><time>2026-04-25T10:22:43.802Z</time></trkpt><trkpt lat="45.97490675407354" lon="8.752583276756159"><ele>210.0</ele><time>2026-04-25T10:22:44.802Z</time></trkpt><trkpt lat="45.974772164623815" lon="8.752745332764782"><ele>210.0</ele><time>2026-04-25T10:22:45.802Z</time></trkpt><trkpt lat="45.97463736322898" lon="8.75292234067038"><ele>210.0</ele><time>2026-04-25T10:22:46.802Z</time></trkpt><trkpt lat="45.97450522704194" lon="8.753118734664527"><ele>210.0</ele><time>2026-04-25T10:22:47.802Z</time></trkpt><trkpt lat="45.974374505838554" lon="8.753321178304843"><ele>210.0</ele><time>2026-04-25T10:22:48.802Z</time></trkpt><trkpt lat="45.97424732745496" lon="8.753524652162936"><ele>210.0</ele><time>2026-04-25T10:22:49.802Z</time></trkpt><trkpt lat="45.97413013948112" lon="8.753709784611628"><ele>213.66666666666669</ele><time>2026-04-25T10:22:50.802Z</time></trkpt><trkpt lat="45.974007204478355" lon="8.753884958088546"><ele>217.33333333333334</ele><time>2026-04-25T10:22:51.802Z</time></trkpt><trkpt lat="45.97386900482718" lon="8.754059813607748"><ele>221.0</ele><time>2026-04-25T10:22:52.802Z</time></trkpt><trkpt lat="45.973707303438516" lon="8.754215023139173"><ele>224.33333333333334</ele><time>2026-04-25T10:22:53.802Z</time></trkpt><trkpt lat="45.973551698150445" lon="8.754390545668503"><ele>227.66666666666669</ele><time>2026-04-25T10:22:54.802Z</time></trkpt><trkpt lat="45.97339088786613" lon="8.75453171636371"><ele>231.0</ele><time>2026-04-25T10:22:55.802Z</time></trkpt><trkpt lat="45.973222101784884" lon="8.75465953787333"><ele>231.0</ele><time>2026-04-25T10:22:56.802Z</time></trkpt><trkpt lat="45.97304052775199" lon="8.754770445668893"><ele>231.0</ele><time>2026-04-25T10:22:57.802Z</time></trkpt><trkpt lat="45.972851829192024" lon="8.754862443519928"><ele>231.0</ele><time>2026-04-25T10:22:58.802Z</time></trkpt><trkpt lat="45.97264660977143" lon="8.754922587531196"><ele>226.33333333333331</ele><time>2026-04-25T10:22:59.802Z</time></trkpt><trkpt lat="45.97244536053918" lon="8.754974699764817"><ele>221.66666666666666</ele><time>2026-04-25T10:23:00.802Z</time></trkpt><trkpt lat="45.97225392826529" lon="8.755004921834894"><ele>217.0</ele><time>2026-04-25T10:23:01.802Z</time></trkpt><trkpt lat="45.972058084296194" lon="8.755016138537579"><ele>217.0</ele><time>2026-04-25T10:23:02.802Z</time></trkpt><trkpt lat="45.971856323561106" lon="8.755040331686988"><ele>217.0</ele><time>2026-04-25T10:23:03.802Z</time></trkpt><trkpt lat="45.97165175580996" lon="8.755034341647507"><ele>217.0</ele><time>2026-04-25T10:23:04.802Z</time></trkpt><trkpt lat="45.97144341242058" lon="8.75503202850585"><ele>218.66666666666666</ele><time>2026-04-25T10:23:05.802Z</time></trkpt><trkpt lat="45.97123653840338" lon="8.755031104160887"><ele>220.33333333333331</ele><time>2026-04-25T10:23:06.802Z</time></trkpt><trkpt lat="45.97104423705632" lon="8.755028291800446"><ele>222.0</ele><time>2026-04-25T10:23:07.799Z</time></trkpt><trkpt lat="45.97085604971986" lon="8.755030529525971"><ele>222.66666666666669</ele><time>2026-04-25T10:23:08.798Z</time></trkpt><trkpt lat="45.97067924172158" lon="8.755038114298925"><ele>223.33333333333334</ele><time>2026-04-25T10:23:09.798Z</time></trkpt><trkpt lat="45.97050580897963" lon="8.755079878705118"><ele>224.0</ele><time>2026-04-25T10:23:10.798Z</time></trkpt><trkpt lat="45.97032870188452" lon="8.75516905828879"><ele>227.0</ele><time>2026-04-25T10:23:11.799Z</time></trkpt><trkpt lat="45.97015454914742" lon="8.755294798059385"><ele>230.0</ele><time>2026-04-25T10:23:12.799Z</time></trkpt><trkpt lat="45.96998390931908" lon="8.755444032071289"><ele>233.0</ele><time>2026-04-25T10:23:13.798Z</time></trkpt><trkpt lat="45.969812905286155" lon="8.755593618732217"><ele>233.0</ele><time>2026-04-25T10:23:14.798Z</time></trkpt><trkpt lat="45.96964525285096" lon="8.755732215997973"><ele>233.0</ele><time>2026-04-25T10:23:15.798Z</time></trkpt><trkpt lat="45.969489492205234" lon="8.755866292694341"><ele>233.0</ele><time>2026-04-25T10:23:16.799Z</time></trkpt><trkpt lat="45.9693170587515" lon="8.755990018608811"><ele>236.0</ele><time>2026-04-25T10:23:17.798Z</time></trkpt><trkpt lat="45.96915334348506" lon="8.756141197739636"><ele>239.0</ele><time>2026-04-25T10:23:18.798Z</time></trkpt><trkpt lat="45.96898526851725" lon="8.756298796576544"><ele>242.0</ele><time>2026-04-25T10:23:19.798Z</time></trkpt><trkpt lat="45.96881903727725" lon="8.756456185393608"><ele>242.0</ele><time>2026-04-25T10:23:20.798Z</time></trkpt><trkpt lat="45.968649547233184" lon="8.756596447634008"><ele>242.0</ele><time>2026-04-25T10:23:21.798Z</time></trkpt><trkpt lat="45.96847727480676" lon="8.756714599070964"><ele>242.0</ele><time>2026-04-25T10:23:22.798Z</time></trkpt><trkpt lat="45.96829134320601" lon="8.756739387685856"><ele>235.33333333333334</ele><time>2026-04-25T10:23:23.798Z</time></trkpt><trkpt lat="45.9681067314793" lon="8.756779171099218"><ele>228.66666666666669</ele><time>2026-04-25T10:23:24.798Z</time></trkpt><trkpt lat="45.96792619664146" lon="8.756770401504621"><ele>222.0</ele><time>2026-04-25T10:23:25.798Z</time></trkpt><trkpt lat="45.96775162648689" lon="8.756875971503758"><ele>226.66666666666669</ele><time>2026-04-25T10:23:26.798Z</time></trkpt><trkpt lat="45.96756219908132" lon="8.756968670785644"><ele>231.33333333333334</ele><time>2026-04-25T10:23:27.798Z</time></trkpt><trkpt lat="45.96739156237017" lon="8.757091031444785"><ele>236.0</ele><time>2026-04-25T10:23:28.798Z</time></trkpt><trkpt lat="45.96721634033774" lon="8.757219776833345"><ele>236.0</ele><time>2026-04-25T10:23:29.798Z</time></trkpt><trkpt lat="45.96704675563404" lon="8.757346791965418"><ele>236.0</ele><time>2026-04-25T10:23:30.798Z</time></trkpt><trkpt lat="45.966875419395436" lon="8.757475799370399"><ele>236.0</ele><time>2026-04-25T10:23:31.798Z</time></trkpt><trkpt lat="45.966699342231415" lon="8.757607651910318"><ele>241.33333333333334</ele><time>2026-04-25T10:23:32.798Z</time></trkpt><trkpt lat="45.96651998981688" lon="8.757738598527741"><ele>246.66666666666669</ele><time>2026-04-25T10:23:33.798Z</time></trkpt><trkpt lat="45.96634706380057" lon="8.757866199324276"><ele>252.0</ele><time>2026-04-25T10:23:34.798Z</time></trkpt><trkpt lat="45.966164818993065" lon="8.758002772478413"><ele>252.0</ele><time>2026-04-25T10:23:35.798Z</time></trkpt><trkpt lat="45.96598540044631" lon="8.758116878543902"><ele>252.0</ele><time>2026-04-25T10:23:36.798Z</time></trkpt><trkpt lat="45.96580222295187" lon="8.758221724971811"><ele>252.0</ele><time>2026-04-25T10:23:37.798Z</time></trkpt><trkpt lat="45.96562106523172" lon="8.75832532586188"><ele>245.33333333333331</ele><time>2026-04-25T10:23:38.798Z</time></trkpt><trkpt lat="45.96544940325983" lon="8.758423339486608"><ele>238.66666666666666</ele><time>2026-04-25T10:23:39.798Z</time></trkpt><trkpt lat="45.96527935207918" lon="8.758521569945033"><ele>232.0</ele><time>2026-04-25T10:23:40.798Z</time></trkpt><trkpt lat="45.9651011228083" lon="8.758624632609763"><ele>237.66666666666666</ele><time>2026-04-25T10:23:41.798Z</time></trkpt><trkpt lat="45.96491951600656" lon="8.758727044799867"><ele>243.33333333333331</ele><time>2026-04-25T10:23:42.798Z</time></trkpt><trkpt lat="45.964729498574" lon="8.758829615334381"><ele>249.0</ele><time>2026-04-25T10:23:43.798Z</time></trkpt><trkpt lat="45.9645344958622" lon="8.758909089280708"><ele>249.0</ele><time>2026-04-25T10:23:44.798Z</time></trkpt><trkpt lat="45.964346024638466" lon="8.758966558379068"><ele>249.0</ele><time>2026-04-25T10:23:45.798Z</time></trkpt><trkpt lat="45.964169528223415" lon="8.759009320414608"><ele>249.0</ele><time>2026-04-25T10:23:46.798Z</time></trkpt><trkpt lat="45.96398543930868" lon="8.759061680570188"><ele>243.0</ele><time>2026-04-25T10:23:47.798Z</time></trkpt><trkpt lat="45.963789095044625" lon="8.759128157782163"><ele>237.0</ele><time>2026-04-25T10:23:48.798Z</time></trkpt><trkpt lat="45.963592890616056" lon="8.759223940458584"><ele>231.0</ele><time>2026-04-25T10:23:49.798Z</time></trkpt><trkpt lat="45.96340597647746" lon="8.759331106477015"><ele>236.33333333333331</ele><time>2026-04-25T10:23:50.798Z</time></trkpt><trkpt lat="45.96322624674048" lon="8.759439432093794"><ele>241.66666666666666</ele><time>2026-04-25T10:23:51.798Z</time></trkpt><trkpt lat="45.96305024299299" lon="8.759545046539783"><ele>247.0</ele><time>2026-04-25T10:23:52.798Z</time></trkpt><trkpt lat="45.9628732818818" lon="8.759646977477448"><ele>247.0</ele><time>2026-04-25T10:23:53.798Z</time></trkpt><trkpt lat="45.96269940453868" lon="8.759746111687774"><ele>247.0</ele><time>2026-04-25T10:23:54.798Z</time></trkpt><trkpt lat="45.96251846991206" lon="8.759850517266836"><ele>247.0</ele><time>2026-04-25T10:23:55.798Z</time></trkpt><trkpt lat="45.962340126596516" lon="8.759957164966794"><ele>250.66666666666666</ele><time>2026-04-25T10:23:56.798Z</time></trkpt><trkpt lat="45.962166736319425" lon="8.760061607416013"><ele>254.33333333333331</ele><time>2026-04-25T10:23:57.798Z</time></trkpt><trkpt lat="45.961984385916516" lon="8.760171446982538"><ele>258.0</ele><time>2026-04-25T10:23:58.798Z</time></trkpt><trkpt lat="45.9618027836045" lon="8.760281208344809"><ele>247.0</ele><time>2026-04-25T10:23:59.798Z</time></trkpt><trkpt lat="45.96162706216661" lon="8.760387610612732"><ele>236.0</ele><time>2026-04-25T10:24:00.798Z</time></trkpt><trkpt lat="45.96144818021611" lon="8.760495926714723"><ele>225.0</ele><time>2026-04-25T10:24:01.798Z</time></trkpt><trkpt lat="45.961276562564926" lon="8.76060009177621"><ele>225.0</ele><time>2026-04-25T10:24:02.798Z</time></trkpt><trkpt lat="45.9611133994791" lon="8.760704581533062"><ele>225.0</ele><time>2026-04-25T10:24:03.798Z</time></trkpt><trkpt lat="45.96096556213968" lon="8.76082284250803"><ele>225.0</ele><time>2026-04-25T10:24:04.798Z</time></trkpt><trkpt lat="45.96084582704168" lon="8.760988902501106"><ele>225.66666666666669</ele><time>2026-04-25T10:24:05.798Z</time></trkpt><trkpt lat="45.96075660337644" lon="8.761184006886774"><ele>226.33333333333334</ele><time>2026-04-25T10:24:06.798Z</time></trkpt><trkpt lat="45.96065977885554" lon="8.761344812150133"><ele>227.0</ele><time>2026-04-25T10:24:07.798Z</time></trkpt><trkpt lat="45.96059199988707" lon="8.761529660656073"><ele>227.0</ele><time>2026-04-25T10:24:08.798Z</time></trkpt><trkpt lat="45.960544821778235" lon="8.761719111344544"><ele>227.0</ele><time>2026-04-25T10:24:09.798Z</time></trkpt><trkpt lat="45.960475997946084" lon="8.761896788245734"><ele>227.0</ele><time>2026-04-25T10:24:10.798Z</time></trkpt><trkpt lat="45.96041917323888" lon="8.76207843477783"><ele>227.0</ele><time>2026-04-25T10:24:11.798Z</time></trkpt><trkpt lat="45.96036157086451" lon="8.762271850690139"><ele>230.0</ele><time>2026-04-25T10:24:12.798Z</time></trkpt><trkpt lat="45.96029637280936" lon="8.762474822864007"><ele>233.0</ele><time>2026-04-25T10:24:13.798Z</time></trkpt><trkpt lat="45.96023281391802" lon="8.762684953248806"><ele>236.0</ele><time>2026-04-25T10:24:14.798Z</time></trkpt><trkpt lat="45.960160676605305" lon="8.762890419923558"><ele>236.0</ele><time>2026-04-25T10:24:15.798Z</time></trkpt><trkpt lat="45.96007580436131" lon="8.76307504851264"><ele>236.0</ele><time>2026-04-25T10:24:16.798Z</time></trkpt><trkpt lat="45.95996983398693" lon="8.76323803005115"><ele>236.0</ele><time>2026-04-25T10:24:17.798Z</time></trkpt><trkpt lat="45.959832985803914" lon="8.763403904637395"><ele>247.66666666666669</ele><time>2026-04-25T10:24:18.798Z</time></trkpt><trkpt lat="45.95970027379731" lon="8.763575173522895"><ele>259.3333333333333</ele><time>2026-04-25T10:24:19.798Z</time></trkpt><trkpt lat="45.95955568287679" lon="8.763738811438197"><ele>271.0</ele><time>2026-04-25T10:24:20.798Z</time></trkpt><trkpt lat="45.95940706895828" lon="8.763882234463015"><ele>271.0</ele><time>2026-04-25T10:24:21.798Z</time></trkpt><trkpt lat="45.959251277401336" lon="8.763963469699226"><ele>271.0</ele><time>2026-04-25T10:24:22.798Z</time></trkpt><trkpt lat="45.95908396273299" lon="8.764026473455383"><ele>271.0</ele><time>2026-04-25T10:24:23.798Z</time></trkpt><trkpt lat="45.9589193219518" lon="8.764087257303904"><ele>267.0</ele><time>2026-04-25T10:24:24.798Z</time></trkpt><trkpt lat="45.95873879030923" lon="8.764105007687562"><ele>263.0</ele><time>2026-04-25T10:24:25.798Z</time></trkpt><trkpt lat="45.95854170602793" lon="8.7639280672105"><ele>259.0</ele><time>2026-04-25T10:24:26.798Z</time></trkpt><trkpt lat="45.95834386329495" lon="8.763948093896337"><ele>254.66666666666666</ele><time>2026-04-25T10:24:27.798Z</time></trkpt><trkpt lat="45.95816528226309" lon="8.763967091423744"><ele>250.33333333333331</ele><time>2026-04-25T10:24:28.798Z</time></trkpt><trkpt lat="45.95799558005262" lon="8.763996693873564"><ele>246.0</ele><time>2026-04-25T10:24:29.798Z</time></trkpt><trkpt lat="45.957835591316496" lon="8.764068158891964"><ele>246.0</ele><time>2026-04-25T10:24:30.798Z</time></trkpt><trkpt lat="45.95769747067421" lon="8.764147183676593"><ele>246.0</ele><time>2026-04-25T10:24:31.798Z</time></trkpt><trkpt lat="45.957552437927625" lon="8.764228375372374"><ele>246.0</ele><time>2026-04-25T10:24:32.798Z</time></trkpt><trkpt lat="45.957410400008854" lon="8.764307890618268"><ele>251.75</ele><time>2026-04-25T10:24:33.798Z</time></trkpt><trkpt lat="45.95729230468025" lon="8.764374002396627"><ele>257.5</ele><time>2026-04-25T10:24:34.798Z</time></trkpt><trkpt lat="45.95717756187" lon="8.764438237316824"><ele>263.25</ele><time>2026-04-25T10:24:35.798Z</time></trkpt><trkpt lat="45.95705991546886" lon="8.764504186673495"><ele>269.0</ele><time>2026-04-25T10:24:36.798Z</time></trkpt><trkpt lat="45.95694026437571" lon="8.764571364878048"><ele>269.0</ele><time>2026-04-25T10:24:37.798Z</time></trkpt><trkpt lat="45.9568269206842" lon="8.764634985082477"><ele>269.0</ele><time>2026-04-25T10:24:38.798Z</time></trkpt><trkpt lat="45.9567107900903" lon="8.764700089837042"><ele>269.0</ele><time>2026-04-25T10:24:39.798Z</time></trkpt><trkpt lat="45.95659688558423" lon="8.76476394657589"><ele>269.0</ele><time>2026-04-25T10:24:40.798Z</time></trkpt><trkpt lat="45.956485769227704" lon="8.76482624034853"><ele>263.5</ele><time>2026-04-25T10:24:41.798Z</time></trkpt><trkpt lat="45.95636345352063" lon="8.764894812629707"><ele>258.0</ele><time>2026-04-25T10:24:42.798Z</time></trkpt><trkpt lat="45.95624932696986" lon="8.764958793909255"><ele>252.5</ele><time>2026-04-25T10:24:43.798Z</time></trkpt><trkpt lat="45.956144894182366" lon="8.765017250151242"><ele>247.0</ele><time>2026-04-25T10:24:44.798Z</time></trkpt><trkpt lat="45.95606897029332" lon="8.765163136872037"><ele>245.0</ele><time>2026-04-25T10:24:45.798Z</time></trkpt><trkpt lat="45.95596292300373" lon="8.76521022436382"><ele>243.0</ele><time>2026-04-25T10:24:46.798Z</time></trkpt><trkpt lat="45.95586146729372" lon="8.765267105114392"><ele>241.0</ele><time>2026-04-25T10:24:47.798Z</time></trkpt><trkpt lat="45.95575313891014" lon="8.765309516117307"><ele>239.0</ele><time>2026-04-25T10:24:48.798Z</time></trkpt><trkpt lat="45.955626973743264" lon="8.765347794563805"><ele>239.0</ele><time>2026-04-25T10:24:49.798Z</time></trkpt><trkpt lat="45.95550552216245" lon="8.765367908155955"><ele>239.0</ele><time>2026-04-25T10:24:50.798Z</time></trkpt><trkpt lat="45.955384423692756" lon="8.76538283555653"><ele>239.0</ele><time>2026-04-25T10:24:51.798Z</time></trkpt><trkpt lat="45.955272610218614" lon="8.76538758093405"><ele>239.0</ele><time>2026-04-25T10:24:52.798Z</time></trkpt><trkpt lat="45.955166450926704" lon="8.765333286470506"><ele>239.00000000000003</ele><time>2026-04-25T10:24:53.798Z</time></trkpt><trkpt lat="45.95506718621727" lon="8.765326568638168"><ele>239.0</ele><time>2026-04-25T10:24:54.798Z</time></trkpt><trkpt lat="45.95497699592324" lon="8.76532066011911"><ele>239.0</ele><time>2026-04-25T10:24:55.798Z</time></trkpt><trkpt lat="45.95489774428685" lon="8.765315746015617"><ele>239.0</ele><time>2026-04-25T10:24:56.798Z</time></trkpt><trkpt lat="45.95481473724151" lon="8.765311321919814"><ele>239.00000000000003</ele><time>2026-04-25T10:24:57.798Z</time></trkpt><trkpt lat="45.9547270360782" lon="8.765306674991493"><ele>239.0</ele><time>2026-04-25T10:24:58.798Z</time></trkpt><trkpt lat="45.95462400431445" lon="8.765301248739373"><ele>237.39999999999998</ele><time>2026-04-25T10:24:59.798Z</time></trkpt><trkpt lat="45.95450792082031" lon="8.765295216445558"><ele>235.79999999999998</ele><time>2026-04-25T10:25:00.798Z</time></trkpt><trkpt lat="45.95439194693138" lon="8.765288887833554"><ele>234.20000000000002</ele><time>2026-04-25T10:25:01.798Z</time></trkpt><trkpt lat="45.95429095537674" lon="8.765283281417078"><ele>232.60000000000002</ele><time>2026-04-25T10:25:02.798Z</time></trkpt><trkpt lat="45.95419794463998" lon="8.765277904968585"><ele>231.0</ele><time>2026-04-25T10:25:03.798Z</time></trkpt><trkpt lat="45.954117480706095" lon="8.765272728188387"><ele>231.0</ele><time>2026-04-25T10:25:04.798Z</time></trkpt><trkpt lat="45.95404827465098" lon="8.765266349940156"><ele>231.0</ele><time>2026-04-25T10:25:05.798Z</time></trkpt><trkpt lat="45.95396076357341" lon="8.765254624815388"><ele>231.0</ele><time>2026-04-25T10:25:07.798Z</time></trkpt><trkpt lat="45.953893303576606" lon="8.76521747559907"><ele>231.0</ele><time>2026-04-25T10:25:10.798Z</time></trkpt><trkpt lat="45.95383824820871" lon="8.765087878302417"><ele>231.0</ele><time>2026-04-25T10:25:14.796Z</time></trkpt><trkpt lat="45.953827101718616" lon="8.764975918467796"><ele>231.0</ele><time>2026-04-25T10:25:15.796Z</time></trkpt><trkpt lat="45.95377797971992" lon="8.764857671800003"><ele>231.0</ele><time>2026-04-25T10:25:16.795Z</time></trkpt><trkpt lat="45.95371124451544" lon="8.764782535938458"><ele>231.00000000000003</ele><time>2026-04-25T10:25:17.795Z</time></trkpt><trkpt lat="45.95361371661758" lon="8.764763704874525"><ele>231.00000000000003</ele><time>2026-04-25T10:25:18.795Z</time></trkpt><trkpt lat="45.95352150180129" lon="8.76481730069855"><ele>231.0</ele><time>2026-04-25T10:25:19.795Z</time></trkpt><trkpt lat="45.95344334895927" lon="8.764931375869395"><ele>231.0</ele><time>2026-04-25T10:25:20.795Z</time></trkpt><trkpt lat="45.953342391988684" lon="8.76504406867529"><ele>231.66666666666669</ele><time>2026-04-25T10:25:21.795Z</time></trkpt><trkpt lat="45.95321500804391" lon="8.76514690027811"><ele>232.33333333333334</ele><time>2026-04-25T10:25:22.795Z</time></trkpt><trkpt lat="45.95307680718061" lon="8.765210681589199"><ele>233.0</ele><time>2026-04-25T10:25:23.795Z</time></trkpt><trkpt lat="45.952910073647324" lon="8.765191899818278"><ele>233.33333333333334</ele><time>2026-04-25T10:25:24.795Z</time></trkpt><trkpt lat="45.952745549777894" lon="8.765184390173792"><ele>233.66666666666669</ele><time>2026-04-25T10:25:25.795Z</time></trkpt><trkpt lat="45.95257844726441" lon="8.765175761410092"><ele>234.0</ele><time>2026-04-25T10:25:26.795Z</time></trkpt><trkpt lat="45.95241953288512" lon="8.765166991300203"><ele>235.25</ele><time>2026-04-25T10:25:27.795Z</time></trkpt><trkpt lat="45.95227332830138" lon="8.765158286025883"><ele>236.5</ele><time>2026-04-25T10:25:28.795Z</time></trkpt><trkpt lat="45.95214133206914" lon="8.765150098321415"><ele>237.75</ele><time>2026-04-25T10:25:29.795Z</time></trkpt><trkpt lat="45.95201817309719" lon="8.765144996234994"><ele>239.0</ele><time>2026-04-25T10:25:30.795Z</time></trkpt><trkpt lat="45.9519076140664" lon="8.765139860262234"><ele>239.0</ele><time>2026-04-25T10:25:31.795Z</time></trkpt><trkpt lat="45.95180595253116" lon="8.765138538067573"><ele>238.99999999999997</ele><time>2026-04-25T10:25:32.795Z</time></trkpt><trkpt lat="45.95170765368258" lon="8.765141711015191"><ele>238.99999999999997</ele><time>2026-04-25T10:25:33.795Z</time></trkpt><trkpt lat="45.95159778630242" lon="8.76516299880909"><ele>239.0</ele><time>2026-04-25T10:25:34.795Z</time></trkpt><trkpt lat="45.951482563870194" lon="8.765195276370289"><ele>239.0</ele><time>2026-04-25T10:25:35.795Z</time></trkpt><trkpt lat="45.95136127078299" lon="8.765250570704584"><ele>239.25</ele><time>2026-04-25T10:25:36.795Z</time></trkpt><trkpt lat="45.951241988943494" lon="8.765307387496089"><ele>239.5</ele><time>2026-04-25T10:25:37.795Z</time></trkpt><trkpt lat="45.951130823976875" lon="8.76536091550218"><ele>239.75</ele><time>2026-04-25T10:25:38.795Z</time></trkpt><trkpt lat="45.9510166162755" lon="8.765415893017412"><ele>240.0</ele><time>2026-04-25T10:25:39.795Z</time></trkpt><trkpt lat="45.95091116834954" lon="8.765466743066213"><ele>240.0</ele><time>2026-04-25T10:25:40.795Z</time></trkpt><trkpt lat="45.95081406166538" lon="8.765514331135915"><ele>240.0</ele><time>2026-04-25T10:25:41.795Z</time></trkpt><trkpt lat="45.95071469785865" lon="8.765563025400324"><ele>240.0</ele><time>2026-04-25T10:25:42.795Z</time></trkpt><trkpt lat="45.95061643588648" lon="8.765606547543111"><ele>240.0</ele><time>2026-04-25T10:25:43.795Z</time></trkpt><trkpt lat="45.95051806514225" lon="8.765649631830211"><ele>240.0</ele><time>2026-04-25T10:25:44.795Z</time></trkpt><trkpt lat="45.9504290190333" lon="8.76568369458616"><ele>240.0</ele><time>2026-04-25T10:25:45.795Z</time></trkpt><trkpt lat="45.95034658970015" lon="8.76571144748122"><ele>240.0</ele><time>2026-04-25T10:25:46.795Z</time></trkpt><trkpt lat="45.95025528304378" lon="8.765734633905087"><ele>240.0</ele><time>2026-04-25T10:25:47.795Z</time></trkpt><trkpt lat="45.95015206952772" lon="8.765758540039162"><ele>240.0</ele><time>2026-04-25T10:25:48.795Z</time></trkpt><trkpt lat="45.950045114425684" lon="8.765783148447882"><ele>240.0</ele><time>2026-04-25T10:25:49.795Z</time></trkpt><trkpt lat="45.949916344177225" lon="8.765817628770854"><ele>240.25</ele><time>2026-04-25T10:25:50.795Z</time></trkpt><trkpt lat="45.949778223375056" lon="8.765859132789233"><ele>240.5</ele><time>2026-04-25T10:25:51.795Z</time></trkpt><trkpt lat="45.94964777740974" lon="8.765942687662502"><ele>240.75</ele><time>2026-04-25T10:25:52.795Z</time></trkpt><trkpt lat="45.94951378666816" lon="8.766039223228042"><ele>241.0</ele><time>2026-04-25T10:25:53.795Z</time></trkpt><trkpt lat="45.949384595690624" lon="8.766158645465243"><ele>241.0</ele><time>2026-04-25T10:25:54.795Z</time></trkpt><trkpt lat="45.94926965601323" lon="8.766277794923008"><ele>241.0</ele><time>2026-04-25T10:25:55.795Z</time></trkpt><trkpt lat="45.94917048491491" lon="8.766386601227003"><ele>241.0</ele><time>2026-04-25T10:25:56.795Z</time></trkpt><trkpt lat="45.949062598728595" lon="8.766499447828794"><ele>241.0</ele><time>2026-04-25T10:25:57.795Z</time></trkpt><trkpt lat="45.94897049356799" lon="8.766599381405138"><ele>241.0</ele><time>2026-04-25T10:25:58.795Z</time></trkpt><trkpt lat="45.94887933942609" lon="8.766682498571909"><ele>241.00000000000003</ele><time>2026-04-25T10:25:59.795Z</time></trkpt><trkpt lat="45.94879376148759" lon="8.766759067819173"><ele>241.00000000000003</ele><time>2026-04-25T10:26:00.795Z</time></trkpt><trkpt lat="45.94871338186718" lon="8.766826613567254"><ele>241.0</ele><time>2026-04-25T10:26:01.795Z</time></trkpt><trkpt lat="45.94863615916507" lon="8.766884948784378"><ele>241.0</ele><time>2026-04-25T10:26:02.795Z</time></trkpt><trkpt lat="45.94856587617239" lon="8.766942879836872"><ele>240.99999999999997</ele><time>2026-04-25T10:26:03.795Z</time></trkpt><trkpt lat="45.94849593307438" lon="8.766996587118923"><ele>241.0</ele><time>2026-04-25T10:26:04.795Z</time></trkpt><trkpt lat="45.948428056778546" lon="8.767046178435994"><ele>241.0</ele><time>2026-04-25T10:26:05.795Z</time></trkpt><trkpt lat="45.94835908873712" lon="8.767100853912442"><ele>241.0</ele><time>2026-04-25T10:26:06.795Z</time></trkpt><trkpt lat="45.948288397023454" lon="8.767147809180573"><ele>240.99999999999997</ele><time>2026-04-25T10:26:07.795Z</time></trkpt><trkpt lat="45.948209645219116" lon="8.767195972566402"><ele>241.0</ele><time>2026-04-25T10:26:08.795Z</time></trkpt><trkpt lat="45.94813706978084" lon="8.767231454763575"><ele>240.99999999999997</ele><time>2026-04-25T10:26:09.795Z</time></trkpt><trkpt lat="45.94805892037139" lon="8.767262406163654"><ele>241.0</ele><time>2026-04-25T10:26:10.795Z</time></trkpt><trkpt lat="45.94799085161645" lon="8.767285306678431"><ele>241.0</ele><time>2026-04-25T10:26:11.795Z</time></trkpt><trkpt lat="45.947924604531366" lon="8.767296834534758"><ele>241.0</ele><time>2026-04-25T10:26:12.795Z</time></trkpt><trkpt lat="45.947853227368384" lon="8.767333381107838"><ele>240.99999999999997</ele><time>2026-04-25T10:26:13.795Z</time></trkpt><trkpt lat="45.94778541937559" lon="8.767405333038585"><ele>241.0</ele><time>2026-04-25T10:26:14.795Z</time></trkpt><trkpt lat="45.94770277326903" lon="8.767471976628451"><ele>241.0</ele><time>2026-04-25T10:26:15.795Z</time></trkpt><trkpt lat="45.94758985217053" lon="8.767514185228867"><ele>241.0</ele><time>2026-04-25T10:26:16.795Z</time></trkpt><trkpt lat="45.94745464189758" lon="8.767530021353663"><ele>241.0</ele><time>2026-04-25T10:26:17.795Z</time></trkpt><trkpt lat="45.9472931945609" lon="8.767551967293448"><ele>241.0</ele><time>2026-04-25T10:26:18.795Z</time></trkpt><trkpt lat="45.94713494333424" lon="8.767565801107136"><ele>241.0</ele><time>2026-04-25T10:26:19.795Z</time></trkpt><trkpt lat="45.94697515860647" lon="8.767583173937954"><ele>241.0</ele><time>2026-04-25T10:26:20.795Z</time></trkpt><trkpt lat="45.946803087975205" lon="8.767597481101626"><ele>241.0</ele><time>2026-04-25T10:26:21.795Z</time></trkpt><trkpt lat="45.94663260719979" lon="8.76760952892038"><ele>240.0</ele><time>2026-04-25T10:26:22.795Z</time></trkpt><trkpt lat="45.94645624068105" lon="8.767623911517127"><ele>239.0</ele><time>2026-04-25T10:26:23.795Z</time></trkpt><trkpt lat="45.946261826518516" lon="8.767641784117638"><ele>238.0</ele><time>2026-04-25T10:26:24.795Z</time></trkpt><trkpt lat="45.946054316111876" lon="8.767662179472655"><ele>237.66666666666666</ele><time>2026-04-25T10:26:25.795Z</time></trkpt><trkpt lat="45.94584235040622" lon="8.767675206254822"><ele>237.33333333333331</ele><time>2026-04-25T10:26:26.795Z</time></trkpt><trkpt lat="45.945644840149185" lon="8.767687616553834"><ele>237.0</ele><time>2026-04-25T10:26:27.795Z</time></trkpt><trkpt lat="45.945463998744145" lon="8.76769563394631"><ele>237.0</ele><time>2026-04-25T10:26:28.795Z</time></trkpt><trkpt lat="45.9452854497143" lon="8.767685388132175"><ele>237.0</ele><time>2026-04-25T10:26:29.795Z</time></trkpt><trkpt lat="45.94510433123292" lon="8.767654733283358"><ele>237.0</ele><time>2026-04-25T10:26:30.795Z</time></trkpt><trkpt lat="45.944923619815114" lon="8.767616480950757"><ele>237.66666666666669</ele><time>2026-04-25T10:26:31.795Z</time></trkpt><trkpt lat="45.94475659942811" lon="8.767589780590194"><ele>238.33333333333334</ele><time>2026-04-25T10:26:32.795Z</time></trkpt><trkpt lat="45.94459766421167" lon="8.767562981633265"><ele>239.0</ele><time>2026-04-25T10:26:33.795Z</time></trkpt><trkpt lat="45.94443422561611" lon="8.767556552750364"><ele>239.0</ele><time>2026-04-25T10:26:34.795Z</time></trkpt><trkpt lat="45.94426689048933" lon="8.767593124750354"><ele>239.0</ele><time>2026-04-25T10:26:35.795Z</time></trkpt><trkpt lat="45.94409321669567" lon="8.767673926213721"><ele>239.0</ele><time>2026-04-25T10:26:36.795Z</time></trkpt><trkpt lat="45.9439350601781" lon="8.767790368720899"><ele>237.66666666666669</ele><time>2026-04-25T10:26:37.795Z</time></trkpt><trkpt lat="45.94377955521216" lon="8.767902096037043"><ele>236.33333333333331</ele><time>2026-04-25T10:26:38.795Z</time></trkpt><trkpt lat="45.943631151828185" lon="8.768018810438722"><ele>235.0</ele><time>2026-04-25T10:26:39.795Z</time></trkpt><trkpt lat="45.94348606461268" lon="8.768159098332097"><ele>237.33333333333331</ele><time>2026-04-25T10:26:40.795Z</time></trkpt><trkpt lat="45.943329428082784" lon="8.768287895994092"><ele>239.66666666666669</ele><time>2026-04-25T10:26:41.795Z</time></trkpt><trkpt lat="45.94318732503078" lon="8.76843256653782"><ele>242.0</ele><time>2026-04-25T10:26:42.795Z</time></trkpt><trkpt lat="45.94304008055783" lon="8.7685704779848"><ele>242.0</ele><time>2026-04-25T10:26:43.795Z</time></trkpt><trkpt lat="45.942907861287225" lon="8.768728507805038"><ele>242.0</ele><time>2026-04-25T10:26:44.795Z</time></trkpt><trkpt lat="45.9427853773156" lon="8.768907078752617"><ele>242.0</ele><time>2026-04-25T10:26:45.795Z</time></trkpt><trkpt lat="45.9426510930412" lon="8.76906744796689"><ele>241.33333333333334</ele><time>2026-04-25T10:26:46.795Z</time></trkpt><trkpt lat="45.942503534525116" lon="8.769217102446207"><ele>240.66666666666669</ele><time>2026-04-25T10:26:47.795Z</time></trkpt><trkpt lat="45.942368772377165" lon="8.769378650685262"><ele>240.0</ele><time>2026-04-25T10:26:48.795Z</time></trkpt><trkpt lat="45.942242262332606" lon="8.769531084500121"><ele>240.0</ele><time>2026-04-25T10:26:49.795Z</time></trkpt><trkpt lat="45.94212414873013" lon="8.769675233320386"><ele>240.0</ele><time>2026-04-25T10:26:50.795Z</time></trkpt><trkpt lat="45.942018460538144" lon="8.769838834178902"><ele>240.0</ele><time>2026-04-25T10:26:51.795Z</time></trkpt><trkpt lat="45.94189596119176" lon="8.769984721218526"><ele>240.0</ele><time>2026-04-25T10:26:52.795Z</time></trkpt><trkpt lat="45.941764180665324" lon="8.770130225983513"><ele>240.0</ele><time>2026-04-25T10:26:53.795Z</time></trkpt><trkpt lat="45.94161842659068" lon="8.770248483637644"><ele>240.0</ele><time>2026-04-25T10:26:54.795Z</time></trkpt><trkpt lat="45.941465282119054" lon="8.770349231350414"><ele>239.66666666666669</ele><time>2026-04-25T10:26:55.795Z</time></trkpt><trkpt lat="45.94130429442666" lon="8.770398132241244"><ele>239.33333333333334</ele><time>2026-04-25T10:26:56.795Z</time></trkpt><trkpt lat="45.941164044809575" lon="8.770489900278744"><ele>239.0</ele><time>2026-04-25T10:26:57.795Z</time></trkpt><trkpt lat="45.94102844718657" lon="8.770576984900783"><ele>239.0</ele><time>2026-04-25T10:26:58.795Z</time></trkpt><trkpt lat="45.94089955818087" lon="8.770659761217583"><ele>239.0</ele><time>2026-04-25T10:26:59.795Z</time></trkpt><trkpt lat="45.94078212062279" lon="8.770736353424615"><ele>239.0</ele><time>2026-04-25T10:27:00.795Z</time></trkpt><trkpt lat="45.94065526479829" lon="8.77081914055081"><ele>239.0</ele><time>2026-04-25T10:27:01.795Z</time></trkpt><trkpt lat="45.94051634771415" lon="8.77090979701115"><ele>238.66666666666669</ele><time>2026-04-25T10:27:02.795Z</time></trkpt><trkpt lat="45.940382181435545" lon="8.770997352923219"><ele>238.33333333333331</ele><time>2026-04-25T10:27:03.795Z</time></trkpt><trkpt lat="45.940233280739974" lon="8.771094524708014"><ele>238.0</ele><time>2026-04-25T10:27:04.795Z</time></trkpt><trkpt lat="45.9400817471013" lon="8.771193413010373"><ele>239.66666666666666</ele><time>2026-04-25T10:27:05.795Z</time></trkpt><trkpt lat="45.939929314097846" lon="8.771291177904073"><ele>241.33333333333331</ele><time>2026-04-25T10:27:06.795Z</time></trkpt><trkpt lat="45.93978176975821" lon="8.771385355328428"><ele>243.0</ele><time>2026-04-25T10:27:07.795Z</time></trkpt><trkpt lat="45.93962924318312" lon="8.771482313611633"><ele>243.0</ele><time>2026-04-25T10:27:08.795Z</time></trkpt><trkpt lat="45.93947083682892" lon="8.771583008711106"><ele>243.0</ele><time>2026-04-25T10:27:09.795Z</time></trkpt><trkpt lat="45.93931911743312" lon="8.771681055623034"><ele>243.0</ele><time>2026-04-25T10:27:10.795Z</time></trkpt><trkpt lat="45.939175609602266" lon="8.771773546023095"><ele>243.25</ele><time>2026-04-25T10:27:11.795Z</time></trkpt><trkpt lat="45.93904197403792" lon="8.771858267882628"><ele>243.5</ele><time>2026-04-25T10:27:12.795Z</time></trkpt><trkpt lat="45.93890871481446" lon="8.771937650169491"><ele>243.75</ele><time>2026-04-25T10:27:13.795Z</time></trkpt><trkpt lat="45.93876476651572" lon="8.772017888413307"><ele>244.0</ele><time>2026-04-25T10:27:14.795Z</time></trkpt><trkpt lat="45.938604062935994" lon="8.772103461364336"><ele>244.0</ele><time>2026-04-25T10:27:15.795Z</time></trkpt><trkpt lat="45.938433859890985" lon="8.772192960557144"><ele>244.0</ele><time>2026-04-25T10:27:16.795Z</time></trkpt><trkpt lat="45.93825854076083" lon="8.772286357031172"><ele>244.0</ele><time>2026-04-25T10:27:17.795Z</time></trkpt><trkpt lat="45.93807823286305" lon="8.772382276014563"><ele>244.0</ele><time>2026-04-25T10:27:18.795Z</time></trkpt><trkpt lat="45.93789875592559" lon="8.772477752876654"><ele>244.0</ele><time>2026-04-25T10:27:19.793Z</time></trkpt><trkpt lat="45.93773420874717" lon="8.772565307399669"><ele>244.0</ele><time>2026-04-25T10:27:20.793Z</time></trkpt><trkpt lat="45.937580866046595" lon="8.772647002937562"><ele>243.0</ele><time>2026-04-25T10:27:21.793Z</time></trkpt><trkpt lat="45.93742873547595" lon="8.77272805270892"><ele>242.0</ele><time>2026-04-25T10:27:22.792Z</time></trkpt><trkpt lat="45.937274969051195" lon="8.772809974041634"><ele>241.0</ele><time>2026-04-25T10:27:23.792Z</time></trkpt><trkpt lat="45.93711429058619" lon="8.772895577875646"><ele>241.0</ele><time>2026-04-25T10:27:24.792Z</time></trkpt><trkpt lat="45.93696495464245" lon="8.772988472916479"><ele>241.0</ele><time>2026-04-25T10:27:25.793Z</time></trkpt><trkpt lat="45.93682181384342" lon="8.773056953077424"><ele>241.0</ele><time>2026-04-25T10:27:26.793Z</time></trkpt><trkpt lat="45.93669012845185" lon="8.773130860482906"><ele>241.5</ele><time>2026-04-25T10:27:27.793Z</time></trkpt><trkpt lat="45.93656052981631" lon="8.773198991125684"><ele>242.0</ele><time>2026-04-25T10:27:28.793Z</time></trkpt><trkpt lat="45.9364270059739" lon="8.77327095018131"><ele>242.5</ele><time>2026-04-25T10:27:29.793Z</time></trkpt><trkpt lat="45.9362897184198" lon="8.773359900179116"><ele>243.0</ele><time>2026-04-25T10:27:30.793Z</time></trkpt><trkpt lat="45.93612080982072" lon="8.773423332277384"><ele>243.0</ele><time>2026-04-25T10:27:31.792Z</time></trkpt><trkpt lat="45.93595695171916" lon="8.77350942309105"><ele>243.0</ele><time>2026-04-25T10:27:32.792Z</time></trkpt><trkpt lat="45.935798231041666" lon="8.773593620195529"><ele>243.0</ele><time>2026-04-25T10:27:33.792Z</time></trkpt><trkpt lat="45.935649346958996" lon="8.773689270226747"><ele>242.33333333333331</ele><time>2026-04-25T10:27:34.792Z</time></trkpt><trkpt lat="45.935513310158115" lon="8.773807303393783"><ele>241.66666666666666</ele><time>2026-04-25T10:27:35.792Z</time></trkpt><trkpt lat="45.93539163279956" lon="8.77395006663758"><ele>241.0</ele><time>2026-04-25T10:27:36.792Z</time></trkpt><trkpt lat="45.93529274881732" lon="8.774125555925327"><ele>241.0</ele><time>2026-04-25T10:27:37.792Z</time></trkpt><trkpt lat="45.93519340589319" lon="8.774290407868735"><ele>241.0</ele><time>2026-04-25T10:27:38.792Z</time></trkpt><trkpt lat="45.93508827905429" lon="8.77442052210608"><ele>241.0</ele><time>2026-04-25T10:27:39.792Z</time></trkpt><trkpt lat="45.934983558978566" lon="8.77454106034179"><ele>241.0</ele><time>2026-04-25T10:27:40.792Z</time></trkpt><trkpt lat="45.93485890227336" lon="8.77464847715023"><ele>241.25</ele><time>2026-04-25T10:27:41.792Z</time></trkpt><trkpt lat="45.93472843021173" lon="8.774727251187814"><ele>241.5</ele><time>2026-04-25T10:27:42.792Z</time></trkpt><trkpt lat="45.934604770314245" lon="8.774782852939897"><ele>241.75</ele><time>2026-04-25T10:27:43.792Z</time></trkpt><trkpt lat="45.93448537531802" lon="8.774835868549909"><ele>242.0</ele><time>2026-04-25T10:27:44.792Z</time></trkpt><trkpt lat="45.93437356223778" lon="8.774911593376748"><ele>242.0</ele><time>2026-04-25T10:27:45.792Z</time></trkpt><trkpt lat="45.93425313863794" lon="8.774941238571985"><ele>242.0</ele><time>2026-04-25T10:27:46.792Z</time></trkpt><trkpt lat="45.93413578192573" lon="8.775017824964085"><ele>242.0</ele><time>2026-04-25T10:27:47.792Z</time></trkpt><trkpt lat="45.9339993150629" lon="8.775053681079442"><ele>242.0</ele><time>2026-04-25T10:27:48.792Z</time></trkpt><trkpt lat="45.933857078208675" lon="8.775116705986285"><ele>242.0</ele><time>2026-04-25T10:27:49.792Z</time></trkpt><trkpt lat="45.93369182074219" lon="8.775189340348541"><ele>242.0</ele><time>2026-04-25T10:27:50.792Z</time></trkpt><trkpt lat="45.93353581452875" lon="8.77525780952372"><ele>242.0</ele><time>2026-04-25T10:27:51.792Z</time></trkpt><trkpt lat="45.933395558484094" lon="8.775319397817988"><ele>242.25</ele><time>2026-04-25T10:27:52.792Z</time></trkpt><trkpt lat="45.93326895746469" lon="8.775369575459136"><ele>242.5</ele><time>2026-04-25T10:27:53.792Z</time></trkpt><trkpt lat="45.93314768178877" lon="8.775402037732965"><ele>242.75</ele><time>2026-04-25T10:27:54.792Z</time></trkpt><trkpt lat="45.933018658808464" lon="8.775404646343032"><ele>243.0</ele><time>2026-04-25T10:27:55.792Z</time></trkpt><trkpt lat="45.93286178913191" lon="8.775393045514688"><ele>243.0</ele><time>2026-04-25T10:27:56.792Z</time></trkpt><trkpt lat="45.9326862237043" lon="8.775377498803513"><ele>243.0</ele><time>2026-04-25T10:27:57.792Z</time></trkpt><trkpt lat="45.93251329275139" lon="8.775362185363965"><ele>243.0</ele><time>2026-04-25T10:27:58.792Z</time></trkpt><trkpt lat="45.93232849959043" lon="8.775345821516003"><ele>243.66666666666669</ele><time>2026-04-25T10:27:59.792Z</time></trkpt><trkpt lat="45.932124323043034" lon="8.775327741216593"><ele>244.33333333333334</ele><time>2026-04-25T10:28:00.792Z</time></trkpt><trkpt lat="45.931916443101386" lon="8.775309332980761"><ele>245.0</ele><time>2026-04-25T10:28:01.792Z</time></trkpt><trkpt lat="45.93171299460372" lon="8.775291105859203"><ele>245.0</ele><time>2026-04-25T10:28:02.792Z</time></trkpt><trkpt lat="45.93149936467568" lon="8.775272033128912"><ele>245.0</ele><time>2026-04-25T10:28:03.792Z</time></trkpt><trkpt lat="45.931280456345384" lon="8.775269506662667"><ele>245.0</ele><time>2026-04-25T10:28:04.792Z</time></trkpt><trkpt lat="45.93105983755222" lon="8.7752386284527"><ele>244.66666666666669</ele><time>2026-04-25T10:28:05.792Z</time></trkpt><trkpt lat="45.93086691304449" lon="8.775230475783431"><ele>244.33333333333331</ele><time>2026-04-25T10:28:06.792Z</time></trkpt><trkpt lat="45.930684618738496" lon="8.775214081635626"><ele>244.0</ele><time>2026-04-25T10:28:07.792Z</time></trkpt><trkpt lat="45.93051303091174" lon="8.775203948796529"><ele>244.0</ele><time>2026-04-25T10:28:08.792Z</time></trkpt><trkpt lat="45.93033829511374" lon="8.77519312824395"><ele>244.0</ele><time>2026-04-25T10:28:09.792Z</time></trkpt><trkpt lat="45.930157827880755" lon="8.77515823722032"><ele>244.0</ele><time>2026-04-25T10:28:10.792Z</time></trkpt><trkpt lat="45.92998811975623" lon="8.775143185587266"><ele>246.75</ele><time>2026-04-25T10:28:11.792Z</time></trkpt><trkpt lat="45.92983279550425" lon="8.775129409693658"><ele>249.5</ele><time>2026-04-25T10:28:12.792Z</time></trkpt><trkpt lat="45.92968965889792" lon="8.775116714721165"><ele>252.25</ele><time>2026-04-25T10:28:13.792Z</time></trkpt><trkpt lat="45.929554942270734" lon="8.7751047665316"><ele>255.0</ele><time>2026-04-25T10:28:14.792Z</time></trkpt><trkpt lat="45.92943386808751" lon="8.775094246574328"><ele>255.0</ele><time>2026-04-25T10:28:15.792Z</time></trkpt><trkpt lat="45.929320244657895" lon="8.775082461859707"><ele>255.0</ele><time>2026-04-25T10:28:16.792Z</time></trkpt><trkpt lat="45.929214401855056" lon="8.775091788172187"><ele>255.0</ele><time>2026-04-25T10:28:17.792Z</time></trkpt><trkpt lat="45.92911085543492" lon="8.775041146792699"><ele>255.0</ele><time>2026-04-25T10:28:18.792Z</time></trkpt><trkpt lat="45.929011645217166" lon="8.774953214530845"><ele>255.0</ele><time>2026-04-25T10:28:19.792Z</time></trkpt><trkpt lat="45.928922121751036" lon="8.774866027132454"><ele>253.4</ele><time>2026-04-25T10:28:20.792Z</time></trkpt><trkpt lat="45.928826451123044" lon="8.774842133311513"><ele>251.8</ele><time>2026-04-25T10:28:21.792Z</time></trkpt><trkpt lat="45.92872580093011" lon="8.774864374222522"><ele>250.2</ele><time>2026-04-25T10:28:22.792Z</time></trkpt><trkpt lat="45.928620159314036" lon="8.774932170737667"><ele>248.6</ele><time>2026-04-25T10:28:23.792Z</time></trkpt><trkpt lat="45.928495468051864" lon="8.774995510791513"><ele>247.0</ele><time>2026-04-25T10:28:24.792Z</time></trkpt><trkpt lat="45.928344845538064" lon="8.775034057594326"><ele>247.0</ele><time>2026-04-25T10:28:25.792Z</time></trkpt><trkpt lat="45.92819486267787" lon="8.774980543600083"><ele>247.0</ele><time>2026-04-25T10:28:26.792Z</time></trkpt><trkpt lat="45.92804725980505" lon="8.774967920147278"><ele>247.0</ele><time>2026-04-25T10:28:27.792Z</time></trkpt><trkpt lat="45.92790178343073" lon="8.774955478548234"><ele>247.0</ele><time>2026-04-25T10:28:28.792Z</time></trkpt><trkpt lat="45.927737716515736" lon="8.774941447031727"><ele>247.66666666666666</ele><time>2026-04-25T10:28:29.792Z</time></trkpt><trkpt lat="45.927559784165695" lon="8.774926436236104"><ele>248.33333333333331</ele><time>2026-04-25T10:28:30.792Z</time></trkpt><trkpt lat="45.92738339680168" lon="8.774912202637873"><ele>249.0</ele><time>2026-04-25T10:28:31.792Z</time></trkpt><trkpt lat="45.927205734674914" lon="8.774897866177714"><ele>249.0</ele><time>2026-04-25T10:28:32.792Z</time></trkpt><trkpt lat="45.927024123597405" lon="8.774883211044834"><ele>249.0</ele><time>2026-04-25T10:28:33.792Z</time></trkpt><trkpt lat="45.92684395930437" lon="8.774868046940496"><ele>249.0</ele><time>2026-04-25T10:28:34.792Z</time></trkpt><trkpt lat="45.9266565189659" lon="8.774852260258935"><ele>249.0</ele><time>2026-04-25T10:28:35.792Z</time></trkpt><trkpt lat="45.926473430396676" lon="8.77483684010207"><ele>249.0</ele><time>2026-04-25T10:28:36.792Z</time></trkpt><trkpt lat="45.92628198558697" lon="8.774839572324447"><ele>249.0</ele><time>2026-04-25T10:28:37.792Z</time></trkpt><trkpt lat="45.92608848782857" lon="8.774822622132318"><ele>250.33333333333331</ele><time>2026-04-25T10:28:38.792Z</time></trkpt><trkpt lat="45.92589239966432" lon="8.774802177415046"><ele>251.66666666666666</ele><time>2026-04-25T10:28:39.792Z</time></trkpt><trkpt lat="45.92570206559949" lon="8.774777799678409"><ele>253.0</ele><time>2026-04-25T10:28:40.792Z</time></trkpt><trkpt lat="45.925512561554875" lon="8.774758828564467"><ele>253.0</ele><time>2026-04-25T10:28:41.792Z</time></trkpt><trkpt lat="45.925319455167795" lon="8.77473836780331"><ele>253.0</ele><time>2026-04-25T10:28:42.792Z</time></trkpt><trkpt lat="45.92513115406627" lon="8.774717526175667"><ele>253.0</ele><time>2026-04-25T10:28:43.792Z</time></trkpt><trkpt lat="45.92494291356729" lon="8.774696450333167"><ele>252.66666666666666</ele><time>2026-04-25T10:28:44.792Z</time></trkpt><trkpt lat="45.92475396169224" lon="8.774670711025415"><ele>252.33333333333331</ele><time>2026-04-25T10:28:45.792Z</time></trkpt><trkpt lat="45.924576026093476" lon="8.774646808724016"><ele>252.0</ele><time>2026-04-25T10:28:46.792Z</time></trkpt><trkpt lat="45.92439858789149" lon="8.774624684009796"><ele>254.0</ele><time>2026-04-25T10:28:47.792Z</time></trkpt><trkpt lat="45.92422271083972" lon="8.774597180085896"><ele>256.0</ele><time>2026-04-25T10:28:48.792Z</time></trkpt><trkpt lat="45.92404146176095" lon="8.774536492833583"><ele>258.0</ele><time>2026-04-25T10:28:49.792Z</time></trkpt><trkpt lat="45.92386667024566" lon="8.774446441943468"><ele>256.6666666666667</ele><time>2026-04-25T10:28:50.792Z</time></trkpt><trkpt lat="45.92369360389199" lon="8.774325476636507"><ele>255.33333333333334</ele><time>2026-04-25T10:28:51.792Z</time></trkpt><trkpt lat="45.923533184290534" lon="8.774198159282923"><ele>254.0</ele><time>2026-04-25T10:28:52.792Z</time></trkpt><trkpt lat="45.92337221984172" lon="8.77407791063573"><ele>254.0</ele><time>2026-04-25T10:28:53.792Z</time></trkpt><trkpt lat="45.92320796371203" lon="8.773957466701397"><ele>254.0</ele><time>2026-04-25T10:28:54.792Z</time></trkpt><trkpt lat="45.92305055155886" lon="8.773808984878716"><ele>254.0</ele><time>2026-04-25T10:28:55.792Z</time></trkpt><trkpt lat="45.92288802566768" lon="8.773683158751584"><ele>254.0</ele><time>2026-04-25T10:28:56.792Z</time></trkpt><trkpt lat="45.922732711122705" lon="8.773588655158521"><ele>254.0</ele><time>2026-04-25T10:28:57.792Z</time></trkpt><trkpt lat="45.92259498280884" lon="8.773478640879606"><ele>254.0</ele><time>2026-04-25T10:28:58.792Z</time></trkpt><trkpt lat="45.9224564784957" lon="8.773369378625837"><ele>254.75</ele><time>2026-04-25T10:28:59.792Z</time></trkpt><trkpt lat="45.922317660829265" lon="8.773264277937209"><ele>255.5</ele><time>2026-04-25T10:29:00.792Z</time></trkpt><trkpt lat="45.922190301067666" lon="8.7731635155067"><ele>256.25</ele><time>2026-04-25T10:29:01.792Z</time></trkpt><trkpt lat="45.922070511577566" lon="8.77307224214155"><ele>257.0</ele><time>2026-04-25T10:29:02.792Z</time></trkpt><trkpt lat="45.92195579703088" lon="8.77298042516998"><ele>257.0</ele><time>2026-04-25T10:29:03.792Z</time></trkpt><trkpt lat="45.92185233065674" lon="8.772889934031998"><ele>257.0</ele><time>2026-04-25T10:29:04.792Z</time></trkpt><trkpt lat="45.92175585210945" lon="8.772807533132085"><ele>257.0</ele><time>2026-04-25T10:29:05.792Z</time></trkpt><trkpt lat="45.92166491049553" lon="8.772732159867157"><ele>257.0</ele><time>2026-04-25T10:29:06.792Z</time></trkpt><trkpt lat="45.92157694187316" lon="8.77266644916282"><ele>257.0</ele><time>2026-04-25T10:29:07.792Z</time></trkpt><trkpt lat="45.921489452782374" lon="8.772605188778893"><ele>257.0</ele><time>2026-04-25T10:29:08.792Z</time></trkpt><trkpt lat="45.92140083094552" lon="8.772538352625986"><ele>257.0</ele><time>2026-04-25T10:29:09.792Z</time></trkpt><trkpt lat="45.92131612416278" lon="8.772470974017986"><ele>257.0</ele><time>2026-04-25T10:29:10.792Z</time></trkpt><trkpt lat="45.92123727102421" lon="8.772408927141885"><ele>257.0</ele><time>2026-04-25T10:29:11.792Z</time></trkpt><trkpt lat="45.92116487895398" lon="8.772354185931645"><ele>257.0</ele><time>2026-04-25T10:29:12.792Z</time></trkpt><trkpt lat="45.92110103646007" lon="8.772309214745249"><ele>257.0</ele><time>2026-04-25T10:29:13.792Z</time></trkpt><trkpt lat="45.92103735771141" lon="8.772275491600078"><ele>257.0</ele><time>2026-04-25T10:29:14.792Z</time></trkpt><trkpt lat="45.920986692799154" lon="8.772209564671487"><ele>257.0</ele><time>2026-04-25T10:29:15.792Z</time></trkpt><trkpt lat="45.920896207123434" lon="8.772330718140145"><ele>257.0</ele><time>2026-04-25T10:29:16.792Z</time></trkpt><trkpt lat="45.92080604844472" lon="8.772370400365219"><ele>257.0</ele><time>2026-04-25T10:29:17.792Z</time></trkpt><trkpt lat="45.920721157464826" lon="8.772425412632865"><ele>257.0</ele><time>2026-04-25T10:29:18.792Z</time></trkpt><trkpt lat="45.92062371125326" lon="8.7724228511998"><ele>257.75</ele><time>2026-04-25T10:29:19.792Z</time></trkpt><trkpt lat="45.920507400171076" lon="8.772367614728456"><ele>258.5</ele><time>2026-04-25T10:29:20.792Z</time></trkpt><trkpt lat="45.92039604087221" lon="8.772269628535348"><ele>259.25</ele><time>2026-04-25T10:29:21.792Z</time></trkpt><trkpt lat="45.92029057853021" lon="8.772163688834327"><ele>260.0</ele><time>2026-04-25T10:29:22.792Z</time></trkpt><trkpt lat="45.92019521317926" lon="8.772074985440241"><ele>260.0</ele><time>2026-04-25T10:29:23.792Z</time></trkpt><trkpt lat="45.92010212522513" lon="8.772001940748073"><ele>260.0</ele><time>2026-04-25T10:29:24.792Z</time></trkpt><trkpt lat="45.920009570758246" lon="8.771939949775541"><ele>260.0</ele><time>2026-04-25T10:29:25.789Z</time></trkpt><trkpt lat="45.91991149195342" lon="8.77190170689663"><ele>260.0</ele><time>2026-04-25T10:29:26.79Z</time></trkpt><trkpt lat="45.91981941148082" lon="8.771886325301686"><ele>260.0</ele><time>2026-04-25T10:29:27.79Z</time></trkpt><trkpt lat="45.91972301044813" lon="8.771880512122127"><ele>264.2</ele><time>2026-04-25T10:29:28.79Z</time></trkpt><trkpt lat="45.91962617929658" lon="8.77187572812868"><ele>268.4</ele><time>2026-04-25T10:29:29.79Z</time></trkpt><trkpt lat="45.91952961468688" lon="8.771866582590606"><ele>272.6</ele><time>2026-04-25T10:29:30.79Z</time></trkpt><trkpt lat="45.91941684780286" lon="8.771860399841588"><ele>276.8</ele><time>2026-04-25T10:29:31.79Z</time></trkpt><trkpt lat="45.91929972404456" lon="8.771869789056623"><ele>281.0</ele><time>2026-04-25T10:29:32.789Z</time></trkpt><trkpt lat="45.919177146836226" lon="8.771889571010055"><ele>281.2</ele><time>2026-04-25T10:29:33.789Z</time></trkpt><trkpt lat="45.91906253311727" lon="8.771946986631107"><ele>281.40000000000003</ele><time>2026-04-25T10:29:34.789Z</time></trkpt><trkpt lat="45.91896646918583" lon="8.77202343891817"><ele>281.6</ele><time>2026-04-25T10:29:35.789Z</time></trkpt><trkpt lat="45.91887655037139" lon="8.772095320398893"><ele>281.8</ele><time>2026-04-25T10:29:36.789Z</time></trkpt><trkpt lat="45.91884967663972" lon="8.772219325290886"><ele>282.0</ele><time>2026-04-25T10:29:37.79Z</time></trkpt><trkpt lat="45.918812026290944" lon="8.772303662542194"><ele>282.0</ele><time>2026-04-25T10:29:38.789Z</time></trkpt><trkpt lat="45.91878859924657" lon="8.772396882113753"><ele>282.0</ele><time>2026-04-25T10:29:39.789Z</time></trkpt><trkpt lat="45.918749377053096" lon="8.77253086893352"><ele>282.0</ele><time>2026-04-25T10:29:41.789Z</time></trkpt><trkpt lat="45.91864417578679" lon="8.77256248295153"><ele>282.0</ele><time>2026-04-25T10:29:43.789Z</time></trkpt><trkpt lat="45.91854646098672" lon="8.77257077216142"><ele>282.0</ele><time>2026-04-25T10:29:45.789Z</time></trkpt><trkpt lat="45.91847375299828" lon="8.772582188223037"><ele>282.0</ele><time>2026-04-25T10:29:46.789Z</time></trkpt><trkpt lat="45.91837958206349" lon="8.772595982364557"><ele>281.5</ele><time>2026-04-25T10:29:47.789Z</time></trkpt><trkpt lat="45.918270475743654" lon="8.772657508083057"><ele>281.0</ele><time>2026-04-25T10:29:48.789Z</time></trkpt><trkpt lat="45.91815263133743" lon="8.77272797747204"><ele>280.5</ele><time>2026-04-25T10:29:49.789Z</time></trkpt><trkpt lat="45.9180354097022" lon="8.772796933771975"><ele>280.0</ele><time>2026-04-25T10:29:50.789Z</time></trkpt><trkpt lat="45.91793180405192" lon="8.772857167412587"><ele>280.2</ele><time>2026-04-25T10:29:51.789Z</time></trkpt><trkpt lat="45.91783152679168" lon="8.772915466010735"><ele>280.4</ele><time>2026-04-25T10:29:52.789Z</time></trkpt><trkpt lat="45.91773688158008" lon="8.772968511703645"><ele>280.6</ele><time>2026-04-25T10:29:53.789Z</time></trkpt><trkpt lat="45.917640712973856" lon="8.773012551197224"><ele>280.8</ele><time>2026-04-25T10:29:54.789Z</time></trkpt><trkpt lat="45.917539441334426" lon="8.773045064590212"><ele>281.0</ele><time>2026-04-25T10:29:55.789Z</time></trkpt><trkpt lat="45.91743792548751" lon="8.773056306390847"><ele>281.0</ele><time>2026-04-25T10:29:56.789Z</time></trkpt><trkpt lat="45.91732953534779" lon="8.773046168643289"><ele>281.0</ele><time>2026-04-25T10:29:57.789Z</time></trkpt><trkpt lat="45.91723063417122" lon="8.77301324062813"><ele>281.0</ele><time>2026-04-25T10:29:58.789Z</time></trkpt><trkpt lat="45.91714491864166" lon="8.772980837547902"><ele>281.0</ele><time>2026-04-25T10:29:59.789Z</time></trkpt><trkpt lat="45.91707034150038" lon="8.772951252513922"><ele>281.0</ele><time>2026-04-25T10:30:00.789Z</time></trkpt><trkpt lat="45.917009607560345" lon="8.772893307673595"><ele>281.0</ele><time>2026-04-25T10:30:01.789Z</time></trkpt><trkpt lat="45.916941952035806" lon="8.772839460151578"><ele>281.0</ele><time>2026-04-25T10:30:02.789Z</time></trkpt><trkpt lat="45.916872095901276" lon="8.772821171041125"><ele>281.0</ele><time>2026-04-25T10:30:03.789Z</time></trkpt><trkpt lat="45.91680326035723" lon="8.772853704457221"><ele>281.0</ele><time>2026-04-25T10:30:04.789Z</time></trkpt><trkpt lat="45.916730923582264" lon="8.772896699850067"><ele>281.0</ele><time>2026-04-25T10:30:05.789Z</time></trkpt><trkpt lat="45.9166731781666" lon="8.772975894307075"><ele>281.0</ele><time>2026-04-25T10:30:06.789Z</time></trkpt><trkpt lat="45.916626436241586" lon="8.773068592222167"><ele>281.0</ele><time>2026-04-25T10:30:07.789Z</time></trkpt><trkpt lat="45.9166074958724" lon="8.773188877414567"><ele>282.33333333333337</ele><time>2026-04-25T10:30:08.789Z</time></trkpt><trkpt lat="45.916609501205805" lon="8.77332937534711"><ele>283.6666666666667</ele><time>2026-04-25T10:30:09.789Z</time></trkpt><trkpt lat="45.91663130625838" lon="8.773482156562098"><ele>285.0</ele><time>2026-04-25T10:30:10.789Z</time></trkpt><trkpt lat="45.91665005570173" lon="8.773602282476787"><ele>286.3333333333333</ele><time>2026-04-25T10:30:11.789Z</time></trkpt><trkpt lat="45.9166648011474" lon="8.773696755523854"><ele>287.66666666666663</ele><time>2026-04-25T10:30:12.789Z</time></trkpt><trkpt lat="45.916679540659004" lon="8.773794760223494"><ele>289.0</ele><time>2026-04-25T10:30:13.789Z</time></trkpt><trkpt lat="45.91669015045312" lon="8.773903262249782"><ele>289.0</ele><time>2026-04-25T10:30:14.789Z</time></trkpt><trkpt lat="45.91668478453544" lon="8.774020734639251"><ele>289.0</ele><time>2026-04-25T10:30:15.789Z</time></trkpt><trkpt lat="45.91665430465637" lon="8.774109530097313"><ele>289.0</ele><time>2026-04-25T10:30:16.789Z</time></trkpt><trkpt lat="45.91660253315159" lon="8.774196468142648"><ele>289.0</ele><time>2026-04-25T10:30:17.789Z</time></trkpt><trkpt lat="45.91653476128218" lon="8.774234032714379"><ele>289.0</ele><time>2026-04-25T10:30:18.789Z</time></trkpt><trkpt lat="45.91644087224782" lon="8.774228653565244"><ele>289.0</ele><time>2026-04-25T10:30:19.789Z</time></trkpt><trkpt lat="45.916362251319214" lon="8.774177437684264"><ele>289.0</ele><time>2026-04-25T10:30:20.789Z</time></trkpt><trkpt lat="45.91629556797896" lon="8.774131728287491"><ele>289.0</ele><time>2026-04-25T10:30:21.789Z</time></trkpt><trkpt lat="45.91624003477528" lon="8.774061547508573"><ele>289.0</ele><time>2026-04-25T10:30:22.789Z</time></trkpt><trkpt lat="45.916187560766446" lon="8.773993288673605"><ele>289.0</ele><time>2026-04-25T10:30:23.789Z</time></trkpt><trkpt lat="45.91613577363474" lon="8.773927445745315"><ele>289.0</ele><time>2026-04-25T10:30:24.789Z</time></trkpt><trkpt lat="45.91606543713556" lon="8.773808101615458"><ele>289.0</ele><time>2026-04-25T10:30:26.789Z</time></trkpt><trkpt lat="45.91597587090528" lon="8.773698775222035"><ele>289.0</ele><time>2026-04-25T10:30:28.789Z</time></trkpt><trkpt lat="45.91591860201197" lon="8.77363018903882"><ele>289.0</ele><time>2026-04-25T10:30:30.789Z</time></trkpt><trkpt lat="45.9157934276854" lon="8.773754774926603"><ele>289.0</ele><time>2026-04-25T10:31:50.786Z</time></trkpt><trkpt lat="45.9157746631117" lon="8.773897312907868"><ele>289.0</ele><time>2026-04-25T10:32:50.825Z</time></trkpt><trkpt lat="45.91575673113498" lon="8.774032376045174"><ele>289.0</ele><time>2026-04-25T10:32:51.825Z</time></trkpt><trkpt lat="45.91572818397201" lon="8.774172602473124"><ele>289.4</ele><time>2026-04-25T10:32:52.826Z</time></trkpt><trkpt lat="45.915714960790105" lon="8.774292029145144"><ele>289.79999999999995</ele><time>2026-04-25T10:32:53.826Z</time></trkpt><trkpt lat="45.91574201873122" lon="8.774397061609118"><ele>290.20000000000005</ele><time>2026-04-25T10:32:54.826Z</time></trkpt><trkpt lat="45.91578899640388" lon="8.774504411788053"><ele>290.6</ele><time>2026-04-25T10:32:55.826Z</time></trkpt><trkpt lat="45.9158586842227" lon="8.77458198238424"><ele>291.0</ele><time>2026-04-25T10:32:56.826Z</time></trkpt><trkpt lat="45.91599700023523" lon="8.774657595848382"><ele>287.3333333333333</ele><time>2026-04-25T10:32:57.826Z</time></trkpt><trkpt lat="45.91617779522934" lon="8.774732872636546"><ele>283.66666666666663</ele><time>2026-04-25T10:32:58.827Z</time></trkpt><trkpt lat="45.91635827206514" lon="8.774779116006474"><ele>280.0</ele><time>2026-04-25T10:32:59.827Z</time></trkpt><trkpt lat="45.916512926907735" lon="8.774820025592174"><ele>280.0</ele><time>2026-04-25T10:33:00.827Z</time></trkpt><trkpt lat="45.916661832989924" lon="8.774858654603225"><ele>280.0</ele><time>2026-04-25T10:33:01.827Z</time></trkpt><trkpt lat="45.91680601067937" lon="8.774914763783164"><ele>280.0</ele><time>2026-04-25T10:33:02.827Z</time></trkpt><trkpt lat="45.91694554337782" lon="8.774972861769385"><ele>280.0</ele><time>2026-04-25T10:33:03.827Z</time></trkpt><trkpt lat="45.917084304542804" lon="8.775083887726854"><ele>278.66666666666663</ele><time>2026-04-25T10:33:04.827Z</time></trkpt><trkpt lat="45.91722773035564" lon="8.775138362903323"><ele>277.3333333333333</ele><time>2026-04-25T10:33:05.827Z</time></trkpt><trkpt lat="45.91737124614376" lon="8.775194536327355"><ele>276.0</ele><time>2026-04-25T10:33:06.827Z</time></trkpt><trkpt lat="45.917522464551645" lon="8.775253315549278"><ele>278.5</ele><time>2026-04-25T10:33:07.827Z</time></trkpt><trkpt lat="45.91766883530143" lon="8.775280113994755"><ele>281.0</ele><time>2026-04-25T10:33:08.828Z</time></trkpt><trkpt lat="45.917806126241516" lon="8.775294521725348"><ele>283.5</ele><time>2026-04-25T10:33:09.828Z</time></trkpt><trkpt lat="45.91793117838345" lon="8.775252255026928"><ele>286.0</ele><time>2026-04-25T10:33:10.828Z</time></trkpt><trkpt lat="45.91805170806275" lon="8.775155555450352"><ele>286.0</ele><time>2026-04-25T10:33:11.828Z</time></trkpt><trkpt lat="45.91814687391851" lon="8.77495846628886"><ele>286.0</ele><time>2026-04-25T10:33:12.828Z</time></trkpt><trkpt lat="45.91824498967953" lon="8.774748954887924"><ele>286.0</ele><time>2026-04-25T10:33:13.828Z</time></trkpt><trkpt lat="45.9183298729645" lon="8.774560759131672"><ele>286.0</ele><time>2026-04-25T10:33:14.828Z</time></trkpt><trkpt lat="45.91840002433113" lon="8.774399123756277"><ele>286.0</ele><time>2026-04-25T10:33:15.828Z</time></trkpt><trkpt lat="45.91847224478896" lon="8.77427121982085"><ele>286.0</ele><time>2026-04-25T10:33:16.828Z</time></trkpt><trkpt lat="45.91856614531767" lon="8.774202265438507"><ele>286.0</ele><time>2026-04-25T10:33:17.828Z</time></trkpt><trkpt lat="45.91869048695528" lon="8.774229869760227"><ele>286.25</ele><time>2026-04-25T10:33:18.828Z</time></trkpt><trkpt lat="45.91882590981394" lon="8.774243692878338"><ele>286.5</ele><time>2026-04-25T10:33:19.828Z</time></trkpt><trkpt lat="45.918952710072965" lon="8.774268492265227"><ele>286.75</ele><time>2026-04-25T10:33:20.828Z</time></trkpt><trkpt lat="45.91907135979877" lon="8.774299930653338"><ele>287.0</ele><time>2026-04-25T10:33:21.828Z</time></trkpt><trkpt lat="45.91919891353048" lon="8.774357349506262"><ele>288.5</ele><time>2026-04-25T10:33:22.828Z</time></trkpt><trkpt lat="45.91932728907202" lon="8.77440202716895"><ele>290.0</ele><time>2026-04-25T10:33:23.828Z</time></trkpt><trkpt lat="45.91944658430154" lon="8.774487702403306"><ele>291.5</ele><time>2026-04-25T10:33:24.828Z</time></trkpt><trkpt lat="45.91956123899948" lon="8.7745633702832"><ele>293.0</ele><time>2026-04-25T10:33:25.828Z</time></trkpt><trkpt lat="45.919673646526654" lon="8.774616723084659"><ele>293.0</ele><time>2026-04-25T10:33:26.828Z</time></trkpt><trkpt lat="45.91978572399921" lon="8.77462707097293"><ele>293.0</ele><time>2026-04-25T10:33:27.828Z</time></trkpt><trkpt lat="45.919884344947505" lon="8.774571375420573"><ele>293.0</ele><time>2026-04-25T10:33:28.828Z</time></trkpt><trkpt lat="45.919979466679976" lon="8.7745213622513"><ele>293.0</ele><time>2026-04-25T10:33:29.829Z</time></trkpt><trkpt lat="45.920090396339546" lon="8.774489875531176"><ele>293.0</ele><time>2026-04-25T10:33:30.829Z</time></trkpt><trkpt lat="45.92020936716596" lon="8.774533502643811"><ele>293.25</ele><time>2026-04-25T10:33:31.829Z</time></trkpt><trkpt lat="45.92033354294688" lon="8.774596711311332"><ele>293.5</ele><time>2026-04-25T10:33:32.829Z</time></trkpt><trkpt lat="45.92047323159133" lon="8.774670937552829"><ele>293.75</ele><time>2026-04-25T10:33:33.829Z</time></trkpt><trkpt lat="45.920624809335386" lon="8.77474995905301"><ele>294.0</ele><time>2026-04-25T10:33:34.829Z</time></trkpt><trkpt lat="45.920769229634324" lon="8.774823339346804"><ele>291.75</ele><time>2026-04-25T10:33:35.829Z</time></trkpt><trkpt lat="45.920919308557316" lon="8.774875606726619"><ele>289.5</ele><time>2026-04-25T10:33:36.829Z</time></trkpt><trkpt lat="45.92104870861062" lon="8.774962900548093"><ele>287.25</ele><time>2026-04-25T10:33:37.827Z</time></trkpt><trkpt lat="45.921179416675166" lon="8.775028689510789"><ele>285.0</ele><time>2026-04-25T10:33:38.827Z</time></trkpt><trkpt lat="45.92129889862775" lon="8.7750999384817"><ele>288.0</ele><time>2026-04-25T10:33:39.827Z</time></trkpt><trkpt lat="45.92140618957107" lon="8.775190583935423"><ele>291.0</ele><time>2026-04-25T10:33:40.826Z</time></trkpt><trkpt lat="45.92150871739183" lon="8.775312240278133"><ele>294.0</ele><time>2026-04-25T10:33:41.826Z</time></trkpt><trkpt lat="45.92161859033281" lon="8.775450018287613"><ele>297.0</ele><time>2026-04-25T10:33:42.826Z</time></trkpt><trkpt lat="45.921729775661774" lon="8.775578056004349"><ele>295.75</ele><time>2026-04-25T10:33:43.826Z</time></trkpt><trkpt lat="45.921835892488396" lon="8.775707872692255"><ele>294.5</ele><time>2026-04-25T10:33:44.826Z</time></trkpt><trkpt lat="45.921938337597794" lon="8.775834109891589"><ele>293.25</ele><time>2026-04-25T10:33:45.826Z</time></trkpt><trkpt lat="45.9220258815204" lon="8.77596301004103"><ele>292.0</ele><time>2026-04-25T10:33:46.826Z</time></trkpt><trkpt lat="45.922073272848735" lon="8.7761536060775"><ele>292.0</ele><time>2026-04-25T10:33:47.826Z</time></trkpt><trkpt lat="45.9221367052419" lon="8.776359659444667"><ele>292.0</ele><time>2026-04-25T10:33:48.826Z</time></trkpt><trkpt lat="45.9221986323041" lon="8.77655566681303"><ele>292.0</ele><time>2026-04-25T10:33:49.826Z</time></trkpt><trkpt lat="45.922268654423135" lon="8.77673213599839"><ele>292.0</ele><time>2026-04-25T10:33:50.826Z</time></trkpt><trkpt lat="45.92232233128317" lon="8.776900231436352"><ele>292.0</ele><time>2026-04-25T10:33:51.826Z</time></trkpt><trkpt lat="45.92236405959021" lon="8.777055862267984"><ele>292.0</ele><time>2026-04-25T10:33:52.826Z</time></trkpt><trkpt lat="45.92241135011902" lon="8.777191568493645"><ele>292.0</ele><time>2026-04-25T10:33:53.826Z</time></trkpt><trkpt lat="45.92243457266868" lon="8.777311536135462"><ele>292.0</ele><time>2026-04-25T10:33:54.826Z</time></trkpt><trkpt lat="45.92247647590402" lon="8.777394459400501"><ele>292.0</ele><time>2026-04-25T10:33:55.826Z</time></trkpt><trkpt lat="45.922485070191456" lon="8.7774841497453"><ele>292.0</ele><time>2026-04-25T10:33:56.826Z</time></trkpt><trkpt lat="45.92246192214843" lon="8.77758098425379"><ele>292.0</ele><time>2026-04-25T10:33:57.826Z</time></trkpt><trkpt lat="45.92239623478727" lon="8.77764694924811"><ele>292.0</ele><time>2026-04-25T10:33:58.826Z</time></trkpt><trkpt lat="45.92232479552835" lon="8.777727236546173"><ele>292.0</ele><time>2026-04-25T10:33:59.826Z</time></trkpt><trkpt lat="45.92224851608335" lon="8.777816481065358"><ele>292.0</ele><time>2026-04-25T10:34:00.826Z</time></trkpt><trkpt lat="45.922157591053775" lon="8.777946414688085"><ele>292.0</ele><time>2026-04-25T10:34:01.826Z</time></trkpt><trkpt lat="45.922033320461615" lon="8.778087822392193"><ele>293.66666666666663</ele><time>2026-04-25T10:34:02.826Z</time></trkpt><trkpt lat="45.9218999481885" lon="8.778249822060566"><ele>295.3333333333333</ele><time>2026-04-25T10:34:03.826Z</time></trkpt><trkpt lat="45.921773815965906" lon="8.778408290578463"><ele>297.0</ele><time>2026-04-25T10:34:04.826Z</time></trkpt><trkpt lat="45.92162515132544" lon="8.778554960848519"><ele>299.6666666666667</ele><time>2026-04-25T10:34:05.826Z</time></trkpt><trkpt lat="45.921489566216195" lon="8.77871037771208"><ele>302.33333333333337</ele><time>2026-04-25T10:34:06.826Z</time></trkpt><trkpt lat="45.92136894637569" lon="8.778855598779083"><ele>305.0</ele><time>2026-04-25T10:34:07.826Z</time></trkpt><trkpt lat="45.921279629991176" lon="8.77901292430943"><ele>305.0</ele><time>2026-04-25T10:34:08.826Z</time></trkpt><trkpt lat="45.921237932215696" lon="8.779203093257918"><ele>305.0</ele><time>2026-04-25T10:34:09.826Z</time></trkpt><trkpt lat="45.92125335614135" lon="8.779415534690088"><ele>305.0</ele><time>2026-04-25T10:34:10.826Z</time></trkpt><trkpt lat="45.92128984786605" lon="8.779617063134525"><ele>305.0</ele><time>2026-04-25T10:34:11.826Z</time></trkpt><trkpt lat="45.921326770528886" lon="8.779795943247715"><ele>305.5</ele><time>2026-04-25T10:34:12.826Z</time></trkpt><trkpt lat="45.92136306621591" lon="8.779969041175153"><ele>306.0</ele><time>2026-04-25T10:34:13.826Z</time></trkpt><trkpt lat="45.92137461076199" lon="8.780126442383649"><ele>306.5</ele><time>2026-04-25T10:34:14.826Z</time></trkpt><trkpt lat="45.921357060325874" lon="8.780290039021212"><ele>307.0</ele><time>2026-04-25T10:34:15.826Z</time></trkpt><trkpt lat="45.92130232607688" lon="8.780470440580475"><ele>307.0</ele><time>2026-04-25T10:34:16.826Z</time></trkpt><trkpt lat="45.92122766886206" lon="8.780674296794729"><ele>307.0</ele><time>2026-04-25T10:34:17.826Z</time></trkpt><trkpt lat="45.92116238599375" lon="8.780875620100904"><ele>307.0</ele><time>2026-04-25T10:34:18.826Z</time></trkpt><trkpt lat="45.92107684575299" lon="8.781047557150911"><ele>305.66666666666663</ele><time>2026-04-25T10:34:19.826Z</time></trkpt><trkpt lat="45.920961288174944" lon="8.781208268480189"><ele>304.3333333333333</ele><time>2026-04-25T10:34:20.826Z</time></trkpt><trkpt lat="45.92083748944458" lon="8.78134633364066"><ele>303.0</ele><time>2026-04-25T10:34:21.826Z</time></trkpt><trkpt lat="45.92072529188977" lon="8.781470220540587"><ele>305.5</ele><time>2026-04-25T10:34:22.826Z</time></trkpt><trkpt lat="45.92061807274512" lon="8.7815579623113"><ele>308.0</ele><time>2026-04-25T10:34:23.826Z</time></trkpt><trkpt lat="45.9204980866243" lon="8.7815761610527"><ele>310.5</ele><time>2026-04-25T10:34:24.826Z</time></trkpt><trkpt lat="45.92035590930309" lon="8.781578433847226"><ele>313.0</ele><time>2026-04-25T10:34:25.826Z</time></trkpt><trkpt lat="45.92020645444601" lon="8.781569880186712"><ele>313.0</ele><time>2026-04-25T10:34:26.826Z</time></trkpt><trkpt lat="45.92006986762852" lon="8.781579687902497"><ele>313.0</ele><time>2026-04-25T10:34:27.826Z</time></trkpt><trkpt lat="45.9199492622791" lon="8.781564936417745"><ele>313.0</ele><time>2026-04-25T10:34:28.826Z</time></trkpt><trkpt lat="45.919835954227764" lon="8.781518233950372"><ele>313.0</ele><time>2026-04-25T10:34:29.826Z</time></trkpt><trkpt lat="45.91972195354317" lon="8.781395478477457"><ele>314.5</ele><time>2026-04-25T10:34:30.826Z</time></trkpt><trkpt lat="45.919597175127926" lon="8.781289925144133"><ele>316.0</ele><time>2026-04-25T10:34:31.826Z</time></trkpt><trkpt lat="45.91948491576938" lon="8.781173038443349"><ele>317.5</ele><time>2026-04-25T10:34:32.826Z</time></trkpt><trkpt lat="45.91940898800901" lon="8.78103394733263"><ele>319.0</ele><time>2026-04-25T10:34:33.826Z</time></trkpt><trkpt lat="45.91933417060023" lon="8.780865516370431"><ele>321.66666666666663</ele><time>2026-04-25T10:34:34.826Z</time></trkpt><trkpt lat="45.91923469078302" lon="8.780687522740749"><ele>324.3333333333333</ele><time>2026-04-25T10:34:35.826Z</time></trkpt><trkpt lat="45.91912472525103" lon="8.780536348165516"><ele>327.0</ele><time>2026-04-25T10:34:36.826Z</time></trkpt><trkpt lat="45.91899222546355" lon="8.780430766146965"><ele>328.25</ele><time>2026-04-25T10:34:37.826Z</time></trkpt><trkpt lat="45.91886875446639" lon="8.780321990184014"><ele>329.5</ele><time>2026-04-25T10:34:38.827Z</time></trkpt><trkpt lat="45.91875042412299" lon="8.78027065508742"><ele>330.75</ele><time>2026-04-25T10:34:39.827Z</time></trkpt><trkpt lat="45.91864352975707" lon="8.780189450998295"><ele>332.0</ele><time>2026-04-25T10:34:40.827Z</time></trkpt><trkpt lat="45.91855149152851" lon="8.780095791715823"><ele>333.0</ele><time>2026-04-25T10:34:41.827Z</time></trkpt><trkpt lat="45.91844822151575" lon="8.780106457211664"><ele>334.0</ele><time>2026-04-25T10:34:42.827Z</time></trkpt><trkpt lat="45.918345774148676" lon="8.780166770507092"><ele>335.0</ele><time>2026-04-25T10:34:43.827Z</time></trkpt><trkpt lat="45.918217437019656" lon="8.780272775898348"><ele>336.0</ele><time>2026-04-25T10:34:44.827Z</time></trkpt><trkpt lat="45.918075986226555" lon="8.780376837957917"><ele>336.0</ele><time>2026-04-25T10:34:45.827Z</time></trkpt><trkpt lat="45.9179451775802" lon="8.780492128722651"><ele>336.0</ele><time>2026-04-25T10:34:46.827Z</time></trkpt><trkpt lat="45.91780745434858" lon="8.780606777233293"><ele>336.0</ele><time>2026-04-25T10:34:47.827Z</time></trkpt><trkpt lat="45.917670750739426" lon="8.780714652493876"><ele>337.0</ele><time>2026-04-25T10:34:48.827Z</time></trkpt><trkpt lat="45.9175565676789" lon="8.780808026824529"><ele>338.0</ele><time>2026-04-25T10:34:49.827Z</time></trkpt><trkpt lat="45.917454668769466" lon="8.780906863385846"><ele>339.0</ele><time>2026-04-25T10:34:50.827Z</time></trkpt><trkpt lat="45.91737833240094" lon="8.781010298978163"><ele>340.0</ele><time>2026-04-25T10:34:51.827Z</time></trkpt><trkpt lat="45.9173195649993" lon="8.781145593000788"><ele>340.6</ele><time>2026-04-25T10:34:52.827Z</time></trkpt><trkpt lat="45.91727937504737" lon="8.781309267836692"><ele>341.2</ele><time>2026-04-25T10:34:53.827Z</time></trkpt><trkpt lat="45.917265530320805" lon="8.781466507111539"><ele>341.79999999999995</ele><time>2026-04-25T10:34:54.827Z</time></trkpt><trkpt lat="45.91725699992553" lon="8.781618210313994"><ele>342.4</ele><time>2026-04-25T10:34:55.827Z</time></trkpt><trkpt lat="45.917241560391545" lon="8.781757731724545"><ele>343.0</ele><time>2026-04-25T10:34:56.827Z</time></trkpt><trkpt lat="45.9172123972445" lon="8.781877895150595"><ele>344.0</ele><time>2026-04-25T10:34:57.827Z</time></trkpt><trkpt lat="45.917168780701225" lon="8.781967634027266"><ele>345.0</ele><time>2026-04-25T10:34:58.827Z</time></trkpt><trkpt lat="45.917088852353885" lon="8.781981530961813"><ele>346.0</ele><time>2026-04-25T10:34:59.827Z</time></trkpt><trkpt lat="45.91699355548642" lon="8.781986399675075"><ele>347.0</ele><time>2026-04-25T10:35:00.827Z</time></trkpt><trkpt lat="45.91684916278954" lon="8.781980310557762"><ele>348.0</ele><time>2026-04-25T10:35:01.827Z</time></trkpt><trkpt lat="45.916697288602215" lon="8.781925966735656"><ele>348.25</ele><time>2026-04-25T10:35:02.827Z</time></trkpt><trkpt lat="45.91656579270109" lon="8.781879655297686"><ele>348.5</ele><time>2026-04-25T10:35:03.827Z</time></trkpt><trkpt lat="45.91642742067933" lon="8.78182438938159"><ele>348.75</ele><time>2026-04-25T10:35:04.827Z</time></trkpt><trkpt lat="45.916281474841405" lon="8.78176304688453"><ele>349.0</ele><time>2026-04-25T10:35:05.827Z</time></trkpt><trkpt lat="45.91614930327236" lon="8.781695266927079"><ele>348.5</ele><time>2026-04-25T10:35:06.827Z</time></trkpt><trkpt lat="45.91602229882569" lon="8.781640027402947"><ele>348.0</ele><time>2026-04-25T10:35:07.827Z</time></trkpt><trkpt lat="45.91589939807849" lon="8.781585002097659"><ele>347.5</ele><time>2026-04-25T10:35:08.827Z</time></trkpt><trkpt lat="45.91579091844494" lon="8.781535968367217"><ele>347.0</ele><time>2026-04-25T10:35:09.827Z</time></trkpt><trkpt lat="45.915681782932346" lon="8.781514697910023"><ele>347.8</ele><time>2026-04-25T10:35:10.827Z</time></trkpt><trkpt lat="45.91558636281702" lon="8.781518081328224"><ele>348.6</ele><time>2026-04-25T10:35:11.827Z</time></trkpt><trkpt lat="45.91549276640356" lon="8.781551294613333"><ele>349.40000000000003</ele><time>2026-04-25T10:35:12.827Z</time></trkpt><trkpt lat="45.9154266169801" lon="8.781618583524207"><ele>350.20000000000005</ele><time>2026-04-25T10:35:13.827Z</time></trkpt><trkpt lat="45.91537467586893" lon="8.781721620468796"><ele>351.0</ele><time>2026-04-25T10:35:14.827Z</time></trkpt><trkpt lat="45.915287267699725" lon="8.781833356652191"><ele>351.75</ele><time>2026-04-25T10:35:15.827Z</time></trkpt><trkpt lat="45.91521945917392" lon="8.781998871558317"><ele>352.5</ele><time>2026-04-25T10:35:16.827Z</time></trkpt><trkpt lat="45.91518078882662" lon="8.782177936036767"><ele>353.25</ele><time>2026-04-25T10:35:17.827Z</time></trkpt><trkpt lat="45.91516683588789" lon="8.78234662742075"><ele>354.0</ele><time>2026-04-25T10:35:18.827Z</time></trkpt><trkpt lat="45.915190558601516" lon="8.78254051633818"><ele>357.5</ele><time>2026-04-25T10:35:19.827Z</time></trkpt><trkpt lat="45.915260092957304" lon="8.782731117546822"><ele>361.0</ele><time>2026-04-25T10:35:20.827Z</time></trkpt><trkpt lat="45.915321501671286" lon="8.782899888186709"><ele>364.5</ele><time>2026-04-25T10:35:21.827Z</time></trkpt><trkpt lat="45.91536364434972" lon="8.78305636677908"><ele>368.0</ele><time>2026-04-25T10:35:22.827Z</time></trkpt><trkpt lat="45.915377338844344" lon="8.783177984422736"><ele>368.0</ele><time>2026-04-25T10:35:23.827Z</time></trkpt><trkpt lat="45.91535294653331" lon="8.783280726982106"><ele>368.0</ele><time>2026-04-25T10:35:24.827Z</time></trkpt><trkpt lat="45.915282735612706" lon="8.783370568131394"><ele>368.0</ele><time>2026-04-25T10:35:25.827Z</time></trkpt><trkpt lat="45.91523429182581" lon="8.783494158599943"><ele>368.0</ele><time>2026-04-25T10:35:26.827Z</time></trkpt><trkpt lat="45.91520834082478" lon="8.783594602263888"><ele>368.0</ele><time>2026-04-25T10:35:27.827Z</time></trkpt><trkpt lat="45.91520622427329" lon="8.783708957074818"><ele>368.0</ele><time>2026-04-25T10:35:28.827Z</time></trkpt><trkpt lat="45.91525911203733" lon="8.78378960618042"><ele>370.59999999999997</ele><time>2026-04-25T10:35:29.827Z</time></trkpt><trkpt lat="45.91533424257077" lon="8.783861137339567"><ele>373.2</ele><time>2026-04-25T10:35:30.827Z</time></trkpt><trkpt lat="45.91542644277" lon="8.783921428055244"><ele>375.8</ele><time>2026-04-25T10:35:31.827Z</time></trkpt><trkpt lat="45.91550315140355" lon="8.784021325377399"><ele>378.4</ele><time>2026-04-25T10:35:32.827Z</time></trkpt><trkpt lat="45.91554141258147" lon="8.784140428382223"><ele>381.0</ele><time>2026-04-25T10:35:33.827Z</time></trkpt><trkpt lat="45.91556548197143" lon="8.784301540177566"><ele>383.75</ele><time>2026-04-25T10:35:34.827Z</time></trkpt><trkpt lat="45.915590007507554" lon="8.784501868167006"><ele>386.5</ele><time>2026-04-25T10:35:35.827Z</time></trkpt><trkpt lat="45.915611895063186" lon="8.784706075918159"><ele>389.25</ele><time>2026-04-25T10:35:36.827Z</time></trkpt><trkpt lat="45.91563535425564" lon="8.784889630131373"><ele>392.0</ele><time>2026-04-25T10:35:37.827Z</time></trkpt><trkpt lat="45.915648724247696" lon="8.785037726597956"><ele>391.99999999999994</ele><time>2026-04-25T10:35:38.827Z</time></trkpt><trkpt lat="45.91565268952396" lon="8.785165897104621"><ele>392.0</ele><time>2026-04-25T10:35:39.827Z</time></trkpt><trkpt lat="45.91564189910495" lon="8.785258104199405"><ele>392.0</ele><time>2026-04-25T10:35:40.827Z</time></trkpt><trkpt lat="45.915618019746276" lon="8.785342166666426"><ele>392.0</ele><time>2026-04-25T10:35:41.827Z</time></trkpt><trkpt lat="45.915570779798145" lon="8.78540882329091"><ele>391.99999999999994</ele><time>2026-04-25T10:35:42.827Z</time></trkpt><trkpt lat="45.91548686087872" lon="8.78544188187981"><ele>392.0</ele><time>2026-04-25T10:35:43.824Z</time></trkpt><trkpt lat="45.91537647123081" lon="8.78543637686191"><ele>394.25</ele><time>2026-04-25T10:35:44.824Z</time></trkpt><trkpt lat="45.91526197690458" lon="8.785418540618496"><ele>396.5</ele><time>2026-04-25T10:35:45.824Z</time></trkpt><trkpt lat="45.915132284807676" lon="8.785398019725807"><ele>398.75</ele><time>2026-04-25T10:35:46.824Z</time></trkpt><trkpt lat="45.91499695132512" lon="8.785374342405618"><ele>401.0</ele><time>2026-04-25T10:35:47.824Z</time></trkpt><trkpt lat="45.91483259021845" lon="8.785345492956823"><ele>402.75</ele><time>2026-04-25T10:35:48.824Z</time></trkpt><trkpt lat="45.914676453275945" lon="8.785326603985725"><ele>404.5</ele><time>2026-04-25T10:35:49.824Z</time></trkpt><trkpt lat="45.914536229509025" lon="8.78529991143131"><ele>406.25</ele><time>2026-04-25T10:35:50.825Z</time></trkpt><trkpt lat="45.9143967744016" lon="8.785271423092409"><ele>408.0</ele><time>2026-04-25T10:35:51.825Z</time></trkpt><trkpt lat="45.91425877171369" lon="8.785263928613178"><ele>408.59999999999997</ele><time>2026-04-25T10:35:52.824Z</time></trkpt><trkpt lat="45.914138657554346" lon="8.785264096841766"><ele>409.2</ele><time>2026-04-25T10:35:53.824Z</time></trkpt><trkpt lat="45.91403734350174" lon="8.7852758101339"><ele>409.8</ele><time>2026-04-25T10:35:54.824Z</time></trkpt><trkpt lat="45.913954558388156" lon="8.785361772068569"><ele>410.4</ele><time>2026-04-25T10:35:55.824Z</time></trkpt><trkpt lat="45.913885521295555" lon="8.785482634397509"><ele>411.0</ele><time>2026-04-25T10:35:56.824Z</time></trkpt><trkpt lat="45.91384062503345" lon="8.785683624093975"><ele>411.0</ele><time>2026-04-25T10:35:57.824Z</time></trkpt><trkpt lat="45.91381633191736" lon="8.785896685350288"><ele>411.0</ele><time>2026-04-25T10:35:58.824Z</time></trkpt><trkpt lat="45.913789213291246" lon="8.786118347505516"><ele>411.0</ele><time>2026-04-25T10:35:59.824Z</time></trkpt><trkpt lat="45.91375790085511" lon="8.786357331011729"><ele>411.66666666666663</ele><time>2026-04-25T10:36:00.824Z</time></trkpt><trkpt lat="45.91373032116329" lon="8.786586236096579"><ele>412.3333333333333</ele><time>2026-04-25T10:36:01.824Z</time></trkpt><trkpt lat="45.91370111265294" lon="8.786819220285595"><ele>413.0</ele><time>2026-04-25T10:36:02.824Z</time></trkpt><trkpt lat="45.913670543685136" lon="8.787055018046095"><ele>414.66666666666663</ele><time>2026-04-25T10:36:03.824Z</time></trkpt><trkpt lat="45.913640024438806" lon="8.787290432530074"><ele>416.33333333333337</ele><time>2026-04-25T10:36:04.824Z</time></trkpt><trkpt lat="45.913610738828346" lon="8.78752914659452"><ele>418.0</ele><time>2026-04-25T10:36:05.824Z</time></trkpt><trkpt lat="45.91359235654878" lon="8.78776661204414"><ele>421.0</ele><time>2026-04-25T10:36:06.824Z</time></trkpt><trkpt lat="45.91352467834001" lon="8.787973345679086"><ele>424.0</ele><time>2026-04-25T10:36:07.824Z</time></trkpt><trkpt lat="45.913472450141654" lon="8.788173219706964"><ele>427.0</ele><time>2026-04-25T10:36:08.824Z</time></trkpt><trkpt lat="45.91342097671602" lon="8.788370205080591"><ele>427.25</ele><time>2026-04-25T10:36:09.824Z</time></trkpt><trkpt lat="45.91337282848411" lon="8.788562435732127"><ele>427.5</ele><time>2026-04-25T10:36:10.824Z</time></trkpt><trkpt lat="45.91333077838837" lon="8.788736242896452"><ele>427.75</ele><time>2026-04-25T10:36:11.824Z</time></trkpt><trkpt lat="45.91329245120982" lon="8.788882064457434"><ele>428.0</ele><time>2026-04-25T10:36:12.824Z</time></trkpt><trkpt lat="45.91323710979184" lon="8.788981282638803"><ele>428.0</ele><time>2026-04-25T10:36:13.824Z</time></trkpt><trkpt lat="45.91315054719311" lon="8.789041943890917"><ele>428.0</ele><time>2026-04-25T10:36:14.824Z</time></trkpt><trkpt lat="45.91302577358295" lon="8.789055407184533"><ele>428.0</ele><time>2026-04-25T10:36:15.824Z</time></trkpt><trkpt lat="45.912893774781146" lon="8.789081122991877"><ele>428.0</ele><time>2026-04-25T10:36:16.824Z</time></trkpt><trkpt lat="45.91275684138413" lon="8.789117398390745"><ele>428.0</ele><time>2026-04-25T10:36:17.824Z</time></trkpt><trkpt lat="45.91263181790265" lon="8.789137897564437"><ele>427.99999999999994</ele><time>2026-04-25T10:36:18.824Z</time></trkpt><trkpt lat="45.91251416371515" lon="8.789158996811913"><ele>427.99999999999994</ele><time>2026-04-25T10:36:19.824Z</time></trkpt><trkpt lat="45.9124137407471" lon="8.789178139473805"><ele>428.0</ele><time>2026-04-25T10:36:20.824Z</time></trkpt><trkpt lat="45.91232973747197" lon="8.789217776864477"><ele>428.0</ele><time>2026-04-25T10:36:21.824Z</time></trkpt><trkpt lat="45.91226819420588" lon="8.789294935397175"><ele>432.25</ele><time>2026-04-25T10:36:22.824Z</time></trkpt><trkpt lat="45.9122084981601" lon="8.789423592735616"><ele>436.5</ele><time>2026-04-25T10:36:23.824Z</time></trkpt><trkpt lat="45.91217703804954" lon="8.78958039089876"><ele>440.75</ele><time>2026-04-25T10:36:24.824Z</time></trkpt><trkpt lat="45.91209425286829" lon="8.789680799918113"><ele>445.0</ele><time>2026-04-25T10:36:25.824Z</time></trkpt><trkpt lat="45.91197393423726" lon="8.789788667572328"><ele>445.0</ele><time>2026-04-25T10:36:26.824Z</time></trkpt><trkpt lat="45.91183236191556" lon="8.789915011834092"><ele>445.0</ele><time>2026-04-25T10:36:27.824Z</time></trkpt><trkpt lat="45.91169634854289" lon="8.790056477588271"><ele>445.0</ele><time>2026-04-25T10:36:28.824Z</time></trkpt><trkpt lat="45.911580239996866" lon="8.790171528109763"><ele>447.8</ele><time>2026-04-25T10:36:29.824Z</time></trkpt><trkpt lat="45.911479892945415" lon="8.790266984720056"><ele>450.6</ele><time>2026-04-25T10:36:30.824Z</time></trkpt><trkpt lat="45.911394034384664" lon="8.790344625000595"><ele>453.4</ele><time>2026-04-25T10:36:31.824Z</time></trkpt><trkpt lat="45.91131486953058" lon="8.79037494608143"><ele>456.2</ele><time>2026-04-25T10:36:32.824Z</time></trkpt><trkpt lat="45.91123494138435" lon="8.790347575801682"><ele>459.0</ele><time>2026-04-25T10:36:33.824Z</time></trkpt><trkpt lat="45.911165289684" lon="8.790263579616765"><ele>459.0</ele><time>2026-04-25T10:36:34.824Z</time></trkpt><trkpt lat="45.911098654466755" lon="8.79017729487636"><ele>459.0</ele><time>2026-04-25T10:36:35.824Z</time></trkpt><trkpt lat="45.91104262515763" lon="8.790125398960495"><ele>459.0</ele><time>2026-04-25T10:36:36.824Z</time></trkpt><trkpt lat="45.91096056251257" lon="8.790114071767263"><ele>459.0</ele><time>2026-04-25T10:36:37.824Z</time></trkpt><trkpt lat="45.91087012451754" lon="8.790156477576671"><ele>459.0</ele><time>2026-04-25T10:36:38.824Z</time></trkpt><trkpt lat="45.91078089843474" lon="8.790273458772514"><ele>459.25</ele><time>2026-04-25T10:36:39.824Z</time></trkpt><trkpt lat="45.91067192647795" lon="8.790417634373373"><ele>459.5</ele><time>2026-04-25T10:36:40.824Z</time></trkpt><trkpt lat="45.9105791525396" lon="8.790543880711363"><ele>459.75</ele><time>2026-04-25T10:36:41.824Z</time></trkpt><trkpt lat="45.910496033389656" lon="8.790638879366057"><ele>460.0</ele><time>2026-04-25T10:36:42.824Z</time></trkpt><trkpt lat="45.91040912004976" lon="8.790682701421845"><ele>460.0</ele><time>2026-04-25T10:36:43.824Z</time></trkpt><trkpt lat="45.91033052280164" lon="8.790632879263937"><ele>460.0</ele><time>2026-04-25T10:36:44.824Z</time></trkpt><trkpt lat="45.9102356101233" lon="8.790556148468237"><ele>460.0</ele><time>2026-04-25T10:36:45.824Z</time></trkpt><trkpt lat="45.91014019883426" lon="8.790418633152871"><ele>460.0</ele><time>2026-04-25T10:36:46.824Z</time></trkpt><trkpt lat="45.91004991056827" lon="8.790302301989705"><ele>461.75</ele><time>2026-04-25T10:36:47.824Z</time></trkpt><trkpt lat="45.9099338627175" lon="8.790194368326622"><ele>463.5</ele><time>2026-04-25T10:36:48.824Z</time></trkpt><trkpt lat="45.90981369075522" lon="8.790099116428353"><ele>465.25</ele><time>2026-04-25T10:36:49.824Z</time></trkpt><trkpt lat="45.90969047609237" lon="8.790030287164194"><ele>467.0</ele><time>2026-04-25T10:36:50.824Z</time></trkpt><trkpt lat="45.90955746246981" lon="8.789969583260277"><ele>464.0</ele><time>2026-04-25T10:36:51.824Z</time></trkpt><trkpt lat="45.90941045065824" lon="8.789938594892979"><ele>461.0</ele><time>2026-04-25T10:36:52.824Z</time></trkpt><trkpt lat="45.90924411322168" lon="8.789936754359799"><ele>458.0</ele><time>2026-04-25T10:36:53.824Z</time></trkpt><trkpt lat="45.90906464737348" lon="8.78995529322687"><ele>458.0</ele><time>2026-04-25T10:36:54.824Z</time></trkpt><trkpt lat="45.90887794204379" lon="8.789964216954083"><ele>458.0</ele><time>2026-04-25T10:36:55.824Z</time></trkpt><trkpt lat="45.90869665120354" lon="8.78999365150037"><ele>458.0</ele><time>2026-04-25T10:36:56.824Z</time></trkpt><trkpt lat="45.90853621299098" lon="8.790009689928391"><ele>458.5</ele><time>2026-04-25T10:36:57.824Z</time></trkpt><trkpt lat="45.90839363979079" lon="8.790016741662095"><ele>459.0</ele><time>2026-04-25T10:36:58.824Z</time></trkpt><trkpt lat="45.908275004397865" lon="8.790043577614387"><ele>459.5</ele><time>2026-04-25T10:36:59.824Z</time></trkpt><trkpt lat="45.9081832063298" lon="8.790091401267093"><ele>460.0</ele><time>2026-04-25T10:37:00.824Z</time></trkpt><trkpt lat="45.90811362432444" lon="8.790191177612494"><ele>461.4</ele><time>2026-04-25T10:37:01.824Z</time></trkpt><trkpt lat="45.90805755600816" lon="8.790296873306138"><ele>462.8</ele><time>2026-04-25T10:37:02.824Z</time></trkpt><trkpt lat="45.90800265613403" lon="8.790405374896084"><ele>464.20000000000005</ele><time>2026-04-25T10:37:03.824Z</time></trkpt><trkpt lat="45.90793638452802" lon="8.790525337822231"><ele>465.6</ele><time>2026-04-25T10:37:04.824Z</time></trkpt><trkpt lat="45.907875194862946" lon="8.790637114784623"><ele>467.0</ele><time>2026-04-25T10:37:05.824Z</time></trkpt><trkpt lat="45.90783087291298" lon="8.790760178521039"><ele>467.0</ele><time>2026-04-25T10:37:06.824Z</time></trkpt><trkpt lat="45.9078273569651" lon="8.790880289250342"><ele>467.00000000000006</ele><time>2026-04-25T10:37:07.824Z</time></trkpt><trkpt lat="45.90790250548566" lon="8.79098654844104"><ele>467.00000000000006</ele><time>2026-04-25T10:37:08.824Z</time></trkpt><trkpt lat="45.908009034900935" lon="8.791056327057237"><ele>467.0</ele><time>2026-04-25T10:37:09.824Z</time></trkpt><trkpt lat="45.908112267801656" lon="8.791110132188855"><ele>467.0</ele><time>2026-04-25T10:37:10.824Z</time></trkpt><trkpt lat="45.90819419185076" lon="8.791150224560429"><ele>468.16666666666663</ele><time>2026-04-25T10:37:11.824Z</time></trkpt><trkpt lat="45.90826350130619" lon="8.79118311998396"><ele>469.3333333333333</ele><time>2026-04-25T10:37:12.824Z</time></trkpt><trkpt lat="45.90832986962037" lon="8.791224304621974"><ele>470.5</ele><time>2026-04-25T10:37:13.824Z</time></trkpt><trkpt lat="45.90839555139035" lon="8.791255901580188"><ele>471.66666666666663</ele><time>2026-04-25T10:37:14.824Z</time></trkpt><trkpt lat="45.90842678045598" lon="8.791408047849329"><ele>472.8333333333333</ele><time>2026-04-25T10:37:16.824Z</time></trkpt><trkpt lat="45.908396826349616" lon="8.791512523238513"><ele>474.0</ele><time>2026-04-25T10:37:19.824Z</time></trkpt><trkpt lat="45.90838301613922" lon="8.791620741379877"><ele>475.0</ele><time>2026-04-25T10:37:25.824Z</time></trkpt><trkpt lat="45.90847492594694" lon="8.79173772868674"><ele>476.0</ele><time>2026-04-25T10:37:26.824Z</time></trkpt><trkpt lat="45.90859289062809" lon="8.791804593278835"><ele>477.0</ele><time>2026-04-25T10:37:27.824Z</time></trkpt><trkpt lat="45.90871820689603" lon="8.791854372697847"><ele>478.0</ele><time>2026-04-25T10:37:28.824Z</time></trkpt><trkpt lat="45.908860848199765" lon="8.79188943006471"><ele>482.0</ele><time>2026-04-25T10:37:29.824Z</time></trkpt><trkpt lat="45.90902280892918" lon="8.791897752566014"><ele>486.0</ele><time>2026-04-25T10:37:30.824Z</time></trkpt><trkpt lat="45.909196924325464" lon="8.79190746310814"><ele>490.0</ele><time>2026-04-25T10:37:31.824Z</time></trkpt><trkpt lat="45.90937484269381" lon="8.79191706993283"><ele>490.33333333333337</ele><time>2026-04-25T10:37:32.824Z</time></trkpt><trkpt lat="45.90954203623136" lon="8.791907360957333"><ele>490.66666666666663</ele><time>2026-04-25T10:37:33.824Z</time></trkpt><trkpt lat="45.90970284949499" lon="8.791928770752607"><ele>491.0</ele><time>2026-04-25T10:37:34.824Z</time></trkpt><trkpt lat="45.90985907337537" lon="8.791941178043812"><ele>491.0</ele><time>2026-04-25T10:37:35.824Z</time></trkpt><trkpt lat="45.91001241739597" lon="8.791950175821041"><ele>491.0</ele><time>2026-04-25T10:37:36.824Z</time></trkpt><trkpt lat="45.910165899316596" lon="8.791963717464737"><ele>491.0</ele><time>2026-04-25T10:37:37.824Z</time></trkpt><trkpt lat="45.910320966052694" lon="8.791986003935408"><ele>490.3333333333333</ele><time>2026-04-25T10:37:38.824Z</time></trkpt><trkpt lat="45.910477942436664" lon="8.792030350178935"><ele>489.66666666666663</ele><time>2026-04-25T10:37:39.824Z</time></trkpt><trkpt lat="45.91063156650244" lon="8.792096914140112"><ele>489.0</ele><time>2026-04-25T10:37:40.824Z</time></trkpt><trkpt lat="45.910753937852945" lon="8.792200028757685"><ele>489.0</ele><time>2026-04-25T10:37:41.824Z</time></trkpt><trkpt lat="45.91087928163847" lon="8.792302421755014"><ele>489.0</ele><time>2026-04-25T10:37:42.824Z</time></trkpt><trkpt lat="45.91100064419102" lon="8.792432593158752"><ele>489.0</ele><time>2026-04-25T10:37:43.824Z</time></trkpt><trkpt lat="45.91111803309161" lon="8.792594765755057"><ele>490.75</ele><time>2026-04-25T10:37:44.824Z</time></trkpt><trkpt lat="45.91123169229435" lon="8.79277197794875"><ele>492.5</ele><time>2026-04-25T10:37:45.824Z</time></trkpt><trkpt lat="45.9113203954389" lon="8.792948505643146"><ele>494.25</ele><time>2026-04-25T10:37:46.824Z</time></trkpt><trkpt lat="45.91138604772554" lon="8.793104781095932"><ele>496.0</ele><time>2026-04-25T10:37:47.824Z</time></trkpt><trkpt lat="45.911439785545376" lon="8.793245003776022"><ele>496.0</ele><time>2026-04-25T10:37:48.824Z</time></trkpt><trkpt lat="45.911468831508465" lon="8.793387998619847"><ele>496.0</ele><time>2026-04-25T10:37:49.822Z</time></trkpt><trkpt lat="45.91148688622133" lon="8.79355661458641"><ele>496.0</ele><time>2026-04-25T10:37:50.822Z</time></trkpt><trkpt lat="45.91149878615102" lon="8.793758309909169"><ele>496.0</ele><time>2026-04-25T10:37:51.822Z</time></trkpt><trkpt lat="45.9115010767735" lon="8.79396040928943"><ele>495.75</ele><time>2026-04-25T10:37:52.823Z</time></trkpt><trkpt lat="45.91149377823406" lon="8.794133758395189"><ele>495.5</ele><time>2026-04-25T10:37:53.822Z</time></trkpt><trkpt lat="45.911468089696235" lon="8.794293655962019"><ele>495.25</ele><time>2026-04-25T10:37:54.822Z</time></trkpt><trkpt lat="45.9114170680402" lon="8.794473090939649"><ele>495.0</ele><time>2026-04-25T10:37:55.822Z</time></trkpt><trkpt lat="45.911352678770825" lon="8.794669025542197"><ele>495.0</ele><time>2026-04-25T10:37:56.823Z</time></trkpt><trkpt lat="45.91128771222618" lon="8.794860921909926"><ele>495.0</ele><time>2026-04-25T10:37:57.823Z</time></trkpt><trkpt lat="45.91122149026724" lon="8.795041721882981"><ele>495.0</ele><time>2026-04-25T10:37:58.823Z</time></trkpt><trkpt lat="45.9111412014064" lon="8.795213289311645"><ele>495.0</ele><time>2026-04-25T10:37:59.823Z</time></trkpt><trkpt lat="45.91103759930286" lon="8.795349995695409"><ele>495.0</ele><time>2026-04-25T10:38:00.823Z</time></trkpt><trkpt lat="45.910924951108065" lon="8.795487533338141"><ele>495.0</ele><time>2026-04-25T10:38:01.823Z</time></trkpt><trkpt lat="45.91079033774397" lon="8.795641452814902"><ele>495.0</ele><time>2026-04-25T10:38:02.822Z</time></trkpt><trkpt lat="45.910645863104826" lon="8.795803564684046"><ele>493.33333333333337</ele><time>2026-04-25T10:38:03.822Z</time></trkpt><trkpt lat="45.91049138675392" lon="8.795973174346221"><ele>491.6666666666667</ele><time>2026-04-25T10:38:04.822Z</time></trkpt><trkpt lat="45.91035092878432" lon="8.796133764526951"><ele>490.0</ele><time>2026-04-25T10:38:05.822Z</time></trkpt><trkpt lat="45.91022029547402" lon="8.796281353723238"><ele>489.75</ele><time>2026-04-25T10:38:06.822Z</time></trkpt><trkpt lat="45.9100998468672" lon="8.796416778400571"><ele>489.5</ele><time>2026-04-25T10:38:07.822Z</time></trkpt><trkpt lat="45.90999216848503" lon="8.796537220688155"><ele>489.25</ele><time>2026-04-25T10:38:08.822Z</time></trkpt><trkpt lat="45.90988720463036" lon="8.796654381798634"><ele>489.0</ele><time>2026-04-25T10:38:09.822Z</time></trkpt><trkpt lat="45.90977550699851" lon="8.796779059031028"><ele>488.33333333333337</ele><time>2026-04-25T10:38:10.822Z</time></trkpt><trkpt lat="45.90965227274848" lon="8.796917328325268"><ele>487.6666666666667</ele><time>2026-04-25T10:38:11.822Z</time></trkpt><trkpt lat="45.90952228495599" lon="8.797063673500206"><ele>487.0</ele><time>2026-04-25T10:38:12.822Z</time></trkpt><trkpt lat="45.90938290776966" lon="8.797220589638556"><ele>487.0</ele><time>2026-04-25T10:38:13.822Z</time></trkpt><trkpt lat="45.909242381109955" lon="8.797378799760848"><ele>487.0</ele><time>2026-04-25T10:38:14.822Z</time></trkpt><trkpt lat="45.90910931868571" lon="8.797528606642476"><ele>487.0</ele><time>2026-04-25T10:38:15.822Z</time></trkpt><trkpt lat="45.908972157910405" lon="8.79768302754294"><ele>487.33333333333337</ele><time>2026-04-25T10:38:16.822Z</time></trkpt><trkpt lat="45.908833205901075" lon="8.797848807808315"><ele>487.66666666666663</ele><time>2026-04-25T10:38:17.822Z</time></trkpt><trkpt lat="45.90871164690583" lon="8.798036915929893"><ele>488.0</ele><time>2026-04-25T10:38:18.822Z</time></trkpt><trkpt lat="45.908626492169574" lon="8.798277720879502"><ele>488.66666666666663</ele><time>2026-04-25T10:38:19.822Z</time></trkpt><trkpt lat="45.908525609818575" lon="8.798508480775652"><ele>489.33333333333337</ele><time>2026-04-25T10:38:20.822Z</time></trkpt><trkpt lat="45.90843665474409" lon="8.798769745995278"><ele>490.0</ele><time>2026-04-25T10:38:21.822Z</time></trkpt><trkpt lat="45.90834809393677" lon="8.79903643314037"><ele>490.0</ele><time>2026-04-25T10:38:22.822Z</time></trkpt><trkpt lat="45.90825700505086" lon="8.799315407016353"><ele>490.0</ele><time>2026-04-25T10:38:23.822Z</time></trkpt><trkpt lat="45.908166752817515" lon="8.799591071055705"><ele>490.0</ele><time>2026-04-25T10:38:24.822Z</time></trkpt><trkpt lat="45.90807188989383" lon="8.799872467463379"><ele>488.6666666666667</ele><time>2026-04-25T10:38:25.822Z</time></trkpt><trkpt lat="45.90797944255076" lon="8.800161931811896"><ele>487.33333333333337</ele><time>2026-04-25T10:38:26.822Z</time></trkpt><trkpt lat="45.90788720613394" lon="8.800451191553174"><ele>486.0</ele><time>2026-04-25T10:38:27.822Z</time></trkpt><trkpt lat="45.907791880136244" lon="8.800740061980527"><ele>486.33333333333337</ele><time>2026-04-25T10:38:28.822Z</time></trkpt><trkpt lat="45.90769915858955" lon="8.801023893767665"><ele>486.6666666666667</ele><time>2026-04-25T10:38:29.822Z</time></trkpt><trkpt lat="45.90760881592886" lon="8.801302422349163"><ele>487.0</ele><time>2026-04-25T10:38:30.822Z</time></trkpt><trkpt lat="45.90752017756922" lon="8.801570809746375"><ele>485.0</ele><time>2026-04-25T10:38:31.822Z</time></trkpt><trkpt lat="45.90744116752954" lon="8.801850813273155"><ele>483.0</ele><time>2026-04-25T10:38:32.822Z</time></trkpt><trkpt lat="45.90734504750257" lon="8.802133632549781"><ele>481.0</ele><time>2026-04-25T10:38:33.822Z</time></trkpt><trkpt lat="45.90724483953311" lon="8.80244783989757"><ele>482.5</ele><time>2026-04-25T10:38:34.822Z</time></trkpt><trkpt lat="45.907141390725116" lon="8.80276445924185"><ele>484.0</ele><time>2026-04-25T10:38:35.822Z</time></trkpt><trkpt lat="45.90704293580255" lon="8.80306830478341"><ele>484.0</ele><time>2026-04-25T10:38:36.822Z</time></trkpt><trkpt lat="45.90694317187575" lon="8.803370106852919"><ele>484.0</ele><time>2026-04-25T10:38:37.822Z</time></trkpt><trkpt lat="45.90684241382832" lon="8.803662119441153"><ele>485.6666666666667</ele><time>2026-04-25T10:38:38.822Z</time></trkpt><trkpt lat="45.906749309310996" lon="8.803943355836404"><ele>487.33333333333337</ele><time>2026-04-25T10:38:39.822Z</time></trkpt><trkpt lat="45.9066598227464" lon="8.804216166052683"><ele>489.0</ele><time>2026-04-25T10:38:40.822Z</time></trkpt><trkpt lat="45.9065660752039" lon="8.804450969513972"><ele>483.0</ele><time>2026-04-25T10:38:41.822Z</time></trkpt><trkpt lat="45.906487388680205" lon="8.804688866592803"><ele>477.0</ele><time>2026-04-25T10:38:42.822Z</time></trkpt><trkpt lat="45.90643271542092" lon="8.804917826539956"><ele>471.0</ele><time>2026-04-25T10:38:43.822Z</time></trkpt><trkpt lat="45.90636279526861" lon="8.805106249613187"><ele>471.0</ele><time>2026-04-25T10:38:44.822Z</time></trkpt><trkpt lat="45.9063560042868" lon="8.805322905670277"><ele>471.0</ele><time>2026-04-25T10:38:45.822Z</time></trkpt><trkpt lat="45.906351112548734" lon="8.805568433255194"><ele>471.0</ele><time>2026-04-25T10:38:46.822Z</time></trkpt><trkpt lat="45.906383039201536" lon="8.805849647317656"><ele>471.0</ele><time>2026-04-25T10:38:47.822Z</time></trkpt><trkpt lat="45.90642422542886" lon="8.806149086985346"><ele>471.0</ele><time>2026-04-25T10:38:48.822Z</time></trkpt><trkpt lat="45.906459999591405" lon="8.806426245307488"><ele>471.0</ele><time>2026-04-25T10:38:49.822Z</time></trkpt><trkpt lat="45.90648192697341" lon="8.806684959486715"><ele>473.0</ele><time>2026-04-25T10:38:50.822Z</time></trkpt><trkpt lat="45.906478041846775" lon="8.806945777125133"><ele>475.0</ele><time>2026-04-25T10:38:51.822Z</time></trkpt><trkpt lat="45.90643618189881" lon="8.807208761885391"><ele>477.0</ele><time>2026-04-25T10:38:52.822Z</time></trkpt><trkpt lat="45.906361055049565" lon="8.807475465248508"><ele>478.33333333333337</ele><time>2026-04-25T10:38:53.822Z</time></trkpt><trkpt lat="45.90625109403865" lon="8.807729762371684"><ele>479.6666666666667</ele><time>2026-04-25T10:38:54.822Z</time></trkpt><trkpt lat="45.90613005940366" lon="8.807993478318835"><ele>481.0</ele><time>2026-04-25T10:38:55.822Z</time></trkpt><trkpt lat="45.906005105169484" lon="8.80827414791348"><ele>474.5</ele><time>2026-04-25T10:38:56.822Z</time></trkpt><trkpt lat="45.90586770200193" lon="8.808567348414563"><ele>468.0</ele><time>2026-04-25T10:38:57.822Z</time></trkpt><trkpt lat="45.905734719260785" lon="8.808858267762785"><ele>468.0</ele><time>2026-04-25T10:38:58.822Z</time></trkpt><trkpt lat="45.90561177193796" lon="8.809130246903067"><ele>468.0</ele><time>2026-04-25T10:38:59.822Z</time></trkpt><trkpt lat="45.90549329890591" lon="8.809383338935804"><ele>468.0</ele><time>2026-04-25T10:39:00.822Z</time></trkpt><trkpt lat="45.905373748588005" lon="8.809631601679964"><ele>467.0</ele><time>2026-04-25T10:39:01.822Z</time></trkpt><trkpt lat="45.905254902871725" lon="8.80988715901489"><ele>466.0</ele><time>2026-04-25T10:39:02.822Z</time></trkpt><trkpt lat="45.90513911630376" lon="8.810136148016536"><ele>465.0</ele><time>2026-04-25T10:39:03.822Z</time></trkpt><trkpt lat="45.905035231033644" lon="8.810400894693178"><ele>465.0</ele><time>2026-04-25T10:39:04.822Z</time></trkpt><trkpt lat="45.904914754648665" lon="8.81064388790642"><ele>465.0</ele><time>2026-04-25T10:39:05.822Z</time></trkpt><trkpt lat="45.904796437185325" lon="8.810893529621605"><ele>465.0</ele><time>2026-04-25T10:39:06.822Z</time></trkpt><trkpt lat="45.90468499151412" lon="8.811143078415487"><ele>467.66666666666663</ele><time>2026-04-25T10:39:07.823Z</time></trkpt><trkpt lat="45.9045659881632" lon="8.81138986835772"><ele>470.3333333333333</ele><time>2026-04-25T10:39:08.823Z</time></trkpt><trkpt lat="45.90444240832482" lon="8.811637045022202"><ele>473.0</ele><time>2026-04-25T10:39:09.823Z</time></trkpt><trkpt lat="45.904316827990044" lon="8.811883872736"><ele>470.3333333333333</ele><time>2026-04-25T10:39:10.823Z</time></trkpt><trkpt lat="45.904187938911996" lon="8.812136708112966"><ele>467.66666666666663</ele><time>2026-04-25T10:39:11.823Z</time></trkpt><trkpt lat="45.90406271807333" lon="8.812380196545645"><ele>465.0</ele><time>2026-04-25T10:39:12.823Z</time></trkpt><trkpt lat="45.90393716335573" lon="8.812625114065478"><ele>468.66666666666663</ele><time>2026-04-25T10:39:13.823Z</time></trkpt><trkpt lat="45.90380843098835" lon="8.812864550308309"><ele>472.3333333333333</ele><time>2026-04-25T10:39:14.823Z</time></trkpt><trkpt lat="45.903681193459455" lon="8.813092359398757"><ele>476.0</ele><time>2026-04-25T10:39:15.823Z</time></trkpt><trkpt lat="45.903560400748894" lon="8.813321742291283"><ele>472.0</ele><time>2026-04-25T10:39:16.823Z</time></trkpt><trkpt lat="45.903445564616604" lon="8.813531381347813"><ele>468.0</ele><time>2026-04-25T10:39:17.823Z</time></trkpt><trkpt lat="45.90333899717435" lon="8.813724118008546"><ele>464.0</ele><time>2026-04-25T10:39:18.823Z</time></trkpt><trkpt lat="45.9032446569016" lon="8.813906399617764"><ele>464.0</ele><time>2026-04-25T10:39:19.823Z</time></trkpt><trkpt lat="45.903172712286946" lon="8.814101129299218"><ele>464.0</ele><time>2026-04-25T10:39:20.823Z</time></trkpt><trkpt lat="45.90312003316049" lon="8.814319334914718"><ele>464.0</ele><time>2026-04-25T10:39:21.823Z</time></trkpt><trkpt lat="45.90307782368334" lon="8.814575858458259"><ele>467.66666666666663</ele><time>2026-04-25T10:39:22.823Z</time></trkpt><trkpt lat="45.903027732127704" lon="8.81482227050633"><ele>471.33333333333337</ele><time>2026-04-25T10:39:23.823Z</time></trkpt><trkpt lat="45.90296691648962" lon="8.815084835698386"><ele>475.0</ele><time>2026-04-25T10:39:24.823Z</time></trkpt><trkpt lat="45.902910034680126" lon="8.815348577213385"><ele>478.0</ele><time>2026-04-25T10:39:25.823Z</time></trkpt><trkpt lat="45.902863140014254" lon="8.815610610126281"><ele>481.0</ele><time>2026-04-25T10:39:26.823Z</time></trkpt><trkpt lat="45.90283018765968" lon="8.815872216232467"><ele>484.0</ele><time>2026-04-25T10:39:27.823Z</time></trkpt><trkpt lat="45.902800194388576" lon="8.816129108568488"><ele>487.33333333333337</ele><time>2026-04-25T10:39:28.823Z</time></trkpt><trkpt lat="45.902762177022126" lon="8.81639594964682"><ele>490.66666666666663</ele><time>2026-04-25T10:39:29.823Z</time></trkpt><trkpt lat="45.90271879346077" lon="8.816649406022044"><ele>494.0</ele><time>2026-04-25T10:39:30.823Z</time></trkpt><trkpt lat="45.90266598505282" lon="8.81689533225113"><ele>499.3333333333333</ele><time>2026-04-25T10:39:31.823Z</time></trkpt><trkpt lat="45.90259816529205" lon="8.81712730882309"><ele>504.66666666666663</ele><time>2026-04-25T10:39:32.823Z</time></trkpt><trkpt lat="45.90249979118408" lon="8.817357265035378"><ele>510.0</ele><time>2026-04-25T10:39:33.823Z</time></trkpt><trkpt lat="45.902389414911084" lon="8.817568336794514"><ele>499.66666666666663</ele><time>2026-04-25T10:39:34.823Z</time></trkpt><trkpt lat="45.90227233672112" lon="8.81777432398712"><ele>489.3333333333333</ele><time>2026-04-25T10:39:35.823Z</time></trkpt><trkpt lat="45.902171811984545" lon="8.817981719275606"><ele>479.0</ele><time>2026-04-25T10:39:36.823Z</time></trkpt><trkpt lat="45.902101460320864" lon="8.818196621158698"><ele>479.0</ele><time>2026-04-25T10:39:37.823Z</time></trkpt><trkpt lat="45.902059509618105" lon="8.818427032395523"><ele>479.0</ele><time>2026-04-25T10:39:38.823Z</time></trkpt><trkpt lat="45.90203885716035" lon="8.81865909620698"><ele>479.0</ele><time>2026-04-25T10:39:39.823Z</time></trkpt><trkpt lat="45.902040980315746" lon="8.818912922305563"><ele>479.3333333333333</ele><time>2026-04-25T10:39:40.823Z</time></trkpt><trkpt lat="45.90208151693572" lon="8.819175838689905"><ele>479.66666666666663</ele><time>2026-04-25T10:39:41.823Z</time></trkpt><trkpt lat="45.90212324070738" lon="8.819432256890241"><ele>480.0</ele><time>2026-04-25T10:39:42.823Z</time></trkpt><trkpt lat="45.90216870883883" lon="8.819692352793956"><ele>480.33333333333337</ele><time>2026-04-25T10:39:43.823Z</time></trkpt><trkpt lat="45.9022036393531" lon="8.819954923122861"><ele>480.6666666666667</ele><time>2026-04-25T10:39:44.823Z</time></trkpt><trkpt lat="45.902229368704425" lon="8.82021349094121"><ele>481.0</ele><time>2026-04-25T10:39:45.823Z</time></trkpt><trkpt lat="45.90223996923956" lon="8.82045006880376"><ele>480.0</ele><time>2026-04-25T10:39:46.823Z</time></trkpt><trkpt lat="45.90223079697175" lon="8.820668853515773"><ele>479.0</ele><time>2026-04-25T10:39:47.823Z</time></trkpt><trkpt lat="45.90223146729283" lon="8.82086845951709"><ele>478.0</ele><time>2026-04-25T10:39:48.823Z</time></trkpt><trkpt lat="45.902269141088624" lon="8.821061598566798"><ele>477.0</ele><time>2026-04-25T10:39:49.823Z</time></trkpt><trkpt lat="45.90232089230174" lon="8.821247183282985"><ele>475.75</ele><time>2026-04-25T10:39:50.823Z</time></trkpt><trkpt lat="45.902368141466816" lon="8.821440623967234"><ele>474.5</ele><time>2026-04-25T10:39:51.823Z</time></trkpt><trkpt lat="45.902421417374676" lon="8.821620335913186"><ele>473.25</ele><time>2026-04-25T10:39:52.823Z</time></trkpt><trkpt lat="45.90247236898728" lon="8.821791461561316"><ele>472.0</ele><time>2026-04-25T10:39:53.823Z</time></trkpt><trkpt lat="45.90250912975914" lon="8.821947641533479"><ele>471.33333333333337</ele><time>2026-04-25T10:39:54.823Z</time></trkpt><trkpt lat="45.90253618065316" lon="8.822066350010871"><ele>470.6666666666667</ele><time>2026-04-25T10:39:55.82Z</time></trkpt><trkpt lat="45.90255792896285" lon="8.822156985292018"><ele>470.0</ele><time>2026-04-25T10:39:56.82Z</time></trkpt><trkpt lat="45.90256845404647" lon="8.822319949127397"><ele>469.33333333333337</ele><time>2026-04-25T10:39:58.821Z</time></trkpt><trkpt lat="45.90254792991169" lon="8.82247632079923"><ele>468.6666666666667</ele><time>2026-04-25T10:40:00.82Z</time></trkpt><trkpt lat="45.90252952412551" lon="8.822565392010414"><ele>468.0</ele><time>2026-04-25T10:40:01.82Z</time></trkpt><trkpt lat="45.902501309862124" lon="8.822673330772124"><ele>466.59999999999997</ele><time>2026-04-25T10:40:02.82Z</time></trkpt><trkpt lat="45.902452690427786" lon="8.822786403740343"><ele>465.19999999999993</ele><time>2026-04-25T10:40:03.82Z</time></trkpt><trkpt lat="45.902398856330024" lon="8.822901119727717"><ele>463.8</ele><time>2026-04-25T10:40:04.82Z</time></trkpt><trkpt lat="45.902340493472614" lon="8.82300619871025"><ele>462.4</ele><time>2026-04-25T10:40:05.821Z</time></trkpt><trkpt lat="45.90227108549268" lon="8.823109807168917"><ele>461.0</ele><time>2026-04-25T10:40:06.821Z</time></trkpt><trkpt lat="45.902196187592224" lon="8.82321243662453"><ele>461.0</ele><time>2026-04-25T10:40:07.82Z</time></trkpt><trkpt lat="45.90210971409016" lon="8.823314362092251"><ele>461.0</ele><time>2026-04-25T10:40:08.82Z</time></trkpt><trkpt lat="45.902004603222146" lon="8.823415464364327"><ele>461.0</ele><time>2026-04-25T10:40:09.82Z</time></trkpt><trkpt lat="45.90188646906975" lon="8.823511338432738"><ele>461.0</ele><time>2026-04-25T10:40:10.82Z</time></trkpt><trkpt lat="45.90175756260187" lon="8.823581925952782"><ele>461.0</ele><time>2026-04-25T10:40:11.82Z</time></trkpt><trkpt lat="45.90163091823973" lon="8.823688474154883"><ele>461.0</ele><time>2026-04-25T10:40:12.82Z</time></trkpt><trkpt lat="45.90150655213624" lon="8.823789673213094"><ele>461.0</ele><time>2026-04-25T10:40:13.82Z</time></trkpt><trkpt lat="45.9013971936375" lon="8.823880258105929"><ele>461.0</ele><time>2026-04-25T10:40:14.82Z</time></trkpt><trkpt lat="45.90130210479808" lon="8.823987061580986"><ele>461.0</ele><time>2026-04-25T10:40:15.82Z</time></trkpt><trkpt lat="45.90120600494775" lon="8.824058501644704"><ele>461.0</ele><time>2026-04-25T10:40:16.82Z</time></trkpt><trkpt lat="45.901128520442455" lon="8.824141027220659"><ele>461.0</ele><time>2026-04-25T10:40:17.82Z</time></trkpt><trkpt lat="45.90105813499082" lon="8.824233175040762"><ele>461.0</ele><time>2026-04-25T10:40:18.82Z</time></trkpt><trkpt lat="45.90100502476241" lon="8.824339037254635"><ele>461.0</ele><time>2026-04-25T10:40:19.82Z</time></trkpt><trkpt lat="45.90096101505931" lon="8.824441071458631"><ele>460.66666666666663</ele><time>2026-04-25T10:40:20.82Z</time></trkpt><trkpt lat="45.90091345453091" lon="8.824544725168144"><ele>460.3333333333333</ele><time>2026-04-25T10:40:21.82Z</time></trkpt><trkpt lat="45.90087129655066" lon="8.824646714503347"><ele>460.0</ele><time>2026-04-25T10:40:22.82Z</time></trkpt><trkpt lat="45.900837482067786" lon="8.824760686440115"><ele>459.66666666666663</ele><time>2026-04-25T10:40:23.82Z</time></trkpt><trkpt lat="45.900814754433945" lon="8.82488829217742"><ele>459.3333333333333</ele><time>2026-04-25T10:40:24.82Z</time></trkpt><trkpt lat="45.90078444986788" lon="8.825011768907528"><ele>459.0</ele><time>2026-04-25T10:40:25.82Z</time></trkpt><trkpt lat="45.90079790047187" lon="8.82514033205154"><ele>459.1666666666667</ele><time>2026-04-25T10:40:26.82Z</time></trkpt><trkpt lat="45.90080715667018" lon="8.825253577607556"><ele>459.33333333333337</ele><time>2026-04-25T10:40:27.82Z</time></trkpt><trkpt lat="45.900807106719085" lon="8.82536601524121"><ele>459.5</ele><time>2026-04-25T10:40:28.82Z</time></trkpt><trkpt lat="45.90081752955898" lon="8.825470826208049"><ele>459.6666666666667</ele><time>2026-04-25T10:40:29.82Z</time></trkpt><trkpt lat="45.90083103415695" lon="8.825572986327387"><ele>459.83333333333337</ele><time>2026-04-25T10:40:30.82Z</time></trkpt><trkpt lat="45.90081933701588" lon="8.825677271746281"><ele>460.0</ele><time>2026-04-25T10:40:31.82Z</time></trkpt><trkpt lat="45.90077474278098" lon="8.825855262009277"><ele>461.2</ele><time>2026-04-25T10:40:33.82Z</time></trkpt><trkpt lat="45.90069497668682" lon="8.825996849484593"><ele>462.4</ele><time>2026-04-25T10:40:35.82Z</time></trkpt><trkpt lat="45.900648055017264" lon="8.826064176212881"><ele>463.6</ele><time>2026-04-25T10:40:36.82Z</time></trkpt><trkpt lat="45.90059268191778" lon="8.82612296079002"><ele>464.8</ele><time>2026-04-25T10:40:37.82Z</time></trkpt><trkpt lat="45.900521412049585" lon="8.826191991320247"><ele>466.0</ele><time>2026-04-25T10:40:38.82Z</time></trkpt><trkpt lat="45.90042831477998" lon="8.826267227309483"><ele>466.0</ele><time>2026-04-25T10:40:39.82Z</time></trkpt><trkpt lat="45.90029468894599" lon="8.826334491003871"><ele>466.0</ele><time>2026-04-25T10:40:40.82Z</time></trkpt><trkpt lat="45.90015054491496" lon="8.82642813363283"><ele>466.0</ele><time>2026-04-25T10:40:41.82Z</time></trkpt><trkpt lat="45.89999857980484" lon="8.826514434581254"><ele>465.0</ele><time>2026-04-25T10:40:42.82Z</time></trkpt><trkpt lat="45.89984171001633" lon="8.826608680377024"><ele>464.0</ele><time>2026-04-25T10:40:43.82Z</time></trkpt><trkpt lat="45.899691923923925" lon="8.826700695083309"><ele>463.0</ele><time>2026-04-25T10:40:44.82Z</time></trkpt><trkpt lat="45.89955595842333" lon="8.826796092381722"><ele>463.0</ele><time>2026-04-25T10:40:45.821Z</time></trkpt><trkpt lat="45.89942198530827" lon="8.826886675650854"><ele>463.0</ele><time>2026-04-25T10:40:46.821Z</time></trkpt><trkpt lat="45.89929207558526" lon="8.826975982327037"><ele>463.0</ele><time>2026-04-25T10:40:47.821Z</time></trkpt><trkpt lat="45.899160006595224" lon="8.827068082329987"><ele>463.0</ele><time>2026-04-25T10:40:48.821Z</time></trkpt><trkpt lat="45.89901589235909" lon="8.82716443741878"><ele>463.0</ele><time>2026-04-25T10:40:49.821Z</time></trkpt><trkpt lat="45.89887189345664" lon="8.827256751856371"><ele>463.0</ele><time>2026-04-25T10:40:50.821Z</time></trkpt><trkpt lat="45.89872745235125" lon="8.82734848752011"><ele>463.0</ele><time>2026-04-25T10:40:51.821Z</time></trkpt><trkpt lat="45.898579038022206" lon="8.827422914456916"><ele>463.0</ele><time>2026-04-25T10:40:52.821Z</time></trkpt><trkpt lat="45.89844540011101" lon="8.827533559520912"><ele>463.0</ele><time>2026-04-25T10:40:53.821Z</time></trkpt><trkpt lat="45.8982986177461" lon="8.82760215160676"><ele>463.0</ele><time>2026-04-25T10:40:54.821Z</time></trkpt><trkpt lat="45.89816160915732" lon="8.827689644415038"><ele>463.75</ele><time>2026-04-25T10:40:55.821Z</time></trkpt><trkpt lat="45.89802464446502" lon="8.827774571782411"><ele>464.5</ele><time>2026-04-25T10:40:56.821Z</time></trkpt><trkpt lat="45.89788462560116" lon="8.82785710254406"><ele>465.25</ele><time>2026-04-25T10:40:57.821Z</time></trkpt><trkpt lat="45.89774553541268" lon="8.827933871764014"><ele>466.0</ele><time>2026-04-25T10:40:58.821Z</time></trkpt><trkpt lat="45.897604326071146" lon="8.828003348235182"><ele>465.75</ele><time>2026-04-25T10:40:59.821Z</time></trkpt><trkpt lat="45.89746564121285" lon="8.828072515429463"><ele>465.5</ele><time>2026-04-25T10:41:00.821Z</time></trkpt><trkpt lat="45.897320366594364" lon="8.82811526053711"><ele>465.25</ele><time>2026-04-25T10:41:01.821Z</time></trkpt><trkpt lat="45.89717537838602" lon="8.82814391061944"><ele>465.0</ele><time>2026-04-25T10:41:02.821Z</time></trkpt><trkpt lat="45.89703004051489" lon="8.828171033662834"><ele>465.0</ele><time>2026-04-25T10:41:03.821Z</time></trkpt><trkpt lat="45.89687955224762" lon="8.82819977357724"><ele>465.0</ele><time>2026-04-25T10:41:04.821Z</time></trkpt><trkpt lat="45.89672445154202" lon="8.828247558863517"><ele>465.0</ele><time>2026-04-25T10:41:05.821Z</time></trkpt><trkpt lat="45.896560217096415" lon="8.828294655756872"><ele>464.66666666666663</ele><time>2026-04-25T10:41:06.821Z</time></trkpt><trkpt lat="45.896411507675104" lon="8.828376629776859"><ele>464.3333333333333</ele><time>2026-04-25T10:41:07.821Z</time></trkpt><trkpt lat="45.89627631631817" lon="8.82850373332784"><ele>464.0</ele><time>2026-04-25T10:41:08.821Z</time></trkpt><trkpt lat="45.89614509241006" lon="8.82862160491992"><ele>464.66666666666663</ele><time>2026-04-25T10:41:09.821Z</time></trkpt><trkpt lat="45.8960267240072" lon="8.828760072772795"><ele>465.33333333333337</ele><time>2026-04-25T10:41:10.821Z</time></trkpt><trkpt lat="45.89591221854449" lon="8.828894860211124"><ele>466.0</ele><time>2026-04-25T10:41:11.821Z</time></trkpt><trkpt lat="45.8957764236372" lon="8.828982993382754"><ele>466.0</ele><time>2026-04-25T10:41:12.821Z</time></trkpt><trkpt lat="45.89563715556062" lon="8.82906164680728"><ele>466.0</ele><time>2026-04-25T10:41:13.821Z</time></trkpt><trkpt lat="45.89548917940975" lon="8.829111933202233"><ele>466.0</ele><time>2026-04-25T10:41:14.821Z</time></trkpt><trkpt lat="45.89533647685049" lon="8.829143613637157"><ele>466.0</ele><time>2026-04-25T10:41:15.821Z</time></trkpt><trkpt lat="45.8951853360862" lon="8.829171024480013"><ele>466.0</ele><time>2026-04-25T10:41:16.821Z</time></trkpt><trkpt lat="45.89504138549953" lon="8.829197131312993"><ele>466.0</ele><time>2026-04-25T10:41:17.821Z</time></trkpt><trkpt lat="45.89489885330707" lon="8.829222980913748"><ele>466.0</ele><time>2026-04-25T10:41:18.821Z</time></trkpt><trkpt lat="45.89476473065838" lon="8.829256892808843"><ele>468.5</ele><time>2026-04-25T10:41:19.821Z</time></trkpt><trkpt lat="45.89463921380946" lon="8.829309759886852"><ele>471.0</ele><time>2026-04-25T10:41:20.821Z</time></trkpt><trkpt lat="45.894516646845204" lon="8.82938543469313"><ele>473.5</ele><time>2026-04-25T10:41:21.821Z</time></trkpt><trkpt lat="45.89439461679485" lon="8.829475752175183"><ele>476.0</ele><time>2026-04-25T10:41:22.821Z</time></trkpt><trkpt lat="45.89426982908003" lon="8.829573310007406"><ele>474.75</ele><time>2026-04-25T10:41:23.821Z</time></trkpt><trkpt lat="45.89413675132146" lon="8.829672117875091"><ele>473.5</ele><time>2026-04-25T10:41:24.821Z</time></trkpt><trkpt lat="45.89400283528283" lon="8.829758773145672"><ele>472.25</ele><time>2026-04-25T10:41:25.821Z</time></trkpt><trkpt lat="45.89386682430744" lon="8.829836979340875"><ele>471.0</ele><time>2026-04-25T10:41:26.821Z</time></trkpt><trkpt lat="45.893726002824764" lon="8.829905382191773"><ele>471.0</ele><time>2026-04-25T10:41:27.821Z</time></trkpt><trkpt lat="45.89357429520746" lon="8.829969949320647"><ele>471.0</ele><time>2026-04-25T10:41:28.821Z</time></trkpt><trkpt lat="45.893418474930506" lon="8.830028384580173"><ele>471.0</ele><time>2026-04-25T10:41:29.821Z</time></trkpt><trkpt lat="45.89326974754883" lon="8.830081141210309"><ele>468.66666666666663</ele><time>2026-04-25T10:41:30.821Z</time></trkpt><trkpt lat="45.89310866900729" lon="8.830133715129309"><ele>466.3333333333333</ele><time>2026-04-25T10:41:31.821Z</time></trkpt><trkpt lat="45.892941687899146" lon="8.830178534089407"><ele>464.0</ele><time>2026-04-25T10:41:32.821Z</time></trkpt><trkpt lat="45.89276936231236" lon="8.830212374198203"><ele>467.3333333333333</ele><time>2026-04-25T10:41:33.821Z</time></trkpt><trkpt lat="45.89258833376048" lon="8.830237259123379"><ele>470.66666666666663</ele><time>2026-04-25T10:41:34.821Z</time></trkpt><trkpt lat="45.89240334989132" lon="8.830260277745891"><ele>474.0</ele><time>2026-04-25T10:41:35.821Z</time></trkpt><trkpt lat="45.89220422789331" lon="8.830284146001304"><ele>474.0</ele><time>2026-04-25T10:41:36.821Z</time></trkpt><trkpt lat="45.89200968330928" lon="8.830307465565967"><ele>474.0</ele><time>2026-04-25T10:41:37.821Z</time></trkpt><trkpt lat="45.89182101420238" lon="8.830331011834286"><ele>474.0</ele><time>2026-04-25T10:41:38.821Z</time></trkpt><trkpt lat="45.89166121437687" lon="8.830351456313252"><ele>474.0</ele><time>2026-04-25T10:41:39.821Z</time></trkpt><trkpt lat="45.89150727246232" lon="8.830372402305477"><ele>474.0</ele><time>2026-04-25T10:41:40.821Z</time></trkpt><trkpt lat="45.89136095443162" lon="8.830393092841975"><ele>474.0</ele><time>2026-04-25T10:41:41.821Z</time></trkpt><trkpt lat="45.89121819872318" lon="8.830413279637261"><ele>474.0</ele><time>2026-04-25T10:41:42.821Z</time></trkpt><trkpt lat="45.89107029625015" lon="8.830434920263217"><ele>474.0</ele><time>2026-04-25T10:41:43.821Z</time></trkpt><trkpt lat="45.89091776702373" lon="8.83045950206211"><ele>474.0</ele><time>2026-04-25T10:41:44.821Z</time></trkpt><trkpt lat="45.8907574914827" lon="8.830492054258826"><ele>474.0</ele><time>2026-04-25T10:41:45.821Z</time></trkpt><trkpt lat="45.890593952441144" lon="8.830541684993651"><ele>474.0</ele><time>2026-04-25T10:41:46.821Z</time></trkpt><trkpt lat="45.89043048203775" lon="8.83060837539971"><ele>474.0</ele><time>2026-04-25T10:41:47.821Z</time></trkpt><trkpt lat="45.890270633958544" lon="8.830692035474957"><ele>474.0</ele><time>2026-04-25T10:41:48.821Z</time></trkpt><trkpt lat="45.890117883952584" lon="8.830787644142767"><ele>474.66666666666663</ele><time>2026-04-25T10:41:49.821Z</time></trkpt><trkpt lat="45.88996817550991" lon="8.830898496606777"><ele>475.3333333333333</ele><time>2026-04-25T10:41:50.821Z</time></trkpt><trkpt lat="45.889817158048764" lon="8.831018262403457"><ele>476.0</ele><time>2026-04-25T10:41:51.821Z</time></trkpt><trkpt lat="45.88967359898805" lon="8.831133520784164"><ele>476.0</ele><time>2026-04-25T10:41:52.821Z</time></trkpt><trkpt lat="45.889528513700995" lon="8.831250775985618"><ele>476.0</ele><time>2026-04-25T10:41:53.821Z</time></trkpt><trkpt lat="45.88937992424925" lon="8.83137086322718"><ele>476.0</ele><time>2026-04-25T10:41:54.821Z</time></trkpt><trkpt lat="45.889230219063414" lon="8.831491852132961"><ele>473.3333333333333</ele><time>2026-04-25T10:41:55.821Z</time></trkpt><trkpt lat="45.88908544136079" lon="8.83160885899889"><ele>470.66666666666663</ele><time>2026-04-25T10:41:56.821Z</time></trkpt><trkpt lat="45.88894303739979" lon="8.83172346673293"><ele>468.0</ele><time>2026-04-25T10:41:57.821Z</time></trkpt><trkpt lat="45.888806504972536" lon="8.83183309869633"><ele>468.0</ele><time>2026-04-25T10:41:58.821Z</time></trkpt><trkpt lat="45.888669140571885" lon="8.83194339026095"><ele>468.0</ele><time>2026-04-25T10:41:59.821Z</time></trkpt><trkpt lat="45.88853274962446" lon="8.83205365330724"><ele>468.0</ele><time>2026-04-25T10:42:00.821Z</time></trkpt><trkpt lat="45.88840385350433" lon="8.832158319956251"><ele>467.66666666666663</ele><time>2026-04-25T10:42:01.819Z</time></trkpt><trkpt lat="45.88827435532874" lon="8.832263473721913"><ele>467.3333333333333</ele><time>2026-04-25T10:42:02.818Z</time></trkpt><trkpt lat="45.888139374503076" lon="8.83237245227738"><ele>467.0</ele><time>2026-04-25T10:42:03.818Z</time></trkpt><trkpt lat="45.8879954107383" lon="8.832488027400354"><ele>467.0</ele><time>2026-04-25T10:42:04.819Z</time></trkpt><trkpt lat="45.88786010031902" lon="8.832596655484727"><ele>467.0</ele><time>2026-04-25T10:42:05.819Z</time></trkpt><trkpt lat="45.887721916191204" lon="8.832707590660991"><ele>467.0</ele><time>2026-04-25T10:42:06.819Z</time></trkpt><trkpt lat="45.887587402780746" lon="8.832815578942048"><ele>469.66666666666663</ele><time>2026-04-25T10:42:07.818Z</time></trkpt><trkpt lat="45.887455140323915" lon="8.832921760053114"><ele>472.33333333333337</ele><time>2026-04-25T10:42:08.818Z</time></trkpt><trkpt lat="45.88732182409438" lon="8.833028777833004"><ele>475.0</ele><time>2026-04-25T10:42:09.818Z</time></trkpt><trkpt lat="45.8871845509199" lon="8.833138956565305"><ele>475.0</ele><time>2026-04-25T10:42:10.818Z</time></trkpt><trkpt lat="45.88704301849254" lon="8.833252554054678"><ele>475.0</ele><time>2026-04-25T10:42:11.818Z</time></trkpt><trkpt lat="45.88689583981473" lon="8.833372017981096"><ele>475.0</ele><time>2026-04-25T10:42:12.818Z</time></trkpt><trkpt lat="45.886749877071566" lon="8.83349118040013"><ele>476.0</ele><time>2026-04-25T10:42:13.818Z</time></trkpt><trkpt lat="45.88660143894642" lon="8.83361097045205"><ele>477.0</ele><time>2026-04-25T10:42:14.818Z</time></trkpt><trkpt lat="45.88645711739388" lon="8.833725696924537"><ele>478.0</ele><time>2026-04-25T10:42:15.818Z</time></trkpt><trkpt lat="45.886312813852335" lon="8.833837132259852"><ele>478.0</ele><time>2026-04-25T10:42:16.818Z</time></trkpt><trkpt lat="45.88617152326014" lon="8.833941056077029"><ele>478.0</ele><time>2026-04-25T10:42:17.818Z</time></trkpt><trkpt lat="45.88603264631066" lon="8.83403678905872"><ele>478.0</ele><time>2026-04-25T10:42:18.818Z</time></trkpt><trkpt lat="45.885890033595565" lon="8.834123286667326"><ele>475.0</ele><time>2026-04-25T10:42:19.818Z</time></trkpt><trkpt lat="45.88574250472036" lon="8.834197097633934"><ele>472.0</ele><time>2026-04-25T10:42:20.818Z</time></trkpt><trkpt lat="45.8855894205076" lon="8.834256477944212"><ele>469.0</ele><time>2026-04-25T10:42:21.818Z</time></trkpt><trkpt lat="45.88542881457818" lon="8.834302078992797"><ele>472.33333333333337</ele><time>2026-04-25T10:42:22.818Z</time></trkpt><trkpt lat="45.88526075832945" lon="8.8343412437999"><ele>475.66666666666663</ele><time>2026-04-25T10:42:23.818Z</time></trkpt><trkpt lat="45.88509117021297" lon="8.834376819183749"><ele>479.0</ele><time>2026-04-25T10:42:24.818Z</time></trkpt><trkpt lat="45.884913432450766" lon="8.834412974803545"><ele>479.0</ele><time>2026-04-25T10:42:25.818Z</time></trkpt><trkpt lat="45.884728485978506" lon="8.834451073370094"><ele>479.0</ele><time>2026-04-25T10:42:26.818Z</time></trkpt><trkpt lat="45.88454375036755" lon="8.834491378374643"><ele>479.0</ele><time>2026-04-25T10:42:27.818Z</time></trkpt><trkpt lat="45.88435626297638" lon="8.834533606536825"><ele>475.66666666666663</ele><time>2026-04-25T10:42:28.818Z</time></trkpt><trkpt lat="45.88417546380265" lon="8.834580214517768"><ele>472.33333333333337</ele><time>2026-04-25T10:42:29.818Z</time></trkpt><trkpt lat="45.88400251934609" lon="8.834648796930429"><ele>469.0</ele><time>2026-04-25T10:42:30.818Z</time></trkpt><trkpt lat="45.883841117062964" lon="8.834732346371412"><ele>469.0</ele><time>2026-04-25T10:42:31.818Z</time></trkpt><trkpt lat="45.88368483254006" lon="8.834821192121796"><ele>469.0</ele><time>2026-04-25T10:42:32.818Z</time></trkpt><trkpt lat="45.88354419103051" lon="8.834902565367967"><ele>469.0</ele><time>2026-04-25T10:42:33.818Z</time></trkpt><trkpt lat="45.8834209947937" lon="8.834975144119921"><ele>468.75</ele><time>2026-04-25T10:42:34.818Z</time></trkpt><trkpt lat="45.88330884079127" lon="8.83504121574893"><ele>468.5</ele><time>2026-04-25T10:42:35.818Z</time></trkpt><trkpt lat="45.883186908650735" lon="8.83511304782873"><ele>468.25</ele><time>2026-04-25T10:42:36.818Z</time></trkpt><trkpt lat="45.883050359134586" lon="8.83519349122702"><ele>468.0</ele><time>2026-04-25T10:42:37.818Z</time></trkpt><trkpt lat="45.88289819491343" lon="8.835309675710485"><ele>468.0</ele><time>2026-04-25T10:42:38.818Z</time></trkpt><trkpt lat="45.88273122281399" lon="8.835409312952782"><ele>468.0</ele><time>2026-04-25T10:42:39.818Z</time></trkpt><trkpt lat="45.88256310260681" lon="8.835484407265033"><ele>468.0</ele><time>2026-04-25T10:42:40.818Z</time></trkpt><trkpt lat="45.8824116253887" lon="8.83559827555982"><ele>467.66666666666663</ele><time>2026-04-25T10:42:41.818Z</time></trkpt><trkpt lat="45.88226413172946" lon="8.83568613669304"><ele>467.3333333333333</ele><time>2026-04-25T10:42:42.818Z</time></trkpt><trkpt lat="45.88212098822144" lon="8.835772072020044"><ele>467.0</ele><time>2026-04-25T10:42:43.818Z</time></trkpt><trkpt lat="45.881980302852135" lon="8.83585879662835"><ele>467.0</ele><time>2026-04-25T10:42:44.818Z</time></trkpt><trkpt lat="45.881840865670526" lon="8.83591727796763"><ele>467.0</ele><time>2026-04-25T10:42:45.818Z</time></trkpt><trkpt lat="45.88171183728942" lon="8.835993403285547"><ele>467.0</ele><time>2026-04-25T10:42:46.818Z</time></trkpt><trkpt lat="45.88158894240884" lon="8.836065909913914"><ele>467.0</ele><time>2026-04-25T10:42:47.818Z</time></trkpt><trkpt lat="45.88147114786489" lon="8.83613540739475"><ele>469.3333333333333</ele><time>2026-04-25T10:42:48.818Z</time></trkpt><trkpt lat="45.88133338784203" lon="8.836216424643792"><ele>471.66666666666663</ele><time>2026-04-25T10:42:49.818Z</time></trkpt><trkpt lat="45.88117171242167" lon="8.836311068305244"><ele>474.0</ele><time>2026-04-25T10:42:50.818Z</time></trkpt><trkpt lat="45.88099962982615" lon="8.836411804255057"><ele>471.33333333333337</ele><time>2026-04-25T10:42:51.818Z</time></trkpt><trkpt lat="45.880826574981626" lon="8.83653330014434"><ele>468.6666666666667</ele><time>2026-04-25T10:42:52.818Z</time></trkpt><trkpt lat="45.880637850878145" lon="8.83662074403116"><ele>466.0</ele><time>2026-04-25T10:42:53.818Z</time></trkpt><trkpt lat="45.880437158029984" lon="8.836715378063575"><ele>466.0</ele><time>2026-04-25T10:42:54.818Z</time></trkpt><trkpt lat="45.88021485772707" lon="8.836785358954103"><ele>466.0</ele><time>2026-04-25T10:42:55.818Z</time></trkpt><trkpt lat="45.87998614487066" lon="8.836820819161314"><ele>465.6666666666667</ele><time>2026-04-25T10:42:56.818Z</time></trkpt><trkpt lat="45.87976607950329" lon="8.836830297589167"><ele>465.33333333333337</ele><time>2026-04-25T10:42:57.818Z</time></trkpt><trkpt lat="45.87955844054592" lon="8.836816368848455"><ele>465.0</ele><time>2026-04-25T10:42:58.818Z</time></trkpt><trkpt lat="45.879350584928375" lon="8.83678789153264"><ele>467.0</ele><time>2026-04-25T10:42:59.818Z</time></trkpt><trkpt lat="45.87915208316403" lon="8.836748703464286"><ele>469.0</ele><time>2026-04-25T10:43:00.818Z</time></trkpt><trkpt lat="45.87896571074271" lon="8.836716883731883"><ele>471.0</ele><time>2026-04-25T10:43:01.818Z</time></trkpt><trkpt lat="45.878787089004994" lon="8.836690455641309"><ele>471.0</ele><time>2026-04-25T10:43:02.818Z</time></trkpt><trkpt lat="45.878612423707914" lon="8.836654977039245"><ele>471.0</ele><time>2026-04-25T10:43:03.818Z</time></trkpt><trkpt lat="45.87845175125657" lon="8.836631195802607"><ele>471.0</ele><time>2026-04-25T10:43:04.818Z</time></trkpt><trkpt lat="45.87829338749637" lon="8.836602279445994"><ele>470.0</ele><time>2026-04-25T10:43:05.818Z</time></trkpt><trkpt lat="45.87812553567225" lon="8.836573277468782"><ele>469.0</ele><time>2026-04-25T10:43:06.818Z</time></trkpt><trkpt lat="45.87795701315786" lon="8.836541555497048"><ele>468.0</ele><time>2026-04-25T10:43:07.818Z</time></trkpt><trkpt lat="45.87778821290341" lon="8.836518514000684"><ele>468.0</ele><time>2026-04-25T10:43:08.818Z</time></trkpt><trkpt lat="45.87760756840083" lon="8.836497252789297"><ele>468.0</ele><time>2026-04-25T10:43:09.818Z</time></trkpt><trkpt lat="45.87742663965297" lon="8.836466487604538"><ele>468.0</ele><time>2026-04-25T10:43:10.818Z</time></trkpt><trkpt lat="45.877239176401794" lon="8.836430044019542"><ele>468.33333333333337</ele><time>2026-04-25T10:43:11.818Z</time></trkpt><trkpt lat="45.87704881461632" lon="8.836396974109691"><ele>468.6666666666667</ele><time>2026-04-25T10:43:12.818Z</time></trkpt><trkpt lat="45.876859268495025" lon="8.836364803581784"><ele>469.0</ele><time>2026-04-25T10:43:13.818Z</time></trkpt><trkpt lat="45.87666191188778" lon="8.836330178483"><ele>469.0</ele><time>2026-04-25T10:43:14.818Z</time></trkpt><trkpt lat="45.87647043553684" lon="8.836300885951388"><ele>469.0</ele><time>2026-04-25T10:43:15.818Z</time></trkpt><trkpt lat="45.876288088127005" lon="8.836268787721586"><ele>469.0</ele><time>2026-04-25T10:43:16.818Z</time></trkpt><trkpt lat="45.87610548604439" lon="8.836242057048409"><ele>470.6666666666667</ele><time>2026-04-25T10:43:17.818Z</time></trkpt><trkpt lat="45.875917442047694" lon="8.836205333186687"><ele>472.33333333333337</ele><time>2026-04-25T10:43:18.818Z</time></trkpt><trkpt lat="45.87572723645529" lon="8.836175802187977"><ele>474.0</ele><time>2026-04-25T10:43:19.818Z</time></trkpt><trkpt lat="45.87554673768987" lon="8.836141323080493"><ele>474.0</ele><time>2026-04-25T10:43:20.818Z</time></trkpt><trkpt lat="45.8753676167339" lon="8.83610752429715"><ele>474.0</ele><time>2026-04-25T10:43:21.818Z</time></trkpt><trkpt lat="45.87519893935311" lon="8.836067650341782"><ele>474.0</ele><time>2026-04-25T10:43:22.818Z</time></trkpt><trkpt lat="45.87503754744241" lon="8.83602794974272"><ele>476.0</ele><time>2026-04-25T10:43:23.818Z</time></trkpt><trkpt lat="45.87486278730908" lon="8.835987183030175"><ele>478.0</ele><time>2026-04-25T10:43:24.818Z</time></trkpt><trkpt lat="45.8746935464396" lon="8.83595040816503"><ele>480.0</ele><time>2026-04-25T10:43:25.818Z</time></trkpt><trkpt lat="45.87452919009586" lon="8.83592387498671"><ele>481.0</ele><time>2026-04-25T10:43:26.818Z</time></trkpt><trkpt lat="45.87436889278664" lon="8.835889965631207"><ele>482.0</ele><time>2026-04-25T10:43:27.818Z</time></trkpt><trkpt lat="45.87421123282399" lon="8.835860095646227"><ele>483.0</ele><time>2026-04-25T10:43:28.818Z</time></trkpt><trkpt lat="45.874045583763824" lon="8.835834188881819"><ele>483.0</ele><time>2026-04-25T10:43:29.818Z</time></trkpt><trkpt lat="45.87387989574661" lon="8.835826999505523"><ele>483.0</ele><time>2026-04-25T10:43:30.818Z</time></trkpt><trkpt lat="45.873733078521894" lon="8.835807522749526"><ele>483.0</ele><time>2026-04-25T10:43:31.818Z</time></trkpt><trkpt lat="45.87357595172722" lon="8.835783901565884"><ele>482.66666666666663</ele><time>2026-04-25T10:43:32.818Z</time></trkpt><trkpt lat="45.87341116006415" lon="8.835751542510655"><ele>482.3333333333333</ele><time>2026-04-25T10:43:33.818Z</time></trkpt><trkpt lat="45.873243802840975" lon="8.835716790538173"><ele>482.0</ele><time>2026-04-25T10:43:34.818Z</time></trkpt><trkpt lat="45.87308576653088" lon="8.835686524848656"><ele>482.0</ele><time>2026-04-25T10:43:35.818Z</time></trkpt><trkpt lat="45.872933072883974" lon="8.835646229151761"><ele>482.0</ele><time>2026-04-25T10:43:36.818Z</time></trkpt><trkpt lat="45.872786678944884" lon="8.835579907002645"><ele>482.0</ele><time>2026-04-25T10:43:37.818Z</time></trkpt><trkpt lat="45.87264853285174" lon="8.83550928116271"><ele>483.3333333333333</ele><time>2026-04-25T10:43:38.818Z</time></trkpt><trkpt lat="45.872505317465" lon="8.83542998750945"><ele>484.66666666666663</ele><time>2026-04-25T10:43:39.818Z</time></trkpt><trkpt lat="45.8723580756571" lon="8.835331915976596"><ele>486.0</ele><time>2026-04-25T10:43:40.818Z</time></trkpt><trkpt lat="45.87220554754849" lon="8.83521958211014"><ele>485.33333333333337</ele><time>2026-04-25T10:43:41.818Z</time></trkpt><trkpt lat="45.87205267766776" lon="8.835098043139677"><ele>484.6666666666667</ele><time>2026-04-25T10:43:42.818Z</time></trkpt><trkpt lat="45.87191056925821" lon="8.834942914723943"><ele>484.0</ele><time>2026-04-25T10:43:43.818Z</time></trkpt><trkpt lat="45.87178221698618" lon="8.834741736690043"><ele>484.6666666666667</ele><time>2026-04-25T10:43:44.818Z</time></trkpt><trkpt lat="45.87164180219456" lon="8.834562985206508"><ele>485.33333333333337</ele><time>2026-04-25T10:43:45.818Z</time></trkpt><trkpt lat="45.871520584701" lon="8.83437202498799"><ele>486.0</ele><time>2026-04-25T10:43:46.818Z</time></trkpt><trkpt lat="45.87141398893511" lon="8.834193747387378"><ele>486.0</ele><time>2026-04-25T10:43:47.818Z</time></trkpt><trkpt lat="45.87131650727531" lon="8.834032568966254"><ele>486.0</ele><time>2026-04-25T10:43:48.818Z</time></trkpt><trkpt lat="45.871235194597446" lon="8.833905943328393"><ele>486.0</ele><time>2026-04-25T10:43:49.818Z</time></trkpt><trkpt lat="45.871157517019206" lon="8.833804877920127"><ele>486.0</ele><time>2026-04-25T10:43:50.818Z</time></trkpt><trkpt lat="45.871084108036094" lon="8.833720789564099"><ele>486.0</ele><time>2026-04-25T10:43:51.818Z</time></trkpt><trkpt lat="45.87102436764886" lon="8.833655991772632"><ele>486.0</ele><time>2026-04-25T10:43:52.818Z</time></trkpt><trkpt lat="45.87097062098698" lon="8.833604275139617"><ele>486.0</ele><time>2026-04-25T10:43:54.818Z</time></trkpt><trkpt lat="45.87092312614391" lon="8.833536671599118"><ele>486.0</ele><time>2026-04-25T10:43:58.818Z</time></trkpt><trkpt lat="45.871006569401274" lon="8.833636133115276"><ele>486.0</ele><time>2026-04-25T10:45:42.817Z</time></trkpt><trkpt lat="45.871142812696405" lon="8.833805862516822"><ele>486.0</ele><time>2026-04-25T10:45:43.817Z</time></trkpt><trkpt lat="45.87124219482236" lon="8.83393628661373"><ele>486.0</ele><time>2026-04-25T10:45:44.817Z</time></trkpt><trkpt lat="45.87137118926989" lon="8.834118501988383"><ele>486.0</ele><time>2026-04-25T10:45:45.817Z</time></trkpt><trkpt lat="45.87151025256835" lon="8.834319542750208"><ele>486.66666666666663</ele><time>2026-04-25T10:45:46.817Z</time></trkpt><trkpt lat="45.87164715170729" lon="8.834515399751652"><ele>487.3333333333333</ele><time>2026-04-25T10:45:47.817Z</time></trkpt><trkpt lat="45.87175145549895" lon="8.834764965357708"><ele>488.0</ele><time>2026-04-25T10:45:48.817Z</time></trkpt><trkpt lat="45.87190215377735" lon="8.834967504934381"><ele>487.3333333333333</ele><time>2026-04-25T10:45:49.817Z</time></trkpt><trkpt lat="45.872062770830084" lon="8.83514376810302"><ele>486.66666666666663</ele><time>2026-04-25T10:45:50.817Z</time></trkpt><trkpt lat="45.87222910204311" lon="8.83530215301233"><ele>486.0</ele><time>2026-04-25T10:45:51.817Z</time></trkpt><trkpt lat="45.87239636845889" lon="8.835433210754253"><ele>486.0</ele><time>2026-04-25T10:45:52.817Z</time></trkpt><trkpt lat="45.87256081070777" lon="8.835538794086114"><ele>486.0</ele><time>2026-04-25T10:45:53.817Z</time></trkpt><trkpt lat="45.87273308421542" lon="8.83563217125611"><ele>486.0</ele><time>2026-04-25T10:45:54.817Z</time></trkpt><trkpt lat="45.872905393010306" lon="8.835704611636293"><ele>485.0</ele><time>2026-04-25T10:45:55.817Z</time></trkpt><trkpt lat="45.873095597469096" lon="8.83575961803837"><ele>484.0</ele><time>2026-04-25T10:45:56.817Z</time></trkpt><trkpt lat="45.8732821530093" lon="8.835797496181348"><ele>483.0</ele><time>2026-04-25T10:45:57.817Z</time></trkpt><trkpt lat="45.87347872909759" lon="8.835830539588633"><ele>483.0</ele><time>2026-04-25T10:45:58.817Z</time></trkpt><trkpt lat="45.873677242676294" lon="8.835863403251942"><ele>483.0</ele><time>2026-04-25T10:45:59.817Z</time></trkpt><trkpt lat="45.87387895817929" lon="8.835897204469239"><ele>483.0</ele><time>2026-04-25T10:46:00.817Z</time></trkpt><trkpt lat="45.8740896646237" lon="8.835919082511047"><ele>483.33333333333337</ele><time>2026-04-25T10:46:01.817Z</time></trkpt><trkpt lat="45.87430236351553" lon="8.835955682591003"><ele>483.6666666666667</ele><time>2026-04-25T10:46:02.817Z</time></trkpt><trkpt lat="45.87452210167072" lon="8.835994224315037"><ele>484.0</ele><time>2026-04-25T10:46:03.817Z</time></trkpt><trkpt lat="45.874755214771895" lon="8.836036508729581"><ele>482.0</ele><time>2026-04-25T10:46:04.817Z</time></trkpt><trkpt lat="45.8750278521306" lon="8.836076158658857"><ele>480.0</ele><time>2026-04-25T10:46:05.817Z</time></trkpt><trkpt lat="45.875327834542176" lon="8.836121237458336"><ele>477.0</ele><time>2026-04-25T10:46:06.817Z</time></trkpt><trkpt lat="45.87565583903307" lon="8.8361971145427"><ele>474.0</ele><time>2026-04-25T10:46:07.817Z</time></trkpt><trkpt lat="45.87599730500605" lon="8.836253907511521"><ele>471.5</ele><time>2026-04-25T10:46:08.817Z</time></trkpt><trkpt lat="45.87636509608406" lon="8.836315187692387"><ele>469.0</ele><time>2026-04-25T10:46:09.817Z</time></trkpt><trkpt lat="45.87673754025389" lon="8.836358446043107"><ele>469.0</ele><time>2026-04-25T10:46:10.817Z</time></trkpt><trkpt lat="45.877074131000725" lon="8.83641251542749"><ele>469.0</ele><time>2026-04-25T10:46:11.817Z</time></trkpt><trkpt lat="45.8773823135363" lon="8.836467383473687"><ele>468.5</ele><time>2026-04-25T10:46:12.817Z</time></trkpt><trkpt lat="45.87768493324296" lon="8.836517727640278"><ele>468.0</ele><time>2026-04-25T10:46:13.814Z</time></trkpt><trkpt lat="45.87798311597152" lon="8.836563447010109"><ele>468.0</ele><time>2026-04-25T10:46:14.814Z</time></trkpt><trkpt lat="45.87826979123462" lon="8.836614154890846"><ele>468.0</ele><time>2026-04-25T10:46:15.814Z</time></trkpt><trkpt lat="45.878544913786584" lon="8.836665965817836"><ele>469.5</ele><time>2026-04-25T10:46:16.814Z</time></trkpt><trkpt lat="45.87880793104467" lon="8.836705346521608"><ele>471.0</ele><time>2026-04-25T10:46:17.815Z</time></trkpt><trkpt lat="45.87906342276342" lon="8.836747459662833"><ele>468.0</ele><time>2026-04-25T10:46:18.815Z</time></trkpt><trkpt lat="45.879313606643166" lon="8.836790385055728"><ele>465.0</ele><time>2026-04-25T10:46:19.814Z</time></trkpt><trkpt lat="45.879555762773116" lon="8.836830580270323"><ele>469.66666666666663</ele><time>2026-04-25T10:46:20.814Z</time></trkpt><trkpt lat="45.87978002707458" lon="8.836857577322558"><ele>474.3333333333333</ele><time>2026-04-25T10:46:21.814Z</time></trkpt><trkpt lat="45.88000109207242" lon="8.836869388389625"><ele>479.0</ele><time>2026-04-25T10:46:22.814Z</time></trkpt><trkpt lat="45.88022472816155" lon="8.836839888074854"><ele>472.5</ele><time>2026-04-25T10:46:23.815Z</time></trkpt><trkpt lat="45.88045205215588" lon="8.836783154607021"><ele>466.0</ele><time>2026-04-25T10:46:24.815Z</time></trkpt><trkpt lat="45.88068472167854" lon="8.836682564871973"><ele>466.0</ele><time>2026-04-25T10:46:25.814Z</time></trkpt><trkpt lat="45.88092615568521" lon="8.836547598413537"><ele>466.0</ele><time>2026-04-25T10:46:26.814Z</time></trkpt><trkpt lat="45.881189599997455" lon="8.836382260258594"><ele>470.0</ele><time>2026-04-25T10:46:27.814Z</time></trkpt><trkpt lat="45.881460931249734" lon="8.836204369498226"><ele>474.0</ele><time>2026-04-25T10:46:28.814Z</time></trkpt><trkpt lat="45.88172012535923" lon="8.836047387714865"><ele>470.5</ele><time>2026-04-25T10:46:29.814Z</time></trkpt><trkpt lat="45.88196272081386" lon="8.835913242527756"><ele>467.0</ele><time>2026-04-25T10:46:30.814Z</time></trkpt><trkpt lat="45.8822053686732" lon="8.835791562349897"><ele>467.0</ele><time>2026-04-25T10:46:31.814Z</time></trkpt><trkpt lat="45.882418493095216" lon="8.835644657732866"><ele>467.0</ele><time>2026-04-25T10:46:32.814Z</time></trkpt><trkpt lat="45.88263158135172" lon="8.835503520560298"><ele>467.5</ele><time>2026-04-25T10:46:33.814Z</time></trkpt><trkpt lat="45.88284576780086" lon="8.835364966736636"><ele>468.0</ele><time>2026-04-25T10:46:34.814Z</time></trkpt><trkpt lat="45.8830732760217" lon="8.835238129297418"><ele>468.5</ele><time>2026-04-25T10:46:35.814Z</time></trkpt><trkpt lat="45.88329761129442" lon="8.83511299591056"><ele>469.0</ele><time>2026-04-25T10:46:36.814Z</time></trkpt><trkpt lat="45.88351229316824" lon="8.83498805358161"><ele>469.0</ele><time>2026-04-25T10:46:37.814Z</time></trkpt><trkpt lat="45.883716978175855" lon="8.834860712526984"><ele>469.0</ele><time>2026-04-25T10:46:38.814Z</time></trkpt><trkpt lat="45.88392360730132" lon="8.83473153579458"><ele>469.0</ele><time>2026-04-25T10:46:39.814Z</time></trkpt><trkpt lat="45.88414867624463" lon="8.834639494838832"><ele>474.0</ele><time>2026-04-25T10:46:40.814Z</time></trkpt><trkpt lat="45.884390001510496" lon="8.834562485749693"><ele>479.0</ele><time>2026-04-25T10:46:41.814Z</time></trkpt><trkpt lat="45.8846468870786" lon="8.834513812188698"><ele>479.0</ele><time>2026-04-25T10:46:42.814Z</time></trkpt><trkpt lat="45.88490391829327" lon="8.834471063570414"><ele>479.0</ele><time>2026-04-25T10:46:43.814Z</time></trkpt><trkpt lat="45.8851446586332" lon="8.83441962648457"><ele>482.0</ele><time>2026-04-25T10:46:44.814Z</time></trkpt><trkpt lat="45.88537467456539" lon="8.834365468912717"><ele>485.0</ele><time>2026-04-25T10:46:45.814Z</time></trkpt><trkpt lat="45.88560167593837" lon="8.83429390024257"><ele>481.5</ele><time>2026-04-25T10:46:46.814Z</time></trkpt><trkpt lat="45.885830063307615" lon="8.834198430595936"><ele>478.0</ele><time>2026-04-25T10:46:47.814Z</time></trkpt><trkpt lat="45.88606874042566" lon="8.834080104981107"><ele>478.0</ele><time>2026-04-25T10:46:48.814Z</time></trkpt><trkpt lat="45.88632053724957" lon="8.83391530490962"><ele>478.0</ele><time>2026-04-25T10:46:49.814Z</time></trkpt><trkpt lat="45.88657822358382" lon="8.833710135119196"><ele>476.5</ele><time>2026-04-25T10:46:50.814Z</time></trkpt><trkpt lat="45.886847836785726" lon="8.833498686311962"><ele>475.0</ele><time>2026-04-25T10:46:51.814Z</time></trkpt><trkpt lat="45.887128073041985" lon="8.833265546829487"><ele>475.0</ele><time>2026-04-25T10:46:52.814Z</time></trkpt><trkpt lat="45.88741260316732" lon="8.833032198890564"><ele>475.0</ele><time>2026-04-25T10:46:53.814Z</time></trkpt><trkpt lat="45.88767091465655" lon="8.832823723583092"><ele>471.0</ele><time>2026-04-25T10:46:54.814Z</time></trkpt><trkpt lat="45.88791278451769" lon="8.832630223534254"><ele>467.0</ele><time>2026-04-25T10:46:55.814Z</time></trkpt><trkpt lat="45.88815226584177" lon="8.832435887306357"><ele>467.0</ele><time>2026-04-25T10:46:56.814Z</time></trkpt><trkpt lat="45.88839141465118" lon="8.832232477354557"><ele>467.0</ele><time>2026-04-25T10:46:57.814Z</time></trkpt><trkpt lat="45.888622437554424" lon="8.832033670775418"><ele>467.5</ele><time>2026-04-25T10:46:58.814Z</time></trkpt><trkpt lat="45.88885038560097" lon="8.831847164369767"><ele>468.0</ele><time>2026-04-25T10:46:59.814Z</time></trkpt><trkpt lat="45.88908275217941" lon="8.831669936594487"><ele>472.0</ele><time>2026-04-25T10:47:00.814Z</time></trkpt><trkpt lat="45.88930862784508" lon="8.831493196713968"><ele>476.0</ele><time>2026-04-25T10:47:01.814Z</time></trkpt><trkpt lat="45.889522411352516" lon="8.831323958913039"><ele>476.0</ele><time>2026-04-25T10:47:02.814Z</time></trkpt><trkpt lat="45.88973008935745" lon="8.831169443594225"><ele>476.0</ele><time>2026-04-25T10:47:03.814Z</time></trkpt><trkpt lat="45.88993288829848" lon="8.831013988068309"><ele>475.3333333333333</ele><time>2026-04-25T10:47:04.814Z</time></trkpt><trkpt lat="45.890131781705534" lon="8.830864117871325"><ele>474.66666666666663</ele><time>2026-04-25T10:47:05.814Z</time></trkpt><trkpt lat="45.890332142813335" lon="8.830724034303389"><ele>474.0</ele><time>2026-04-25T10:47:06.814Z</time></trkpt><trkpt lat="45.89054050659701" lon="8.83061928379452"><ele>474.0</ele><time>2026-04-25T10:47:07.814Z</time></trkpt><trkpt lat="45.89076096265196" lon="8.830530214387109"><ele>474.0</ele><time>2026-04-25T10:47:08.814Z</time></trkpt><trkpt lat="45.89098447431692" lon="8.830496720840197"><ele>474.0</ele><time>2026-04-25T10:47:09.814Z</time></trkpt><trkpt lat="45.89120418782892" lon="8.830447097953895"><ele>474.0</ele><time>2026-04-25T10:47:10.814Z</time></trkpt><trkpt lat="45.89143192287451" lon="8.83041907571195"><ele>474.0</ele><time>2026-04-25T10:47:11.814Z</time></trkpt><trkpt lat="45.89166283655103" lon="8.830378458254543"><ele>474.0</ele><time>2026-04-25T10:47:12.814Z</time></trkpt><trkpt lat="45.891883878711404" lon="8.830351344050582"><ele>474.0</ele><time>2026-04-25T10:47:13.814Z</time></trkpt><trkpt lat="45.892091411658406" lon="8.830329641242624"><ele>474.0</ele><time>2026-04-25T10:47:14.814Z</time></trkpt><trkpt lat="45.89229972120002" lon="8.830307173268976"><ele>474.0</ele><time>2026-04-25T10:47:15.814Z</time></trkpt><trkpt lat="45.892505348656506" lon="8.830284135735086"><ele>475.66666666666663</ele><time>2026-04-25T10:47:16.814Z</time></trkpt><trkpt lat="45.89271144805174" lon="8.830256948363484"><ele>477.3333333333333</ele><time>2026-04-25T10:47:17.814Z</time></trkpt><trkpt lat="45.892912296135506" lon="8.830223040078563"><ele>479.0</ele><time>2026-04-25T10:47:18.813Z</time></trkpt><trkpt lat="45.89310708443272" lon="8.830182810915742"><ele>476.3333333333333</ele><time>2026-04-25T10:47:19.812Z</time></trkpt><trkpt lat="45.89329078113298" lon="8.83012857834783"><ele>473.66666666666663</ele><time>2026-04-25T10:47:20.812Z</time></trkpt><trkpt lat="45.893476981270965" lon="8.830065127057026"><ele>471.0</ele><time>2026-04-25T10:47:21.811Z</time></trkpt><trkpt lat="45.89365959252151" lon="8.829991791460472"><ele>471.0</ele><time>2026-04-25T10:47:22.81Z</time></trkpt><trkpt lat="45.89383339568717" lon="8.829913410111885"><ele>471.0</ele><time>2026-04-25T10:47:23.81Z</time></trkpt><trkpt lat="45.89399932497788" lon="8.82982211174827"><ele>471.0</ele><time>2026-04-25T10:47:24.809Z</time></trkpt><trkpt lat="45.89415056991816" lon="8.829725112182961"><ele>472.66666666666663</ele><time>2026-04-25T10:47:25.809Z</time></trkpt><trkpt lat="45.894292345879585" lon="8.829621261212628"><ele>474.3333333333333</ele><time>2026-04-25T10:47:26.808Z</time></trkpt><trkpt lat="45.894427628784065" lon="8.829519699019038"><ele>476.0</ele><time>2026-04-25T10:47:27.808Z</time></trkpt><trkpt lat="45.89455744623427" lon="8.829413611913608"><ele>476.0</ele><time>2026-04-25T10:47:28.808Z</time></trkpt><trkpt lat="45.89469840377769" lon="8.829333178715089"><ele>476.0</ele><time>2026-04-25T10:47:29.807Z</time></trkpt><trkpt lat="45.89485130913196" lon="8.829267690174733"><ele>476.0</ele><time>2026-04-25T10:47:30.807Z</time></trkpt><trkpt lat="45.89501581182937" lon="8.829249819643074"><ele>472.66666666666663</ele><time>2026-04-25T10:47:31.807Z</time></trkpt><trkpt lat="45.89517744419046" lon="8.829220506057359"><ele>469.33333333333337</ele><time>2026-04-25T10:47:32.806Z</time></trkpt><trkpt lat="45.89534525999749" lon="8.82919007104022"><ele>466.0</ele><time>2026-04-25T10:47:33.806Z</time></trkpt><trkpt lat="45.895526927879345" lon="8.829149375912577"><ele>466.0</ele><time>2026-04-25T10:47:34.806Z</time></trkpt><trkpt lat="45.895703636659505" lon="8.829072295547247"><ele>466.0</ele><time>2026-04-25T10:47:35.805Z</time></trkpt><trkpt lat="45.89587451224465" lon="8.82898372714857"><ele>466.0</ele><time>2026-04-25T10:47:36.805Z</time></trkpt><trkpt lat="45.89601709171518" lon="8.828850085932956"><ele>465.33333333333337</ele><time>2026-04-25T10:47:37.805Z</time></trkpt><trkpt lat="45.89615813566228" lon="8.828704051607208"><ele>464.66666666666663</ele><time>2026-04-25T10:47:38.805Z</time></trkpt><trkpt lat="45.89628092891675" lon="8.828557371787454"><ele>464.0</ele><time>2026-04-25T10:47:39.805Z</time></trkpt><trkpt lat="45.89641815678053" lon="8.828434001225904"><ele>464.0</ele><time>2026-04-25T10:47:40.804Z</time></trkpt><trkpt lat="45.89657230230337" lon="8.828343946352692"><ele>464.0</ele><time>2026-04-25T10:47:41.804Z</time></trkpt><trkpt lat="45.89671742415275" lon="8.828277488567135"><ele>464.0</ele><time>2026-04-25T10:47:42.804Z</time></trkpt><trkpt lat="45.896864991254006" lon="8.828231639816249"><ele>464.3333333333333</ele><time>2026-04-25T10:47:43.804Z</time></trkpt><trkpt lat="45.89700990618644" lon="8.828196572943597"><ele>464.66666666666663</ele><time>2026-04-25T10:47:44.804Z</time></trkpt><trkpt lat="45.89716547098117" lon="8.828200746766173"><ele>465.0</ele><time>2026-04-25T10:47:45.804Z</time></trkpt><trkpt lat="45.897313660369576" lon="8.828168314070577"><ele>465.0</ele><time>2026-04-25T10:47:46.804Z</time></trkpt><trkpt lat="45.8974521672794" lon="8.828126784769191"><ele>465.0</ele><time>2026-04-25T10:47:47.803Z</time></trkpt><trkpt lat="45.8975849844285" lon="8.828082160744183"><ele>465.0</ele><time>2026-04-25T10:47:48.803Z</time></trkpt><trkpt lat="45.89770702249727" lon="8.828026428927123"><ele>465.0</ele><time>2026-04-25T10:47:49.803Z</time></trkpt><trkpt lat="45.89782697802271" lon="8.82796485384294"><ele>465.25</ele><time>2026-04-25T10:47:50.803Z</time></trkpt><trkpt lat="45.89794834828782" lon="8.827889623146914"><ele>465.5</ele><time>2026-04-25T10:47:51.803Z</time></trkpt><trkpt lat="45.898076706949404" lon="8.827808093887759"><ele>465.75</ele><time>2026-04-25T10:47:52.803Z</time></trkpt><trkpt lat="45.89820670896454" lon="8.827724038072915"><ele>466.0</ele><time>2026-04-25T10:47:53.803Z</time></trkpt><trkpt lat="45.89834621329879" lon="8.827641339986961"><ele>465.0</ele><time>2026-04-25T10:47:54.803Z</time></trkpt><trkpt lat="45.898490439881975" lon="8.827548522683786"><ele>464.0</ele><time>2026-04-25T10:47:55.803Z</time></trkpt><trkpt lat="45.898635362251554" lon="8.827454813412773"><ele>463.0</ele><time>2026-04-25T10:47:56.803Z</time></trkpt><trkpt lat="45.89877872740266" lon="8.827362900926875"><ele>463.0</ele><time>2026-04-25T10:47:57.803Z</time></trkpt><trkpt lat="45.898915730137574" lon="8.827271110196207"><ele>463.0</ele><time>2026-04-25T10:47:58.803Z</time></trkpt><trkpt lat="45.8990529700463" lon="8.827185506851563"><ele>463.0</ele><time>2026-04-25T10:47:59.803Z</time></trkpt><trkpt lat="45.89918939660169" lon="8.827099431380155"><ele>463.0</ele><time>2026-04-25T10:48:00.802Z</time></trkpt><trkpt lat="45.89932678009669" lon="8.82701372130645"><ele>463.0</ele><time>2026-04-25T10:48:01.802Z</time></trkpt><trkpt lat="45.89945336835013" lon="8.826932427236343"><ele>463.0</ele><time>2026-04-25T10:48:02.802Z</time></trkpt><trkpt lat="45.89957284454339" lon="8.826857702187326"><ele>463.0</ele><time>2026-04-25T10:48:03.802Z</time></trkpt><trkpt lat="45.899689278598274" lon="8.826780072227026"><ele>463.0</ele><time>2026-04-25T10:48:04.802Z</time></trkpt><trkpt lat="45.8998000676443" lon="8.826702009000666"><ele>463.0</ele><time>2026-04-25T10:48:05.802Z</time></trkpt><trkpt lat="45.89990971848674" lon="8.826629274889008"><ele>463.0</ele><time>2026-04-25T10:48:06.802Z</time></trkpt><trkpt lat="45.900017372292275" lon="8.826556234795438"><ele>463.0</ele><time>2026-04-25T10:48:07.802Z</time></trkpt><trkpt lat="45.900122467873395" lon="8.82648227666783"><ele>463.59999999999997</ele><time>2026-04-25T10:48:08.802Z</time></trkpt><trkpt lat="45.90022609870724" lon="8.826413169023203"><ele>464.19999999999993</ele><time>2026-04-25T10:48:09.802Z</time></trkpt><trkpt lat="45.90032934179022" lon="8.826358762361776"><ele>464.8</ele><time>2026-04-25T10:48:10.802Z</time></trkpt><trkpt lat="45.90041946179122" lon="8.826303250510078"><ele>465.4</ele><time>2026-04-25T10:48:11.802Z</time></trkpt><trkpt lat="45.90049178029693" lon="8.826253542105427"><ele>466.0</ele><time>2026-04-25T10:48:12.802Z</time></trkpt><trkpt lat="45.90056197408648" lon="8.826209408378762"><ele>466.00000000000006</ele><time>2026-04-25T10:48:13.802Z</time></trkpt><trkpt lat="45.90062654907695" lon="8.82618207844676"><ele>466.0</ele><time>2026-04-25T10:48:14.802Z</time></trkpt><trkpt lat="45.90070246251575" lon="8.826178308846247"><ele>466.0</ele><time>2026-04-25T10:48:15.802Z</time></trkpt><trkpt lat="45.90078823493097" lon="8.826182031892465"><ele>466.0</ele><time>2026-04-25T10:48:16.802Z</time></trkpt><trkpt lat="45.90087840580288" lon="8.826175552857357"><ele>466.00000000000006</ele><time>2026-04-25T10:48:17.802Z</time></trkpt><trkpt lat="45.90097784464565" lon="8.826164020578261"><ele>466.0</ele><time>2026-04-25T10:48:18.802Z</time></trkpt><trkpt lat="45.90107807515868" lon="8.826147704412158"><ele>465.6</ele><time>2026-04-25T10:48:19.8Z</time></trkpt><trkpt lat="45.901183733505945" lon="8.826118416802473"><ele>465.20000000000005</ele><time>2026-04-25T10:48:20.8Z</time></trkpt><trkpt lat="45.90129132415602" lon="8.826062878585754"><ele>464.79999999999995</ele><time>2026-04-25T10:48:21.8Z</time></trkpt><trkpt lat="45.901390349085915" lon="8.825987807503475"><ele>464.4</ele><time>2026-04-25T10:48:22.799Z</time></trkpt><trkpt lat="45.90148361284063" lon="8.825910925328238"><ele>464.0</ele><time>2026-04-25T10:48:23.8Z</time></trkpt><trkpt lat="45.90156552648668" lon="8.825847285736169"><ele>463.99999999999994</ele><time>2026-04-25T10:48:24.8Z</time></trkpt><trkpt lat="45.90163769299865" lon="8.825793242947714"><ele>464.0</ele><time>2026-04-25T10:48:25.799Z</time></trkpt><trkpt lat="45.901712790474285" lon="8.82573925547455"><ele>464.0</ele><time>2026-04-25T10:48:26.8Z</time></trkpt><trkpt lat="45.90179186216223" lon="8.825698825421942"><ele>464.0</ele><time>2026-04-25T10:48:27.8Z</time></trkpt><trkpt lat="45.901872161240604" lon="8.825666608833222"><ele>463.99999999999994</ele><time>2026-04-25T10:48:28.8Z</time></trkpt><trkpt lat="45.90194071787711" lon="8.825643292639139"><ele>464.0</ele><time>2026-04-25T10:48:29.799Z</time></trkpt><trkpt lat="45.9020142998418" lon="8.825617302595711"><ele>464.66666666666663</ele><time>2026-04-25T10:48:30.799Z</time></trkpt><trkpt lat="45.902089600054936" lon="8.82559543038796"><ele>465.3333333333333</ele><time>2026-04-25T10:48:31.8Z</time></trkpt><trkpt lat="45.902166260972244" lon="8.825595549057002"><ele>466.0</ele><time>2026-04-25T10:48:32.799Z</time></trkpt><trkpt lat="45.90224194142331" lon="8.825643167924937"><ele>466.66666666666663</ele><time>2026-04-25T10:48:33.799Z</time></trkpt><trkpt lat="45.90231818176069" lon="8.825680788275234"><ele>467.3333333333333</ele><time>2026-04-25T10:48:34.799Z</time></trkpt><trkpt lat="45.90240769616155" lon="8.825735943520367"><ele>468.0</ele><time>2026-04-25T10:48:35.799Z</time></trkpt><trkpt lat="45.902497411092234" lon="8.82578740538065"><ele>468.0</ele><time>2026-04-25T10:48:36.799Z</time></trkpt><trkpt lat="45.902578239377874" lon="8.825833231559951"><ele>467.99999999999994</ele><time>2026-04-25T10:48:37.799Z</time></trkpt><trkpt lat="45.902668674007174" lon="8.825861328807592"><ele>467.99999999999994</ele><time>2026-04-25T10:48:38.799Z</time></trkpt><trkpt lat="45.90275604005213" lon="8.82590957878005"><ele>468.0</ele><time>2026-04-25T10:48:39.799Z</time></trkpt><trkpt lat="45.90283344955352" lon="8.825979341610205"><ele>468.0</ele><time>2026-04-25T10:48:40.799Z</time></trkpt><trkpt lat="45.90292179339982" lon="8.826030048623759"><ele>468.4</ele><time>2026-04-25T10:48:41.799Z</time></trkpt><trkpt lat="45.90300969941919" lon="8.82608020121853"><ele>468.79999999999995</ele><time>2026-04-25T10:48:42.799Z</time></trkpt><trkpt lat="45.90310661140115" lon="8.826135491936036"><ele>469.2</ele><time>2026-04-25T10:48:43.799Z</time></trkpt><trkpt lat="45.90321523809941" lon="8.826197466188106"><ele>469.6</ele><time>2026-04-25T10:48:44.799Z</time></trkpt><trkpt lat="45.90331841748177" lon="8.826256332607093"><ele>470.0</ele><time>2026-04-25T10:48:45.799Z</time></trkpt><trkpt lat="45.90343260542614" lon="8.826316581709143"><ele>470.0</ele><time>2026-04-25T10:48:46.799Z</time></trkpt><trkpt lat="45.903547884762965" lon="8.826357436004932"><ele>470.0</ele><time>2026-04-25T10:48:47.799Z</time></trkpt><trkpt lat="45.903674587571764" lon="8.826373578392952"><ele>470.0</ele><time>2026-04-25T10:48:48.799Z</time></trkpt><trkpt lat="45.90380072339018" lon="8.826367492047188"><ele>470.0</ele><time>2026-04-25T10:48:49.799Z</time></trkpt><trkpt lat="45.903932662277356" lon="8.826321263553037"><ele>470.0</ele><time>2026-04-25T10:48:50.799Z</time></trkpt><trkpt lat="45.90406960014565" lon="8.826298626894532"><ele>470.0</ele><time>2026-04-25T10:48:51.799Z</time></trkpt><trkpt lat="45.90421124101282" lon="8.826293973084296"><ele>470.0</ele><time>2026-04-25T10:48:52.799Z</time></trkpt><trkpt lat="45.90435028566154" lon="8.826318760874088"><ele>470.0</ele><time>2026-04-25T10:48:53.799Z</time></trkpt><trkpt lat="45.904494210446344" lon="8.826363945183505"><ele>468.5</ele><time>2026-04-25T10:48:54.799Z</time></trkpt><trkpt lat="45.90462768603387" lon="8.826419255933065"><ele>467.0</ele><time>2026-04-25T10:48:55.799Z</time></trkpt><trkpt lat="45.90475359461617" lon="8.826481466007642"><ele>465.5</ele><time>2026-04-25T10:48:56.799Z</time></trkpt><trkpt lat="45.90487562444108" lon="8.826544008588638"><ele>464.0</ele><time>2026-04-25T10:48:57.799Z</time></trkpt><trkpt lat="45.9049869371693" lon="8.826601520320432"><ele>463.99999999999994</ele><time>2026-04-25T10:48:58.799Z</time></trkpt><trkpt lat="45.905077979293104" lon="8.826654278972311"><ele>464.0</ele><time>2026-04-25T10:48:59.799Z</time></trkpt><trkpt lat="45.905152429867556" lon="8.826708353463003"><ele>464.0</ele><time>2026-04-25T10:49:00.799Z</time></trkpt><trkpt lat="45.90521392270848" lon="8.826772452694442"><ele>464.0</ele><time>2026-04-25T10:49:01.799Z</time></trkpt><trkpt lat="45.9052828942921" lon="8.826837790258503"><ele>463.99999999999994</ele><time>2026-04-25T10:49:02.799Z</time></trkpt><trkpt lat="45.905361245067525" lon="8.826872093286596"><ele>464.0</ele><time>2026-04-25T10:49:03.799Z</time></trkpt><trkpt lat="45.90544342503031" lon="8.826917417937553"><ele>463.66666666666663</ele><time>2026-04-25T10:49:04.799Z</time></trkpt><trkpt lat="45.905513835163774" lon="8.826963232577281"><ele>463.3333333333333</ele><time>2026-04-25T10:49:05.799Z</time></trkpt><trkpt lat="45.905609676862774" lon="8.827018306100905"><ele>463.0</ele><time>2026-04-25T10:49:07.799Z</time></trkpt><trkpt lat="45.905675633518115" lon="8.827081514563075"><ele>462.66666666666663</ele><time>2026-04-25T10:49:09.799Z</time></trkpt><trkpt lat="45.9057677909316" lon="8.827165082239544"><ele>462.3333333333333</ele><time>2026-04-25T10:49:13.799Z</time></trkpt><trkpt lat="45.90583361529546" lon="8.827193613959306"><ele>462.0</ele><time>2026-04-25T10:49:14.799Z</time></trkpt><trkpt lat="45.90591896337655" lon="8.827246729917869"><ele>462.0</ele><time>2026-04-25T10:49:15.799Z</time></trkpt><trkpt lat="45.906020839169734" lon="8.827319915290063"><ele>462.0</ele><time>2026-04-25T10:49:16.799Z</time></trkpt><trkpt lat="45.90609130105699" lon="8.827496621794344"><ele>462.0</ele><time>2026-04-25T10:49:17.799Z</time></trkpt><trkpt lat="45.90620724433585" lon="8.827593628548112"><ele>462.0</ele><time>2026-04-25T10:49:18.799Z</time></trkpt><trkpt lat="45.90632052695689" lon="8.827688578671166"><ele>467.25</ele><time>2026-04-25T10:49:19.799Z</time></trkpt><trkpt lat="45.90645136540565" lon="8.82780041125517"><ele>472.5</ele><time>2026-04-25T10:49:20.799Z</time></trkpt><trkpt lat="45.90657280871112" lon="8.827888980761484"><ele>477.75</ele><time>2026-04-25T10:49:21.799Z</time></trkpt><trkpt lat="45.90670395925862" lon="8.82796375596159"><ele>483.0</ele><time>2026-04-25T10:49:22.799Z</time></trkpt><trkpt lat="45.906866322151735" lon="8.82801533112128"><ele>483.0</ele><time>2026-04-25T10:49:23.799Z</time></trkpt><trkpt lat="45.907018320565896" lon="8.828039470479764"><ele>483.0</ele><time>2026-04-25T10:49:24.799Z</time></trkpt><trkpt lat="45.90716366876336" lon="8.828051374721861"><ele>483.0</ele><time>2026-04-25T10:49:25.799Z</time></trkpt><trkpt lat="45.90728798914682" lon="8.828063272233516"><ele>483.0</ele><time>2026-04-25T10:49:26.799Z</time></trkpt><trkpt lat="45.90741576753866" lon="8.828095508704518"><ele>483.0</ele><time>2026-04-25T10:49:27.799Z</time></trkpt><trkpt lat="45.9075445807954" lon="8.828145923867444"><ele>483.0</ele><time>2026-04-25T10:49:28.799Z</time></trkpt><trkpt lat="45.907674339971145" lon="8.828202716748331"><ele>483.0</ele><time>2026-04-25T10:49:29.799Z</time></trkpt><trkpt lat="45.90780792349868" lon="8.828280285217742"><ele>483.0</ele><time>2026-04-25T10:49:30.799Z</time></trkpt><trkpt lat="45.90796448212919" lon="8.828382616341802"><ele>489.25</ele><time>2026-04-25T10:49:31.799Z</time></trkpt><trkpt lat="45.90809701650835" lon="8.828486980718436"><ele>495.5</ele><time>2026-04-25T10:49:32.799Z</time></trkpt><trkpt lat="45.90820756551383" lon="8.828601904615828"><ele>501.75</ele><time>2026-04-25T10:49:33.799Z</time></trkpt><trkpt lat="45.908325653907646" lon="8.828704402111098"><ele>508.0</ele><time>2026-04-25T10:49:34.799Z</time></trkpt><trkpt lat="45.90848327193436" lon="8.828741148024173"><ele>508.4</ele><time>2026-04-25T10:49:35.799Z</time></trkpt><trkpt lat="45.90861647477446" lon="8.828665875612101"><ele>508.79999999999995</ele><time>2026-04-25T10:49:36.799Z</time></trkpt><trkpt lat="45.90871148959817" lon="8.828600313261916"><ele>509.2</ele><time>2026-04-25T10:49:37.799Z</time></trkpt><trkpt lat="45.90879557438181" lon="8.828553445781559"><ele>509.6</ele><time>2026-04-25T10:49:38.799Z</time></trkpt><trkpt lat="45.90886802780768" lon="8.82855817690881"><ele>510.0</ele><time>2026-04-25T10:49:40.799Z</time></trkpt><trkpt lat="45.908794652613" lon="8.828708797408355"><ele>510.0</ele><time>2026-04-25T10:49:43.799Z</time></trkpt><trkpt lat="45.90868178468768" lon="8.828764286431335"><ele>510.0</ele><time>2026-04-25T10:49:44.799Z</time></trkpt><trkpt lat="45.90856561366444" lon="8.828845533250975"><ele>510.0</ele><time>2026-04-25T10:49:45.799Z</time></trkpt><trkpt lat="45.90845103470969" lon="8.828919258299578"><ele>510.0</ele><time>2026-04-25T10:49:46.799Z</time></trkpt><trkpt lat="45.908333256354666" lon="8.828946240457185"><ele>509.5</ele><time>2026-04-25T10:49:47.799Z</time></trkpt><trkpt lat="45.90820582638519" lon="8.828902986889673"><ele>509.0</ele><time>2026-04-25T10:49:48.799Z</time></trkpt><trkpt lat="45.908074340087154" lon="8.828830785690231"><ele>508.5</ele><time>2026-04-25T10:49:49.799Z</time></trkpt><trkpt lat="45.907947119199385" lon="8.828778306060746"><ele>508.0</ele><time>2026-04-25T10:49:50.799Z</time></trkpt><trkpt lat="45.90778686549469" lon="8.828726976142928"><ele>508.0</ele><time>2026-04-25T10:49:51.799Z</time></trkpt><trkpt lat="45.90762398617086" lon="8.828715387651409"><ele>508.0</ele><time>2026-04-25T10:49:52.799Z</time></trkpt><trkpt lat="45.90745910897246" lon="8.828724407808744"><ele>508.0</ele><time>2026-04-25T10:49:53.799Z</time></trkpt><trkpt lat="45.9072982521247" lon="8.828730960411491"><ele>511.0</ele><time>2026-04-25T10:49:54.799Z</time></trkpt><trkpt lat="45.90713780804186" lon="8.82879350947671"><ele>514.0</ele><time>2026-04-25T10:49:55.799Z</time></trkpt><trkpt lat="45.90697242648733" lon="8.82881406628472"><ele>517.0</ele><time>2026-04-25T10:49:56.799Z</time></trkpt><trkpt lat="45.90679955490238" lon="8.82878986020479"><ele>517.3333333333334</ele><time>2026-04-25T10:49:57.799Z</time></trkpt><trkpt lat="45.90661712168781" lon="8.828824467780896"><ele>517.6666666666666</ele><time>2026-04-25T10:49:58.799Z</time></trkpt><trkpt lat="45.906443187795894" lon="8.828825136858374"><ele>518.0</ele><time>2026-04-25T10:49:59.8Z</time></trkpt><trkpt lat="45.90626981753782" lon="8.828865287182047"><ele>518.0</ele><time>2026-04-25T10:50:00.8Z</time></trkpt><trkpt lat="45.906096283698105" lon="8.828918643190075"><ele>518.0</ele><time>2026-04-25T10:50:01.8Z</time></trkpt><trkpt lat="45.905928153887544" lon="8.828960321760615"><ele>518.0</ele><time>2026-04-25T10:50:02.8Z</time></trkpt><trkpt lat="45.90576640803081" lon="8.828974169553128"><ele>517.3333333333333</ele><time>2026-04-25T10:50:03.8Z</time></trkpt><trkpt lat="45.90560980091898" lon="8.828992097840745"><ele>516.6666666666666</ele><time>2026-04-25T10:50:04.8Z</time></trkpt><trkpt lat="45.9054623679499" lon="8.82900923438352"><ele>516.0</ele><time>2026-04-25T10:50:05.8Z</time></trkpt><trkpt lat="45.90531083480196" lon="8.829005064868799"><ele>516.0</ele><time>2026-04-25T10:50:06.8Z</time></trkpt><trkpt lat="45.905154066248556" lon="8.82895437611282"><ele>516.0</ele><time>2026-04-25T10:50:07.8Z</time></trkpt><trkpt lat="45.90498378060672" lon="8.828899943965812"><ele>516.0</ele><time>2026-04-25T10:50:08.8Z</time></trkpt><trkpt lat="45.904814591767796" lon="8.828806769529397"><ele>518.6666666666666</ele><time>2026-04-25T10:50:09.8Z</time></trkpt><trkpt lat="45.90464943958828" lon="8.828744803114875"><ele>521.3333333333333</ele><time>2026-04-25T10:50:10.8Z</time></trkpt><trkpt lat="45.90447646887112" lon="8.828698443652113"><ele>524.0</ele><time>2026-04-25T10:50:11.8Z</time></trkpt><trkpt lat="45.904312334911616" lon="8.828683860255154"><ele>526.25</ele><time>2026-04-25T10:50:12.8Z</time></trkpt><trkpt lat="45.904161016778744" lon="8.828720013137131"><ele>528.5</ele><time>2026-04-25T10:50:13.8Z</time></trkpt><trkpt lat="45.9040267311562" lon="8.82873520728714"><ele>530.75</ele><time>2026-04-25T10:50:14.8Z</time></trkpt><trkpt lat="45.90390267310309" lon="8.828732069863015"><ele>533.0</ele><time>2026-04-25T10:50:15.8Z</time></trkpt><trkpt lat="45.9038047166596" lon="8.828739973204017"><ele>533.0</ele><time>2026-04-25T10:50:16.8Z</time></trkpt><trkpt lat="45.903729929124644" lon="8.82876090094752"><ele>533.0</ele><time>2026-04-25T10:50:17.8Z</time></trkpt><trkpt lat="45.90366981436123" lon="8.828822424389816"><ele>533.0</ele><time>2026-04-25T10:50:18.8Z</time></trkpt><trkpt lat="45.903611885481425" lon="8.82887911027538"><ele>533.0</ele><time>2026-04-25T10:50:19.8Z</time></trkpt><trkpt lat="45.903531813262994" lon="8.82897939593307"><ele>533.0</ele><time>2026-04-25T10:50:20.8Z</time></trkpt><trkpt lat="45.90338016257533" lon="8.829032816841584"><ele>533.0</ele><time>2026-04-25T10:50:21.8Z</time></trkpt><trkpt lat="45.903214266015034" lon="8.829114666182653"><ele>533.0</ele><time>2026-04-25T10:50:22.8Z</time></trkpt><trkpt lat="45.90306068790221" lon="8.829189719368856"><ele>533.0</ele><time>2026-04-25T10:50:23.8Z</time></trkpt><trkpt lat="45.90291810094583" lon="8.829179869687234"><ele>533.0</ele><time>2026-04-25T10:50:24.8Z</time></trkpt><trkpt lat="45.90277476503451" lon="8.829220186647936"><ele>533.0</ele><time>2026-04-25T10:50:25.797Z</time></trkpt><trkpt lat="45.90262352800581" lon="8.8292915787906"><ele>533.0</ele><time>2026-04-25T10:50:26.797Z</time></trkpt><trkpt lat="45.9024868146017" lon="8.82935560026877"><ele>533.0</ele><time>2026-04-25T10:50:27.797Z</time></trkpt><trkpt lat="45.902334814823874" lon="8.829371139615168"><ele>540.0</ele><time>2026-04-25T10:50:28.798Z</time></trkpt><trkpt lat="45.902197901899484" lon="8.829397981533784"><ele>547.0</ele><time>2026-04-25T10:50:29.798Z</time></trkpt><trkpt lat="45.90206746324989" lon="8.8294241638473"><ele>554.0</ele><time>2026-04-25T10:50:30.798Z</time></trkpt><trkpt lat="45.901919524566544" lon="8.829477602949149"><ele>561.0</ele><time>2026-04-25T10:50:31.798Z</time></trkpt><trkpt lat="45.90176971401296" lon="8.829588443032396"><ele>558.3333333333334</ele><time>2026-04-25T10:50:32.798Z</time></trkpt><trkpt lat="45.90162035409153" lon="8.829694081567894"><ele>555.6666666666667</ele><time>2026-04-25T10:50:33.798Z</time></trkpt><trkpt lat="45.90146118522233" lon="8.829801934409454"><ele>553.0</ele><time>2026-04-25T10:50:34.797Z</time></trkpt><trkpt lat="45.901306539179885" lon="8.829930674621021"><ele>553.0</ele><time>2026-04-25T10:50:35.797Z</time></trkpt><trkpt lat="45.901155953645564" lon="8.830057859494431"><ele>553.0</ele><time>2026-04-25T10:50:36.797Z</time></trkpt><trkpt lat="45.9010077692083" lon="8.830176115386237"><ele>553.0</ele><time>2026-04-25T10:50:37.797Z</time></trkpt><trkpt lat="45.9008526009814" lon="8.830287428402967"><ele>559.6666666666667</ele><time>2026-04-25T10:50:38.797Z</time></trkpt><trkpt lat="45.900697495837896" lon="8.830397330809362"><ele>566.3333333333334</ele><time>2026-04-25T10:50:39.797Z</time></trkpt><trkpt lat="45.90054953041956" lon="8.830502815201939"><ele>573.0</ele><time>2026-04-25T10:50:40.797Z</time></trkpt><trkpt lat="45.90040606629798" lon="8.830608044796634"><ele>573.0</ele><time>2026-04-25T10:50:41.797Z</time></trkpt><trkpt lat="45.900274143354615" lon="8.830696878031363"><ele>573.0</ele><time>2026-04-25T10:50:42.797Z</time></trkpt><trkpt lat="45.900124367894705" lon="8.83077261231568"><ele>573.0</ele><time>2026-04-25T10:50:43.797Z</time></trkpt><trkpt lat="45.89997646136802" lon="8.830873329462616"><ele>569.6666666666666</ele><time>2026-04-25T10:50:44.797Z</time></trkpt><trkpt lat="45.89982085491493" lon="8.83095850758051"><ele>566.3333333333333</ele><time>2026-04-25T10:50:45.797Z</time></trkpt><trkpt lat="45.89966912390995" lon="8.831017030418503"><ele>563.0</ele><time>2026-04-25T10:50:46.797Z</time></trkpt><trkpt lat="45.899526863671916" lon="8.831063673154734"><ele>569.5</ele><time>2026-04-25T10:50:47.797Z</time></trkpt><trkpt lat="45.89940865144585" lon="8.831091419482851"><ele>576.0</ele><time>2026-04-25T10:50:48.797Z</time></trkpt><trkpt lat="45.89929641165183" lon="8.831113877177724"><ele>582.5</ele><time>2026-04-25T10:50:49.797Z</time></trkpt><trkpt lat="45.89917894802301" lon="8.8311664073399"><ele>589.0</ele><time>2026-04-25T10:50:50.797Z</time></trkpt><trkpt lat="45.89907197307553" lon="8.831299504213023"><ele>589.0</ele><time>2026-04-25T10:50:51.797Z</time></trkpt><trkpt lat="45.89895800561091" lon="8.831362245796559"><ele>589.0</ele><time>2026-04-25T10:50:52.797Z</time></trkpt><trkpt lat="45.89883300129917" lon="8.831392742860107"><ele>589.0</ele><time>2026-04-25T10:50:53.797Z</time></trkpt><trkpt lat="45.89870034972455" lon="8.83145759066802"><ele>589.0</ele><time>2026-04-25T10:50:54.797Z</time></trkpt><trkpt lat="45.8985859549924" lon="8.831574691197838"><ele>589.0</ele><time>2026-04-25T10:50:55.797Z</time></trkpt><trkpt lat="45.89849455300925" lon="8.831694972339005"><ele>589.0</ele><time>2026-04-25T10:50:56.797Z</time></trkpt><trkpt lat="45.89840572202822" lon="8.831726171707077"><ele>589.0</ele><time>2026-04-25T10:50:57.797Z</time></trkpt><trkpt lat="45.898274908682346" lon="8.831750512236505"><ele>589.0</ele><time>2026-04-25T10:50:58.797Z</time></trkpt><trkpt lat="45.898135696666785" lon="8.831843370081998"><ele>593.4</ele><time>2026-04-25T10:50:59.797Z</time></trkpt><trkpt lat="45.898001308072296" lon="8.831923815433617"><ele>597.8</ele><time>2026-04-25T10:51:00.797Z</time></trkpt><trkpt lat="45.897887115730114" lon="8.831983121960644"><ele>602.2</ele><time>2026-04-25T10:51:01.797Z</time></trkpt><trkpt lat="45.89779947236303" lon="8.832021436721591"><ele>606.6</ele><time>2026-04-25T10:51:02.797Z</time></trkpt><trkpt lat="45.8977282693247" lon="8.83204951279021"><ele>611.0</ele><time>2026-04-25T10:51:03.797Z</time></trkpt><trkpt lat="45.89766923317065" lon="8.832085013501604"><ele>611.0</ele><time>2026-04-25T10:51:04.797Z</time></trkpt><trkpt lat="45.89769301321107" lon="8.832259626902728"><ele>611.0</ele><time>2026-04-25T10:51:06.797Z</time></trkpt><trkpt lat="45.89782128544259" lon="8.832206347951802"><ele>611.0</ele><time>2026-04-25T10:51:08.797Z</time></trkpt><trkpt lat="45.89792153142767" lon="8.832181761275274"><ele>611.0</ele><time>2026-04-25T10:51:09.797Z</time></trkpt><trkpt lat="45.89803669162832" lon="8.8321467345796"><ele>611.0</ele><time>2026-04-25T10:51:10.797Z</time></trkpt><trkpt lat="45.898166544877725" lon="8.832126887556472"><ele>611.0</ele><time>2026-04-25T10:51:11.797Z</time></trkpt><trkpt lat="45.89831116988556" lon="8.832131048125174"><ele>611.0</ele><time>2026-04-25T10:51:12.797Z</time></trkpt><trkpt lat="45.898446493801934" lon="8.832160497425265"><ele>611.0</ele><time>2026-04-25T10:51:13.797Z</time></trkpt><trkpt lat="45.89856937409985" lon="8.832160359669617"><ele>612.4</ele><time>2026-04-25T10:51:14.797Z</time></trkpt><trkpt lat="45.898680606117665" lon="8.832108055677988"><ele>613.8</ele><time>2026-04-25T10:51:15.797Z</time></trkpt><trkpt lat="45.898768753583724" lon="8.832091170314943"><ele>615.1999999999999</ele><time>2026-04-25T10:51:16.797Z</time></trkpt><trkpt lat="45.89886829153491" lon="8.832091986492252"><ele>616.6</ele><time>2026-04-25T10:51:17.797Z</time></trkpt><trkpt lat="45.89898744627175" lon="8.832141035403023"><ele>618.0</ele><time>2026-04-25T10:51:18.797Z</time></trkpt><trkpt lat="45.899129812457886" lon="8.832154709867899"><ele>621.25</ele><time>2026-04-25T10:51:19.797Z</time></trkpt><trkpt lat="45.89926736101048" lon="8.832155238511739"><ele>624.5</ele><time>2026-04-25T10:51:20.797Z</time></trkpt><trkpt lat="45.89937916862308" lon="8.832116733968087"><ele>627.75</ele><time>2026-04-25T10:51:21.797Z</time></trkpt><trkpt lat="45.89949781740515" lon="8.832065170408633"><ele>631.0</ele><time>2026-04-25T10:51:22.797Z</time></trkpt><trkpt lat="45.89964083698359" lon="8.832077976302923"><ele>631.0</ele><time>2026-04-25T10:51:23.797Z</time></trkpt><trkpt lat="45.89978567561388" lon="8.832102430863447"><ele>631.0</ele><time>2026-04-25T10:51:24.797Z</time></trkpt><trkpt lat="45.89993390166731" lon="8.832141411582116"><ele>631.0</ele><time>2026-04-25T10:51:25.797Z</time></trkpt><trkpt lat="45.90008555289253" lon="8.83215236184247"><ele>631.0</ele><time>2026-04-25T10:51:26.797Z</time></trkpt><trkpt lat="45.900233026308285" lon="8.832146930558286"><ele>634.6</ele><time>2026-04-25T10:51:27.797Z</time></trkpt><trkpt lat="45.900367798370645" lon="8.83213555428717"><ele>638.2</ele><time>2026-04-25T10:51:28.797Z</time></trkpt><trkpt lat="45.900483660855095" lon="8.832125074271394"><ele>641.8000000000001</ele><time>2026-04-25T10:51:29.797Z</time></trkpt><trkpt lat="45.90056939268138" lon="8.83209173837029"><ele>645.4000000000001</ele><time>2026-04-25T10:51:30.797Z</time></trkpt><trkpt lat="45.90067085777486" lon="8.832040898295867"><ele>649.0</ele><time>2026-04-25T10:51:32.797Z</time></trkpt><trkpt lat="45.90064334182468" lon="8.832126717916099"><ele>649.0</ele><time>2026-04-25T10:51:35.797Z</time></trkpt><trkpt lat="45.90049772819783" lon="8.8321116564185"><ele>649.0</ele><time>2026-04-25T10:51:37.797Z</time></trkpt><trkpt lat="45.90037519009736" lon="8.832156572472375"><ele>649.0</ele><time>2026-04-25T10:51:38.797Z</time></trkpt><trkpt lat="45.9002365488266" lon="8.8322229465943"><ele>649.0</ele><time>2026-04-25T10:51:39.797Z</time></trkpt><trkpt lat="45.900088051139306" lon="8.832306992981856"><ele>643.0</ele><time>2026-04-25T10:51:40.797Z</time></trkpt><trkpt lat="45.89993941258858" lon="8.832343119182497"><ele>637.0</ele><time>2026-04-25T10:51:41.797Z</time></trkpt><trkpt lat="45.89979321145157" lon="8.832400737993751"><ele>631.0</ele><time>2026-04-25T10:51:42.797Z</time></trkpt><trkpt lat="45.899640390233365" lon="8.832460000209142"><ele>631.0</ele><time>2026-04-25T10:51:43.797Z</time></trkpt><trkpt lat="45.89948489167892" lon="8.832533037040552"><ele>631.0</ele><time>2026-04-25T10:51:44.797Z</time></trkpt><trkpt lat="45.899346538689265" lon="8.832650082321594"><ele>631.0</ele><time>2026-04-25T10:51:45.797Z</time></trkpt><trkpt lat="45.89919406538893" lon="8.832716106565282"><ele>643.3333333333334</ele><time>2026-04-25T10:51:46.797Z</time></trkpt><trkpt lat="45.89903969111465" lon="8.832765289592041"><ele>655.6666666666666</ele><time>2026-04-25T10:51:47.797Z</time></trkpt><trkpt lat="45.89887839761064" lon="8.832807368781685"><ele>668.0</ele><time>2026-04-25T10:51:48.797Z</time></trkpt><trkpt lat="45.8987280628301" lon="8.832900306525596"><ele>668.0</ele><time>2026-04-25T10:51:49.797Z</time></trkpt><trkpt lat="45.8986012178786" lon="8.832983967084674"><ele>668.0</ele><time>2026-04-25T10:51:50.797Z</time></trkpt><trkpt lat="45.8984853198636" lon="8.833058770381376"><ele>668.0</ele><time>2026-04-25T10:51:51.797Z</time></trkpt><trkpt lat="45.898382653206895" lon="8.83312190962385"><ele>668.0</ele><time>2026-04-25T10:51:52.797Z</time></trkpt><trkpt lat="45.89828843773072" lon="8.833178949992792"><ele>672.5</ele><time>2026-04-25T10:51:53.797Z</time></trkpt><trkpt lat="45.8982177477684" lon="8.833229559008558"><ele>677.0</ele><time>2026-04-25T10:51:54.797Z</time></trkpt><trkpt lat="45.898115191254895" lon="8.833327500852612"><ele>681.5</ele><time>2026-04-25T10:51:55.797Z</time></trkpt><trkpt lat="45.898031126534384" lon="8.833483720466175"><ele>686.0</ele><time>2026-04-25T10:51:56.797Z</time></trkpt><trkpt lat="45.8979508593439" lon="8.833639692117226"><ele>686.0</ele><time>2026-04-25T10:51:57.797Z</time></trkpt><trkpt lat="45.89787355492654" lon="8.833756030041767"><ele>686.0</ele><time>2026-04-25T10:51:58.797Z</time></trkpt><trkpt lat="45.897787366360056" lon="8.83383811579682"><ele>686.0</ele><time>2026-04-25T10:51:59.797Z</time></trkpt><trkpt lat="45.8976990062627" lon="8.833903973050589"><ele>686.0</ele><time>2026-04-25T10:52:00.797Z</time></trkpt><trkpt lat="45.89762440237453" lon="8.833948414402387"><ele>686.0</ele><time>2026-04-25T10:52:01.797Z</time></trkpt><trkpt lat="45.89754690848856" lon="8.833959104324292"><ele>683.1999999999999</ele><time>2026-04-25T10:52:02.797Z</time></trkpt><trkpt lat="45.897456210131395" lon="8.833878632818882"><ele>680.4</ele><time>2026-04-25T10:52:03.797Z</time></trkpt><trkpt lat="45.89736043920505" lon="8.833810842520638"><ele>677.6</ele><time>2026-04-25T10:52:04.797Z</time></trkpt><trkpt lat="45.89725201140884" lon="8.833748506555605"><ele>674.8</ele><time>2026-04-25T10:52:05.797Z</time></trkpt><trkpt lat="45.89715616952089" lon="8.833707503173931"><ele>672.0</ele><time>2026-04-25T10:52:06.797Z</time></trkpt><trkpt lat="45.8970546563422" lon="8.833693119294633"><ele>672.0</ele><time>2026-04-25T10:52:07.797Z</time></trkpt><trkpt lat="45.89692873859639" lon="8.833709178148673"><ele>672.0</ele><time>2026-04-25T10:52:08.797Z</time></trkpt><trkpt lat="45.89678995540516" lon="8.833745744436737"><ele>672.0</ele><time>2026-04-25T10:52:09.797Z</time></trkpt><trkpt lat="45.896663583165356" lon="8.833791709606432"><ele>672.0</ele><time>2026-04-25T10:52:10.797Z</time></trkpt><trkpt lat="45.896538345560245" lon="8.83381902392716"><ele>673.3333333333334</ele><time>2026-04-25T10:52:11.797Z</time></trkpt><trkpt lat="45.896403014148724" lon="8.83385486853071"><ele>674.6666666666667</ele><time>2026-04-25T10:52:12.797Z</time></trkpt><trkpt lat="45.89623972061899" lon="8.83392989002493"><ele>676.0</ele><time>2026-04-25T10:52:13.797Z</time></trkpt><trkpt lat="45.89607667371988" lon="8.834036951257543"><ele>676.0</ele><time>2026-04-25T10:52:14.797Z</time></trkpt><trkpt lat="45.89593643671883" lon="8.834127480525051"><ele>676.0</ele><time>2026-04-25T10:52:15.797Z</time></trkpt><trkpt lat="45.89582275441201" lon="8.834198943373579"><ele>676.0</ele><time>2026-04-25T10:52:16.797Z</time></trkpt><trkpt lat="45.89570374113622" lon="8.834266373989582"><ele>676.0</ele><time>2026-04-25T10:52:17.797Z</time></trkpt><trkpt lat="45.89557078245062" lon="8.834353550654285"><ele>684.0</ele><time>2026-04-25T10:52:18.797Z</time></trkpt><trkpt lat="45.89544996209732" lon="8.834465233381813"><ele>692.0</ele><time>2026-04-25T10:52:19.797Z</time></trkpt><trkpt lat="45.89532664590169" lon="8.834600267574952"><ele>700.0</ele><time>2026-04-25T10:52:20.797Z</time></trkpt><trkpt lat="45.895201224585904" lon="8.83475799605778"><ele>700.0</ele><time>2026-04-25T10:52:21.797Z</time></trkpt><trkpt lat="45.89509774575229" lon="8.834900451106545"><ele>700.0</ele><time>2026-04-25T10:52:22.797Z</time></trkpt><trkpt lat="45.895002241130044" lon="8.835034456490712"><ele>700.0</ele><time>2026-04-25T10:52:23.797Z</time></trkpt><trkpt lat="45.89491094795528" lon="8.835129237081283"><ele>700.0</ele><time>2026-04-25T10:52:24.797Z</time></trkpt><trkpt lat="45.89479396228433" lon="8.835152811908312"><ele>705.5</ele><time>2026-04-25T10:52:25.797Z</time></trkpt><trkpt lat="45.89464984078844" lon="8.835175838336342"><ele>711.0</ele><time>2026-04-25T10:52:26.797Z</time></trkpt><trkpt lat="45.89451836510669" lon="8.835234549314777"><ele>716.5</ele><time>2026-04-25T10:52:27.797Z</time></trkpt><trkpt lat="45.894395624355234" lon="8.835293114191836"><ele>722.0</ele><time>2026-04-25T10:52:28.797Z</time></trkpt><trkpt lat="45.8942803545324" lon="8.835346606441297"><ele>717.75</ele><time>2026-04-25T10:52:29.797Z</time></trkpt><trkpt lat="45.89415323734156" lon="8.835401428716533"><ele>713.5</ele><time>2026-04-25T10:52:30.797Z</time></trkpt><trkpt lat="45.8940364436129" lon="8.835508322749563"><ele>709.25</ele><time>2026-04-25T10:52:31.795Z</time></trkpt><trkpt lat="45.89389868126183" lon="8.835610929232313"><ele>705.0</ele><time>2026-04-25T10:52:32.795Z</time></trkpt><trkpt lat="45.893757837713245" lon="8.835688124628481"><ele>705.0</ele><time>2026-04-25T10:52:33.795Z</time></trkpt><trkpt lat="45.893629831619116" lon="8.835767507403494"><ele>705.0</ele><time>2026-04-25T10:52:34.795Z</time></trkpt><trkpt lat="45.893499311980925" lon="8.835838404016691"><ele>705.0</ele><time>2026-04-25T10:52:35.796Z</time></trkpt><trkpt lat="45.893371921971706" lon="8.835919780974276"><ele>705.0</ele><time>2026-04-25T10:52:36.796Z</time></trkpt><trkpt lat="45.893255339118696" lon="8.835998943344455"><ele>707.0</ele><time>2026-04-25T10:52:37.795Z</time></trkpt><trkpt lat="45.893165786383264" lon="8.836051857122987"><ele>709.0</ele><time>2026-04-25T10:52:38.795Z</time></trkpt><trkpt lat="45.89310307221418" lon="8.836075286003966"><ele>711.0</ele><time>2026-04-25T10:52:39.795Z</time></trkpt><trkpt lat="45.893007010518325" lon="8.836183893800417"><ele>713.0</ele><time>2026-04-25T10:52:41.795Z</time></trkpt><trkpt lat="45.89305465734176" lon="8.836317683591238"><ele>715.0</ele><time>2026-04-25T10:52:42.795Z</time></trkpt><trkpt lat="45.89315389051605" lon="8.836231563822794"><ele>715.0</ele><time>2026-04-25T10:52:43.795Z</time></trkpt><trkpt lat="45.89324022125207" lon="8.83617937529293"><ele>715.0</ele><time>2026-04-25T10:52:44.795Z</time></trkpt><trkpt lat="45.89332435254139" lon="8.836101312132465"><ele>715.0</ele><time>2026-04-25T10:52:45.795Z</time></trkpt><trkpt lat="45.893422784406724" lon="8.836058542932623"><ele>715.0</ele><time>2026-04-25T10:52:46.795Z</time></trkpt><trkpt lat="45.89353305162745" lon="8.836022136971451"><ele>715.0</ele><time>2026-04-25T10:52:47.795Z</time></trkpt><trkpt lat="45.89366300923275" lon="8.835986141915168"><ele>712.5</ele><time>2026-04-25T10:52:48.795Z</time></trkpt><trkpt lat="45.89379110237268" lon="8.835941916757095"><ele>710.0</ele><time>2026-04-25T10:52:49.795Z</time></trkpt><trkpt lat="45.893915284357554" lon="8.83590965452877"><ele>707.5</ele><time>2026-04-25T10:52:50.795Z</time></trkpt><trkpt lat="45.89403966931058" lon="8.835895829666008"><ele>705.0</ele><time>2026-04-25T10:52:51.795Z</time></trkpt><trkpt lat="45.894148658467365" lon="8.835852966440784"><ele>705.0</ele><time>2026-04-25T10:52:52.795Z</time></trkpt><trkpt lat="45.89424533983295" lon="8.835797355023526"><ele>705.0</ele><time>2026-04-25T10:52:53.795Z</time></trkpt><trkpt lat="45.894342353284664" lon="8.835801334131068"><ele>705.0</ele><time>2026-04-25T10:52:54.795Z</time></trkpt><trkpt lat="45.89443913083732" lon="8.835837203168577"><ele>705.0</ele><time>2026-04-25T10:52:55.795Z</time></trkpt><trkpt lat="45.89455695196383" lon="8.835847198545123"><ele>705.0</ele><time>2026-04-25T10:52:56.795Z</time></trkpt><trkpt lat="45.89464886654385" lon="8.835795960662974"><ele>708.4</ele><time>2026-04-25T10:52:57.795Z</time></trkpt><trkpt lat="45.894711205396376" lon="8.835769338588236"><ele>711.8</ele><time>2026-04-25T10:52:58.795Z</time></trkpt><trkpt lat="45.89480055139558" lon="8.835756321588871"><ele>715.2</ele><time>2026-04-25T10:52:59.795Z</time></trkpt><trkpt lat="45.89490721531038" lon="8.835814569467365"><ele>718.6</ele><time>2026-04-25T10:53:00.795Z</time></trkpt><trkpt lat="45.89503214894312" lon="8.835803482791142"><ele>722.0</ele><time>2026-04-25T10:53:01.795Z</time></trkpt><trkpt lat="45.89514865263278" lon="8.8357698220121"><ele>726.0</ele><time>2026-04-25T10:53:02.795Z</time></trkpt><trkpt lat="45.895256390864716" lon="8.835730131389266"><ele>730.0</ele><time>2026-04-25T10:53:03.795Z</time></trkpt><trkpt lat="45.895354186928294" lon="8.83560387751712"><ele>734.0</ele><time>2026-04-25T10:53:04.795Z</time></trkpt><trkpt lat="45.895463992672255" lon="8.83550023352623"><ele>738.0</ele><time>2026-04-25T10:53:05.795Z</time></trkpt><trkpt lat="45.89556718058153" lon="8.835413753850512"><ele>738.0</ele><time>2026-04-25T10:53:06.795Z</time></trkpt><trkpt lat="45.89567348398898" lon="8.835350202590696"><ele>738.0</ele><time>2026-04-25T10:53:07.795Z</time></trkpt><trkpt lat="45.89577948192989" lon="8.83530880812242"><ele>738.0</ele><time>2026-04-25T10:53:08.795Z</time></trkpt><trkpt lat="45.89588629891506" lon="8.835289646361337"><ele>738.0</ele><time>2026-04-25T10:53:09.795Z</time></trkpt><trkpt lat="45.89599612440971" lon="8.835303818418026"><ele>738.0</ele><time>2026-04-25T10:53:10.795Z</time></trkpt><trkpt lat="45.89612129053827" lon="8.835399665748406"><ele>743.0</ele><time>2026-04-25T10:53:11.795Z</time></trkpt><trkpt lat="45.896282379272414" lon="8.83543417317138"><ele>748.0</ele><time>2026-04-25T10:53:12.795Z</time></trkpt><trkpt lat="45.896439554186756" lon="8.835465215018214"><ele>753.0</ele><time>2026-04-25T10:53:13.795Z</time></trkpt><trkpt lat="45.89658967856293" lon="8.835463767216355"><ele>753.0</ele><time>2026-04-25T10:53:14.795Z</time></trkpt><trkpt lat="45.89674444387665" lon="8.835427780529239"><ele>753.0</ele><time>2026-04-25T10:53:15.795Z</time></trkpt><trkpt lat="45.896896164433535" lon="8.835377118804516"><ele>753.0</ele><time>2026-04-25T10:53:16.795Z</time></trkpt><trkpt lat="45.897047853623036" lon="8.835348184740507"><ele>755.0</ele><time>2026-04-25T10:53:17.795Z</time></trkpt><trkpt lat="45.89718167242513" lon="8.835340275355406"><ele>757.0</ele><time>2026-04-25T10:53:18.795Z</time></trkpt><trkpt lat="45.89728707125238" lon="8.835276142675461"><ele>759.0</ele><time>2026-04-25T10:53:19.795Z</time></trkpt><trkpt lat="45.897378145060294" lon="8.835235221073315"><ele>761.0</ele><time>2026-04-25T10:53:20.795Z</time></trkpt><trkpt lat="45.89744480729692" lon="8.835199363490064"><ele>763.0</ele><time>2026-04-25T10:53:21.795Z</time></trkpt><trkpt lat="45.89753874721113" lon="8.835213585508503"><ele>764.4</ele><time>2026-04-25T10:53:22.795Z</time></trkpt><trkpt lat="45.89764489729937" lon="8.835214512173392"><ele>765.8</ele><time>2026-04-25T10:53:23.795Z</time></trkpt><trkpt lat="45.89773976356827" lon="8.835292556372009"><ele>767.2</ele><time>2026-04-25T10:53:24.795Z</time></trkpt><trkpt lat="45.89784934255235" lon="8.835348351914362"><ele>768.6</ele><time>2026-04-25T10:53:25.795Z</time></trkpt><trkpt lat="45.89793941945857" lon="8.835398685232558"><ele>770.0</ele><time>2026-04-25T10:53:26.795Z</time></trkpt><trkpt lat="45.8980071399919" lon="8.835415914674414"><ele>770.0000000000001</ele><time>2026-04-25T10:53:27.795Z</time></trkpt><trkpt lat="45.89810577967654" lon="8.835435252198852"><ele>770.0</ele><time>2026-04-25T10:53:29.795Z</time></trkpt><trkpt lat="45.89810050767425" lon="8.835538378268106"><ele>770.0</ele><time>2026-04-25T10:53:31.795Z</time></trkpt><trkpt lat="45.89803635888329" lon="8.8355363437209"><ele>770.0</ele><time>2026-04-25T10:53:32.795Z</time></trkpt><trkpt lat="45.89796693353251" lon="8.835467321079738"><ele>770.0000000000001</ele><time>2026-04-25T10:53:33.795Z</time></trkpt><trkpt lat="45.897859110146975" lon="8.835440685979151"><ele>770.0</ele><time>2026-04-25T10:53:34.795Z</time></trkpt><trkpt lat="45.89777244136207" lon="8.83538595633043"><ele>770.0</ele><time>2026-04-25T10:53:35.795Z</time></trkpt><trkpt lat="45.897685102795144" lon="8.835330718617286"><ele>770.0</ele><time>2026-04-25T10:53:36.795Z</time></trkpt><trkpt lat="45.89758079397903" lon="8.835329081988036"><ele>770.0</ele><time>2026-04-25T10:53:37.795Z</time></trkpt><trkpt lat="45.89747674033105" lon="8.835362156104003"><ele>770.0</ele><time>2026-04-25T10:53:38.795Z</time></trkpt><trkpt lat="45.89735715039541" lon="8.835449495233247"><ele>770.0</ele><time>2026-04-25T10:53:39.795Z</time></trkpt><trkpt lat="45.89723878213875" lon="8.835555328426103"><ele>767.6666666666667</ele><time>2026-04-25T10:53:40.795Z</time></trkpt><trkpt lat="45.89711286454742" lon="8.835613505184508"><ele>765.3333333333334</ele><time>2026-04-25T10:53:41.795Z</time></trkpt><trkpt lat="45.89696348061096" lon="8.835674503322178"><ele>763.0</ele><time>2026-04-25T10:53:42.795Z</time></trkpt><trkpt lat="45.89681260584265" lon="8.835797491090641"><ele>759.6666666666667</ele><time>2026-04-25T10:53:43.795Z</time></trkpt><trkpt lat="45.89667583822194" lon="8.835884971797421"><ele>756.3333333333334</ele><time>2026-04-25T10:53:44.795Z</time></trkpt><trkpt lat="45.896536220813076" lon="8.835960932817063"><ele>753.0</ele><time>2026-04-25T10:53:45.795Z</time></trkpt><trkpt lat="45.89639181476904" lon="8.836038026778857"><ele>759.5</ele><time>2026-04-25T10:53:46.795Z</time></trkpt><trkpt lat="45.89624738002512" lon="8.83611668638039"><ele>766.0</ele><time>2026-04-25T10:53:47.795Z</time></trkpt><trkpt lat="45.89611169235849" lon="8.836196506041036"><ele>772.5</ele><time>2026-04-25T10:53:48.795Z</time></trkpt><trkpt lat="45.895979854074376" lon="8.836289121430855"><ele>779.0</ele><time>2026-04-25T10:53:49.795Z</time></trkpt><trkpt lat="45.89584579626577" lon="8.836354558593282"><ele>779.0</ele><time>2026-04-25T10:53:50.795Z</time></trkpt><trkpt lat="45.895717479335694" lon="8.83640119573765"><ele>779.0</ele><time>2026-04-25T10:53:51.795Z</time></trkpt><trkpt lat="45.8956056440577" lon="8.836438677564093"><ele>779.0</ele><time>2026-04-25T10:53:52.795Z</time></trkpt><trkpt lat="45.89547676651119" lon="8.836496559238057"><ele>779.0</ele><time>2026-04-25T10:53:53.795Z</time></trkpt><trkpt lat="45.895361325728594" lon="8.836594293167314"><ele>779.0</ele><time>2026-04-25T10:53:54.795Z</time></trkpt><trkpt lat="45.895246388236465" lon="8.836663254129968"><ele>779.0</ele><time>2026-04-25T10:53:55.795Z</time></trkpt><trkpt lat="45.895085100028616" lon="8.836696284260793"><ele>779.0</ele><time>2026-04-25T10:53:56.795Z</time></trkpt><trkpt lat="45.8949176822104" lon="8.836755308632556"><ele>783.25</ele><time>2026-04-25T10:53:57.795Z</time></trkpt><trkpt lat="45.89478299214794" lon="8.836816536931567"><ele>787.5</ele><time>2026-04-25T10:53:58.795Z</time></trkpt><trkpt lat="45.89465695533547" lon="8.83684313944573"><ele>791.75</ele><time>2026-04-25T10:53:59.795Z</time></trkpt><trkpt lat="45.894529138934665" lon="8.836872313138805"><ele>796.0</ele><time>2026-04-25T10:54:00.795Z</time></trkpt><trkpt lat="45.8943889392073" lon="8.836934989872397"><ele>796.0</ele><time>2026-04-25T10:54:01.795Z</time></trkpt><trkpt lat="45.89427720135792" lon="8.837026106173752"><ele>796.0</ele><time>2026-04-25T10:54:02.795Z</time></trkpt><trkpt lat="45.894181589443114" lon="8.837084474640548"><ele>796.0</ele><time>2026-04-25T10:54:03.795Z</time></trkpt><trkpt lat="45.894090763955745" lon="8.837124517277019"><ele>796.0</ele><time>2026-04-25T10:54:04.795Z</time></trkpt><trkpt lat="45.89401157558964" lon="8.837166175758911"><ele>796.0</ele><time>2026-04-25T10:54:05.795Z</time></trkpt><trkpt lat="45.89394438070429" lon="8.837215337112083"><ele>794.6666666666666</ele><time>2026-04-25T10:54:06.795Z</time></trkpt><trkpt lat="45.89389769974253" lon="8.837283605636124"><ele>793.3333333333333</ele><time>2026-04-25T10:54:07.795Z</time></trkpt><trkpt lat="45.89391148370251" lon="8.837402573117098"><ele>792.0</ele><time>2026-04-25T10:54:08.795Z</time></trkpt><trkpt lat="45.89401768712047" lon="8.837409053601524"><ele>790.6666666666667</ele><time>2026-04-25T10:54:09.795Z</time></trkpt><trkpt lat="45.89406868197293" lon="8.83732115579211"><ele>789.3333333333334</ele><time>2026-04-25T10:54:10.795Z</time></trkpt><trkpt lat="45.89415109638132" lon="8.837283673082375"><ele>788.0</ele><time>2026-04-25T10:54:11.795Z</time></trkpt><trkpt lat="45.89425240103066" lon="8.837218753126203"><ele>790.0</ele><time>2026-04-25T10:54:12.795Z</time></trkpt><trkpt lat="45.89436940366889" lon="8.837176002964672"><ele>792.0</ele><time>2026-04-25T10:54:13.795Z</time></trkpt><trkpt lat="45.894495360257395" lon="8.837139996825197"><ele>794.0</ele><time>2026-04-25T10:54:14.795Z</time></trkpt><trkpt lat="45.894654543568954" lon="8.837138053386813"><ele>796.0</ele><time>2026-04-25T10:54:15.795Z</time></trkpt><trkpt lat="45.89481776401655" lon="8.837134567280916"><ele>796.0</ele><time>2026-04-25T10:54:16.795Z</time></trkpt><trkpt lat="45.89496389871954" lon="8.83711959746622"><ele>796.0</ele><time>2026-04-25T10:54:17.795Z</time></trkpt><trkpt lat="45.895096725744935" lon="8.837118117731055"><ele>796.0</ele><time>2026-04-25T10:54:18.795Z</time></trkpt><trkpt lat="45.89520753028111" lon="8.837126289827117"><ele>796.0</ele><time>2026-04-25T10:54:19.795Z</time></trkpt><trkpt lat="45.89530462826533" lon="8.83716880675422"><ele>795.8333333333333</ele><time>2026-04-25T10:54:20.795Z</time></trkpt><trkpt lat="45.89537116930506" lon="8.83725361342408"><ele>795.6666666666666</ele><time>2026-04-25T10:54:21.795Z</time></trkpt><trkpt lat="45.89542003086394" lon="8.837318353656471"><ele>795.5</ele><time>2026-04-25T10:54:22.795Z</time></trkpt><trkpt lat="45.895461444911405" lon="8.837399877552619"><ele>795.3333333333333</ele><time>2026-04-25T10:54:23.795Z</time></trkpt><trkpt lat="45.8955129897723" lon="8.837544661869364"><ele>795.1666666666666</ele><time>2026-04-25T10:54:25.795Z</time></trkpt><trkpt lat="45.8955453235598" lon="8.837637564165645"><ele>795.0</ele><time>2026-04-25T10:54:26.795Z</time></trkpt><trkpt lat="45.89560035329781" lon="8.83780578643232"><ele>795.0</ele><time>2026-04-25T10:54:27.795Z</time></trkpt><trkpt lat="45.895658681702464" lon="8.837983576509572"><ele>795.0</ele><time>2026-04-25T10:54:28.795Z</time></trkpt><trkpt lat="45.89571811850326" lon="8.838161524942148"><ele>795.0</ele><time>2026-04-25T10:54:29.795Z</time></trkpt><trkpt lat="45.89577862231106" lon="8.83834014720151"><ele>795.0</ele><time>2026-04-25T10:54:30.795Z</time></trkpt><trkpt lat="45.895854809252675" lon="8.83855475902232"><ele>798.3333333333333</ele><time>2026-04-25T10:54:31.795Z</time></trkpt><trkpt lat="45.895934148464036" lon="8.83876630030162"><ele>801.6666666666666</ele><time>2026-04-25T10:54:32.795Z</time></trkpt><trkpt lat="45.89600953089715" lon="8.838959448139189"><ele>805.0</ele><time>2026-04-25T10:54:33.795Z</time></trkpt><trkpt lat="45.896069090358495" lon="8.839151425526559"><ele>800.5</ele><time>2026-04-25T10:54:34.795Z</time></trkpt><trkpt lat="45.896116865847844" lon="8.839340038319342"><ele>796.0</ele><time>2026-04-25T10:54:35.795Z</time></trkpt><trkpt lat="45.896168780503835" lon="8.839562310102071"><ele>791.5</ele><time>2026-04-25T10:54:36.795Z</time></trkpt><trkpt lat="45.89621034481422" lon="8.839739711893642"><ele>787.0</ele><time>2026-04-25T10:54:37.793Z</time></trkpt><trkpt lat="45.89624435565546" lon="8.839869593107185"><ele>787.0</ele><time>2026-04-25T10:54:38.793Z</time></trkpt><trkpt lat="45.89627693597851" lon="8.839962374013076"><ele>787.0</ele><time>2026-04-25T10:54:39.793Z</time></trkpt><trkpt lat="45.89637123014612" lon="8.840103915476195"><ele>787.0</ele><time>2026-04-25T10:54:40.792Z</time></trkpt><trkpt lat="45.89648574856465" lon="8.84021720432719"><ele>787.0</ele><time>2026-04-25T10:54:41.792Z</time></trkpt><trkpt lat="45.89661095453419" lon="8.84033581306291"><ele>782.75</ele><time>2026-04-25T10:54:42.792Z</time></trkpt><trkpt lat="45.89670118216708" lon="8.840413828911162"><ele>778.5</ele><time>2026-04-25T10:54:43.793Z</time></trkpt><trkpt lat="45.8967917466725" lon="8.840474860973643"><ele>774.25</ele><time>2026-04-25T10:54:44.792Z</time></trkpt><trkpt lat="45.896919694191816" lon="8.840518530504353"><ele>770.0</ele><time>2026-04-25T10:54:45.792Z</time></trkpt><trkpt lat="45.89704166742231" lon="8.840543247492514"><ele>770.0</ele><time>2026-04-25T10:54:46.792Z</time></trkpt><trkpt lat="45.89717839722039" lon="8.840551108770597"><ele>770.0</ele><time>2026-04-25T10:54:47.792Z</time></trkpt><trkpt lat="45.89730915727224" lon="8.840553367011195"><ele>770.0</ele><time>2026-04-25T10:54:48.792Z</time></trkpt><trkpt lat="45.89743870986769" lon="8.840546907084917"><ele>770.0</ele><time>2026-04-25T10:54:49.793Z</time></trkpt><trkpt lat="45.89756100837204" lon="8.840528165251209"><ele>772.0000000000001</ele><time>2026-04-25T10:54:50.792Z</time></trkpt><trkpt lat="45.89767634723722" lon="8.840489909577682"><ele>774.0</ele><time>2026-04-25T10:54:51.792Z</time></trkpt><trkpt lat="45.89777606770517" lon="8.840477033867039"><ele>776.0</ele><time>2026-04-25T10:54:52.792Z</time></trkpt><trkpt lat="45.89785336115989" lon="8.840506486869621"><ele>778.0</ele><time>2026-04-25T10:54:53.792Z</time></trkpt><trkpt lat="45.897917212152024" lon="8.840564243051118"><ele>780.0000000000001</ele><time>2026-04-25T10:54:54.792Z</time></trkpt><trkpt lat="45.89795530487612" lon="8.840648125836806"><ele>782.0</ele><time>2026-04-25T10:54:55.792Z</time></trkpt><trkpt lat="45.897967661015144" lon="8.840767739908658"><ele>782.0</ele><time>2026-04-25T10:54:56.792Z</time></trkpt><trkpt lat="45.898004191904214" lon="8.840921476251808"><ele>782.0</ele><time>2026-04-25T10:54:57.792Z</time></trkpt><trkpt lat="45.8980830732289" lon="8.841096317648073"><ele>782.0</ele><time>2026-04-25T10:54:58.792Z</time></trkpt><trkpt lat="45.898171556905424" lon="8.841249501273918"><ele>782.0</ele><time>2026-04-25T10:54:59.792Z</time></trkpt><trkpt lat="45.898258039953525" lon="8.841388454116277"><ele>782.25</ele><time>2026-04-25T10:55:00.792Z</time></trkpt><trkpt lat="45.89834107911918" lon="8.841527344980475"><ele>782.5</ele><time>2026-04-25T10:55:01.792Z</time></trkpt><trkpt lat="45.89842615510081" lon="8.841669665816736"><ele>782.75</ele><time>2026-04-25T10:55:02.792Z</time></trkpt><trkpt lat="45.89850851139437" lon="8.841804577982726"><ele>783.0</ele><time>2026-04-25T10:55:03.792Z</time></trkpt><trkpt lat="45.89859158494572" lon="8.841936288215704"><ele>776.75</ele><time>2026-04-25T10:55:04.792Z</time></trkpt><trkpt lat="45.898678521197674" lon="8.842067953456805"><ele>770.5</ele><time>2026-04-25T10:55:05.792Z</time></trkpt><trkpt lat="45.898769905915614" lon="8.842197674401053"><ele>764.25</ele><time>2026-04-25T10:55:06.792Z</time></trkpt><trkpt lat="45.898854042575685" lon="8.842313354240199"><ele>758.0</ele><time>2026-04-25T10:55:07.792Z</time></trkpt><trkpt lat="45.89893914221254" lon="8.842427676646391"><ele>758.0</ele><time>2026-04-25T10:55:08.792Z</time></trkpt><trkpt lat="45.89901912962388" lon="8.842533273963209"><ele>758.0</ele><time>2026-04-25T10:55:09.792Z</time></trkpt><trkpt lat="45.89909823419192" lon="8.842637707298499"><ele>758.0</ele><time>2026-04-25T10:55:10.792Z</time></trkpt><trkpt lat="45.89920273810911" lon="8.842731074695909"><ele>758.0</ele><time>2026-04-25T10:55:11.792Z</time></trkpt><trkpt lat="45.89928199523697" lon="8.84286531707712"><ele>756.0</ele><time>2026-04-25T10:55:12.792Z</time></trkpt><trkpt lat="45.899373809573156" lon="8.842984551953965"><ele>754.0</ele><time>2026-04-25T10:55:13.792Z</time></trkpt><trkpt lat="45.89946964089031" lon="8.84308477870941"><ele>752.0</ele><time>2026-04-25T10:55:14.792Z</time></trkpt><trkpt lat="45.89955739188676" lon="8.843168053010391"><ele>750.0</ele><time>2026-04-25T10:55:15.792Z</time></trkpt><trkpt lat="45.89962472403884" lon="8.843225639488141"><ele>748.0</ele><time>2026-04-25T10:55:16.792Z</time></trkpt><trkpt lat="45.89968588966276" lon="8.843280477274668"><ele>748.0</ele><time>2026-04-25T10:55:17.792Z</time></trkpt><trkpt lat="45.899748075416916" lon="8.843326094210703"><ele>748.0</ele><time>2026-04-25T10:55:18.792Z</time></trkpt><trkpt lat="45.89987365981996" lon="8.843352207218754"><ele>748.0</ele><time>2026-04-25T10:55:20.792Z</time></trkpt><trkpt lat="45.89994576920031" lon="8.843317544213692"><ele>748.0</ele><time>2026-04-25T10:55:21.792Z</time></trkpt><trkpt lat="45.89999604973235" lon="8.843224122363319"><ele>748.0</ele><time>2026-04-25T10:55:22.792Z</time></trkpt><trkpt lat="45.90003441806625" lon="8.84312870936905"><ele>748.0</ele><time>2026-04-25T10:55:23.792Z</time></trkpt><trkpt lat="45.90009816089421" lon="8.843063292698178"><ele>748.4</ele><time>2026-04-25T10:55:24.792Z</time></trkpt><trkpt lat="45.90017341177536" lon="8.843052824162191"><ele>748.8</ele><time>2026-04-25T10:55:25.792Z</time></trkpt><trkpt lat="45.9002354295793" lon="8.843077442048967"><ele>749.2</ele><time>2026-04-25T10:55:26.792Z</time></trkpt><trkpt lat="45.900373146084185" lon="8.843101352417749"><ele>749.6</ele><time>2026-04-25T10:55:28.792Z</time></trkpt><trkpt lat="45.90048664893614" lon="8.843094070583648"><ele>750.0</ele><time>2026-04-25T10:55:29.792Z</time></trkpt><trkpt lat="45.90059516024444" lon="8.84309169886538"><ele>750.0</ele><time>2026-04-25T10:55:30.792Z</time></trkpt><trkpt lat="45.90068335250549" lon="8.843130760337012"><ele>750.0</ele><time>2026-04-25T10:55:31.792Z</time></trkpt><trkpt lat="45.90075481861114" lon="8.843202888642349"><ele>750.0</ele><time>2026-04-25T10:55:32.792Z</time></trkpt><trkpt lat="45.90081476642496" lon="8.843280196727495"><ele>750.0</ele><time>2026-04-25T10:55:33.792Z</time></trkpt><trkpt lat="45.90087048563452" lon="8.8433483095425"><ele>750.0</ele><time>2026-04-25T10:55:34.792Z</time></trkpt><trkpt lat="45.90090174501833" lon="8.843436170368163"><ele>750.0</ele><time>2026-04-25T10:55:35.792Z</time></trkpt><trkpt lat="45.900937055053724" lon="8.843513905486198"><ele>748.0</ele><time>2026-04-25T10:55:36.792Z</time></trkpt><trkpt lat="45.900924904605084" lon="8.843655180644847"><ele>746.0</ele><time>2026-04-25T10:55:37.792Z</time></trkpt><trkpt lat="45.90091263781428" lon="8.843788344291353"><ele>744.0</ele><time>2026-04-25T10:55:38.792Z</time></trkpt><trkpt lat="45.900885802133864" lon="8.843912524117718"><ele>742.0</ele><time>2026-04-25T10:55:39.792Z</time></trkpt><trkpt lat="45.90084639012374" lon="8.844029026097829"><ele>740.0</ele><time>2026-04-25T10:55:40.792Z</time></trkpt><trkpt lat="45.90076693963959" lon="8.844100516697019"><ele>740.0</ele><time>2026-04-25T10:55:41.792Z</time></trkpt><trkpt lat="45.90067238605768" lon="8.84412303692837"><ele>740.0</ele><time>2026-04-25T10:55:42.792Z</time></trkpt><trkpt lat="45.900577893787414" lon="8.844155108937807"><ele>740.0</ele><time>2026-04-25T10:55:43.792Z</time></trkpt><trkpt lat="45.90049164646929" lon="8.8442035424326"><ele>740.0</ele><time>2026-04-25T10:55:44.792Z</time></trkpt><trkpt lat="45.90044878158117" lon="8.8442764238601"><ele>740.0</ele><time>2026-04-25T10:55:45.792Z</time></trkpt><trkpt lat="45.90043518949509" lon="8.844378850434664"><ele>740.0</ele><time>2026-04-25T10:55:46.792Z</time></trkpt><trkpt lat="45.90045712299234" lon="8.844491633864903"><ele>739.0</ele><time>2026-04-25T10:55:47.792Z</time></trkpt><trkpt lat="45.90047612149425" lon="8.844619351064672"><ele>738.0</ele><time>2026-04-25T10:55:48.792Z</time></trkpt><trkpt lat="45.90050431658627" lon="8.844770038794824"><ele>737.0</ele><time>2026-04-25T10:55:49.792Z</time></trkpt><trkpt lat="45.90052375091855" lon="8.844952170218127"><ele>736.0</ele><time>2026-04-25T10:55:50.792Z</time></trkpt><trkpt lat="45.90051952055937" lon="8.845159281858935"><ele>734.5</ele><time>2026-04-25T10:55:51.792Z</time></trkpt><trkpt lat="45.90048789839787" lon="8.845349076446071"><ele>733.0</ele><time>2026-04-25T10:55:52.792Z</time></trkpt><trkpt lat="45.900455476025954" lon="8.845537189969995"><ele>731.5</ele><time>2026-04-25T10:55:53.792Z</time></trkpt><trkpt lat="45.900422767018455" lon="8.845740775536246"><ele>730.0</ele><time>2026-04-25T10:55:54.792Z</time></trkpt><trkpt lat="45.90041265547447" lon="8.84593531019903"><ele>728.75</ele><time>2026-04-25T10:55:55.792Z</time></trkpt><trkpt lat="45.9004223242656" lon="8.84612553044581"><ele>727.5</ele><time>2026-04-25T10:55:56.792Z</time></trkpt><trkpt lat="45.90043274491442" lon="8.846302648329445"><ele>726.25</ele><time>2026-04-25T10:55:57.792Z</time></trkpt><trkpt lat="45.900455236718535" lon="8.846455661738334"><ele>725.0</ele><time>2026-04-25T10:55:58.792Z</time></trkpt><trkpt lat="45.900484362559325" lon="8.846605355087998"><ele>725.0</ele><time>2026-04-25T10:55:59.792Z</time></trkpt><trkpt lat="45.90052110795167" lon="8.846745766461133"><ele>725.0</ele><time>2026-04-25T10:56:00.792Z</time></trkpt><trkpt lat="45.90057265436387" lon="8.84688948537057"><ele>725.0</ele><time>2026-04-25T10:56:01.792Z</time></trkpt><trkpt lat="45.90063914812323" lon="8.847018327604134"><ele>725.0</ele><time>2026-04-25T10:56:02.792Z</time></trkpt><trkpt lat="45.90070605238452" lon="8.847124913748017"><ele>725.0</ele><time>2026-04-25T10:56:03.792Z</time></trkpt><trkpt lat="45.90077771575679" lon="8.847219578592957"><ele>725.25</ele><time>2026-04-25T10:56:04.792Z</time></trkpt><trkpt lat="45.900875235982866" lon="8.847327470604734"><ele>725.5</ele><time>2026-04-25T10:56:05.792Z</time></trkpt><trkpt lat="45.900985225283485" lon="8.847431222409046"><ele>725.75</ele><time>2026-04-25T10:56:06.792Z</time></trkpt><trkpt lat="45.90108424438184" lon="8.847545108626575"><ele>726.0</ele><time>2026-04-25T10:56:07.792Z</time></trkpt><trkpt lat="45.901166515290065" lon="8.847679062450192"><ele>726.0</ele><time>2026-04-25T10:56:08.792Z</time></trkpt><trkpt lat="45.90122424634854" lon="8.847835180562097"><ele>726.0</ele><time>2026-04-25T10:56:09.792Z</time></trkpt><trkpt lat="45.90127118370613" lon="8.847996298001652"><ele>726.0</ele><time>2026-04-25T10:56:10.792Z</time></trkpt><trkpt lat="45.90129401942249" lon="8.848190865985355"><ele>726.0</ele><time>2026-04-25T10:56:11.792Z</time></trkpt><trkpt lat="45.90129453928941" lon="8.848422560792983"><ele>722.6666666666666</ele><time>2026-04-25T10:56:12.792Z</time></trkpt><trkpt lat="45.90127291641536" lon="8.848659508210524"><ele>719.3333333333333</ele><time>2026-04-25T10:56:13.792Z</time></trkpt><trkpt lat="45.90122956137654" lon="8.848914300173194"><ele>716.0</ele><time>2026-04-25T10:56:14.792Z</time></trkpt><trkpt lat="45.901206993894284" lon="8.849130104682075"><ele>712.25</ele><time>2026-04-25T10:56:15.792Z</time></trkpt><trkpt lat="45.90118481711114" lon="8.849321020657733"><ele>708.5</ele><time>2026-04-25T10:56:16.792Z</time></trkpt><trkpt lat="45.90116827891293" lon="8.849482024877954"><ele>704.75</ele><time>2026-04-25T10:56:17.792Z</time></trkpt><trkpt lat="45.90115664455995" lon="8.849658385389192"><ele>701.0</ele><time>2026-04-25T10:56:18.792Z</time></trkpt><trkpt lat="45.90115701961648" lon="8.849826333521788"><ele>701.0</ele><time>2026-04-25T10:56:19.792Z</time></trkpt><trkpt lat="45.901170321665006" lon="8.85001978891648"><ele>701.0</ele><time>2026-04-25T10:56:20.792Z</time></trkpt><trkpt lat="45.901196817285935" lon="8.850202798518517"><ele>701.0</ele><time>2026-04-25T10:56:21.792Z</time></trkpt><trkpt lat="45.90123603754591" lon="8.850352392849382"><ele>701.0</ele><time>2026-04-25T10:56:22.792Z</time></trkpt><trkpt lat="45.90129114784836" lon="8.850477892372977"><ele>697.4</ele><time>2026-04-25T10:56:23.792Z</time></trkpt><trkpt lat="45.90136490668166" lon="8.850564038167763"><ele>693.8</ele><time>2026-04-25T10:56:24.792Z</time></trkpt><trkpt lat="45.90144303414892" lon="8.850603918130798"><ele>690.1999999999999</ele><time>2026-04-25T10:56:25.792Z</time></trkpt><trkpt lat="45.90153107473839" lon="8.850593269441683"><ele>686.5999999999999</ele><time>2026-04-25T10:56:26.792Z</time></trkpt><trkpt lat="45.901625473530416" lon="8.850555340368562"><ele>683.0</ele><time>2026-04-25T10:56:27.792Z</time></trkpt><trkpt lat="45.901756640636385" lon="8.850488643254113"><ele>681.25</ele><time>2026-04-25T10:56:28.792Z</time></trkpt><trkpt lat="45.90188838516007" lon="8.850423458197605"><ele>679.5</ele><time>2026-04-25T10:56:29.792Z</time></trkpt><trkpt lat="45.902014629660194" lon="8.850370452967656"><ele>677.75</ele><time>2026-04-25T10:56:30.792Z</time></trkpt><trkpt lat="45.90213070420038" lon="8.850327801977127"><ele>676.0</ele><time>2026-04-25T10:56:31.792Z</time></trkpt><trkpt lat="45.90223784548656" lon="8.850311703001749"><ele>676.0</ele><time>2026-04-25T10:56:32.793Z</time></trkpt><trkpt lat="45.90233771867036" lon="8.85032978537716"><ele>676.0</ele><time>2026-04-25T10:56:33.793Z</time></trkpt><trkpt lat="45.9024243070584" lon="8.850383002114688"><ele>676.0</ele><time>2026-04-25T10:56:34.793Z</time></trkpt><trkpt lat="45.902512300693466" lon="8.850401631238208"><ele>676.0</ele><time>2026-04-25T10:56:35.793Z</time></trkpt><trkpt lat="45.90259781942069" lon="8.850401399279349"><ele>676.0</ele><time>2026-04-25T10:56:36.793Z</time></trkpt><trkpt lat="45.902700776675964" lon="8.850361440659746"><ele>678.1999999999999</ele><time>2026-04-25T10:56:37.793Z</time></trkpt><trkpt lat="45.90279568159366" lon="8.850284841261052"><ele>680.4</ele><time>2026-04-25T10:56:38.793Z</time></trkpt><trkpt lat="45.90288428596104" lon="8.850190970248462"><ele>682.6</ele><time>2026-04-25T10:56:39.793Z</time></trkpt><trkpt lat="45.90297408088317" lon="8.85011902544287"><ele>684.8</ele><time>2026-04-25T10:56:40.793Z</time></trkpt><trkpt lat="45.903047512404385" lon="8.85008696840739"><ele>687.0</ele><time>2026-04-25T10:56:41.793Z</time></trkpt><trkpt lat="45.90311289190741" lon="8.850082789686917"><ele>687.0</ele><time>2026-04-25T10:56:42.793Z</time></trkpt><trkpt lat="45.903173706712955" lon="8.850141354058765"><ele>687.0</ele><time>2026-04-25T10:56:43.79Z</time></trkpt><trkpt lat="45.903237916264075" lon="8.850259409556024"><ele>687.0</ele><time>2026-04-25T10:56:44.79Z</time></trkpt><trkpt lat="45.903293273265604" lon="8.850367666476382"><ele>687.0</ele><time>2026-04-25T10:56:45.79Z</time></trkpt><trkpt lat="45.90333035275753" lon="8.850490452635691"><ele>687.0</ele><time>2026-04-25T10:56:46.791Z</time></trkpt><trkpt lat="45.90334908052529" lon="8.850621398837665"><ele>687.0</ele><time>2026-04-25T10:56:47.791Z</time></trkpt><trkpt lat="45.90334336467007" lon="8.85076244086479"><ele>687.0</ele><time>2026-04-25T10:56:48.791Z</time></trkpt><trkpt lat="45.90331786218192" lon="8.850874631921409"><ele>687.0</ele><time>2026-04-25T10:56:49.79Z</time></trkpt><trkpt lat="45.90328320748551" lon="8.850980567087996"><ele>687.0</ele><time>2026-04-25T10:56:50.79Z</time></trkpt><trkpt lat="45.903260543927324" lon="8.851089733666074"><ele>687.0</ele><time>2026-04-25T10:56:51.79Z</time></trkpt><trkpt lat="45.90326032065437" lon="8.851213583714879"><ele>687.0</ele><time>2026-04-25T10:56:52.79Z</time></trkpt><trkpt lat="45.903293170725874" lon="8.851365205660056"><ele>686.0</ele><time>2026-04-25T10:56:53.79Z</time></trkpt><trkpt lat="45.903344190908605" lon="8.851544904314967"><ele>685.0</ele><time>2026-04-25T10:56:54.79Z</time></trkpt><trkpt lat="45.90341680577069" lon="8.85175182163105"><ele>684.0</ele><time>2026-04-25T10:56:55.79Z</time></trkpt><trkpt lat="45.90349608531135" lon="8.851959748262363"><ele>687.2</ele><time>2026-04-25T10:56:56.79Z</time></trkpt><trkpt lat="45.90357099274452" lon="8.85214286592986"><ele>690.4000000000001</ele><time>2026-04-25T10:56:57.79Z</time></trkpt><trkpt lat="45.903633584113315" lon="8.852287733326168"><ele>693.6</ele><time>2026-04-25T10:56:58.79Z</time></trkpt><trkpt lat="45.90367977875211" lon="8.852412362995942"><ele>696.8</ele><time>2026-04-25T10:56:59.79Z</time></trkpt><trkpt lat="45.90371960879659" lon="8.852512573133856"><ele>700.0</ele><time>2026-04-25T10:57:00.79Z</time></trkpt><trkpt lat="45.90377941342084" lon="8.852605067543161"><ele>695.8</ele><time>2026-04-25T10:57:01.79Z</time></trkpt><trkpt lat="45.90384069854845" lon="8.852695003364365"><ele>691.6</ele><time>2026-04-25T10:57:02.79Z</time></trkpt><trkpt lat="45.90389950774253" lon="8.85277600504236"><ele>687.4000000000001</ele><time>2026-04-25T10:57:03.79Z</time></trkpt><trkpt lat="45.903963468977736" lon="8.852855240613678"><ele>683.2</ele><time>2026-04-25T10:57:04.79Z</time></trkpt><trkpt lat="45.90404862240029" lon="8.852932479757357"><ele>679.0</ele><time>2026-04-25T10:57:05.79Z</time></trkpt><trkpt lat="45.90415280178533" lon="8.85302121918939"><ele>680.25</ele><time>2026-04-25T10:57:06.79Z</time></trkpt><trkpt lat="45.90427941316933" lon="8.853094951273153"><ele>681.5</ele><time>2026-04-25T10:57:07.79Z</time></trkpt><trkpt lat="45.90440918535572" lon="8.853158201537276"><ele>682.75</ele><time>2026-04-25T10:57:08.79Z</time></trkpt><trkpt lat="45.90453093074758" lon="8.853206818788378"><ele>684.0</ele><time>2026-04-25T10:57:09.79Z</time></trkpt><trkpt lat="45.904649405855125" lon="8.853233912652883"><ele>684.0</ele><time>2026-04-25T10:57:10.79Z</time></trkpt><trkpt lat="45.90474966311041" lon="8.853266490771558"><ele>684.0</ele><time>2026-04-25T10:57:11.79Z</time></trkpt><trkpt lat="45.90483822237132" lon="8.853274084033844"><ele>684.0</ele><time>2026-04-25T10:57:12.79Z</time></trkpt><trkpt lat="45.90493149524866" lon="8.853248640173662"><ele>684.0</ele><time>2026-04-25T10:57:13.79Z</time></trkpt><trkpt lat="45.90504982917925" lon="8.853199026020114"><ele>684.0</ele><time>2026-04-25T10:57:14.79Z</time></trkpt><trkpt lat="45.90520320336132" lon="8.853143021521078"><ele>681.0</ele><time>2026-04-25T10:57:15.79Z</time></trkpt><trkpt lat="45.90535361135621" lon="8.853089561833261"><ele>678.0</ele><time>2026-04-25T10:57:16.79Z</time></trkpt><trkpt lat="45.90550254767137" lon="8.85304986097812"><ele>675.0</ele><time>2026-04-25T10:57:17.79Z</time></trkpt><trkpt lat="45.90565008642769" lon="8.853033483154821"><ele>675.0</ele><time>2026-04-25T10:57:18.79Z</time></trkpt><trkpt lat="45.905791935495344" lon="8.85301742842111"><ele>675.0</ele><time>2026-04-25T10:57:19.79Z</time></trkpt><trkpt lat="45.90592448112655" lon="8.852978087372723"><ele>675.0</ele><time>2026-04-25T10:57:20.79Z</time></trkpt><trkpt lat="45.90606175854224" lon="8.852931554376436"><ele>675.0</ele><time>2026-04-25T10:57:21.79Z</time></trkpt><trkpt lat="45.90619040136824" lon="8.852890023627815"><ele>676.4</ele><time>2026-04-25T10:57:22.79Z</time></trkpt><trkpt lat="45.90631638801068" lon="8.852860385408542"><ele>677.8</ele><time>2026-04-25T10:57:23.79Z</time></trkpt><trkpt lat="45.90643268646062" lon="8.852858232488884"><ele>679.2</ele><time>2026-04-25T10:57:24.79Z</time></trkpt><trkpt lat="45.90653422932719" lon="8.852860841703487"><ele>680.6</ele><time>2026-04-25T10:57:25.79Z</time></trkpt><trkpt lat="45.90662618188482" lon="8.852882470921784"><ele>682.0</ele><time>2026-04-25T10:57:26.79Z</time></trkpt><trkpt lat="45.90668142747808" lon="8.853036907228297"><ele>682.0</ele><time>2026-04-25T10:57:28.79Z</time></trkpt><trkpt lat="45.90664631429693" lon="8.853168982358326"><ele>682.0</ele><time>2026-04-25T10:57:29.79Z</time></trkpt><trkpt lat="45.90660590918865" lon="8.853309795253985"><ele>682.0</ele><time>2026-04-25T10:57:30.79Z</time></trkpt><trkpt lat="45.906582049990575" lon="8.853454285267043"><ele>682.0</ele><time>2026-04-25T10:57:31.79Z</time></trkpt><trkpt lat="45.90656296938024" lon="8.853624889277402"><ele>682.0</ele><time>2026-04-25T10:57:32.79Z</time></trkpt><trkpt lat="45.906554025490124" lon="8.853804359361124"><ele>680.25</ele><time>2026-04-25T10:57:33.79Z</time></trkpt><trkpt lat="45.90654820744953" lon="8.853978689641437"><ele>678.5</ele><time>2026-04-25T10:57:34.79Z</time></trkpt><trkpt lat="45.906530653306056" lon="8.854179353602612"><ele>676.75</ele><time>2026-04-25T10:57:35.79Z</time></trkpt><trkpt lat="45.906504955157324" lon="8.854386695227806"><ele>675.0</ele><time>2026-04-25T10:57:36.79Z</time></trkpt><trkpt lat="45.90646998578036" lon="8.854586982379091"><ele>673.3333333333334</ele><time>2026-04-25T10:57:37.79Z</time></trkpt><trkpt lat="45.90641537846332" lon="8.854724720711808"><ele>671.6666666666666</ele><time>2026-04-25T10:57:38.79Z</time></trkpt><trkpt lat="45.906366096821294" lon="8.854845994702911"><ele>670.0</ele><time>2026-04-25T10:57:39.79Z</time></trkpt><trkpt lat="45.90635384363195" lon="8.854956228205644"><ele>668.3333333333333</ele><time>2026-04-25T10:57:40.79Z</time></trkpt><trkpt lat="45.90638028744078" lon="8.855047107274782"><ele>666.6666666666666</ele><time>2026-04-25T10:57:41.79Z</time></trkpt><trkpt lat="45.90642448371405" lon="8.855144723979931"><ele>665.0</ele><time>2026-04-25T10:57:42.79Z</time></trkpt><trkpt lat="45.90646853134105" lon="8.855241945005714"><ele>664.0</ele><time>2026-04-25T10:57:43.79Z</time></trkpt><trkpt lat="45.90650090427501" lon="8.855340206446847"><ele>663.0</ele><time>2026-04-25T10:57:44.79Z</time></trkpt><trkpt lat="45.90653029317139" lon="8.855461421541357"><ele>662.0</ele><time>2026-04-25T10:57:46.79Z</time></trkpt><trkpt lat="45.906565493935275" lon="8.85560231088239"><ele>661.0</ele><time>2026-04-25T10:59:18.788Z</time></trkpt><trkpt lat="45.90648071655098" lon="8.855725847365457"><ele>660.0</ele><time>2026-04-25T10:59:20.788Z</time></trkpt><trkpt lat="45.90637412419834" lon="8.855776502427155"><ele>660.0</ele><time>2026-04-25T10:59:21.788Z</time></trkpt><trkpt lat="45.90626810238142" lon="8.855810418399683"><ele>660.0</ele><time>2026-04-25T10:59:22.788Z</time></trkpt><trkpt lat="45.90616386930922" lon="8.85587046708382"><ele>660.0</ele><time>2026-04-25T10:59:23.788Z</time></trkpt><trkpt lat="45.90605321925378" lon="8.85595292865195"><ele>660.0</ele><time>2026-04-25T10:59:24.788Z</time></trkpt><trkpt lat="45.90594701419672" lon="8.85604970259409"><ele>660.5</ele><time>2026-04-25T10:59:25.788Z</time></trkpt><trkpt lat="45.90585990561114" lon="8.856173792608136"><ele>661.0</ele><time>2026-04-25T10:59:26.788Z</time></trkpt><trkpt lat="45.905764693196666" lon="8.856262031507805"><ele>661.5</ele><time>2026-04-25T10:59:27.788Z</time></trkpt><trkpt lat="45.90568232766027" lon="8.856372973581015"><ele>662.0</ele><time>2026-04-25T10:59:28.788Z</time></trkpt><trkpt lat="45.905574416381" lon="8.856437721561287"><ele>662.0</ele><time>2026-04-25T10:59:29.788Z</time></trkpt><trkpt lat="45.90545603994632" lon="8.85648726008292"><ele>662.0</ele><time>2026-04-25T10:59:30.788Z</time></trkpt><trkpt lat="45.90533714659897" lon="8.85652944056599"><ele>662.0</ele><time>2026-04-25T10:59:31.788Z</time></trkpt><trkpt lat="45.905217420455955" lon="8.856581163409063"><ele>662.0</ele><time>2026-04-25T10:59:32.788Z</time></trkpt><trkpt lat="45.905098131840454" lon="8.856715825529436"><ele>659.25</ele><time>2026-04-25T10:59:33.788Z</time></trkpt><trkpt lat="45.904998781565986" lon="8.85685521685678"><ele>656.5</ele><time>2026-04-25T10:59:34.788Z</time></trkpt><trkpt lat="45.90490999223975" lon="8.856969307076199"><ele>653.75</ele><time>2026-04-25T10:59:35.788Z</time></trkpt><trkpt lat="45.90482305402868" lon="8.857058163305489"><ele>651.0</ele><time>2026-04-25T10:59:36.788Z</time></trkpt><trkpt lat="45.90473603718278" lon="8.857168828739274"><ele>651.0</ele><time>2026-04-25T10:59:37.788Z</time></trkpt><trkpt lat="45.904675179864775" lon="8.857321487469461"><ele>651.0</ele><time>2026-04-25T10:59:38.788Z</time></trkpt><trkpt lat="45.90464075139999" lon="8.857530052395136"><ele>651.0</ele><time>2026-04-25T10:59:39.788Z</time></trkpt><trkpt lat="45.904609621130284" lon="8.857757656870895"><ele>651.0</ele><time>2026-04-25T10:59:40.788Z</time></trkpt><trkpt lat="45.90456870483353" lon="8.85796377213138"><ele>653.0</ele><time>2026-04-25T10:59:41.788Z</time></trkpt><trkpt lat="45.90452728079986" lon="8.858151110443183"><ele>655.0</ele><time>2026-04-25T10:59:42.788Z</time></trkpt><trkpt lat="45.904448926626806" lon="8.858315223311232"><ele>657.0</ele><time>2026-04-25T10:59:43.788Z</time></trkpt><trkpt lat="45.904366355508806" lon="8.858460945437699"><ele>659.0</ele><time>2026-04-25T10:59:44.788Z</time></trkpt><trkpt lat="45.90428389695192" lon="8.85857068912456"><ele>652.25</ele><time>2026-04-25T10:59:45.788Z</time></trkpt><trkpt lat="45.90421489488435" lon="8.8586963878777"><ele>645.5</ele><time>2026-04-25T10:59:46.788Z</time></trkpt><trkpt lat="45.90417961117426" lon="8.858845874530711"><ele>638.75</ele><time>2026-04-25T10:59:47.788Z</time></trkpt><trkpt lat="45.90416187576664" lon="8.85903537708307"><ele>632.0</ele><time>2026-04-25T10:59:48.788Z</time></trkpt><trkpt lat="45.904154156883685" lon="8.859214310631637"><ele>633.0</ele><time>2026-04-25T10:59:49.788Z</time></trkpt><trkpt lat="45.90412392010636" lon="8.85941094034129"><ele>634.0</ele><time>2026-04-25T10:59:50.788Z</time></trkpt><trkpt lat="45.904063348637955" lon="8.859578018108282"><ele>635.0</ele><time>2026-04-25T10:59:51.788Z</time></trkpt><trkpt lat="45.90398596313561" lon="8.859714555918428"><ele>636.0</ele><time>2026-04-25T10:59:52.788Z</time></trkpt><trkpt lat="45.903905017940005" lon="8.859844051811015"><ele>636.0</ele><time>2026-04-25T10:59:53.788Z</time></trkpt><trkpt lat="45.90378732024323" lon="8.859898846330154"><ele>636.0</ele><time>2026-04-25T10:59:54.788Z</time></trkpt><trkpt lat="45.903653385430076" lon="8.859908711923197"><ele>636.0</ele><time>2026-04-25T10:59:55.788Z</time></trkpt><trkpt lat="45.903535296672885" lon="8.859903224914186"><ele>636.0</ele><time>2026-04-25T10:59:56.788Z</time></trkpt><trkpt lat="45.903436008163574" lon="8.859892474384687"><ele>631.75</ele><time>2026-04-25T10:59:57.788Z</time></trkpt><trkpt lat="45.90333902806764" lon="8.859940950424685"><ele>627.5</ele><time>2026-04-25T10:59:58.788Z</time></trkpt><trkpt lat="45.90326571173664" lon="8.860058355166037"><ele>623.25</ele><time>2026-04-25T10:59:59.788Z</time></trkpt><trkpt lat="45.90324290821982" lon="8.86026971047755"><ele>619.0</ele><time>2026-04-25T11:00:00.788Z</time></trkpt><trkpt lat="45.9032443082835" lon="8.86051541404355"><ele>619.0</ele><time>2026-04-25T11:00:01.788Z</time></trkpt><trkpt lat="45.90325372392669" lon="8.860772763415964"><ele>619.0</ele><time>2026-04-25T11:00:02.788Z</time></trkpt><trkpt lat="45.90326847233394" lon="8.86101338602808"><ele>619.0</ele><time>2026-04-25T11:00:03.788Z</time></trkpt><trkpt lat="45.90329875490426" lon="8.861241164160255"><ele>619.75</ele><time>2026-04-25T11:00:04.788Z</time></trkpt><trkpt lat="45.903345236151196" lon="8.861459153903777"><ele>620.5</ele><time>2026-04-25T11:00:05.788Z</time></trkpt><trkpt lat="45.90341199926136" lon="8.861651941063412"><ele>621.25</ele><time>2026-04-25T11:00:06.788Z</time></trkpt><trkpt lat="45.90347758036617" lon="8.861823839542843"><ele>622.0</ele><time>2026-04-25T11:00:07.788Z</time></trkpt><trkpt lat="45.90354172390942" lon="8.861978973305886"><ele>622.0</ele><time>2026-04-25T11:00:08.788Z</time></trkpt><trkpt lat="45.903620123248395" lon="8.862131493573653"><ele>622.0</ele><time>2026-04-25T11:00:09.788Z</time></trkpt><trkpt lat="45.903713894112265" lon="8.862266798339618"><ele>622.0</ele><time>2026-04-25T11:00:10.788Z</time></trkpt><trkpt lat="45.9038088614511" lon="8.862381069591413"><ele>622.0</ele><time>2026-04-25T11:00:11.788Z</time></trkpt><trkpt lat="45.90387429576278" lon="8.862498312693534"><ele>622.25</ele><time>2026-04-25T11:00:12.788Z</time></trkpt><trkpt lat="45.90388979886462" lon="8.862615837095614"><ele>622.5</ele><time>2026-04-25T11:00:13.788Z</time></trkpt><trkpt lat="45.903807268401515" lon="8.862749226660748"><ele>622.75</ele><time>2026-04-25T11:00:15.788Z</time></trkpt><trkpt lat="45.90371789439831" lon="8.862887256601482"><ele>623.0</ele><time>2026-04-25T11:00:16.788Z</time></trkpt><trkpt lat="45.90362172309801" lon="8.863048820193233"><ele>623.0</ele><time>2026-04-25T11:00:17.788Z</time></trkpt><trkpt lat="45.90352487716791" lon="8.8632159502778"><ele>623.0</ele><time>2026-04-25T11:00:18.788Z</time></trkpt><trkpt lat="45.90343341443026" lon="8.8633788752384"><ele>623.0</ele><time>2026-04-25T11:00:19.788Z</time></trkpt><trkpt lat="45.903366325255" lon="8.863563545229798"><ele>623.0</ele><time>2026-04-25T11:00:20.788Z</time></trkpt><trkpt lat="45.90331042845131" lon="8.863778544169113"><ele>614.6666666666666</ele><time>2026-04-25T11:00:21.788Z</time></trkpt><trkpt lat="45.90325673954609" lon="8.863999913313783"><ele>606.3333333333334</ele><time>2026-04-25T11:00:22.788Z</time></trkpt><trkpt lat="45.903218798587844" lon="8.864226170390754"><ele>598.0</ele><time>2026-04-25T11:00:23.788Z</time></trkpt><trkpt lat="45.90321032081948" lon="8.864462452633845"><ele>596.0</ele><time>2026-04-25T11:00:24.788Z</time></trkpt><trkpt lat="45.90323337302999" lon="8.86472636660675"><ele>594.0</ele><time>2026-04-25T11:00:25.788Z</time></trkpt><trkpt lat="45.903271464333784" lon="8.864975079405513"><ele>592.0</ele><time>2026-04-25T11:00:26.788Z</time></trkpt><trkpt lat="45.90330722560564" lon="8.865207566920303"><ele>589.5</ele><time>2026-04-25T11:00:27.788Z</time></trkpt><trkpt lat="45.903339198274786" lon="8.865427215035318"><ele>587.0</ele><time>2026-04-25T11:00:28.788Z</time></trkpt><trkpt lat="45.903356965645145" lon="8.865627585072662"><ele>584.5</ele><time>2026-04-25T11:00:29.788Z</time></trkpt><trkpt lat="45.90336184511152" lon="8.865830024623643"><ele>582.0</ele><time>2026-04-25T11:00:30.788Z</time></trkpt><trkpt lat="45.90337018261297" lon="8.866031077154235"><ele>586.75</ele><time>2026-04-25T11:00:31.788Z</time></trkpt><trkpt lat="45.90342204424445" lon="8.866242865583509"><ele>591.5</ele><time>2026-04-25T11:00:32.788Z</time></trkpt><trkpt lat="45.90347620592598" lon="8.866418806373849"><ele>596.25</ele><time>2026-04-25T11:00:33.788Z</time></trkpt><trkpt lat="45.90351949296315" lon="8.866580482137373"><ele>601.0</ele><time>2026-04-25T11:00:34.788Z</time></trkpt><trkpt lat="45.90354478340333" lon="8.866736940225888"><ele>597.2</ele><time>2026-04-25T11:00:35.788Z</time></trkpt><trkpt lat="45.90356564752748" lon="8.866902829786937"><ele>593.4000000000001</ele><time>2026-04-25T11:00:36.788Z</time></trkpt><trkpt lat="45.90359942303663" lon="8.86705826316123"><ele>589.6</ele><time>2026-04-25T11:00:37.788Z</time></trkpt><trkpt lat="45.903648965980054" lon="8.867190238983273"><ele>585.8000000000001</ele><time>2026-04-25T11:00:38.788Z</time></trkpt><trkpt lat="45.90369526401019" lon="8.86729130826978"><ele>582.0</ele><time>2026-04-25T11:00:39.788Z</time></trkpt><trkpt lat="45.903733729523076" lon="8.867378210044707"><ele>582.0</ele><time>2026-04-25T11:00:40.788Z</time></trkpt><trkpt lat="45.90376101479479" lon="8.86746342054371"><ele>582.0</ele><time>2026-04-25T11:00:41.788Z</time></trkpt><trkpt lat="45.90379341784881" lon="8.867641279903797"><ele>582.0</ele><time>2026-04-25T11:00:43.788Z</time></trkpt><trkpt lat="45.903849431461836" lon="8.86772016550052"><ele>582.0</ele><time>2026-04-25T11:00:44.788Z</time></trkpt><trkpt lat="45.903859837756386" lon="8.8678157555493"><ele>582.0</ele><time>2026-04-25T11:00:45.788Z</time></trkpt><trkpt lat="45.903846765811075" lon="8.867993821841916"><ele>579.4</ele><time>2026-04-25T11:00:47.788Z</time></trkpt><trkpt lat="45.903794133228224" lon="8.868064783499632"><ele>576.8000000000001</ele><time>2026-04-25T11:00:48.788Z</time></trkpt><trkpt lat="45.90370110778338" lon="8.868081690204363"><ele>574.2</ele><time>2026-04-25T11:00:49.788Z</time></trkpt><trkpt lat="45.90360806700245" lon="8.868045038328482"><ele>571.6</ele><time>2026-04-25T11:00:50.788Z</time></trkpt><trkpt lat="45.90352024901979" lon="8.867972361639518"><ele>569.0</ele><time>2026-04-25T11:00:51.788Z</time></trkpt><trkpt lat="45.90345307441863" lon="8.867879191742015"><ele>568.6666666666666</ele><time>2026-04-25T11:00:52.788Z</time></trkpt><trkpt lat="45.90339017066101" lon="8.867778657135965"><ele>568.3333333333333</ele><time>2026-04-25T11:00:53.788Z</time></trkpt><trkpt lat="45.903328830494154" lon="8.867690691696424"><ele>568.0</ele><time>2026-04-25T11:00:54.788Z</time></trkpt><trkpt lat="45.903276454853554" lon="8.867605852479173"><ele>567.6666666666666</ele><time>2026-04-25T11:00:55.786Z</time></trkpt><trkpt lat="45.90322588748353" lon="8.86753485151904"><ele>567.3333333333334</ele><time>2026-04-25T11:00:56.786Z</time></trkpt><trkpt lat="45.90317192860726" lon="8.867483833762607"><ele>567.0</ele><time>2026-04-25T11:00:57.786Z</time></trkpt><trkpt lat="45.90306560998976" lon="8.867517432354244"><ele>567.0</ele><time>2026-04-25T11:00:59.785Z</time></trkpt><trkpt lat="45.90302183892753" lon="8.867584046403886"><ele>567.0</ele><time>2026-04-25T11:01:00.785Z</time></trkpt><trkpt lat="45.90306000848591" lon="8.867807957925628"><ele>567.0</ele><time>2026-04-25T11:01:02.785Z</time></trkpt><trkpt lat="45.903122746084755" lon="8.867956534172123"><ele>567.0</ele><time>2026-04-25T11:01:03.785Z</time></trkpt><trkpt lat="45.90319187908009" lon="8.868121502290549"><ele>564.6666666666666</ele><time>2026-04-25T11:01:04.785Z</time></trkpt><trkpt lat="45.90327120638733" lon="8.868302175167639"><ele>562.3333333333333</ele><time>2026-04-25T11:01:05.785Z</time></trkpt><trkpt lat="45.90337339331012" lon="8.868493089427753"><ele>560.0</ele><time>2026-04-25T11:01:06.785Z</time></trkpt><trkpt lat="45.903484424419084" lon="8.868679989410664"><ele>560.0</ele><time>2026-04-25T11:01:07.786Z</time></trkpt><trkpt lat="45.90359865527716" lon="8.868875682752932"><ele>560.0</ele><time>2026-04-25T11:01:08.785Z</time></trkpt><trkpt lat="45.90369900334333" lon="8.869087060164846"><ele>560.0</ele><time>2026-04-25T11:01:09.785Z</time></trkpt><trkpt lat="45.90378342153276" lon="8.869298066493325"><ele>556.3333333333333</ele><time>2026-04-25T11:01:10.785Z</time></trkpt><trkpt lat="45.903867646082595" lon="8.869523646130814"><ele>552.6666666666666</ele><time>2026-04-25T11:01:11.785Z</time></trkpt><trkpt lat="45.90395090823034" lon="8.869749643697139"><ele>549.0</ele><time>2026-04-25T11:01:12.785Z</time></trkpt><trkpt lat="45.904037023806346" lon="8.869983138771879"><ele>549.6666666666666</ele><time>2026-04-25T11:01:13.785Z</time></trkpt><trkpt lat="45.90412387929273" lon="8.870207778625806"><ele>550.3333333333333</ele><time>2026-04-25T11:01:14.785Z</time></trkpt><trkpt lat="45.904210975795" lon="8.870436511437717"><ele>551.0</ele><time>2026-04-25T11:01:15.785Z</time></trkpt><trkpt lat="45.904292830635704" lon="8.870649520422344"><ele>551.0</ele><time>2026-04-25T11:01:16.785Z</time></trkpt><trkpt lat="45.90439183991656" lon="8.870842575060815"><ele>551.0</ele><time>2026-04-25T11:01:17.785Z</time></trkpt><trkpt lat="45.904491595511445" lon="8.871000408397414"><ele>551.0</ele><time>2026-04-25T11:01:18.785Z</time></trkpt><trkpt lat="45.904591769230294" lon="8.87115346255259"><ele>550.0</ele><time>2026-04-25T11:01:19.785Z</time></trkpt><trkpt lat="45.904685980453586" lon="8.87129592400685"><ele>549.0</ele><time>2026-04-25T11:01:20.785Z</time></trkpt><trkpt lat="45.90477392288141" lon="8.87142964475798"><ele>548.0</ele><time>2026-04-25T11:01:21.785Z</time></trkpt><trkpt lat="45.90486006025846" lon="8.87155677743296"><ele>547.0</ele><time>2026-04-25T11:01:22.785Z</time></trkpt><trkpt lat="45.904951099712065" lon="8.871658472274666"><ele>547.0</ele><time>2026-04-25T11:01:23.785Z</time></trkpt><trkpt lat="45.90502642974532" lon="8.87174393661989"><ele>547.0</ele><time>2026-04-25T11:01:24.785Z</time></trkpt><trkpt lat="45.90509811258067" lon="8.871827656458755"><ele>547.0</ele><time>2026-04-25T11:01:25.785Z</time></trkpt><trkpt lat="45.90518796963179" lon="8.87193260283272"><ele>547.0</ele><time>2026-04-25T11:01:26.785Z</time></trkpt><trkpt lat="45.905308466997916" lon="8.872052425469562"><ele>543.6666666666667</ele><time>2026-04-25T11:01:27.785Z</time></trkpt><trkpt lat="45.905463100548076" lon="8.87216857536107"><ele>540.3333333333334</ele><time>2026-04-25T11:01:28.785Z</time></trkpt><trkpt lat="45.90561169431449" lon="8.8722723915956"><ele>537.0</ele><time>2026-04-25T11:01:29.785Z</time></trkpt><trkpt lat="45.90575917154847" lon="8.87237346170959"><ele>537.0</ele><time>2026-04-25T11:01:30.785Z</time></trkpt><trkpt lat="45.90590546260296" lon="8.872472196264066"><ele>537.0</ele><time>2026-04-25T11:01:31.785Z</time></trkpt><trkpt lat="45.90605276604914" lon="8.872571314913426"><ele>537.0</ele><time>2026-04-25T11:01:32.785Z</time></trkpt><trkpt lat="45.906199017596336" lon="8.872669535714008"><ele>535.0</ele><time>2026-04-25T11:01:33.785Z</time></trkpt><trkpt lat="45.906349171262626" lon="8.87277037715386"><ele>533.0</ele><time>2026-04-25T11:01:34.785Z</time></trkpt><trkpt lat="45.90650806075928" lon="8.872876897585378"><ele>531.0</ele><time>2026-04-25T11:01:35.785Z</time></trkpt><trkpt lat="45.90665862652468" lon="8.872977371516829"><ele>532.0</ele><time>2026-04-25T11:01:36.785Z</time></trkpt><trkpt lat="45.90679680029995" lon="8.87307096511542"><ele>533.0</ele><time>2026-04-25T11:01:37.785Z</time></trkpt><trkpt lat="45.906922453859856" lon="8.873161217572274"><ele>534.0</ele><time>2026-04-25T11:01:38.785Z</time></trkpt><trkpt lat="45.90705302856923" lon="8.873260594035234"><ele>535.0</ele><time>2026-04-25T11:01:39.785Z</time></trkpt><trkpt lat="45.90718429931358" lon="8.873375445609957"><ele>535.0</ele><time>2026-04-25T11:01:40.785Z</time></trkpt><trkpt lat="45.90730648398133" lon="8.873500812836044"><ele>535.0</ele><time>2026-04-25T11:01:41.785Z</time></trkpt><trkpt lat="45.90742516903402" lon="8.873628158510735"><ele>535.0</ele><time>2026-04-25T11:01:42.785Z</time></trkpt><trkpt lat="45.90754257113808" lon="8.873763793659917"><ele>535.0</ele><time>2026-04-25T11:01:43.785Z</time></trkpt><trkpt lat="45.907667590789956" lon="8.87391513327161"><ele>535.0</ele><time>2026-04-25T11:01:44.786Z</time></trkpt><trkpt lat="45.90779617199988" lon="8.87407267569176"><ele>535.0</ele><time>2026-04-25T11:01:45.786Z</time></trkpt><trkpt lat="45.90793882499503" lon="8.874215480269694"><ele>535.0</ele><time>2026-04-25T11:01:46.786Z</time></trkpt><trkpt lat="45.908102374625166" lon="8.87430952373775"><ele>533.6666666666667</ele><time>2026-04-25T11:01:47.786Z</time></trkpt><trkpt lat="45.90827222661136" lon="8.87439657568179"><ele>532.3333333333334</ele><time>2026-04-25T11:01:48.786Z</time></trkpt><trkpt lat="45.90845519064321" lon="8.874493192467757"><ele>531.0</ele><time>2026-04-25T11:01:49.786Z</time></trkpt><trkpt lat="45.908650811344856" lon="8.874586730310638"><ele>531.0</ele><time>2026-04-25T11:01:50.786Z</time></trkpt><trkpt lat="45.90881346087843" lon="8.874772186492343"><ele>531.0</ele><time>2026-04-25T11:01:51.786Z</time></trkpt><trkpt lat="45.90898239666225" lon="8.874950820277254"><ele>531.0</ele><time>2026-04-25T11:01:52.786Z</time></trkpt><trkpt lat="45.909134734928024" lon="8.875111903756423"><ele>533.3333333333334</ele><time>2026-04-25T11:01:53.786Z</time></trkpt><trkpt lat="45.9092759330417" lon="8.87526120762394"><ele>535.6666666666667</ele><time>2026-04-25T11:01:54.786Z</time></trkpt><trkpt lat="45.909405774526824" lon="8.87539850279807"><ele>538.0</ele><time>2026-04-25T11:01:55.786Z</time></trkpt><trkpt lat="45.90952490534733" lon="8.87552694677146"><ele>538.0</ele><time>2026-04-25T11:01:56.786Z</time></trkpt><trkpt lat="45.90964339470628" lon="8.875653537522151"><ele>538.0</ele><time>2026-04-25T11:01:57.786Z</time></trkpt><trkpt lat="45.90976632198829" lon="8.875769766305279"><ele>538.0</ele><time>2026-04-25T11:01:58.786Z</time></trkpt><trkpt lat="45.90990014588756" lon="8.875853099156057"><ele>538.0</ele><time>2026-04-25T11:01:59.786Z</time></trkpt><trkpt lat="45.910047956500705" lon="8.875921999387709"><ele>536.3333333333334</ele><time>2026-04-25T11:02:00.786Z</time></trkpt><trkpt lat="45.910193754081355" lon="8.876041413535777"><ele>534.6666666666666</ele><time>2026-04-25T11:02:01.786Z</time></trkpt><trkpt lat="45.9103508618537" lon="8.876121310500961"><ele>533.0</ele><time>2026-04-25T11:02:02.786Z</time></trkpt><trkpt lat="45.910506148682" lon="8.876231931362238"><ele>533.0</ele><time>2026-04-25T11:02:03.786Z</time></trkpt><trkpt lat="45.910663343365" lon="8.876350363022114"><ele>533.0</ele><time>2026-04-25T11:02:04.786Z</time></trkpt><trkpt lat="45.91080913773434" lon="8.876507436526124"><ele>533.0</ele><time>2026-04-25T11:02:05.786Z</time></trkpt><trkpt lat="45.91094838833224" lon="8.876665954449646"><ele>532.6666666666666</ele><time>2026-04-25T11:02:06.786Z</time></trkpt><trkpt lat="45.911089304752416" lon="8.876830288535048"><ele>532.3333333333334</ele><time>2026-04-25T11:02:07.786Z</time></trkpt><trkpt lat="45.91121288407466" lon="8.876989620112882"><ele>532.0</ele><time>2026-04-25T11:02:08.786Z</time></trkpt><trkpt lat="45.91132657058988" lon="8.877145181367107"><ele>532.0</ele><time>2026-04-25T11:02:09.786Z</time></trkpt><trkpt lat="45.91142933807734" lon="8.8773234762007"><ele>532.0</ele><time>2026-04-25T11:02:10.786Z</time></trkpt><trkpt lat="45.91154506116657" lon="8.877531695178885"><ele>532.0</ele><time>2026-04-25T11:02:11.786Z</time></trkpt><trkpt lat="45.91167629271863" lon="8.877713940610096"><ele>528.6666666666667</ele><time>2026-04-25T11:02:12.786Z</time></trkpt><trkpt lat="45.91180734753825" lon="8.877886844995897"><ele>525.3333333333334</ele><time>2026-04-25T11:02:13.786Z</time></trkpt><trkpt lat="45.91192949897512" lon="8.878058981858544"><ele>522.0</ele><time>2026-04-25T11:02:14.786Z</time></trkpt><trkpt lat="45.91205148389538" lon="8.878227873428937"><ele>522.0</ele><time>2026-04-25T11:02:15.786Z</time></trkpt><trkpt lat="45.9121805486132" lon="8.87838405659209"><ele>522.0</ele><time>2026-04-25T11:02:16.786Z</time></trkpt><trkpt lat="45.912318915250644" lon="8.878534678171587"><ele>522.0</ele><time>2026-04-25T11:02:17.786Z</time></trkpt><trkpt lat="45.91259739569742" lon="8.878831590802116"><ele>521.0</ele><time>2026-04-25T11:02:19.786Z</time></trkpt><trkpt lat="45.91271631840478" lon="8.878983939604794"><ele>520.0</ele><time>2026-04-25T11:02:20.786Z</time></trkpt><trkpt lat="45.91282213660612" lon="8.879158685185986"><ele>519.0</ele><time>2026-04-25T11:02:21.786Z</time></trkpt><trkpt lat="45.91292308578682" lon="8.879371948070446"><ele>516.6666666666666</ele><time>2026-04-25T11:02:22.786Z</time></trkpt><trkpt lat="45.91302201349573" lon="8.87959151264209"><ele>514.3333333333333</ele><time>2026-04-25T11:02:23.786Z</time></trkpt><trkpt lat="45.91311926703553" lon="8.879807915552323"><ele>512.0</ele><time>2026-04-25T11:02:24.786Z</time></trkpt><trkpt lat="45.913208573017286" lon="8.880010899203207"><ele>511.0</ele><time>2026-04-25T11:02:25.786Z</time></trkpt><trkpt lat="45.91329433434135" lon="8.880197158933"><ele>510.0</ele><time>2026-04-25T11:02:26.786Z</time></trkpt><trkpt lat="45.91337442498718" lon="8.88037056146497"><ele>509.0</ele><time>2026-04-25T11:02:27.786Z</time></trkpt><trkpt lat="45.9134811441898" lon="8.88052189623062"><ele>508.0</ele><time>2026-04-25T11:02:28.786Z</time></trkpt><trkpt lat="45.91355717386977" lon="8.880701919546876"><ele>507.0</ele><time>2026-04-25T11:02:29.786Z</time></trkpt><trkpt lat="45.91363520557456" lon="8.880881035447157"><ele>506.0</ele><time>2026-04-25T11:02:30.786Z</time></trkpt><trkpt lat="45.91370662627835" lon="8.881049824733593"><ele>505.0</ele><time>2026-04-25T11:02:31.786Z</time></trkpt><trkpt lat="45.91376421418016" lon="8.881237268561717"><ele>505.0</ele><time>2026-04-25T11:02:32.786Z</time></trkpt><trkpt lat="45.913854922752876" lon="8.88139476705561"><ele>505.0</ele><time>2026-04-25T11:02:33.786Z</time></trkpt><trkpt lat="45.913962485602255" lon="8.881528024784908"><ele>505.0</ele><time>2026-04-25T11:02:34.786Z</time></trkpt><trkpt lat="45.91408824847548" lon="8.8816046866183"><ele>505.0</ele><time>2026-04-25T11:02:35.786Z</time></trkpt><trkpt lat="45.91419951254205" lon="8.881660424483483"><ele>505.2</ele><time>2026-04-25T11:02:36.786Z</time></trkpt><trkpt lat="45.914285261960046" lon="8.88170399927837"><ele>505.4</ele><time>2026-04-25T11:02:37.786Z</time></trkpt><trkpt lat="45.91435371996543" lon="8.881764766178147"><ele>505.6</ele><time>2026-04-25T11:02:38.786Z</time></trkpt><trkpt lat="45.91441749485859" lon="8.881845825814086"><ele>505.8</ele><time>2026-04-25T11:02:39.786Z</time></trkpt><trkpt lat="45.91439964114597" lon="8.88199963710674"><ele>506.0</ele><time>2026-04-25T11:02:40.786Z</time></trkpt><trkpt lat="45.91434782563032" lon="8.88217446326342"><ele>504.66666666666663</ele><time>2026-04-25T11:02:41.786Z</time></trkpt><trkpt lat="45.91430588458645" lon="8.882373247278467"><ele>503.33333333333337</ele><time>2026-04-25T11:02:42.786Z</time></trkpt><trkpt lat="45.914260505477976" lon="8.88258832639103"><ele>502.0</ele><time>2026-04-25T11:02:43.786Z</time></trkpt><trkpt lat="45.914211928879894" lon="8.882817567874685"><ele>502.0</ele><time>2026-04-25T11:02:44.786Z</time></trkpt><trkpt lat="45.91416206080976" lon="8.88304964532009"><ele>502.0</ele><time>2026-04-25T11:02:45.786Z</time></trkpt><trkpt lat="45.91410902938426" lon="8.883293493433555"><ele>502.0</ele><time>2026-04-25T11:02:46.786Z</time></trkpt><trkpt lat="45.91405663590773" lon="8.883541259890473"><ele>502.0</ele><time>2026-04-25T11:02:47.786Z</time></trkpt><trkpt lat="45.91400663046148" lon="8.883785036415857"><ele>502.0</ele><time>2026-04-25T11:02:48.786Z</time></trkpt><trkpt lat="45.91396138066167" lon="8.884040618298416"><ele>502.0</ele><time>2026-04-25T11:02:49.786Z</time></trkpt><trkpt lat="45.913961554370765" lon="8.884308342038958"><ele>502.0</ele><time>2026-04-25T11:02:50.786Z</time></trkpt><trkpt lat="45.91398043228759" lon="8.88454328581502"><ele>502.0</ele><time>2026-04-25T11:02:51.786Z</time></trkpt><trkpt lat="45.91399349607615" lon="8.884754937898474"><ele>502.0</ele><time>2026-04-25T11:02:52.786Z</time></trkpt><trkpt lat="45.913979743461596" lon="8.884954348638802"><ele>502.0</ele><time>2026-04-25T11:02:53.786Z</time></trkpt><trkpt lat="45.91391853606576" lon="8.88515082311978"><ele>502.0</ele><time>2026-04-25T11:02:54.786Z</time></trkpt><trkpt lat="45.91385937270549" lon="8.885341207780215"><ele>502.0</ele><time>2026-04-25T11:02:55.786Z</time></trkpt><trkpt lat="45.913797406096286" lon="8.88552758941882"><ele>502.0</ele><time>2026-04-25T11:02:56.786Z</time></trkpt><trkpt lat="45.913755151845564" lon="8.885718376409928"><ele>502.0</ele><time>2026-04-25T11:02:57.786Z</time></trkpt><trkpt lat="45.91374079570762" lon="8.885926128380659"><ele>502.0</ele><time>2026-04-25T11:02:58.786Z</time></trkpt><trkpt lat="45.91372841436313" lon="8.886107052467175"><ele>502.0</ele><time>2026-04-25T11:02:59.786Z</time></trkpt><trkpt lat="45.913716059023464" lon="8.886295664615824"><ele>502.0</ele><time>2026-04-25T11:03:00.786Z</time></trkpt><trkpt lat="45.91372370866592" lon="8.886471265710929"><ele>502.0</ele><time>2026-04-25T11:03:01.783Z</time></trkpt><trkpt lat="45.913773937990236" lon="8.88666849106045"><ele>502.0</ele><time>2026-04-25T11:03:02.784Z</time></trkpt><trkpt lat="45.91382549986123" lon="8.886842834249139"><ele>502.0</ele><time>2026-04-25T11:03:03.784Z</time></trkpt><trkpt lat="45.913878199032375" lon="8.88701010744395"><ele>502.0</ele><time>2026-04-25T11:03:04.783Z</time></trkpt><trkpt lat="45.91395846655828" lon="8.88715133642166"><ele>502.0</ele><time>2026-04-25T11:03:05.783Z</time></trkpt><trkpt lat="45.914059928742766" lon="8.887249185664407"><ele>502.0</ele><time>2026-04-25T11:03:06.783Z</time></trkpt><trkpt lat="45.91416430552759" lon="8.887347394370337"><ele>502.0</ele><time>2026-04-25T11:03:07.784Z</time></trkpt><trkpt lat="45.91427593098201" lon="8.887446288186506"><ele>502.0</ele><time>2026-04-25T11:03:08.783Z</time></trkpt><trkpt lat="45.91436396046134" lon="8.88751534742983"><ele>502.0</ele><time>2026-04-25T11:03:09.783Z</time></trkpt><trkpt lat="45.91443342871473" lon="8.887577346579723"><ele>502.00000000000006</ele><time>2026-04-25T11:03:10.783Z</time></trkpt><trkpt lat="45.91447152105347" lon="8.887733665769474"><ele>502.00000000000006</ele><time>2026-04-25T11:03:12.783Z</time></trkpt><trkpt lat="45.914446560417375" lon="8.88781766372309"><ele>502.0</ele><time>2026-04-25T11:03:13.783Z</time></trkpt><trkpt lat="45.914361265688385" lon="8.88786075184995"><ele>502.0</ele><time>2026-04-25T11:03:14.783Z</time></trkpt><trkpt lat="45.914252059354844" lon="8.887833767553944"><ele>502.0</ele><time>2026-04-25T11:03:15.783Z</time></trkpt><trkpt lat="45.91413729390486" lon="8.887777150007391"><ele>502.0</ele><time>2026-04-25T11:03:16.783Z</time></trkpt><trkpt lat="45.91401717400315" lon="8.887726476717685"><ele>502.0</ele><time>2026-04-25T11:03:17.783Z</time></trkpt><trkpt lat="45.91390561638179" lon="8.887695102926369"><ele>502.0</ele><time>2026-04-25T11:03:18.783Z</time></trkpt><trkpt lat="45.91380504066428" lon="8.887682660787235"><ele>490.0</ele><time>2026-04-25T11:03:19.783Z</time></trkpt><trkpt lat="45.91368781466941" lon="8.887697732967776"><ele>478.0</ele><time>2026-04-25T11:03:20.783Z</time></trkpt><trkpt lat="45.913579297152275" lon="8.887816298652787"><ele>466.0</ele><time>2026-04-25T11:03:21.783Z</time></trkpt><trkpt lat="45.913469664673464" lon="8.88794121579442"><ele>454.0</ele><time>2026-04-25T11:03:22.783Z</time></trkpt><trkpt lat="45.91337464169387" lon="8.88807253654861"><ele>454.0</ele><time>2026-04-25T11:03:23.783Z</time></trkpt><trkpt lat="45.91325786107312" lon="8.888129162688447"><ele>454.0</ele><time>2026-04-25T11:03:24.783Z</time></trkpt><trkpt lat="45.913133014295134" lon="8.888161904222374"><ele>454.0</ele><time>2026-04-25T11:03:25.783Z</time></trkpt><trkpt lat="45.912990003309375" lon="8.888192420017733"><ele>454.0</ele><time>2026-04-25T11:03:26.783Z</time></trkpt><trkpt lat="45.91285333213486" lon="8.888249910183232"><ele>454.0</ele><time>2026-04-25T11:03:27.783Z</time></trkpt><trkpt lat="45.91272472222774" lon="8.888276916111526"><ele>454.0</ele><time>2026-04-25T11:03:28.783Z</time></trkpt><trkpt lat="45.912603465046914" lon="8.888310352344217"><ele>454.0</ele><time>2026-04-25T11:03:29.783Z</time></trkpt><trkpt lat="45.91249626862677" lon="8.888312555612151"><ele>454.0</ele><time>2026-04-25T11:03:30.783Z</time></trkpt><trkpt lat="45.91240315778214" lon="8.88832713655927"><ele>453.0</ele><time>2026-04-25T11:03:31.783Z</time></trkpt><trkpt lat="45.91231720844908" lon="8.888260354983467"><ele>452.0</ele><time>2026-04-25T11:03:32.783Z</time></trkpt><trkpt lat="45.91224061921387" lon="8.888125847583845"><ele>451.0</ele><time>2026-04-25T11:03:33.783Z</time></trkpt><trkpt lat="45.91217084313433" lon="8.887965002318017"><ele>450.0</ele><time>2026-04-25T11:03:34.783Z</time></trkpt><trkpt lat="45.91210836274561" lon="8.887811728988208"><ele>450.0</ele><time>2026-04-25T11:03:35.783Z</time></trkpt><trkpt lat="45.9120300674946" lon="8.887698117395718"><ele>450.0</ele><time>2026-04-25T11:03:36.783Z</time></trkpt><trkpt lat="45.91193672345401" lon="8.887620444795441"><ele>450.0</ele><time>2026-04-25T11:03:37.783Z</time></trkpt><trkpt lat="45.91183554582531" lon="8.887573825979326"><ele>450.0</ele><time>2026-04-25T11:03:38.783Z</time></trkpt><trkpt lat="45.911753882965364" lon="8.887565997003872"><ele>450.0</ele><time>2026-04-25T11:03:39.783Z</time></trkpt><trkpt lat="45.91168615296705" lon="8.887611006730936"><ele>450.0</ele><time>2026-04-25T11:03:40.783Z</time></trkpt><trkpt lat="45.911634155397785" lon="8.887678019238859"><ele>450.0</ele><time>2026-04-25T11:03:41.783Z</time></trkpt><trkpt lat="45.9116129831408" lon="8.887855132925779"><ele>450.0</ele><time>2026-04-25T11:03:42.783Z</time></trkpt><trkpt lat="45.911604522700024" lon="8.88802011574206"><ele>450.0</ele><time>2026-04-25T11:03:43.783Z</time></trkpt><trkpt lat="45.91159712915411" lon="8.888158828317696"><ele>450.0</ele><time>2026-04-25T11:03:44.783Z</time></trkpt><trkpt lat="45.91159773911591" lon="8.888281770139862"><ele>450.0</ele><time>2026-04-25T11:03:45.783Z</time></trkpt><trkpt lat="45.911613507569676" lon="8.88838246601298"><ele>450.0</ele><time>2026-04-25T11:03:46.783Z</time></trkpt><trkpt lat="45.911593215155264" lon="8.88848693622366"><ele>450.0</ele><time>2026-04-25T11:03:47.783Z</time></trkpt><trkpt lat="45.91147769457833" lon="8.888571694479724"><ele>450.0</ele><time>2026-04-25T11:03:49.783Z</time></trkpt><trkpt lat="45.91135643099434" lon="8.888557150091689"><ele>450.0</ele><time>2026-04-25T11:03:50.783Z</time></trkpt><trkpt lat="45.911212756427894" lon="8.888494778581425"><ele>450.0</ele><time>2026-04-25T11:03:51.783Z</time></trkpt><trkpt lat="45.91106037176863" lon="8.888420361086203"><ele>450.0</ele><time>2026-04-25T11:03:52.783Z</time></trkpt><trkpt lat="45.91091396664346" lon="8.888358851477914"><ele>450.0</ele><time>2026-04-25T11:03:53.783Z</time></trkpt><trkpt lat="45.9107625870687" lon="8.888262913483919"><ele>450.0</ele><time>2026-04-25T11:03:54.783Z</time></trkpt><trkpt lat="45.910607755329146" lon="8.888204646580036"><ele>450.0</ele><time>2026-04-25T11:03:55.783Z</time></trkpt><trkpt lat="45.91046571784727" lon="8.888163622032007"><ele>450.0</ele><time>2026-04-25T11:03:56.783Z</time></trkpt><trkpt lat="45.91032350933661" lon="8.888122754982176"><ele>450.0</ele><time>2026-04-25T11:03:57.783Z</time></trkpt><trkpt lat="45.91017386097164" lon="8.888077801046599"><ele>450.0</ele><time>2026-04-25T11:03:58.783Z</time></trkpt><trkpt lat="45.91001646118562" lon="8.888025310314934"><ele>450.0</ele><time>2026-04-25T11:03:59.783Z</time></trkpt><trkpt lat="45.9098629928926" lon="8.887960905635879"><ele>450.0</ele><time>2026-04-25T11:04:00.783Z</time></trkpt><trkpt lat="45.90970791498871" lon="8.887878801517722"><ele>450.0</ele><time>2026-04-25T11:04:01.783Z</time></trkpt><trkpt lat="45.909551007088865" lon="8.887795294759993"><ele>450.0</ele><time>2026-04-25T11:04:02.783Z</time></trkpt><trkpt lat="45.90940316803974" lon="8.887717893341183"><ele>450.0</ele><time>2026-04-25T11:04:03.783Z</time></trkpt><trkpt lat="45.90926144493623" lon="8.887646674097594"><ele>450.0</ele><time>2026-04-25T11:04:04.783Z</time></trkpt><trkpt lat="45.909114215896025" lon="8.88760382657761"><ele>450.0</ele><time>2026-04-25T11:04:05.783Z</time></trkpt><trkpt lat="45.90897854984303" lon="8.887595057465967"><ele>450.0</ele><time>2026-04-25T11:04:06.783Z</time></trkpt><trkpt lat="45.908838032050085" lon="8.887591928553139"><ele>450.0</ele><time>2026-04-25T11:04:07.783Z</time></trkpt><trkpt lat="45.908704282753625" lon="8.887587660569192"><ele>450.0</ele><time>2026-04-25T11:04:08.783Z</time></trkpt><trkpt lat="45.90857768588714" lon="8.887583620821408"><ele>450.0</ele><time>2026-04-25T11:04:09.783Z</time></trkpt><trkpt lat="45.90846293610299" lon="8.887580093987243"><ele>450.0</ele><time>2026-04-25T11:04:10.784Z</time></trkpt><trkpt lat="45.908352894697835" lon="8.887578152758376"><ele>450.0</ele><time>2026-04-25T11:04:11.784Z</time></trkpt><trkpt lat="45.90823473582142" lon="8.887576068330116"><ele>450.0</ele><time>2026-04-25T11:04:12.784Z</time></trkpt><trkpt lat="45.90811771404529" lon="8.887574003962694"><ele>450.0</ele><time>2026-04-25T11:04:13.784Z</time></trkpt><trkpt lat="45.9080044759032" lon="8.887571754353962"><ele>450.0</ele><time>2026-04-25T11:04:14.784Z</time></trkpt><trkpt lat="45.90787705130073" lon="8.88756914178042"><ele>450.0</ele><time>2026-04-25T11:04:15.784Z</time></trkpt><trkpt lat="45.90773306144392" lon="8.88756114448431"><ele>450.0</ele><time>2026-04-25T11:04:16.784Z</time></trkpt><trkpt lat="45.907584865635535" lon="8.887538096298293"><ele>450.0</ele><time>2026-04-25T11:04:17.784Z</time></trkpt><trkpt lat="45.90743163046031" lon="8.887483143102683"><ele>450.0</ele><time>2026-04-25T11:04:18.784Z</time></trkpt><trkpt lat="45.907275086049175" lon="8.88741912323377"><ele>450.0</ele><time>2026-04-25T11:04:19.784Z</time></trkpt><trkpt lat="45.9071111121374" lon="8.887348108071446"><ele>450.0</ele><time>2026-04-25T11:04:20.784Z</time></trkpt><trkpt lat="45.90693790060932" lon="8.887268453906279"><ele>450.0</ele><time>2026-04-25T11:04:21.784Z</time></trkpt><trkpt lat="45.906776480798754" lon="8.887191290679237"><ele>450.0</ele><time>2026-04-25T11:04:22.784Z</time></trkpt><trkpt lat="45.90662957227847" lon="8.88711911632414"><ele>450.0</ele><time>2026-04-25T11:04:23.784Z</time></trkpt><trkpt lat="45.906493180714186" lon="8.887043381582567"><ele>446.0</ele><time>2026-04-25T11:04:24.784Z</time></trkpt><trkpt lat="45.906345668658965" lon="8.886940521807503"><ele>442.0</ele><time>2026-04-25T11:04:25.784Z</time></trkpt><trkpt lat="45.90619364098647" lon="8.88674506350528"><ele>438.0</ele><time>2026-04-25T11:04:26.784Z</time></trkpt><trkpt lat="45.90602715531329" lon="8.88655960749639"><ele>435.66666666666663</ele><time>2026-04-25T11:04:27.785Z</time></trkpt><trkpt lat="45.9058638980653" lon="8.88638955093401"><ele>433.3333333333333</ele><time>2026-04-25T11:04:28.785Z</time></trkpt><trkpt lat="45.90573245199123" lon="8.88616609800685"><ele>431.0</ele><time>2026-04-25T11:04:29.785Z</time></trkpt><trkpt lat="45.905596612760036" lon="8.885961484973372"><ele>432.66666666666663</ele><time>2026-04-25T11:04:30.786Z</time></trkpt><trkpt lat="45.90545942479859" lon="8.885768429176776"><ele>434.33333333333337</ele><time>2026-04-25T11:04:31.786Z</time></trkpt><trkpt lat="45.905328251486324" lon="8.885592195207753"><ele>436.0</ele><time>2026-04-25T11:04:32.786Z</time></trkpt><trkpt lat="45.90520560062578" lon="8.885422941870772"><ele>436.0</ele><time>2026-04-25T11:04:33.786Z</time></trkpt><trkpt lat="45.9050864620678" lon="8.885258453818937"><ele>436.0</ele><time>2026-04-25T11:04:34.786Z</time></trkpt><trkpt lat="45.90497167381226" lon="8.88511215814134"><ele>436.0</ele><time>2026-04-25T11:04:35.787Z</time></trkpt><trkpt lat="45.904833317472594" lon="8.884990228803563"><ele>434.33333333333337</ele><time>2026-04-25T11:04:36.787Z</time></trkpt><trkpt lat="45.90467380632361" lon="8.884940309523891"><ele>432.66666666666663</ele><time>2026-04-25T11:04:37.787Z</time></trkpt><trkpt lat="45.90452531456231" lon="8.88490908002603"><ele>431.0</ele><time>2026-04-25T11:04:38.787Z</time></trkpt><trkpt lat="45.904370734075165" lon="8.88485888352879"><ele>427.66666666666663</ele><time>2026-04-25T11:04:39.787Z</time></trkpt><trkpt lat="45.904220052568256" lon="8.884764654889036"><ele>424.33333333333337</ele><time>2026-04-25T11:04:40.788Z</time></trkpt><trkpt lat="45.90409552824885" lon="8.884642533753537"><ele>421.0</ele><time>2026-04-25T11:04:41.788Z</time></trkpt><trkpt lat="45.90397510085932" lon="8.884482557423334"><ele>421.0</ele><time>2026-04-25T11:04:42.788Z</time></trkpt><trkpt lat="45.903854866170185" lon="8.884278304783631"><ele>421.0</ele><time>2026-04-25T11:04:43.788Z</time></trkpt><trkpt lat="45.90373303626589" lon="8.884041735389141"><ele>421.0</ele><time>2026-04-25T11:04:44.788Z</time></trkpt><trkpt lat="45.90361280509042" lon="8.88379458721478"><ele>420.0</ele><time>2026-04-25T11:04:45.788Z</time></trkpt><trkpt lat="45.903474076134465" lon="8.883565550017877"><ele>419.0</ele><time>2026-04-25T11:04:46.788Z</time></trkpt><trkpt lat="45.90331903136952" lon="8.88336974877645"><ele>418.0</ele><time>2026-04-25T11:04:47.788Z</time></trkpt><trkpt lat="45.90316484719314" lon="8.883181772828427"><ele>418.0</ele><time>2026-04-25T11:04:48.788Z</time></trkpt><trkpt lat="45.9030339505502" lon="8.882986210524033"><ele>418.0</ele><time>2026-04-25T11:04:49.788Z</time></trkpt><trkpt lat="45.90291918958065" lon="8.88279982881424"><ele>418.0</ele><time>2026-04-25T11:04:50.789Z</time></trkpt><trkpt lat="45.902808053048595" lon="8.882617359006893"><ele>419.33333333333337</ele><time>2026-04-25T11:04:51.789Z</time></trkpt><trkpt lat="45.902706085832314" lon="8.88244396677027"><ele>420.66666666666663</ele><time>2026-04-25T11:04:52.789Z</time></trkpt><trkpt lat="45.90262593121225" lon="8.882260259022221"><ele>422.0</ele><time>2026-04-25T11:04:53.789Z</time></trkpt><trkpt lat="45.902564984798424" lon="8.88205693013221"><ele>418.3333333333333</ele><time>2026-04-25T11:04:54.789Z</time></trkpt><trkpt lat="45.90249312969281" lon="8.881838297483784"><ele>414.66666666666663</ele><time>2026-04-25T11:04:55.789Z</time></trkpt><trkpt lat="45.902386385077314" lon="8.881627933109423"><ele>411.0</ele><time>2026-04-25T11:04:56.789Z</time></trkpt><trkpt lat="45.90223538003706" lon="8.881444857496032"><ele>409.66666666666663</ele><time>2026-04-25T11:04:57.789Z</time></trkpt><trkpt lat="45.90207074327304" lon="8.88132101094975"><ele>408.3333333333333</ele><time>2026-04-25T11:04:58.789Z</time></trkpt><trkpt lat="45.901922546382416" lon="8.881208452630338"><ele>407.0</ele><time>2026-04-25T11:04:59.789Z</time></trkpt><trkpt lat="45.901791378757856" lon="8.881079745368178"><ele>406.3333333333333</ele><time>2026-04-25T11:05:00.789Z</time></trkpt><trkpt lat="45.901660104856106" lon="8.88091786325654"><ele>405.66666666666663</ele><time>2026-04-25T11:05:01.789Z</time></trkpt><trkpt lat="45.90154692286903" lon="8.880705567355408"><ele>405.0</ele><time>2026-04-25T11:05:02.789Z</time></trkpt><trkpt lat="45.90142214867836" lon="8.880495813334273"><ele>405.0</ele><time>2026-04-25T11:05:03.789Z</time></trkpt><trkpt lat="45.901310841245866" lon="8.880290244613102"><ele>405.0</ele><time>2026-04-25T11:05:04.789Z</time></trkpt><trkpt lat="45.90120082790658" lon="8.880121814296139"><ele>405.0</ele><time>2026-04-25T11:05:05.789Z</time></trkpt><trkpt lat="45.90108613514621" lon="8.879980704007702"><ele>406.0</ele><time>2026-04-25T11:05:06.789Z</time></trkpt><trkpt lat="45.90095061389677" lon="8.879862839188373"><ele>407.0</ele><time>2026-04-25T11:05:07.787Z</time></trkpt><trkpt lat="45.900777435734234" lon="8.879783275393885"><ele>408.0</ele><time>2026-04-25T11:05:08.787Z</time></trkpt><trkpt lat="45.90060587665439" lon="8.879722910271386"><ele>408.0</ele><time>2026-04-25T11:05:09.787Z</time></trkpt><trkpt lat="45.90044283493303" lon="8.879656404709051"><ele>408.0</ele><time>2026-04-25T11:05:10.787Z</time></trkpt><trkpt lat="45.900297213486745" lon="8.879583403220751"><ele>408.0</ele><time>2026-04-25T11:05:11.786Z</time></trkpt><trkpt lat="45.90015053558233" lon="8.879511452619187"><ele>406.5</ele><time>2026-04-25T11:05:12.786Z</time></trkpt><trkpt lat="45.90000173331076" lon="8.879452749009895"><ele>405.0</ele><time>2026-04-25T11:05:13.787Z</time></trkpt><trkpt lat="45.89985751473276" lon="8.879413846110396"><ele>403.5</ele><time>2026-04-25T11:05:14.787Z</time></trkpt><trkpt lat="45.89972579274555" lon="8.879359964914222"><ele>402.0</ele><time>2026-04-25T11:05:15.787Z</time></trkpt><trkpt lat="45.89961548531142" lon="8.879293273792246"><ele>402.0</ele><time>2026-04-25T11:05:16.787Z</time></trkpt><trkpt lat="45.89951830317805" lon="8.879251562270568"><ele>402.0</ele><time>2026-04-25T11:05:17.787Z</time></trkpt><trkpt lat="45.89942072136927" lon="8.87923929065203"><ele>402.0</ele><time>2026-04-25T11:05:18.787Z</time></trkpt><trkpt lat="45.89932943886663" lon="8.879275697155864"><ele>402.0</ele><time>2026-04-25T11:05:19.787Z</time></trkpt><trkpt lat="45.89922602906984" lon="8.879346575790834"><ele>402.0</ele><time>2026-04-25T11:05:20.787Z</time></trkpt><trkpt lat="45.89913506769715" lon="8.879480213758836"><ele>397.25</ele><time>2026-04-25T11:05:21.787Z</time></trkpt><trkpt lat="45.89906575677889" lon="8.879642705074101"><ele>392.5</ele><time>2026-04-25T11:05:22.787Z</time></trkpt><trkpt lat="45.899001990243256" lon="8.879796159718401"><ele>387.75</ele><time>2026-04-25T11:05:23.787Z</time></trkpt><trkpt lat="45.89893737307259" lon="8.879943980294673"><ele>383.0</ele><time>2026-04-25T11:05:24.787Z</time></trkpt><trkpt lat="45.898844239634116" lon="8.880055148399302"><ele>382.0</ele><time>2026-04-25T11:05:25.787Z</time></trkpt><trkpt lat="45.89874963603797" lon="8.880175345972948"><ele>381.0</ele><time>2026-04-25T11:05:26.787Z</time></trkpt><trkpt lat="45.89866421911027" lon="8.880303542318671"><ele>380.0</ele><time>2026-04-25T11:05:27.787Z</time></trkpt><trkpt lat="45.898568093431415" lon="8.880409703327189"><ele>379.0</ele><time>2026-04-25T11:05:28.787Z</time></trkpt><trkpt lat="45.89847917770791" lon="8.880510392933653"><ele>377.0</ele><time>2026-04-25T11:05:29.787Z</time></trkpt><trkpt lat="45.89838150200888" lon="8.880602969416332"><ele>375.0</ele><time>2026-04-25T11:05:30.787Z</time></trkpt><trkpt lat="45.89827121835567" lon="8.880660507827683"><ele>373.0</ele><time>2026-04-25T11:05:31.787Z</time></trkpt><trkpt lat="45.898151271857444" lon="8.880672671820093"><ele>371.0</ele><time>2026-04-25T11:05:32.787Z</time></trkpt><trkpt lat="45.898031207659336" lon="8.880655810273456"><ele>371.0</ele><time>2026-04-25T11:05:33.787Z</time></trkpt><trkpt lat="45.89791761074151" lon="8.88063616602746"><ele>371.0</ele><time>2026-04-25T11:05:34.787Z</time></trkpt><trkpt lat="45.89781794081532" lon="8.880591594387269"><ele>371.0</ele><time>2026-04-25T11:05:35.787Z</time></trkpt><trkpt lat="45.89772453302111" lon="8.880511602756304"><ele>371.0</ele><time>2026-04-25T11:05:36.787Z</time></trkpt><trkpt lat="45.897638473979356" lon="8.880411312077154"><ele>371.0</ele><time>2026-04-25T11:05:37.787Z</time></trkpt><trkpt lat="45.897551042129585" lon="8.880298680882836"><ele>369.25</ele><time>2026-04-25T11:05:38.787Z</time></trkpt><trkpt lat="45.897461734242185" lon="8.880185968581907"><ele>367.5</ele><time>2026-04-25T11:05:39.787Z</time></trkpt><trkpt lat="45.897381475618296" lon="8.88006466541294"><ele>365.75</ele><time>2026-04-25T11:05:40.787Z</time></trkpt><trkpt lat="45.89728874107336" lon="8.879939487958332"><ele>364.0</ele><time>2026-04-25T11:05:41.787Z</time></trkpt><trkpt lat="45.89719000630417" lon="8.879821695241024"><ele>364.0</ele><time>2026-04-25T11:05:42.787Z</time></trkpt><trkpt lat="45.89708550745549" lon="8.879718636783627"><ele>364.0</ele><time>2026-04-25T11:05:43.787Z</time></trkpt><trkpt lat="45.896971127598796" lon="8.87961521167927"><ele>364.0</ele><time>2026-04-25T11:05:44.787Z</time></trkpt><trkpt lat="45.89685726484828" lon="8.879527601432128"><ele>364.0</ele><time>2026-04-25T11:05:45.787Z</time></trkpt><trkpt lat="45.89673011187171" lon="8.879461646694827"><ele>361.79999999999995</ele><time>2026-04-25T11:05:46.787Z</time></trkpt><trkpt lat="45.896614586431944" lon="8.87940589937326"><ele>359.59999999999997</ele><time>2026-04-25T11:05:47.787Z</time></trkpt><trkpt lat="45.89651294213542" lon="8.8793432859763"><ele>357.4</ele><time>2026-04-25T11:05:48.787Z</time></trkpt><trkpt lat="45.89644554757237" lon="8.879274570197841"><ele>355.2</ele><time>2026-04-25T11:05:49.787Z</time></trkpt><trkpt lat="45.8963964106012" lon="8.879181219008371"><ele>353.0</ele><time>2026-04-25T11:05:50.787Z</time></trkpt><trkpt lat="45.89636487995703" lon="8.879068932477262"><ele>353.0</ele><time>2026-04-25T11:05:51.787Z</time></trkpt><trkpt lat="45.89631865370189" lon="8.878902573156957"><ele>353.0</ele><time>2026-04-25T11:05:52.787Z</time></trkpt><trkpt lat="45.896257206798424" lon="8.878723986563212"><ele>353.0</ele><time>2026-04-25T11:05:53.787Z</time></trkpt><trkpt lat="45.8961720353092" lon="8.878530484562457"><ele>353.0</ele><time>2026-04-25T11:05:54.787Z</time></trkpt><trkpt lat="45.89607423022676" lon="8.878317190453659"><ele>353.0</ele><time>2026-04-25T11:05:55.787Z</time></trkpt><trkpt lat="45.89596089343828" lon="8.878134772315276"><ele>353.0</ele><time>2026-04-25T11:05:56.787Z</time></trkpt><trkpt lat="45.89583580523691" lon="8.877968578082802"><ele>353.0</ele><time>2026-04-25T11:05:57.787Z</time></trkpt><trkpt lat="45.895708901728504" lon="8.877786238059633"><ele>351.0</ele><time>2026-04-25T11:05:58.787Z</time></trkpt><trkpt lat="45.8955886009551" lon="8.877626312382745"><ele>349.0</ele><time>2026-04-25T11:05:59.787Z</time></trkpt><trkpt lat="45.895474854898154" lon="8.8774823960222"><ele>347.0</ele><time>2026-04-25T11:06:00.787Z</time></trkpt><trkpt lat="45.89535931212836" lon="8.877342460283185"><ele>347.0</ele><time>2026-04-25T11:06:01.787Z</time></trkpt><trkpt lat="45.895253214770904" lon="8.877215263041453"><ele>347.0</ele><time>2026-04-25T11:06:02.787Z</time></trkpt><trkpt lat="45.89515514970823" lon="8.877090464038316"><ele>347.0</ele><time>2026-04-25T11:06:03.787Z</time></trkpt><trkpt lat="45.89505836577919" lon="8.876963768406627"><ele>347.0</ele><time>2026-04-25T11:06:04.787Z</time></trkpt><trkpt lat="45.89495175144027" lon="8.876826067375797"><ele>346.75</ele><time>2026-04-25T11:06:05.787Z</time></trkpt><trkpt lat="45.894837202058504" lon="8.876690189021728"><ele>346.5</ele><time>2026-04-25T11:06:06.787Z</time></trkpt><trkpt lat="45.89472435173621" lon="8.87656138373235"><ele>346.25</ele><time>2026-04-25T11:06:07.787Z</time></trkpt><trkpt lat="45.89461414528127" lon="8.876435766467274"><ele>346.0</ele><time>2026-04-25T11:06:08.787Z</time></trkpt><trkpt lat="45.89451492039264" lon="8.876305551894799"><ele>346.0</ele><time>2026-04-25T11:06:09.787Z</time></trkpt><trkpt lat="45.8944138721977" lon="8.876182654934512"><ele>346.0</ele><time>2026-04-25T11:06:10.787Z</time></trkpt><trkpt lat="45.89432306466432" lon="8.876042381747775"><ele>346.0</ele><time>2026-04-25T11:06:11.787Z</time></trkpt><trkpt lat="45.89425293859531" lon="8.875890144782604"><ele>346.0</ele><time>2026-04-25T11:06:12.787Z</time></trkpt><trkpt lat="45.89419283693831" lon="8.875701602501866"><ele>344.3333333333333</ele><time>2026-04-25T11:06:13.787Z</time></trkpt><trkpt lat="45.894138365758344" lon="8.875487390875755"><ele>342.6666666666667</ele><time>2026-04-25T11:06:14.787Z</time></trkpt><trkpt lat="45.89405689096177" lon="8.875301008015592"><ele>341.0</ele><time>2026-04-25T11:06:15.787Z</time></trkpt><trkpt lat="45.89395033107556" lon="8.87512562137437"><ele>344.0</ele><time>2026-04-25T11:06:16.787Z</time></trkpt><trkpt lat="45.89385024955937" lon="8.874953309401763"><ele>347.0</ele><time>2026-04-25T11:06:17.787Z</time></trkpt><trkpt lat="45.89375623336148" lon="8.874802428450993"><ele>350.0</ele><time>2026-04-25T11:06:18.787Z</time></trkpt><trkpt lat="45.89365525616419" lon="8.874634337250754"><ele>350.0</ele><time>2026-04-25T11:06:19.787Z</time></trkpt><trkpt lat="45.89354509291821" lon="8.874447941229292"><ele>350.0</ele><time>2026-04-25T11:06:20.787Z</time></trkpt><trkpt lat="45.8934271097013" lon="8.874264258218025"><ele>350.0</ele><time>2026-04-25T11:06:21.787Z</time></trkpt><trkpt lat="45.89329492839144" lon="8.87409820907349"><ele>348.0</ele><time>2026-04-25T11:06:22.787Z</time></trkpt><trkpt lat="45.89314570375892" lon="8.873953640319076"><ele>346.0</ele><time>2026-04-25T11:06:23.787Z</time></trkpt><trkpt lat="45.89299012615852" lon="8.873822447572664"><ele>344.0</ele><time>2026-04-25T11:06:24.787Z</time></trkpt><trkpt lat="45.892847424186236" lon="8.87370149955561"><ele>344.0</ele><time>2026-04-25T11:06:25.787Z</time></trkpt><trkpt lat="45.8926985336114" lon="8.873584527050092"><ele>344.0</ele><time>2026-04-25T11:06:26.787Z</time></trkpt><trkpt lat="45.89254493023938" lon="8.873495478218912"><ele>344.0</ele><time>2026-04-25T11:06:27.787Z</time></trkpt><trkpt lat="45.89237855702334" lon="8.873431766685703"><ele>343.6666666666667</ele><time>2026-04-25T11:06:28.787Z</time></trkpt><trkpt lat="45.89219764676024" lon="8.87337371896072"><ele>343.3333333333333</ele><time>2026-04-25T11:06:29.787Z</time></trkpt><trkpt lat="45.89201483457481" lon="8.87331225625778"><ele>343.0</ele><time>2026-04-25T11:06:30.787Z</time></trkpt><trkpt lat="45.89183995937586" lon="8.873246909409934"><ele>340.66666666666663</ele><time>2026-04-25T11:06:31.787Z</time></trkpt><trkpt lat="45.89167557609541" lon="8.873185488393"><ele>338.3333333333333</ele><time>2026-04-25T11:06:32.787Z</time></trkpt><trkpt lat="45.89151819434402" lon="8.873128334565557"><ele>336.0</ele><time>2026-04-25T11:06:33.787Z</time></trkpt><trkpt lat="45.89136407770118" lon="8.873071357709241"><ele>336.0</ele><time>2026-04-25T11:06:34.787Z</time></trkpt><trkpt lat="45.891214302634666" lon="8.873001099773548"><ele>336.0</ele><time>2026-04-25T11:06:35.787Z</time></trkpt><trkpt lat="45.89106225000791" lon="8.872918458332107"><ele>336.0</ele><time>2026-04-25T11:06:36.787Z</time></trkpt><trkpt lat="45.89091963533215" lon="8.87281746140533"><ele>335.0</ele><time>2026-04-25T11:06:37.787Z</time></trkpt><trkpt lat="45.8907883968792" lon="8.872699403403706"><ele>334.0</ele><time>2026-04-25T11:06:38.787Z</time></trkpt><trkpt lat="45.89066423847897" lon="8.872561968767402"><ele>333.0</ele><time>2026-04-25T11:06:39.787Z</time></trkpt><trkpt lat="45.89054369404005" lon="8.872424635465956"><ele>334.5</ele><time>2026-04-25T11:06:40.787Z</time></trkpt><trkpt lat="45.89042391341682" lon="8.872303585255139"><ele>336.0</ele><time>2026-04-25T11:06:41.787Z</time></trkpt><trkpt lat="45.89031514516232" lon="8.872196644402266"><ele>337.5</ele><time>2026-04-25T11:06:42.787Z</time></trkpt><trkpt lat="45.89021281236102" lon="8.872090370013014"><ele>339.0</ele><time>2026-04-25T11:06:43.787Z</time></trkpt><trkpt lat="45.89011783675669" lon="8.871990940884087"><ele>338.25</ele><time>2026-04-25T11:06:44.787Z</time></trkpt><trkpt lat="45.890012933842335" lon="8.871901514371983"><ele>337.5</ele><time>2026-04-25T11:06:45.787Z</time></trkpt><trkpt lat="45.889890018333986" lon="8.871820040096356"><ele>336.75</ele><time>2026-04-25T11:06:46.787Z</time></trkpt><trkpt lat="45.889758056799856" lon="8.87174027949078"><ele>336.0</ele><time>2026-04-25T11:06:47.787Z</time></trkpt><trkpt lat="45.8896219982057" lon="8.871656881887523"><ele>336.0</ele><time>2026-04-25T11:06:48.787Z</time></trkpt><trkpt lat="45.889490820066754" lon="8.871573029993842"><ele>336.0</ele><time>2026-04-25T11:06:49.787Z</time></trkpt><trkpt lat="45.889358616058864" lon="8.871477850365386"><ele>336.0</ele><time>2026-04-25T11:06:50.787Z</time></trkpt><trkpt lat="45.88922999029216" lon="8.871372943674242"><ele>336.0</ele><time>2026-04-25T11:06:51.787Z</time></trkpt><trkpt lat="45.889106494718696" lon="8.871248137768552"><ele>336.0</ele><time>2026-04-25T11:06:52.787Z</time></trkpt><trkpt lat="45.88898330754047" lon="8.871109018304582"><ele>336.0</ele><time>2026-04-25T11:06:53.787Z</time></trkpt><trkpt lat="45.88887607489664" lon="8.870954875822893"><ele>336.0</ele><time>2026-04-25T11:06:54.787Z</time></trkpt><trkpt lat="45.88878637289508" lon="8.87079681236994"><ele>336.0</ele><time>2026-04-25T11:06:55.787Z</time></trkpt><trkpt lat="45.888692329304604" lon="8.870641046959415"><ele>336.0</ele><time>2026-04-25T11:06:56.787Z</time></trkpt><trkpt lat="45.88859587462844" lon="8.870516812662919"><ele>336.0</ele><time>2026-04-25T11:06:57.787Z</time></trkpt><trkpt lat="45.888489838415055" lon="8.870424133645542"><ele>336.0</ele><time>2026-04-25T11:06:58.787Z</time></trkpt><trkpt lat="45.88836544514509" lon="8.870377025741831"><ele>336.0</ele><time>2026-04-25T11:06:59.788Z</time></trkpt><trkpt lat="45.88820375667521" lon="8.870373064163159"><ele>336.0</ele><time>2026-04-25T11:07:00.788Z</time></trkpt><trkpt lat="45.88802869609281" lon="8.870358739874845"><ele>336.0</ele><time>2026-04-25T11:07:01.788Z</time></trkpt><trkpt lat="45.88784747512132" lon="8.870341500859514"><ele>336.0</ele><time>2026-04-25T11:07:02.788Z</time></trkpt><trkpt lat="45.887670265616855" lon="8.8703222244823"><ele>336.0</ele><time>2026-04-25T11:07:03.788Z</time></trkpt><trkpt lat="45.88750894582313" lon="8.87029759654674"><ele>336.0</ele><time>2026-04-25T11:07:04.788Z</time></trkpt><trkpt lat="45.887350281373294" lon="8.870276045015087"><ele>336.6666666666667</ele><time>2026-04-25T11:07:05.788Z</time></trkpt><trkpt lat="45.88719494090409" lon="8.870253317443462"><ele>337.33333333333337</ele><time>2026-04-25T11:07:06.788Z</time></trkpt><trkpt lat="45.88703350701662" lon="8.870225678188541"><ele>338.0</ele><time>2026-04-25T11:07:07.788Z</time></trkpt><trkpt lat="45.88687863371913" lon="8.870208322174683"><ele>339.6666666666667</ele><time>2026-04-25T11:07:08.788Z</time></trkpt><trkpt lat="45.88672229124437" lon="8.870192923662481"><ele>341.3333333333333</ele><time>2026-04-25T11:07:09.788Z</time></trkpt><trkpt lat="45.886570608240476" lon="8.870177138672295"><ele>343.0</ele><time>2026-04-25T11:07:10.788Z</time></trkpt><trkpt lat="45.88642177036178" lon="8.870160327405834"><ele>343.0</ele><time>2026-04-25T11:07:11.788Z</time></trkpt><trkpt lat="45.886272846853124" lon="8.870136169957277"><ele>343.0</ele><time>2026-04-25T11:07:12.788Z</time></trkpt><trkpt lat="45.886121908957655" lon="8.87011109552517"><ele>343.0</ele><time>2026-04-25T11:07:13.785Z</time></trkpt><trkpt lat="45.88596100214505" lon="8.870088900796743"><ele>345.3333333333333</ele><time>2026-04-25T11:07:14.785Z</time></trkpt><trkpt lat="45.88577233322629" lon="8.870066579983838"><ele>347.6666666666667</ele><time>2026-04-25T11:07:15.785Z</time></trkpt><trkpt lat="45.885583698423964" lon="8.870039131007637"><ele>350.0</ele><time>2026-04-25T11:07:16.785Z</time></trkpt><trkpt lat="45.885408038460675" lon="8.870015628760854"><ele>350.0</ele><time>2026-04-25T11:07:17.785Z</time></trkpt><trkpt lat="45.885241141284716" lon="8.8699940961047"><ele>350.0</ele><time>2026-04-25T11:07:18.785Z</time></trkpt><trkpt lat="45.88507312841054" lon="8.869972733114587"><ele>350.0</ele><time>2026-04-25T11:07:19.785Z</time></trkpt><trkpt lat="45.884892388382816" lon="8.869949813289205"><ele>348.6666666666667</ele><time>2026-04-25T11:07:20.785Z</time></trkpt><trkpt lat="45.88470432713857" lon="8.86992415199158"><ele>347.3333333333333</ele><time>2026-04-25T11:07:21.785Z</time></trkpt><trkpt lat="45.884509526151874" lon="8.869899503686966"><ele>346.0</ele><time>2026-04-25T11:07:22.785Z</time></trkpt><trkpt lat="45.88431377439694" lon="8.869868544703946"><ele>345.0</ele><time>2026-04-25T11:07:23.785Z</time></trkpt><trkpt lat="45.88412246435647" lon="8.869841070175708"><ele>344.0</ele><time>2026-04-25T11:07:24.785Z</time></trkpt><trkpt lat="45.88393002720144" lon="8.869825814309706"><ele>343.0</ele><time>2026-04-25T11:07:25.785Z</time></trkpt><trkpt lat="45.88373871921272" lon="8.869807093128962"><ele>343.0</ele><time>2026-04-25T11:07:26.785Z</time></trkpt><trkpt lat="45.88355216124634" lon="8.869782742892378"><ele>343.0</ele><time>2026-04-25T11:07:27.785Z</time></trkpt><trkpt lat="45.883366312870834" lon="8.869757004838256"><ele>343.0</ele><time>2026-04-25T11:07:28.785Z</time></trkpt><trkpt lat="45.883183265764785" lon="8.869734605531576"><ele>342.3333333333333</ele><time>2026-04-25T11:07:29.785Z</time></trkpt><trkpt lat="45.88300412897361" lon="8.86971441883662"><ele>341.6666666666667</ele><time>2026-04-25T11:07:30.785Z</time></trkpt><trkpt lat="45.882828510433015" lon="8.869691323194205"><ele>341.0</ele><time>2026-04-25T11:07:31.785Z</time></trkpt><trkpt lat="45.88265449802996" lon="8.869666997010805"><ele>341.6666666666667</ele><time>2026-04-25T11:07:32.785Z</time></trkpt><trkpt lat="45.88248122748141" lon="8.869641228416338"><ele>342.3333333333333</ele><time>2026-04-25T11:07:33.785Z</time></trkpt><trkpt lat="45.8823078043289" lon="8.869611378039316"><ele>343.0</ele><time>2026-04-25T11:07:34.785Z</time></trkpt><trkpt lat="45.882134917114655" lon="8.869584578127895"><ele>343.0</ele><time>2026-04-25T11:07:35.785Z</time></trkpt><trkpt lat="45.88196325620815" lon="8.869568649422103"><ele>343.0</ele><time>2026-04-25T11:07:36.785Z</time></trkpt><trkpt lat="45.88179173923591" lon="8.869553776735726"><ele>343.0</ele><time>2026-04-25T11:07:37.785Z</time></trkpt><trkpt lat="45.8816169752917" lon="8.869529773950838"><ele>344.0</ele><time>2026-04-25T11:07:38.785Z</time></trkpt><trkpt lat="45.88144346188642" lon="8.8695118316804"><ele>345.0</ele><time>2026-04-25T11:07:39.785Z</time></trkpt><trkpt lat="45.88126782311855" lon="8.869489752085425"><ele>346.0</ele><time>2026-04-25T11:07:40.785Z</time></trkpt><trkpt lat="45.8810961717381" lon="8.869464566090182"><ele>347.0</ele><time>2026-04-25T11:07:41.785Z</time></trkpt><trkpt lat="45.88092978392244" lon="8.869440317471037"><ele>348.0</ele><time>2026-04-25T11:07:42.785Z</time></trkpt><trkpt lat="45.88076050055195" lon="8.869418702038544"><ele>349.0</ele><time>2026-04-25T11:07:43.785Z</time></trkpt><trkpt lat="45.88058586326603" lon="8.869394630806742"><ele>349.0</ele><time>2026-04-25T11:07:44.785Z</time></trkpt><trkpt lat="45.88041176923239" lon="8.869370500702157"><ele>349.0</ele><time>2026-04-25T11:07:45.785Z</time></trkpt><trkpt lat="45.880234863293516" lon="8.869351753817417"><ele>349.0</ele><time>2026-04-25T11:07:46.785Z</time></trkpt><trkpt lat="45.88005796693326" lon="8.869339703172553"><ele>348.0</ele><time>2026-04-25T11:07:47.785Z</time></trkpt><trkpt lat="45.879883120334426" lon="8.86935506588614"><ele>347.0</ele><time>2026-04-25T11:07:48.785Z</time></trkpt><trkpt lat="45.879706832590834" lon="8.869393214680757"><ele>346.0</ele><time>2026-04-25T11:07:49.785Z</time></trkpt><trkpt lat="45.87952414086819" lon="8.869454354660084"><ele>346.0</ele><time>2026-04-25T11:07:50.785Z</time></trkpt><trkpt lat="45.87932527199957" lon="8.869549136893063"><ele>346.0</ele><time>2026-04-25T11:07:51.785Z</time></trkpt><trkpt lat="45.87913202959689" lon="8.869651876679828"><ele>346.0</ele><time>2026-04-25T11:07:52.785Z</time></trkpt><trkpt lat="45.87894150875445" lon="8.869745615550125"><ele>347.66666666666663</ele><time>2026-04-25T11:07:53.785Z</time></trkpt><trkpt lat="45.87876252478128" lon="8.869835958954635"><ele>349.3333333333333</ele><time>2026-04-25T11:07:54.785Z</time></trkpt><trkpt lat="45.878599086414255" lon="8.869920337083355"><ele>351.0</ele><time>2026-04-25T11:07:55.785Z</time></trkpt><trkpt lat="45.87844055178006" lon="8.870001522501399"><ele>350.0</ele><time>2026-04-25T11:07:56.785Z</time></trkpt><trkpt lat="45.87827841118889" lon="8.870083679224606"><ele>349.0</ele><time>2026-04-25T11:07:57.785Z</time></trkpt><trkpt lat="45.87811737488845" lon="8.870160194313565"><ele>348.0</ele><time>2026-04-25T11:07:58.785Z</time></trkpt><trkpt lat="45.87796337493095" lon="8.870240410593704"><ele>348.0</ele><time>2026-04-25T11:07:59.785Z</time></trkpt><trkpt lat="45.8778170585736" lon="8.870335528118519"><ele>348.0</ele><time>2026-04-25T11:08:00.785Z</time></trkpt><trkpt lat="45.87769341371324" lon="8.870449501986872"><ele>348.0</ele><time>2026-04-25T11:08:01.785Z</time></trkpt><trkpt lat="45.87757944921438" lon="8.8706112624985"><ele>349.0</ele><time>2026-04-25T11:08:02.785Z</time></trkpt><trkpt lat="45.87748674571055" lon="8.87080217409402"><ele>350.0</ele><time>2026-04-25T11:08:03.785Z</time></trkpt><trkpt lat="45.877410636597006" lon="8.87102248346815"><ele>351.0</ele><time>2026-04-25T11:08:04.785Z</time></trkpt><trkpt lat="45.87733824754222" lon="8.871249765785006"><ele>351.0</ele><time>2026-04-25T11:08:05.785Z</time></trkpt><trkpt lat="45.87728111756238" lon="8.871463613336621"><ele>351.0</ele><time>2026-04-25T11:08:06.785Z</time></trkpt><trkpt lat="45.87722705015476" lon="8.871663955823887"><ele>351.0</ele><time>2026-04-25T11:08:07.785Z</time></trkpt><trkpt lat="45.87717608779307" lon="8.87185279311519"><ele>350.8</ele><time>2026-04-25T11:08:08.785Z</time></trkpt><trkpt lat="45.877131754336894" lon="8.872017062459353"><ele>350.6</ele><time>2026-04-25T11:08:09.785Z</time></trkpt><trkpt lat="45.87709144635656" lon="8.872161681233262"><ele>350.4</ele><time>2026-04-25T11:08:10.785Z</time></trkpt><trkpt lat="45.877055018750674" lon="8.87229131139283"><ele>350.2</ele><time>2026-04-25T11:08:11.785Z</time></trkpt><trkpt lat="45.87701948876398" lon="8.872412921435135"><ele>350.0</ele><time>2026-04-25T11:08:12.785Z</time></trkpt><trkpt lat="45.876983722644205" lon="8.872521210502669"><ele>350.0</ele><time>2026-04-25T11:08:13.785Z</time></trkpt><trkpt lat="45.876928939597676" lon="8.87260709079255"><ele>350.0</ele><time>2026-04-25T11:08:14.785Z</time></trkpt><trkpt lat="45.87686961257202" lon="8.872681528428352"><ele>350.0</ele><time>2026-04-25T11:08:15.785Z</time></trkpt><trkpt lat="45.87682673093324" lon="8.872769243271902"><ele>350.0</ele><time>2026-04-25T11:08:16.785Z</time></trkpt><trkpt lat="45.87680860819578" lon="8.872871716326452"><ele>350.0</ele><time>2026-04-25T11:08:17.785Z</time></trkpt><trkpt lat="45.876828943779145" lon="8.872971047761833"><ele>350.0</ele><time>2026-04-25T11:08:18.785Z</time></trkpt><trkpt lat="45.87688727024235" lon="8.873045632349642"><ele>350.0</ele><time>2026-04-25T11:08:19.785Z</time></trkpt><trkpt lat="45.87698995915116" lon="8.873059359016429"><ele>350.0</ele><time>2026-04-25T11:08:20.785Z</time></trkpt><trkpt lat="45.877120842773635" lon="8.873044074947119"><ele>350.0</ele><time>2026-04-25T11:08:21.785Z</time></trkpt><trkpt lat="45.87724566775732" lon="8.8730698990896"><ele>350.0</ele><time>2026-04-25T11:08:22.785Z</time></trkpt><trkpt lat="45.877396183056085" lon="8.873128560771617"><ele>350.0</ele><time>2026-04-25T11:08:23.785Z</time></trkpt><trkpt lat="45.87753422030377" lon="8.873207467408694"><ele>350.0</ele><time>2026-04-25T11:08:24.785Z</time></trkpt><trkpt lat="45.87767796094286" lon="8.873266795236331"><ele>350.0</ele><time>2026-04-25T11:08:25.785Z</time></trkpt><trkpt lat="45.87782163234454" lon="8.8733252925688"><ele>350.0</ele><time>2026-04-25T11:08:26.785Z</time></trkpt><trkpt lat="45.877979725022286" lon="8.873364488975191"><ele>348.6666666666667</ele><time>2026-04-25T11:08:27.785Z</time></trkpt><trkpt lat="45.87813381567022" lon="8.873450874899346"><ele>347.3333333333333</ele><time>2026-04-25T11:08:28.785Z</time></trkpt><trkpt lat="45.87830210745194" lon="8.87349723236163"><ele>346.0</ele><time>2026-04-25T11:08:29.785Z</time></trkpt><trkpt lat="45.87847384449678" lon="8.873574146857473"><ele>344.66666666666663</ele><time>2026-04-25T11:08:30.785Z</time></trkpt><trkpt lat="45.878648124829674" lon="8.873668797141747"><ele>343.3333333333333</ele><time>2026-04-25T11:08:31.785Z</time></trkpt><trkpt lat="45.878815343605" lon="8.873771870886733"><ele>342.0</ele><time>2026-04-25T11:08:32.785Z</time></trkpt><trkpt lat="45.87896475097691" lon="8.873909325399264"><ele>342.0</ele><time>2026-04-25T11:08:33.785Z</time></trkpt><trkpt lat="45.879109426767705" lon="8.8740332515329"><ele>342.0</ele><time>2026-04-25T11:08:34.785Z</time></trkpt><trkpt lat="45.87924419051643" lon="8.874167468931391"><ele>342.0</ele><time>2026-04-25T11:08:35.785Z</time></trkpt><trkpt lat="45.87937007263892" lon="8.87430819871964"><ele>343.0</ele><time>2026-04-25T11:08:36.785Z</time></trkpt><trkpt lat="45.87949820707966" lon="8.874428524032725"><ele>344.0</ele><time>2026-04-25T11:08:37.785Z</time></trkpt><trkpt lat="45.879586117768326" lon="8.874576531994737"><ele>345.0</ele><time>2026-04-25T11:08:38.785Z</time></trkpt><trkpt lat="45.879649814094826" lon="8.874718235571606"><ele>346.0</ele><time>2026-04-25T11:08:39.785Z</time></trkpt><trkpt lat="45.87968476637577" lon="8.874865070075693"><ele>346.0</ele><time>2026-04-25T11:08:40.785Z</time></trkpt><trkpt lat="45.87970477755462" lon="8.874999214294164"><ele>346.0</ele><time>2026-04-25T11:08:41.785Z</time></trkpt><trkpt lat="45.879718361112666" lon="8.8751418065585"><ele>346.0</ele><time>2026-04-25T11:08:42.785Z</time></trkpt><trkpt lat="45.87966161194942" lon="8.875269273634876"><ele>346.0</ele><time>2026-04-25T11:08:43.785Z</time></trkpt><trkpt lat="45.87964759730701" lon="8.875416563272088"><ele>346.0</ele><time>2026-04-25T11:08:44.785Z</time></trkpt><trkpt lat="45.87964636504175" lon="8.875557040984589"><ele>345.3333333333333</ele><time>2026-04-25T11:08:45.785Z</time></trkpt><trkpt lat="45.87965340627398" lon="8.875726594395347"><ele>344.6666666666667</ele><time>2026-04-25T11:08:46.785Z</time></trkpt><trkpt lat="45.87962382265268" lon="8.875950675234098"><ele>344.0</ele><time>2026-04-25T11:08:47.785Z</time></trkpt><trkpt lat="45.87956586758594" lon="8.876220195683961"><ele>344.0</ele><time>2026-04-25T11:08:48.785Z</time></trkpt><trkpt lat="45.879494557092606" lon="8.876527713827908"><ele>344.0</ele><time>2026-04-25T11:08:49.785Z</time></trkpt><trkpt lat="45.87940661033346" lon="8.876829168647435"><ele>344.33333333333337</ele><time>2026-04-25T11:08:50.785Z</time></trkpt><trkpt lat="45.87934297964716" lon="8.87710186549806"><ele>344.6666666666667</ele><time>2026-04-25T11:08:51.785Z</time></trkpt><trkpt lat="45.879281529828845" lon="8.877365505298211"><ele>345.0</ele><time>2026-04-25T11:08:52.785Z</time></trkpt><trkpt lat="45.87922305221047" lon="8.877616398918173"><ele>345.0</ele><time>2026-04-25T11:08:53.785Z</time></trkpt><trkpt lat="45.879168260123784" lon="8.87785088706481"><ele>345.0</ele><time>2026-04-25T11:08:54.785Z</time></trkpt><trkpt lat="45.87911166014637" lon="8.878090399322248"><ele>345.0</ele><time>2026-04-25T11:08:55.785Z</time></trkpt><trkpt lat="45.87905549199374" lon="8.878334104377835"><ele>345.3333333333333</ele><time>2026-04-25T11:08:56.785Z</time></trkpt><trkpt lat="45.87899707329903" lon="8.878571863319804"><ele>345.66666666666663</ele><time>2026-04-25T11:08:57.785Z</time></trkpt><trkpt lat="45.878920752639395" lon="8.87883064343744"><ele>346.0</ele><time>2026-04-25T11:08:58.785Z</time></trkpt><trkpt lat="45.87882961086298" lon="8.879108841206257"><ele>349.5</ele><time>2026-04-25T11:08:59.785Z</time></trkpt><trkpt lat="45.87868645900016" lon="8.87936347796521"><ele>353.0</ele><time>2026-04-25T11:09:00.785Z</time></trkpt><trkpt lat="45.87851927427887" lon="8.879578266303499"><ele>352.0</ele><time>2026-04-25T11:09:01.785Z</time></trkpt><trkpt lat="45.87833317358642" lon="8.87974619219134"><ele>351.0</ele><time>2026-04-25T11:09:02.785Z</time></trkpt><trkpt lat="45.87813810209042" lon="8.879861333715"><ele>350.0</ele><time>2026-04-25T11:09:03.786Z</time></trkpt><trkpt lat="45.87794238260562" lon="8.879938065893507"><ele>350.0</ele><time>2026-04-25T11:09:04.786Z</time></trkpt><trkpt lat="45.8777612017207" lon="8.880000404437089"><ele>350.0</ele><time>2026-04-25T11:09:05.786Z</time></trkpt><trkpt lat="45.877584943368795" lon="8.880062724985796"><ele>350.0</ele><time>2026-04-25T11:09:06.786Z</time></trkpt><trkpt lat="45.87741960685422" lon="8.880119907960193"><ele>349.6666666666667</ele><time>2026-04-25T11:09:07.786Z</time></trkpt><trkpt lat="45.877264887382445" lon="8.880176422703894"><ele>349.3333333333333</ele><time>2026-04-25T11:09:08.786Z</time></trkpt><trkpt lat="45.8771132030946" lon="8.880208885443169"><ele>349.0</ele><time>2026-04-25T11:09:09.786Z</time></trkpt><trkpt lat="45.87695974933769" lon="8.88026034844425"><ele>349.0</ele><time>2026-04-25T11:09:10.786Z</time></trkpt><trkpt lat="45.876799436242784" lon="8.880312406006905"><ele>349.0</ele><time>2026-04-25T11:09:11.786Z</time></trkpt><trkpt lat="45.876637195325465" lon="8.880361113335525"><ele>349.0</ele><time>2026-04-25T11:09:12.786Z</time></trkpt><trkpt lat="45.876473354981776" lon="8.88039618271376"><ele>348.66666666666663</ele><time>2026-04-25T11:09:13.786Z</time></trkpt><trkpt lat="45.876312687707454" lon="8.88041114700806"><ele>348.3333333333333</ele><time>2026-04-25T11:09:14.786Z</time></trkpt><trkpt lat="45.876160667920296" lon="8.880401038024553"><ele>348.0</ele><time>2026-04-25T11:09:15.786Z</time></trkpt><trkpt lat="45.87600100065724" lon="8.880366479709608"><ele>347.25</ele><time>2026-04-25T11:09:16.786Z</time></trkpt><trkpt lat="45.87585146424366" lon="8.880310124742994"><ele>346.5</ele><time>2026-04-25T11:09:17.786Z</time></trkpt><trkpt lat="45.875708893407555" lon="8.88024308568746"><ele>345.75</ele><time>2026-04-25T11:09:18.786Z</time></trkpt><trkpt lat="45.875594254128615" lon="8.880186395357017"><ele>345.0</ele><time>2026-04-25T11:09:19.783Z</time></trkpt><trkpt lat="45.8754888349192" lon="8.880159316533756"><ele>345.0</ele><time>2026-04-25T11:09:20.783Z</time></trkpt><trkpt lat="45.875400380534465" lon="8.8801016372679"><ele>345.0</ele><time>2026-04-25T11:09:21.783Z</time></trkpt><trkpt lat="45.8753390460709" lon="8.880059190576171"><ele>345.0</ele><time>2026-04-25T11:09:22.783Z</time></trkpt><trkpt lat="45.875276306238256" lon="8.880002669375827"><ele>345.0</ele><time>2026-04-25T11:09:24.783Z</time></trkpt><trkpt lat="45.875203797175104" lon="8.879923500115565"><ele>345.0</ele><time>2026-04-25T11:09:27.783Z</time></trkpt><trkpt lat="45.875132437612905" lon="8.879809616086856"><ele>345.0</ele><time>2026-04-25T11:09:29.782Z</time></trkpt><trkpt lat="45.87503378074322" lon="8.87972536662072"><ele>345.0</ele><time>2026-04-25T11:09:31.783Z</time></trkpt><trkpt lat="45.87496825972061" lon="8.879725653639806"><ele>345.0</ele><time>2026-04-25T11:09:32.782Z</time></trkpt><trkpt lat="45.874875168093695" lon="8.879772184501519"><ele>345.0</ele><time>2026-04-25T11:09:33.782Z</time></trkpt><trkpt lat="45.874729859165896" lon="8.879779285765158"><ele>345.0</ele><time>2026-04-25T11:09:34.782Z</time></trkpt><trkpt lat="45.874530584421834" lon="8.879692086640068"><ele>345.0</ele><time>2026-04-25T11:09:35.782Z</time></trkpt><trkpt lat="45.874322603304904" lon="8.879606359421592"><ele>345.0</ele><time>2026-04-25T11:09:36.782Z</time></trkpt><trkpt lat="45.87412021456121" lon="8.87951903563691"><ele>345.0</ele><time>2026-04-25T11:09:37.782Z</time></trkpt><trkpt lat="45.87390133923851" lon="8.879428697804723"><ele>346.5</ele><time>2026-04-25T11:09:38.782Z</time></trkpt><trkpt lat="45.87364374032837" lon="8.8793327341542"><ele>348.0</ele><time>2026-04-25T11:09:39.782Z</time></trkpt><trkpt lat="45.87335631391081" lon="8.879221990974457"><ele>350.0</ele><time>2026-04-25T11:09:40.782Z</time></trkpt><trkpt lat="45.87308564424166" lon="8.879111530416008"><ele>352.0</ele><time>2026-04-25T11:09:41.783Z</time></trkpt><trkpt lat="45.87283122620364" lon="8.879005179609697"><ele>359.0</ele><time>2026-04-25T11:09:42.783Z</time></trkpt><trkpt lat="45.87258644233678" lon="8.878896003499667"><ele>366.0</ele><time>2026-04-25T11:09:43.783Z</time></trkpt><trkpt lat="45.872338034054245" lon="8.878771263260722"><ele>366.0</ele><time>2026-04-25T11:09:44.783Z</time></trkpt><trkpt lat="45.87210682412804" lon="8.878634357294885"><ele>366.0</ele><time>2026-04-25T11:09:45.783Z</time></trkpt><trkpt lat="45.871885779708286" lon="8.878502576982953"><ele>361.5</ele><time>2026-04-25T11:09:46.783Z</time></trkpt><trkpt lat="45.871671824057245" lon="8.878368601462695"><ele>357.0</ele><time>2026-04-25T11:09:47.783Z</time></trkpt><trkpt lat="45.87146711579203" lon="8.878231499493562"><ele>357.0</ele><time>2026-04-25T11:09:48.783Z</time></trkpt><trkpt lat="45.87126871206025" lon="8.878089252098622"><ele>357.0</ele><time>2026-04-25T11:09:49.783Z</time></trkpt><trkpt lat="45.87107013245721" lon="8.877952063038277"><ele>357.0</ele><time>2026-04-25T11:09:50.783Z</time></trkpt><trkpt lat="45.870874243289144" lon="8.877818667892715"><ele>355.3333333333333</ele><time>2026-04-25T11:09:51.783Z</time></trkpt><trkpt lat="45.870673512826144" lon="8.877689060933838"><ele>353.66666666666663</ele><time>2026-04-25T11:09:52.783Z</time></trkpt><trkpt lat="45.87046648265838" lon="8.877568759654507"><ele>352.0</ele><time>2026-04-25T11:09:53.783Z</time></trkpt><trkpt lat="45.87025821128666" lon="8.877455499411097"><ele>354.3333333333333</ele><time>2026-04-25T11:09:54.783Z</time></trkpt><trkpt lat="45.870047988329716" lon="8.877344210580803"><ele>356.6666666666667</ele><time>2026-04-25T11:09:55.783Z</time></trkpt><trkpt lat="45.86983844988068" lon="8.877235544032297"><ele>359.0</ele><time>2026-04-25T11:09:56.783Z</time></trkpt><trkpt lat="45.86962625747127" lon="8.877124819991254"><ele>359.0</ele><time>2026-04-25T11:09:57.783Z</time></trkpt><trkpt lat="45.86941422047669" lon="8.877011710175841"><ele>359.0</ele><time>2026-04-25T11:09:58.783Z</time></trkpt><trkpt lat="45.86919598206009" lon="8.876906917436191"><ele>356.0</ele><time>2026-04-25T11:09:59.783Z</time></trkpt><trkpt lat="45.86898114312282" lon="8.876798516257479"><ele>353.0</ele><time>2026-04-25T11:10:00.783Z</time></trkpt><trkpt lat="45.8687605942614" lon="8.876687155043815"><ele>353.0</ele><time>2026-04-25T11:10:01.783Z</time></trkpt><trkpt lat="45.86854102712951" lon="8.876571967071515"><ele>353.0</ele><time>2026-04-25T11:10:02.783Z</time></trkpt><trkpt lat="45.868320492948406" lon="8.876450025791167"><ele>360.5</ele><time>2026-04-25T11:10:03.783Z</time></trkpt><trkpt lat="45.868101523906155" lon="8.876310966929248"><ele>368.0</ele><time>2026-04-25T11:10:04.783Z</time></trkpt><trkpt lat="45.86787121874725" lon="8.876144237645677"><ele>368.0</ele><time>2026-04-25T11:10:05.783Z</time></trkpt><trkpt lat="45.86765558209104" lon="8.875953380671717"><ele>368.0</ele><time>2026-04-25T11:10:06.783Z</time></trkpt><trkpt lat="45.86746081151383" lon="8.875749938149216"><ele>364.6666666666667</ele><time>2026-04-25T11:10:07.783Z</time></trkpt><trkpt lat="45.86729420351622" lon="8.875553951473995"><ele>361.3333333333333</ele><time>2026-04-25T11:10:08.783Z</time></trkpt><trkpt lat="45.86714025699514" lon="8.875378270674787"><ele>358.0</ele><time>2026-04-25T11:10:09.783Z</time></trkpt><trkpt lat="45.86697973054682" lon="8.875208497146598"><ele>357.3333333333333</ele><time>2026-04-25T11:10:10.783Z</time></trkpt><trkpt lat="45.86680380530208" lon="8.875039539303334"><ele>356.6666666666667</ele><time>2026-04-25T11:10:11.783Z</time></trkpt><trkpt lat="45.866609090613444" lon="8.87488979434708"><ele>356.0</ele><time>2026-04-25T11:10:12.783Z</time></trkpt><trkpt lat="45.86640116065434" lon="8.874764135428677"><ele>356.0</ele><time>2026-04-25T11:10:13.783Z</time></trkpt><trkpt lat="45.86618543286095" lon="8.874661333530025"><ele>356.0</ele><time>2026-04-25T11:10:14.783Z</time></trkpt><trkpt lat="45.86596405540164" lon="8.874564847082347"><ele>360.33333333333337</ele><time>2026-04-25T11:10:15.783Z</time></trkpt><trkpt lat="45.86574446476179" lon="8.874480863006795"><ele>364.6666666666667</ele><time>2026-04-25T11:10:16.783Z</time></trkpt><trkpt lat="45.86553157484584" lon="8.874393438591225"><ele>369.0</ele><time>2026-04-25T11:10:17.783Z</time></trkpt><trkpt lat="45.86533858241164" lon="8.87431143248649"><ele>367.6666666666667</ele><time>2026-04-25T11:10:18.783Z</time></trkpt><trkpt lat="45.865161253861054" lon="8.874233139908199"><ele>366.33333333333337</ele><time>2026-04-25T11:10:19.783Z</time></trkpt><trkpt lat="45.864994200850845" lon="8.87416287200888"><ele>365.0</ele><time>2026-04-25T11:10:20.783Z</time></trkpt><trkpt lat="45.864845380863144" lon="8.874095968249042"><ele>365.0</ele><time>2026-04-25T11:10:21.783Z</time></trkpt><trkpt lat="45.86471709764642" lon="8.874026593454959"><ele>365.0</ele><time>2026-04-25T11:10:22.783Z</time></trkpt><trkpt lat="45.864608770128264" lon="8.873949332033476"><ele>365.0</ele><time>2026-04-25T11:10:23.783Z</time></trkpt><trkpt lat="45.86451002185896" lon="8.87386393896816"><ele>365.0</ele><time>2026-04-25T11:10:24.783Z</time></trkpt><trkpt lat="45.86441936010782" lon="8.873798567279549"><ele>365.0</ele><time>2026-04-25T11:10:25.783Z</time></trkpt><trkpt lat="45.86435676768161" lon="8.87370108439284"><ele>365.0</ele><time>2026-04-25T11:10:26.783Z</time></trkpt><trkpt lat="45.864271696855724" lon="8.873683613189877"><ele>365.0</ele><time>2026-04-25T11:10:27.783Z</time></trkpt><trkpt lat="45.86416861487478" lon="8.873720612667647"><ele>365.0</ele><time>2026-04-25T11:10:28.783Z</time></trkpt><trkpt lat="45.86404743585146" lon="8.873807275053673"><ele>365.0</ele><time>2026-04-25T11:10:29.783Z</time></trkpt><trkpt lat="45.86387318929303" lon="8.873826003737184"><ele>363.6666666666667</ele><time>2026-04-25T11:10:30.783Z</time></trkpt><trkpt lat="45.86369464201425" lon="8.873879210637556"><ele>362.3333333333333</ele><time>2026-04-25T11:10:31.783Z</time></trkpt><trkpt lat="45.86349307660962" lon="8.873979285988902"><ele>361.0</ele><time>2026-04-25T11:10:32.783Z</time></trkpt><trkpt lat="45.86329727344327" lon="8.874145898008814"><ele>362.0</ele><time>2026-04-25T11:10:33.783Z</time></trkpt><trkpt lat="45.863129877099205" lon="8.874348813401953"><ele>363.0</ele><time>2026-04-25T11:10:34.783Z</time></trkpt><trkpt lat="45.86297691009768" lon="8.874585475398597"><ele>364.0</ele><time>2026-04-25T11:10:35.783Z</time></trkpt><trkpt lat="45.86283635520469" lon="8.874838627951167"><ele>364.0</ele><time>2026-04-25T11:10:36.783Z</time></trkpt><trkpt lat="45.86270586453152" lon="8.875082888111052"><ele>364.0</ele><time>2026-04-25T11:10:37.783Z</time></trkpt><trkpt lat="45.862577442593235" lon="8.875320613489558"><ele>364.0</ele><time>2026-04-25T11:10:38.783Z</time></trkpt><trkpt lat="45.86244774126227" lon="8.875541201311432"><ele>363.66666666666663</ele><time>2026-04-25T11:10:39.783Z</time></trkpt><trkpt lat="45.862300566566304" lon="8.875749576036943"><ele>363.3333333333333</ele><time>2026-04-25T11:10:40.783Z</time></trkpt><trkpt lat="45.86215572817677" lon="8.87593974170012"><ele>363.0</ele><time>2026-04-25T11:10:41.783Z</time></trkpt><trkpt lat="45.8620004430103" lon="8.87610233307854"><ele>363.0</ele><time>2026-04-25T11:10:42.783Z</time></trkpt><trkpt lat="45.86183150263385" lon="8.87624654090813"><ele>363.0</ele><time>2026-04-25T11:10:43.783Z</time></trkpt><trkpt lat="45.86165260345226" lon="8.876374570639378"><ele>363.0</ele><time>2026-04-25T11:10:44.783Z</time></trkpt><trkpt lat="45.86146619859973" lon="8.876483642145748"><ele>363.0</ele><time>2026-04-25T11:10:45.783Z</time></trkpt><trkpt lat="45.861283855154966" lon="8.87656875111181"><ele>363.0</ele><time>2026-04-25T11:10:46.783Z</time></trkpt><trkpt lat="45.861100544211446" lon="8.876651112137345"><ele>363.0</ele><time>2026-04-25T11:10:47.783Z</time></trkpt><trkpt lat="45.860909939362934" lon="8.876720224957772"><ele>364.3333333333333</ele><time>2026-04-25T11:10:48.783Z</time></trkpt><trkpt lat="45.86071802015456" lon="8.876795505515988"><ele>365.66666666666663</ele><time>2026-04-25T11:10:49.783Z</time></trkpt><trkpt lat="45.86051970980117" lon="8.876864458393356"><ele>367.0</ele><time>2026-04-25T11:10:50.783Z</time></trkpt><trkpt lat="45.86031987861817" lon="8.876928974777902"><ele>366.0</ele><time>2026-04-25T11:10:51.783Z</time></trkpt><trkpt lat="45.86011289874553" lon="8.876998753033677"><ele>365.0</ele><time>2026-04-25T11:10:52.783Z</time></trkpt><trkpt lat="45.859901947056606" lon="8.877077784690238"><ele>364.0</ele><time>2026-04-25T11:10:53.783Z</time></trkpt><trkpt lat="45.85968903191598" lon="8.877153639529649"><ele>364.0</ele><time>2026-04-25T11:10:54.783Z</time></trkpt><trkpt lat="45.85946896789038" lon="8.877229305129733"><ele>364.0</ele><time>2026-04-25T11:10:55.783Z</time></trkpt><trkpt lat="45.85923690375744" lon="8.877304257668694"><ele>362.5</ele><time>2026-04-25T11:10:56.783Z</time></trkpt><trkpt lat="45.85900797521326" lon="8.87738151584652"><ele>361.0</ele><time>2026-04-25T11:10:57.783Z</time></trkpt><trkpt lat="45.858783954109086" lon="8.877457068270965"><ele>361.0</ele><time>2026-04-25T11:10:58.783Z</time></trkpt><trkpt lat="45.858564530674585" lon="8.877530539685637"><ele>361.0</ele><time>2026-04-25T11:10:59.783Z</time></trkpt><trkpt lat="45.85835173921347" lon="8.877592534512416"><ele>361.0</ele><time>2026-04-25T11:11:00.783Z</time></trkpt><trkpt lat="45.85813635694301" lon="8.877645475060273"><ele>361.66666666666663</ele><time>2026-04-25T11:11:01.783Z</time></trkpt><trkpt lat="45.85791917868324" lon="8.877693367145566"><ele>362.3333333333333</ele><time>2026-04-25T11:11:02.783Z</time></trkpt><trkpt lat="45.85769890169195" lon="8.877734732146674"><ele>363.0</ele><time>2026-04-25T11:11:03.783Z</time></trkpt><trkpt lat="45.85747892994823" lon="8.877763939480703"><ele>363.0</ele><time>2026-04-25T11:11:04.783Z</time></trkpt><trkpt lat="45.857252820403225" lon="8.877784831027805"><ele>363.0</ele><time>2026-04-25T11:11:05.783Z</time></trkpt><trkpt lat="45.85702587886139" lon="8.877807110014222"><ele>363.0</ele><time>2026-04-25T11:11:06.783Z</time></trkpt><trkpt lat="45.85680227657649" lon="8.877820722112425"><ele>363.0</ele><time>2026-04-25T11:11:07.783Z</time></trkpt><trkpt lat="45.856574481232045" lon="8.877830621375914"><ele>363.3333333333333</ele><time>2026-04-25T11:11:08.783Z</time></trkpt><trkpt lat="45.85634809799443" lon="8.877838055050624"><ele>363.66666666666663</ele><time>2026-04-25T11:11:09.783Z</time></trkpt><trkpt lat="45.856127401217826" lon="8.87784565508829"><ele>364.0</ele><time>2026-04-25T11:11:10.783Z</time></trkpt><trkpt lat="45.85590305031196" lon="8.877855386032591"><ele>366.3333333333333</ele><time>2026-04-25T11:11:11.783Z</time></trkpt><trkpt lat="45.85568026369634" lon="8.877864391700514"><ele>368.6666666666667</ele><time>2026-04-25T11:11:12.783Z</time></trkpt><trkpt lat="45.85545443983247" lon="8.877877004398503"><ele>371.0</ele><time>2026-04-25T11:11:13.783Z</time></trkpt><trkpt lat="45.85523037129776" lon="8.87789406484062"><ele>371.0</ele><time>2026-04-25T11:11:14.783Z</time></trkpt><trkpt lat="45.855022745658545" lon="8.877909275309673"><ele>371.0</ele><time>2026-04-25T11:11:15.783Z</time></trkpt><trkpt lat="45.854826337759036" lon="8.877921635881542"><ele>371.0</ele><time>2026-04-25T11:11:16.783Z</time></trkpt><trkpt lat="45.85463956891345" lon="8.877936154545926"><ele>371.0</ele><time>2026-04-25T11:11:17.783Z</time></trkpt><trkpt lat="45.85447275660322" lon="8.877949427677828"><ele>371.0</ele><time>2026-04-25T11:11:18.783Z</time></trkpt><trkpt lat="45.85433593742762" lon="8.877958297457134"><ele>371.0</ele><time>2026-04-25T11:11:19.783Z</time></trkpt><trkpt lat="45.85422404108856" lon="8.87796456218593"><ele>371.0</ele><time>2026-04-25T11:11:20.783Z</time></trkpt><trkpt lat="45.85414531545018" lon="8.877967949595437"><ele>370.6</ele><time>2026-04-25T11:11:21.783Z</time></trkpt><trkpt lat="45.854035412941435" lon="8.877921801743963"><ele>370.20000000000005</ele><time>2026-04-25T11:11:23.783Z</time></trkpt><trkpt lat="45.853979204880204" lon="8.877840604929936"><ele>369.79999999999995</ele><time>2026-04-25T11:11:24.783Z</time></trkpt><trkpt lat="45.85395229991993" lon="8.87772324043573"><ele>369.4</ele><time>2026-04-25T11:11:25.781Z</time></trkpt><trkpt lat="45.85396123396644" lon="8.877600521332838"><ele>369.0</ele><time>2026-04-25T11:11:26.781Z</time></trkpt><trkpt lat="45.85401865585693" lon="8.87741525734311"><ele>369.0</ele><time>2026-04-25T11:11:27.781Z</time></trkpt><trkpt lat="45.854091163442114" lon="8.877184995409872"><ele>369.0</ele><time>2026-04-25T11:11:28.781Z</time></trkpt><trkpt lat="45.8541518811153" lon="8.876979462358078"><ele>369.0</ele><time>2026-04-25T11:11:29.781Z</time></trkpt><trkpt lat="45.85421160661616" lon="8.87676380193144"><ele>371.0</ele><time>2026-04-25T11:11:30.781Z</time></trkpt><trkpt lat="45.85426913546358" lon="8.876540283633998"><ele>373.0</ele><time>2026-04-25T11:11:31.781Z</time></trkpt><trkpt lat="45.85432927919166" lon="8.876312989706426"><ele>375.0</ele><time>2026-04-25T11:11:32.781Z</time></trkpt><trkpt lat="45.8543821449223" lon="8.876086228644851"><ele>372.6666666666667</ele><time>2026-04-25T11:11:33.781Z</time></trkpt><trkpt lat="45.854435688274904" lon="8.875856790237306"><ele>370.33333333333337</ele><time>2026-04-25T11:11:34.781Z</time></trkpt><trkpt lat="45.8544758473821" lon="8.875621032334397"><ele>368.0</ele><time>2026-04-25T11:11:35.781Z</time></trkpt><trkpt lat="45.854501240095146" lon="8.87537053173971"><ele>368.0</ele><time>2026-04-25T11:11:36.781Z</time></trkpt><trkpt lat="45.85449070348564" lon="8.875110606182107"><ele>368.0</ele><time>2026-04-25T11:11:37.781Z</time></trkpt><trkpt lat="45.85446439003268" lon="8.874849654616233"><ele>368.0</ele><time>2026-04-25T11:11:38.781Z</time></trkpt><trkpt lat="45.8544120656489" lon="8.874595138692852"><ele>369.33333333333337</ele><time>2026-04-25T11:11:39.781Z</time></trkpt><trkpt lat="45.85433034252115" lon="8.8743468767772"><ele>370.6666666666667</ele><time>2026-04-25T11:11:40.781Z</time></trkpt><trkpt lat="45.854221236756985" lon="8.874110522829174"><ele>372.0</ele><time>2026-04-25T11:11:41.781Z</time></trkpt><trkpt lat="45.854102932185086" lon="8.873911856001785"><ele>374.0</ele><time>2026-04-25T11:11:42.781Z</time></trkpt><trkpt lat="45.85398348737971" lon="8.873740641882538"><ele>376.0</ele><time>2026-04-25T11:11:43.781Z</time></trkpt><trkpt lat="45.85387804316789" lon="8.87360793529844"><ele>378.0</ele><time>2026-04-25T11:11:44.781Z</time></trkpt><trkpt lat="45.853774600001024" lon="8.873489845745318"><ele>380.0</ele><time>2026-04-25T11:11:45.781Z</time></trkpt><trkpt lat="45.853694215615306" lon="8.873390845698996"><ele>380.4</ele><time>2026-04-25T11:11:46.781Z</time></trkpt><trkpt lat="45.85362314835095" lon="8.873293725663693"><ele>380.8</ele><time>2026-04-25T11:11:47.781Z</time></trkpt><trkpt lat="45.8535656962262" lon="8.873198781507552"><ele>381.20000000000005</ele><time>2026-04-25T11:11:48.781Z</time></trkpt><trkpt lat="45.85350109446293" lon="8.873131383972723"><ele>381.6</ele><time>2026-04-25T11:11:49.781Z</time></trkpt><trkpt lat="45.85339103859697" lon="8.873102870940057"><ele>382.0</ele><time>2026-04-25T11:11:50.781Z</time></trkpt><trkpt lat="45.85330456078123" lon="8.87298252341112"><ele>382.0</ele><time>2026-04-25T11:11:51.781Z</time></trkpt><trkpt lat="45.85310844698611" lon="8.872969894802614"><ele>382.0</ele><time>2026-04-25T11:11:52.781Z</time></trkpt><trkpt lat="45.85298007877937" lon="8.872856638058108"><ele>382.0</ele><time>2026-04-25T11:11:53.781Z</time></trkpt><trkpt lat="45.85284178193507" lon="8.872733584135293"><ele>382.0</ele><time>2026-04-25T11:11:54.781Z</time></trkpt><trkpt lat="45.85270750618349" lon="8.872606539135196"><ele>382.0</ele><time>2026-04-25T11:11:55.781Z</time></trkpt><trkpt lat="45.852584988010456" lon="8.87247707234907"><ele>382.0</ele><time>2026-04-25T11:11:56.781Z</time></trkpt><trkpt lat="45.85248566412145" lon="8.872358210559563"><ele>382.0</ele><time>2026-04-25T11:11:57.781Z</time></trkpt><trkpt lat="45.85240112275255" lon="8.872238813283902"><ele>382.5</ele><time>2026-04-25T11:11:58.781Z</time></trkpt><trkpt lat="45.85232621204867" lon="8.87211766131772"><ele>383.0</ele><time>2026-04-25T11:11:59.781Z</time></trkpt><trkpt lat="45.8522592341184" lon="8.871979945630152"><ele>383.5</ele><time>2026-04-25T11:12:00.781Z</time></trkpt><trkpt lat="45.85218989069984" lon="8.871831655346515"><ele>384.0</ele><time>2026-04-25T11:12:01.781Z</time></trkpt><trkpt lat="45.85210688442831" lon="8.871649854139605"><ele>384.0</ele><time>2026-04-25T11:12:02.781Z</time></trkpt><trkpt lat="45.85200368064343" lon="8.871459727014386"><ele>384.0</ele><time>2026-04-25T11:12:03.781Z</time></trkpt><trkpt lat="45.85188571818923" lon="8.871277453382998"><ele>384.0</ele><time>2026-04-25T11:12:04.781Z</time></trkpt><trkpt lat="45.851749745573464" lon="8.871130845330251"><ele>385.33333333333337</ele><time>2026-04-25T11:12:05.781Z</time></trkpt><trkpt lat="45.85160157900552" lon="8.87098893630746"><ele>386.6666666666667</ele><time>2026-04-25T11:12:06.781Z</time></trkpt><trkpt lat="45.85145501746449" lon="8.870829545559793"><ele>388.0</ele><time>2026-04-25T11:12:07.781Z</time></trkpt><trkpt lat="45.85131360484501" lon="8.870643783783049"><ele>388.0</ele><time>2026-04-25T11:12:08.781Z</time></trkpt><trkpt lat="45.85118373826878" lon="8.870446093567887"><ele>388.0</ele><time>2026-04-25T11:12:09.781Z</time></trkpt><trkpt lat="45.85107623360291" lon="8.870235640166948"><ele>388.0</ele><time>2026-04-25T11:12:10.781Z</time></trkpt><trkpt lat="45.85098606979746" lon="8.869993475944069"><ele>391.33333333333337</ele><time>2026-04-25T11:12:11.781Z</time></trkpt><trkpt lat="45.850921658237446" lon="8.869715542155964"><ele>394.66666666666663</ele><time>2026-04-25T11:12:12.781Z</time></trkpt><trkpt lat="45.85087748633247" lon="8.869420494950562"><ele>398.0</ele><time>2026-04-25T11:12:13.781Z</time></trkpt><trkpt lat="45.85086191964865" lon="8.869123609715315"><ele>398.0</ele><time>2026-04-25T11:12:14.781Z</time></trkpt><trkpt lat="45.850864515670764" lon="8.868823296689676"><ele>398.0</ele><time>2026-04-25T11:12:15.781Z</time></trkpt><trkpt lat="45.85086603978659" lon="8.868532215698524"><ele>398.0</ele><time>2026-04-25T11:12:16.781Z</time></trkpt><trkpt lat="45.850864359046604" lon="8.868234473116617"><ele>396.66666666666663</ele><time>2026-04-25T11:12:17.781Z</time></trkpt><trkpt lat="45.85086328003605" lon="8.867931676833566"><ele>395.33333333333337</ele><time>2026-04-25T11:12:18.781Z</time></trkpt><trkpt lat="45.850867373143835" lon="8.867625151714924"><ele>394.0</ele><time>2026-04-25T11:12:19.781Z</time></trkpt><trkpt lat="45.85086504992749" lon="8.867315359238594"><ele>393.33333333333337</ele><time>2026-04-25T11:12:20.781Z</time></trkpt><trkpt lat="45.850847338321806" lon="8.867005743910939"><ele>392.66666666666663</ele><time>2026-04-25T11:12:21.781Z</time></trkpt><trkpt lat="45.850816319324586" lon="8.866696971973553"><ele>392.0</ele><time>2026-04-25T11:12:22.781Z</time></trkpt><trkpt lat="45.85077859631005" lon="8.866388765914593"><ele>390.3333333333333</ele><time>2026-04-25T11:12:23.781Z</time></trkpt><trkpt lat="45.85072469098809" lon="8.866079363727641"><ele>388.66666666666663</ele><time>2026-04-25T11:12:24.781Z</time></trkpt><trkpt lat="45.85064799059978" lon="8.86578363777101"><ele>387.0</ele><time>2026-04-25T11:12:25.781Z</time></trkpt><trkpt lat="45.850552685209735" lon="8.86549839658326"><ele>386.33333333333337</ele><time>2026-04-25T11:12:26.781Z</time></trkpt><trkpt lat="45.850437736656865" lon="8.865224561237307"><ele>385.6666666666667</ele><time>2026-04-25T11:12:27.781Z</time></trkpt><trkpt lat="45.85030909022179" lon="8.864961189809735"><ele>385.0</ele><time>2026-04-25T11:12:28.781Z</time></trkpt><trkpt lat="45.85016927009698" lon="8.864709014597025"><ele>385.6666666666667</ele><time>2026-04-25T11:12:29.781Z</time></trkpt><trkpt lat="45.85002537591718" lon="8.864466542369444"><ele>386.33333333333337</ele><time>2026-04-25T11:12:30.781Z</time></trkpt><trkpt lat="45.84988250940757" lon="8.864239597020743"><ele>387.0</ele><time>2026-04-25T11:12:31.781Z</time></trkpt><trkpt lat="45.84974321096022" lon="8.864026909198248"><ele>387.0</ele><time>2026-04-25T11:12:32.781Z</time></trkpt><trkpt lat="45.84961561429231" lon="8.863835262458744"><ele>387.0</ele><time>2026-04-25T11:12:33.781Z</time></trkpt><trkpt lat="45.84950331090299" lon="8.863667578026647"><ele>387.0</ele><time>2026-04-25T11:12:34.781Z</time></trkpt><trkpt lat="45.849412122461985" lon="8.863515514354953"><ele>387.40000000000003</ele><time>2026-04-25T11:12:35.781Z</time></trkpt><trkpt lat="45.849338232933675" lon="8.863382497942876"><ele>387.8</ele><time>2026-04-25T11:12:36.781Z</time></trkpt><trkpt lat="45.84928007592384" lon="8.863258659679834"><ele>388.2</ele><time>2026-04-25T11:12:37.781Z</time></trkpt><trkpt lat="45.84923632743926" lon="8.863130612700505"><ele>388.6</ele><time>2026-04-25T11:12:38.781Z</time></trkpt><trkpt lat="45.84920605494192" lon="8.863000308050887"><ele>389.0</ele><time>2026-04-25T11:12:39.781Z</time></trkpt><trkpt lat="45.84917403006571" lon="8.862894887815985"><ele>389.0</ele><time>2026-04-25T11:12:40.781Z</time></trkpt><trkpt lat="45.84912087584166" lon="8.862803376428301"><ele>389.0</ele><time>2026-04-25T11:12:41.781Z</time></trkpt><trkpt lat="45.84902664212617" lon="8.862713270321793"><ele>389.0</ele><time>2026-04-25T11:12:42.781Z</time></trkpt><trkpt lat="45.84892894641991" lon="8.862589465209743"><ele>389.0</ele><time>2026-04-25T11:12:43.781Z</time></trkpt><trkpt lat="45.84884165179741" lon="8.862412473799544"><ele>389.66666666666663</ele><time>2026-04-25T11:12:44.781Z</time></trkpt><trkpt lat="45.84876233147674" lon="8.86219871422534"><ele>390.33333333333337</ele><time>2026-04-25T11:12:45.781Z</time></trkpt><trkpt lat="45.848676185587316" lon="8.861964738905668"><ele>391.0</ele><time>2026-04-25T11:12:46.781Z</time></trkpt><trkpt lat="45.8485979859429" lon="8.861740082937914"><ele>391.0</ele><time>2026-04-25T11:12:47.781Z</time></trkpt><trkpt lat="45.848517201231786" lon="8.861502107050633"><ele>391.0</ele><time>2026-04-25T11:12:48.781Z</time></trkpt><trkpt lat="45.84843860665797" lon="8.861265569288852"><ele>391.0</ele><time>2026-04-25T11:12:49.781Z</time></trkpt><trkpt lat="45.848366326436995" lon="8.861032223523633"><ele>390.33333333333337</ele><time>2026-04-25T11:12:50.781Z</time></trkpt><trkpt lat="45.84830796096474" lon="8.860793548548084"><ele>389.66666666666663</ele><time>2026-04-25T11:12:51.781Z</time></trkpt><trkpt lat="45.84827191911191" lon="8.860550085840963"><ele>389.0</ele><time>2026-04-25T11:12:52.781Z</time></trkpt><trkpt lat="45.848268697554346" lon="8.860297527869157"><ele>389.0</ele><time>2026-04-25T11:12:53.781Z</time></trkpt><trkpt lat="45.84830259426671" lon="8.860028971773634"><ele>389.0</ele><time>2026-04-25T11:12:54.781Z</time></trkpt><trkpt lat="45.848359421307606" lon="8.859761703409381"><ele>389.0</ele><time>2026-04-25T11:12:55.781Z</time></trkpt><trkpt lat="45.84844518314509" lon="8.85953968522317"><ele>389.0</ele><time>2026-04-25T11:12:56.781Z</time></trkpt><trkpt lat="45.848571494878925" lon="8.859332973691117"><ele>389.0</ele><time>2026-04-25T11:12:57.781Z</time></trkpt><trkpt lat="45.848742995854685" lon="8.859173750249727"><ele>389.0</ele><time>2026-04-25T11:12:58.781Z</time></trkpt><trkpt lat="45.84891696599071" lon="8.85905366028418"><ele>389.0</ele><time>2026-04-25T11:12:59.781Z</time></trkpt><trkpt lat="45.84911357095366" lon="8.858982405708748"><ele>389.0</ele><time>2026-04-25T11:13:00.781Z</time></trkpt><trkpt lat="45.84933600756274" lon="8.85891946440669"><ele>389.0</ele><time>2026-04-25T11:13:01.781Z</time></trkpt><trkpt lat="45.849554623975386" lon="8.858860274299666"><ele>389.3333333333333</ele><time>2026-04-25T11:13:02.781Z</time></trkpt><trkpt lat="45.849762655829736" lon="8.858803912828508"><ele>389.66666666666663</ele><time>2026-04-25T11:13:03.781Z</time></trkpt><trkpt lat="45.849972337533764" lon="8.85874631844715"><ele>390.0</ele><time>2026-04-25T11:13:04.781Z</time></trkpt><trkpt lat="45.850181717971914" lon="8.858687738756942"><ele>390.33333333333337</ele><time>2026-04-25T11:13:05.781Z</time></trkpt><trkpt lat="45.850390905479536" lon="8.858621669583084"><ele>390.6666666666667</ele><time>2026-04-25T11:13:06.781Z</time></trkpt><trkpt lat="45.85060224135295" lon="8.85851867489922"><ele>391.0</ele><time>2026-04-25T11:13:07.781Z</time></trkpt><trkpt lat="45.85081572668502" lon="8.858422789253138"><ele>391.33333333333337</ele><time>2026-04-25T11:13:08.781Z</time></trkpt><trkpt lat="45.85102654783031" lon="8.858306809634872"><ele>391.66666666666663</ele><time>2026-04-25T11:13:09.781Z</time></trkpt><trkpt lat="45.851220049919704" lon="8.85819561273818"><ele>392.0</ele><time>2026-04-25T11:13:10.781Z</time></trkpt><trkpt lat="45.85140886449154" lon="8.85809005701919"><ele>392.0</ele><time>2026-04-25T11:13:11.781Z</time></trkpt><trkpt lat="45.85159923299002" lon="8.857976589742826"><ele>392.0</ele><time>2026-04-25T11:13:12.781Z</time></trkpt><trkpt lat="45.85178717614724" lon="8.857865929490217"><ele>392.0</ele><time>2026-04-25T11:13:13.781Z</time></trkpt><trkpt lat="45.85196911592206" lon="8.85774873222563"><ele>391.66666666666663</ele><time>2026-04-25T11:13:14.781Z</time></trkpt><trkpt lat="45.85214916934818" lon="8.857624801396499"><ele>391.33333333333337</ele><time>2026-04-25T11:13:15.781Z</time></trkpt><trkpt lat="45.85231372311586" lon="8.857494858898034"><ele>391.0</ele><time>2026-04-25T11:13:16.781Z</time></trkpt><trkpt lat="45.85246519146662" lon="8.8573446401745"><ele>391.6666666666667</ele><time>2026-04-25T11:13:17.781Z</time></trkpt><trkpt lat="45.85260808533471" lon="8.857166914228277"><ele>392.33333333333337</ele><time>2026-04-25T11:13:18.781Z</time></trkpt><trkpt lat="45.85274277279124" lon="8.85694804683668"><ele>393.0</ele><time>2026-04-25T11:13:19.781Z</time></trkpt><trkpt lat="45.852854765551726" lon="8.856697393876379"><ele>392.0</ele><time>2026-04-25T11:13:20.781Z</time></trkpt><trkpt lat="45.85294964813202" lon="8.856438831130687"><ele>391.0</ele><time>2026-04-25T11:13:21.781Z</time></trkpt><trkpt lat="45.85303780669608" lon="8.85618466380589"><ele>390.0</ele><time>2026-04-25T11:13:22.781Z</time></trkpt><trkpt lat="45.85312938610806" lon="8.85593638367311"><ele>390.0</ele><time>2026-04-25T11:13:23.781Z</time></trkpt><trkpt lat="45.853227551401716" lon="8.855689195893483"><ele>390.0</ele><time>2026-04-25T11:13:24.781Z</time></trkpt><trkpt lat="45.85332414444043" lon="8.855432393707712"><ele>390.0</ele><time>2026-04-25T11:13:25.781Z</time></trkpt><trkpt lat="45.853419396600486" lon="8.85517116204549"><ele>389.33333333333337</ele><time>2026-04-25T11:13:26.781Z</time></trkpt><trkpt lat="45.853516624730986" lon="8.854912324157779"><ele>388.6666666666667</ele><time>2026-04-25T11:13:27.781Z</time></trkpt><trkpt lat="45.853614268510235" lon="8.854658160924684"><ele>388.0</ele><time>2026-04-25T11:13:28.781Z</time></trkpt><trkpt lat="45.85370771370355" lon="8.854415189244527"><ele>388.0</ele><time>2026-04-25T11:13:29.781Z</time></trkpt><trkpt lat="45.85379399955125" lon="8.854176778104556"><ele>388.0</ele><time>2026-04-25T11:13:30.781Z</time></trkpt><trkpt lat="45.853874352791706" lon="8.853943929732813"><ele>388.0</ele><time>2026-04-25T11:13:31.778Z</time></trkpt><trkpt lat="45.85393696880716" lon="8.853718432909503"><ele>388.0</ele><time>2026-04-25T11:13:32.778Z</time></trkpt><trkpt lat="45.85399758922102" lon="8.853479666462803"><ele>388.0</ele><time>2026-04-25T11:13:33.778Z</time></trkpt><trkpt lat="45.85401628549395" lon="8.853232173753828"><ele>388.0</ele><time>2026-04-25T11:13:34.779Z</time></trkpt><trkpt lat="45.854040978311644" lon="8.852979046334715"><ele>389.33333333333337</ele><time>2026-04-25T11:13:35.779Z</time></trkpt><trkpt lat="45.8540272343277" lon="8.852711318459805"><ele>390.66666666666663</ele><time>2026-04-25T11:13:36.779Z</time></trkpt><trkpt lat="45.85399365644821" lon="8.852446040148992"><ele>392.0</ele><time>2026-04-25T11:13:37.778Z</time></trkpt><trkpt lat="45.85396208218369" lon="8.852184225903615"><ele>392.3333333333333</ele><time>2026-04-25T11:13:38.779Z</time></trkpt><trkpt lat="45.85397116186862" lon="8.851932773671066"><ele>392.66666666666663</ele><time>2026-04-25T11:13:39.779Z</time></trkpt><trkpt lat="45.853976745631485" lon="8.851719556715276"><ele>393.0</ele><time>2026-04-25T11:13:40.779Z</time></trkpt><trkpt lat="45.85398144060508" lon="8.851530529579646"><ele>394.0</ele><time>2026-04-25T11:13:41.778Z</time></trkpt><trkpt lat="45.85396708447646" lon="8.851347448579702"><ele>395.0</ele><time>2026-04-25T11:13:42.778Z</time></trkpt><trkpt lat="45.85393579094603" lon="8.85115497823581"><ele>396.0</ele><time>2026-04-25T11:13:43.779Z</time></trkpt><trkpt lat="45.85387135635434" lon="8.850987577462236"><ele>397.0</ele><time>2026-04-25T11:13:44.779Z</time></trkpt><trkpt lat="45.85378541974263" lon="8.850865079124619"><ele>397.25</ele><time>2026-04-25T11:13:45.779Z</time></trkpt><trkpt lat="45.85368947398852" lon="8.850778714354552"><ele>397.5</ele><time>2026-04-25T11:13:46.779Z</time></trkpt><trkpt lat="45.85355505529301" lon="8.850726345155842"><ele>397.75</ele><time>2026-04-25T11:13:47.779Z</time></trkpt><trkpt lat="45.853403772035854" lon="8.85071600038589"><ele>398.0</ele><time>2026-04-25T11:13:48.779Z</time></trkpt><trkpt lat="45.85325934493422" lon="8.850688184282522"><ele>400.5</ele><time>2026-04-25T11:13:49.779Z</time></trkpt><trkpt lat="45.85314284016946" lon="8.85061657786643"><ele>403.0</ele><time>2026-04-25T11:13:50.779Z</time></trkpt><trkpt lat="45.85304490636407" lon="8.85049884884877"><ele>405.5</ele><time>2026-04-25T11:13:51.779Z</time></trkpt><trkpt lat="45.85294968510847" lon="8.850373283496934"><ele>408.0</ele><time>2026-04-25T11:13:52.779Z</time></trkpt><trkpt lat="45.85284123323717" lon="8.850228748033851"><ele>406.33333333333337</ele><time>2026-04-25T11:13:53.779Z</time></trkpt><trkpt lat="45.85272090059973" lon="8.850056377597454"><ele>404.6666666666667</ele><time>2026-04-25T11:13:54.779Z</time></trkpt><trkpt lat="45.852598457847826" lon="8.849874607635483"><ele>403.0</ele><time>2026-04-25T11:13:55.779Z</time></trkpt><trkpt lat="45.85248095569895" lon="8.849659605303328"><ele>406.33333333333337</ele><time>2026-04-25T11:13:56.779Z</time></trkpt><trkpt lat="45.85236152698692" lon="8.849460807469189"><ele>409.66666666666663</ele><time>2026-04-25T11:13:57.779Z</time></trkpt><trkpt lat="45.85224515515554" lon="8.849267527895627"><ele>413.0</ele><time>2026-04-25T11:13:58.779Z</time></trkpt><trkpt lat="45.852125901518605" lon="8.849071732682905"><ele>413.0</ele><time>2026-04-25T11:13:59.779Z</time></trkpt><trkpt lat="45.852002820864385" lon="8.848870275973143"><ele>413.0</ele><time>2026-04-25T11:14:00.779Z</time></trkpt><trkpt lat="45.851884995828804" lon="8.848676366729299"><ele>413.0</ele><time>2026-04-25T11:14:01.779Z</time></trkpt><trkpt lat="45.85176554650973" lon="8.84847943039745"><ele>417.0</ele><time>2026-04-25T11:14:02.779Z</time></trkpt><trkpt lat="45.851634662091016" lon="8.848292499924074"><ele>421.0</ele><time>2026-04-25T11:14:03.779Z</time></trkpt><trkpt lat="45.85151992217316" lon="8.848099321872919"><ele>425.0</ele><time>2026-04-25T11:14:04.779Z</time></trkpt><trkpt lat="45.85140577783602" lon="8.847895988140683"><ele>425.0</ele><time>2026-04-25T11:14:05.779Z</time></trkpt><trkpt lat="45.851289065720145" lon="8.847684092375554"><ele>425.0</ele><time>2026-04-25T11:14:06.779Z</time></trkpt><trkpt lat="45.851171852175284" lon="8.847481028396063"><ele>425.0</ele><time>2026-04-25T11:14:07.779Z</time></trkpt><trkpt lat="45.85105476035366" lon="8.847275008736377"><ele>424.0</ele><time>2026-04-25T11:14:08.779Z</time></trkpt><trkpt lat="45.85093694295198" lon="8.847060482556513"><ele>423.0</ele><time>2026-04-25T11:14:09.779Z</time></trkpt><trkpt lat="45.8508235205033" lon="8.846846273747198"><ele>422.0</ele><time>2026-04-25T11:14:10.779Z</time></trkpt><trkpt lat="45.85069828777494" lon="8.846609854603045"><ele>421.0</ele><time>2026-04-25T11:14:11.921Z</time></trkpt><trkpt lat="45.850590442118715" lon="8.846400811071724"><ele>420.0</ele><time>2026-04-25T11:14:12.925Z</time></trkpt><trkpt lat="45.85046867797454" lon="8.84621575402225"><ele>419.0</ele><time>2026-04-25T11:14:13.921Z</time></trkpt><trkpt lat="45.850350502650045" lon="8.846020570845496"><ele>425.0</ele><time>2026-04-25T11:14:14.922Z</time></trkpt><trkpt lat="45.84896762181474" lon="8.843901250331475"><ele>424.0</ele><time>2026-04-25T11:14:18.501Z</time></trkpt><trkpt lat="45.8485556014675" lon="8.843219522682663"><ele>398.0</ele><time>2026-04-25T11:14:19.501Z</time></trkpt><trkpt lat="45.848149537271865" lon="8.842351982571705"><ele>398.0</ele><time>2026-04-25T11:14:30.128Z</time></trkpt><trkpt lat="45.8479123782018" lon="8.842338745611388"><ele>398.0</ele><time>2026-04-25T11:14:32.779Z</time></trkpt><trkpt lat="45.84773502087552" lon="8.842188396278091"><ele>398.0</ele><time>2026-04-25T11:14:33.779Z</time></trkpt><trkpt lat="45.847559765710955" lon="8.84206234686012"><ele>399.3333333333333</ele><time>2026-04-25T11:14:34.779Z</time></trkpt><trkpt lat="45.84736770642239" lon="8.841968082787297"><ele>400.66666666666663</ele><time>2026-04-25T11:14:35.779Z</time></trkpt><trkpt lat="45.84716619019495" lon="8.841880325633463"><ele>402.0</ele><time>2026-04-25T11:14:36.779Z</time></trkpt><trkpt lat="45.846947655697875" lon="8.841803883937766"><ele>399.0</ele><time>2026-04-25T11:14:37.779Z</time></trkpt><trkpt lat="45.846748273204774" lon="8.841747473085935"><ele>396.0</ele><time>2026-04-25T11:14:38.779Z</time></trkpt><trkpt lat="45.84656641130475" lon="8.841696653901229"><ele>393.0</ele><time>2026-04-25T11:14:39.779Z</time></trkpt><trkpt lat="45.84639567981709" lon="8.84163161481106"><ele>393.0</ele><time>2026-04-25T11:14:40.779Z</time></trkpt><trkpt lat="45.84622006805713" lon="8.841570581769773"><ele>393.0</ele><time>2026-04-25T11:14:41.779Z</time></trkpt><trkpt lat="45.84604641683305" lon="8.841518168511755"><ele>393.0</ele><time>2026-04-25T11:14:42.779Z</time></trkpt><trkpt lat="45.845880959403836" lon="8.841453728685252"><ele>395.66666666666663</ele><time>2026-04-25T11:14:43.779Z</time></trkpt><trkpt lat="45.845720557366924" lon="8.841368394740542"><ele>398.3333333333333</ele><time>2026-04-25T11:14:44.779Z</time></trkpt><trkpt lat="45.84557013371542" lon="8.841264471248504"><ele>401.0</ele><time>2026-04-25T11:14:45.779Z</time></trkpt><trkpt lat="45.84543433422894" lon="8.84113648662937"><ele>401.0</ele><time>2026-04-25T11:14:46.779Z</time></trkpt><trkpt lat="45.84532045212447" lon="8.841010171853341"><ele>401.0</ele><time>2026-04-25T11:14:47.779Z</time></trkpt><trkpt lat="45.845236739230714" lon="8.84089821328464"><ele>401.0</ele><time>2026-04-25T11:14:48.779Z</time></trkpt><trkpt lat="45.84516908308376" lon="8.840791048994637"><ele>401.0</ele><time>2026-04-25T11:14:49.779Z</time></trkpt><trkpt lat="45.84512904283387" lon="8.840700369768111"><ele>401.0</ele><time>2026-04-25T11:14:50.779Z</time></trkpt><trkpt lat="45.84510167727579" lon="8.840537680297546"><ele>398.6</ele><time>2026-04-25T11:14:52.779Z</time></trkpt><trkpt lat="45.8451044771443" lon="8.840446765686746"><ele>396.20000000000005</ele><time>2026-04-25T11:14:53.779Z</time></trkpt><trkpt lat="45.845094411029436" lon="8.84027286471692"><ele>393.79999999999995</ele><time>2026-04-25T11:14:55.779Z</time></trkpt><trkpt lat="45.844999748230336" lon="8.840175043944193"><ele>391.4</ele><time>2026-04-25T11:14:57.779Z</time></trkpt><trkpt lat="45.844865827916145" lon="8.840197900857069"><ele>389.0</ele><time>2026-04-25T11:14:59.779Z</time></trkpt><trkpt lat="45.844780678656555" lon="8.840221266160466"><ele>389.0</ele><time>2026-04-25T11:15:00.779Z</time></trkpt><trkpt lat="45.844689914660364" lon="8.840227736279653"><ele>389.0</ele><time>2026-04-25T11:15:01.779Z</time></trkpt><trkpt lat="45.84458781049694" lon="8.840242079627753"><ele>389.0</ele><time>2026-04-25T11:15:02.779Z</time></trkpt><trkpt lat="45.84447735886143" lon="8.840272160520158"><ele>389.0</ele><time>2026-04-25T11:15:03.779Z</time></trkpt><trkpt lat="45.8443603182361" lon="8.840311142476635"><ele>389.0</ele><time>2026-04-25T11:15:04.779Z</time></trkpt><trkpt lat="45.84424169772062" lon="8.840344398656812"><ele>389.4</ele><time>2026-04-25T11:15:05.779Z</time></trkpt><trkpt lat="45.844122306667394" lon="8.840378245775941"><ele>389.79999999999995</ele><time>2026-04-25T11:15:06.779Z</time></trkpt><trkpt lat="45.844011917944265" lon="8.840411906961721"><ele>390.20000000000005</ele><time>2026-04-25T11:15:07.779Z</time></trkpt><trkpt lat="45.8439141197557" lon="8.840437003574873"><ele>390.6</ele><time>2026-04-25T11:15:08.779Z</time></trkpt><trkpt lat="45.843823990234874" lon="8.840466991130947"><ele>391.0</ele><time>2026-04-25T11:15:09.779Z</time></trkpt><trkpt lat="45.84374332124238" lon="8.840489562986232"><ele>391.00000000000006</ele><time>2026-04-25T11:15:10.779Z</time></trkpt><trkpt lat="45.84365829254984" lon="8.840513370385999"><ele>391.0</ele><time>2026-04-25T11:15:11.779Z</time></trkpt><trkpt lat="45.84356650092625" lon="8.840508672597846"><ele>391.0</ele><time>2026-04-25T11:15:12.779Z</time></trkpt><trkpt lat="45.84347441592718" lon="8.840532086051878"><ele>391.0</ele><time>2026-04-25T11:15:13.779Z</time></trkpt><trkpt lat="45.843387322692905" lon="8.840554948909265"><ele>391.00000000000006</ele><time>2026-04-25T11:15:14.779Z</time></trkpt><trkpt lat="45.84330666355206" lon="8.840576503404609"><ele>391.0</ele><time>2026-04-25T11:15:15.779Z</time></trkpt><trkpt lat="45.84323052040059" lon="8.84059684920982"><ele>390.6666666666667</ele><time>2026-04-25T11:15:16.779Z</time></trkpt><trkpt lat="45.84314803282798" lon="8.840610219049005"><ele>390.33333333333337</ele><time>2026-04-25T11:15:17.779Z</time></trkpt><trkpt lat="45.84306362913155" lon="8.840634769559976"><ele>390.0</ele><time>2026-04-25T11:15:18.779Z</time></trkpt><trkpt lat="45.842994969965595" lon="8.840686525668614"><ele>389.66666666666663</ele><time>2026-04-25T11:15:19.779Z</time></trkpt><trkpt lat="45.84290727318398" lon="8.840717164548003"><ele>389.3333333333333</ele><time>2026-04-25T11:15:20.779Z</time></trkpt><trkpt lat="45.84282547321257" lon="8.840734400965468"><ele>389.0</ele><time>2026-04-25T11:15:21.779Z</time></trkpt><trkpt lat="45.84274079278666" lon="8.84074832010546"><ele>389.0</ele><time>2026-04-25T11:15:22.779Z</time></trkpt><trkpt lat="45.84267357670479" lon="8.840766424391989"><ele>389.0</ele><time>2026-04-25T11:15:23.779Z</time></trkpt><trkpt lat="45.84256482719077" lon="8.840776883797101"><ele>389.0</ele><time>2026-04-25T11:15:25.779Z</time></trkpt><trkpt lat="45.842442124860945" lon="8.840832632886048"><ele>389.0</ele><time>2026-04-25T11:15:27.779Z</time></trkpt><trkpt lat="45.84234229067489" lon="8.840858511962722"><ele>389.0</ele><time>2026-04-25T11:15:28.779Z</time></trkpt><trkpt lat="45.84222498555129" lon="8.840885899452534"><ele>388.75</ele><time>2026-04-25T11:15:29.779Z</time></trkpt><trkpt lat="45.8421037578246" lon="8.840913289197886"><ele>388.5</ele><time>2026-04-25T11:15:30.779Z</time></trkpt><trkpt lat="45.841980142373515" lon="8.840945068362466"><ele>388.25</ele><time>2026-04-25T11:15:31.779Z</time></trkpt><trkpt lat="45.84186464981789" lon="8.840981129356578"><ele>388.0</ele><time>2026-04-25T11:15:32.779Z</time></trkpt><trkpt lat="45.84175434989391" lon="8.84101883449943"><ele>387.25</ele><time>2026-04-25T11:15:33.779Z</time></trkpt><trkpt lat="45.841635661438644" lon="8.841053115555393"><ele>386.5</ele><time>2026-04-25T11:15:34.779Z</time></trkpt><trkpt lat="45.84150396580919" lon="8.84106824329282"><ele>385.75</ele><time>2026-04-25T11:15:35.779Z</time></trkpt><trkpt lat="45.84136803737541" lon="8.841128530598828"><ele>385.0</ele><time>2026-04-25T11:15:36.779Z</time></trkpt><trkpt lat="45.84122986890016" lon="8.841160784332171"><ele>385.0</ele><time>2026-04-25T11:15:37.777Z</time></trkpt><trkpt lat="45.84110111414411" lon="8.841177889109325"><ele>385.0</ele><time>2026-04-25T11:15:38.777Z</time></trkpt><trkpt lat="45.84098022109447" lon="8.84121046180168"><ele>385.0</ele><time>2026-04-25T11:15:39.777Z</time></trkpt><trkpt lat="45.840856032423744" lon="8.841243621839705"><ele>385.0</ele><time>2026-04-25T11:15:40.776Z</time></trkpt><trkpt lat="45.84072905699179" lon="8.841276936471626"><ele>384.25</ele><time>2026-04-25T11:15:41.777Z</time></trkpt><trkpt lat="45.84060714847712" lon="8.84130892221687"><ele>383.5</ele><time>2026-04-25T11:15:42.777Z</time></trkpt><trkpt lat="45.84049028327728" lon="8.841342261616141"><ele>382.75</ele><time>2026-04-25T11:15:43.776Z</time></trkpt><trkpt lat="45.840381476610695" lon="8.841375269748166"><ele>382.0</ele><time>2026-04-25T11:15:44.776Z</time></trkpt><trkpt lat="45.840297447203206" lon="8.841467243624113"><ele>382.0</ele><time>2026-04-25T11:15:45.776Z</time></trkpt><trkpt lat="45.84021014158228" lon="8.84148149371466"><ele>382.0</ele><time>2026-04-25T11:15:46.776Z</time></trkpt><trkpt lat="45.840130944596545" lon="8.841476987741641"><ele>382.0</ele><time>2026-04-25T11:15:47.777Z</time></trkpt><trkpt lat="45.84004210062923" lon="8.841472285646272"><ele>382.0</ele><time>2026-04-25T11:15:48.777Z</time></trkpt><trkpt lat="45.83996215119795" lon="8.841480298662496"><ele>382.0</ele><time>2026-04-25T11:15:49.776Z</time></trkpt><trkpt lat="45.83987199007151" lon="8.841507516800423"><ele>382.0</ele><time>2026-04-25T11:15:50.776Z</time></trkpt><trkpt lat="45.839789230899164" lon="8.84156781586784"><ele>382.0</ele><time>2026-04-25T11:15:51.776Z</time></trkpt><trkpt lat="45.839716695569564" lon="8.841606293874655"><ele>382.0</ele><time>2026-04-25T11:15:52.776Z</time></trkpt><trkpt lat="45.839641841542125" lon="8.841571638391772"><ele>382.0</ele><time>2026-04-25T11:15:53.776Z</time></trkpt><trkpt lat="45.83957251641916" lon="8.841592528109844"><ele>382.0</ele><time>2026-04-25T11:15:54.776Z</time></trkpt><trkpt lat="45.83949050929138" lon="8.841617358484312"><ele>382.0</ele><time>2026-04-25T11:15:55.776Z</time></trkpt><trkpt lat="45.83941581450693" lon="8.84163869198732"><ele>382.0</ele><time>2026-04-25T11:15:56.776Z</time></trkpt><trkpt lat="45.83934567966388" lon="8.841657458095572"><ele>381.66666666666663</ele><time>2026-04-25T11:15:57.776Z</time></trkpt><trkpt lat="45.839275853466546" lon="8.841676141592304"><ele>381.3333333333333</ele><time>2026-04-25T11:15:58.776Z</time></trkpt><trkpt lat="45.83920008424814" lon="8.841696439972624"><ele>381.0</ele><time>2026-04-25T11:15:59.776Z</time></trkpt><trkpt lat="45.83912015611322" lon="8.84171878143657"><ele>380.6666666666667</ele><time>2026-04-25T11:16:00.776Z</time></trkpt><trkpt lat="45.83903803802142" lon="8.841741735051661"><ele>380.33333333333337</ele><time>2026-04-25T11:16:01.776Z</time></trkpt><trkpt lat="45.83895451112197" lon="8.841765082435158"><ele>380.0</ele><time>2026-04-25T11:16:02.776Z</time></trkpt><trkpt lat="45.83886240819484" lon="8.84179082699273"><ele>380.0</ele><time>2026-04-25T11:16:03.776Z</time></trkpt><trkpt lat="45.83876262347641" lon="8.841818718774627"><ele>380.0</ele><time>2026-04-25T11:16:04.776Z</time></trkpt><trkpt lat="45.83865852074808" lon="8.841847673101022"><ele>380.0</ele><time>2026-04-25T11:16:05.776Z</time></trkpt><trkpt lat="45.83855063785653" lon="8.84187638104271"><ele>380.0</ele><time>2026-04-25T11:16:06.776Z</time></trkpt><trkpt lat="45.83844574623574" lon="8.84190429300562"><ele>380.0</ele><time>2026-04-25T11:16:07.776Z</time></trkpt><trkpt lat="45.83834023969079" lon="8.841932328203331"><ele>380.2</ele><time>2026-04-25T11:16:08.776Z</time></trkpt><trkpt lat="45.83824275189022" lon="8.841958075930247"><ele>380.4</ele><time>2026-04-25T11:16:09.776Z</time></trkpt><trkpt lat="45.83814562469813" lon="8.841983669777452"><ele>380.6</ele><time>2026-04-25T11:16:10.776Z</time></trkpt><trkpt lat="45.8380462435228" lon="8.842009857580102"><ele>380.8</ele><time>2026-04-25T11:16:11.776Z</time></trkpt><trkpt lat="45.837945124723866" lon="8.842036751711808"><ele>381.0</ele><time>2026-04-25T11:16:12.776Z</time></trkpt><trkpt lat="45.837848250855195" lon="8.842063080687462"><ele>381.0</ele><time>2026-04-25T11:16:13.776Z</time></trkpt><trkpt lat="45.8377528680953" lon="8.84208900437873"><ele>381.0</ele><time>2026-04-25T11:16:14.776Z</time></trkpt><trkpt lat="45.83766698827064" lon="8.84211231982143"><ele>381.0</ele><time>2026-04-25T11:16:15.776Z</time></trkpt><trkpt lat="45.83759302438159" lon="8.84213239746415"><ele>381.0</ele><time>2026-04-25T11:16:16.776Z</time></trkpt><trkpt lat="45.83748241557877" lon="8.842162422424298"><ele>381.0</ele><time>2026-04-25T11:16:18.776Z</time></trkpt><trkpt lat="45.83738805860044" lon="8.8421876458208"><ele>380.6</ele><time>2026-04-25T11:16:20.776Z</time></trkpt><trkpt lat="45.83728973950002" lon="8.842213548777645"><ele>380.20000000000005</ele><time>2026-04-25T11:16:22.776Z</time></trkpt><trkpt lat="45.83720209797121" lon="8.8422399990134"><ele>379.79999999999995</ele><time>2026-04-25T11:16:24.776Z</time></trkpt><trkpt lat="45.83709172776784" lon="8.842244536203907"><ele>379.4</ele><time>2026-04-25T11:16:26.776Z</time></trkpt><trkpt lat="45.83702701795964" lon="8.842222662179685"><ele>379.0</ele><time>2026-04-25T11:16:27.776Z</time></trkpt><trkpt lat="45.83696733664283" lon="8.84230764005039"><ele>379.0</ele><time>2026-04-25T11:16:28.776Z</time></trkpt><trkpt lat="45.83688324771997" lon="8.842327834526218"><ele>379.0</ele><time>2026-04-25T11:16:29.776Z</time></trkpt><trkpt lat="45.8367867772938" lon="8.842376805643116"><ele>379.0</ele><time>2026-04-25T11:16:30.776Z</time></trkpt><trkpt lat="45.836692054315655" lon="8.84239629927142"><ele>379.0</ele><time>2026-04-25T11:16:31.776Z</time></trkpt><trkpt lat="45.836589563570854" lon="8.8424243269009"><ele>379.0</ele><time>2026-04-25T11:16:32.776Z</time></trkpt><trkpt lat="45.83648112688763" lon="8.842459312853158"><ele>378.6</ele><time>2026-04-25T11:16:33.776Z</time></trkpt><trkpt lat="45.83637136931062" lon="8.842491613242453"><ele>378.2</ele><time>2026-04-25T11:16:34.776Z</time></trkpt><trkpt lat="45.83626492489123" lon="8.842521247311673"><ele>377.8</ele><time>2026-04-25T11:16:35.776Z</time></trkpt><trkpt lat="45.83615768451198" lon="8.842549115811508"><ele>377.40000000000003</ele><time>2026-04-25T11:16:36.776Z</time></trkpt><trkpt lat="45.836045728307184" lon="8.842555945795828"><ele>377.0</ele><time>2026-04-25T11:16:37.776Z</time></trkpt><trkpt lat="45.835928848410845" lon="8.842587110606043"><ele>376.5</ele><time>2026-04-25T11:16:38.776Z</time></trkpt><trkpt lat="45.83581866836135" lon="8.842614867211903"><ele>376.0</ele><time>2026-04-25T11:16:39.776Z</time></trkpt><trkpt lat="45.83570012446323" lon="8.84264376669096"><ele>375.5</ele><time>2026-04-25T11:16:40.776Z</time></trkpt><trkpt lat="45.8355739915773" lon="8.842673567418883"><ele>375.0</ele><time>2026-04-25T11:16:41.776Z</time></trkpt><trkpt lat="45.83544664313434" lon="8.842716347720412"><ele>375.0</ele><time>2026-04-25T11:16:42.776Z</time></trkpt><trkpt lat="45.83530554024337" lon="8.842702788139649"><ele>375.0</ele><time>2026-04-25T11:16:43.776Z</time></trkpt><trkpt lat="45.83515747464654" lon="8.842687841994477"><ele>375.0</ele><time>2026-04-25T11:16:44.776Z</time></trkpt><trkpt lat="45.83501209716895" lon="8.842664376779965"><ele>375.0</ele><time>2026-04-25T11:16:45.776Z</time></trkpt><trkpt lat="45.834878631791945" lon="8.842639741157738"><ele>373.75</ele><time>2026-04-25T11:16:46.776Z</time></trkpt><trkpt lat="45.83475822371627" lon="8.8426167847313"><ele>372.5</ele><time>2026-04-25T11:16:47.776Z</time></trkpt><trkpt lat="45.83463626598441" lon="8.842593532892673"><ele>371.25</ele><time>2026-04-25T11:16:48.776Z</time></trkpt><trkpt lat="45.834522708599266" lon="8.842571882581396"><ele>370.0</ele><time>2026-04-25T11:16:49.776Z</time></trkpt><trkpt lat="45.83440941222927" lon="8.842565832572626"><ele>368.4</ele><time>2026-04-25T11:16:50.776Z</time></trkpt><trkpt lat="45.83429945805176" lon="8.842539440101092"><ele>366.8</ele><time>2026-04-25T11:16:51.776Z</time></trkpt><trkpt lat="45.83418905760654" lon="8.84252020684301"><ele>365.20000000000005</ele><time>2026-04-25T11:16:52.776Z</time></trkpt><trkpt lat="45.83407937214771" lon="8.8425007257816"><ele>363.6</ele><time>2026-04-25T11:16:53.776Z</time></trkpt><trkpt lat="45.83397199118534" lon="8.842482189071559"><ele>362.0</ele><time>2026-04-25T11:16:54.776Z</time></trkpt><trkpt lat="45.83385154278202" lon="8.842459580680208"><ele>362.0</ele><time>2026-04-25T11:16:55.776Z</time></trkpt><trkpt lat="45.83372550127698" lon="8.842437339679716"><ele>362.0</ele><time>2026-04-25T11:16:56.776Z</time></trkpt><trkpt lat="45.833583944918715" lon="8.842407253657278"><ele>362.0</ele><time>2026-04-25T11:16:57.776Z</time></trkpt><trkpt lat="45.83344144085469" lon="8.842379218399081"><ele>362.0</ele><time>2026-04-25T11:16:58.776Z</time></trkpt><trkpt lat="45.83328817035046" lon="8.842353030439096"><ele>360.5</ele><time>2026-04-25T11:16:59.776Z</time></trkpt><trkpt lat="45.833140126443176" lon="8.842328041697668"><ele>359.0</ele><time>2026-04-25T11:17:00.776Z</time></trkpt><trkpt lat="45.832996198770296" lon="8.842301132082518"><ele>357.5</ele><time>2026-04-25T11:17:01.776Z</time></trkpt><trkpt lat="45.83286281768359" lon="8.842273101651267"><ele>356.0</ele><time>2026-04-25T11:17:02.776Z</time></trkpt><trkpt lat="45.832739740053995" lon="8.842245831450912"><ele>356.25</ele><time>2026-04-25T11:17:03.776Z</time></trkpt><trkpt lat="45.832624152154935" lon="8.8422178614495"><ele>356.5</ele><time>2026-04-25T11:17:04.777Z</time></trkpt><trkpt lat="45.832516320952905" lon="8.84217901452254"><ele>356.75</ele><time>2026-04-25T11:17:05.777Z</time></trkpt><trkpt lat="45.83241076742962" lon="8.842105759232105"><ele>357.0</ele><time>2026-04-25T11:17:06.777Z</time></trkpt><trkpt lat="45.8323192832074" lon="8.842010026814064"><ele>357.0</ele><time>2026-04-25T11:17:07.777Z</time></trkpt><trkpt lat="45.83226243569776" lon="8.841911328149202"><ele>357.0</ele><time>2026-04-25T11:17:08.777Z</time></trkpt><trkpt lat="45.83222465508384" lon="8.841791037419254"><ele>357.0</ele><time>2026-04-25T11:17:10.777Z</time></trkpt><trkpt lat="45.83220062289435" lon="8.841706553435639"><ele>357.0</ele><time>2026-04-25T11:17:12.777Z</time></trkpt><trkpt lat="45.832139568326475" lon="8.841551605082245"><ele>357.0</ele><time>2026-04-25T11:17:14.777Z</time></trkpt><trkpt lat="45.832104842310706" lon="8.841468401342906"><ele>357.0</ele><time>2026-04-25T11:17:15.777Z</time></trkpt><trkpt lat="45.83205812898554" lon="8.84134167714428"><ele>355.3333333333333</ele><time>2026-04-25T11:17:17.777Z</time></trkpt><trkpt lat="45.832032337325245" lon="8.841235224853413"><ele>353.6666666666667</ele><time>2026-04-25T11:17:23.777Z</time></trkpt><trkpt lat="45.83203717340773" lon="8.841100879806584"><ele>352.0</ele><time>2026-04-25T11:17:29.777Z</time></trkpt><trkpt lat="45.832046707192426" lon="8.841003676563302"><ele>350.33333333333337</ele><time>2026-04-25T11:17:30.777Z</time></trkpt><trkpt lat="45.832001408119666" lon="8.840841308543592"><ele>348.6666666666667</ele><time>2026-04-25T11:17:32.777Z</time></trkpt><trkpt lat="45.831932993109454" lon="8.840807936262735"><ele>347.0</ele><time>2026-04-25T11:17:33.777Z</time></trkpt><trkpt lat="45.83185491976544" lon="8.840845639641767"><ele>346.0</ele><time>2026-04-25T11:17:34.777Z</time></trkpt><trkpt lat="45.83177266546331" lon="8.8409485191224"><ele>345.0</ele><time>2026-04-25T11:17:35.777Z</time></trkpt><trkpt lat="45.831685129203684" lon="8.84106818921819"><ele>344.0</ele><time>2026-04-25T11:17:36.777Z</time></trkpt><trkpt lat="45.83155783751832" lon="8.841149414405074"><ele>343.0</ele><time>2026-04-25T11:17:37.777Z</time></trkpt><trkpt lat="45.83140492105056" lon="8.841211408398332"><ele>343.0</ele><time>2026-04-25T11:17:38.777Z</time></trkpt><trkpt lat="45.831222421472106" lon="8.84125107925506"><ele>343.0</ele><time>2026-04-25T11:17:39.777Z</time></trkpt><trkpt lat="45.83103691081258" lon="8.84132014072484"><ele>343.0</ele><time>2026-04-25T11:17:40.777Z</time></trkpt><trkpt lat="45.83082316526381" lon="8.841397625709906"><ele>341.0</ele><time>2026-04-25T11:17:41.777Z</time></trkpt><trkpt lat="45.83058774307782" lon="8.841483265864579"><ele>339.0</ele><time>2026-04-25T11:17:42.777Z</time></trkpt><trkpt lat="45.83035098304648" lon="8.841570317990564"><ele>339.0</ele><time>2026-04-25T11:17:43.775Z</time></trkpt><trkpt lat="45.830120010849285" lon="8.841655242062114"><ele>339.0</ele><time>2026-04-25T11:17:44.775Z</time></trkpt><trkpt lat="45.82991014088934" lon="8.841732407064596"><ele>339.6666666666667</ele><time>2026-04-25T11:17:45.775Z</time></trkpt><trkpt lat="45.82971319508256" lon="8.84180401442252"><ele>340.33333333333337</ele><time>2026-04-25T11:17:46.775Z</time></trkpt><trkpt lat="45.82951787272403" lon="8.841874778422628"><ele>341.0</ele><time>2026-04-25T11:17:47.775Z</time></trkpt><trkpt lat="45.82932651621713" lon="8.841939556564043"><ele>341.0</ele><time>2026-04-25T11:17:48.775Z</time></trkpt><trkpt lat="45.82913852782412" lon="8.841996465266654"><ele>341.0</ele><time>2026-04-25T11:17:49.775Z</time></trkpt><trkpt lat="45.828949286988866" lon="8.842034178725019"><ele>341.0</ele><time>2026-04-25T11:17:50.775Z</time></trkpt><trkpt lat="45.8287548052965" lon="8.842074923060222"><ele>341.0</ele><time>2026-04-25T11:17:51.775Z</time></trkpt><trkpt lat="45.82855598995922" lon="8.842078221517545"><ele>341.0</ele><time>2026-04-25T11:17:52.775Z</time></trkpt><trkpt lat="45.82835510868509" lon="8.842048970575155"><ele>341.0</ele><time>2026-04-25T11:17:53.775Z</time></trkpt><trkpt lat="45.82815677979249" lon="8.841998397137434"><ele>341.0</ele><time>2026-04-25T11:17:54.775Z</time></trkpt><trkpt lat="45.827967018433824" lon="8.8419420376736"><ele>341.0</ele><time>2026-04-25T11:17:55.775Z</time></trkpt><trkpt lat="45.827782694939245" lon="8.84186548106533"><ele>341.0</ele><time>2026-04-25T11:17:56.775Z</time></trkpt><trkpt lat="45.82759153975242" lon="8.841779704668708"><ele>340.6666666666667</ele><time>2026-04-25T11:17:57.775Z</time></trkpt><trkpt lat="45.82740393384387" lon="8.841702355021784"><ele>340.3333333333333</ele><time>2026-04-25T11:17:58.775Z</time></trkpt><trkpt lat="45.82721373813774" lon="8.84162838451677"><ele>340.0</ele><time>2026-04-25T11:17:59.775Z</time></trkpt><trkpt lat="45.8270150331087" lon="8.841578852176797"><ele>339.3333333333333</ele><time>2026-04-25T11:18:00.775Z</time></trkpt><trkpt lat="45.826806405226435" lon="8.841557901445261"><ele>338.6666666666667</ele><time>2026-04-25T11:18:01.775Z</time></trkpt><trkpt lat="45.826596504371075" lon="8.84157435749049"><ele>338.0</ele><time>2026-04-25T11:18:02.775Z</time></trkpt><trkpt lat="45.826389490570776" lon="8.841629369416964"><ele>338.0</ele><time>2026-04-25T11:18:03.775Z</time></trkpt><trkpt lat="45.82619875465006" lon="8.841735518106551"><ele>338.0</ele><time>2026-04-25T11:18:04.775Z</time></trkpt><trkpt lat="45.826007664025845" lon="8.841843612878844"><ele>338.0</ele><time>2026-04-25T11:18:05.775Z</time></trkpt><trkpt lat="45.82582097631894" lon="8.841963485254004"><ele>336.33333333333337</ele><time>2026-04-25T11:18:06.775Z</time></trkpt><trkpt lat="45.82563476544345" lon="8.842087019515159"><ele>334.6666666666667</ele><time>2026-04-25T11:18:07.775Z</time></trkpt><trkpt lat="45.82546162428883" lon="8.842212356167273"><ele>333.0</ele><time>2026-04-25T11:18:08.775Z</time></trkpt><trkpt lat="45.825295803963144" lon="8.842335955012288"><ele>333.0</ele><time>2026-04-25T11:18:09.775Z</time></trkpt><trkpt lat="45.82513664286694" lon="8.8424502999316"><ele>333.0</ele><time>2026-04-25T11:18:10.775Z</time></trkpt><trkpt lat="45.824987179592576" lon="8.84256352994463"><ele>333.0</ele><time>2026-04-25T11:18:11.775Z</time></trkpt><trkpt lat="45.824846807534584" lon="8.842667249743041"><ele>333.0</ele><time>2026-04-25T11:18:12.775Z</time></trkpt><trkpt lat="45.824714982232" lon="8.842760887956556"><ele>333.0</ele><time>2026-04-25T11:18:13.775Z</time></trkpt><trkpt lat="45.824580136610024" lon="8.842854890089095"><ele>333.0</ele><time>2026-04-25T11:18:14.775Z</time></trkpt><trkpt lat="45.82443712017478" lon="8.842956114517358"><ele>334.0</ele><time>2026-04-25T11:18:15.775Z</time></trkpt><trkpt lat="45.82429682022015" lon="8.843064108565782"><ele>335.0</ele><time>2026-04-25T11:18:16.775Z</time></trkpt><trkpt lat="45.82415635256196" lon="8.843178344045514"><ele>336.0</ele><time>2026-04-25T11:18:17.775Z</time></trkpt><trkpt lat="45.82402884128356" lon="8.843293612603393"><ele>336.0</ele><time>2026-04-25T11:18:18.775Z</time></trkpt><trkpt lat="45.82390708939537" lon="8.843429137635477"><ele>336.0</ele><time>2026-04-25T11:18:19.775Z</time></trkpt><trkpt lat="45.823792815468565" lon="8.843589823235545"><ele>336.0</ele><time>2026-04-25T11:18:20.775Z</time></trkpt><trkpt lat="45.82367611223367" lon="8.843774181841322"><ele>335.6666666666667</ele><time>2026-04-25T11:18:21.775Z</time></trkpt><trkpt lat="45.82357661595425" lon="8.84396645729221"><ele>335.33333333333337</ele><time>2026-04-25T11:18:22.775Z</time></trkpt><trkpt lat="45.82351140623318" lon="8.84417453400967"><ele>335.0</ele><time>2026-04-25T11:18:23.775Z</time></trkpt><trkpt lat="45.82346525306587" lon="8.84439129986701"><ele>335.33333333333337</ele><time>2026-04-25T11:18:24.775Z</time></trkpt><trkpt lat="45.82343684083488" lon="8.844626588975194"><ele>335.6666666666667</ele><time>2026-04-25T11:18:25.775Z</time></trkpt><trkpt lat="45.8233881556579" lon="8.844887492554172"><ele>336.0</ele><time>2026-04-25T11:18:26.775Z</time></trkpt><trkpt lat="45.82335792761444" lon="8.84514216718025"><ele>336.0</ele><time>2026-04-25T11:18:27.775Z</time></trkpt><trkpt lat="45.823312496289155" lon="8.845398274283129"><ele>336.0</ele><time>2026-04-25T11:18:28.775Z</time></trkpt><trkpt lat="45.82329552138781" lon="8.845632883658643"><ele>336.0</ele><time>2026-04-25T11:18:29.775Z</time></trkpt><trkpt lat="45.82328102951773" lon="8.845859975728796"><ele>335.3333333333333</ele><time>2026-04-25T11:18:30.775Z</time></trkpt><trkpt lat="45.82325910608695" lon="8.84608158293048"><ele>334.66666666666663</ele><time>2026-04-25T11:18:31.775Z</time></trkpt><trkpt lat="45.82324214624425" lon="8.846292019859574"><ele>334.0</ele><time>2026-04-25T11:18:32.775Z</time></trkpt><trkpt lat="45.82321989861822" lon="8.846507665646897"><ele>334.0</ele><time>2026-04-25T11:18:33.775Z</time></trkpt><trkpt lat="45.82320192244086" lon="8.8467195483247"><ele>334.0</ele><time>2026-04-25T11:18:34.775Z</time></trkpt><trkpt lat="45.823176776732005" lon="8.846926270354597"><ele>334.0</ele><time>2026-04-25T11:18:35.775Z</time></trkpt><trkpt lat="45.82313982131323" lon="8.847120400685803"><ele>334.0</ele><time>2026-04-25T11:18:36.775Z</time></trkpt><trkpt lat="45.82308385428569" lon="8.847298245637164"><ele>333.25</ele><time>2026-04-25T11:18:37.775Z</time></trkpt><trkpt lat="45.82300658051505" lon="8.8474694528595"><ele>332.5</ele><time>2026-04-25T11:18:38.775Z</time></trkpt><trkpt lat="45.82292090792943" lon="8.847630340698089"><ele>331.75</ele><time>2026-04-25T11:18:39.775Z</time></trkpt><trkpt lat="45.82281547371668" lon="8.84778407585031"><ele>331.0</ele><time>2026-04-25T11:18:40.775Z</time></trkpt><trkpt lat="45.82269226293775" lon="8.847928626433935"><ele>329.3333333333333</ele><time>2026-04-25T11:18:41.775Z</time></trkpt><trkpt lat="45.822562671162345" lon="8.848059705667145"><ele>327.6666666666667</ele><time>2026-04-25T11:18:42.775Z</time></trkpt><trkpt lat="45.82243173175268" lon="8.848187739146157"><ele>326.0</ele><time>2026-04-25T11:18:43.775Z</time></trkpt><trkpt lat="45.822300610226776" lon="8.8483249077538"><ele>327.6666666666667</ele><time>2026-04-25T11:18:44.775Z</time></trkpt><trkpt lat="45.822183492196984" lon="8.848474243275355"><ele>329.3333333333333</ele><time>2026-04-25T11:18:45.775Z</time></trkpt><trkpt lat="45.82208323962563" lon="8.848645178943306"><ele>331.0</ele><time>2026-04-25T11:18:46.775Z</time></trkpt><trkpt lat="45.82200749130737" lon="8.848833391128068"><ele>331.0</ele><time>2026-04-25T11:18:47.775Z</time></trkpt><trkpt lat="45.82194942440158" lon="8.849021117500367"><ele>331.0</ele><time>2026-04-25T11:18:48.775Z</time></trkpt><trkpt lat="45.82191608235917" lon="8.849208606360069"><ele>331.0</ele><time>2026-04-25T11:18:49.775Z</time></trkpt><trkpt lat="45.82189876530326" lon="8.84939622808368"><ele>331.0</ele><time>2026-04-25T11:18:50.775Z</time></trkpt><trkpt lat="45.82189766392659" lon="8.849554325975944"><ele>332.16666666666663</ele><time>2026-04-25T11:18:51.775Z</time></trkpt><trkpt lat="45.821900466309394" lon="8.849686963944636"><ele>333.3333333333333</ele><time>2026-04-25T11:18:52.775Z</time></trkpt><trkpt lat="45.82190621771945" lon="8.849793523513418"><ele>334.5</ele><time>2026-04-25T11:18:53.775Z</time></trkpt><trkpt lat="45.82189768510482" lon="8.849958024789474"><ele>335.6666666666667</ele><time>2026-04-25T11:18:55.775Z</time></trkpt><trkpt lat="45.82187495434675" lon="8.850049515406951"><ele>336.83333333333337</ele><time>2026-04-25T11:18:56.775Z</time></trkpt><trkpt lat="45.82186139780613" lon="8.850147007737462"><ele>338.0</ele><time>2026-04-25T11:18:57.775Z</time></trkpt><trkpt lat="45.82183997210544" lon="8.85027898843591"><ele>335.0</ele><time>2026-04-25T11:18:58.775Z</time></trkpt><trkpt lat="45.82180090475022" lon="8.85043036489228"><ele>332.0</ele><time>2026-04-25T11:18:59.775Z</time></trkpt><trkpt lat="45.821732367341866" lon="8.85058423792555"><ele>329.0</ele><time>2026-04-25T11:19:00.775Z</time></trkpt><trkpt lat="45.82164640244139" lon="8.850745075216038"><ele>326.0</ele><time>2026-04-25T11:19:01.775Z</time></trkpt><trkpt lat="45.821545742723224" lon="8.850900087535658"><ele>331.0</ele><time>2026-04-25T11:19:02.775Z</time></trkpt><trkpt lat="45.821430045708055" lon="8.851069515246543"><ele>336.0</ele><time>2026-04-25T11:19:03.775Z</time></trkpt><trkpt lat="45.821279318412095" lon="8.851248981267252"><ele>341.0</ele><time>2026-04-25T11:19:04.775Z</time></trkpt><trkpt lat="45.82109319308435" lon="8.85141722411557"><ele>337.33333333333337</ele><time>2026-04-25T11:19:05.775Z</time></trkpt><trkpt lat="45.820899881013446" lon="8.851559621047588"><ele>333.6666666666667</ele><time>2026-04-25T11:19:06.775Z</time></trkpt><trkpt lat="45.820706722421306" lon="8.85166196769828"><ele>330.0</ele><time>2026-04-25T11:19:07.775Z</time></trkpt><trkpt lat="45.82051524352215" lon="8.851732916394125"><ele>330.0</ele><time>2026-04-25T11:19:08.775Z</time></trkpt><trkpt lat="45.8203459031921" lon="8.851774934352651"><ele>330.0</ele><time>2026-04-25T11:19:09.775Z</time></trkpt><trkpt lat="45.8201850798786" lon="8.851807002969093"><ele>330.0</ele><time>2026-04-25T11:19:10.775Z</time></trkpt><trkpt lat="45.82002752466789" lon="8.851845510360794"><ele>334.0</ele><time>2026-04-25T11:19:11.775Z</time></trkpt><trkpt lat="45.81988299045386" lon="8.851876949393054"><ele>338.0</ele><time>2026-04-25T11:19:12.775Z</time></trkpt><trkpt lat="45.81974475621345" lon="8.851903142485563"><ele>342.0</ele><time>2026-04-25T11:19:13.775Z</time></trkpt><trkpt lat="45.81960830267653" lon="8.851933232870643"><ele>346.0</ele><time>2026-04-25T11:19:14.775Z</time></trkpt><trkpt lat="45.81946335577424" lon="8.851968032434788"><ele>346.0</ele><time>2026-04-25T11:19:15.775Z</time></trkpt><trkpt lat="45.81931851480897" lon="8.852009206743512"><ele>346.0</ele><time>2026-04-25T11:19:16.775Z</time></trkpt><trkpt lat="45.81917642297972" lon="8.852063174761605"><ele>346.0</ele><time>2026-04-25T11:19:17.775Z</time></trkpt><trkpt lat="45.81904475675259" lon="8.852145114788366"><ele>346.0</ele><time>2026-04-25T11:19:18.775Z</time></trkpt><trkpt lat="45.81892329195138" lon="8.852246141498647"><ele>348.25</ele><time>2026-04-25T11:19:19.775Z</time></trkpt><trkpt lat="45.81881581266458" lon="8.852373978773013"><ele>350.5</ele><time>2026-04-25T11:19:20.775Z</time></trkpt><trkpt lat="45.81871510399924" lon="8.852517261946158"><ele>352.75</ele><time>2026-04-25T11:19:21.775Z</time></trkpt><trkpt lat="45.818614221755574" lon="8.852694543949426"><ele>355.0</ele><time>2026-04-25T11:19:22.775Z</time></trkpt><trkpt lat="45.81852395052253" lon="8.852885910594923"><ele>349.0</ele><time>2026-04-25T11:19:23.775Z</time></trkpt><trkpt lat="45.81844224618597" lon="8.853073912443845"><ele>343.0</ele><time>2026-04-25T11:19:24.775Z</time></trkpt><trkpt lat="45.81837252812237" lon="8.853262034257911"><ele>337.0</ele><time>2026-04-25T11:19:25.775Z</time></trkpt><trkpt lat="45.81831961734295" lon="8.85347641635224"><ele>337.0</ele><time>2026-04-25T11:19:26.775Z</time></trkpt><trkpt lat="45.818264575422305" lon="8.853722392423363"><ele>337.0</ele><time>2026-04-25T11:19:27.775Z</time></trkpt><trkpt lat="45.818176627913736" lon="8.85399642947667"><ele>337.0</ele><time>2026-04-25T11:19:28.775Z</time></trkpt><trkpt lat="45.81808564406274" lon="8.854319500326584"><ele>341.5</ele><time>2026-04-25T11:19:29.775Z</time></trkpt><trkpt lat="45.81799087438465" lon="8.854655775720214"><ele>346.0</ele><time>2026-04-25T11:19:30.775Z</time></trkpt><trkpt lat="45.8178744136654" lon="8.854950004834457"><ele>350.0</ele><time>2026-04-25T11:19:31.775Z</time></trkpt><trkpt lat="45.817765314049105" lon="8.855221308303848"><ele>354.0</ele><time>2026-04-25T11:19:32.775Z</time></trkpt><trkpt lat="45.817648553697914" lon="8.85550608677683"><ele>358.0</ele><time>2026-04-25T11:19:33.775Z</time></trkpt><trkpt lat="45.817516445019336" lon="8.855776460763057"><ele>354.0</ele><time>2026-04-25T11:19:34.775Z</time></trkpt><trkpt lat="45.81737774526899" lon="8.856047104539739"><ele>350.0</ele><time>2026-04-25T11:19:35.775Z</time></trkpt><trkpt lat="45.81722426687256" lon="8.856317371194296"><ele>350.0</ele><time>2026-04-25T11:19:36.775Z</time></trkpt><trkpt lat="45.817054515831806" lon="8.856598689168333"><ele>350.0</ele><time>2026-04-25T11:19:37.775Z</time></trkpt><trkpt lat="45.8168643022346" lon="8.856841265405203"><ele>344.0</ele><time>2026-04-25T11:19:38.775Z</time></trkpt><trkpt lat="45.81668104657564" lon="8.857078095781153"><ele>338.0</ele><time>2026-04-25T11:19:39.775Z</time></trkpt><trkpt lat="45.81649865761523" lon="8.857298943207432"><ele>338.0</ele><time>2026-04-25T11:19:40.775Z</time></trkpt><trkpt lat="45.8163232307552" lon="8.857494406930435"><ele>338.0</ele><time>2026-04-25T11:19:41.775Z</time></trkpt><trkpt lat="45.81615434119211" lon="8.857680197382013"><ele>338.0</ele><time>2026-04-25T11:19:42.775Z</time></trkpt><trkpt lat="45.81598601577189" lon="8.857864585827441"><ele>335.0</ele><time>2026-04-25T11:19:43.775Z</time></trkpt><trkpt lat="45.81581962901618" lon="8.858046914307295"><ele>332.0</ele><time>2026-04-25T11:19:44.775Z</time></trkpt><trkpt lat="45.81564860014321" lon="8.8582351335369"><ele>329.0</ele><time>2026-04-25T11:19:45.775Z</time></trkpt><trkpt lat="45.815474586412485" lon="8.858426637341454"><ele>328.0</ele><time>2026-04-25T11:19:46.775Z</time></trkpt><trkpt lat="45.815300844512834" lon="8.858617124093257"><ele>327.0</ele><time>2026-04-25T11:19:47.775Z</time></trkpt><trkpt lat="45.81513880463566" lon="8.858794024266558"><ele>326.0</ele><time>2026-04-25T11:19:48.775Z</time></trkpt><trkpt lat="45.81498714748355" lon="8.858959591546961"><ele>326.0</ele><time>2026-04-25T11:19:49.773Z</time></trkpt><trkpt lat="45.81484368252148" lon="8.859116213550791"><ele>326.0</ele><time>2026-04-25T11:19:50.772Z</time></trkpt><trkpt lat="45.81470027497389" lon="8.859272772880786"><ele>326.0</ele><time>2026-04-25T11:19:51.772Z</time></trkpt><trkpt lat="45.81456131530921" lon="8.859424756072292"><ele>325.0</ele><time>2026-04-25T11:19:52.773Z</time></trkpt><trkpt lat="45.8144152356804" lon="8.859584667724686"><ele>324.0</ele><time>2026-04-25T11:19:53.773Z</time></trkpt><trkpt lat="45.81426962651852" lon="8.859742257465122"><ele>323.0</ele><time>2026-04-25T11:19:54.773Z</time></trkpt><trkpt lat="45.81412492007434" lon="8.85989858743995"><ele>323.0</ele><time>2026-04-25T11:19:55.772Z</time></trkpt><trkpt lat="45.813987313968994" lon="8.860047246736338"><ele>323.0</ele><time>2026-04-25T11:19:56.773Z</time></trkpt><trkpt lat="45.81385579140304" lon="8.86018851777278"><ele>323.0</ele><time>2026-04-25T11:19:57.773Z</time></trkpt><trkpt lat="45.81372947718596" lon="8.860319263866671"><ele>321.75</ele><time>2026-04-25T11:19:58.772Z</time></trkpt><trkpt lat="45.81361442057714" lon="8.860419550662032"><ele>320.5</ele><time>2026-04-25T11:19:59.773Z</time></trkpt><trkpt lat="45.81348373682462" lon="8.860510832393803"><ele>319.25</ele><time>2026-04-25T11:20:00.773Z</time></trkpt><trkpt lat="45.81335876596525" lon="8.860618645153647"><ele>318.0</ele><time>2026-04-25T11:20:01.772Z</time></trkpt><trkpt lat="45.81324578098126" lon="8.860773907457963"><ele>318.0</ele><time>2026-04-25T11:20:02.772Z</time></trkpt><trkpt lat="45.81308022955036" lon="8.860854838292829"><ele>318.0</ele><time>2026-04-25T11:20:03.772Z</time></trkpt><trkpt lat="45.8129203887377" lon="8.860983749731723"><ele>318.0</ele><time>2026-04-25T11:20:04.772Z</time></trkpt><trkpt lat="45.812769424460605" lon="8.861082373179181"><ele>315.6666666666667</ele><time>2026-04-25T11:20:05.772Z</time></trkpt><trkpt lat="45.81261714763444" lon="8.861172807043976"><ele>313.33333333333337</ele><time>2026-04-25T11:20:06.772Z</time></trkpt><trkpt lat="45.81245367274772" lon="8.861202691444056"><ele>311.0</ele><time>2026-04-25T11:20:07.772Z</time></trkpt><trkpt lat="45.81229309486916" lon="8.861275930470834"><ele>311.0</ele><time>2026-04-25T11:20:08.772Z</time></trkpt><trkpt lat="45.81214717589383" lon="8.861369489376173"><ele>311.0</ele><time>2026-04-25T11:20:09.772Z</time></trkpt><trkpt lat="45.81199862919548" lon="8.861462898476722"><ele>311.0</ele><time>2026-04-25T11:20:10.772Z</time></trkpt><trkpt lat="45.81184970559722" lon="8.861562902482648"><ele>310.6666666666667</ele><time>2026-04-25T11:20:11.772Z</time></trkpt><trkpt lat="45.811697281313634" lon="8.861688534817661"><ele>310.3333333333333</ele><time>2026-04-25T11:20:12.772Z</time></trkpt><trkpt lat="45.81154495115614" lon="8.861841027385719"><ele>310.0</ele><time>2026-04-25T11:20:13.772Z</time></trkpt><trkpt lat="45.81138911212686" lon="8.86201358524223"><ele>310.0</ele><time>2026-04-25T11:20:14.772Z</time></trkpt><trkpt lat="45.81122854804967" lon="8.862194506446357"><ele>310.0</ele><time>2026-04-25T11:20:15.772Z</time></trkpt><trkpt lat="45.81107985397535" lon="8.862361325016646"><ele>310.0</ele><time>2026-04-25T11:20:16.772Z</time></trkpt><trkpt lat="45.810933589276644" lon="8.86252089373566"><ele>310.3333333333333</ele><time>2026-04-25T11:20:17.772Z</time></trkpt><trkpt lat="45.810796726923066" lon="8.862660478435732"><ele>310.6666666666667</ele><time>2026-04-25T11:20:18.772Z</time></trkpt><trkpt lat="45.810656333904326" lon="8.862785268192736"><ele>311.0</ele><time>2026-04-25T11:20:19.772Z</time></trkpt><trkpt lat="45.810508442263796" lon="8.862904159225241"><ele>311.0</ele><time>2026-04-25T11:20:20.772Z</time></trkpt><trkpt lat="45.81035783581527" lon="8.863018635222307"><ele>311.0</ele><time>2026-04-25T11:20:21.772Z</time></trkpt><trkpt lat="45.81020518258252" lon="8.863129139689093"><ele>311.0</ele><time>2026-04-25T11:20:22.772Z</time></trkpt><trkpt lat="45.810065462183914" lon="8.863248553518845"><ele>310.5</ele><time>2026-04-25T11:20:23.772Z</time></trkpt><trkpt lat="45.80992598117464" lon="8.863337091715945"><ele>310.0</ele><time>2026-04-25T11:20:24.772Z</time></trkpt><trkpt lat="45.809808067537396" lon="8.863424917457898"><ele>309.5</ele><time>2026-04-25T11:20:25.772Z</time></trkpt><trkpt lat="45.809703659406594" lon="8.863502858387767"><ele>309.0</ele><time>2026-04-25T11:20:26.772Z</time></trkpt><trkpt lat="45.8096157163713" lon="8.863561592423647"><ele>309.0</ele><time>2026-04-25T11:20:27.772Z</time></trkpt><trkpt lat="45.809542191836606" lon="8.863609992146593"><ele>309.0</ele><time>2026-04-25T11:20:28.772Z</time></trkpt><trkpt lat="45.80947183267903" lon="8.86365516304807"><ele>309.0</ele><time>2026-04-25T11:20:29.772Z</time></trkpt><trkpt lat="45.80938475783907" lon="8.86370645847688"><ele>309.0</ele><time>2026-04-25T11:20:30.772Z</time></trkpt><trkpt lat="45.80928735575249" lon="8.863765962370406"><ele>309.0</ele><time>2026-04-25T11:20:31.772Z</time></trkpt><trkpt lat="45.809182291708616" lon="8.863830117378779"><ele>308.4</ele><time>2026-04-25T11:20:32.772Z</time></trkpt><trkpt lat="45.80908271590125" lon="8.86388129191574"><ele>307.79999999999995</ele><time>2026-04-25T11:20:33.772Z</time></trkpt><trkpt lat="45.80898635094871" lon="8.863914791780092"><ele>307.20000000000005</ele><time>2026-04-25T11:20:34.772Z</time></trkpt><trkpt lat="45.80889225711661" lon="8.863937885706644"><ele>306.6</ele><time>2026-04-25T11:20:35.772Z</time></trkpt><trkpt lat="45.80877412917936" lon="8.863935985027599"><ele>306.0</ele><time>2026-04-25T11:20:36.772Z</time></trkpt><trkpt lat="45.80866456430112" lon="8.863904805198953"><ele>306.0</ele><time>2026-04-25T11:20:37.772Z</time></trkpt><trkpt lat="45.80856392049607" lon="8.863898685359958"><ele>306.0</ele><time>2026-04-25T11:20:38.772Z</time></trkpt><trkpt lat="45.808477689207656" lon="8.863961235250011"><ele>306.0</ele><time>2026-04-25T11:20:39.772Z</time></trkpt><trkpt lat="45.808384303400715" lon="8.86410774092777"><ele>306.0</ele><time>2026-04-25T11:20:40.772Z</time></trkpt><trkpt lat="45.808282562734654" lon="8.864274125822414"><ele>306.75</ele><time>2026-04-25T11:20:41.772Z</time></trkpt><trkpt lat="45.80815223358016" lon="8.864403847048981"><ele>307.5</ele><time>2026-04-25T11:20:42.772Z</time></trkpt><trkpt lat="45.80801697566463" lon="8.864484402496785"><ele>308.25</ele><time>2026-04-25T11:20:43.772Z</time></trkpt><trkpt lat="45.807889831821754" lon="8.864552126252686"><ele>309.0</ele><time>2026-04-25T11:20:44.772Z</time></trkpt><trkpt lat="45.80774979625671" lon="8.864613508501522"><ele>308.0</ele><time>2026-04-25T11:20:45.772Z</time></trkpt><trkpt lat="45.80759802453031" lon="8.8646762461685"><ele>307.0</ele><time>2026-04-25T11:20:46.772Z</time></trkpt><trkpt lat="45.8074586353127" lon="8.864728549010199"><ele>306.0</ele><time>2026-04-25T11:20:47.772Z</time></trkpt><trkpt lat="45.807325208686386" lon="8.864768758045425"><ele>305.0</ele><time>2026-04-25T11:20:48.772Z</time></trkpt><trkpt lat="45.80718061152646" lon="8.864797802690315"><ele>305.0</ele><time>2026-04-25T11:20:49.773Z</time></trkpt><trkpt lat="45.80702598547649" lon="8.864816425252071"><ele>305.0</ele><time>2026-04-25T11:20:50.773Z</time></trkpt><trkpt lat="45.80686022961393" lon="8.864821544365133"><ele>305.0</ele><time>2026-04-25T11:20:51.773Z</time></trkpt><trkpt lat="45.806685452512035" lon="8.864805634380755"><ele>305.0</ele><time>2026-04-25T11:20:52.773Z</time></trkpt><trkpt lat="45.806521105449406" lon="8.864758931390245"><ele>305.0</ele><time>2026-04-25T11:20:53.773Z</time></trkpt><trkpt lat="45.80636743608049" lon="8.864690828241253"><ele>305.0</ele><time>2026-04-25T11:20:54.773Z</time></trkpt><trkpt lat="45.80622100058695" lon="8.86460554064052"><ele>305.0</ele><time>2026-04-25T11:20:55.773Z</time></trkpt><trkpt lat="45.806092809757814" lon="8.86450599981449"><ele>305.0</ele><time>2026-04-25T11:20:56.773Z</time></trkpt><trkpt lat="45.80596855007687" lon="8.864384520628581"><ele>305.0</ele><time>2026-04-25T11:20:57.773Z</time></trkpt><trkpt lat="45.80584949224185" lon="8.864254097293573"><ele>305.0</ele><time>2026-04-25T11:20:58.773Z</time></trkpt><trkpt lat="45.805736978132316" lon="8.86411489342285"><ele>305.2</ele><time>2026-04-25T11:20:59.773Z</time></trkpt><trkpt lat="45.80564193767923" lon="8.863973105967586"><ele>305.4</ele><time>2026-04-25T11:21:00.773Z</time></trkpt><trkpt lat="45.8055634695716" lon="8.863843951960622"><ele>305.6</ele><time>2026-04-25T11:21:01.773Z</time></trkpt><trkpt lat="45.805499255388824" lon="8.863734225746981"><ele>305.8</ele><time>2026-04-25T11:21:02.773Z</time></trkpt><trkpt lat="45.80545941478512" lon="8.863645723026645"><ele>306.0</ele><time>2026-04-25T11:21:03.773Z</time></trkpt><trkpt lat="45.80540992020135" lon="8.863513392279486"><ele>305.8333333333333</ele><time>2026-04-25T11:21:05.773Z</time></trkpt><trkpt lat="45.80538506397597" lon="8.86339622934924"><ele>305.6666666666667</ele><time>2026-04-25T11:21:06.773Z</time></trkpt><trkpt lat="45.80534276559045" lon="8.863264520205037"><ele>305.5</ele><time>2026-04-25T11:21:07.773Z</time></trkpt><trkpt lat="45.80528419615349" lon="8.863162366578631"><ele>305.33333333333337</ele><time>2026-04-25T11:21:08.773Z</time></trkpt><trkpt lat="45.8052213293911" lon="8.863095529670247"><ele>305.1666666666667</ele><time>2026-04-25T11:21:09.773Z</time></trkpt><trkpt lat="45.80513768677535" lon="8.863076235354601"><ele>305.0</ele><time>2026-04-25T11:21:10.773Z</time></trkpt><trkpt lat="45.80505120979095" lon="8.863105611792577"><ele>304.5</ele><time>2026-04-25T11:21:11.773Z</time></trkpt><trkpt lat="45.80499202459332" lon="8.863166676641036"><ele>304.0</ele><time>2026-04-25T11:21:12.773Z</time></trkpt><trkpt lat="45.8049048365639" lon="8.863355747412413"><ele>303.5</ele><time>2026-04-25T11:21:14.773Z</time></trkpt><trkpt lat="45.80483828823348" lon="8.863493471134174"><ele>303.0</ele><time>2026-04-25T11:21:15.773Z</time></trkpt><trkpt lat="45.804772330002194" lon="8.86366227679984"><ele>305.0</ele><time>2026-04-25T11:21:16.773Z</time></trkpt><trkpt lat="45.80464529467825" lon="8.86379823432477"><ele>307.0</ele><time>2026-04-25T11:21:17.773Z</time></trkpt><trkpt lat="45.80452889263537" lon="8.863944808444856"><ele>309.0</ele><time>2026-04-25T11:21:18.773Z</time></trkpt><trkpt lat="45.80441319239944" lon="8.864085159506942"><ele>308.3333333333333</ele><time>2026-04-25T11:21:19.773Z</time></trkpt><trkpt lat="45.804287384650046" lon="8.864227293248575"><ele>307.66666666666663</ele><time>2026-04-25T11:21:20.773Z</time></trkpt><trkpt lat="45.804156082624345" lon="8.864362654509405"><ele>307.0</ele><time>2026-04-25T11:21:21.773Z</time></trkpt><trkpt lat="45.804016761386706" lon="8.86449399322446"><ele>313.0</ele><time>2026-04-25T11:21:22.773Z</time></trkpt><trkpt lat="45.803869395576704" lon="8.864634542444316"><ele>319.0</ele><time>2026-04-25T11:21:23.773Z</time></trkpt><trkpt lat="45.803722660118304" lon="8.864775138207248"><ele>325.0</ele><time>2026-04-25T11:21:24.773Z</time></trkpt><trkpt lat="45.80356922370553" lon="8.864922123676362"><ele>325.66666666666663</ele><time>2026-04-25T11:21:25.773Z</time></trkpt><trkpt lat="45.80341237824615" lon="8.865068461979611"><ele>326.3333333333333</ele><time>2026-04-25T11:21:26.773Z</time></trkpt><trkpt lat="45.8032568649828" lon="8.865210183380912"><ele>327.0</ele><time>2026-04-25T11:21:27.773Z</time></trkpt><trkpt lat="45.803112582038096" lon="8.86537781584299"><ele>327.0</ele><time>2026-04-25T11:21:28.773Z</time></trkpt><trkpt lat="45.802985254185764" lon="8.865589664981439"><ele>327.0</ele><time>2026-04-25T11:21:29.773Z</time></trkpt><trkpt lat="45.8028543797982" lon="8.865828354533834"><ele>327.0</ele><time>2026-04-25T11:21:30.773Z</time></trkpt><trkpt lat="45.802697137279885" lon="8.866075100293218"><ele>324.3333333333333</ele><time>2026-04-25T11:21:31.773Z</time></trkpt><trkpt lat="45.80253746602237" lon="8.86629271559192"><ele>321.66666666666663</ele><time>2026-04-25T11:21:32.773Z</time></trkpt><trkpt lat="45.80237347927317" lon="8.86648650264474"><ele>319.0</ele><time>2026-04-25T11:21:33.773Z</time></trkpt><trkpt lat="45.80221929721345" lon="8.866671169478794"><ele>326.3333333333333</ele><time>2026-04-25T11:21:34.773Z</time></trkpt><trkpt lat="45.80208512220907" lon="8.86685394952046"><ele>333.6666666666667</ele><time>2026-04-25T11:21:35.773Z</time></trkpt><trkpt lat="45.801979566604565" lon="8.86706624803634"><ele>341.0</ele><time>2026-04-25T11:21:36.773Z</time></trkpt><trkpt lat="45.801898958475384" lon="8.867310486574175"><ele>331.33333333333337</ele><time>2026-04-25T11:21:37.773Z</time></trkpt><trkpt lat="45.80182611918055" lon="8.867568600449642"><ele>321.6666666666667</ele><time>2026-04-25T11:21:38.773Z</time></trkpt><trkpt lat="45.80174853980276" lon="8.867811548939615"><ele>312.0</ele><time>2026-04-25T11:21:39.773Z</time></trkpt><trkpt lat="45.80168388273198" lon="8.86804398952183"><ele>312.0</ele><time>2026-04-25T11:21:40.773Z</time></trkpt><trkpt lat="45.80164691808307" lon="8.868298563685972"><ele>312.0</ele><time>2026-04-25T11:21:41.773Z</time></trkpt><trkpt lat="45.80161416934385" lon="8.868555843100992"><ele>312.0</ele><time>2026-04-25T11:21:42.773Z</time></trkpt><trkpt lat="45.80157412577554" lon="8.868818865748418"><ele>313.6666666666667</ele><time>2026-04-25T11:21:43.773Z</time></trkpt><trkpt lat="45.80153523127549" lon="8.869090977934937"><ele>315.33333333333337</ele><time>2026-04-25T11:21:44.773Z</time></trkpt><trkpt lat="45.80150647207649" lon="8.869358851535713"><ele>317.0</ele><time>2026-04-25T11:21:45.773Z</time></trkpt><trkpt lat="45.80147961956916" lon="8.869605332944449"><ele>317.0</ele><time>2026-04-25T11:21:46.773Z</time></trkpt><trkpt lat="45.801452775928155" lon="8.869839372040547"><ele>317.0</ele><time>2026-04-25T11:21:47.773Z</time></trkpt><trkpt lat="45.80142559062981" lon="8.870076324586059"><ele>317.0</ele><time>2026-04-25T11:21:48.773Z</time></trkpt><trkpt lat="45.801402104977576" lon="8.8703220711345"><ele>317.0</ele><time>2026-04-25T11:21:49.773Z</time></trkpt><trkpt lat="45.80138780216969" lon="8.870556154819015"><ele>317.0</ele><time>2026-04-25T11:21:50.773Z</time></trkpt><trkpt lat="45.80138890389133" lon="8.870763453126022"><ele>317.0</ele><time>2026-04-25T11:21:51.773Z</time></trkpt><trkpt lat="45.801396093666604" lon="8.870945729228188"><ele>317.0</ele><time>2026-04-25T11:21:52.773Z</time></trkpt><trkpt lat="45.80144646976485" lon="8.871073346521499"><ele>314.6</ele><time>2026-04-25T11:21:53.773Z</time></trkpt><trkpt lat="45.801464947734836" lon="8.871198773013997"><ele>312.2</ele><time>2026-04-25T11:21:54.773Z</time></trkpt><trkpt lat="45.80149120677202" lon="8.871291700847628"><ele>309.8</ele><time>2026-04-25T11:21:55.77Z</time></trkpt><trkpt lat="45.80153222623548" lon="8.871437659927002"><ele>307.4</ele><time>2026-04-25T11:21:57.771Z</time></trkpt><trkpt lat="45.80154683378717" lon="8.871603493708486"><ele>305.0</ele><time>2026-04-25T11:21:59.77Z</time></trkpt><trkpt lat="45.80150915782605" lon="8.871683878480873"><ele>304.1666666666667</ele><time>2026-04-25T11:22:00.77Z</time></trkpt><trkpt lat="45.80149524916609" lon="8.871775493799785"><ele>303.33333333333337</ele><time>2026-04-25T11:22:01.771Z</time></trkpt><trkpt lat="45.801504996910644" lon="8.871887438131257"><ele>302.5</ele><time>2026-04-25T11:22:02.77Z</time></trkpt><trkpt lat="45.8015421832044" lon="8.872002538978046"><ele>301.6666666666667</ele><time>2026-04-25T11:22:03.77Z</time></trkpt><trkpt lat="45.80156314359356" lon="8.872126022132269"><ele>300.8333333333333</ele><time>2026-04-25T11:22:04.771Z</time></trkpt><trkpt lat="45.8015376970161" lon="8.8723054163182"><ele>300.0</ele><time>2026-04-25T11:22:05.771Z</time></trkpt><trkpt lat="45.80150711684239" lon="8.872481800540259"><ele>301.0</ele><time>2026-04-25T11:22:06.771Z</time></trkpt><trkpt lat="45.80147148206656" lon="8.872652491124391"><ele>302.0</ele><time>2026-04-25T11:22:07.771Z</time></trkpt><trkpt lat="45.80143668523934" lon="8.872793660439266"><ele>303.0</ele><time>2026-04-25T11:22:08.77Z</time></trkpt><trkpt lat="45.80139812659616" lon="8.872929246971207"><ele>304.0</ele><time>2026-04-25T11:22:09.77Z</time></trkpt><trkpt lat="45.80131389031222" lon="8.873003157805183"><ele>305.0</ele><time>2026-04-25T11:22:10.77Z</time></trkpt><trkpt lat="45.80121326246513" lon="8.873029793221153"><ele>305.0</ele><time>2026-04-25T11:22:11.77Z</time></trkpt><trkpt lat="45.80107470408966" lon="8.873005043390778"><ele>305.0</ele><time>2026-04-25T11:22:12.77Z</time></trkpt><trkpt lat="45.80092063171152" lon="8.87293480994252"><ele>305.0</ele><time>2026-04-25T11:22:13.77Z</time></trkpt><trkpt lat="45.80077394184137" lon="8.872861702987418"><ele>308.75</ele><time>2026-04-25T11:22:14.77Z</time></trkpt><trkpt lat="45.80064737492144" lon="8.872845310612485"><ele>312.5</ele><time>2026-04-25T11:22:15.77Z</time></trkpt><trkpt lat="45.80053312431827" lon="8.872894302375212"><ele>316.25</ele><time>2026-04-25T11:22:16.77Z</time></trkpt><trkpt lat="45.800418293436756" lon="8.873004305862104"><ele>320.0</ele><time>2026-04-25T11:22:17.77Z</time></trkpt><trkpt lat="45.80029270102827" lon="8.873186314967805"><ele>321.6666666666667</ele><time>2026-04-25T11:22:18.77Z</time></trkpt><trkpt lat="45.800145781564666" lon="8.87339583685945"><ele>323.3333333333333</ele><time>2026-04-25T11:22:19.77Z</time></trkpt><trkpt lat="45.79999394140007" lon="8.873606297579272"><ele>325.0</ele><time>2026-04-25T11:22:20.77Z</time></trkpt><trkpt lat="45.79984790317876" lon="8.87381657953678"><ele>325.0</ele><time>2026-04-25T11:22:21.77Z</time></trkpt><trkpt lat="45.7997117856659" lon="8.873995980229576"><ele>325.0</ele><time>2026-04-25T11:22:22.77Z</time></trkpt><trkpt lat="45.79956849757928" lon="8.874172295886599"><ele>325.0</ele><time>2026-04-25T11:22:23.77Z</time></trkpt><trkpt lat="45.799392383090364" lon="8.874310910147388"><ele>329.0</ele><time>2026-04-25T11:22:24.77Z</time></trkpt><trkpt lat="45.79920217706413" lon="8.874424874192057"><ele>333.0</ele><time>2026-04-25T11:22:25.77Z</time></trkpt><trkpt lat="45.799015263176294" lon="8.874512035929657"><ele>337.0</ele><time>2026-04-25T11:22:26.77Z</time></trkpt><trkpt lat="45.79884536164275" lon="8.874613976846343"><ele>337.0</ele><time>2026-04-25T11:22:27.77Z</time></trkpt><trkpt lat="45.79867934834413" lon="8.874707879387453"><ele>337.0</ele><time>2026-04-25T11:22:28.77Z</time></trkpt><trkpt lat="45.79851784400313" lon="8.874751458107633"><ele>337.0</ele><time>2026-04-25T11:22:29.77Z</time></trkpt><trkpt lat="45.798341650003145" lon="8.87476224553597"><ele>334.0</ele><time>2026-04-25T11:22:30.77Z</time></trkpt><trkpt lat="45.79816837207285" lon="8.874761821936634"><ele>331.0</ele><time>2026-04-25T11:22:31.77Z</time></trkpt><trkpt lat="45.79800039877549" lon="8.874764566902451"><ele>328.0</ele><time>2026-04-25T11:22:32.77Z</time></trkpt><trkpt lat="45.79784331090725" lon="8.874765454407392"><ele>328.0</ele><time>2026-04-25T11:22:33.77Z</time></trkpt><trkpt lat="45.79771404197339" lon="8.874771573015185"><ele>328.0</ele><time>2026-04-25T11:22:34.77Z</time></trkpt><trkpt lat="45.79760624047894" lon="8.874822417567085"><ele>328.0</ele><time>2026-04-25T11:22:35.77Z</time></trkpt><trkpt lat="45.79752856917129" lon="8.87489258501773"><ele>328.0</ele><time>2026-04-25T11:22:36.77Z</time></trkpt><trkpt lat="45.79747290063073" lon="8.875021589838202"><ele>328.0</ele><time>2026-04-25T11:22:37.77Z</time></trkpt><trkpt lat="45.797455560697244" lon="8.87517535953423"><ele>328.5</ele><time>2026-04-25T11:22:38.77Z</time></trkpt><trkpt lat="45.79748390185515" lon="8.87533723448839"><ele>329.0</ele><time>2026-04-25T11:22:39.77Z</time></trkpt><trkpt lat="45.79757295363892" lon="8.875483689526988"><ele>329.5</ele><time>2026-04-25T11:22:40.77Z</time></trkpt><trkpt lat="45.79772203210812" lon="8.875609893791822"><ele>330.0</ele><time>2026-04-25T11:22:41.77Z</time></trkpt><trkpt lat="45.7978728421185" lon="8.875759585594537"><ele>334.6666666666667</ele><time>2026-04-25T11:22:42.77Z</time></trkpt><trkpt lat="45.7979905581557" lon="8.875943152339"><ele>339.33333333333337</ele><time>2026-04-25T11:22:43.77Z</time></trkpt><trkpt lat="45.79808345498274" lon="8.87613111420624"><ele>344.0</ele><time>2026-04-25T11:22:44.77Z</time></trkpt><trkpt lat="45.79817883079665" lon="8.87632447749351"><ele>344.0</ele><time>2026-04-25T11:22:45.77Z</time></trkpt><trkpt lat="45.79825599851205" lon="8.876532531201939"><ele>344.0</ele><time>2026-04-25T11:22:46.77Z</time></trkpt><trkpt lat="45.79831699667071" lon="8.876746421442505"><ele>344.0</ele><time>2026-04-25T11:22:47.77Z</time></trkpt><trkpt lat="45.79838312829765" lon="8.876934084310761"><ele>343.75</ele><time>2026-04-25T11:22:48.77Z</time></trkpt><trkpt lat="45.79847238468443" lon="8.877089482173758"><ele>343.5</ele><time>2026-04-25T11:22:49.77Z</time></trkpt><trkpt lat="45.79858297444398" lon="8.877237475939262"><ele>343.25</ele><time>2026-04-25T11:22:50.77Z</time></trkpt><trkpt lat="45.7987026766094" lon="8.877379871468904"><ele>343.0</ele><time>2026-04-25T11:22:51.77Z</time></trkpt><trkpt lat="45.79882871313844" lon="8.877530102543664"><ele>346.3333333333333</ele><time>2026-04-25T11:22:52.77Z</time></trkpt><trkpt lat="45.798961623190785" lon="8.877656063770122"><ele>349.6666666666667</ele><time>2026-04-25T11:22:53.77Z</time></trkpt><trkpt lat="45.79910693357782" lon="8.87774918208375"><ele>353.0</ele><time>2026-04-25T11:22:54.77Z</time></trkpt><trkpt lat="45.799247599493604" lon="8.87782638522412"><ele>352.75</ele><time>2026-04-25T11:22:55.77Z</time></trkpt><trkpt lat="45.79938625686236" lon="8.877888406976323"><ele>352.5</ele><time>2026-04-25T11:22:56.77Z</time></trkpt><trkpt lat="45.799512247094164" lon="8.87793781532022"><ele>352.25</ele><time>2026-04-25T11:22:57.77Z</time></trkpt><trkpt lat="45.79962773989374" lon="8.877984658420326"><ele>352.0</ele><time>2026-04-25T11:22:58.77Z</time></trkpt><trkpt lat="45.79972524164482" lon="8.878026449545052"><ele>352.0</ele><time>2026-04-25T11:22:59.77Z</time></trkpt><trkpt lat="45.79981552166275" lon="8.878068331990129"><ele>352.0</ele><time>2026-04-25T11:23:00.77Z</time></trkpt><trkpt lat="45.799898504651615" lon="8.878111386894352"><ele>352.0</ele><time>2026-04-25T11:23:01.77Z</time></trkpt><trkpt lat="45.79996965465143" lon="8.878137973301989"><ele>352.0</ele><time>2026-04-25T11:23:02.77Z</time></trkpt><trkpt lat="45.800027680898765" lon="8.878192432192321"><ele>352.0</ele><time>2026-04-25T11:23:03.77Z</time></trkpt><trkpt lat="45.80006020874319" lon="8.878336216214256"><ele>352.0</ele><time>2026-04-25T11:23:05.77Z</time></trkpt><trkpt lat="45.79998167594464" lon="8.87844273451915"><ele>352.0</ele><time>2026-04-25T11:23:06.77Z</time></trkpt><trkpt lat="45.799931801620865" lon="8.878577684512889"><ele>352.0</ele><time>2026-04-25T11:23:07.77Z</time></trkpt><trkpt lat="45.79993487154073" lon="8.878725474478381"><ele>352.0</ele><time>2026-04-25T11:23:08.77Z</time></trkpt><trkpt lat="45.799901833471495" lon="8.87884279588407"><ele>352.0</ele><time>2026-04-25T11:23:09.77Z</time></trkpt><trkpt lat="45.799879814733416" lon="8.878953553368786"><ele>352.0</ele><time>2026-04-25T11:23:10.77Z</time></trkpt><trkpt lat="45.79985733174188" lon="8.879085872845868"><ele>352.0</ele><time>2026-04-25T11:23:11.77Z</time></trkpt><trkpt lat="45.799840570982326" lon="8.879235505569206"><ele>352.0</ele><time>2026-04-25T11:23:12.77Z</time></trkpt><trkpt lat="45.79981531627311" lon="8.879379017195792"><ele>352.0</ele><time>2026-04-25T11:23:13.77Z</time></trkpt><trkpt lat="45.79979558988815" lon="8.87950880418906"><ele>352.0</ele><time>2026-04-25T11:23:14.77Z</time></trkpt><trkpt lat="45.79970046915454" lon="8.879611486075184"><ele>352.0</ele><time>2026-04-25T11:23:15.77Z</time></trkpt><trkpt lat="45.799763857901524" lon="8.87975610251815"><ele>352.0</ele><time>2026-04-25T11:23:16.77Z</time></trkpt><trkpt lat="45.799734376659664" lon="8.879904975474114"><ele>352.0</ele><time>2026-04-25T11:23:18.77Z</time></trkpt><trkpt lat="45.79961347481245" lon="8.879932643948903"><ele>352.0</ele><time>2026-04-25T11:23:20.77Z</time></trkpt><trkpt lat="45.79950102370609" lon="8.879972853317264"><ele>352.0</ele><time>2026-04-25T11:23:22.77Z</time></trkpt><trkpt lat="45.79944628132846" lon="8.880118557963089"><ele>352.20000000000005</ele><time>2026-04-25T11:23:23.77Z</time></trkpt><trkpt lat="45.79941296528343" lon="8.880200942688019"><ele>352.4</ele><time>2026-04-25T11:23:24.77Z</time></trkpt><trkpt lat="45.79933605339435" lon="8.880297130944644"><ele>352.6</ele><time>2026-04-25T11:23:25.77Z</time></trkpt><trkpt lat="45.79925009632617" lon="8.880416532326793"><ele>352.79999999999995</ele><time>2026-04-25T11:23:26.77Z</time></trkpt><trkpt lat="45.79915951540419" lon="8.880507630728786"><ele>353.0</ele><time>2026-04-25T11:23:27.77Z</time></trkpt><trkpt lat="45.799063934531965" lon="8.880623077308897"><ele>353.5</ele><time>2026-04-25T11:23:28.77Z</time></trkpt><trkpt lat="45.798949382222716" lon="8.880701115995755"><ele>354.0</ele><time>2026-04-25T11:23:29.77Z</time></trkpt><trkpt lat="45.79885201218078" lon="8.880811681610712"><ele>354.5</ele><time>2026-04-25T11:23:30.77Z</time></trkpt><trkpt lat="45.79875785126581" lon="8.880919886805346"><ele>355.0</ele><time>2026-04-25T11:23:31.77Z</time></trkpt><trkpt lat="45.79867296071649" lon="8.881017439013123"><ele>355.25</ele><time>2026-04-25T11:23:32.77Z</time></trkpt><trkpt lat="45.79858994029758" lon="8.88111284215964"><ele>355.5</ele><time>2026-04-25T11:23:33.77Z</time></trkpt><trkpt lat="45.79850666335563" lon="8.881208541325856"><ele>355.75</ele><time>2026-04-25T11:23:34.77Z</time></trkpt><trkpt lat="45.79842459137509" lon="8.88130141366916"><ele>356.0</ele><time>2026-04-25T11:23:35.77Z</time></trkpt><trkpt lat="45.79839679058325" lon="8.881486569178659"><ele>356.20000000000005</ele><time>2026-04-25T11:23:36.77Z</time></trkpt><trkpt lat="45.79831910699364" lon="8.881578061779285"><ele>356.40000000000003</ele><time>2026-04-25T11:23:37.77Z</time></trkpt><trkpt lat="45.79824119218455" lon="8.881665971559855"><ele>356.6</ele><time>2026-04-25T11:23:38.77Z</time></trkpt><trkpt lat="45.79815455782016" lon="8.881736417543028"><ele>356.8</ele><time>2026-04-25T11:23:39.77Z</time></trkpt><trkpt lat="45.79804171645186" lon="8.881738295742677"><ele>357.0</ele><time>2026-04-25T11:23:40.77Z</time></trkpt><trkpt lat="45.79795142845463" lon="8.881842066475503"><ele>357.3333333333333</ele><time>2026-04-25T11:23:42.77Z</time></trkpt><trkpt lat="45.797863015594444" lon="8.88194314729631"><ele>357.6666666666667</ele><time>2026-04-25T11:23:44.77Z</time></trkpt><trkpt lat="45.79779799458742" lon="8.882017207824592"><ele>358.0</ele><time>2026-04-25T11:23:46.77Z</time></trkpt><trkpt lat="45.79774587029077" lon="8.88207657856742"><ele>358.33333333333337</ele><time>2026-04-25T11:23:54.771Z</time></trkpt><trkpt lat="45.79768644331657" lon="8.882144277519997"><ele>358.6666666666667</ele><time>2026-04-25T11:23:56.771Z</time></trkpt><trkpt lat="45.797626332287294" lon="8.882213194072406"><ele>359.0</ele><time>2026-04-25T11:23:57.771Z</time></trkpt><trkpt lat="45.79755477379307" lon="8.882295235046223"><ele>359.4</ele><time>2026-04-25T11:23:58.771Z</time></trkpt><trkpt lat="45.79748312273064" lon="8.882377382242195"><ele>359.79999999999995</ele><time>2026-04-25T11:23:59.771Z</time></trkpt><trkpt lat="45.797404377419525" lon="8.882467662745434"><ele>360.20000000000005</ele><time>2026-04-25T11:24:00.771Z</time></trkpt><trkpt lat="45.79731792176153" lon="8.88256678320029"><ele>360.6</ele><time>2026-04-25T11:24:01.768Z</time></trkpt><trkpt lat="45.797221661530145" lon="8.882677144430664"><ele>361.0</ele><time>2026-04-25T11:24:02.768Z</time></trkpt><trkpt lat="45.7971235093774" lon="8.88278952630764"><ele>361.75</ele><time>2026-04-25T11:24:03.768Z</time></trkpt><trkpt lat="45.7970202391864" lon="8.882907462303091"><ele>362.5</ele><time>2026-04-25T11:24:04.769Z</time></trkpt><trkpt lat="45.79692546896874" lon="8.883015691252549"><ele>363.25</ele><time>2026-04-25T11:24:05.769Z</time></trkpt><trkpt lat="45.79683905837266" lon="8.883114373437643"><ele>364.0</ele><time>2026-04-25T11:24:06.769Z</time></trkpt><trkpt lat="45.79676113899037" lon="8.883203358518722"><ele>364.2</ele><time>2026-04-25T11:24:07.769Z</time></trkpt><trkpt lat="45.79668547007558" lon="8.883289773519156"><ele>364.4</ele><time>2026-04-25T11:24:08.769Z</time></trkpt><trkpt lat="45.796606615535296" lon="8.88337982652343"><ele>364.6</ele><time>2026-04-25T11:24:09.769Z</time></trkpt><trkpt lat="45.79653066172439" lon="8.883466566899438"><ele>364.8</ele><time>2026-04-25T11:24:10.768Z</time></trkpt><trkpt lat="45.796458869132834" lon="8.88354845568989"><ele>365.0</ele><time>2026-04-25T11:24:11.769Z</time></trkpt><trkpt lat="45.79637768146428" lon="8.88364095313097"><ele>365.5</ele><time>2026-04-25T11:24:12.769Z</time></trkpt><trkpt lat="45.79627777052495" lon="8.883754782052831"><ele>366.0</ele><time>2026-04-25T11:24:13.769Z</time></trkpt><trkpt lat="45.796178587110916" lon="8.883867783147899"><ele>366.5</ele><time>2026-04-25T11:24:14.768Z</time></trkpt><trkpt lat="45.796085342118424" lon="8.883973661116114"><ele>367.0</ele><time>2026-04-25T11:24:15.768Z</time></trkpt><trkpt lat="45.795992587790984" lon="8.884078993643508"><ele>367.8</ele><time>2026-04-25T11:24:16.768Z</time></trkpt><trkpt lat="45.79590506199398" lon="8.884179278994502"><ele>368.6</ele><time>2026-04-25T11:24:17.768Z</time></trkpt><trkpt lat="45.79581791140675" lon="8.884279134344977"><ele>369.40000000000003</ele><time>2026-04-25T11:24:18.768Z</time></trkpt><trkpt lat="45.79574927342737" lon="8.884384807126075"><ele>370.20000000000005</ele><time>2026-04-25T11:24:19.768Z</time></trkpt><trkpt lat="45.79566877420188" lon="8.884476057225331"><ele>371.0</ele><time>2026-04-25T11:24:20.768Z</time></trkpt><trkpt lat="45.79558683522258" lon="8.884562799568432"><ele>371.20000000000005</ele><time>2026-04-25T11:24:21.768Z</time></trkpt><trkpt lat="45.79550175737273" lon="8.884651743541246"><ele>371.40000000000003</ele><time>2026-04-25T11:24:22.768Z</time></trkpt><trkpt lat="45.79540505042467" lon="8.884754784145127"><ele>371.6</ele><time>2026-04-25T11:24:23.768Z</time></trkpt><trkpt lat="45.795319775825874" lon="8.884848925393342"><ele>371.8</ele><time>2026-04-25T11:24:24.768Z</time></trkpt><trkpt lat="45.795235758142375" lon="8.884954644155371"><ele>372.0</ele><time>2026-04-25T11:24:25.768Z</time></trkpt><trkpt lat="45.79514889771817" lon="8.885055050375424"><ele>370.5</ele><time>2026-04-25T11:24:26.768Z</time></trkpt><trkpt lat="45.795061815043304" lon="8.885159367708024"><ele>369.0</ele><time>2026-04-25T11:24:27.768Z</time></trkpt><trkpt lat="45.794974858402576" lon="8.885264117386727"><ele>367.5</ele><time>2026-04-25T11:24:28.768Z</time></trkpt><trkpt lat="45.79488402863053" lon="8.885371828392886"><ele>366.0</ele><time>2026-04-25T11:24:29.768Z</time></trkpt><trkpt lat="45.79479352140547" lon="8.88547797910442"><ele>366.0</ele><time>2026-04-25T11:24:30.768Z</time></trkpt><trkpt lat="45.794699849617984" lon="8.885556946754031"><ele>366.0</ele><time>2026-04-25T11:24:31.768Z</time></trkpt><trkpt lat="45.794635366479696" lon="8.885631365665201"><ele>366.0</ele><time>2026-04-25T11:24:32.768Z</time></trkpt><trkpt lat="45.79457871865233" lon="8.885696795923636"><ele>366.0</ele><time>2026-04-25T11:24:33.768Z</time></trkpt><trkpt lat="45.79452497010135" lon="8.885758877389959"><ele>366.0</ele><time>2026-04-25T11:24:34.768Z</time></trkpt><trkpt lat="45.79447358771864" lon="8.885818225857943"><ele>366.0</ele><time>2026-04-25T11:24:35.768Z</time></trkpt><trkpt lat="45.79441669199941" lon="8.885883942465151"><ele>365.8</ele><time>2026-04-25T11:24:36.768Z</time></trkpt><trkpt lat="45.79435780747998" lon="8.885951956103957"><ele>365.6</ele><time>2026-04-25T11:24:37.768Z</time></trkpt><trkpt lat="45.79428738032274" lon="8.886033302028897"><ele>365.4</ele><time>2026-04-25T11:24:38.768Z</time></trkpt><trkpt lat="45.79422545356865" lon="8.886135141229525"><ele>365.2</ele><time>2026-04-25T11:24:39.768Z</time></trkpt><trkpt lat="45.79414366225888" lon="8.886211048862677"><ele>365.0</ele><time>2026-04-25T11:24:40.768Z</time></trkpt><trkpt lat="45.79406904849288" lon="8.886291545287774"><ele>364.6</ele><time>2026-04-25T11:24:41.768Z</time></trkpt><trkpt lat="45.79399675314927" lon="8.886377324538659"><ele>364.2</ele><time>2026-04-25T11:24:42.768Z</time></trkpt><trkpt lat="45.79391130492709" lon="8.886473881673915"><ele>363.79999999999995</ele><time>2026-04-25T11:24:43.768Z</time></trkpt><trkpt lat="45.79382090520277" lon="8.886576795196167"><ele>363.4</ele><time>2026-04-25T11:24:44.768Z</time></trkpt><trkpt lat="45.7937231315627" lon="8.886692260353803"><ele>363.0</ele><time>2026-04-25T11:24:45.768Z</time></trkpt><trkpt lat="45.79361734486667" lon="8.886820411173728"><ele>363.0</ele><time>2026-04-25T11:24:46.768Z</time></trkpt><trkpt lat="45.793518743176925" lon="8.886937119794835"><ele>363.0</ele><time>2026-04-25T11:24:47.768Z</time></trkpt><trkpt lat="45.7934223268092" lon="8.88705341886682"><ele>363.0</ele><time>2026-04-25T11:24:48.768Z</time></trkpt><trkpt lat="45.793321612176804" lon="8.88716728558153"><ele>363.0</ele><time>2026-04-25T11:24:49.768Z</time></trkpt><trkpt lat="45.79322723150472" lon="8.887275107754053"><ele>363.25</ele><time>2026-04-25T11:24:50.768Z</time></trkpt><trkpt lat="45.793133815495544" lon="8.887369913526248"><ele>363.5</ele><time>2026-04-25T11:24:51.768Z</time></trkpt><trkpt lat="45.79304343948186" lon="8.887474797290432"><ele>363.75</ele><time>2026-04-25T11:24:52.768Z</time></trkpt><trkpt lat="45.79295262168715" lon="8.88758578930416"><ele>364.0</ele><time>2026-04-25T11:24:53.768Z</time></trkpt><trkpt lat="45.792855467048085" lon="8.887702862700923"><ele>363.25</ele><time>2026-04-25T11:24:54.768Z</time></trkpt><trkpt lat="45.79274788453693" lon="8.887797420120297"><ele>362.5</ele><time>2026-04-25T11:24:55.768Z</time></trkpt><trkpt lat="45.792647965420585" lon="8.887911591764288"><ele>361.75</ele><time>2026-04-25T11:24:56.768Z</time></trkpt><trkpt lat="45.79255551797429" lon="8.888045885659768"><ele>361.0</ele><time>2026-04-25T11:24:57.768Z</time></trkpt><trkpt lat="45.79245196820996" lon="8.88816386893144"><ele>360.75</ele><time>2026-04-25T11:24:58.768Z</time></trkpt><trkpt lat="45.792346624979345" lon="8.888279879982356"><ele>360.5</ele><time>2026-04-25T11:24:59.768Z</time></trkpt><trkpt lat="45.792249125021705" lon="8.888393507744572"><ele>360.25</ele><time>2026-04-25T11:25:00.768Z</time></trkpt><trkpt lat="45.79214087768512" lon="8.888489268796127"><ele>360.0</ele><time>2026-04-25T11:25:01.768Z</time></trkpt><trkpt lat="45.792054955730414" lon="8.888612442640218"><ele>359.8333333333333</ele><time>2026-04-25T11:25:02.768Z</time></trkpt><trkpt lat="45.79197315972899" lon="8.888695343690426"><ele>359.6666666666667</ele><time>2026-04-25T11:25:03.768Z</time></trkpt><trkpt lat="45.79190999049534" lon="8.888755945450068"><ele>359.5</ele><time>2026-04-25T11:25:04.768Z</time></trkpt><trkpt lat="45.79182960266656" lon="8.888819999649733"><ele>359.33333333333337</ele><time>2026-04-25T11:25:06.768Z</time></trkpt><trkpt lat="45.79177445211913" lon="8.888874367614452"><ele>359.1666666666667</ele><time>2026-04-25T11:25:10.769Z</time></trkpt><trkpt lat="45.791694039104215" lon="8.888914037164568"><ele>359.0</ele><time>2026-04-25T11:25:13.769Z</time></trkpt><trkpt lat="45.79157967985351" lon="8.888951161741184"><ele>358.83333333333337</ele><time>2026-04-25T11:25:15.769Z</time></trkpt><trkpt lat="45.791576456442826" lon="8.88907530213683"><ele>358.6666666666667</ele><time>2026-04-25T11:25:16.769Z</time></trkpt><trkpt lat="45.791545916239954" lon="8.889163412643018"><ele>358.5</ele><time>2026-04-25T11:25:17.769Z</time></trkpt><trkpt lat="45.79149248877037" lon="8.889257191001267"><ele>358.3333333333333</ele><time>2026-04-25T11:25:18.769Z</time></trkpt><trkpt lat="45.791426966353235" lon="8.889344194754315"><ele>358.16666666666663</ele><time>2026-04-25T11:25:19.769Z</time></trkpt><trkpt lat="45.791329600921" lon="8.889410858803855"><ele>358.0</ele><time>2026-04-25T11:25:20.769Z</time></trkpt><trkpt lat="45.7912546352798" lon="8.889523809957613"><ele>358.0</ele><time>2026-04-25T11:25:21.769Z</time></trkpt><trkpt lat="45.79116903449677" lon="8.889620042841207"><ele>358.0</ele><time>2026-04-25T11:25:22.769Z</time></trkpt><trkpt lat="45.791080499591" lon="8.889721254781167"><ele>358.0</ele><time>2026-04-25T11:25:23.769Z</time></trkpt><trkpt lat="45.79098792645763" lon="8.889805396113845"><ele>358.0</ele><time>2026-04-25T11:25:24.769Z</time></trkpt><trkpt lat="45.79091741275735" lon="8.889927810254287"><ele>358.0</ele><time>2026-04-25T11:25:25.769Z</time></trkpt><trkpt lat="45.790826534110586" lon="8.890032372635739"><ele>357.59999999999997</ele><time>2026-04-25T11:25:26.769Z</time></trkpt><trkpt lat="45.790733339687186" lon="8.890124727422739"><ele>357.2</ele><time>2026-04-25T11:25:27.769Z</time></trkpt><trkpt lat="45.790641962743194" lon="8.890208205140423"><ele>356.8</ele><time>2026-04-25T11:25:28.769Z</time></trkpt><trkpt lat="45.79055888140019" lon="8.890288503374148"><ele>356.4</ele><time>2026-04-25T11:25:29.769Z</time></trkpt><trkpt lat="45.79048074938175" lon="8.890362927323375"><ele>356.0</ele><time>2026-04-25T11:25:30.769Z</time></trkpt><trkpt lat="45.79041341615392" lon="8.890432919271701"><ele>356.0</ele><time>2026-04-25T11:25:31.769Z</time></trkpt><trkpt lat="45.790356365316775" lon="8.890484957266187"><ele>356.0</ele><time>2026-04-25T11:25:32.769Z</time></trkpt><trkpt lat="45.790288564218244" lon="8.890545302607402"><ele>356.0</ele><time>2026-04-25T11:25:34.769Z</time></trkpt><trkpt lat="45.790192236961076" lon="8.890597436024105"><ele>356.0</ele><time>2026-04-25T11:25:37.769Z</time></trkpt><trkpt lat="45.79006693152455" lon="8.89059992876672"><ele>356.0</ele><time>2026-04-25T11:25:39.769Z</time></trkpt><trkpt lat="45.789990781203734" lon="8.89061838586757"><ele>356.0</ele><time>2026-04-25T11:25:40.769Z</time></trkpt><trkpt lat="45.7899022725752" lon="8.89073155649496"><ele>356.0</ele><time>2026-04-25T11:25:41.769Z</time></trkpt><trkpt lat="45.7899009995665" lon="8.890925994863734"><ele>356.0</ele><time>2026-04-25T11:25:42.769Z</time></trkpt><trkpt lat="45.78985400052748" lon="8.891092553764453"><ele>356.0</ele><time>2026-04-25T11:25:43.769Z</time></trkpt><trkpt lat="45.7897520025885" lon="8.891195781992208"><ele>355.5</ele><time>2026-04-25T11:25:44.769Z</time></trkpt><trkpt lat="45.78964704888739" lon="8.891326629592275"><ele>355.0</ele><time>2026-04-25T11:25:45.769Z</time></trkpt><trkpt lat="45.78954853516325" lon="8.891446940746903"><ele>354.5</ele><time>2026-04-25T11:25:46.769Z</time></trkpt><trkpt lat="45.78944535571014" lon="8.891569107942784"><ele>354.0</ele><time>2026-04-25T11:25:47.769Z</time></trkpt><trkpt lat="45.78933753802724" lon="8.891696767613212"><ele>351.6666666666667</ele><time>2026-04-25T11:25:48.769Z</time></trkpt><trkpt lat="45.78923524898841" lon="8.891840877988294"><ele>349.33333333333337</ele><time>2026-04-25T11:25:49.769Z</time></trkpt><trkpt lat="45.78911125950567" lon="8.8919764558617"><ele>347.0</ele><time>2026-04-25T11:25:50.769Z</time></trkpt><trkpt lat="45.78898307919698" lon="8.892116834260447"><ele>347.0</ele><time>2026-04-25T11:25:51.769Z</time></trkpt><trkpt lat="45.78883963777809" lon="8.892259340246236"><ele>347.0</ele><time>2026-04-25T11:25:52.769Z</time></trkpt><trkpt lat="45.78869231629188" lon="8.892420796845947"><ele>347.0</ele><time>2026-04-25T11:25:53.769Z</time></trkpt><trkpt lat="45.78853424927958" lon="8.89259004259301"><ele>345.6666666666667</ele><time>2026-04-25T11:25:54.769Z</time></trkpt><trkpt lat="45.78838638000714" lon="8.892766631518658"><ele>344.3333333333333</ele><time>2026-04-25T11:25:55.769Z</time></trkpt><trkpt lat="45.78824347476086" lon="8.892939026233444"><ele>343.0</ele><time>2026-04-25T11:25:56.769Z</time></trkpt><trkpt lat="45.78809905781767" lon="8.89311639989672"><ele>343.0</ele><time>2026-04-25T11:25:57.769Z</time></trkpt><trkpt lat="45.78794759039486" lon="8.893305294838239"><ele>343.0</ele><time>2026-04-25T11:25:58.769Z</time></trkpt><trkpt lat="45.787802199881256" lon="8.893483507658127"><ele>343.0</ele><time>2026-04-25T11:25:59.769Z</time></trkpt><trkpt lat="45.78765772534944" lon="8.893641116485917"><ele>343.66666666666663</ele><time>2026-04-25T11:26:00.769Z</time></trkpt><trkpt lat="45.7875136066216" lon="8.893801382927563"><ele>344.3333333333333</ele><time>2026-04-25T11:26:01.769Z</time></trkpt><trkpt lat="45.78738240683436" lon="8.893954480591237"><ele>345.0</ele><time>2026-04-25T11:26:02.769Z</time></trkpt><trkpt lat="45.787263670630374" lon="8.89410274259427"><ele>347.3333333333333</ele><time>2026-04-25T11:26:03.769Z</time></trkpt><trkpt lat="45.78715918912728" lon="8.894257205148067"><ele>349.66666666666663</ele><time>2026-04-25T11:26:04.769Z</time></trkpt><trkpt lat="45.787069198306654" lon="8.894427137505826"><ele>352.0</ele><time>2026-04-25T11:26:05.769Z</time></trkpt><trkpt lat="45.78700471605056" lon="8.894626924001637"><ele>352.0</ele><time>2026-04-25T11:26:06.769Z</time></trkpt><trkpt lat="45.7869509995465" lon="8.894829868357467"><ele>352.0</ele><time>2026-04-25T11:26:07.767Z</time></trkpt><trkpt lat="45.78690980971116" lon="8.895018860741997"><ele>352.0</ele><time>2026-04-25T11:26:08.767Z</time></trkpt><trkpt lat="45.786881987658035" lon="8.895198405421588"><ele>352.0</ele><time>2026-04-25T11:26:09.767Z</time></trkpt><trkpt lat="45.78685754370646" lon="8.895378502825954"><ele>352.75</ele><time>2026-04-25T11:26:10.766Z</time></trkpt><trkpt lat="45.7868350220333" lon="8.895556228582931"><ele>353.5</ele><time>2026-04-25T11:26:11.767Z</time></trkpt><trkpt lat="45.786831156742316" lon="8.895719464872284"><ele>354.25</ele><time>2026-04-25T11:26:12.767Z</time></trkpt><trkpt lat="45.78684423826046" lon="8.895889347544172"><ele>355.0</ele><time>2026-04-25T11:26:13.766Z</time></trkpt><trkpt lat="45.78683967561204" lon="8.896062635873117"><ele>357.2</ele><time>2026-04-25T11:26:14.767Z</time></trkpt><trkpt lat="45.786852749944835" lon="8.896232551371543"><ele>359.4</ele><time>2026-04-25T11:26:15.767Z</time></trkpt><trkpt lat="45.78686451188057" lon="8.896390907286815"><ele>361.6</ele><time>2026-04-25T11:26:16.766Z</time></trkpt><trkpt lat="45.78687481890405" lon="8.896529675014321"><ele>363.8</ele><time>2026-04-25T11:26:17.767Z</time></trkpt><trkpt lat="45.7868839741432" lon="8.896652935707575"><ele>366.0</ele><time>2026-04-25T11:26:18.767Z</time></trkpt><trkpt lat="45.78689210346291" lon="8.896762384116645"><ele>366.25</ele><time>2026-04-25T11:26:19.767Z</time></trkpt><trkpt lat="45.786897322998975" lon="8.896881496310018"><ele>366.5</ele><time>2026-04-25T11:26:21.766Z</time></trkpt><trkpt lat="45.786837738829206" lon="8.89681914029262"><ele>366.75</ele><time>2026-04-25T11:26:26.766Z</time></trkpt><trkpt lat="45.786635985189896" lon="8.89676083066833"><ele>367.0</ele><time>2026-04-25T11:26:50.766Z</time></trkpt><trkpt lat="45.78683170595718" lon="8.896737916433581"><ele>364.3333333333333</ele><time>2026-04-25T11:26:54.766Z</time></trkpt><trkpt lat="45.78662391960375" lon="8.896813446217738"><ele>361.6666666666667</ele><time>2026-04-25T11:27:01.766Z</time></trkpt><trkpt lat="45.78683486191164" lon="8.89678040645347"><ele>359.0</ele><time>2026-04-25T11:27:06.766Z</time></trkpt><trkpt lat="45.78662103868186" lon="8.896830343354331"><ele>359.0</ele><time>2026-04-25T11:27:12.767Z</time></trkpt><trkpt lat="45.786835878209935" lon="8.89679408942901"><ele>359.0</ele><time>2026-04-25T11:27:16.767Z</time></trkpt><trkpt lat="45.786629498666095" lon="8.896810603341093"><ele>359.0</ele><time>2026-04-25T11:27:25.767Z</time></trkpt><trkpt lat="45.786834693296456" lon="8.896778136196103"><ele>359.0</ele><time>2026-04-25T11:27:28.767Z</time></trkpt><trkpt lat="45.78663700568871" lon="8.896819728882653"><ele>359.0</ele><time>2026-04-25T11:27:39.767Z</time></trkpt><trkpt lat="45.7868355554649" lon="8.896789743980968"><ele>359.0</ele><time>2026-04-25T11:27:42.767Z</time></trkpt><trkpt lat="45.78663344685762" lon="8.89682221897607"><ele>359.0</ele><time>2026-04-25T11:27:43.767Z</time></trkpt><trkpt lat="45.78676659883809" lon="8.89687463794193"><ele>359.0</ele><time>2026-04-25T11:42:48.799Z</time></trkpt><trkpt lat="45.78682915594792" lon="8.896890541192617"><ele>359.0</ele><time>2026-04-25T11:42:51.799Z</time></trkpt><trkpt lat="45.78692656248088" lon="8.897054605390448"><ele>359.0</ele><time>2026-04-25T11:43:00.796Z</time></trkpt><trkpt lat="45.78694073579976" lon="8.89721226982072"><ele>361.0</ele><time>2026-04-25T11:43:01.796Z</time></trkpt><trkpt lat="45.78694220793895" lon="8.897396009144794"><ele>363.0</ele><time>2026-04-25T11:43:02.796Z</time></trkpt><trkpt lat="45.786948133089105" lon="8.897575458407418"><ele>365.0</ele><time>2026-04-25T11:43:03.796Z</time></trkpt><trkpt lat="45.786962964431694" lon="8.89777349924478"><ele>367.0</ele><time>2026-04-25T11:43:04.796Z</time></trkpt><trkpt lat="45.78697839394692" lon="8.897962998870453"><ele>367.75</ele><time>2026-04-25T11:43:05.796Z</time></trkpt><trkpt lat="45.786993147950454" lon="8.898153585053368"><ele>368.5</ele><time>2026-04-25T11:43:06.796Z</time></trkpt><trkpt lat="45.78699985327731" lon="8.898342720312094"><ele>369.25</ele><time>2026-04-25T11:43:07.796Z</time></trkpt><trkpt lat="45.787000032939375" lon="8.898540033636928"><ele>370.0</ele><time>2026-04-25T11:43:08.796Z</time></trkpt><trkpt lat="45.78698321941053" lon="8.898740591522449"><ele>370.25</ele><time>2026-04-25T11:43:09.796Z</time></trkpt><trkpt lat="45.786961804607586" lon="8.89893057679062"><ele>370.5</ele><time>2026-04-25T11:43:10.796Z</time></trkpt><trkpt lat="45.78693533765253" lon="8.89912059470851"><ele>370.75</ele><time>2026-04-25T11:43:11.796Z</time></trkpt><trkpt lat="45.78691118494524" lon="8.899294220210338"><ele>371.0</ele><time>2026-04-25T11:43:12.796Z</time></trkpt><trkpt lat="45.78688670466536" lon="8.89946799646412"><ele>370.75</ele><time>2026-04-25T11:43:13.796Z</time></trkpt><trkpt lat="45.78686673457128" lon="8.899635448678842"><ele>370.5</ele><time>2026-04-25T11:43:14.796Z</time></trkpt><trkpt lat="45.78684707964154" lon="8.89980219038595"><ele>370.25</ele><time>2026-04-25T11:43:15.796Z</time></trkpt><trkpt lat="45.78682915720974" lon="8.899963226481086"><ele>370.0</ele><time>2026-04-25T11:43:16.796Z</time></trkpt><trkpt lat="45.78681086058428" lon="8.900118527991435"><ele>370.8</ele><time>2026-04-25T11:43:17.796Z</time></trkpt><trkpt lat="45.78679421159596" lon="8.90027875200682"><ele>371.6</ele><time>2026-04-25T11:43:18.796Z</time></trkpt><trkpt lat="45.78677302890008" lon="8.900432247858866"><ele>372.4</ele><time>2026-04-25T11:43:19.796Z</time></trkpt><trkpt lat="45.78673604516707" lon="8.900578599419978"><ele>373.2</ele><time>2026-04-25T11:43:20.796Z</time></trkpt><trkpt lat="45.7867212534219" lon="8.90073735122441"><ele>374.0</ele><time>2026-04-25T11:43:21.796Z</time></trkpt><trkpt lat="45.7867071139909" lon="8.900893205248735"><ele>373.79999999999995</ele><time>2026-04-25T11:43:22.796Z</time></trkpt><trkpt lat="45.78669299153532" lon="8.901048947925108"><ele>373.59999999999997</ele><time>2026-04-25T11:43:23.796Z</time></trkpt><trkpt lat="45.78667845395091" lon="8.901196228776188"><ele>373.4</ele><time>2026-04-25T11:43:24.796Z</time></trkpt><trkpt lat="45.786664240701036" lon="8.901340223652966"><ele>373.2</ele><time>2026-04-25T11:43:25.796Z</time></trkpt><trkpt lat="45.786651349723975" lon="8.901464532318688"><ele>373.0</ele><time>2026-04-25T11:43:26.796Z</time></trkpt><trkpt lat="45.78663998621368" lon="8.901573973743119"><ele>373.0</ele><time>2026-04-25T11:43:27.796Z</time></trkpt><trkpt lat="45.7866240294606" lon="8.901711317487278"><ele>373.0</ele><time>2026-04-25T11:43:29.796Z</time></trkpt><trkpt lat="45.78660326433312" lon="8.901814168823979"><ele>373.0</ele><time>2026-04-25T11:43:34.796Z</time></trkpt><trkpt lat="45.78655036769108" lon="8.901954285605811"><ele>373.0</ele><time>2026-04-25T11:43:36.796Z</time></trkpt><trkpt lat="45.78655037623358" lon="8.90204706382591"><ele>373.0</ele><time>2026-04-25T11:43:37.796Z</time></trkpt><trkpt lat="45.78655812750021" lon="8.902160755954117"><ele>373.0</ele><time>2026-04-25T11:43:38.796Z</time></trkpt><trkpt lat="45.78656828074256" lon="8.90230472223497"><ele>373.0</ele><time>2026-04-25T11:43:39.796Z</time></trkpt><trkpt lat="45.78653141064447" lon="8.902458937316215"><ele>373.0</ele><time>2026-04-25T11:43:40.796Z</time></trkpt><trkpt lat="45.78652149076683" lon="8.902621274087688"><ele>373.0</ele><time>2026-04-25T11:43:41.797Z</time></trkpt><trkpt lat="45.78650914484691" lon="8.902775677026753"><ele>373.0</ele><time>2026-04-25T11:43:42.797Z</time></trkpt><trkpt lat="45.786492463002084" lon="8.902939715960372"><ele>373.5</ele><time>2026-04-25T11:43:43.797Z</time></trkpt><trkpt lat="45.78647314408708" lon="8.903121730264193"><ele>374.0</ele><time>2026-04-25T11:43:44.797Z</time></trkpt><trkpt lat="45.786453659152585" lon="8.903311048526202"><ele>374.5</ele><time>2026-04-25T11:43:45.797Z</time></trkpt><trkpt lat="45.78643348020295" lon="8.903515385163487"><ele>375.0</ele><time>2026-04-25T11:43:46.797Z</time></trkpt><trkpt lat="45.786410863576776" lon="8.903742299474526"><ele>375.3333333333333</ele><time>2026-04-25T11:43:47.797Z</time></trkpt><trkpt lat="45.78638800631574" lon="8.903976139661186"><ele>375.66666666666663</ele><time>2026-04-25T11:43:48.797Z</time></trkpt><trkpt lat="45.78636194879788" lon="8.904237277042583"><ele>376.0</ele><time>2026-04-25T11:43:49.797Z</time></trkpt><trkpt lat="45.786333113772464" lon="8.904527469430791"><ele>376.3333333333333</ele><time>2026-04-25T11:43:50.797Z</time></trkpt><trkpt lat="45.78630355937309" lon="8.904824901138284"><ele>376.6666666666667</ele><time>2026-04-25T11:43:51.797Z</time></trkpt><trkpt lat="45.78627521986755" lon="8.905108398252096"><ele>377.0</ele><time>2026-04-25T11:43:52.797Z</time></trkpt><trkpt lat="45.78624977154357" lon="8.90536011805408"><ele>377.0</ele><time>2026-04-25T11:43:53.797Z</time></trkpt><trkpt lat="45.78622326963267" lon="8.90562224620974"><ele>377.0</ele><time>2026-04-25T11:43:54.797Z</time></trkpt><trkpt lat="45.786195611219526" lon="8.90589354935048"><ele>377.0</ele><time>2026-04-25T11:43:55.797Z</time></trkpt><trkpt lat="45.786167995602845" lon="8.90616506521487"><ele>377.33333333333337</ele><time>2026-04-25T11:43:56.797Z</time></trkpt><trkpt lat="45.78613987694055" lon="8.906441607942671"><ele>377.6666666666667</ele><time>2026-04-25T11:43:57.797Z</time></trkpt><trkpt lat="45.78611147556216" lon="8.906721476321966"><ele>378.0</ele><time>2026-04-25T11:43:58.797Z</time></trkpt><trkpt lat="45.786083743309305" lon="8.906996526955256"><ele>378.0</ele><time>2026-04-25T11:43:59.797Z</time></trkpt><trkpt lat="45.78605635678983" lon="8.907267913526608"><ele>378.0</ele><time>2026-04-25T11:44:00.797Z</time></trkpt><trkpt lat="45.78602996895128" lon="8.90753392993243"><ele>378.0</ele><time>2026-04-25T11:44:01.797Z</time></trkpt><trkpt lat="45.7860050946227" lon="8.907786490181316"><ele>378.0</ele><time>2026-04-25T11:44:02.797Z</time></trkpt><trkpt lat="45.78598020966317" lon="8.908039617815078"><ele>378.0</ele><time>2026-04-25T11:44:03.797Z</time></trkpt><trkpt lat="45.785955784583784" lon="8.908288705233188"><ele>378.0</ele><time>2026-04-25T11:44:04.797Z</time></trkpt><trkpt lat="45.78593258437532" lon="8.908527011365146"><ele>379.0</ele><time>2026-04-25T11:44:05.797Z</time></trkpt><trkpt lat="45.78591039656041" lon="8.908758389781717"><ele>380.0</ele><time>2026-04-25T11:44:06.797Z</time></trkpt><trkpt lat="45.78589042578722" lon="8.908989527215919"><ele>381.0</ele><time>2026-04-25T11:44:07.797Z</time></trkpt><trkpt lat="45.78587101471781" lon="8.909223526155222"><ele>382.33333333333337</ele><time>2026-04-25T11:44:08.797Z</time></trkpt><trkpt lat="45.7858495432344" lon="8.909453645546616"><ele>383.6666666666667</ele><time>2026-04-25T11:44:09.797Z</time></trkpt><trkpt lat="45.78582657714718" lon="8.90968535623301"><ele>385.0</ele><time>2026-04-25T11:44:10.797Z</time></trkpt><trkpt lat="45.78580319748572" lon="8.90991220515185"><ele>385.5</ele><time>2026-04-25T11:44:11.797Z</time></trkpt><trkpt lat="45.78578139763787" lon="8.910137103720773"><ele>386.0</ele><time>2026-04-25T11:44:12.797Z</time></trkpt><trkpt lat="45.78576280564049" lon="8.91035151875327"><ele>386.5</ele><time>2026-04-25T11:44:13.797Z</time></trkpt><trkpt lat="45.78575278189026" lon="8.910548702335154"><ele>387.0</ele><time>2026-04-25T11:44:14.797Z</time></trkpt><trkpt lat="45.785745572597115" lon="8.910730865470335"><ele>387.0</ele><time>2026-04-25T11:44:15.797Z</time></trkpt><trkpt lat="45.78574394745745" lon="8.910904970856617"><ele>387.0</ele><time>2026-04-25T11:44:16.797Z</time></trkpt><trkpt lat="45.7857617061585" lon="8.911081716493007"><ele>387.0</ele><time>2026-04-25T11:44:17.797Z</time></trkpt><trkpt lat="45.78574464680691" lon="8.911238171361976"><ele>387.0</ele><time>2026-04-25T11:44:18.797Z</time></trkpt><trkpt lat="45.78571163574413" lon="8.911371553594778"><ele>387.0</ele><time>2026-04-25T11:44:19.797Z</time></trkpt><trkpt lat="45.78565723890224" lon="8.911489770013372"><ele>387.0</ele><time>2026-04-25T11:44:20.797Z</time></trkpt><trkpt lat="45.785580695847145" lon="8.91159708055803"><ele>387.0</ele><time>2026-04-25T11:44:21.797Z</time></trkpt><trkpt lat="45.78551577421935" lon="8.911718939945105"><ele>387.0</ele><time>2026-04-25T11:44:22.797Z</time></trkpt><trkpt lat="45.78549983978184" lon="8.911878920664876"><ele>387.0</ele><time>2026-04-25T11:44:23.797Z</time></trkpt><trkpt lat="45.78552924679997" lon="8.912071880616017"><ele>388.0</ele><time>2026-04-25T11:44:24.797Z</time></trkpt><trkpt lat="45.78558332950287" lon="8.912260101088659"><ele>389.0</ele><time>2026-04-25T11:44:25.797Z</time></trkpt><trkpt lat="45.78562371153989" lon="8.912448339801811"><ele>390.0</ele><time>2026-04-25T11:44:26.797Z</time></trkpt><trkpt lat="45.78564266861552" lon="8.912627529768876"><ele>391.0</ele><time>2026-04-25T11:44:27.797Z</time></trkpt><trkpt lat="45.78564863552789" lon="8.912812436253992"><ele>391.5</ele><time>2026-04-25T11:44:28.797Z</time></trkpt><trkpt lat="45.78564797758373" lon="8.912999940471344"><ele>392.0</ele><time>2026-04-25T11:44:29.797Z</time></trkpt><trkpt lat="45.78562948358533" lon="8.91320978313616"><ele>392.5</ele><time>2026-04-25T11:44:30.797Z</time></trkpt><trkpt lat="45.785629682032315" lon="8.913425830681938"><ele>393.0</ele><time>2026-04-25T11:44:31.797Z</time></trkpt><trkpt lat="45.78563007123277" lon="8.913664193246477"><ele>393.33333333333337</ele><time>2026-04-25T11:44:32.797Z</time></trkpt><trkpt lat="45.785630696582075" lon="8.913898901513212"><ele>393.6666666666667</ele><time>2026-04-25T11:44:33.797Z</time></trkpt><trkpt lat="45.78563158531917" lon="8.914143715834442"><ele>394.0</ele><time>2026-04-25T11:44:34.797Z</time></trkpt><trkpt lat="45.78563251635395" lon="8.914400181087549"><ele>398.0</ele><time>2026-04-25T11:44:35.797Z</time></trkpt><trkpt lat="45.78563295728553" lon="8.914682064226247"><ele>402.0</ele><time>2026-04-25T11:44:36.797Z</time></trkpt><trkpt lat="45.785632746430544" lon="8.914965199743342"><ele>406.0</ele><time>2026-04-25T11:44:37.797Z</time></trkpt><trkpt lat="45.78563255273518" lon="8.915225292824688"><ele>407.6666666666667</ele><time>2026-04-25T11:44:38.797Z</time></trkpt><trkpt lat="45.785632365564204" lon="8.915476623554827"><ele>409.33333333333337</ele><time>2026-04-25T11:44:39.797Z</time></trkpt><trkpt lat="45.785632195532486" lon="8.915704943911416"><ele>411.0</ele><time>2026-04-25T11:44:40.797Z</time></trkpt><trkpt lat="45.785633495076205" lon="8.915925539485483"><ele>412.66666666666663</ele><time>2026-04-25T11:44:41.797Z</time></trkpt><trkpt lat="45.78563644538216" lon="8.916135409656166"><ele>414.3333333333333</ele><time>2026-04-25T11:44:42.797Z</time></trkpt><trkpt lat="45.7856417967095" lon="8.916365390495436"><ele>416.0</ele><time>2026-04-25T11:44:43.797Z</time></trkpt><trkpt lat="45.78565615220802" lon="8.916636918811372"><ele>418.3333333333333</ele><time>2026-04-25T11:44:44.797Z</time></trkpt><trkpt lat="45.78568533961968" lon="8.916943714999318"><ele>420.66666666666663</ele><time>2026-04-25T11:44:45.797Z</time></trkpt><trkpt lat="45.785721717601646" lon="8.917269190203484"><ele>423.0</ele><time>2026-04-25T11:44:46.797Z</time></trkpt><trkpt lat="45.78575981557812" lon="8.917586459457382"><ele>423.0</ele><time>2026-04-25T11:44:47.797Z</time></trkpt><trkpt lat="45.785801654662684" lon="8.917934883058521"><ele>423.0</ele><time>2026-04-25T11:44:48.797Z</time></trkpt><trkpt lat="45.785842539190156" lon="8.9182748713735"><ele>424.0</ele><time>2026-04-25T11:44:49.797Z</time></trkpt><trkpt lat="45.785884388223934" lon="8.918621352195128"><ele>425.0</ele><time>2026-04-25T11:44:50.797Z</time></trkpt><trkpt lat="45.78592814025905" lon="8.91897758211509"><ele>424.0</ele><time>2026-04-25T11:44:51.797Z</time></trkpt><trkpt lat="45.7859709155846" lon="8.919324904621506"><ele>423.0</ele><time>2026-04-25T11:44:52.797Z</time></trkpt><trkpt lat="45.786011764759195" lon="8.919656809459408"><ele>423.0</ele><time>2026-04-25T11:44:53.797Z</time></trkpt><trkpt lat="45.786052489315935" lon="8.919987931246904"><ele>423.0</ele><time>2026-04-25T11:44:54.797Z</time></trkpt><trkpt lat="45.78609010528661" lon="8.92031073107397"><ele>423.5</ele><time>2026-04-25T11:44:55.797Z</time></trkpt><trkpt lat="45.78612805948675" lon="8.920635773010233"><ele>424.0</ele><time>2026-04-25T11:44:56.797Z</time></trkpt><trkpt lat="45.78616750262734" lon="8.920961209925316"><ele>427.0</ele><time>2026-04-25T11:44:57.798Z</time></trkpt><trkpt lat="45.78620480127609" lon="8.921279426794715"><ele>430.0</ele><time>2026-04-25T11:44:58.798Z</time></trkpt><trkpt lat="45.786243724739315" lon="8.921608542300211"><ele>431.5</ele><time>2026-04-25T11:44:59.798Z</time></trkpt><trkpt lat="45.78628418566492" lon="8.92194718899111"><ele>433.0</ele><time>2026-04-25T11:45:00.798Z</time></trkpt><trkpt lat="45.78632550599101" lon="8.922301713798179"><ele>434.0</ele><time>2026-04-25T11:45:01.795Z</time></trkpt><trkpt lat="45.78636837693376" lon="8.92265796198362"><ele>435.0</ele><time>2026-04-25T11:45:02.795Z</time></trkpt><trkpt lat="45.786411091282545" lon="8.923013315304042"><ele>435.0</ele><time>2026-04-25T11:45:03.796Z</time></trkpt><trkpt lat="45.786448782771316" lon="8.923331624702437"><ele>435.0</ele><time>2026-04-25T11:45:04.795Z</time></trkpt><trkpt lat="45.786484629692616" lon="8.923636721447133"><ele>435.0</ele><time>2026-04-25T11:45:05.795Z</time></trkpt><trkpt lat="45.78651767451741" lon="8.92391852616843"><ele>434.33333333333337</ele><time>2026-04-25T11:45:06.795Z</time></trkpt><trkpt lat="45.786551585145766" lon="8.924207713539067"><ele>433.6666666666667</ele><time>2026-04-25T11:45:07.795Z</time></trkpt><trkpt lat="45.78658513223854" lon="8.924493154948534"><ele>433.0</ele><time>2026-04-25T11:45:08.795Z</time></trkpt><trkpt lat="45.78662001090862" lon="8.924785407843888"><ele>432.6666666666667</ele><time>2026-04-25T11:45:09.795Z</time></trkpt><trkpt lat="45.78665441654796" lon="8.925073697461306"><ele>432.33333333333337</ele><time>2026-04-25T11:45:10.795Z</time></trkpt><trkpt lat="45.786687753141415" lon="8.92534739929657"><ele>432.0</ele><time>2026-04-25T11:45:11.795Z</time></trkpt><trkpt lat="45.78671834445728" lon="8.92561188790531"><ele>432.0</ele><time>2026-04-25T11:45:12.795Z</time></trkpt><trkpt lat="45.78674799282344" lon="8.925859722538751"><ele>432.0</ele><time>2026-04-25T11:45:13.795Z</time></trkpt><trkpt lat="45.78677644847133" lon="8.92609522164513"><ele>432.0</ele><time>2026-04-25T11:45:14.795Z</time></trkpt><trkpt lat="45.786802316503305" lon="8.926309656249398"><ele>432.0</ele><time>2026-04-25T11:45:15.795Z</time></trkpt><trkpt lat="45.78682637462492" lon="8.926509913415886"><ele>432.0</ele><time>2026-04-25T11:45:16.795Z</time></trkpt><trkpt lat="45.786850525503965" lon="8.926710942876557"><ele>432.0</ele><time>2026-04-25T11:45:17.795Z</time></trkpt><trkpt lat="45.78687405805166" lon="8.926906825526782"><ele>432.0</ele><time>2026-04-25T11:45:18.795Z</time></trkpt><trkpt lat="45.78689652383173" lon="8.927093825077762"><ele>432.25</ele><time>2026-04-25T11:45:19.795Z</time></trkpt><trkpt lat="45.78695913273821" lon="8.92726519639455"><ele>432.5</ele><time>2026-04-25T11:45:20.795Z</time></trkpt><trkpt lat="45.78697198637601" lon="8.927467057771981"><ele>432.75</ele><time>2026-04-25T11:45:21.795Z</time></trkpt><trkpt lat="45.78699085785315" lon="8.927688130169408"><ele>433.0</ele><time>2026-04-25T11:45:22.795Z</time></trkpt><trkpt lat="45.7870144623527" lon="8.927935241666805"><ele>433.33333333333337</ele><time>2026-04-25T11:45:23.795Z</time></trkpt><trkpt lat="45.78704273559007" lon="8.928215399027817"><ele>433.66666666666663</ele><time>2026-04-25T11:45:24.795Z</time></trkpt><trkpt lat="45.78706878097421" lon="8.928473169397135"><ele>434.0</ele><time>2026-04-25T11:45:25.795Z</time></trkpt><trkpt lat="45.78709249267498" lon="8.928712235379688"><ele>434.0</ele><time>2026-04-25T11:45:26.795Z</time></trkpt><trkpt lat="45.787118134214694" lon="8.928935350078843"><ele>434.0</ele><time>2026-04-25T11:45:27.795Z</time></trkpt><trkpt lat="45.787138688398" lon="8.929137377946764"><ele>434.0</ele><time>2026-04-25T11:45:28.795Z</time></trkpt><trkpt lat="45.787155604166614" lon="8.929314094925564"><ele>434.0</ele><time>2026-04-25T11:45:29.795Z</time></trkpt><trkpt lat="45.78717451057399" lon="8.929465558710891"><ele>433.99999999999994</ele><time>2026-04-25T11:45:30.795Z</time></trkpt><trkpt lat="45.78719297152871" lon="8.929603593429098"><ele>434.0</ele><time>2026-04-25T11:45:31.795Z</time></trkpt><trkpt lat="45.78722122160952" lon="8.929722296616234"><ele>434.0</ele><time>2026-04-25T11:45:32.795Z</time></trkpt><trkpt lat="45.787251371594294" lon="8.92983074693888"><ele>434.0</ele><time>2026-04-25T11:45:33.795Z</time></trkpt><trkpt lat="45.787280830297654" lon="8.929933496238998"><ele>433.99999999999994</ele><time>2026-04-25T11:45:34.795Z</time></trkpt><trkpt lat="45.787320772195464" lon="8.930064663549672"><ele>434.0</ele><time>2026-04-25T11:45:36.795Z</time></trkpt><trkpt lat="45.78733009971637" lon="8.930184875343906"><ele>434.16666666666663</ele><time>2026-04-25T11:45:39.795Z</time></trkpt><trkpt lat="45.78735195135808" lon="8.930289608204077"><ele>434.3333333333333</ele><time>2026-04-25T11:45:43.795Z</time></trkpt><trkpt lat="45.787371005976" lon="8.930400962274176"><ele>434.5</ele><time>2026-04-25T11:45:46.795Z</time></trkpt><trkpt lat="45.78736364965065" lon="8.930552216454142"><ele>434.66666666666663</ele><time>2026-04-25T11:45:48.795Z</time></trkpt><trkpt lat="45.78737101842114" lon="8.930655562530895"><ele>434.8333333333333</ele><time>2026-04-25T11:45:49.795Z</time></trkpt><trkpt lat="45.78737403287649" lon="8.930757536088512"><ele>435.0</ele><time>2026-04-25T11:45:50.795Z</time></trkpt><trkpt lat="45.78743285877245" lon="8.930838910307003"><ele>435.2</ele><time>2026-04-25T11:45:51.795Z</time></trkpt><trkpt lat="45.78752724786564" lon="8.930947208524962"><ele>435.4</ele><time>2026-04-25T11:45:53.795Z</time></trkpt><trkpt lat="45.787642922466574" lon="8.930996722337616"><ele>435.6</ele><time>2026-04-25T11:45:55.795Z</time></trkpt><trkpt lat="45.78775421212919" lon="8.93109503072179"><ele>435.8</ele><time>2026-04-25T11:45:57.796Z</time></trkpt><trkpt lat="45.78780619523976" lon="8.931167545445467"><ele>436.0</ele><time>2026-04-25T11:45:58.796Z</time></trkpt><trkpt lat="45.78785184185481" lon="8.93124854687785"><ele>436.6666666666667</ele><time>2026-04-25T11:45:59.796Z</time></trkpt><trkpt lat="45.78786859931915" lon="8.931352509054843"><ele>437.33333333333337</ele><time>2026-04-25T11:46:00.796Z</time></trkpt><trkpt lat="45.78790683976749" lon="8.931436892833991"><ele>438.0</ele><time>2026-04-25T11:46:01.796Z</time></trkpt><trkpt lat="45.78794746720988" lon="8.931525431644102"><ele>438.66666666666663</ele><time>2026-04-25T11:46:02.796Z</time></trkpt><trkpt lat="45.78800434077933" lon="8.931649376024154"><ele>439.3333333333333</ele><time>2026-04-25T11:46:03.796Z</time></trkpt><trkpt lat="45.788058889321405" lon="8.931769157925077"><ele>440.0</ele><time>2026-04-25T11:46:04.796Z</time></trkpt><trkpt lat="45.78810657787769" lon="8.931874190735128"><ele>440.4</ele><time>2026-04-25T11:46:05.796Z</time></trkpt><trkpt lat="45.788151619230774" lon="8.931971388495628"><ele>440.8</ele><time>2026-04-25T11:46:06.796Z</time></trkpt><trkpt lat="45.78819628378665" lon="8.932070184770765"><ele>441.20000000000005</ele><time>2026-04-25T11:46:07.796Z</time></trkpt><trkpt lat="45.78824806122717" lon="8.932184309163912"><ele>441.6</ele><time>2026-04-25T11:46:08.796Z</time></trkpt><trkpt lat="45.788308670589416" lon="8.932317595204768"><ele>442.0</ele><time>2026-04-25T11:46:09.796Z</time></trkpt><trkpt lat="45.78838221811222" lon="8.932479210797752"><ele>442.5</ele><time>2026-04-25T11:46:10.796Z</time></trkpt><trkpt lat="45.78846220954228" lon="8.932655077634044"><ele>443.0</ele><time>2026-04-25T11:46:11.796Z</time></trkpt><trkpt lat="45.78854683634162" lon="8.932840340182803"><ele>443.5</ele><time>2026-04-25T11:46:12.796Z</time></trkpt><trkpt lat="45.788615430980286" lon="8.932990140289071"><ele>444.0</ele><time>2026-04-25T11:46:13.796Z</time></trkpt><trkpt lat="45.78866055835094" lon="8.933091814509938"><ele>444.5</ele><time>2026-04-25T11:46:14.796Z</time></trkpt><trkpt lat="45.78870706144953" lon="8.933159286973696"><ele>445.0</ele><time>2026-04-25T11:46:15.796Z</time></trkpt><trkpt lat="45.78872369959626" lon="8.933256222697391"><ele>445.5</ele><time>2026-04-25T11:46:16.796Z</time></trkpt><trkpt lat="45.78876743740363" lon="8.93335652910196"><ele>446.0</ele><time>2026-04-25T11:46:17.796Z</time></trkpt><trkpt lat="45.788792381584166" lon="8.933491216375524"><ele>446.5</ele><time>2026-04-25T11:46:18.796Z</time></trkpt><trkpt lat="45.788805420483314" lon="8.93365736455199"><ele>447.0</ele><time>2026-04-25T11:46:19.796Z</time></trkpt><trkpt lat="45.7888324333951" lon="8.933818600408857"><ele>447.40000000000003</ele><time>2026-04-25T11:46:20.796Z</time></trkpt><trkpt lat="45.788860883813705" lon="8.933982601846882"><ele>447.80000000000007</ele><time>2026-04-25T11:46:21.796Z</time></trkpt><trkpt lat="45.78889062238201" lon="8.934141123052461"><ele>448.2</ele><time>2026-04-25T11:46:22.796Z</time></trkpt><trkpt lat="45.78891946754007" lon="8.934287885056712"><ele>448.6</ele><time>2026-04-25T11:46:23.796Z</time></trkpt><trkpt lat="45.78894749593525" lon="8.934426176202004"><ele>449.0</ele><time>2026-04-25T11:46:24.796Z</time></trkpt><trkpt lat="45.788975870570304" lon="8.93456510638417"><ele>449.0</ele><time>2026-04-25T11:46:25.796Z</time></trkpt><trkpt lat="45.78900445142977" lon="8.934699923399199"><ele>449.0</ele><time>2026-04-25T11:46:26.796Z</time></trkpt><trkpt lat="45.78903149058939" lon="8.934829141965452"><ele>449.0</ele><time>2026-04-25T11:46:27.796Z</time></trkpt><trkpt lat="45.78905924416493" lon="8.934961641064945"><ele>449.0</ele><time>2026-04-25T11:46:28.796Z</time></trkpt><trkpt lat="45.78908573948036" lon="8.9350876143603"><ele>449.0</ele><time>2026-04-25T11:46:29.796Z</time></trkpt><trkpt lat="45.78911219145802" lon="8.935210771040015"><ele>448.99999999999994</ele><time>2026-04-25T11:46:30.796Z</time></trkpt><trkpt lat="45.7891439475084" lon="8.935323429862287"><ele>449.0</ele><time>2026-04-25T11:46:31.796Z</time></trkpt><trkpt lat="45.789188035459794" lon="8.935431986496685"><ele>449.0</ele><time>2026-04-25T11:46:32.796Z</time></trkpt><trkpt lat="45.78924937683369" lon="8.93552599023503"><ele>449.0</ele><time>2026-04-25T11:46:33.796Z</time></trkpt><trkpt lat="45.78930128872674" lon="8.935597711224709"><ele>448.99999999999994</ele><time>2026-04-25T11:46:34.796Z</time></trkpt><trkpt lat="45.78936744035917" lon="8.935648454770334"><ele>449.0</ele><time>2026-04-25T11:46:35.796Z</time></trkpt><trkpt lat="45.78942991041825" lon="8.935711206415098"><ele>448.66666666666663</ele><time>2026-04-25T11:46:36.796Z</time></trkpt><trkpt lat="45.78948817446177" lon="8.935777164813382"><ele>448.3333333333333</ele><time>2026-04-25T11:46:37.796Z</time></trkpt><trkpt lat="45.789535243782765" lon="8.935861977389182"><ele>448.0</ele><time>2026-04-25T11:46:38.796Z</time></trkpt><trkpt lat="45.78957582129336" lon="8.935975317466117"><ele>447.66666666666663</ele><time>2026-04-25T11:46:39.796Z</time></trkpt><trkpt lat="45.78960258616215" lon="8.936104223596361"><ele>447.3333333333333</ele><time>2026-04-25T11:46:40.796Z</time></trkpt><trkpt lat="45.78961887821619" lon="8.93623738895909"><ele>447.0</ele><time>2026-04-25T11:46:41.796Z</time></trkpt><trkpt lat="45.78962025659703" lon="8.936372823699806"><ele>446.8333333333333</ele><time>2026-04-25T11:46:42.796Z</time></trkpt><trkpt lat="45.78960679116975" lon="8.936489440771856"><ele>446.66666666666663</ele><time>2026-04-25T11:46:43.796Z</time></trkpt><trkpt lat="45.789596470232574" lon="8.936588624411074"><ele>446.5</ele><time>2026-04-25T11:46:44.796Z</time></trkpt><trkpt lat="45.78958303340416" lon="8.93670025335107"><ele>446.3333333333333</ele><time>2026-04-25T11:46:45.796Z</time></trkpt><trkpt lat="45.78957025540244" lon="8.936798880019486"><ele>446.16666666666663</ele><time>2026-04-25T11:46:46.796Z</time></trkpt><trkpt lat="45.78954771739633" lon="8.936965352458644"><ele>446.0</ele><time>2026-04-25T11:46:48.796Z</time></trkpt><trkpt lat="45.78952444819844" lon="8.937129088489948"><ele>444.8</ele><time>2026-04-25T11:46:50.796Z</time></trkpt><trkpt lat="45.78951021454652" lon="8.937227615578534"><ele>443.6</ele><time>2026-04-25T11:46:51.796Z</time></trkpt><trkpt lat="45.78949359160129" lon="8.937342681823456"><ele>442.4</ele><time>2026-04-25T11:46:52.796Z</time></trkpt><trkpt lat="45.78952220053255" lon="8.937472643534118"><ele>441.2</ele><time>2026-04-25T11:46:53.796Z</time></trkpt><trkpt lat="45.7895019760534" lon="8.937609059411754"><ele>440.0</ele><time>2026-04-25T11:46:54.796Z</time></trkpt><trkpt lat="45.78947917566158" lon="8.937759934256889"><ele>439.8</ele><time>2026-04-25T11:46:55.796Z</time></trkpt><trkpt lat="45.78946135991736" lon="8.937917513752764"><ele>439.6</ele><time>2026-04-25T11:46:56.796Z</time></trkpt><trkpt lat="45.789429256919604" lon="8.938073826201185"><ele>439.4</ele><time>2026-04-25T11:46:57.796Z</time></trkpt><trkpt lat="45.78940635924139" lon="8.938223168323018"><ele>439.2</ele><time>2026-04-25T11:46:58.796Z</time></trkpt><trkpt lat="45.78934495800395" lon="8.938366895971166"><ele>439.0</ele><time>2026-04-25T11:46:59.796Z</time></trkpt><trkpt lat="45.78932172144078" lon="8.9385269216208"><ele>439.0</ele><time>2026-04-25T11:47:00.796Z</time></trkpt><trkpt lat="45.78929777982042" lon="8.93869551400489"><ele>439.0</ele><time>2026-04-25T11:47:01.796Z</time></trkpt><trkpt lat="45.78927211450922" lon="8.93887732837803"><ele>439.0</ele><time>2026-04-25T11:47:02.796Z</time></trkpt><trkpt lat="45.78924359008667" lon="8.939079396821228"><ele>439.0</ele><time>2026-04-25T11:47:03.796Z</time></trkpt><trkpt lat="45.789212069818994" lon="8.939302687983577"><ele>437.33333333333337</ele><time>2026-04-25T11:47:04.796Z</time></trkpt><trkpt lat="45.789177970287376" lon="8.939535971378767"><ele>435.66666666666663</ele><time>2026-04-25T11:47:05.796Z</time></trkpt><trkpt lat="45.78914127676011" lon="8.939792273842276"><ele>434.0</ele><time>2026-04-25T11:47:06.796Z</time></trkpt><trkpt lat="45.789101831223704" lon="8.94006724586069"><ele>433.0</ele><time>2026-04-25T11:47:07.794Z</time></trkpt><trkpt lat="45.78905634381771" lon="8.940382483931103"><ele>432.0</ele><time>2026-04-25T11:47:08.794Z</time></trkpt><trkpt lat="45.78906281558931" lon="8.94071056946372"><ele>431.33333333333337</ele><time>2026-04-25T11:47:09.794Z</time></trkpt><trkpt lat="45.789021875008125" lon="8.94099898422961"><ele>430.6666666666667</ele><time>2026-04-25T11:47:10.794Z</time></trkpt><trkpt lat="45.78898578270938" lon="8.941274088703253"><ele>430.0</ele><time>2026-04-25T11:47:11.794Z</time></trkpt><trkpt lat="45.7889430240929" lon="8.941533139699446"><ele>429.0</ele><time>2026-04-25T11:47:12.794Z</time></trkpt><trkpt lat="45.78890084694152" lon="8.941796542685314"><ele>428.0</ele><time>2026-04-25T11:47:13.794Z</time></trkpt><trkpt lat="45.78881589733789" lon="8.942054165198998"><ele>427.0</ele><time>2026-04-25T11:47:14.794Z</time></trkpt><trkpt lat="45.78877907130286" lon="8.94231080303954"><ele>426.33333333333337</ele><time>2026-04-25T11:47:15.794Z</time></trkpt><trkpt lat="45.78874231032128" lon="8.942562200955907"><ele>425.66666666666663</ele><time>2026-04-25T11:47:16.794Z</time></trkpt><trkpt lat="45.78870693676906" lon="8.942806230259956"><ele>425.0</ele><time>2026-04-25T11:47:17.794Z</time></trkpt><trkpt lat="45.788672404610296" lon="8.943044625291984"><ele>425.0</ele><time>2026-04-25T11:47:18.794Z</time></trkpt><trkpt lat="45.7886378872396" lon="8.94328137902207"><ele>425.0</ele><time>2026-04-25T11:47:19.794Z</time></trkpt><trkpt lat="45.788603210899076" lon="8.943519056306789"><ele>425.0</ele><time>2026-04-25T11:47:20.793Z</time></trkpt><trkpt lat="45.78856954054359" lon="8.943748394633449"><ele>424.66666666666663</ele><time>2026-04-25T11:47:21.793Z</time></trkpt><trkpt lat="45.78853707202964" lon="8.9439706238616"><ele>424.33333333333337</ele><time>2026-04-25T11:47:22.793Z</time></trkpt><trkpt lat="45.788503080739645" lon="8.944204155627236"><ele>424.0</ele><time>2026-04-25T11:47:23.793Z</time></trkpt><trkpt lat="45.788467759712276" lon="8.944448497861668"><ele>424.6666666666667</ele><time>2026-04-25T11:47:24.794Z</time></trkpt><trkpt lat="45.78843204208315" lon="8.944696204740582"><ele>425.33333333333337</ele><time>2026-04-25T11:47:25.794Z</time></trkpt><trkpt lat="45.78839786630066" lon="8.944933218681589"><ele>426.0</ele><time>2026-04-25T11:47:26.794Z</time></trkpt><trkpt lat="45.7883652759221" lon="8.94516010156652"><ele>426.0</ele><time>2026-04-25T11:47:27.794Z</time></trkpt><trkpt lat="45.78833406957087" lon="8.945378417871519"><ele>426.0</ele><time>2026-04-25T11:47:28.794Z</time></trkpt><trkpt lat="45.78830237553798" lon="8.945590911428235"><ele>426.0</ele><time>2026-04-25T11:47:29.794Z</time></trkpt><trkpt lat="45.78827293917477" lon="8.945789853779123"><ele>426.0</ele><time>2026-04-25T11:47:30.794Z</time></trkpt><trkpt lat="45.7882473801291" lon="8.945961365232051"><ele>425.8333333333333</ele><time>2026-04-25T11:47:31.794Z</time></trkpt><trkpt lat="45.788226642451264" lon="8.946099630126952"><ele>425.66666666666663</ele><time>2026-04-25T11:47:32.794Z</time></trkpt><trkpt lat="45.78820976019846" lon="8.946212128739536"><ele>425.5</ele><time>2026-04-25T11:47:33.794Z</time></trkpt><trkpt lat="45.78819380832775" lon="8.946318252509599"><ele>425.3333333333333</ele><time>2026-04-25T11:47:34.794Z</time></trkpt><trkpt lat="45.78817832248487" lon="8.946421275830152"><ele>425.16666666666663</ele><time>2026-04-25T11:47:35.794Z</time></trkpt><trkpt lat="45.78816200912132" lon="8.946530558079118"><ele>425.0</ele><time>2026-04-25T11:47:36.794Z</time></trkpt><trkpt lat="45.788142648784785" lon="8.946660429029977"><ele>424.75</ele><time>2026-04-25T11:47:37.794Z</time></trkpt><trkpt lat="45.78811694439695" lon="8.946827452007776"><ele>424.5</ele><time>2026-04-25T11:47:38.794Z</time></trkpt><trkpt lat="45.7880901465921" lon="8.947008787394196"><ele>424.25</ele><time>2026-04-25T11:47:39.794Z</time></trkpt><trkpt lat="45.78807561770174" lon="8.94718121110909"><ele>424.0</ele><time>2026-04-25T11:47:40.794Z</time></trkpt><trkpt lat="45.788082692088395" lon="8.947353888174046"><ele>424.0</ele><time>2026-04-25T11:47:41.794Z</time></trkpt><trkpt lat="45.788101785385805" lon="8.947518394507952"><ele>424.0</ele><time>2026-04-25T11:47:42.794Z</time></trkpt><trkpt lat="45.78812464931168" lon="8.947678454824297"><ele>424.0</ele><time>2026-04-25T11:47:43.794Z</time></trkpt><trkpt lat="45.788148049122206" lon="8.947841533919512"><ele>424.0</ele><time>2026-04-25T11:47:44.794Z</time></trkpt><trkpt lat="45.788170822524854" lon="8.948000135632107"><ele>422.75</ele><time>2026-04-25T11:47:45.794Z</time></trkpt><trkpt lat="45.788194287615674" lon="8.948163554404065"><ele>421.5</ele><time>2026-04-25T11:47:46.794Z</time></trkpt><trkpt lat="45.78821977875653" lon="8.94834592352669"><ele>420.25</ele><time>2026-04-25T11:47:47.794Z</time></trkpt><trkpt lat="45.7882468292121" lon="8.948539636349777"><ele>419.0</ele><time>2026-04-25T11:47:48.794Z</time></trkpt><trkpt lat="45.78826892270411" lon="8.948737105335995"><ele>418.25</ele><time>2026-04-25T11:47:49.794Z</time></trkpt><trkpt lat="45.78829057807316" lon="8.948930291410113"><ele>417.5</ele><time>2026-04-25T11:47:50.794Z</time></trkpt><trkpt lat="45.788312441293776" lon="8.949123590519216"><ele>416.75</ele><time>2026-04-25T11:47:51.794Z</time></trkpt><trkpt lat="45.78833722616214" lon="8.949312495015754"><ele>416.0</ele><time>2026-04-25T11:47:52.794Z</time></trkpt><trkpt lat="45.788363292026204" lon="8.949511163203107"><ele>416.0</ele><time>2026-04-25T11:47:53.794Z</time></trkpt><trkpt lat="45.788387363528734" lon="8.949698013886785"><ele>416.0</ele><time>2026-04-25T11:47:54.794Z</time></trkpt><trkpt lat="45.78840819238905" lon="8.949859965896943"><ele>416.0</ele><time>2026-04-25T11:47:55.794Z</time></trkpt><trkpt lat="45.78842685397301" lon="8.950010029326629"><ele>416.0</ele><time>2026-04-25T11:47:56.794Z</time></trkpt><trkpt lat="45.788444686299584" lon="8.950162624584488"><ele>415.66666666666663</ele><time>2026-04-25T11:47:57.794Z</time></trkpt><trkpt lat="45.78846215764767" lon="8.95031213081968"><ele>415.3333333333333</ele><time>2026-04-25T11:47:58.794Z</time></trkpt><trkpt lat="45.78847651602373" lon="8.950442044811886"><ele>415.0</ele><time>2026-04-25T11:47:59.794Z</time></trkpt><trkpt lat="45.78848707211276" lon="8.950559100113164"><ele>414.66666666666663</ele><time>2026-04-25T11:48:00.794Z</time></trkpt><trkpt lat="45.788496029975974" lon="8.950655277073013"><ele>414.3333333333333</ele><time>2026-04-25T11:48:01.794Z</time></trkpt><trkpt lat="45.78849650336774" lon="8.950746733258876"><ele>414.0</ele><time>2026-04-25T11:48:02.794Z</time></trkpt><trkpt lat="45.78849415882561" lon="8.950837650785555"><ele>413.79999999999995</ele><time>2026-04-25T11:48:03.794Z</time></trkpt><trkpt lat="45.78843674477345" lon="8.950951934617418"><ele>413.59999999999997</ele><time>2026-04-25T11:48:05.794Z</time></trkpt><trkpt lat="45.78843896200986" lon="8.951052003506693"><ele>413.4</ele><time>2026-04-25T11:48:06.794Z</time></trkpt><trkpt lat="45.788361343932536" lon="8.95113368976558"><ele>413.2</ele><time>2026-04-25T11:48:08.794Z</time></trkpt><trkpt lat="45.788338112518666" lon="8.95126554077654"><ele>413.0</ele><time>2026-04-25T11:48:10.794Z</time></trkpt><trkpt lat="45.78834610443129" lon="8.951436103231865"><ele>412.99999999999994</ele><time>2026-04-25T11:48:12.794Z</time></trkpt><trkpt lat="45.78834619418375" lon="8.951527703670472"><ele>413.0</ele><time>2026-04-25T11:48:13.794Z</time></trkpt><trkpt lat="45.7883283197955" lon="8.951628870615368"><ele>413.0</ele><time>2026-04-25T11:48:14.794Z</time></trkpt><trkpt lat="45.788298924021504" lon="8.951729678191429"><ele>413.0</ele><time>2026-04-25T11:48:15.794Z</time></trkpt><trkpt lat="45.78825824572171" lon="8.951851582529459"><ele>412.99999999999994</ele><time>2026-04-25T11:48:16.794Z</time></trkpt><trkpt lat="45.78821095278322" lon="8.951987697800046"><ele>413.0</ele><time>2026-04-25T11:48:17.794Z</time></trkpt><trkpt lat="45.78815922640452" lon="8.95213938247005"><ele>413.25</ele><time>2026-04-25T11:48:18.794Z</time></trkpt><trkpt lat="45.788109091034535" lon="8.952288596451623"><ele>413.5</ele><time>2026-04-25T11:48:19.794Z</time></trkpt><trkpt lat="45.78805726603519" lon="8.952440600242507"><ele>413.75</ele><time>2026-04-25T11:48:20.794Z</time></trkpt><trkpt lat="45.7879973108022" lon="8.952616532089115"><ele>414.0</ele><time>2026-04-25T11:48:21.794Z</time></trkpt><trkpt lat="45.7879266125074" lon="8.952825522501684"><ele>412.66666666666663</ele><time>2026-04-25T11:48:22.794Z</time></trkpt><trkpt lat="45.78787460919959" lon="8.953066494348663"><ele>411.3333333333333</ele><time>2026-04-25T11:48:23.794Z</time></trkpt><trkpt lat="45.78780113142166" lon="8.953266701333005"><ele>410.0</ele><time>2026-04-25T11:48:24.794Z</time></trkpt><trkpt lat="45.787733883887306" lon="8.953460553590446"><ele>408.5</ele><time>2026-04-25T11:48:25.794Z</time></trkpt><trkpt lat="45.787668448838986" lon="8.953636516254766"><ele>407.0</ele><time>2026-04-25T11:48:26.794Z</time></trkpt><trkpt lat="45.78761498421121" lon="8.953782898479412"><ele>405.5</ele><time>2026-04-25T11:48:27.794Z</time></trkpt><trkpt lat="45.787569605337445" lon="8.953921753392054"><ele>404.0</ele><time>2026-04-25T11:48:28.794Z</time></trkpt><trkpt lat="45.787522708880246" lon="8.95405500776392"><ele>404.0</ele><time>2026-04-25T11:48:29.794Z</time></trkpt><trkpt lat="45.78747259318587" lon="8.95419394080566"><ele>404.0</ele><time>2026-04-25T11:48:30.794Z</time></trkpt><trkpt lat="45.78742480447787" lon="8.9543405979614"><ele>404.0</ele><time>2026-04-25T11:48:31.794Z</time></trkpt><trkpt lat="45.78737613926726" lon="8.954466057008954"><ele>404.0</ele><time>2026-04-25T11:48:32.794Z</time></trkpt><trkpt lat="45.787329176358085" lon="8.954593840817035"><ele>404.0</ele><time>2026-04-25T11:48:33.794Z</time></trkpt><trkpt lat="45.787285003919756" lon="8.9547113166736"><ele>404.4</ele><time>2026-04-25T11:48:34.794Z</time></trkpt><trkpt lat="45.787243029958105" lon="8.954829988063397"><ele>404.79999999999995</ele><time>2026-04-25T11:48:35.794Z</time></trkpt><trkpt lat="45.787199607358815" lon="8.954960758063944"><ele>405.20000000000005</ele><time>2026-04-25T11:48:36.794Z</time></trkpt><trkpt lat="45.78716008160543" lon="8.95507827973874"><ele>405.6</ele><time>2026-04-25T11:48:37.794Z</time></trkpt><trkpt lat="45.78711841553093" lon="8.955194056018048"><ele>406.0</ele><time>2026-04-25T11:48:38.794Z</time></trkpt><trkpt lat="45.7870774326655" lon="8.95531632031172"><ele>406.0</ele><time>2026-04-25T11:48:39.794Z</time></trkpt><trkpt lat="45.78703400079705" lon="8.955438590709443"><ele>406.0</ele><time>2026-04-25T11:48:40.794Z</time></trkpt><trkpt lat="45.78699019302562" lon="8.955565354605783"><ele>406.0</ele><time>2026-04-25T11:48:41.795Z</time></trkpt><trkpt lat="45.786946685299355" lon="8.95569530571469"><ele>406.0</ele><time>2026-04-25T11:48:42.795Z</time></trkpt><trkpt lat="45.78690463361361" lon="8.955812194464764"><ele>406.0</ele><time>2026-04-25T11:48:43.795Z</time></trkpt><trkpt lat="45.786866002353875" lon="8.955924266211278"><ele>405.0</ele><time>2026-04-25T11:48:44.795Z</time></trkpt><trkpt lat="45.78682520100535" lon="8.956033950664775"><ele>404.0</ele><time>2026-04-25T11:48:45.795Z</time></trkpt><trkpt lat="45.7867832544786" lon="8.956146161552262"><ele>403.0</ele><time>2026-04-25T11:48:46.795Z</time></trkpt><trkpt lat="45.78672731393078" lon="8.95627133360731"><ele>402.0</ele><time>2026-04-25T11:48:47.795Z</time></trkpt><trkpt lat="45.78665341308052" lon="8.956390580496027"><ele>401.0</ele><time>2026-04-25T11:48:48.795Z</time></trkpt><trkpt lat="45.786579671710676" lon="8.956488353114654"><ele>401.0</ele><time>2026-04-25T11:48:49.795Z</time></trkpt><trkpt lat="45.78652192592086" lon="8.956606292256774"><ele>401.0</ele><time>2026-04-25T11:48:50.795Z</time></trkpt><trkpt lat="45.78649400229664" lon="8.956760421645187"><ele>401.0</ele><time>2026-04-25T11:48:51.795Z</time></trkpt><trkpt lat="45.78649451280523" lon="8.956932816180629"><ele>401.0</ele><time>2026-04-25T11:48:52.795Z</time></trkpt><trkpt lat="45.78647017233334" lon="8.957114012689804"><ele>401.3333333333333</ele><time>2026-04-25T11:48:53.795Z</time></trkpt><trkpt lat="45.78639921869426" lon="8.957294609379716"><ele>401.66666666666663</ele><time>2026-04-25T11:48:54.795Z</time></trkpt><trkpt lat="45.78631837990925" lon="8.957477467365706"><ele>402.0</ele><time>2026-04-25T11:48:55.795Z</time></trkpt><trkpt lat="45.7862584622062" lon="8.957691318005859"><ele>402.33333333333337</ele><time>2026-04-25T11:48:56.795Z</time></trkpt><trkpt lat="45.78619455439659" lon="8.957910879671354"><ele>402.6666666666667</ele><time>2026-04-25T11:48:57.795Z</time></trkpt><trkpt lat="45.7861182058743" lon="8.95811350345221"><ele>403.0</ele><time>2026-04-25T11:48:58.795Z</time></trkpt><trkpt lat="45.78604710051839" lon="8.958302513608881"><ele>402.5</ele><time>2026-04-25T11:48:59.795Z</time></trkpt><trkpt lat="45.785984757815235" lon="8.958475311867868"><ele>402.0</ele><time>2026-04-25T11:49:00.795Z</time></trkpt><trkpt lat="45.78592994921021" lon="8.95863658758598"><ele>401.5</ele><time>2026-04-25T11:49:01.795Z</time></trkpt><trkpt lat="45.785882627075935" lon="8.958765690804809"><ele>401.0</ele><time>2026-04-25T11:49:02.795Z</time></trkpt><trkpt lat="45.78584524880738" lon="8.958902788876722"><ele>401.0</ele><time>2026-04-25T11:49:03.795Z</time></trkpt><trkpt lat="45.785799543252594" lon="8.959067349362762"><ele>401.0</ele><time>2026-04-25T11:49:04.795Z</time></trkpt><trkpt lat="45.7857421923862" lon="8.959231864293441"><ele>401.0</ele><time>2026-04-25T11:49:05.795Z</time></trkpt><trkpt lat="45.78567623575838" lon="8.95942020014833"><ele>401.0</ele><time>2026-04-25T11:49:06.795Z</time></trkpt><trkpt lat="45.78560546143113" lon="8.959626382665192"><ele>401.3333333333333</ele><time>2026-04-25T11:49:07.795Z</time></trkpt><trkpt lat="45.785530639992274" lon="8.959841003744687"><ele>401.66666666666663</ele><time>2026-04-25T11:49:08.795Z</time></trkpt><trkpt lat="45.7854517826534" lon="8.960051322621073"><ele>402.0</ele><time>2026-04-25T11:49:09.795Z</time></trkpt><trkpt lat="45.78537935075505" lon="8.960262334842419"><ele>402.66666666666663</ele><time>2026-04-25T11:49:10.795Z</time></trkpt><trkpt lat="45.78530829416004" lon="8.960469333381871"><ele>403.3333333333333</ele><time>2026-04-25T11:49:11.795Z</time></trkpt><trkpt lat="45.785230013352376" lon="8.960696960394914"><ele>404.0</ele><time>2026-04-25T11:49:12.795Z</time></trkpt><trkpt lat="45.785146434604755" lon="8.960940130479946"><ele>404.0</ele><time>2026-04-25T11:49:13.793Z</time></trkpt><trkpt lat="45.78507097102664" lon="8.961211210958668"><ele>404.0</ele><time>2026-04-25T11:49:14.793Z</time></trkpt><trkpt lat="45.784985225018694" lon="8.96146470744023"><ele>404.0</ele><time>2026-04-25T11:49:15.793Z</time></trkpt><trkpt lat="45.78489335223163" lon="8.961677906071628"><ele>404.0</ele><time>2026-04-25T11:49:16.793Z</time></trkpt><trkpt lat="45.78482319841014" lon="8.961881154346003"><ele>404.0</ele><time>2026-04-25T11:49:17.793Z</time></trkpt><trkpt lat="45.78475841710755" lon="8.962068210108203"><ele>404.0</ele><time>2026-04-25T11:49:18.793Z</time></trkpt><trkpt lat="45.78469738921243" lon="8.962244709377588"><ele>404.0</ele><time>2026-04-25T11:49:19.793Z</time></trkpt><trkpt lat="45.784637618139335" lon="8.962427353738018"><ele>404.0</ele><time>2026-04-25T11:49:20.793Z</time></trkpt><trkpt lat="45.784580114224305" lon="8.962602282450508"><ele>404.0</ele><time>2026-04-25T11:49:21.793Z</time></trkpt><trkpt lat="45.7845280426721" lon="8.96277164535914"><ele>404.0</ele><time>2026-04-25T11:49:22.793Z</time></trkpt><trkpt lat="45.784484431824126" lon="8.96293350149672"><ele>404.0</ele><time>2026-04-25T11:49:23.793Z</time></trkpt><trkpt lat="45.7844341871712" lon="8.963123701241098"><ele>404.0</ele><time>2026-04-25T11:49:24.793Z</time></trkpt><trkpt lat="45.78438787289498" lon="8.963329978932368"><ele>404.0</ele><time>2026-04-25T11:49:25.793Z</time></trkpt><trkpt lat="45.7843485243643" lon="8.963526615633251"><ele>404.0</ele><time>2026-04-25T11:49:26.793Z</time></trkpt><trkpt lat="45.78431275872337" lon="8.963715502108265"><ele>404.0</ele><time>2026-04-25T11:49:27.793Z</time></trkpt><trkpt lat="45.78427850220536" lon="8.963898941617542"><ele>404.0</ele><time>2026-04-25T11:49:28.793Z</time></trkpt><trkpt lat="45.784244400105734" lon="8.96408167882898"><ele>404.0</ele><time>2026-04-25T11:49:29.793Z</time></trkpt><trkpt lat="45.78422805821248" lon="8.964259637200675"><ele>404.0</ele><time>2026-04-25T11:49:30.793Z</time></trkpt><trkpt lat="45.78419468822847" lon="8.964425190099883"><ele>404.0</ele><time>2026-04-25T11:49:31.793Z</time></trkpt><trkpt lat="45.78416553483201" lon="8.96458213914423"><ele>404.4</ele><time>2026-04-25T11:49:32.793Z</time></trkpt><trkpt lat="45.78413743563068" lon="8.964736024393481"><ele>404.79999999999995</ele><time>2026-04-25T11:49:33.793Z</time></trkpt><trkpt lat="45.78410656137137" lon="8.964888460324197"><ele>405.20000000000005</ele><time>2026-04-25T11:49:34.793Z</time></trkpt><trkpt lat="45.78407746114789" lon="8.965032675343686"><ele>405.6</ele><time>2026-04-25T11:49:35.793Z</time></trkpt><trkpt lat="45.784055879325585" lon="8.965169313589762"><ele>406.0</ele><time>2026-04-25T11:49:36.793Z</time></trkpt><trkpt lat="45.784031228814555" lon="8.965300555346001"><ele>406.0</ele><time>2026-04-25T11:49:37.793Z</time></trkpt><trkpt lat="45.78400656751357" lon="8.965432361577948"><ele>406.0</ele><time>2026-04-25T11:49:38.793Z</time></trkpt><trkpt lat="45.78398309150363" lon="8.965561823337243"><ele>406.0</ele><time>2026-04-25T11:49:39.793Z</time></trkpt><trkpt lat="45.78396000506872" lon="8.965690169592355"><ele>406.0</ele><time>2026-04-25T11:49:40.793Z</time></trkpt><trkpt lat="45.78393545797867" lon="8.965811025403081"><ele>406.0</ele><time>2026-04-25T11:49:41.793Z</time></trkpt><trkpt lat="45.78391421465576" lon="8.965931439983422"><ele>405.83333333333337</ele><time>2026-04-25T11:49:42.793Z</time></trkpt><trkpt lat="45.78389412749912" lon="8.966043489482441"><ele>405.6666666666667</ele><time>2026-04-25T11:49:43.793Z</time></trkpt><trkpt lat="45.783859405442975" lon="8.966143372776587"><ele>405.5</ele><time>2026-04-25T11:49:44.793Z</time></trkpt><trkpt lat="45.783833246586894" lon="8.966283652572356"><ele>405.33333333333337</ele><time>2026-04-25T11:49:46.793Z</time></trkpt><trkpt lat="45.78381453805387" lon="8.966383980476344"><ele>405.1666666666667</ele><time>2026-04-25T11:49:48.793Z</time></trkpt><trkpt lat="45.78377746276196" lon="8.966488448314017"><ele>405.0</ele><time>2026-04-25T11:50:21.816Z</time></trkpt><trkpt lat="45.78375670578072" lon="8.96657698842593"><ele>405.0</ele><time>2026-04-25T11:50:22.816Z</time></trkpt><trkpt lat="45.78373747658418" lon="8.966668812083938"><ele>405.0</ele><time>2026-04-25T11:50:23.816Z</time></trkpt><trkpt lat="45.78371908639705" lon="8.966765941599478"><ele>405.0</ele><time>2026-04-25T11:50:24.816Z</time></trkpt><trkpt lat="45.78370012689398" lon="8.96689438972467"><ele>405.0</ele><time>2026-04-25T11:50:25.817Z</time></trkpt><trkpt lat="45.7836736229595" lon="8.967026265368242"><ele>405.0</ele><time>2026-04-25T11:50:26.817Z</time></trkpt><trkpt lat="45.78364934796234" lon="8.967168358018833"><ele>405.0</ele><time>2026-04-25T11:50:27.817Z</time></trkpt><trkpt lat="45.78362686626291" lon="8.967314970851161"><ele>405.2</ele><time>2026-04-25T11:50:28.817Z</time></trkpt><trkpt lat="45.78360569566922" lon="8.967457081555091"><ele>405.4</ele><time>2026-04-25T11:50:29.817Z</time></trkpt><trkpt lat="45.78357799453413" lon="8.967602960723713"><ele>405.6</ele><time>2026-04-25T11:50:30.817Z</time></trkpt><trkpt lat="45.78356044509344" lon="8.967744398552101"><ele>405.8</ele><time>2026-04-25T11:50:31.818Z</time></trkpt><trkpt lat="45.78354928482433" lon="8.967871741455951"><ele>406.0</ele><time>2026-04-25T11:50:32.818Z</time></trkpt><trkpt lat="45.783487275020576" lon="8.967969101101673"><ele>406.4</ele><time>2026-04-25T11:50:33.818Z</time></trkpt><trkpt lat="45.78346841847604" lon="8.96806205974903"><ele>406.8</ele><time>2026-04-25T11:50:34.818Z</time></trkpt><trkpt lat="45.783455424540804" lon="8.96816838607301"><ele>407.2</ele><time>2026-04-25T11:50:35.818Z</time></trkpt><trkpt lat="45.783408482317896" lon="8.96832341629451"><ele>407.59999999999997</ele><time>2026-04-25T11:50:37.818Z</time></trkpt><trkpt lat="45.78339598618395" lon="8.968516234350686"><ele>408.0</ele><time>2026-04-25T11:50:39.819Z</time></trkpt><trkpt lat="45.78338897422625" lon="8.968614300045383"><ele>408.0</ele><time>2026-04-25T11:50:40.819Z</time></trkpt><trkpt lat="45.78337842399364" lon="8.96870845556394"><ele>408.0</ele><time>2026-04-25T11:50:41.819Z</time></trkpt><trkpt lat="45.783362816049326" lon="8.968801801330974"><ele>408.0</ele><time>2026-04-25T11:50:42.819Z</time></trkpt><trkpt lat="45.78334935765462" lon="8.968920886994745"><ele>408.0</ele><time>2026-04-25T11:50:43.819Z</time></trkpt><trkpt lat="45.78334212648515" lon="8.969048534951444"><ele>408.0</ele><time>2026-04-25T11:50:44.819Z</time></trkpt><trkpt lat="45.78332292332747" lon="8.969170840695504"><ele>408.0</ele><time>2026-04-25T11:50:45.819Z</time></trkpt><trkpt lat="45.78331981695493" lon="8.969281007612883"><ele>408.0</ele><time>2026-04-25T11:50:46.819Z</time></trkpt><trkpt lat="45.78331782170359" lon="8.969385839187566"><ele>408.0</ele><time>2026-04-25T11:50:47.819Z</time></trkpt><trkpt lat="45.783283791715014" lon="8.969489028916353"><ele>408.0</ele><time>2026-04-25T11:50:48.819Z</time></trkpt><trkpt lat="45.78327396500716" lon="8.96970854737319"><ele>408.0</ele><time>2026-04-25T11:50:50.82Z</time></trkpt><trkpt lat="45.78327642285302" lon="8.969835488825758"><ele>408.0</ele><time>2026-04-25T11:50:51.82Z</time></trkpt><trkpt lat="45.78327096777341" lon="8.969938365131181"><ele>407.42857142857144</ele><time>2026-04-25T11:50:52.82Z</time></trkpt><trkpt lat="45.78326930765014" lon="8.970038303091727"><ele>406.8571428571429</ele><time>2026-04-25T11:50:53.82Z</time></trkpt><trkpt lat="45.78326390793993" lon="8.970135958630644"><ele>406.2857142857143</ele><time>2026-04-25T11:50:54.82Z</time></trkpt><trkpt lat="45.78325455433887" lon="8.970234278852491"><ele>405.7142857142857</ele><time>2026-04-25T11:50:55.82Z</time></trkpt><trkpt lat="45.78324976771213" lon="8.970338088679659"><ele>405.1428571428571</ele><time>2026-04-25T11:50:56.82Z</time></trkpt><trkpt lat="45.783252867953045" lon="8.970441007293983"><ele>404.57142857142856</ele><time>2026-04-25T11:50:57.82Z</time></trkpt><trkpt lat="45.783251532956896" lon="8.970532489759636"><ele>404.0</ele><time>2026-04-25T11:50:58.82Z</time></trkpt><trkpt lat="45.783217214579246" lon="8.970692146473397"><ele>403.99999999999994</ele><time>2026-04-25T11:51:00.82Z</time></trkpt><trkpt lat="45.78321055648324" lon="8.970843768878204"><ele>404.0</ele><time>2026-04-25T11:51:02.82Z</time></trkpt><trkpt lat="45.78320185714562" lon="8.970956866176383"><ele>404.0</ele><time>2026-04-25T11:51:04.82Z</time></trkpt><trkpt lat="45.78316851469907" lon="8.97103860073263"><ele>404.0</ele><time>2026-04-25T11:51:07.82Z</time></trkpt><trkpt lat="45.78317184509659" lon="8.971137601048222"><ele>403.99999999999994</ele><time>2026-04-25T11:51:08.82Z</time></trkpt><trkpt lat="45.78317234530981" lon="8.971255376176893"><ele>404.0</ele><time>2026-04-25T11:51:09.82Z</time></trkpt><trkpt lat="45.78315803160312" lon="8.971367704090781"><ele>403.79999999999995</ele><time>2026-04-25T11:51:10.82Z</time></trkpt><trkpt lat="45.7831291275887" lon="8.971490899027794"><ele>403.59999999999997</ele><time>2026-04-25T11:51:11.82Z</time></trkpt><trkpt lat="45.78308449197804" lon="8.97160180444266"><ele>403.4</ele><time>2026-04-25T11:51:12.82Z</time></trkpt><trkpt lat="45.783057299855244" lon="8.971715093556908"><ele>403.2</ele><time>2026-04-25T11:51:13.82Z</time></trkpt><trkpt lat="45.78301802601241" lon="8.971867311141594"><ele>403.0</ele><time>2026-04-25T11:51:14.82Z</time></trkpt><trkpt lat="45.78298501452049" lon="8.97203499729437"><ele>403.0</ele><time>2026-04-25T11:51:15.82Z</time></trkpt><trkpt lat="45.782938793068375" lon="8.97222258351523"><ele>403.0</ele><time>2026-04-25T11:51:16.821Z</time></trkpt><trkpt lat="45.78288563067072" lon="8.972384302866653"><ele>403.0</ele><time>2026-04-25T11:51:17.821Z</time></trkpt><trkpt lat="45.782802159144886" lon="8.972506451212787"><ele>403.0</ele><time>2026-04-25T11:51:18.821Z</time></trkpt><trkpt lat="45.78270145687262" lon="8.9726255330454"><ele>403.75</ele><time>2026-04-25T11:51:19.819Z</time></trkpt><trkpt lat="45.7825794355015" lon="8.972727265762787"><ele>404.5</ele><time>2026-04-25T11:51:20.819Z</time></trkpt><trkpt lat="45.78245960491344" lon="8.972783688747844"><ele>405.25</ele><time>2026-04-25T11:51:21.819Z</time></trkpt><trkpt lat="45.782295341114256" lon="8.972837150170603"><ele>406.0</ele><time>2026-04-25T11:51:22.818Z</time></trkpt><trkpt lat="45.78216762347226" lon="8.972912419159202"><ele>406.0</ele><time>2026-04-25T11:51:23.819Z</time></trkpt><trkpt lat="45.78203397458129" lon="8.972983672419925"><ele>406.0</ele><time>2026-04-25T11:51:24.819Z</time></trkpt><trkpt lat="45.78191143390032" lon="8.973059651259485"><ele>406.0</ele><time>2026-04-25T11:51:25.819Z</time></trkpt><trkpt lat="45.78178214601998" lon="8.973125555184383"><ele>406.0</ele><time>2026-04-25T11:51:26.819Z</time></trkpt><trkpt lat="45.78165501244694" lon="8.973199897182758"><ele>406.33333333333337</ele><time>2026-04-25T11:51:27.819Z</time></trkpt><trkpt lat="45.781521016762085" lon="8.973276347586346"><ele>406.66666666666663</ele><time>2026-04-25T11:51:28.819Z</time></trkpt><trkpt lat="45.78138075683256" lon="8.97336218921826"><ele>407.0</ele><time>2026-04-25T11:51:29.818Z</time></trkpt><trkpt lat="45.78123384960364" lon="8.973443188383962"><ele>407.3333333333333</ele><time>2026-04-25T11:51:30.818Z</time></trkpt><trkpt lat="45.781090514437" lon="8.973524805591346"><ele>407.66666666666663</ele><time>2026-04-25T11:51:31.818Z</time></trkpt><trkpt lat="45.780948325029904" lon="8.973610334383373"><ele>408.0</ele><time>2026-04-25T11:51:32.818Z</time></trkpt><trkpt lat="45.780809781408074" lon="8.97369053074641"><ele>408.0</ele><time>2026-04-25T11:51:33.818Z</time></trkpt><trkpt lat="45.78067340325058" lon="8.973765696231172"><ele>408.0</ele><time>2026-04-25T11:51:34.818Z</time></trkpt><trkpt lat="45.78053679623838" lon="8.97385229885674"><ele>408.0</ele><time>2026-04-25T11:51:35.818Z</time></trkpt><trkpt lat="45.780400497149344" lon="8.973929822600857"><ele>408.0</ele><time>2026-04-25T11:51:36.818Z</time></trkpt><trkpt lat="45.78026423395594" lon="8.974010526312673"><ele>407.66666666666663</ele><time>2026-04-25T11:51:37.818Z</time></trkpt><trkpt lat="45.78012561298144" lon="8.974098155774449"><ele>407.3333333333333</ele><time>2026-04-25T11:51:38.818Z</time></trkpt><trkpt lat="45.779986535224296" lon="8.974182788840237"><ele>407.0</ele><time>2026-04-25T11:51:39.818Z</time></trkpt><trkpt lat="45.77984534294238" lon="8.974271031357084"><ele>407.5</ele><time>2026-04-25T11:51:40.818Z</time></trkpt><trkpt lat="45.779708027545304" lon="8.974352887984727"><ele>408.0</ele><time>2026-04-25T11:51:41.818Z</time></trkpt><trkpt lat="45.779575083349755" lon="8.974424372214141"><ele>408.5</ele><time>2026-04-25T11:51:42.818Z</time></trkpt><trkpt lat="45.779444317427284" lon="8.97449637524549"><ele>409.0</ele><time>2026-04-25T11:51:43.818Z</time></trkpt><trkpt lat="45.77931090707935" lon="8.974571241367622"><ele>409.25</ele><time>2026-04-25T11:51:44.818Z</time></trkpt><trkpt lat="45.77917997170224" lon="8.974649346785984"><ele>409.5</ele><time>2026-04-25T11:51:45.818Z</time></trkpt><trkpt lat="45.77904498680953" lon="8.974728953360447"><ele>409.75</ele><time>2026-04-25T11:51:46.818Z</time></trkpt><trkpt lat="45.778908871481285" lon="8.974801925874978"><ele>410.0</ele><time>2026-04-25T11:51:47.818Z</time></trkpt><trkpt lat="45.7787704400997" lon="8.974881220755734"><ele>410.0</ele><time>2026-04-25T11:51:48.819Z</time></trkpt><trkpt lat="45.77863287309446" lon="8.974968915498334"><ele>410.0</ele><time>2026-04-25T11:51:49.819Z</time></trkpt><trkpt lat="45.77851480993433" lon="8.97508528125025"><ele>410.0</ele><time>2026-04-25T11:51:50.819Z</time></trkpt><trkpt lat="45.77841886515447" lon="8.975187801336924"><ele>410.0</ele><time>2026-04-25T11:51:51.819Z</time></trkpt><trkpt lat="45.77836755926096" lon="8.975261933060414"><ele>409.5</ele><time>2026-04-25T11:51:52.819Z</time></trkpt><trkpt lat="45.77829024676044" lon="8.975334866387207"><ele>409.0</ele><time>2026-04-25T11:52:17.819Z</time></trkpt><trkpt lat="45.77818239410122" lon="8.97547829732192"><ele>408.5</ele><time>2026-04-25T11:52:18.819Z</time></trkpt><trkpt lat="45.77807224302998" lon="8.975626760448558"><ele>408.0</ele><time>2026-04-25T11:52:19.819Z</time></trkpt><trkpt lat="45.77793750904156" lon="8.975812482059743"><ele>407.5</ele><time>2026-04-25T11:52:20.819Z</time></trkpt><trkpt lat="45.77776887139564" lon="8.976039482995581"><ele>407.0</ele><time>2026-04-25T11:52:21.819Z</time></trkpt><trkpt lat="45.777594171635386" lon="8.976274024381032"><ele>406.5</ele><time>2026-04-25T11:52:22.819Z</time></trkpt><trkpt lat="45.7774116000197" lon="8.97652128454547"><ele>406.0</ele><time>2026-04-25T11:52:23.819Z</time></trkpt><trkpt lat="45.777227546107696" lon="8.976770364971019"><ele>406.0</ele><time>2026-04-25T11:52:24.819Z</time></trkpt><trkpt lat="45.77705534308923" lon="8.977005784739442"><ele>406.0</ele><time>2026-04-25T11:52:25.819Z</time></trkpt><trkpt lat="45.77689704117522" lon="8.977221753909317"><ele>406.0</ele><time>2026-04-25T11:52:26.819Z</time></trkpt><trkpt lat="45.776735135288476" lon="8.97743802949036"><ele>406.0</ele><time>2026-04-25T11:52:27.819Z</time></trkpt><trkpt lat="45.77657707563186" lon="8.977651704615836"><ele>406.0</ele><time>2026-04-25T11:52:28.819Z</time></trkpt><trkpt lat="45.7764181831541" lon="8.977866610043769"><ele>405.5</ele><time>2026-04-25T11:52:29.819Z</time></trkpt><trkpt lat="45.77625730222562" lon="8.978084108408519"><ele>405.0</ele><time>2026-04-25T11:52:30.819Z</time></trkpt><trkpt lat="45.776083073922955" lon="8.978316698060299"><ele>402.0</ele><time>2026-04-25T11:52:31.819Z</time></trkpt><trkpt lat="45.77591480702661" lon="8.978540710530126"><ele>399.0</ele><time>2026-04-25T11:52:32.819Z</time></trkpt><trkpt lat="45.77573888954031" lon="8.978771062891836"><ele>399.0</ele><time>2026-04-25T11:52:33.819Z</time></trkpt><trkpt lat="45.775562998145894" lon="8.978992600834944"><ele>399.0</ele><time>2026-04-25T11:52:34.819Z</time></trkpt><trkpt lat="45.77539207064305" lon="8.979203718772826"><ele>398.33333333333337</ele><time>2026-04-25T11:52:35.819Z</time></trkpt><trkpt lat="45.775222460225" lon="8.97941187077699"><ele>397.6666666666667</ele><time>2026-04-25T11:52:36.819Z</time></trkpt><trkpt lat="45.77505812402173" lon="8.97961260714457"><ele>397.0</ele><time>2026-04-25T11:52:37.819Z</time></trkpt><trkpt lat="45.77489418142334" lon="8.979813785556548"><ele>396.6666666666667</ele><time>2026-04-25T11:52:38.819Z</time></trkpt><trkpt lat="45.77473671844284" lon="8.980007012642544"><ele>396.33333333333337</ele><time>2026-04-25T11:52:39.819Z</time></trkpt><trkpt lat="45.774581667974836" lon="8.980195920690408"><ele>396.0</ele><time>2026-04-25T11:52:40.819Z</time></trkpt><trkpt lat="45.77443481380004" lon="8.98037469649565"><ele>393.66666666666663</ele><time>2026-04-25T11:52:41.82Z</time></trkpt><trkpt lat="45.774284530024154" lon="8.980557065192992"><ele>391.3333333333333</ele><time>2026-04-25T11:52:42.82Z</time></trkpt><trkpt lat="45.774141152766326" lon="8.980731052919893"><ele>389.0</ele><time>2026-04-25T11:52:43.82Z</time></trkpt><trkpt lat="45.77399910266272" lon="8.98090478592819"><ele>388.0</ele><time>2026-04-25T11:52:44.82Z</time></trkpt><trkpt lat="45.77385600932938" lon="8.981079996211758"><ele>387.0</ele><time>2026-04-25T11:52:45.82Z</time></trkpt><trkpt lat="45.7737007355171" lon="8.981270085966854"><ele>386.0</ele><time>2026-04-25T11:52:46.82Z</time></trkpt><trkpt lat="45.77353340298116" lon="8.981440175624343"><ele>384.0</ele><time>2026-04-25T11:52:47.82Z</time></trkpt><trkpt lat="45.773373408257406" lon="8.981637637961445"><ele>382.0</ele><time>2026-04-25T11:52:48.82Z</time></trkpt><trkpt lat="45.77321979367334" lon="8.981837977472138"><ele>380.0</ele><time>2026-04-25T11:52:49.82Z</time></trkpt><trkpt lat="45.77307140767585" lon="8.982027479073356"><ele>379.0</ele><time>2026-04-25T11:52:50.82Z</time></trkpt><trkpt lat="45.77292771280619" lon="8.98221457808145"><ele>378.0</ele><time>2026-04-25T11:52:51.82Z</time></trkpt><trkpt lat="45.77279054084151" lon="8.982393554518946"><ele>377.0</ele><time>2026-04-25T11:52:52.82Z</time></trkpt><trkpt lat="45.77264967768546" lon="8.982566921120162"><ele>375.33333333333337</ele><time>2026-04-25T11:52:53.82Z</time></trkpt><trkpt lat="45.77251900922853" lon="8.982722556675176"><ele>373.6666666666667</ele><time>2026-04-25T11:52:54.82Z</time></trkpt><trkpt lat="45.7723796952985" lon="8.982898615467658"><ele>372.0</ele><time>2026-04-25T11:52:55.82Z</time></trkpt><trkpt lat="45.77223971037283" lon="8.983073227536524"><ele>372.0</ele><time>2026-04-25T11:52:56.82Z</time></trkpt><trkpt lat="45.772101121486976" lon="8.983245133778583"><ele>372.0</ele><time>2026-04-25T11:52:57.82Z</time></trkpt><trkpt lat="45.77196527788873" lon="8.983414763030325"><ele>372.0</ele><time>2026-04-25T11:52:58.82Z</time></trkpt><trkpt lat="45.771836753290245" lon="8.983573059829938"><ele>370.3333333333333</ele><time>2026-04-25T11:52:59.82Z</time></trkpt><trkpt lat="45.77170833339387" lon="8.983719774352663"><ele>368.66666666666663</ele><time>2026-04-25T11:53:00.82Z</time></trkpt><trkpt lat="45.77157550197078" lon="8.983839973852984"><ele>367.0</ele><time>2026-04-25T11:53:01.82Z</time></trkpt><trkpt lat="45.77144507597257" lon="8.983933697572727"><ele>367.0</ele><time>2026-04-25T11:53:02.82Z</time></trkpt><trkpt lat="45.771323544602836" lon="8.98399488784049"><ele>367.0</ele><time>2026-04-25T11:53:03.82Z</time></trkpt><trkpt lat="45.77121002752314" lon="8.984030583865673"><ele>367.0</ele><time>2026-04-25T11:53:04.82Z</time></trkpt><trkpt lat="45.771100860299185" lon="8.984028780253507"><ele>367.0</ele><time>2026-04-25T11:53:05.82Z</time></trkpt><trkpt lat="45.77099577597438" lon="8.983985900951781"><ele>366.40000000000003</ele><time>2026-04-25T11:53:06.82Z</time></trkpt><trkpt lat="45.77089006191792" lon="8.983920830637325"><ele>365.8</ele><time>2026-04-25T11:53:07.82Z</time></trkpt><trkpt lat="45.770795133012115" lon="8.983865943053742"><ele>365.2</ele><time>2026-04-25T11:53:08.82Z</time></trkpt><trkpt lat="45.77069927085222" lon="8.983871635454001"><ele>364.6</ele><time>2026-04-25T11:53:09.82Z</time></trkpt><trkpt lat="45.770614181904016" lon="8.983948832227096"><ele>364.0</ele><time>2026-04-25T11:53:10.82Z</time></trkpt><trkpt lat="45.77055711464227" lon="8.984075688480527"><ele>364.4</ele><time>2026-04-25T11:53:11.82Z</time></trkpt><trkpt lat="45.77054361442779" lon="8.98421371865479"><ele>364.79999999999995</ele><time>2026-04-25T11:53:12.82Z</time></trkpt><trkpt lat="45.770567890089076" lon="8.98435446260528"><ele>365.20000000000005</ele><time>2026-04-25T11:53:13.82Z</time></trkpt><trkpt lat="45.7706084232758" lon="8.984498595471388"><ele>365.6</ele><time>2026-04-25T11:53:14.82Z</time></trkpt><trkpt lat="45.77065734699642" lon="8.984668485133923"><ele>366.0</ele><time>2026-04-25T11:53:15.82Z</time></trkpt><trkpt lat="45.770659863025344" lon="8.984871355504438"><ele>364.3333333333333</ele><time>2026-04-25T11:53:16.82Z</time></trkpt><trkpt lat="45.77061460153537" lon="8.985059703361271"><ele>362.66666666666663</ele><time>2026-04-25T11:53:17.82Z</time></trkpt><trkpt lat="45.770585080030514" lon="8.98528782182561"><ele>361.0</ele><time>2026-04-25T11:53:18.82Z</time></trkpt><trkpt lat="45.77054970668312" lon="8.98550143107516"><ele>361.0</ele><time>2026-04-25T11:53:19.82Z</time></trkpt><trkpt lat="45.77053929558223" lon="8.98574131799327"><ele>361.0</ele><time>2026-04-25T11:53:20.82Z</time></trkpt><trkpt lat="45.77053979008889" lon="8.985972552858406"><ele>361.0</ele><time>2026-04-25T11:53:21.82Z</time></trkpt><trkpt lat="45.770544559713535" lon="8.986207329622767"><ele>358.0</ele><time>2026-04-25T11:53:22.82Z</time></trkpt><trkpt lat="45.77054933337695" lon="8.986442305032849"><ele>355.0</ele><time>2026-04-25T11:53:23.82Z</time></trkpt><trkpt lat="45.7705535601381" lon="8.986666713314852"><ele>352.0</ele><time>2026-04-25T11:53:24.82Z</time></trkpt><trkpt lat="45.77055780919731" lon="8.986882900376154"><ele>350.25</ele><time>2026-04-25T11:53:25.818Z</time></trkpt><trkpt lat="45.770551715610665" lon="8.987093740336139"><ele>348.5</ele><time>2026-04-25T11:53:26.818Z</time></trkpt><trkpt lat="45.77055898516399" lon="8.987311291867305"><ele>346.75</ele><time>2026-04-25T11:53:27.818Z</time></trkpt><trkpt lat="45.77056406982303" lon="8.987524184856312"><ele>345.0</ele><time>2026-04-25T11:53:28.818Z</time></trkpt><trkpt lat="45.77057145059877" lon="8.987726431486948"><ele>345.0</ele><time>2026-04-25T11:53:29.819Z</time></trkpt><trkpt lat="45.770581807117665" lon="8.987914876956197"><ele>345.0</ele><time>2026-04-25T11:53:30.819Z</time></trkpt><trkpt lat="45.7705863284149" lon="8.98808861481977"><ele>345.0</ele><time>2026-04-25T11:53:31.818Z</time></trkpt><trkpt lat="45.770586538842814" lon="8.9882551545437"><ele>345.0</ele><time>2026-04-25T11:53:32.819Z</time></trkpt><trkpt lat="45.77057365127459" lon="8.98840243693478"><ele>345.4</ele><time>2026-04-25T11:53:33.819Z</time></trkpt><trkpt lat="45.77054975805045" lon="8.988531201942603"><ele>345.8</ele><time>2026-04-25T11:53:34.818Z</time></trkpt><trkpt lat="45.77052541999859" lon="8.98865987445473"><ele>346.20000000000005</ele><time>2026-04-25T11:53:35.819Z</time></trkpt><trkpt lat="45.77053024499824" lon="8.988785675366303"><ele>346.6</ele><time>2026-04-25T11:53:36.819Z</time></trkpt><trkpt lat="45.770576446663036" lon="8.988931231845113"><ele>347.0</ele><time>2026-04-25T11:53:37.818Z</time></trkpt><trkpt lat="45.770611275531266" lon="8.98908054721127"><ele>347.25</ele><time>2026-04-25T11:53:38.818Z</time></trkpt><trkpt lat="45.77060631448672" lon="8.989295236214703"><ele>347.5</ele><time>2026-04-25T11:53:39.818Z</time></trkpt><trkpt lat="45.77061088727477" lon="8.989500625985874"><ele>347.75</ele><time>2026-04-25T11:53:40.818Z</time></trkpt><trkpt lat="45.77061501153907" lon="8.989704279141991"><ele>348.0</ele><time>2026-04-25T11:53:41.818Z</time></trkpt><trkpt lat="45.77063051707515" lon="8.989911087693942"><ele>348.0</ele><time>2026-04-25T11:53:42.818Z</time></trkpt><trkpt lat="45.77062388195063" lon="8.99011552369145"><ele>348.0</ele><time>2026-04-25T11:53:43.818Z</time></trkpt><trkpt lat="45.77065499105923" lon="8.99033107902855"><ele>348.0</ele><time>2026-04-25T11:53:44.818Z</time></trkpt><trkpt lat="45.770656843087735" lon="8.990563326084088"><ele>348.0</ele><time>2026-04-25T11:53:45.818Z</time></trkpt><trkpt lat="45.770657914525" lon="8.99080960181987"><ele>348.0</ele><time>2026-04-25T11:53:46.818Z</time></trkpt><trkpt lat="45.77066261842174" lon="8.991046505364139"><ele>348.0</ele><time>2026-04-25T11:53:47.818Z</time></trkpt><trkpt lat="45.77064345368889" lon="8.991280002309889"><ele>348.0</ele><time>2026-04-25T11:53:48.818Z</time></trkpt><trkpt lat="45.77064713682042" lon="8.99151979835127"><ele>348.0</ele><time>2026-04-25T11:53:49.818Z</time></trkpt><trkpt lat="45.77065089482401" lon="8.99176446932073"><ele>348.0</ele><time>2026-04-25T11:53:50.818Z</time></trkpt><trkpt lat="45.77065365629362" lon="8.992007707344628"><ele>348.0</ele><time>2026-04-25T11:53:51.818Z</time></trkpt><trkpt lat="45.770661873861485" lon="8.99225767661315"><ele>348.0</ele><time>2026-04-25T11:53:52.818Z</time></trkpt><trkpt lat="45.770670703769184" lon="8.99250921952693"><ele>348.0</ele><time>2026-04-25T11:53:53.818Z</time></trkpt><trkpt lat="45.770686074229125" lon="8.992762041916873"><ele>347.6666666666667</ele><time>2026-04-25T11:53:54.818Z</time></trkpt><trkpt lat="45.77071090922645" lon="8.99301366594453"><ele>347.33333333333337</ele><time>2026-04-25T11:53:55.818Z</time></trkpt><trkpt lat="45.77073980791975" lon="8.99325897950497"><ele>347.0</ele><time>2026-04-25T11:53:56.818Z</time></trkpt><trkpt lat="45.77076560702821" lon="8.99348878171615"><ele>346.6666666666667</ele><time>2026-04-25T11:53:57.818Z</time></trkpt><trkpt lat="45.77079053577423" lon="8.993710831856077"><ele>346.3333333333333</ele><time>2026-04-25T11:53:58.818Z</time></trkpt><trkpt lat="45.770815834234156" lon="8.993931756263533"><ele>346.0</ele><time>2026-04-25T11:53:59.818Z</time></trkpt><trkpt lat="45.770840881206674" lon="8.994157638899209"><ele>345.3333333333333</ele><time>2026-04-25T11:54:00.818Z</time></trkpt><trkpt lat="45.77086665749545" lon="8.994389865946236"><ele>344.6666666666667</ele><time>2026-04-25T11:54:01.818Z</time></trkpt><trkpt lat="45.77089489215226" lon="8.994644241145709"><ele>344.0</ele><time>2026-04-25T11:54:02.818Z</time></trkpt><trkpt lat="45.77090391628497" lon="8.994896397530447"><ele>344.0</ele><time>2026-04-25T11:54:03.818Z</time></trkpt><trkpt lat="45.77092730558653" lon="8.995131357025732"><ele>344.0</ele><time>2026-04-25T11:54:04.818Z</time></trkpt><trkpt lat="45.77097813941573" lon="8.99560794255085"><ele>343.6666666666667</ele><time>2026-04-25T11:54:06.818Z</time></trkpt><trkpt lat="45.77100267771449" lon="8.995843741441313"><ele>343.3333333333333</ele><time>2026-04-25T11:54:07.818Z</time></trkpt><trkpt lat="45.771031492207285" lon="8.996079709809887"><ele>343.0</ele><time>2026-04-25T11:54:08.818Z</time></trkpt><trkpt lat="45.77105729166449" lon="8.996326310029094"><ele>343.0</ele><time>2026-04-25T11:54:09.818Z</time></trkpt><trkpt lat="45.77108011851775" lon="8.996561336648101"><ele>343.0</ele><time>2026-04-25T11:54:10.818Z</time></trkpt><trkpt lat="45.771109506397124" lon="8.996795140253164"><ele>343.0</ele><time>2026-04-25T11:54:11.818Z</time></trkpt><trkpt lat="45.7711404974047" lon="8.997028645302988"><ele>342.66666666666663</ele><time>2026-04-25T11:54:12.818Z</time></trkpt><trkpt lat="45.771169877040975" lon="8.997255619869925"><ele>342.3333333333333</ele><time>2026-04-25T11:54:13.818Z</time></trkpt><trkpt lat="45.77119281728204" lon="8.997468516128926"><ele>342.0</ele><time>2026-04-25T11:54:14.818Z</time></trkpt><trkpt lat="45.771217171887876" lon="8.997675126502875"><ele>340.75</ele><time>2026-04-25T11:54:15.818Z</time></trkpt><trkpt lat="45.77125044023228" lon="8.997868960645524"><ele>339.5</ele><time>2026-04-25T11:54:16.818Z</time></trkpt><trkpt lat="45.77127587260118" lon="8.998060451735139"><ele>338.25</ele><time>2026-04-25T11:54:17.818Z</time></trkpt><trkpt lat="45.771301713624936" lon="8.998259417850162"><ele>337.0</ele><time>2026-04-25T11:54:18.819Z</time></trkpt><trkpt lat="45.771332693966215" lon="8.998463017458333"><ele>336.5</ele><time>2026-04-25T11:54:19.819Z</time></trkpt><trkpt lat="45.77133957731077" lon="8.99866910517216"><ele>336.0</ele><time>2026-04-25T11:54:20.819Z</time></trkpt><trkpt lat="45.771386837075994" lon="8.998873888642127"><ele>335.5</ele><time>2026-04-25T11:54:21.819Z</time></trkpt><trkpt lat="45.7714163522496" lon="8.999089715032227"><ele>335.0</ele><time>2026-04-25T11:54:22.819Z</time></trkpt><trkpt lat="45.77143960325936" lon="8.999294763121153"><ele>335.0</ele><time>2026-04-25T11:54:23.819Z</time></trkpt><trkpt lat="45.77145875087065" lon="8.999493504311493"><ele>335.0</ele><time>2026-04-25T11:54:24.819Z</time></trkpt><trkpt lat="45.77145518665471" lon="8.99971162839108"><ele>335.0</ele><time>2026-04-25T11:54:25.819Z</time></trkpt><trkpt lat="45.77147906721019" lon="8.999927490841205"><ele>335.0</ele><time>2026-04-25T11:54:26.819Z</time></trkpt><trkpt lat="45.771500207821745" lon="9.00012251554463"><ele>335.0</ele><time>2026-04-25T11:54:27.819Z</time></trkpt><trkpt lat="45.77152008762073" lon="9.000306961847869"><ele>335.0</ele><time>2026-04-25T11:54:28.819Z</time></trkpt><trkpt lat="45.77152444188432" lon="9.000487812669856"><ele>335.0</ele><time>2026-04-25T11:54:29.819Z</time></trkpt><trkpt lat="45.77154090558457" lon="9.000665618900742"><ele>335.0</ele><time>2026-04-25T11:54:30.819Z</time></trkpt><trkpt lat="45.771560966030705" lon="9.000838384893395"><ele>334.25</ele><time>2026-04-25T11:54:31.819Z</time></trkpt><trkpt lat="45.77157919139544" lon="9.00101747057636"><ele>333.5</ele><time>2026-04-25T11:54:32.819Z</time></trkpt><trkpt lat="45.77159915168114" lon="9.00119079359327"><ele>332.75</ele><time>2026-04-25T11:54:33.819Z</time></trkpt><trkpt lat="45.77161934809427" lon="9.00136780640311"><ele>332.0</ele><time>2026-04-25T11:54:34.819Z</time></trkpt><trkpt lat="45.7716425982337" lon="9.001549455744444"><ele>332.0</ele><time>2026-04-25T11:54:35.819Z</time></trkpt><trkpt lat="45.77166564544832" lon="9.00172960893051"><ele>332.0</ele><time>2026-04-25T11:54:36.819Z</time></trkpt><trkpt lat="45.77168751755732" lon="9.001912321500226"><ele>332.0</ele><time>2026-04-25T11:54:37.819Z</time></trkpt><trkpt lat="45.771714418183436" lon="9.00209234233438"><ele>332.0</ele><time>2026-04-25T11:54:38.819Z</time></trkpt><trkpt lat="45.77173879372865" lon="9.002279396115688"><ele>332.0</ele><time>2026-04-25T11:54:39.819Z</time></trkpt><trkpt lat="45.77176410445993" lon="9.002459645910182"><ele>332.0</ele><time>2026-04-25T11:54:40.819Z</time></trkpt><trkpt lat="45.77178492064371" lon="9.002634451417153"><ele>332.0</ele><time>2026-04-25T11:54:41.819Z</time></trkpt><trkpt lat="45.7717884786697" lon="9.002796036358394"><ele>332.0</ele><time>2026-04-25T11:54:42.819Z</time></trkpt><trkpt lat="45.771803489880945" lon="9.002933968367552"><ele>332.0</ele><time>2026-04-25T11:54:43.819Z</time></trkpt><trkpt lat="45.771816652685395" lon="9.00305518017099"><ele>332.0</ele><time>2026-04-25T11:54:44.819Z</time></trkpt><trkpt lat="45.771829091593496" lon="9.00316972511081"><ele>332.0</ele><time>2026-04-25T11:54:45.819Z</time></trkpt><trkpt lat="45.77184147913426" lon="9.003283797583533"><ele>332.0</ele><time>2026-04-25T11:54:46.819Z</time></trkpt><trkpt lat="45.7718401485173" lon="9.003393878075014"><ele>332.0</ele><time>2026-04-25T11:54:47.819Z</time></trkpt><trkpt lat="45.771849546679654" lon="9.003514778670517"><ele>332.0</ele><time>2026-04-25T11:54:48.819Z</time></trkpt><trkpt lat="45.77185989966635" lon="9.003630578009592"><ele>332.0</ele><time>2026-04-25T11:54:49.819Z</time></trkpt><trkpt lat="45.771869839872046" lon="9.003732612079844"><ele>332.0</ele><time>2026-04-25T11:54:50.819Z</time></trkpt><trkpt lat="45.77187739947954" lon="9.003823393049565"><ele>332.0</ele><time>2026-04-25T11:54:51.819Z</time></trkpt><trkpt lat="45.77189434878623" lon="9.003978704612583"><ele>332.0</ele><time>2026-04-25T11:54:53.819Z</time></trkpt><trkpt lat="45.77192550476267" lon="9.004154135207012"><ele>332.0</ele><time>2026-04-25T11:54:55.819Z</time></trkpt><trkpt lat="45.771941912499166" lon="9.004246229955418"><ele>332.0</ele><time>2026-04-25T11:54:56.819Z</time></trkpt><trkpt lat="45.77195682920661" lon="9.004338577107955"><ele>332.0</ele><time>2026-04-25T11:54:57.819Z</time></trkpt><trkpt lat="45.7719872333567" lon="9.004514101325862"><ele>332.0</ele><time>2026-04-25T11:54:59.819Z</time></trkpt><trkpt lat="45.77200464178571" lon="9.004608678593746"><ele>332.0</ele><time>2026-04-25T11:55:00.819Z</time></trkpt><trkpt lat="45.772016209314906" lon="9.004774043234523"><ele>332.0</ele><time>2026-04-25T11:55:02.819Z</time></trkpt><trkpt lat="45.77201080327789" lon="9.004930187565646"><ele>332.0</ele><time>2026-04-25T11:55:04.819Z</time></trkpt><trkpt lat="45.77201165913529" lon="9.00504573640476"><ele>331.75</ele><time>2026-04-25T11:55:05.819Z</time></trkpt><trkpt lat="45.77199219599649" lon="9.00521964624338"><ele>331.5</ele><time>2026-04-25T11:55:06.819Z</time></trkpt><trkpt lat="45.77198122243513" lon="9.005446335131655"><ele>331.25</ele><time>2026-04-25T11:55:07.819Z</time></trkpt><trkpt lat="45.77197053243829" lon="9.005648777540465"><ele>331.0</ele><time>2026-04-25T11:55:08.819Z</time></trkpt><trkpt lat="45.771935616688125" lon="9.00589627939754"><ele>331.0</ele><time>2026-04-25T11:55:09.819Z</time></trkpt><trkpt lat="45.771923401052646" lon="9.00610794202865"><ele>331.0</ele><time>2026-04-25T11:55:10.819Z</time></trkpt><trkpt lat="45.77190942308195" lon="9.006322421394529"><ele>331.0</ele><time>2026-04-25T11:55:11.819Z</time></trkpt><trkpt lat="45.77190155636478" lon="9.006548605324957"><ele>331.3333333333333</ele><time>2026-04-25T11:55:12.819Z</time></trkpt><trkpt lat="45.771894126326" lon="9.00676682731009"><ele>331.6666666666667</ele><time>2026-04-25T11:55:13.82Z</time></trkpt><trkpt lat="45.771885747275384" lon="9.00699710876166"><ele>332.0</ele><time>2026-04-25T11:55:14.82Z</time></trkpt><trkpt lat="45.77187553359467" lon="9.007219667976766"><ele>332.0</ele><time>2026-04-25T11:55:15.82Z</time></trkpt><trkpt lat="45.77186548410105" lon="9.007424728784633"><ele>332.0</ele><time>2026-04-25T11:55:16.82Z</time></trkpt><trkpt lat="45.771857918974206" lon="9.007635485355738"><ele>332.0</ele><time>2026-04-25T11:55:17.82Z</time></trkpt><trkpt lat="45.771848729880645" lon="9.007847721278592"><ele>332.0</ele><time>2026-04-25T11:55:18.82Z</time></trkpt><trkpt lat="45.7718394057811" lon="9.00806582526988"><ele>331.6666666666667</ele><time>2026-04-25T11:55:19.82Z</time></trkpt><trkpt lat="45.77182647185858" lon="9.008288222831249"><ele>331.3333333333333</ele><time>2026-04-25T11:55:20.82Z</time></trkpt><trkpt lat="45.771818399383534" lon="9.008510708556464"><ele>331.0</ele><time>2026-04-25T11:55:21.82Z</time></trkpt><trkpt lat="45.77181032025397" lon="9.00875806765391"><ele>331.0</ele><time>2026-04-25T11:55:22.82Z</time></trkpt><trkpt lat="45.77180047773354" lon="9.009015734483476"><ele>331.0</ele><time>2026-04-25T11:55:23.82Z</time></trkpt><trkpt lat="45.77178958709306" lon="9.009270613491063"><ele>331.0</ele><time>2026-04-25T11:55:24.82Z</time></trkpt><trkpt lat="45.771781473712906" lon="9.009527511222855"><ele>330.66666666666663</ele><time>2026-04-25T11:55:25.82Z</time></trkpt><trkpt lat="45.77177000438824" lon="9.00977665430411"><ele>330.3333333333333</ele><time>2026-04-25T11:55:26.82Z</time></trkpt><trkpt lat="45.771756520301274" lon="9.01001719990019"><ele>330.0</ele><time>2026-04-25T11:55:27.82Z</time></trkpt><trkpt lat="45.771745887032324" lon="9.010252828872884"><ele>330.0</ele><time>2026-04-25T11:55:28.82Z</time></trkpt><trkpt lat="45.771734631906696" lon="9.010485652509962"><ele>330.0</ele><time>2026-04-25T11:55:29.82Z</time></trkpt><trkpt lat="45.77172240193246" lon="9.010717566448255"><ele>330.0</ele><time>2026-04-25T11:55:30.82Z</time></trkpt><trkpt lat="45.771715529870654" lon="9.010932617384475"><ele>330.5</ele><time>2026-04-25T11:55:31.818Z</time></trkpt><trkpt lat="45.77170756665649" lon="9.011126761887578"><ele>331.0</ele><time>2026-04-25T11:55:32.818Z</time></trkpt><trkpt lat="45.77170254938834" lon="9.011309679879844"><ele>331.5</ele><time>2026-04-25T11:55:33.818Z</time></trkpt><trkpt lat="45.77169544127077" lon="9.01147911604403"><ele>332.0</ele><time>2026-04-25T11:55:34.818Z</time></trkpt><trkpt lat="45.771664487739336" lon="9.01162927575273"><ele>332.33333333333337</ele><time>2026-04-25T11:55:35.817Z</time></trkpt><trkpt lat="45.77166125624611" lon="9.011761960086305"><ele>332.6666666666667</ele><time>2026-04-25T11:55:36.817Z</time></trkpt><trkpt lat="45.77164684719024" lon="9.01187683635949"><ele>333.0</ele><time>2026-04-25T11:55:37.817Z</time></trkpt><trkpt lat="45.77162087927581" lon="9.011986680498095"><ele>333.3333333333333</ele><time>2026-04-25T11:55:38.818Z</time></trkpt><trkpt lat="45.77157518548512" lon="9.012092492433636"><ele>333.66666666666663</ele><time>2026-04-25T11:55:39.818Z</time></trkpt><trkpt lat="45.77153797813506" lon="9.01220690110451"><ele>334.0</ele><time>2026-04-25T11:55:40.818Z</time></trkpt><trkpt lat="45.77154749710661" lon="9.012319975937524"><ele>334.0</ele><time>2026-04-25T11:55:41.817Z</time></trkpt><trkpt lat="45.77160645451127" lon="9.012433561601807"><ele>334.0</ele><time>2026-04-25T11:55:42.817Z</time></trkpt><trkpt lat="45.771699048815634" lon="9.01256411814953"><ele>334.0</ele><time>2026-04-25T11:55:43.818Z</time></trkpt><trkpt lat="45.77177703640194" lon="9.012744396574321"><ele>334.0</ele><time>2026-04-25T11:55:44.818Z</time></trkpt><trkpt lat="45.771806388171726" lon="9.012966564848059"><ele>334.66666666666663</ele><time>2026-04-25T11:55:45.818Z</time></trkpt><trkpt lat="45.7718526766601" lon="9.013172223462421"><ele>335.3333333333333</ele><time>2026-04-25T11:55:46.818Z</time></trkpt><trkpt lat="45.771879487081506" lon="9.013390997014609"><ele>336.0</ele><time>2026-04-25T11:55:47.818Z</time></trkpt><trkpt lat="45.77190795618909" lon="9.013604757799106"><ele>338.0</ele><time>2026-04-25T11:55:48.818Z</time></trkpt><trkpt lat="45.771940723866976" lon="9.013825788751086"><ele>340.0</ele><time>2026-04-25T11:55:49.818Z</time></trkpt><trkpt lat="45.77197494876443" lon="9.014053657982506"><ele>342.0</ele><time>2026-04-25T11:55:50.818Z</time></trkpt><trkpt lat="45.77200477444509" lon="9.014276075810574"><ele>342.0</ele><time>2026-04-25T11:55:51.818Z</time></trkpt><trkpt lat="45.77203150664332" lon="9.014485240382477"><ele>342.0</ele><time>2026-04-25T11:55:52.818Z</time></trkpt><trkpt lat="45.77205540193442" lon="9.014706431288849"><ele>342.0</ele><time>2026-04-25T11:55:53.818Z</time></trkpt><trkpt lat="45.77208413644637" lon="9.014932255617868"><ele>342.3333333333333</ele><time>2026-04-25T11:55:54.818Z</time></trkpt><trkpt lat="45.77211631478937" lon="9.015164801274825"><ele>342.66666666666663</ele><time>2026-04-25T11:55:55.818Z</time></trkpt><trkpt lat="45.77215009379887" lon="9.015400239724443"><ele>343.0</ele><time>2026-04-25T11:55:56.818Z</time></trkpt><trkpt lat="45.77218360552816" lon="9.015639398152508"><ele>342.0</ele><time>2026-04-25T11:55:57.818Z</time></trkpt><trkpt lat="45.7722199871275" lon="9.01588179276948"><ele>341.0</ele><time>2026-04-25T11:55:58.818Z</time></trkpt><trkpt lat="45.77226132812112" lon="9.016125896670466"><ele>340.0</ele><time>2026-04-25T11:55:59.818Z</time></trkpt><trkpt lat="45.77229939837236" lon="9.016375071938214"><ele>340.0</ele><time>2026-04-25T11:56:00.818Z</time></trkpt><trkpt lat="45.77233515737896" lon="9.01661762072407"><ele>340.0</ele><time>2026-04-25T11:56:01.818Z</time></trkpt><trkpt lat="45.77236960331215" lon="9.016858875584745"><ele>340.0</ele><time>2026-04-25T11:56:02.818Z</time></trkpt><trkpt lat="45.77240687295839" lon="9.017098318367939"><ele>340.0</ele><time>2026-04-25T11:56:03.818Z</time></trkpt><trkpt lat="45.77244084454359" lon="9.017319468472033"><ele>340.0</ele><time>2026-04-25T11:56:04.818Z</time></trkpt><trkpt lat="45.77246999874631" lon="9.017524505940422"><ele>340.0</ele><time>2026-04-25T11:56:05.818Z</time></trkpt><trkpt lat="45.772499719131126" lon="9.017713519352457"><ele>340.0</ele><time>2026-04-25T11:56:06.818Z</time></trkpt><trkpt lat="45.77251158003822" lon="9.017895007519396"><ele>340.2</ele><time>2026-04-25T11:56:07.818Z</time></trkpt><trkpt lat="45.77253543464418" lon="9.018063382911363"><ele>340.4</ele><time>2026-04-25T11:56:08.819Z</time></trkpt><trkpt lat="45.7725632862898" lon="9.01820030403539"><ele>340.6</ele><time>2026-04-25T11:56:09.819Z</time></trkpt><trkpt lat="45.77254736091101" lon="9.018327707134203"><ele>340.8</ele><time>2026-04-25T11:56:10.819Z</time></trkpt><trkpt lat="45.7725130281952" lon="9.018429389113575"><ele>341.0</ele><time>2026-04-25T11:56:11.819Z</time></trkpt><trkpt lat="45.77246664585558" lon="9.018510659031552"><ele>341.33333333333337</ele><time>2026-04-25T11:56:12.819Z</time></trkpt><trkpt lat="45.772433091932996" lon="9.01861690891543"><ele>341.6666666666667</ele><time>2026-04-25T11:56:13.819Z</time></trkpt><trkpt lat="45.77243590409997" lon="9.0187408894195"><ele>342.0</ele><time>2026-04-25T11:56:14.819Z</time></trkpt><trkpt lat="45.772473038534656" lon="9.018851928354184"><ele>342.3333333333333</ele><time>2026-04-25T11:56:15.819Z</time></trkpt><trkpt lat="45.77253643082061" lon="9.018912092437716"><ele>342.66666666666663</ele><time>2026-04-25T11:56:16.819Z</time></trkpt><trkpt lat="45.7726125337568" lon="9.018975224003835"><ele>343.0</ele><time>2026-04-25T11:56:17.819Z</time></trkpt><trkpt lat="45.77267849744563" lon="9.019087645557462"><ele>343.5</ele><time>2026-04-25T11:56:18.819Z</time></trkpt><trkpt lat="45.77273748887785" lon="9.019223223370558"><ele>344.0</ele><time>2026-04-25T11:56:19.819Z</time></trkpt><trkpt lat="45.772780062755224" lon="9.01937412700958"><ele>344.5</ele><time>2026-04-25T11:56:20.819Z</time></trkpt><trkpt lat="45.77280236865326" lon="9.019549419190062"><ele>345.0</ele><time>2026-04-25T11:56:21.819Z</time></trkpt><trkpt lat="45.7728232674187" lon="9.019741982485343"><ele>345.0</ele><time>2026-04-25T11:56:22.819Z</time></trkpt><trkpt lat="45.77285247572798" lon="9.019935335346462"><ele>345.0</ele><time>2026-04-25T11:56:23.819Z</time></trkpt><trkpt lat="45.77284398984835" lon="9.020136711080792"><ele>345.0</ele><time>2026-04-25T11:56:24.819Z</time></trkpt><trkpt lat="45.77286908545644" lon="9.020328769493446"><ele>345.0</ele><time>2026-04-25T11:56:25.819Z</time></trkpt><trkpt lat="45.77289325431099" lon="9.020508621604684"><ele>345.0</ele><time>2026-04-25T11:56:26.819Z</time></trkpt><trkpt lat="45.77291670419179" lon="9.020679805764617"><ele>345.0</ele><time>2026-04-25T11:56:27.819Z</time></trkpt><trkpt lat="45.772926134166866" lon="9.020858174082573"><ele>345.0</ele><time>2026-04-25T11:56:28.819Z</time></trkpt><trkpt lat="45.77295230494222" lon="9.021034322554096"><ele>345.0</ele><time>2026-04-25T11:56:29.819Z</time></trkpt><trkpt lat="45.772984163206566" lon="9.021196907676146"><ele>345.3333333333333</ele><time>2026-04-25T11:56:30.819Z</time></trkpt><trkpt lat="45.77300964086478" lon="9.021338988626812"><ele>345.6666666666667</ele><time>2026-04-25T11:56:31.819Z</time></trkpt><trkpt lat="45.77303051238125" lon="9.021464680225533"><ele>346.0</ele><time>2026-04-25T11:56:32.819Z</time></trkpt><trkpt lat="45.77304546298295" lon="9.02157460472068"><ele>346.33333333333337</ele><time>2026-04-25T11:56:33.819Z</time></trkpt><trkpt lat="45.77305932885437" lon="9.021674899018546"><ele>346.6666666666667</ele><time>2026-04-25T11:56:34.819Z</time></trkpt><trkpt lat="45.77307577096362" lon="9.021767996316152"><ele>347.0</ele><time>2026-04-25T11:56:35.819Z</time></trkpt><trkpt lat="45.77309142033473" lon="9.021855717989924"><ele>347.83333333333337</ele><time>2026-04-25T11:56:36.819Z</time></trkpt><trkpt lat="45.77310393819849" lon="9.021945464403979"><ele>348.6666666666667</ele><time>2026-04-25T11:56:37.819Z</time></trkpt><trkpt lat="45.77312010978908" lon="9.022078810256147"><ele>349.5</ele><time>2026-04-25T11:56:39.819Z</time></trkpt><trkpt lat="45.77314345625303" lon="9.022213394920254"><ele>350.3333333333333</ele><time>2026-04-25T11:56:41.819Z</time></trkpt><trkpt lat="45.77315677371152" lon="9.022307459087196"><ele>351.16666666666663</ele><time>2026-04-25T11:56:42.819Z</time></trkpt><trkpt lat="45.77317401723618" lon="9.022423985259941"><ele>352.0</ele><time>2026-04-25T11:56:43.819Z</time></trkpt><trkpt lat="45.773179051391494" lon="9.022560429359169"><ele>352.5</ele><time>2026-04-25T11:56:44.819Z</time></trkpt><trkpt lat="45.77319600729448" lon="9.022684198618979"><ele>353.0</ele><time>2026-04-25T11:56:45.819Z</time></trkpt><trkpt lat="45.773212777868395" lon="9.022793069703052"><ele>353.5</ele><time>2026-04-25T11:56:46.819Z</time></trkpt><trkpt lat="45.77322920031635" lon="9.022892846352175"><ele>354.0</ele><time>2026-04-25T11:56:47.819Z</time></trkpt><trkpt lat="45.773251785892036" lon="9.022999137073752"><ele>354.5</ele><time>2026-04-25T11:56:48.819Z</time></trkpt><trkpt lat="45.773295794475565" lon="9.023096051052182"><ele>355.0</ele><time>2026-04-25T11:56:49.819Z</time></trkpt><trkpt lat="45.773338774879235" lon="9.023198567842968"><ele>355.0</ele><time>2026-04-25T11:56:50.819Z</time></trkpt><trkpt lat="45.77336928634188" lon="9.023310888656132"><ele>355.0</ele><time>2026-04-25T11:56:51.819Z</time></trkpt><trkpt lat="45.773435347968736" lon="9.023390503184906"><ele>355.0</ele><time>2026-04-25T11:56:52.819Z</time></trkpt><trkpt lat="45.77347115625917" lon="9.023498371800448"><ele>355.0</ele><time>2026-04-25T11:56:53.819Z</time></trkpt><trkpt lat="45.77352870166152" lon="9.023605490156331"><ele>355.0</ele><time>2026-04-25T11:56:54.819Z</time></trkpt><trkpt lat="45.77358434168496" lon="9.023706604950938"><ele>355.0</ele><time>2026-04-25T11:56:55.819Z</time></trkpt><trkpt lat="45.77363651258537" lon="9.023809399982545"><ele>355.0</ele><time>2026-04-25T11:56:56.819Z</time></trkpt><trkpt lat="45.77368975551268" lon="9.023902269668602"><ele>355.0</ele><time>2026-04-25T11:56:57.819Z</time></trkpt><trkpt lat="45.77375003760007" lon="9.024004047919535"><ele>355.0</ele><time>2026-04-25T11:56:58.819Z</time></trkpt><trkpt lat="45.77382348946846" lon="9.024116024074857"><ele>355.0</ele><time>2026-04-25T11:56:59.819Z</time></trkpt><trkpt lat="45.77390231781532" lon="9.024246125128451"><ele>355.0</ele><time>2026-04-25T11:57:00.819Z</time></trkpt><trkpt lat="45.77393789943602" lon="9.024399588689343"><ele>355.0</ele><time>2026-04-25T11:57:01.819Z</time></trkpt><trkpt lat="45.774010408670534" lon="9.024534904752988"><ele>355.0</ele><time>2026-04-25T11:57:02.819Z</time></trkpt><trkpt lat="45.77408340058079" lon="9.024666838531191"><ele>355.0</ele><time>2026-04-25T11:57:03.82Z</time></trkpt><trkpt lat="45.77416080353813" lon="9.024805158630953"><ele>355.0</ele><time>2026-04-25T11:57:04.82Z</time></trkpt><trkpt lat="45.77424065696004" lon="9.024948914891656"><ele>355.5</ele><time>2026-04-25T11:57:05.82Z</time></trkpt><trkpt lat="45.77431964696346" lon="9.02509328637341"><ele>356.0</ele><time>2026-04-25T11:57:06.82Z</time></trkpt><trkpt lat="45.774401631684384" lon="9.025236059144067"><ele>356.5</ele><time>2026-04-25T11:57:07.82Z</time></trkpt><trkpt lat="45.774480975630965" lon="9.025374902640218"><ele>357.0</ele><time>2026-04-25T11:57:08.82Z</time></trkpt><trkpt lat="45.77456061075033" lon="9.025512071288643"><ele>357.0</ele><time>2026-04-25T11:57:09.82Z</time></trkpt><trkpt lat="45.77464220343292" lon="9.025657139784757"><ele>357.0</ele><time>2026-04-25T11:57:10.82Z</time></trkpt><trkpt lat="45.7747355622408" lon="9.025819133038121"><ele>357.0</ele><time>2026-04-25T11:57:11.82Z</time></trkpt><trkpt lat="45.77484151879853" lon="9.026000469181609"><ele>357.0</ele><time>2026-04-25T11:57:12.82Z</time></trkpt><trkpt lat="45.77496126283591" lon="9.026198777255411"><ele>355.3333333333333</ele><time>2026-04-25T11:57:13.82Z</time></trkpt><trkpt lat="45.77506606646069" lon="9.026404587041956"><ele>353.66666666666663</ele><time>2026-04-25T11:57:14.82Z</time></trkpt><trkpt lat="45.77516222270538" lon="9.026573683387973"><ele>352.0</ele><time>2026-04-25T11:57:15.82Z</time></trkpt><trkpt lat="45.775249275592216" lon="9.026738071493284"><ele>351.0</ele><time>2026-04-25T11:57:16.82Z</time></trkpt><trkpt lat="45.775336487923006" lon="9.026899746463094"><ele>350.0</ele><time>2026-04-25T11:57:17.82Z</time></trkpt><trkpt lat="45.7754213620487" lon="9.027053879412772"><ele>349.0</ele><time>2026-04-25T11:57:18.82Z</time></trkpt><trkpt lat="45.775502884911" lon="9.0272040595596"><ele>348.0</ele><time>2026-04-25T11:57:19.82Z</time></trkpt><trkpt lat="45.77558348367651" lon="9.027350558070378"><ele>347.0</ele><time>2026-04-25T11:57:20.82Z</time></trkpt><trkpt lat="45.77566349507951" lon="9.02749690699143"><ele>346.0</ele><time>2026-04-25T11:57:21.82Z</time></trkpt><trkpt lat="45.77573919127836" lon="9.02763494934788"><ele>345.0</ele><time>2026-04-25T11:57:22.82Z</time></trkpt><trkpt lat="45.775783932015365" lon="9.027781918145617"><ele>344.0</ele><time>2026-04-25T11:57:23.82Z</time></trkpt><trkpt lat="45.77585422604392" lon="9.027906274787725"><ele>344.0</ele><time>2026-04-25T11:57:24.82Z</time></trkpt><trkpt lat="45.775919684904586" lon="9.028021557994954"><ele>344.0</ele><time>2026-04-25T11:57:25.82Z</time></trkpt><trkpt lat="45.77597585482787" lon="9.028124674691991"><ele>344.0</ele><time>2026-04-25T11:57:26.82Z</time></trkpt><trkpt lat="45.776018500338154" lon="9.028210777404757"><ele>344.0</ele><time>2026-04-25T11:57:27.82Z</time></trkpt><trkpt lat="45.77604950973055" lon="9.028301754189945"><ele>344.0</ele><time>2026-04-25T11:57:28.82Z</time></trkpt><trkpt lat="45.77605942276544" lon="9.028393683904584"><ele>344.0</ele><time>2026-04-25T11:57:29.82Z</time></trkpt><trkpt lat="45.77604982987431" lon="9.028560460433397"><ele>344.0</ele><time>2026-04-25T11:57:31.82Z</time></trkpt><trkpt lat="45.776066767605805" lon="9.028651061536104"><ele>344.0</ele><time>2026-04-25T11:57:32.82Z</time></trkpt><trkpt lat="45.77616944470706" lon="9.028755816461425"><ele>344.0</ele><time>2026-04-25T11:57:34.82Z</time></trkpt><trkpt lat="45.77629178885498" lon="9.02879126797566"><ele>344.0</ele><time>2026-04-25T11:57:36.82Z</time></trkpt><trkpt lat="45.77636045526224" lon="9.028849936341597"><ele>344.0</ele><time>2026-04-25T11:57:37.817Z</time></trkpt><trkpt lat="45.776422701239134" lon="9.02894457157743"><ele>344.0</ele><time>2026-04-25T11:57:38.817Z</time></trkpt><trkpt lat="45.77647091418743" lon="9.029071534251232"><ele>344.0</ele><time>2026-04-25T11:57:39.817Z</time></trkpt><trkpt lat="45.776513710023586" lon="9.029220129933323"><ele>344.0</ele><time>2026-04-25T11:57:40.818Z</time></trkpt><trkpt lat="45.77655250349321" lon="9.029387265565779"><ele>344.0</ele><time>2026-04-25T11:57:41.817Z</time></trkpt><trkpt lat="45.77659780594214" lon="9.0295794771776"><ele>344.0</ele><time>2026-04-25T11:57:42.817Z</time></trkpt><trkpt lat="45.77663815573296" lon="9.029752532416415"><ele>344.0</ele><time>2026-04-25T11:57:43.818Z</time></trkpt><trkpt lat="45.77668107786307" lon="9.0299349404266"><ele>344.0</ele><time>2026-04-25T11:57:44.818Z</time></trkpt><trkpt lat="45.77672869600809" lon="9.030128255675466"><ele>344.0</ele><time>2026-04-25T11:57:45.818Z</time></trkpt><trkpt lat="45.7767552118174" lon="9.030331131147637"><ele>343.75</ele><time>2026-04-25T11:57:46.818Z</time></trkpt><trkpt lat="45.77679431074357" lon="9.030521426012902"><ele>343.5</ele><time>2026-04-25T11:57:47.817Z</time></trkpt><trkpt lat="45.77683083264416" lon="9.030703641560176"><ele>343.25</ele><time>2026-04-25T11:57:48.817Z</time></trkpt><trkpt lat="45.77686855381106" lon="9.030883483512376"><ele>343.0</ele><time>2026-04-25T11:57:49.817Z</time></trkpt><trkpt lat="45.776904043728486" lon="9.031054923925353"><ele>344.0</ele><time>2026-04-25T11:57:50.817Z</time></trkpt><trkpt lat="45.77693979986474" lon="9.031229182236412"><ele>345.0</ele><time>2026-04-25T11:57:51.817Z</time></trkpt><trkpt lat="45.77697823117073" lon="9.031417502500116"><ele>346.0</ele><time>2026-04-25T11:57:52.817Z</time></trkpt><trkpt lat="45.777017435832725" lon="9.031614044455823"><ele>347.0</ele><time>2026-04-25T11:57:53.817Z</time></trkpt><trkpt lat="45.777057850694334" lon="9.031816653429825"><ele>347.25</ele><time>2026-04-25T11:57:54.817Z</time></trkpt><trkpt lat="45.77709930843748" lon="9.032020234378923"><ele>347.5</ele><time>2026-04-25T11:57:55.817Z</time></trkpt><trkpt lat="45.77714296636395" lon="9.032205446241068"><ele>347.75</ele><time>2026-04-25T11:57:56.817Z</time></trkpt><trkpt lat="45.77719537838329" lon="9.032375785882076"><ele>348.0</ele><time>2026-04-25T11:57:57.817Z</time></trkpt><trkpt lat="45.777254866531614" lon="9.032531045971531"><ele>347.25</ele><time>2026-04-25T11:57:58.817Z</time></trkpt><trkpt lat="45.777332124576915" lon="9.03268175539547"><ele>346.5</ele><time>2026-04-25T11:57:59.817Z</time></trkpt><trkpt lat="45.77742736193107" lon="9.032823191641432"><ele>345.75</ele><time>2026-04-25T11:58:00.817Z</time></trkpt><trkpt lat="45.7775281844051" lon="9.03295076401029"><ele>345.0</ele><time>2026-04-25T11:58:01.817Z</time></trkpt><trkpt lat="45.7776454996671" lon="9.033082904966623"><ele>344.6666666666667</ele><time>2026-04-25T11:58:02.817Z</time></trkpt><trkpt lat="45.77777595308695" lon="9.03322753765782"><ele>344.33333333333337</ele><time>2026-04-25T11:58:03.817Z</time></trkpt><trkpt lat="45.77789964612227" lon="9.033370329021917"><ele>344.0</ele><time>2026-04-25T11:58:04.817Z</time></trkpt><trkpt lat="45.77800898162497" lon="9.033494577003168"><ele>344.0</ele><time>2026-04-25T11:58:05.817Z</time></trkpt><trkpt lat="45.77809519759786" lon="9.03362350681957"><ele>344.0</ele><time>2026-04-25T11:58:06.817Z</time></trkpt><trkpt lat="45.77819807881555" lon="9.033732333776184"><ele>344.0</ele><time>2026-04-25T11:58:07.817Z</time></trkpt><trkpt lat="45.77829868194067" lon="9.03383795396485"><ele>344.0</ele><time>2026-04-25T11:58:08.817Z</time></trkpt><trkpt lat="45.7783967824769" lon="9.03394470351948"><ele>344.0</ele><time>2026-04-25T11:58:09.817Z</time></trkpt><trkpt lat="45.77849395779409" lon="9.034051236792138"><ele>344.0</ele><time>2026-04-25T11:58:10.817Z</time></trkpt><trkpt lat="45.778590252000555" lon="9.034160171118"><ele>344.0</ele><time>2026-04-25T11:58:11.817Z</time></trkpt><trkpt lat="45.77869419618758" lon="9.034279116391678"><ele>344.0</ele><time>2026-04-25T11:58:12.817Z</time></trkpt><trkpt lat="45.7788046795047" lon="9.034409010163428"><ele>344.25</ele><time>2026-04-25T11:58:13.817Z</time></trkpt><trkpt lat="45.77891613228242" lon="9.034545423281601"><ele>344.5</ele><time>2026-04-25T11:58:14.817Z</time></trkpt><trkpt lat="45.77901720778461" lon="9.034681215916041"><ele>344.75</ele><time>2026-04-25T11:58:15.817Z</time></trkpt><trkpt lat="45.77911342209863" lon="9.034820719614238"><ele>345.0</ele><time>2026-04-25T11:58:16.817Z</time></trkpt><trkpt lat="45.77920004307431" lon="9.034971116992454"><ele>345.0</ele><time>2026-04-25T11:58:17.817Z</time></trkpt><trkpt lat="45.77928147107631" lon="9.035143900484734"><ele>345.0</ele><time>2026-04-25T11:58:18.817Z</time></trkpt><trkpt lat="45.77935242529778" lon="9.035327320010081"><ele>345.0</ele><time>2026-04-25T11:58:19.818Z</time></trkpt><trkpt lat="45.77941615387843" lon="9.035515912423042"><ele>345.0</ele><time>2026-04-25T11:58:20.818Z</time></trkpt><trkpt lat="45.77946626488477" lon="9.035701253488408"><ele>343.75</ele><time>2026-04-25T11:58:21.818Z</time></trkpt><trkpt lat="45.7795048961374" lon="9.035893384003858"><ele>342.5</ele><time>2026-04-25T11:58:22.818Z</time></trkpt><trkpt lat="45.77954748298479" lon="9.036087906993535"><ele>341.25</ele><time>2026-04-25T11:58:23.818Z</time></trkpt><trkpt lat="45.779592299545534" lon="9.036285840435902"><ele>340.0</ele><time>2026-04-25T11:58:24.818Z</time></trkpt><trkpt lat="45.779632156161554" lon="9.03648305342498"><ele>335.66666666666663</ele><time>2026-04-25T11:58:25.818Z</time></trkpt><trkpt lat="45.77967149939926" lon="9.036692234098235"><ele>331.3333333333333</ele><time>2026-04-25T11:58:26.818Z</time></trkpt><trkpt lat="45.77971423883758" lon="9.036908419281835"><ele>327.0</ele><time>2026-04-25T11:58:27.818Z</time></trkpt><trkpt lat="45.779754557790675" lon="9.037118325083432"><ele>327.0</ele><time>2026-04-25T11:58:28.818Z</time></trkpt><trkpt lat="45.779794679058654" lon="9.037315060558276"><ele>327.0</ele><time>2026-04-25T11:58:29.818Z</time></trkpt><trkpt lat="45.77983650913681" lon="9.037501124655066"><ele>327.0</ele><time>2026-04-25T11:58:30.818Z</time></trkpt><trkpt lat="45.77987272248404" lon="9.037682235949374"><ele>327.0</ele><time>2026-04-25T11:58:31.818Z</time></trkpt><trkpt lat="45.77990408917632" lon="9.037856757066255"><ele>325.25</ele><time>2026-04-25T11:58:32.818Z</time></trkpt><trkpt lat="45.77992609674928" lon="9.038023023649473"><ele>323.5</ele><time>2026-04-25T11:58:33.818Z</time></trkpt><trkpt lat="45.779949143199055" lon="9.038185517708953"><ele>321.75</ele><time>2026-04-25T11:58:34.818Z</time></trkpt><trkpt lat="45.7799648514259" lon="9.038346119263402"><ele>320.0</ele><time>2026-04-25T11:58:35.818Z</time></trkpt><trkpt lat="45.7799723161392" lon="9.038517748236076"><ele>319.2</ele><time>2026-04-25T11:58:36.818Z</time></trkpt><trkpt lat="45.77997317329075" lon="9.038683455058518"><ele>318.4</ele><time>2026-04-25T11:58:37.818Z</time></trkpt><trkpt lat="45.77996844545312" lon="9.038839444135425"><ele>317.6</ele><time>2026-04-25T11:58:38.818Z</time></trkpt><trkpt lat="45.77995968895178" lon="9.038980792046537"><ele>316.8</ele><time>2026-04-25T11:58:39.818Z</time></trkpt><trkpt lat="45.779947852321854" lon="9.039112147629222"><ele>316.0</ele><time>2026-04-25T11:58:40.818Z</time></trkpt><trkpt lat="45.77993193144857" lon="9.039229404476236"><ele>315.40000000000003</ele><time>2026-04-25T11:58:41.818Z</time></trkpt><trkpt lat="45.77991079635404" lon="9.039355705113678"><ele>314.8</ele><time>2026-04-25T11:58:42.818Z</time></trkpt><trkpt lat="45.77986152423691" lon="9.039483077822965"><ele>314.20000000000005</ele><time>2026-04-25T11:58:43.818Z</time></trkpt><trkpt lat="45.77983043172493" lon="9.039621404044059"><ele>313.6</ele><time>2026-04-25T11:58:44.818Z</time></trkpt><trkpt lat="45.779848585518835" lon="9.039765803547462"><ele>313.0</ele><time>2026-04-25T11:58:45.818Z</time></trkpt><trkpt lat="45.77989050427946" lon="9.039877314740417"><ele>313.0</ele><time>2026-04-25T11:58:46.818Z</time></trkpt><trkpt lat="45.77997380076945" lon="9.039958676662442"><ele>313.0</ele><time>2026-04-25T11:58:47.818Z</time></trkpt><trkpt lat="45.78009974788096" lon="9.04000568411367"><ele>313.0</ele><time>2026-04-25T11:58:48.818Z</time></trkpt><trkpt lat="45.78021040204846" lon="9.04011244598308"><ele>313.0</ele><time>2026-04-25T11:58:49.818Z</time></trkpt><trkpt lat="45.780312434920255" lon="9.040241795168587"><ele>317.0</ele><time>2026-04-25T11:58:50.818Z</time></trkpt><trkpt lat="45.780406110809366" lon="9.04038397890536"><ele>321.0</ele><time>2026-04-25T11:58:51.818Z</time></trkpt><trkpt lat="45.780523236087504" lon="9.040562857860088"><ele>325.0</ele><time>2026-04-25T11:58:52.818Z</time></trkpt><trkpt lat="45.78064841706973" lon="9.04073083292809"><ele>324.66666666666663</ele><time>2026-04-25T11:58:53.818Z</time></trkpt><trkpt lat="45.780799414394245" lon="9.040878348377776"><ele>324.3333333333333</ele><time>2026-04-25T11:58:54.818Z</time></trkpt><trkpt lat="45.780966703900944" lon="9.04100067221634"><ele>324.0</ele><time>2026-04-25T11:58:55.818Z</time></trkpt><trkpt lat="45.78114337225747" lon="9.041083014575"><ele>324.0</ele><time>2026-04-25T11:58:56.818Z</time></trkpt><trkpt lat="45.78131349174638" lon="9.041142089489899"><ele>324.0</ele><time>2026-04-25T11:58:57.818Z</time></trkpt><trkpt lat="45.78147701675948" lon="9.041206977458673"><ele>324.0</ele><time>2026-04-25T11:58:58.818Z</time></trkpt><trkpt lat="45.781626390343355" lon="9.041270225337975"><ele>324.0</ele><time>2026-04-25T11:58:59.818Z</time></trkpt><trkpt lat="45.7817708607372" lon="9.04132684708571"><ele>324.0</ele><time>2026-04-25T11:59:00.818Z</time></trkpt><trkpt lat="45.78190558050423" lon="9.041382428028774"><ele>324.0</ele><time>2026-04-25T11:59:01.818Z</time></trkpt><trkpt lat="45.78203550281561" lon="9.041430463738058"><ele>324.0</ele><time>2026-04-25T11:59:02.818Z</time></trkpt><trkpt lat="45.782160711511594" lon="9.041483533463225"><ele>323.75</ele><time>2026-04-25T11:59:03.818Z</time></trkpt><trkpt lat="45.78227641448815" lon="9.041529386598837"><ele>323.5</ele><time>2026-04-25T11:59:04.818Z</time></trkpt><trkpt lat="45.78238525610886" lon="9.041575074906497"><ele>323.25</ele><time>2026-04-25T11:59:05.818Z</time></trkpt><trkpt lat="45.78249407147672" lon="9.041622583061562"><ele>323.0</ele><time>2026-04-25T11:59:06.818Z</time></trkpt><trkpt lat="45.782609943876885" lon="9.041669535575313"><ele>320.25</ele><time>2026-04-25T11:59:07.818Z</time></trkpt><trkpt lat="45.78272921099378" lon="9.041716016253165"><ele>317.5</ele><time>2026-04-25T11:59:08.818Z</time></trkpt><trkpt lat="45.78283471932864" lon="9.041787846370937"><ele>314.75</ele><time>2026-04-25T11:59:09.818Z</time></trkpt><trkpt lat="45.782948786691406" lon="9.041831319217382"><ele>312.0</ele><time>2026-04-25T11:59:10.818Z</time></trkpt><trkpt lat="45.78307063431836" lon="9.041879518281219"><ele>312.0</ele><time>2026-04-25T11:59:11.818Z</time></trkpt><trkpt lat="45.78317398526648" lon="9.041920589009118"><ele>312.0</ele><time>2026-04-25T11:59:12.818Z</time></trkpt><trkpt lat="45.78326424166996" lon="9.041952850155537"><ele>312.0</ele><time>2026-04-25T11:59:13.819Z</time></trkpt><trkpt lat="45.783345114264144" lon="9.041978723503306"><ele>312.0</ele><time>2026-04-25T11:59:14.819Z</time></trkpt><trkpt lat="45.78341307104811" lon="9.04200325559781"><ele>312.0</ele><time>2026-04-25T11:59:15.819Z</time></trkpt><trkpt lat="45.78347412730243" lon="9.042026970230069"><ele>312.0</ele><time>2026-04-25T11:59:16.819Z</time></trkpt><trkpt lat="45.783572839623545" lon="9.042063651576708"><ele>312.2</ele><time>2026-04-25T11:59:18.819Z</time></trkpt><trkpt lat="45.78364294165428" lon="9.04212236868027"><ele>312.4</ele><time>2026-04-25T11:59:21.819Z</time></trkpt><trkpt lat="45.78374635402272" lon="9.042146626067336"><ele>312.6</ele><time>2026-04-25T11:59:24.819Z</time></trkpt><trkpt lat="45.783821856045336" lon="9.042180693756798"><ele>312.8</ele><time>2026-04-25T11:59:25.819Z</time></trkpt><trkpt lat="45.78391769961588" lon="9.042234453473348"><ele>313.0</ele><time>2026-04-25T11:59:26.819Z</time></trkpt><trkpt lat="45.78403840744294" lon="9.042283225939258"><ele>313.0</ele><time>2026-04-25T11:59:27.819Z</time></trkpt><trkpt lat="45.784162872349945" lon="9.042329647916857"><ele>313.0</ele><time>2026-04-25T11:59:28.819Z</time></trkpt><trkpt lat="45.784290365431175" lon="9.042378834309346"><ele>313.0</ele><time>2026-04-25T11:59:29.819Z</time></trkpt><trkpt lat="45.784426657932826" lon="9.042437929526754"><ele>313.0</ele><time>2026-04-25T11:59:30.819Z</time></trkpt><trkpt lat="45.78456676646683" lon="9.042494427180623"><ele>314.0</ele><time>2026-04-25T11:59:31.819Z</time></trkpt><trkpt lat="45.78471027447422" lon="9.042552911976994"><ele>315.0</ele><time>2026-04-25T11:59:32.819Z</time></trkpt><trkpt lat="45.784861478072955" lon="9.042611327769892"><ele>316.0</ele><time>2026-04-25T11:59:33.819Z</time></trkpt><trkpt lat="45.78501217481881" lon="9.042671263578637"><ele>316.0</ele><time>2026-04-25T11:59:34.819Z</time></trkpt><trkpt lat="45.785167408432606" lon="9.042733599535909"><ele>316.0</ele><time>2026-04-25T11:59:35.819Z</time></trkpt><trkpt lat="45.78532041405732" lon="9.04279686557396"><ele>316.0</ele><time>2026-04-25T11:59:36.819Z</time></trkpt><trkpt lat="45.785477819856496" lon="9.042859275029029"><ele>316.3333333333333</ele><time>2026-04-25T11:59:37.819Z</time></trkpt><trkpt lat="45.78563066638127" lon="9.042917639632835"><ele>316.6666666666667</ele><time>2026-04-25T11:59:38.819Z</time></trkpt><trkpt lat="45.78578517220434" lon="9.042979378395533"><ele>317.0</ele><time>2026-04-25T11:59:39.819Z</time></trkpt><trkpt lat="45.78593855903599" lon="9.043041386742543"><ele>317.75</ele><time>2026-04-25T11:59:40.819Z</time></trkpt><trkpt lat="45.786084883831506" lon="9.043103103637279"><ele>318.5</ele><time>2026-04-25T11:59:41.819Z</time></trkpt><trkpt lat="45.78622540156295" lon="9.043161832069895"><ele>319.25</ele><time>2026-04-25T11:59:42.819Z</time></trkpt><trkpt lat="45.78636696315012" lon="9.043212286786419"><ele>320.0</ele><time>2026-04-25T11:59:43.817Z</time></trkpt><trkpt lat="45.78650410166179" lon="9.043263795004417"><ele>320.0</ele><time>2026-04-25T11:59:44.817Z</time></trkpt><trkpt lat="45.786633270317346" lon="9.043316018852467"><ele>320.0</ele><time>2026-04-25T11:59:45.817Z</time></trkpt><trkpt lat="45.7867562486069" lon="9.043371797066662"><ele>320.0</ele><time>2026-04-25T11:59:46.817Z</time></trkpt><trkpt lat="45.78687010134311" lon="9.043444824146656"><ele>320.0</ele><time>2026-04-25T11:59:47.818Z</time></trkpt><trkpt lat="45.78697150113243" lon="9.043566111842662"><ele>320.75</ele><time>2026-04-25T11:59:48.818Z</time></trkpt><trkpt lat="45.7870453029273" lon="9.043734433580926"><ele>321.5</ele><time>2026-04-25T11:59:49.817Z</time></trkpt><trkpt lat="45.78706327520321" lon="9.043945302753572"><ele>322.25</ele><time>2026-04-25T11:59:50.817Z</time></trkpt><trkpt lat="45.78707766652895" lon="9.04416296837759"><ele>323.0</ele><time>2026-04-25T11:59:51.817Z</time></trkpt><trkpt lat="45.78709123540639" lon="9.04437723998359"><ele>323.0</ele><time>2026-04-25T11:59:52.817Z</time></trkpt><trkpt lat="45.787106183161306" lon="9.044593987063049"><ele>323.0</ele><time>2026-04-25T11:59:53.817Z</time></trkpt><trkpt lat="45.78712286220364" lon="9.04481043559677"><ele>323.0</ele><time>2026-04-25T11:59:54.817Z</time></trkpt><trkpt lat="45.78713972907497" lon="9.045026504200964"><ele>321.0</ele><time>2026-04-25T11:59:55.817Z</time></trkpt><trkpt lat="45.78715657223677" lon="9.045240370391255"><ele>319.0</ele><time>2026-04-25T11:59:56.817Z</time></trkpt><trkpt lat="45.78717362620735" lon="9.045465110165377"><ele>317.0</ele><time>2026-04-25T11:59:57.817Z</time></trkpt><trkpt lat="45.787191482520164" lon="9.04569802592075"><ele>316.0</ele><time>2026-04-25T11:59:58.817Z</time></trkpt><trkpt lat="45.787210424385" lon="9.045939008382218"><ele>315.0</ele><time>2026-04-25T11:59:59.817Z</time></trkpt><trkpt lat="45.78722999158315" lon="9.046184564101246"><ele>314.0</ele><time>2026-04-25T12:00:00.817Z</time></trkpt><trkpt lat="45.78724863240517" lon="9.046432701705102"><ele>313.6666666666667</ele><time>2026-04-25T12:00:01.817Z</time></trkpt><trkpt lat="45.78726757673814" lon="9.046685349234103"><ele>313.3333333333333</ele><time>2026-04-25T12:00:02.817Z</time></trkpt><trkpt lat="45.787284861708144" lon="9.046913291181031"><ele>313.0</ele><time>2026-04-25T12:00:03.817Z</time></trkpt><trkpt lat="45.78730064447916" lon="9.047123146420418"><ele>313.0</ele><time>2026-04-25T12:00:04.817Z</time></trkpt><trkpt lat="45.78731479532831" lon="9.04731642332233"><ele>313.0</ele><time>2026-04-25T12:00:05.817Z</time></trkpt><trkpt lat="45.787327390225585" lon="9.047487777802372"><ele>313.0</ele><time>2026-04-25T12:00:06.817Z</time></trkpt><trkpt lat="45.78733856275467" lon="9.047640669087794"><ele>313.0</ele><time>2026-04-25T12:00:07.818Z</time></trkpt><trkpt lat="45.78737546480776" lon="9.047755609585455"><ele>313.4</ele><time>2026-04-25T12:00:08.818Z</time></trkpt><trkpt lat="45.78737699283616" lon="9.04785240455716"><ele>313.8</ele><time>2026-04-25T12:00:09.818Z</time></trkpt><trkpt lat="45.787362382962485" lon="9.047989811124713"><ele>314.2</ele><time>2026-04-25T12:00:12.818Z</time></trkpt><trkpt lat="45.78729710813263" lon="9.048156602497313"><ele>314.6</ele><time>2026-04-25T12:00:14.818Z</time></trkpt><trkpt lat="45.78728213410706" lon="9.048286247178883"><ele>315.0</ele><time>2026-04-25T12:00:15.818Z</time></trkpt><trkpt lat="45.78729832323499" lon="9.048399408644826"><ele>315.5</ele><time>2026-04-25T12:00:16.818Z</time></trkpt><trkpt lat="45.78734482915816" lon="9.048539096767582"><ele>316.0</ele><time>2026-04-25T12:00:17.818Z</time></trkpt><trkpt lat="45.787390399732395" lon="9.048682249771241"><ele>316.5</ele><time>2026-04-25T12:00:18.818Z</time></trkpt><trkpt lat="45.78743190881492" lon="9.048867415047667"><ele>317.0</ele><time>2026-04-25T12:00:19.818Z</time></trkpt><trkpt lat="45.78745727813907" lon="9.049100004223744"><ele>318.33333333333337</ele><time>2026-04-25T12:00:20.818Z</time></trkpt><trkpt lat="45.787470991911306" lon="9.04936300043893"><ele>319.6666666666667</ele><time>2026-04-25T12:00:21.818Z</time></trkpt><trkpt lat="45.787493039281564" lon="9.049666591718735"><ele>321.0</ele><time>2026-04-25T12:00:22.818Z</time></trkpt><trkpt lat="45.78752222343575" lon="9.050007498716328"><ele>321.0</ele><time>2026-04-25T12:00:23.818Z</time></trkpt><trkpt lat="45.78755404798738" lon="9.050347543909606"><ele>321.0</ele><time>2026-04-25T12:00:24.818Z</time></trkpt><trkpt lat="45.78757771158696" lon="9.050652265220554"><ele>320.3333333333333</ele><time>2026-04-25T12:00:25.818Z</time></trkpt><trkpt lat="45.7875992069679" lon="9.050952103202805"><ele>319.66666666666663</ele><time>2026-04-25T12:00:26.818Z</time></trkpt><trkpt lat="45.78762635802168" lon="9.051240235234337"><ele>319.0</ele><time>2026-04-25T12:00:27.818Z</time></trkpt><trkpt lat="45.78765561569659" lon="9.051518397372474"><ele>318.3333333333333</ele><time>2026-04-25T12:00:28.818Z</time></trkpt><trkpt lat="45.78768091051155" lon="9.051779844626797"><ele>317.6666666666667</ele><time>2026-04-25T12:00:29.818Z</time></trkpt><trkpt lat="45.78767510449796" lon="9.052051756101474"><ele>317.0</ele><time>2026-04-25T12:00:30.818Z</time></trkpt><trkpt lat="45.787694724439724" lon="9.05230173193169"><ele>317.33333333333337</ele><time>2026-04-25T12:00:31.818Z</time></trkpt><trkpt lat="45.787713475280015" lon="9.052539512585145"><ele>317.6666666666667</ele><time>2026-04-25T12:00:32.818Z</time></trkpt><trkpt lat="45.78773105218416" lon="9.052759842273614"><ele>318.0</ele><time>2026-04-25T12:00:33.818Z</time></trkpt><trkpt lat="45.78774796146828" lon="9.052974865182918"><ele>318.0</ele><time>2026-04-25T12:00:34.818Z</time></trkpt><trkpt lat="45.787755678324736" lon="9.053215473313584"><ele>318.0</ele><time>2026-04-25T12:00:35.818Z</time></trkpt><trkpt lat="45.78777108710685" lon="9.053464836383755"><ele>318.0</ele><time>2026-04-25T12:00:36.818Z</time></trkpt><trkpt lat="45.78778944982263" lon="9.05370042894624"><ele>318.0</ele><time>2026-04-25T12:00:37.818Z</time></trkpt><trkpt lat="45.78780624678028" lon="9.05391517491145"><ele>318.0</ele><time>2026-04-25T12:00:38.818Z</time></trkpt><trkpt lat="45.787823195728876" lon="9.054115501434836"><ele>318.0</ele><time>2026-04-25T12:00:39.818Z</time></trkpt><trkpt lat="45.78784461926835" lon="9.054300070397815"><ele>318.0</ele><time>2026-04-25T12:00:40.818Z</time></trkpt><trkpt lat="45.787865629622125" lon="9.054475215631069"><ele>318.0</ele><time>2026-04-25T12:00:41.818Z</time></trkpt><trkpt lat="45.78788368012438" lon="9.054642715970155"><ele>318.0</ele><time>2026-04-25T12:00:42.818Z</time></trkpt><trkpt lat="45.787896630238194" lon="9.054800970278357"><ele>318.0</ele><time>2026-04-25T12:00:43.818Z</time></trkpt><trkpt lat="45.787913358764634" lon="9.05497069440406"><ele>318.0</ele><time>2026-04-25T12:00:44.818Z</time></trkpt><trkpt lat="45.787935402266534" lon="9.055176067368313"><ele>318.3333333333333</ele><time>2026-04-25T12:00:45.818Z</time></trkpt><trkpt lat="45.78795774436636" lon="9.05541171164695"><ele>318.66666666666663</ele><time>2026-04-25T12:00:46.818Z</time></trkpt><trkpt lat="45.78798204113254" lon="9.055659448709415"><ele>319.0</ele><time>2026-04-25T12:00:47.818Z</time></trkpt><trkpt lat="45.788002657875744" lon="9.055901276565026"><ele>319.0</ele><time>2026-04-25T12:00:48.818Z</time></trkpt><trkpt lat="45.78802678296399" lon="9.056152780892653"><ele>319.0</ele><time>2026-04-25T12:00:49.818Z</time></trkpt><trkpt lat="45.78804725560412" lon="9.056426024934407"><ele>319.0</ele><time>2026-04-25T12:00:50.818Z</time></trkpt><trkpt lat="45.78806505110901" lon="9.056692438245571"><ele>317.66666666666663</ele><time>2026-04-25T12:00:51.818Z</time></trkpt><trkpt lat="45.788084448730565" lon="9.056949364176145"><ele>316.3333333333333</ele><time>2026-04-25T12:00:52.818Z</time></trkpt><trkpt lat="45.788100336636646" lon="9.057201616360144"><ele>315.0</ele><time>2026-04-25T12:00:53.818Z</time></trkpt><trkpt lat="45.78811849553979" lon="9.05743871757949"><ele>315.3333333333333</ele><time>2026-04-25T12:00:54.818Z</time></trkpt><trkpt lat="45.78811736971519" lon="9.057674411644381"><ele>315.66666666666663</ele><time>2026-04-25T12:00:55.818Z</time></trkpt><trkpt lat="45.788123223956276" lon="9.057902205512201"><ele>316.0</ele><time>2026-04-25T12:00:56.818Z</time></trkpt><trkpt lat="45.788121110614036" lon="9.058126260532902"><ele>317.0</ele><time>2026-04-25T12:00:57.818Z</time></trkpt><trkpt lat="45.78811067876034" lon="9.058348434204742"><ele>318.0</ele><time>2026-04-25T12:00:58.818Z</time></trkpt><trkpt lat="45.7881176633309" lon="9.058574545383664"><ele>319.0</ele><time>2026-04-25T12:00:59.818Z</time></trkpt><trkpt lat="45.78809229092934" lon="9.058819068105235"><ele>319.0</ele><time>2026-04-25T12:01:00.818Z</time></trkpt><trkpt lat="45.788064497475176" lon="9.059091492343736"><ele>319.0</ele><time>2026-04-25T12:01:01.818Z</time></trkpt><trkpt lat="45.78802351797552" lon="9.059360778448303"><ele>319.0</ele><time>2026-04-25T12:01:02.819Z</time></trkpt><trkpt lat="45.787914156813365" lon="9.05959350937869"><ele>319.0</ele><time>2026-04-25T12:01:03.819Z</time></trkpt><trkpt lat="45.78789015981941" lon="9.05985626429053"><ele>319.0</ele><time>2026-04-25T12:01:04.819Z</time></trkpt><trkpt lat="45.787891673306184" lon="9.060132423463683"><ele>319.0</ele><time>2026-04-25T12:01:05.819Z</time></trkpt><trkpt lat="45.7879110799157" lon="9.060355627704844"><ele>318.3333333333333</ele><time>2026-04-25T12:01:06.819Z</time></trkpt><trkpt lat="45.78794992092476" lon="9.060579453435446"><ele>317.6666666666667</ele><time>2026-04-25T12:01:07.819Z</time></trkpt><trkpt lat="45.78801024806061" lon="9.060795505469791"><ele>317.0</ele><time>2026-04-25T12:01:08.819Z</time></trkpt><trkpt lat="45.78807940552929" lon="9.060993136965294"><ele>317.0</ele><time>2026-04-25T12:01:09.819Z</time></trkpt><trkpt lat="45.788180046911236" lon="9.061165761773003"><ele>317.0</ele><time>2026-04-25T12:01:10.819Z</time></trkpt><trkpt lat="45.78828379695123" lon="9.061327501182562"><ele>317.0</ele><time>2026-04-25T12:01:11.819Z</time></trkpt><trkpt lat="45.788371134421965" lon="9.061498576265693"><ele>317.5</ele><time>2026-04-25T12:01:12.819Z</time></trkpt><trkpt lat="45.7884696440134" lon="9.061653953804358"><ele>318.0</ele><time>2026-04-25T12:01:13.819Z</time></trkpt><trkpt lat="45.78856219100143" lon="9.061795719554095"><ele>318.5</ele><time>2026-04-25T12:01:14.819Z</time></trkpt><trkpt lat="45.788648976998196" lon="9.06192906734214"><ele>319.0</ele><time>2026-04-25T12:01:15.819Z</time></trkpt><trkpt lat="45.788732322812045" lon="9.062057908686116"><ele>319.25</ele><time>2026-04-25T12:01:16.819Z</time></trkpt><trkpt lat="45.78878888129372" lon="9.06219567341786"><ele>319.5</ele><time>2026-04-25T12:01:17.819Z</time></trkpt><trkpt lat="45.78886888012817" lon="9.06231790128134"><ele>319.75</ele><time>2026-04-25T12:01:18.819Z</time></trkpt><trkpt lat="45.78895359765892" lon="9.06243956712511"><ele>320.0</ele><time>2026-04-25T12:01:19.819Z</time></trkpt><trkpt lat="45.78903739393842" lon="9.062550878794632"><ele>320.0</ele><time>2026-04-25T12:01:20.819Z</time></trkpt><trkpt lat="45.789117428075215" lon="9.062654101221503"><ele>320.0</ele><time>2026-04-25T12:01:21.819Z</time></trkpt><trkpt lat="45.78919595461833" lon="9.062749411725655"><ele>320.0</ele><time>2026-04-25T12:01:22.819Z</time></trkpt><trkpt lat="45.78927998062597" lon="9.062840863464654"><ele>320.0</ele><time>2026-04-25T12:01:23.819Z</time></trkpt><trkpt lat="45.789359137193664" lon="9.062946243540908"><ele>320.0</ele><time>2026-04-25T12:01:24.819Z</time></trkpt><trkpt lat="45.78943871814828" lon="9.063052888297143"><ele>320.2</ele><time>2026-04-25T12:01:25.819Z</time></trkpt><trkpt lat="45.78951761540363" lon="9.06316579472827"><ele>320.4</ele><time>2026-04-25T12:01:26.819Z</time></trkpt><trkpt lat="45.78959019521968" lon="9.063282204706576"><ele>320.6</ele><time>2026-04-25T12:01:27.819Z</time></trkpt><trkpt lat="45.789663835524756" lon="9.063397754853028"><ele>320.8</ele><time>2026-04-25T12:01:28.819Z</time></trkpt><trkpt lat="45.78974208744231" lon="9.063519058509481"><ele>321.0</ele><time>2026-04-25T12:01:29.819Z</time></trkpt><trkpt lat="45.78981568617699" lon="9.063637333563086"><ele>321.0</ele><time>2026-04-25T12:01:30.819Z</time></trkpt><trkpt lat="45.78988768417666" lon="9.063750742733841"><ele>321.0</ele><time>2026-04-25T12:01:31.819Z</time></trkpt><trkpt lat="45.78995064636129" lon="9.063848561963349"><ele>321.0</ele><time>2026-04-25T12:01:32.819Z</time></trkpt><trkpt lat="45.79000782822888" lon="9.06393728171751"><ele>321.0</ele><time>2026-04-25T12:01:33.819Z</time></trkpt><trkpt lat="45.79005957042225" lon="9.06402378276785"><ele>321.0</ele><time>2026-04-25T12:01:34.819Z</time></trkpt><trkpt lat="45.79010757956721" lon="9.064108784449102"><ele>321.0</ele><time>2026-04-25T12:01:35.819Z</time></trkpt><trkpt lat="45.790155704925354" lon="9.064189171367275"><ele>321.5</ele><time>2026-04-25T12:01:36.819Z</time></trkpt><trkpt lat="45.790203824576636" lon="9.064254954947662"><ele>322.0</ele><time>2026-04-25T12:01:37.819Z</time></trkpt><trkpt lat="45.790274603680274" lon="9.064364716586534"><ele>322.5</ele><time>2026-04-25T12:01:39.819Z</time></trkpt><trkpt lat="45.79031463974962" lon="9.064440470503358"><ele>323.0</ele><time>2026-04-25T12:01:41.819Z</time></trkpt><trkpt lat="45.790356587865396" lon="9.06451318197704"><ele>323.5</ele><time>2026-04-25T12:01:44.819Z</time></trkpt><trkpt lat="45.79040307744348" lon="9.064581015474543"><ele>324.0</ele><time>2026-04-25T12:02:10.817Z</time></trkpt><trkpt lat="45.79048393951287" lon="9.064671092333105"><ele>324.0</ele><time>2026-04-25T12:02:13.817Z</time></trkpt><trkpt lat="45.79054991448971" lon="9.064811964662841"><ele>324.0</ele><time>2026-04-25T12:02:15.817Z</time></trkpt><trkpt lat="45.79060815368119" lon="9.064901824819989"><ele>324.0</ele><time>2026-04-25T12:02:16.817Z</time></trkpt><trkpt lat="45.79067713801589" lon="9.065008265104701"><ele>324.0</ele><time>2026-04-25T12:02:17.817Z</time></trkpt><trkpt lat="45.790741784737385" lon="9.065111050579342"><ele>324.0</ele><time>2026-04-25T12:02:18.817Z</time></trkpt><trkpt lat="45.79080963430089" lon="9.065221621356342"><ele>324.0</ele><time>2026-04-25T12:02:19.817Z</time></trkpt><trkpt lat="45.79087191811736" lon="9.065323121856633"><ele>324.0</ele><time>2026-04-25T12:02:20.817Z</time></trkpt><trkpt lat="45.79093941131658" lon="9.065433111853602"><ele>324.0</ele><time>2026-04-25T12:02:21.817Z</time></trkpt><trkpt lat="45.79099920070319" lon="9.065551421814266"><ele>324.0</ele><time>2026-04-25T12:02:22.817Z</time></trkpt><trkpt lat="45.79106686019016" lon="9.065657760397725"><ele>324.0</ele><time>2026-04-25T12:02:23.817Z</time></trkpt><trkpt lat="45.79113813329294" lon="9.065772220911"><ele>323.5</ele><time>2026-04-25T12:02:24.817Z</time></trkpt><trkpt lat="45.79121098099377" lon="9.065885896348242"><ele>323.0</ele><time>2026-04-25T12:02:25.817Z</time></trkpt><trkpt lat="45.79129491556786" lon="9.066016727953938"><ele>322.5</ele><time>2026-04-25T12:02:26.818Z</time></trkpt><trkpt lat="45.791385993029714" lon="9.06615245124357"><ele>322.0</ele><time>2026-04-25T12:02:27.818Z</time></trkpt><trkpt lat="45.79147840092527" lon="9.066297039586939"><ele>322.0</ele><time>2026-04-25T12:02:28.818Z</time></trkpt><trkpt lat="45.791570433585214" lon="9.066446898408365"><ele>322.0</ele><time>2026-04-25T12:02:29.818Z</time></trkpt><trkpt lat="45.79165871112466" lon="9.066588657177563"><ele>322.0</ele><time>2026-04-25T12:02:30.818Z</time></trkpt><trkpt lat="45.791748828063994" lon="9.066730538592203"><ele>322.0</ele><time>2026-04-25T12:02:31.818Z</time></trkpt><trkpt lat="45.79182975281764" lon="9.066871430136864"><ele>322.75</ele><time>2026-04-25T12:02:32.818Z</time></trkpt><trkpt lat="45.79190430053994" lon="9.067027020499816"><ele>323.5</ele><time>2026-04-25T12:02:33.818Z</time></trkpt><trkpt lat="45.791975335828695" lon="9.067202389743466"><ele>324.25</ele><time>2026-04-25T12:02:34.818Z</time></trkpt><trkpt lat="45.792038592552" lon="9.067389235572524"><ele>325.0</ele><time>2026-04-25T12:02:35.818Z</time></trkpt><trkpt lat="45.79208124891244" lon="9.067580403114661"><ele>325.0</ele><time>2026-04-25T12:02:36.818Z</time></trkpt><trkpt lat="45.79211000362265" lon="9.06777801432831"><ele>325.0</ele><time>2026-04-25T12:02:37.818Z</time></trkpt><trkpt lat="45.792129053103736" lon="9.067966625087925"><ele>325.0</ele><time>2026-04-25T12:02:38.818Z</time></trkpt><trkpt lat="45.79212727638311" lon="9.06815510508923"><ele>325.0</ele><time>2026-04-25T12:02:39.818Z</time></trkpt><trkpt lat="45.79211896841955" lon="9.068348447110177"><ele>325.0</ele><time>2026-04-25T12:02:40.818Z</time></trkpt><trkpt lat="45.79210173299532" lon="9.068544248874021"><ele>325.0</ele><time>2026-04-25T12:02:41.818Z</time></trkpt><trkpt lat="45.79207430822734" lon="9.068751457117132"><ele>325.0</ele><time>2026-04-25T12:02:42.818Z</time></trkpt><trkpt lat="45.79201940268832" lon="9.069155566859044"><ele>325.0</ele><time>2026-04-25T12:02:44.818Z</time></trkpt><trkpt lat="45.79199112016695" lon="9.06934571571496"><ele>325.0</ele><time>2026-04-25T12:02:45.818Z</time></trkpt><trkpt lat="45.79196182120268" lon="9.069536231494245"><ele>325.0</ele><time>2026-04-25T12:02:46.818Z</time></trkpt><trkpt lat="45.79192817668623" lon="9.069762812657919"><ele>325.0</ele><time>2026-04-25T12:02:47.818Z</time></trkpt><trkpt lat="45.79189442277931" lon="9.070001871865031"><ele>324.0</ele><time>2026-04-25T12:02:48.818Z</time></trkpt><trkpt lat="45.7918415476233" lon="9.070228675331766"><ele>323.0</ele><time>2026-04-25T12:02:49.818Z</time></trkpt><trkpt lat="45.79180432263643" lon="9.070453813308363"><ele>322.0</ele><time>2026-04-25T12:02:50.818Z</time></trkpt><trkpt lat="45.791767032409886" lon="9.0706799968889"><ele>320.25</ele><time>2026-04-25T12:02:51.818Z</time></trkpt><trkpt lat="45.791732128481414" lon="9.070895986542453"><ele>318.5</ele><time>2026-04-25T12:02:52.818Z</time></trkpt><trkpt lat="45.79170078736382" lon="9.071089929106252"><ele>316.75</ele><time>2026-04-25T12:02:53.818Z</time></trkpt><trkpt lat="45.791668016959555" lon="9.071290119287841"><ele>315.0</ele><time>2026-04-25T12:02:54.818Z</time></trkpt><trkpt lat="45.791634181128025" lon="9.071494811993299"><ele>314.5</ele><time>2026-04-25T12:02:55.818Z</time></trkpt><trkpt lat="45.79159944445774" lon="9.07170412510084"><ele>314.0</ele><time>2026-04-25T12:02:56.818Z</time></trkpt><trkpt lat="45.79156911939485" lon="9.07190856990272"><ele>313.5</ele><time>2026-04-25T12:02:57.818Z</time></trkpt><trkpt lat="45.791530245811636" lon="9.072096861208758"><ele>313.0</ele><time>2026-04-25T12:02:58.818Z</time></trkpt><trkpt lat="45.79149659432955" lon="9.07227911391652"><ele>313.0</ele><time>2026-04-25T12:02:59.818Z</time></trkpt><trkpt lat="45.79144314183592" lon="9.072471408686853"><ele>313.0</ele><time>2026-04-25T12:03:00.818Z</time></trkpt><trkpt lat="45.79141558983104" lon="9.072644600713529"><ele>313.0</ele><time>2026-04-25T12:03:01.818Z</time></trkpt><trkpt lat="45.791396792488264" lon="9.072814471095464"><ele>313.0</ele><time>2026-04-25T12:03:02.818Z</time></trkpt><trkpt lat="45.791382966837205" lon="9.07297745007369"><ele>313.0</ele><time>2026-04-25T12:03:03.818Z</time></trkpt><trkpt lat="45.79137363003108" lon="9.073131672616311"><ele>313.0</ele><time>2026-04-25T12:03:04.818Z</time></trkpt><trkpt lat="45.79136777086088" lon="9.073285330118024"><ele>313.0</ele><time>2026-04-25T12:03:05.818Z</time></trkpt><trkpt lat="45.7913699880344" lon="9.073450378755854"><ele>313.0</ele><time>2026-04-25T12:03:06.818Z</time></trkpt><trkpt lat="45.79136567182135" lon="9.073618800363569"><ele>313.0</ele><time>2026-04-25T12:03:07.818Z</time></trkpt><trkpt lat="45.79136497862594" lon="9.073765042962746"><ele>312.66666666666663</ele><time>2026-04-25T12:03:08.818Z</time></trkpt><trkpt lat="45.79136237595521" lon="9.073886655447097"><ele>312.3333333333333</ele><time>2026-04-25T12:03:09.818Z</time></trkpt><trkpt lat="45.79135947327726" lon="9.073994262727515"><ele>312.0</ele><time>2026-04-25T12:03:10.818Z</time></trkpt><trkpt lat="45.791351692847925" lon="9.074100777741117"><ele>311.6666666666667</ele><time>2026-04-25T12:03:11.818Z</time></trkpt><trkpt lat="45.79133313079365" lon="9.074204332706108"><ele>311.33333333333337</ele><time>2026-04-25T12:03:12.818Z</time></trkpt><trkpt lat="45.79132303445253" lon="9.074382689926622"><ele>311.0</ele><time>2026-04-25T12:03:14.818Z</time></trkpt><trkpt lat="45.79133628053267" lon="9.074484275423144"><ele>310.8</ele><time>2026-04-25T12:03:15.818Z</time></trkpt><trkpt lat="45.791355226511904" lon="9.074599294820036"><ele>310.6</ele><time>2026-04-25T12:03:16.818Z</time></trkpt><trkpt lat="45.791372016784194" lon="9.074722080977907"><ele>310.4</ele><time>2026-04-25T12:03:17.818Z</time></trkpt><trkpt lat="45.791371444415965" lon="9.074863569890681"><ele>310.2</ele><time>2026-04-25T12:03:18.818Z</time></trkpt><trkpt lat="45.79136503220858" lon="9.075013211721156"><ele>310.0</ele><time>2026-04-25T12:03:19.818Z</time></trkpt><trkpt lat="45.791343207155734" lon="9.075161007844924"><ele>310.0</ele><time>2026-04-25T12:03:20.819Z</time></trkpt><trkpt lat="45.79131036022894" lon="9.075330930051873"><ele>310.0</ele><time>2026-04-25T12:03:21.819Z</time></trkpt><trkpt lat="45.7913027081815" lon="9.075471267287615"><ele>310.0</ele><time>2026-04-25T12:03:22.819Z</time></trkpt><trkpt lat="45.791296045227114" lon="9.075600594314196"><ele>310.0</ele><time>2026-04-25T12:03:23.819Z</time></trkpt><trkpt lat="45.79129268924289" lon="9.075726696822924"><ele>310.0</ele><time>2026-04-25T12:03:24.819Z</time></trkpt><trkpt lat="45.791294224713354" lon="9.075841463584908"><ele>310.0</ele><time>2026-04-25T12:03:25.819Z</time></trkpt><trkpt lat="45.79129694271218" lon="9.075995552441675"><ele>310.0</ele><time>2026-04-25T12:03:27.819Z</time></trkpt><trkpt lat="45.791289979758" lon="9.07608901321442"><ele>310.0</ele><time>2026-04-25T12:03:28.819Z</time></trkpt><trkpt lat="45.79128511831524" lon="9.076189307908425"><ele>310.0</ele><time>2026-04-25T12:03:29.819Z</time></trkpt><trkpt lat="45.791284109180594" lon="9.076327017597263"><ele>310.0</ele><time>2026-04-25T12:03:30.819Z</time></trkpt><trkpt lat="45.79127681991591" lon="9.076516261894042"><ele>310.0</ele><time>2026-04-25T12:03:31.819Z</time></trkpt><trkpt lat="45.79124987788895" lon="9.076744107193296"><ele>310.0</ele><time>2026-04-25T12:03:32.819Z</time></trkpt><trkpt lat="45.791234077818686" lon="9.07697544154921"><ele>310.0</ele><time>2026-04-25T12:03:33.819Z</time></trkpt><trkpt lat="45.791235582112655" lon="9.07716728624484"><ele>310.0</ele><time>2026-04-25T12:03:34.819Z</time></trkpt><trkpt lat="45.79123384511112" lon="9.077346912400783"><ele>310.0</ele><time>2026-04-25T12:03:35.819Z</time></trkpt><trkpt lat="45.79122332413373" lon="9.077530463888385"><ele>310.0</ele><time>2026-04-25T12:03:36.819Z</time></trkpt><trkpt lat="45.79121463961005" lon="9.077715066221122"><ele>310.0</ele><time>2026-04-25T12:03:37.819Z</time></trkpt><trkpt lat="45.79119446246368" lon="9.077890730373811"><ele>309.5</ele><time>2026-04-25T12:03:38.819Z</time></trkpt><trkpt lat="45.79115975722816" lon="9.078060854321379"><ele>309.0</ele><time>2026-04-25T12:03:39.819Z</time></trkpt><trkpt lat="45.79115495990528" lon="9.078220565424479"><ele>308.5</ele><time>2026-04-25T12:03:40.819Z</time></trkpt><trkpt lat="45.79114325181006" lon="9.078391050429783"><ele>308.0</ele><time>2026-04-25T12:03:41.819Z</time></trkpt><trkpt lat="45.79112699559354" lon="9.078587361113172"><ele>307.6666666666667</ele><time>2026-04-25T12:03:42.819Z</time></trkpt><trkpt lat="45.791117415922955" lon="9.078806432563399"><ele>307.3333333333333</ele><time>2026-04-25T12:03:43.819Z</time></trkpt><trkpt lat="45.791109879337355" lon="9.07904844337681"><ele>307.0</ele><time>2026-04-25T12:03:44.819Z</time></trkpt><trkpt lat="45.79110212422644" lon="9.079311470576371"><ele>307.0</ele><time>2026-04-25T12:03:45.819Z</time></trkpt><trkpt lat="45.79108689275471" lon="9.079561730391456"><ele>307.0</ele><time>2026-04-25T12:03:46.819Z</time></trkpt><trkpt lat="45.79107142258858" lon="9.079778624566416"><ele>307.0</ele><time>2026-04-25T12:03:47.819Z</time></trkpt><trkpt lat="45.791065250144456" lon="9.07995427473455"><ele>307.66666666666663</ele><time>2026-04-25T12:03:48.819Z</time></trkpt><trkpt lat="45.79106427538934" lon="9.080093403044463"><ele>308.3333333333333</ele><time>2026-04-25T12:03:49.819Z</time></trkpt><trkpt lat="45.79105655823987" lon="9.080199758453672"><ele>309.0</ele><time>2026-04-25T12:03:50.819Z</time></trkpt><trkpt lat="45.791043285151986" lon="9.080298803510328"><ele>309.6666666666667</ele><time>2026-04-25T12:03:53.819Z</time></trkpt><trkpt lat="45.79103597587805" lon="9.080419740312319"><ele>310.33333333333337</ele><time>2026-04-25T12:03:59.817Z</time></trkpt><trkpt lat="45.79102887044305" lon="9.080521911308695"><ele>311.0</ele><time>2026-04-25T12:04:01.816Z</time></trkpt><trkpt lat="45.79095996783163" lon="9.080549865254419"><ele>307.5</ele><time>2026-04-25T12:04:02.816Z</time></trkpt><trkpt lat="45.790837977653716" lon="9.080598542873355"><ele>304.0</ele><time>2026-04-25T12:04:04.816Z</time></trkpt><trkpt lat="45.790734848504904" lon="9.080648771378293"><ele>300.5</ele><time>2026-04-25T12:04:05.816Z</time></trkpt><trkpt lat="45.790637484510704" lon="9.080730976729184"><ele>297.0</ele><time>2026-04-25T12:04:06.816Z</time></trkpt><trkpt lat="45.79049592639276" lon="9.080812135351646"><ele>296.6666666666667</ele><time>2026-04-25T12:04:07.817Z</time></trkpt><trkpt lat="45.79032032798602" lon="9.080927470703957"><ele>296.33333333333337</ele><time>2026-04-25T12:04:08.816Z</time></trkpt><trkpt lat="45.79014476337691" lon="9.08101575369624"><ele>296.0</ele><time>2026-04-25T12:04:09.816Z</time></trkpt><trkpt lat="45.789984195830904" lon="9.081084472584847"><ele>293.6666666666667</ele><time>2026-04-25T12:04:10.816Z</time></trkpt><trkpt lat="45.78981916497927" lon="9.08114314425807"><ele>291.3333333333333</ele><time>2026-04-25T12:04:11.816Z</time></trkpt><trkpt lat="45.78967299782106" lon="9.081229498952702"><ele>289.0</ele><time>2026-04-25T12:04:12.816Z</time></trkpt><trkpt lat="45.78953811865175" lon="9.081287232876411"><ele>289.0</ele><time>2026-04-25T12:04:13.816Z</time></trkpt><trkpt lat="45.78941891331878" lon="9.081338497390751"><ele>289.0</ele><time>2026-04-25T12:04:14.816Z</time></trkpt><trkpt lat="45.789316016597205" lon="9.081393612133905"><ele>289.0</ele><time>2026-04-25T12:04:15.816Z</time></trkpt><trkpt lat="45.78926590288157" lon="9.081523417546359"><ele>289.0</ele><time>2026-04-25T12:04:16.816Z</time></trkpt><trkpt lat="45.78926667298887" lon="9.081671529776061"><ele>289.0</ele><time>2026-04-25T12:04:17.816Z</time></trkpt><trkpt lat="45.78930197913819" lon="9.08181524726226"><ele>288.66666666666663</ele><time>2026-04-25T12:04:18.816Z</time></trkpt><trkpt lat="45.7893749454542" lon="9.08199599169196"><ele>288.3333333333333</ele><time>2026-04-25T12:04:19.816Z</time></trkpt><trkpt lat="45.78945945339612" lon="9.082191042721627"><ele>288.0</ele><time>2026-04-25T12:04:20.816Z</time></trkpt><trkpt lat="45.78954916566052" lon="9.082400889110875"><ele>287.5</ele><time>2026-04-25T12:04:21.816Z</time></trkpt><trkpt lat="45.78962633020975" lon="9.08259370301368"><ele>287.0</ele><time>2026-04-25T12:04:22.816Z</time></trkpt><trkpt lat="45.78970593356209" lon="9.082781931047313"><ele>286.5</ele><time>2026-04-25T12:04:23.816Z</time></trkpt><trkpt lat="45.789777837273604" lon="9.082955367257288"><ele>286.0</ele><time>2026-04-25T12:04:24.816Z</time></trkpt><trkpt lat="45.78984762660168" lon="9.08311871817552"><ele>286.2</ele><time>2026-04-25T12:04:25.816Z</time></trkpt><trkpt lat="45.789913619843816" lon="9.083272974569645"><ele>286.40000000000003</ele><time>2026-04-25T12:04:26.816Z</time></trkpt><trkpt lat="45.78997640783918" lon="9.083412514095349"><ele>286.6</ele><time>2026-04-25T12:04:27.816Z</time></trkpt><trkpt lat="45.79003125609234" lon="9.083530275829009"><ele>286.8</ele><time>2026-04-25T12:04:28.816Z</time></trkpt><trkpt lat="45.790076119263695" lon="9.083634298645542"><ele>287.0</ele><time>2026-04-25T12:04:29.816Z</time></trkpt><trkpt lat="45.79011275452709" lon="9.08371813067097"><ele>287.0</ele><time>2026-04-25T12:04:30.816Z</time></trkpt><trkpt lat="45.79014376993405" lon="9.08380110517843"><ele>287.0</ele><time>2026-04-25T12:04:32.816Z</time></trkpt><trkpt lat="45.790222382447865" lon="9.083855600369377"><ele>287.0</ele><time>2026-04-25T12:04:40.816Z</time></trkpt><trkpt lat="45.79026927030842" lon="9.08400221163045"><ele>287.0</ele><time>2026-04-25T12:04:42.816Z</time></trkpt><trkpt lat="45.79030193288093" lon="9.084093278590322"><ele>287.0</ele><time>2026-04-25T12:04:43.816Z</time></trkpt><trkpt lat="45.79028971547265" lon="9.08422736144636"><ele>287.0</ele><time>2026-04-25T12:04:45.817Z</time></trkpt><trkpt lat="45.790244789179496" lon="9.084312005065613"><ele>287.0</ele><time>2026-04-25T12:04:49.817Z</time></trkpt><trkpt lat="45.790107514830616" lon="9.084396734409026"><ele>287.0</ele><time>2026-04-25T12:04:51.817Z</time></trkpt><trkpt lat="45.79004615331293" lon="9.084270805864174"><ele>287.0</ele><time>2026-04-25T12:04:52.817Z</time></trkpt><trkpt lat="45.78993878095473" lon="9.084254646399607"><ele>287.0</ele><time>2026-04-25T12:04:53.817Z</time></trkpt><trkpt lat="45.789805914488696" lon="9.084226585911988"><ele>287.0</ele><time>2026-04-25T12:04:54.817Z</time></trkpt><trkpt lat="45.78964855675576" lon="9.08418657051894"><ele>287.0</ele><time>2026-04-25T12:04:55.817Z</time></trkpt><trkpt lat="45.7894579303277" lon="9.08421099869871"><ele>287.0</ele><time>2026-04-25T12:04:56.817Z</time></trkpt><trkpt lat="45.789268261412595" lon="9.08416148641912"><ele>287.33333333333337</ele><time>2026-04-25T12:04:57.819Z</time></trkpt><trkpt lat="45.789084046589274" lon="9.084114119766227"><ele>287.6666666666667</ele><time>2026-04-25T12:04:58.82Z</time></trkpt><trkpt lat="45.78891476413816" lon="9.084067461282562"><ele>288.0</ele><time>2026-04-25T12:04:59.822Z</time></trkpt><trkpt lat="45.78873513416184" lon="9.084072276213048"><ele>288.0</ele><time>2026-04-25T12:05:00.823Z</time></trkpt><trkpt lat="45.7885825427339" lon="9.084038942710446"><ele>288.0</ele><time>2026-04-25T12:05:01.824Z</time></trkpt><trkpt lat="45.788410518166316" lon="9.083997761498143"><ele>288.0</ele><time>2026-04-25T12:05:02.826Z</time></trkpt><trkpt lat="45.7882494404993" lon="9.083954599781928"><ele>287.25</ele><time>2026-04-25T12:05:03.827Z</time></trkpt><trkpt lat="45.7881089003906" lon="9.08390460280538"><ele>286.5</ele><time>2026-04-25T12:05:04.828Z</time></trkpt><trkpt lat="45.78796139133586" lon="9.083860312429202"><ele>285.75</ele><time>2026-04-25T12:05:05.829Z</time></trkpt><trkpt lat="45.78783340456897" lon="9.083822679077976"><ele>285.0</ele><time>2026-04-25T12:05:06.83Z</time></trkpt><trkpt lat="45.7877307816284" lon="9.083791384926059"><ele>284.8</ele><time>2026-04-25T12:05:07.831Z</time></trkpt><trkpt lat="45.78762879882863" lon="9.08376988978508"><ele>284.6</ele><time>2026-04-25T12:05:08.831Z</time></trkpt><trkpt lat="45.78753430295016" lon="9.083761139453761"><ele>284.4</ele><time>2026-04-25T12:05:09.832Z</time></trkpt><trkpt lat="45.787447886793956" lon="9.083749664213562"><ele>284.2</ele><time>2026-04-25T12:05:10.833Z</time></trkpt><trkpt lat="45.78735748420324" lon="9.083732076744498"><ele>284.0</ele><time>2026-04-25T12:05:11.834Z</time></trkpt><trkpt lat="45.78727524515135" lon="9.083706219168054"><ele>284.0</ele><time>2026-04-25T12:05:12.834Z</time></trkpt><trkpt lat="45.78720269927679" lon="9.0836897243391"><ele>284.0</ele><time>2026-04-25T12:05:13.835Z</time></trkpt><trkpt lat="45.78712636299444" lon="9.083686965105516"><ele>284.0</ele><time>2026-04-25T12:05:14.835Z</time></trkpt><trkpt lat="45.78705300777879" lon="9.083688316136696"><ele>284.0</ele><time>2026-04-25T12:05:15.836Z</time></trkpt><trkpt lat="45.786963278306196" lon="9.083681968091897"><ele>284.0</ele><time>2026-04-25T12:05:16.836Z</time></trkpt><trkpt lat="45.78687882857173" lon="9.083678114305762"><ele>284.0</ele><time>2026-04-25T12:05:17.837Z</time></trkpt><trkpt lat="45.78681107540378" lon="9.083702468769529"><ele>283.5</ele><time>2026-04-25T12:05:18.837Z</time></trkpt><trkpt lat="45.78675662173989" lon="9.083771174873716"><ele>283.0</ele><time>2026-04-25T12:05:19.838Z</time></trkpt><trkpt lat="45.78673498012934" lon="9.083860126326519"><ele>282.5</ele><time>2026-04-25T12:05:20.838Z</time></trkpt><trkpt lat="45.78670026722828" lon="9.083984728882054"><ele>282.0</ele><time>2026-04-25T12:05:21.838Z</time></trkpt><trkpt lat="45.78680950754324" lon="9.084053999086239"><ele>281.5</ele><time>2026-04-25T12:05:22.839Z</time></trkpt><trkpt lat="45.78687095781387" lon="9.084145279401364"><ele>281.0</ele><time>2026-04-25T12:05:23.839Z</time></trkpt><trkpt lat="45.78692336945967" lon="9.084273654042082"><ele>281.0</ele><time>2026-04-25T12:05:24.839Z</time></trkpt><trkpt lat="45.7869693939221" lon="9.084429897008786"><ele>281.0</ele><time>2026-04-25T12:05:25.84Z</time></trkpt><trkpt lat="45.786980991419206" lon="9.084614836743846"><ele>281.0</ele><time>2026-04-25T12:05:26.84Z</time></trkpt><trkpt lat="45.787040825654735" lon="9.084797298118582"><ele>281.0</ele><time>2026-04-25T12:05:27.84Z</time></trkpt><trkpt lat="45.787120567397054" lon="9.085009605869681"><ele>279.0</ele><time>2026-04-25T12:05:28.841Z</time></trkpt><trkpt lat="45.787212395542745" lon="9.085216579534377"><ele>277.0</ele><time>2026-04-25T12:05:29.841Z</time></trkpt><trkpt lat="45.787330821468906" lon="9.085408236099767"><ele>275.0</ele><time>2026-04-25T12:05:30.841Z</time></trkpt><trkpt lat="45.78744233356886" lon="9.085609876987604"><ele>273.6666666666667</ele><time>2026-04-25T12:05:31.841Z</time></trkpt><trkpt lat="45.78752363539321" lon="9.08583201855338"><ele>272.3333333333333</ele><time>2026-04-25T12:05:32.841Z</time></trkpt><trkpt lat="45.787609214341906" lon="9.086010921363064"><ele>271.0</ele><time>2026-04-25T12:05:33.842Z</time></trkpt><trkpt lat="45.78767209762996" lon="9.086227874260553"><ele>273.0</ele><time>2026-04-25T12:05:34.842Z</time></trkpt><trkpt lat="45.78774711488465" lon="9.086458978211313"><ele>275.0</ele><time>2026-04-25T12:05:35.842Z</time></trkpt><trkpt lat="45.78783031682921" lon="9.086733536704585"><ele>277.0</ele><time>2026-04-25T12:05:36.842Z</time></trkpt><trkpt lat="45.787918727190444" lon="9.087022326516447"><ele>277.0</ele><time>2026-04-25T12:05:37.842Z</time></trkpt><trkpt lat="45.78800240864646" lon="9.087343663114392"><ele>277.0</ele><time>2026-04-25T12:05:38.842Z</time></trkpt><trkpt lat="45.78808610924632" lon="9.087685790306843"><ele>274.5</ele><time>2026-04-25T12:05:39.842Z</time></trkpt><trkpt lat="45.78816968470761" lon="9.088027618732468"><ele>272.0</ele><time>2026-04-25T12:05:40.843Z</time></trkpt><trkpt lat="45.78824201789784" lon="9.088369194715261"><ele>268.0</ele><time>2026-04-25T12:05:41.843Z</time></trkpt><trkpt lat="45.78831130922991" lon="9.088707084722444"><ele>264.0</ele><time>2026-04-25T12:05:42.843Z</time></trkpt><trkpt lat="45.788376465131726" lon="9.089026293972653"><ele>263.3333333333333</ele><time>2026-04-25T12:05:43.843Z</time></trkpt><trkpt lat="45.7884363297804" lon="9.089331990359787"><ele>262.66666666666663</ele><time>2026-04-25T12:05:44.843Z</time></trkpt><trkpt lat="45.78848178053373" lon="9.089614013588314"><ele>262.0</ele><time>2026-04-25T12:05:45.843Z</time></trkpt><trkpt lat="45.78850487790936" lon="9.089890499021624"><ele>262.0</ele><time>2026-04-25T12:05:46.843Z</time></trkpt><trkpt lat="45.788509321816015" lon="9.090147252617914"><ele>262.0</ele><time>2026-04-25T12:05:47.843Z</time></trkpt><trkpt lat="45.788502991597454" lon="9.090388709478988"><ele>262.0</ele><time>2026-04-25T12:05:48.843Z</time></trkpt><trkpt lat="45.788495223985535" lon="9.0906200989604"><ele>262.5</ele><time>2026-04-25T12:05:49.843Z</time></trkpt><trkpt lat="45.78847921717042" lon="9.090844650188851"><ele>263.0</ele><time>2026-04-25T12:05:50.844Z</time></trkpt><trkpt lat="45.78846864865147" lon="9.09104961600563"><ele>263.5</ele><time>2026-04-25T12:05:51.844Z</time></trkpt><trkpt lat="45.78846983634586" lon="9.091230182234094"><ele>264.0</ele><time>2026-04-25T12:05:52.844Z</time></trkpt><trkpt lat="45.7884632762048" lon="9.091385297169202"><ele>264.0</ele><time>2026-04-25T12:05:53.844Z</time></trkpt><trkpt lat="45.78845462988435" lon="9.09152126308626"><ele>264.0</ele><time>2026-04-25T12:05:54.844Z</time></trkpt><trkpt lat="45.78843427211093" lon="9.0916415302834"><ele>264.0</ele><time>2026-04-25T12:05:55.844Z</time></trkpt><trkpt lat="45.78841165708957" lon="9.09175372431007"><ele>264.0</ele><time>2026-04-25T12:05:56.844Z</time></trkpt><trkpt lat="45.788381247810875" lon="9.091877927966879"><ele>264.0</ele><time>2026-04-25T12:05:57.844Z</time></trkpt><trkpt lat="45.78838087472252" lon="9.091998800129723"><ele>264.0</ele><time>2026-04-25T12:05:58.844Z</time></trkpt><trkpt lat="45.78840493716064" lon="9.09210217602766"><ele>264.5</ele><time>2026-04-25T12:05:59.844Z</time></trkpt><trkpt lat="45.788507650545185" lon="9.09221942448171"><ele>265.0</ele><time>2026-04-25T12:06:00.844Z</time></trkpt><trkpt lat="45.78862513319865" lon="9.092331111889216"><ele>265.5</ele><time>2026-04-25T12:06:01.999Z</time></trkpt><trkpt lat="45.78870642834513" lon="9.092422861957429"><ele>266.0</ele><time>2026-04-25T12:06:02.999Z</time></trkpt><trkpt lat="45.78876486060733" lon="9.092529056939863"><ele>268.0</ele><time>2026-04-25T12:06:03.999Z</time></trkpt><trkpt lat="45.78880669942918" lon="9.092643103257489"><ele>270.0</ele><time>2026-04-25T12:06:04.999Z</time></trkpt><trkpt lat="45.78885165739744" lon="9.092773842669985"><ele>272.0</ele><time>2026-04-25T12:06:05.999Z</time></trkpt><trkpt lat="45.78891865907424" lon="9.092905027502026"><ele>274.0</ele><time>2026-04-25T12:06:06.999Z</time></trkpt><trkpt lat="45.78899298227997" lon="9.093035670331025"><ele>276.0</ele><time>2026-04-25T12:06:07.999Z</time></trkpt><trkpt lat="45.78908666407694" lon="9.093189477270057"><ele>278.0</ele><time>2026-04-25T12:06:08.999Z</time></trkpt><trkpt lat="45.78914809660861" lon="9.09335466073713"><ele>280.0</ele><time>2026-04-25T12:06:09.999Z</time></trkpt><trkpt lat="45.78923001786373" lon="9.093478942654336"><ele>282.0</ele><time>2026-04-25T12:06:10.999Z</time></trkpt><trkpt lat="45.78931425494633" lon="9.09360523455736"><ele>284.0</ele><time>2026-04-25T12:06:11.999Z</time></trkpt><trkpt lat="45.789400105980256" lon="9.093734978514904"><ele>283.75</ele><time>2026-04-25T12:06:13Z</time></trkpt><trkpt lat="45.7894905766902" lon="9.093871704068896"><ele>283.5</ele><time>2026-04-25T12:06:14Z</time></trkpt><trkpt lat="45.78957155945365" lon="9.093994090738496"><ele>283.25</ele><time>2026-04-25T12:06:15Z</time></trkpt><trkpt lat="45.78966148678975" lon="9.094099288352583"><ele>283.0</ele><time>2026-04-25T12:06:16Z</time></trkpt><trkpt lat="45.78973372275089" lon="9.094213314908055"><ele>283.0</ele><time>2026-04-25T12:06:17Z</time></trkpt><trkpt lat="45.78981515018411" lon="9.094337151443069"><ele>283.0</ele><time>2026-04-25T12:06:18Z</time></trkpt><trkpt lat="45.78989886174829" lon="9.094467534449137"><ele>283.0</ele><time>2026-04-25T12:06:19Z</time></trkpt><trkpt lat="45.78997750085418" lon="9.094587403056913"><ele>283.0</ele><time>2026-04-25T12:06:20Z</time></trkpt><trkpt lat="45.790057673843414" lon="9.094721051150112"><ele>283.0</ele><time>2026-04-25T12:06:21Z</time></trkpt><trkpt lat="45.790140820490635" lon="9.09485085565333"><ele>283.0</ele><time>2026-04-25T12:06:22Z</time></trkpt><trkpt lat="45.790217383194644" lon="9.094993902695848"><ele>283.0</ele><time>2026-04-25T12:06:23Z</time></trkpt><trkpt lat="45.790282181898675" lon="9.095146498752692"><ele>283.0</ele><time>2026-04-25T12:06:24Z</time></trkpt><trkpt lat="45.790335567969386" lon="9.095294641624918"><ele>282.5</ele><time>2026-04-25T12:06:25Z</time></trkpt><trkpt lat="45.79037322165424" lon="9.095452714834586"><ele>282.0</ele><time>2026-04-25T12:06:26Z</time></trkpt><trkpt lat="45.79040137783572" lon="9.095605232084237"><ele>281.5</ele><time>2026-04-25T12:06:27Z</time></trkpt><trkpt lat="45.79039841191128" lon="9.095779030355041"><ele>281.0</ele><time>2026-04-25T12:06:28Z</time></trkpt><trkpt lat="45.79039190651245" lon="9.095970255277312"><ele>283.0</ele><time>2026-04-25T12:06:29Z</time></trkpt><trkpt lat="45.79041008761206" lon="9.096153228467985"><ele>285.0</ele><time>2026-04-25T12:06:30.001Z</time></trkpt><trkpt lat="45.79043327711051" lon="9.096331787960409"><ele>287.0</ele><time>2026-04-25T12:06:31.001Z</time></trkpt><trkpt lat="45.790465819330244" lon="9.0964917081124"><ele>289.0</ele><time>2026-04-25T12:06:32.001Z</time></trkpt><trkpt lat="45.79051395121182" lon="9.096624248912534"><ele>292.2</ele><time>2026-04-25T12:06:33.001Z</time></trkpt><trkpt lat="45.790576313442244" lon="9.096726523571697"><ele>295.4</ele><time>2026-04-25T12:06:34.001Z</time></trkpt><trkpt lat="45.79064911344754" lon="9.09682106874375"><ele>298.6</ele><time>2026-04-25T12:06:35.001Z</time></trkpt><trkpt lat="45.79072541726983" lon="9.096903969784382"><ele>301.8</ele><time>2026-04-25T12:06:36.001Z</time></trkpt><trkpt lat="45.79081498269451" lon="9.096962999456922"><ele>305.0</ele><time>2026-04-25T12:06:37.001Z</time></trkpt><trkpt lat="45.79091384062981" lon="9.097008128165067"><ele>301.75</ele><time>2026-04-25T12:06:38.001Z</time></trkpt><trkpt lat="45.79102113663278" lon="9.097032850271482"><ele>298.5</ele><time>2026-04-25T12:06:39.001Z</time></trkpt><trkpt lat="45.791134991857646" lon="9.097045028380814"><ele>295.25</ele><time>2026-04-25T12:06:40.001Z</time></trkpt><trkpt lat="45.7912514143646" lon="9.097073375622836"><ele>292.0</ele><time>2026-04-25T12:06:41.001Z</time></trkpt><trkpt lat="45.791369943966345" lon="9.097132871143202"><ele>292.0</ele><time>2026-04-25T12:06:42.001Z</time></trkpt><trkpt lat="45.79147577542367" lon="9.097272543507659"><ele>292.0</ele><time>2026-04-25T12:06:43.001Z</time></trkpt><trkpt lat="45.79158266904983" lon="9.09740560342338"><ele>292.0</ele><time>2026-04-25T12:06:44.001Z</time></trkpt><trkpt lat="45.79167788129375" lon="9.097555131731207"><ele>292.0</ele><time>2026-04-25T12:06:45.001Z</time></trkpt><trkpt lat="45.7917493805741" lon="9.097740550515413"><ele>290.66666666666663</ele><time>2026-04-25T12:06:46.001Z</time></trkpt><trkpt lat="45.79181349942827" lon="9.097995097983496"><ele>289.3333333333333</ele><time>2026-04-25T12:06:47.001Z</time></trkpt><trkpt lat="45.791881965559334" lon="9.098228690854787"><ele>288.0</ele><time>2026-04-25T12:06:48.001Z</time></trkpt><trkpt lat="45.79197377726352" lon="9.098424731127695"><ele>293.6666666666667</ele><time>2026-04-25T12:06:49.001Z</time></trkpt><trkpt lat="45.792111746475804" lon="9.098542071753661"><ele>299.33333333333337</ele><time>2026-04-25T12:06:50.001Z</time></trkpt><trkpt lat="45.7922506747102" lon="9.098654482680349"><ele>305.0</ele><time>2026-04-25T12:06:51.001Z</time></trkpt><trkpt lat="45.79238926794557" lon="9.098781884627174"><ele>305.0</ele><time>2026-04-25T12:06:52.001Z</time></trkpt><trkpt lat="45.79248337031182" lon="9.098952197826677"><ele>305.0</ele><time>2026-04-25T12:06:53.001Z</time></trkpt><trkpt lat="45.79252043891712" lon="9.099158044224277"><ele>305.0</ele><time>2026-04-25T12:06:54.001Z</time></trkpt><trkpt lat="45.79251036218641" lon="9.099393186474122"><ele>312.0</ele><time>2026-04-25T12:06:55.001Z</time></trkpt><trkpt lat="45.79247849858908" lon="9.099677487714622"><ele>319.0</ele><time>2026-04-25T12:06:56.002Z</time></trkpt><trkpt lat="45.792409502179794" lon="9.099968785693978"><ele>326.0</ele><time>2026-04-25T12:06:57.002Z</time></trkpt><trkpt lat="45.79239537360405" lon="9.100256368544793"><ele>329.0</ele><time>2026-04-25T12:06:58.002Z</time></trkpt><trkpt lat="45.792413230788895" lon="9.100523287452843"><ele>332.0</ele><time>2026-04-25T12:06:59.002Z</time></trkpt><trkpt lat="45.79245598108498" lon="9.100786611908354"><ele>335.0</ele><time>2026-04-25T12:07:00.002Z</time></trkpt><trkpt lat="45.792521153465906" lon="9.101016608221165"><ele>335.6666666666667</ele><time>2026-04-25T12:07:01.002Z</time></trkpt><trkpt lat="45.79260469411094" lon="9.10121287748887"><ele>336.3333333333333</ele><time>2026-04-25T12:07:02.002Z</time></trkpt><trkpt lat="45.792746930881535" lon="9.10134145065797"><ele>337.0</ele><time>2026-04-25T12:07:03.002Z</time></trkpt><trkpt lat="45.79290662909777" lon="9.10139959906207"><ele>337.0</ele><time>2026-04-25T12:07:04.002Z</time></trkpt><trkpt lat="45.79313213936578" lon="9.101451059587927"><ele>337.0</ele><time>2026-04-25T12:07:05.002Z</time></trkpt><trkpt lat="45.793367303774154" lon="9.101478844254974"><ele>337.66666666666663</ele><time>2026-04-25T12:07:06.002Z</time></trkpt><trkpt lat="45.79352957249135" lon="9.101519495290493"><ele>338.3333333333333</ele><time>2026-04-25T12:07:07.002Z</time></trkpt><trkpt lat="45.79367860130005" lon="9.10157146202966"><ele>339.0</ele><time>2026-04-25T12:07:08.002Z</time></trkpt><trkpt lat="45.79380254758287" lon="9.10165453605278"><ele>341.25</ele><time>2026-04-25T12:07:09.002Z</time></trkpt><trkpt lat="45.79390478499687" lon="9.101772010710441"><ele>343.5</ele><time>2026-04-25T12:07:10.002Z</time></trkpt><trkpt lat="45.79397376563112" lon="9.101907745697536"><ele>345.75</ele><time>2026-04-25T12:07:11.002Z</time></trkpt><trkpt lat="45.794026358895735" lon="9.102085115486258"><ele>348.0</ele><time>2026-04-25T12:07:12.002Z</time></trkpt><trkpt lat="45.79406998871422" lon="9.102265575072018"><ele>349.3333333333333</ele><time>2026-04-25T12:07:13.002Z</time></trkpt><trkpt lat="45.79411003419148" lon="9.102479317454383"><ele>350.66666666666663</ele><time>2026-04-25T12:07:14.002Z</time></trkpt><trkpt lat="45.794099638532515" lon="9.10276067561042"><ele>352.0</ele><time>2026-04-25T12:07:15.002Z</time></trkpt><trkpt lat="45.79409194871241" lon="9.10303755390936"><ele>352.0</ele><time>2026-04-25T12:07:16.002Z</time></trkpt><trkpt lat="45.79409534005547" lon="9.1033047226271"><ele>352.0</ele><time>2026-04-25T12:07:17.002Z</time></trkpt><trkpt lat="45.79410905165201" lon="9.103584701417805"><ele>352.0</ele><time>2026-04-25T12:07:18.002Z</time></trkpt><trkpt lat="45.79413587296094" lon="9.103835016008876"><ele>352.0</ele><time>2026-04-25T12:07:19.002Z</time></trkpt><trkpt lat="45.794178327903836" lon="9.10407672547372"><ele>352.0</ele><time>2026-04-25T12:07:20.002Z</time></trkpt><trkpt lat="45.79424732259153" lon="9.10431501864895"><ele>352.0</ele><time>2026-04-25T12:07:21.002Z</time></trkpt><trkpt lat="45.79430166682595" lon="9.104531019834461"><ele>350.75</ele><time>2026-04-25T12:07:22.002Z</time></trkpt><trkpt lat="45.79435136256994" lon="9.10473483679346"><ele>349.5</ele><time>2026-04-25T12:07:23.002Z</time></trkpt><trkpt lat="45.79439382861525" lon="9.104927151373248"><ele>348.25</ele><time>2026-04-25T12:07:24.002Z</time></trkpt><trkpt lat="45.79443933062298" lon="9.10509621749363"><ele>347.0</ele><time>2026-04-25T12:07:25.002Z</time></trkpt><trkpt lat="45.79448002047305" lon="9.105222712104316"><ele>346.1666666666667</ele><time>2026-04-25T12:07:26.003Z</time></trkpt><trkpt lat="45.79451233570996" lon="9.105304197408872"><ele>345.33333333333337</ele><time>2026-04-25T12:07:27.002Z</time></trkpt><trkpt lat="45.79449217346429" lon="9.105419181689973"><ele>344.5</ele><time>2026-04-25T12:07:51.003Z</time></trkpt><trkpt lat="45.79451691100761" lon="9.105517074779145"><ele>343.6666666666667</ele><time>2026-04-25T12:07:52.003Z</time></trkpt><trkpt lat="45.794543611400485" lon="9.105626492057986"><ele>342.8333333333333</ele><time>2026-04-25T12:07:53.003Z</time></trkpt><trkpt lat="45.79459111441396" lon="9.105748843281416"><ele>342.0</ele><time>2026-04-25T12:07:54.003Z</time></trkpt><trkpt lat="45.794642403508945" lon="9.105881817244045"><ele>341.75</ele><time>2026-04-25T12:07:55.003Z</time></trkpt><trkpt lat="45.794695203165965" lon="9.106036447653414"><ele>341.5</ele><time>2026-04-25T12:07:56.003Z</time></trkpt><trkpt lat="45.7947498649245" lon="9.106208430369689"><ele>341.25</ele><time>2026-04-25T12:07:57.003Z</time></trkpt><trkpt lat="45.79481539595466" lon="9.106377694564754"><ele>341.0</ele><time>2026-04-25T12:07:58.003Z</time></trkpt><trkpt lat="45.7949021329578" lon="9.10654407080134"><ele>341.5</ele><time>2026-04-25T12:07:59.003Z</time></trkpt><trkpt lat="45.79498864865996" lon="9.106711409784175"><ele>342.0</ele><time>2026-04-25T12:08:00.003Z</time></trkpt><trkpt lat="45.79506409663714" lon="9.10686810303404"><ele>342.5</ele><time>2026-04-25T12:08:01.004Z</time></trkpt><trkpt lat="45.79512506756621" lon="9.107014452496687"><ele>343.0</ele><time>2026-04-25T12:08:02.004Z</time></trkpt><trkpt lat="45.79516835318363" lon="9.107160097638852"><ele>342.79999999999995</ele><time>2026-04-25T12:08:03.004Z</time></trkpt><trkpt lat="45.79521054902462" lon="9.107293536457497"><ele>342.6</ele><time>2026-04-25T12:08:04.004Z</time></trkpt><trkpt lat="45.7952718681219" lon="9.107410494523698"><ele>342.4</ele><time>2026-04-25T12:08:05.004Z</time></trkpt><trkpt lat="45.79531280905528" lon="9.10753631469424"><ele>342.20000000000005</ele><time>2026-04-25T12:08:06.004Z</time></trkpt><trkpt lat="45.795339856239494" lon="9.107671684128826"><ele>342.0</ele><time>2026-04-25T12:08:07.004Z</time></trkpt><trkpt lat="45.79535887946068" lon="9.10782707387382"><ele>342.0</ele><time>2026-04-25T12:08:08.001Z</time></trkpt><trkpt lat="45.795375524843905" lon="9.107993984484022"><ele>342.0</ele><time>2026-04-25T12:08:09.001Z</time></trkpt><trkpt lat="45.79537843369464" lon="9.108180425124447"><ele>342.0</ele><time>2026-04-25T12:08:10.001Z</time></trkpt><trkpt lat="45.79537205426843" lon="9.108374879950155"><ele>342.0</ele><time>2026-04-25T12:08:11.001Z</time></trkpt><trkpt lat="45.79536660525536" lon="9.108565620416666"><ele>342.0</ele><time>2026-04-25T12:08:12.001Z</time></trkpt><trkpt lat="45.795373105582925" lon="9.108736125216586"><ele>342.0</ele><time>2026-04-25T12:08:13.001Z</time></trkpt><trkpt lat="45.79536198809922" lon="9.108902494368854"><ele>342.0</ele><time>2026-04-25T12:08:14.001Z</time></trkpt><trkpt lat="45.79537086342073" lon="9.109052984130233"><ele>342.0</ele><time>2026-04-25T12:08:15.001Z</time></trkpt><trkpt lat="45.79540980894161" lon="9.10919741337962"><ele>342.0</ele><time>2026-04-25T12:08:16.001Z</time></trkpt><trkpt lat="45.7954185650779" lon="9.109347353539146"><ele>341.75</ele><time>2026-04-25T12:08:17.001Z</time></trkpt><trkpt lat="45.79542975376258" lon="9.109517241479011"><ele>341.5</ele><time>2026-04-25T12:08:18.001Z</time></trkpt><trkpt lat="45.795450009698214" lon="9.109693739538525"><ele>341.25</ele><time>2026-04-25T12:08:19.001Z</time></trkpt><trkpt lat="45.7954791740526" lon="9.109877599514553"><ele>341.0</ele><time>2026-04-25T12:08:20.001Z</time></trkpt><trkpt lat="45.79551098903178" lon="9.110068706422357"><ele>341.0</ele><time>2026-04-25T12:08:21.001Z</time></trkpt><trkpt lat="45.795541489996" lon="9.110266903070587"><ele>341.0</ele><time>2026-04-25T12:08:22.001Z</time></trkpt><trkpt lat="45.7955739380605" lon="9.110474716087566"><ele>341.0</ele><time>2026-04-25T12:08:23.001Z</time></trkpt><trkpt lat="45.79561419665686" lon="9.110689392449373"><ele>341.0</ele><time>2026-04-25T12:08:24.001Z</time></trkpt><trkpt lat="45.79565793697644" lon="9.110912297573863"><ele>341.0</ele><time>2026-04-25T12:08:25.001Z</time></trkpt><trkpt lat="45.79571686149018" lon="9.111124369486635"><ele>341.0</ele><time>2026-04-25T12:08:26.001Z</time></trkpt><trkpt lat="45.79579608667806" lon="9.1113237847318"><ele>341.0</ele><time>2026-04-25T12:08:27.001Z</time></trkpt><trkpt lat="45.79588514760102" lon="9.111521602630598"><ele>341.0</ele><time>2026-04-25T12:08:28.001Z</time></trkpt><trkpt lat="45.79598902472767" lon="9.111709910091621"><ele>341.0</ele><time>2026-04-25T12:08:29.001Z</time></trkpt><trkpt lat="45.79609902295705" lon="9.111889903535149"><ele>341.0</ele><time>2026-04-25T12:08:30.001Z</time></trkpt><trkpt lat="45.79620132508805" lon="9.112067098122223"><ele>341.0</ele><time>2026-04-25T12:08:31.001Z</time></trkpt><trkpt lat="45.79629634424686" lon="9.112245542427413"><ele>341.0</ele><time>2026-04-25T12:08:32.001Z</time></trkpt><trkpt lat="45.796385988194835" lon="9.112431688835656"><ele>341.0</ele><time>2026-04-25T12:08:33.001Z</time></trkpt><trkpt lat="45.796468602878434" lon="9.112630514025716"><ele>340.33333333333337</ele><time>2026-04-25T12:08:34.001Z</time></trkpt><trkpt lat="45.79654360765754" lon="9.11283792923274"><ele>339.6666666666667</ele><time>2026-04-25T12:08:35.001Z</time></trkpt><trkpt lat="45.796603734645096" lon="9.113033849166374"><ele>339.0</ele><time>2026-04-25T12:08:36.001Z</time></trkpt><trkpt lat="45.796631548702024" lon="9.113228779197252"><ele>339.75</ele><time>2026-04-25T12:08:37.001Z</time></trkpt><trkpt lat="45.79669397008873" lon="9.113401566612822"><ele>340.5</ele><time>2026-04-25T12:08:38.001Z</time></trkpt><trkpt lat="45.796756639455964" lon="9.11356751453498"><ele>341.25</ele><time>2026-04-25T12:08:39.001Z</time></trkpt><trkpt lat="45.79681740889662" lon="9.113731652325729"><ele>342.0</ele><time>2026-04-25T12:08:40.001Z</time></trkpt><trkpt lat="45.79687036502042" lon="9.113892247861022"><ele>342.0</ele><time>2026-04-25T12:08:41.001Z</time></trkpt><trkpt lat="45.796910268626036" lon="9.114048966083654"><ele>342.0</ele><time>2026-04-25T12:08:42.001Z</time></trkpt><trkpt lat="45.796943393354276" lon="9.114209622107193"><ele>342.0</ele><time>2026-04-25T12:08:43.001Z</time></trkpt><trkpt lat="45.79697517174276" lon="9.114354819963149"><ele>342.0</ele><time>2026-04-25T12:08:44.001Z</time></trkpt><trkpt lat="45.797006148266554" lon="9.114492433219425"><ele>342.0</ele><time>2026-04-25T12:08:45.001Z</time></trkpt><trkpt lat="45.79702657133024" lon="9.114616332565262"><ele>341.6666666666667</ele><time>2026-04-25T12:08:46.001Z</time></trkpt><trkpt lat="45.79703784108532" lon="9.114721142186623"><ele>341.3333333333333</ele><time>2026-04-25T12:08:47.001Z</time></trkpt><trkpt lat="45.79703409423232" lon="9.114819729746205"><ele>341.0</ele><time>2026-04-25T12:08:48.001Z</time></trkpt><trkpt lat="45.797022376003554" lon="9.114915729648667"><ele>340.66666666666663</ele><time>2026-04-25T12:08:49.001Z</time></trkpt><trkpt lat="45.79700645365234" lon="9.115039228249172"><ele>340.3333333333333</ele><time>2026-04-25T12:08:50.001Z</time></trkpt><trkpt lat="45.79699608142298" lon="9.1151814920018"><ele>340.0</ele><time>2026-04-25T12:08:51.001Z</time></trkpt><trkpt lat="45.79698541615528" lon="9.115339908486929"><ele>340.0</ele><time>2026-04-25T12:08:52.001Z</time></trkpt><trkpt lat="45.79698090867335" lon="9.11554834449614"><ele>340.0</ele><time>2026-04-25T12:08:53.001Z</time></trkpt><trkpt lat="45.796981551124915" lon="9.11577580407031"><ele>340.0</ele><time>2026-04-25T12:08:54.001Z</time></trkpt><trkpt lat="45.79694045208764" lon="9.116012020964796"><ele>339.66666666666663</ele><time>2026-04-25T12:08:55.001Z</time></trkpt><trkpt lat="45.796934453319516" lon="9.116261428711182"><ele>339.3333333333333</ele><time>2026-04-25T12:08:56.001Z</time></trkpt><trkpt lat="45.796931476611114" lon="9.116508608523933"><ele>339.0</ele><time>2026-04-25T12:08:57.001Z</time></trkpt><trkpt lat="45.796929744619554" lon="9.116780283879892"><ele>339.0</ele><time>2026-04-25T12:08:58.001Z</time></trkpt><trkpt lat="45.79693927225971" lon="9.117052676757412"><ele>339.0</ele><time>2026-04-25T12:08:59.001Z</time></trkpt><trkpt lat="45.79695281773815" lon="9.117303153135445"><ele>339.0</ele><time>2026-04-25T12:09:00.001Z</time></trkpt><trkpt lat="45.79696711426891" lon="9.117540978065051"><ele>339.0</ele><time>2026-04-25T12:09:01.001Z</time></trkpt><trkpt lat="45.796975447756154" lon="9.117788127756171"><ele>339.0</ele><time>2026-04-25T12:09:02.001Z</time></trkpt><trkpt lat="45.79699000762698" lon="9.11804163937614"><ele>339.0</ele><time>2026-04-25T12:09:03.001Z</time></trkpt><trkpt lat="45.79700331113619" lon="9.118293143038134"><ele>339.6666666666667</ele><time>2026-04-25T12:09:04.001Z</time></trkpt><trkpt lat="45.797013591950666" lon="9.11856044012928"><ele>340.33333333333337</ele><time>2026-04-25T12:09:05.001Z</time></trkpt><trkpt lat="45.79703064239762" lon="9.118852075994676"><ele>341.0</ele><time>2026-04-25T12:09:06.001Z</time></trkpt><trkpt lat="45.79705014742698" lon="9.1191935816146"><ele>342.5</ele><time>2026-04-25T12:09:07.001Z</time></trkpt><trkpt lat="45.797070082005064" lon="9.119527912838004"><ele>344.0</ele><time>2026-04-25T12:09:08.002Z</time></trkpt><trkpt lat="45.797086633155565" lon="9.119840678021122"><ele>346.6666666666667</ele><time>2026-04-25T12:09:09.002Z</time></trkpt><trkpt lat="45.79710282189357" lon="9.12010908420344"><ele>349.3333333333333</ele><time>2026-04-25T12:09:10.002Z</time></trkpt><trkpt lat="45.797117379448" lon="9.120379736259348"><ele>352.0</ele><time>2026-04-25T12:09:11.002Z</time></trkpt><trkpt lat="45.797132804805784" lon="9.120659501658334"><ele>354.0</ele><time>2026-04-25T12:09:12.002Z</time></trkpt><trkpt lat="45.79713957129926" lon="9.120941393622026"><ele>356.0</ele><time>2026-04-25T12:09:13.002Z</time></trkpt><trkpt lat="45.79716235971937" lon="9.121213874500075"><ele>358.0</ele><time>2026-04-25T12:09:14.002Z</time></trkpt><trkpt lat="45.79718106539824" lon="9.121482616352575"><ele>359.66666666666663</ele><time>2026-04-25T12:09:15.002Z</time></trkpt><trkpt lat="45.7971878489985" lon="9.12173651107988"><ele>361.3333333333333</ele><time>2026-04-25T12:09:16.002Z</time></trkpt><trkpt lat="45.79717840253922" lon="9.121994276936883"><ele>363.0</ele><time>2026-04-25T12:09:17.002Z</time></trkpt><trkpt lat="45.79713125143593" lon="9.122243814685827"><ele>364.0</ele><time>2026-04-25T12:09:18.002Z</time></trkpt><trkpt lat="45.797006915778105" lon="9.122519563247566"><ele>365.0</ele><time>2026-04-25T12:09:19.002Z</time></trkpt><trkpt lat="45.79686849279725" lon="9.122784480698193"><ele>366.5</ele><time>2026-04-25T12:09:20.002Z</time></trkpt><trkpt lat="45.796725433759114" lon="9.123036913617913"><ele>368.0</ele><time>2026-04-25T12:09:21.002Z</time></trkpt><trkpt lat="45.79658297214866" lon="9.123294373960837"><ele>368.0</ele><time>2026-04-25T12:09:22.002Z</time></trkpt><trkpt lat="45.79645643679054" lon="9.123542910075148"><ele>368.0</ele><time>2026-04-25T12:09:23.002Z</time></trkpt><trkpt lat="45.796350752792904" lon="9.12379492706672"><ele>368.0</ele><time>2026-04-25T12:09:24.002Z</time></trkpt><trkpt lat="45.79624189913837" lon="9.124026091038223"><ele>367.6666666666667</ele><time>2026-04-25T12:09:25.002Z</time></trkpt><trkpt lat="45.796133221470214" lon="9.124249241327718"><ele>367.3333333333333</ele><time>2026-04-25T12:09:26.002Z</time></trkpt><trkpt lat="45.79602288111781" lon="9.124438120125628"><ele>367.0</ele><time>2026-04-25T12:09:27.002Z</time></trkpt><trkpt lat="45.79594407560608" lon="9.124637315419823"><ele>367.0</ele><time>2026-04-25T12:09:28.002Z</time></trkpt><trkpt lat="45.795856823205746" lon="9.124790957418462"><ele>367.0</ele><time>2026-04-25T12:09:29.002Z</time></trkpt><trkpt lat="45.79577564531" lon="9.124933052355402"><ele>367.0</ele><time>2026-04-25T12:09:30.002Z</time></trkpt><trkpt lat="45.79569331917746" lon="9.125057658263033"><ele>367.0</ele><time>2026-04-25T12:09:31.002Z</time></trkpt><trkpt lat="45.79561254988074" lon="9.125173869872356"><ele>367.0</ele><time>2026-04-25T12:09:32.002Z</time></trkpt><trkpt lat="45.79553769649525" lon="9.125275980399836"><ele>367.0</ele><time>2026-04-25T12:09:33.002Z</time></trkpt><trkpt lat="45.79545732393569" lon="9.125359474529926"><ele>367.0</ele><time>2026-04-25T12:09:34.002Z</time></trkpt><trkpt lat="45.79538508763332" lon="9.125434659674161"><ele>367.0</ele><time>2026-04-25T12:09:35.002Z</time></trkpt><trkpt lat="45.79533419399147" lon="9.1255456579169"><ele>367.0</ele><time>2026-04-25T12:09:36.002Z</time></trkpt><trkpt lat="45.79530088739776" lon="9.125694047924647"><ele>366.8</ele><time>2026-04-25T12:09:37.002Z</time></trkpt><trkpt lat="45.79526870450844" lon="9.125839411835848"><ele>366.6</ele><time>2026-04-25T12:09:38.002Z</time></trkpt><trkpt lat="45.795255277904936" lon="9.12596048863911"><ele>366.40000000000003</ele><time>2026-04-25T12:09:39.002Z</time></trkpt><trkpt lat="45.795214010278144" lon="9.126069434452537"><ele>366.20000000000005</ele><time>2026-04-25T12:09:40.002Z</time></trkpt><trkpt lat="45.79516400459717" lon="9.126183058743115"><ele>366.0</ele><time>2026-04-25T12:09:41.002Z</time></trkpt><trkpt lat="45.79511916369973" lon="9.126282320909581"><ele>367.20000000000005</ele><time>2026-04-25T12:09:42.002Z</time></trkpt><trkpt lat="45.7950684822877" lon="9.126385551710436"><ele>368.40000000000003</ele><time>2026-04-25T12:09:43.002Z</time></trkpt><trkpt lat="45.79503454771262" lon="9.126495209475143"><ele>369.6</ele><time>2026-04-25T12:09:44.002Z</time></trkpt><trkpt lat="45.79503177804489" lon="9.126631531887675"><ele>370.8</ele><time>2026-04-25T12:09:45.002Z</time></trkpt><trkpt lat="45.79506520730133" lon="9.126772032894378"><ele>372.0</ele><time>2026-04-25T12:09:46.003Z</time></trkpt><trkpt lat="45.79511348339345" lon="9.126912102722164"><ele>371.40000000000003</ele><time>2026-04-25T12:09:47.003Z</time></trkpt><trkpt lat="45.79515195690795" lon="9.127047195009883"><ele>370.8</ele><time>2026-04-25T12:09:48.003Z</time></trkpt><trkpt lat="45.79517905934639" lon="9.127186122737275"><ele>370.2</ele><time>2026-04-25T12:09:49.003Z</time></trkpt><trkpt lat="45.795205431854974" lon="9.127336868298212"><ele>369.6</ele><time>2026-04-25T12:09:50.003Z</time></trkpt><trkpt lat="45.795235474049576" lon="9.12749569555136"><ele>369.0</ele><time>2026-04-25T12:09:51.003Z</time></trkpt><trkpt lat="45.79528332043647" lon="9.127659124491137"><ele>370.5</ele><time>2026-04-25T12:09:52.003Z</time></trkpt><trkpt lat="45.79534893151579" lon="9.127840628771075"><ele>372.0</ele><time>2026-04-25T12:09:53.003Z</time></trkpt><trkpt lat="45.795428065777564" lon="9.12802312345705"><ele>373.5</ele><time>2026-04-25T12:09:54.003Z</time></trkpt><trkpt lat="45.79550960883827" lon="9.12821113260713"><ele>375.0</ele><time>2026-04-25T12:09:55.003Z</time></trkpt><trkpt lat="45.79558801586121" lon="9.128434719163526"><ele>378.33333333333337</ele><time>2026-04-25T12:09:56.003Z</time></trkpt><trkpt lat="45.795662037507036" lon="9.12866747959136"><ele>381.6666666666667</ele><time>2026-04-25T12:09:57.003Z</time></trkpt><trkpt lat="45.79573496273973" lon="9.12889525044813"><ele>385.0</ele><time>2026-04-25T12:09:58.003Z</time></trkpt><trkpt lat="45.795815723580034" lon="9.12913139148006"><ele>385.0</ele><time>2026-04-25T12:09:59.003Z</time></trkpt><trkpt lat="45.795886485889056" lon="9.12936618259186"><ele>385.0</ele><time>2026-04-25T12:10:00.003Z</time></trkpt><trkpt lat="45.79596715089321" lon="9.129607297892456"><ele>385.0</ele><time>2026-04-25T12:10:01.003Z</time></trkpt><trkpt lat="45.79604352866532" lon="9.129850745800077"><ele>387.0</ele><time>2026-04-25T12:10:02.003Z</time></trkpt><trkpt lat="45.79610529780125" lon="9.130090585732999"><ele>389.0</ele><time>2026-04-25T12:10:03.003Z</time></trkpt><trkpt lat="45.79614184083961" lon="9.130340336414354"><ele>391.0</ele><time>2026-04-25T12:10:04.003Z</time></trkpt><trkpt lat="45.796137318112315" lon="9.130583946474413"><ele>391.0</ele><time>2026-04-25T12:10:05.003Z</time></trkpt><trkpt lat="45.7961454548931" lon="9.130823071547919"><ele>391.0</ele><time>2026-04-25T12:10:06.003Z</time></trkpt><trkpt lat="45.796114531202136" lon="9.131047788757227"><ele>391.0</ele><time>2026-04-25T12:10:07.003Z</time></trkpt><trkpt lat="45.79606876765508" lon="9.131245632197171"><ele>391.0</ele><time>2026-04-25T12:10:08.003Z</time></trkpt><trkpt lat="45.79601816463676" lon="9.13142451759872"><ele>391.0</ele><time>2026-04-25T12:10:09.003Z</time></trkpt><trkpt lat="45.79595667752698" lon="9.131583515824923"><ele>391.0</ele><time>2026-04-25T12:10:10.003Z</time></trkpt><trkpt lat="45.79590140591266" lon="9.13177968112254"><ele>391.0</ele><time>2026-04-25T12:10:11.003Z</time></trkpt><trkpt lat="45.795782098865104" lon="9.13197616551167"><ele>394.6666666666667</ele><time>2026-04-25T12:10:12.003Z</time></trkpt><trkpt lat="45.7957038711684" lon="9.132185418650804"><ele>398.33333333333337</ele><time>2026-04-25T12:10:13.001Z</time></trkpt><trkpt lat="45.79561706995928" lon="9.132401516517492"><ele>402.0</ele><time>2026-04-25T12:10:14.001Z</time></trkpt><trkpt lat="45.79553771069231" lon="9.132606599226287"><ele>402.0</ele><time>2026-04-25T12:10:15.001Z</time></trkpt><trkpt lat="45.795467107500045" lon="9.132791490493837"><ele>402.0</ele><time>2026-04-25T12:10:16.001Z</time></trkpt><trkpt lat="45.795399911394625" lon="9.132958721118571"><ele>402.0</ele><time>2026-04-25T12:10:17.001Z</time></trkpt><trkpt lat="45.79533285279725" lon="9.133125157686928"><ele>402.0</ele><time>2026-04-25T12:10:18.001Z</time></trkpt><trkpt lat="45.79526789266425" lon="9.13329852685349"><ele>402.25</ele><time>2026-04-25T12:10:19.001Z</time></trkpt><trkpt lat="45.79519922011621" lon="9.133471520959432"><ele>402.5</ele><time>2026-04-25T12:10:20.001Z</time></trkpt><trkpt lat="45.795126486861" lon="9.133648392621126"><ele>402.75</ele><time>2026-04-25T12:10:21.001Z</time></trkpt><trkpt lat="45.795052135840386" lon="9.133833949759552"><ele>403.0</ele><time>2026-04-25T12:10:22.001Z</time></trkpt><trkpt lat="45.794978565153855" lon="9.134026935369171"><ele>406.25</ele><time>2026-04-25T12:10:23.001Z</time></trkpt><trkpt lat="45.79491026105461" lon="9.134209859014401"><ele>409.5</ele><time>2026-04-25T12:10:24.001Z</time></trkpt><trkpt lat="45.79485590983784" lon="9.134384870997406"><ele>412.75</ele><time>2026-04-25T12:10:25.001Z</time></trkpt><trkpt lat="45.79481581618709" lon="9.134552961643436"><ele>416.0</ele><time>2026-04-25T12:10:26.001Z</time></trkpt><trkpt lat="45.79479291925808" lon="9.13473248776782"><ele>415.5</ele><time>2026-04-25T12:10:27.001Z</time></trkpt><trkpt lat="45.79477791211572" lon="9.134907704269143"><ele>415.0</ele><time>2026-04-25T12:10:28.001Z</time></trkpt><trkpt lat="45.7947223001075" lon="9.135100888288664"><ele>414.5</ele><time>2026-04-25T12:10:29.001Z</time></trkpt><trkpt lat="45.79472172100638" lon="9.135298813879656"><ele>414.0</ele><time>2026-04-25T12:10:30.001Z</time></trkpt><trkpt lat="45.79472419234804" lon="9.1355072974572"><ele>414.0</ele><time>2026-04-25T12:10:31.001Z</time></trkpt><trkpt lat="45.79472349824835" lon="9.135712368556375"><ele>414.0</ele><time>2026-04-25T12:10:32.001Z</time></trkpt><trkpt lat="45.794725553235686" lon="9.135925749900272"><ele>414.0</ele><time>2026-04-25T12:10:33.001Z</time></trkpt><trkpt lat="45.794738622171366" lon="9.136147073045578"><ele>414.0</ele><time>2026-04-25T12:10:34.001Z</time></trkpt><trkpt lat="45.79474651619679" lon="9.136378960231756"><ele>413.0</ele><time>2026-04-25T12:10:35.001Z</time></trkpt><trkpt lat="45.79475255768643" lon="9.136621917133644"><ele>412.0</ele><time>2026-04-25T12:10:36.001Z</time></trkpt><trkpt lat="45.79476204476897" lon="9.136854570362118"><ele>411.0</ele><time>2026-04-25T12:10:37.001Z</time></trkpt><trkpt lat="45.79476728923469" lon="9.137084511736683"><ele>411.0</ele><time>2026-04-25T12:10:38.001Z</time></trkpt><trkpt lat="45.79477104796772" lon="9.137317000305927"><ele>411.0</ele><time>2026-04-25T12:10:39.001Z</time></trkpt><trkpt lat="45.794776327252514" lon="9.137549370915966"><ele>411.0</ele><time>2026-04-25T12:10:40.001Z</time></trkpt><trkpt lat="45.79477791853306" lon="9.137781717187767"><ele>411.0</ele><time>2026-04-25T12:10:41.001Z</time></trkpt><trkpt lat="45.79477903592017" lon="9.138010210027629"><ele>411.0</ele><time>2026-04-25T12:10:42.001Z</time></trkpt><trkpt lat="45.79478257945154" lon="9.1382311934417"><ele>411.0</ele><time>2026-04-25T12:10:43.001Z</time></trkpt><trkpt lat="45.794789267895915" lon="9.138449553273189"><ele>411.0</ele><time>2026-04-25T12:10:44.001Z</time></trkpt><trkpt lat="45.794794709463766" lon="9.138664582302132"><ele>411.0</ele><time>2026-04-25T12:10:45.001Z</time></trkpt><trkpt lat="45.79479875082159" lon="9.138873958437213"><ele>411.0</ele><time>2026-04-25T12:10:46.001Z</time></trkpt><trkpt lat="45.794799912719455" lon="9.13907389499371"><ele>411.0</ele><time>2026-04-25T12:10:47.001Z</time></trkpt><trkpt lat="45.79479915873033" lon="9.139256836138326"><ele>411.0</ele><time>2026-04-25T12:10:48.001Z</time></trkpt><trkpt lat="45.79480045036363" lon="9.139427336466536"><ele>411.0</ele><time>2026-04-25T12:10:49.001Z</time></trkpt><trkpt lat="45.7948063174944" lon="9.139587697204531"><ele>411.0</ele><time>2026-04-25T12:10:50.001Z</time></trkpt><trkpt lat="45.7948073994931" lon="9.139741323031659"><ele>411.0</ele><time>2026-04-25T12:10:51.001Z</time></trkpt><trkpt lat="45.794814315211994" lon="9.13988867599281"><ele>411.0</ele><time>2026-04-25T12:10:52.001Z</time></trkpt><trkpt lat="45.794824834660425" lon="9.14004848165213"><ele>410.6</ele><time>2026-04-25T12:10:53.001Z</time></trkpt><trkpt lat="45.79483847612726" lon="9.140200981222184"><ele>410.20000000000005</ele><time>2026-04-25T12:10:54.001Z</time></trkpt><trkpt lat="45.79485357537651" lon="9.140346251884491"><ele>409.79999999999995</ele><time>2026-04-25T12:10:55.001Z</time></trkpt><trkpt lat="45.79484629671009" lon="9.140495219181165"><ele>409.4</ele><time>2026-04-25T12:10:56.001Z</time></trkpt><trkpt lat="45.794843150056096" lon="9.140659977469168"><ele>409.0</ele><time>2026-04-25T12:10:57.001Z</time></trkpt><trkpt lat="45.79485132003233" lon="9.140815150413353"><ele>409.0</ele><time>2026-04-25T12:10:58.001Z</time></trkpt><trkpt lat="45.79485848985693" lon="9.140976602468411"><ele>409.0</ele><time>2026-04-25T12:10:59.001Z</time></trkpt><trkpt lat="45.794852019568005" lon="9.141129466319123"><ele>409.0</ele><time>2026-04-25T12:11:00.001Z</time></trkpt><trkpt lat="45.794845973957024" lon="9.141278969251205"><ele>409.0</ele><time>2026-04-25T12:11:01.001Z</time></trkpt><trkpt lat="45.7948449554776" lon="9.141436798344904"><ele>409.0</ele><time>2026-04-25T12:11:02.001Z</time></trkpt><trkpt lat="45.7948469601335" lon="9.141607689704596"><ele>410.25</ele><time>2026-04-25T12:11:03.001Z</time></trkpt><trkpt lat="45.79485322482922" lon="9.14179614350365"><ele>411.5</ele><time>2026-04-25T12:11:04.001Z</time></trkpt><trkpt lat="45.794855370051124" lon="9.142000296960127"><ele>412.75</ele><time>2026-04-25T12:11:05.001Z</time></trkpt><trkpt lat="45.794847509583036" lon="9.142216856385895"><ele>414.0</ele><time>2026-04-25T12:11:06.001Z</time></trkpt><trkpt lat="45.79482645261105" lon="9.142446623796767"><ele>414.0</ele><time>2026-04-25T12:11:07.001Z</time></trkpt><trkpt lat="45.79481665939671" lon="9.142698537578104"><ele>414.0</ele><time>2026-04-25T12:11:08.001Z</time></trkpt><trkpt lat="45.79480688203177" lon="9.142949349168232"><ele>414.0</ele><time>2026-04-25T12:11:09.001Z</time></trkpt><trkpt lat="45.79479058684077" lon="9.143189152110674"><ele>413.0</ele><time>2026-04-25T12:11:10.002Z</time></trkpt><trkpt lat="45.794774188439725" lon="9.143431775956202"><ele>412.0</ele><time>2026-04-25T12:11:11.002Z</time></trkpt><trkpt lat="45.794780633519906" lon="9.143693251277012"><ele>411.0</ele><time>2026-04-25T12:11:12.002Z</time></trkpt><trkpt lat="45.794763203129996" lon="9.143960124146608"><ele>410.66666666666663</ele><time>2026-04-25T12:11:13.002Z</time></trkpt><trkpt lat="45.79474967848277" lon="9.144229906043973"><ele>410.3333333333333</ele><time>2026-04-25T12:11:14.002Z</time></trkpt><trkpt lat="45.79473405866187" lon="9.1445058457184"><ele>410.0</ele><time>2026-04-25T12:11:15.002Z</time></trkpt><trkpt lat="45.79468248918358" lon="9.144774152581025"><ele>409.0</ele><time>2026-04-25T12:11:16.002Z</time></trkpt><trkpt lat="45.79469663712206" lon="9.145041535741518"><ele>408.0</ele><time>2026-04-25T12:11:17.002Z</time></trkpt><trkpt lat="45.79467542209347" lon="9.145296454126703"><ele>407.0</ele><time>2026-04-25T12:11:18.002Z</time></trkpt><trkpt lat="45.79465626000434" lon="9.145551980519105"><ele>406.66666666666663</ele><time>2026-04-25T12:11:19.002Z</time></trkpt><trkpt lat="45.79463910973271" lon="9.145807248020692"><ele>406.33333333333337</ele><time>2026-04-25T12:11:20.002Z</time></trkpt><trkpt lat="45.79462288486593" lon="9.14606364659558"><ele>406.0</ele><time>2026-04-25T12:11:21.002Z</time></trkpt><trkpt lat="45.79460737256107" lon="9.146314583477155"><ele>406.0</ele><time>2026-04-25T12:11:22.002Z</time></trkpt><trkpt lat="45.79459012970393" lon="9.146549013784776"><ele>406.0</ele><time>2026-04-25T12:11:23.002Z</time></trkpt><trkpt lat="45.79454609518312" lon="9.14677302780368"><ele>406.0</ele><time>2026-04-25T12:11:24.002Z</time></trkpt><trkpt lat="45.79456017282537" lon="9.147017490746556"><ele>406.0</ele><time>2026-04-25T12:11:25.002Z</time></trkpt><trkpt lat="45.79454176921927" lon="9.147263790200824"><ele>406.0</ele><time>2026-04-25T12:11:26.002Z</time></trkpt><trkpt lat="45.79452206330098" lon="9.147511897572343"><ele>406.0</ele><time>2026-04-25T12:11:27.002Z</time></trkpt><trkpt lat="45.794508057579584" lon="9.147760861564306"><ele>406.0</ele><time>2026-04-25T12:11:28.002Z</time></trkpt><trkpt lat="45.794496255386434" lon="9.148000406130695"><ele>406.0</ele><time>2026-04-25T12:11:29.002Z</time></trkpt><trkpt lat="45.79447977910002" lon="9.148238254742338"><ele>406.0</ele><time>2026-04-25T12:11:30.002Z</time></trkpt><trkpt lat="45.79446095958294" lon="9.148467195449175"><ele>406.0</ele><time>2026-04-25T12:11:31.002Z</time></trkpt><trkpt lat="45.79444282379246" lon="9.148700942235827"><ele>406.0</ele><time>2026-04-25T12:11:32.002Z</time></trkpt><trkpt lat="45.79442226743874" lon="9.148927804042986"><ele>406.0</ele><time>2026-04-25T12:11:33.002Z</time></trkpt><trkpt lat="45.79440238166917" lon="9.149143450710264"><ele>406.0</ele><time>2026-04-25T12:11:34.002Z</time></trkpt><trkpt lat="45.79438619810902" lon="9.14934449934176"><ele>406.0</ele><time>2026-04-25T12:11:35.002Z</time></trkpt><trkpt lat="45.794380367475846" lon="9.149534958415105"><ele>406.0</ele><time>2026-04-25T12:11:36.002Z</time></trkpt><trkpt lat="45.7943720891047" lon="9.149715074657351"><ele>406.0</ele><time>2026-04-25T12:11:37.002Z</time></trkpt><trkpt lat="45.79435498571755" lon="9.149893221415311"><ele>405.8</ele><time>2026-04-25T12:11:38.002Z</time></trkpt><trkpt lat="45.79429593691856" lon="9.150055579296911"><ele>405.6</ele><time>2026-04-25T12:11:39.002Z</time></trkpt><trkpt lat="45.794267456773554" lon="9.15020819411132"><ele>405.4</ele><time>2026-04-25T12:11:40.002Z</time></trkpt><trkpt lat="45.79423858083871" lon="9.150355469741086"><ele>405.2</ele><time>2026-04-25T12:11:41.002Z</time></trkpt><trkpt lat="45.79419123746487" lon="9.150480770816687"><ele>405.0</ele><time>2026-04-25T12:11:42.002Z</time></trkpt><trkpt lat="45.79414294329261" lon="9.15059273282736"><ele>404.6</ele><time>2026-04-25T12:11:43.002Z</time></trkpt><trkpt lat="45.79411858286658" lon="9.150708544647964"><ele>404.2</ele><time>2026-04-25T12:11:44.002Z</time></trkpt><trkpt lat="45.79412227813957" lon="9.150828117282876"><ele>403.79999999999995</ele><time>2026-04-25T12:11:45.002Z</time></trkpt><trkpt lat="45.79419642220504" lon="9.150932056267862"><ele>403.4</ele><time>2026-04-25T12:11:46.002Z</time></trkpt><trkpt lat="45.79427011257086" lon="9.151035601573492"><ele>403.0</ele><time>2026-04-25T12:11:47.002Z</time></trkpt><trkpt lat="45.79432128243065" lon="9.15117254585154"><ele>403.0</ele><time>2026-04-25T12:11:48.002Z</time></trkpt><trkpt lat="45.79434598636876" lon="9.15136231265448"><ele>403.0</ele><time>2026-04-25T12:11:49.002Z</time></trkpt><trkpt lat="45.794339468495224" lon="9.151571492676654"><ele>403.0</ele><time>2026-04-25T12:11:50.002Z</time></trkpt><trkpt lat="45.794329563970834" lon="9.151788584594957"><ele>403.0</ele><time>2026-04-25T12:11:51.003Z</time></trkpt><trkpt lat="45.79432641861494" lon="9.152018504996066"><ele>403.0</ele><time>2026-04-25T12:11:52.003Z</time></trkpt><trkpt lat="45.794331767808515" lon="9.152257604643632"><ele>403.0</ele><time>2026-04-25T12:11:53.003Z</time></trkpt><trkpt lat="45.79434387289347" lon="9.152508659430204"><ele>403.0</ele><time>2026-04-25T12:11:54.003Z</time></trkpt><trkpt lat="45.794356943405646" lon="9.15278966294958"><ele>403.33333333333337</ele><time>2026-04-25T12:11:55.003Z</time></trkpt><trkpt lat="45.794365776190034" lon="9.153095612303579"><ele>403.66666666666663</ele><time>2026-04-25T12:11:56.003Z</time></trkpt><trkpt lat="45.79437693653642" lon="9.15342387639358"><ele>404.0</ele><time>2026-04-25T12:11:57.003Z</time></trkpt><trkpt lat="45.794388461056975" lon="9.153756892854911"><ele>409.0</ele><time>2026-04-25T12:11:58.003Z</time></trkpt><trkpt lat="45.794404637876646" lon="9.154095561387695"><ele>414.0</ele><time>2026-04-25T12:11:59.003Z</time></trkpt><trkpt lat="45.79441841698211" lon="9.154442691517042"><ele>414.0</ele><time>2026-04-25T12:12:00.003Z</time></trkpt><trkpt lat="45.79442958774437" lon="9.154794871337536"><ele>414.0</ele><time>2026-04-25T12:12:01.003Z</time></trkpt><trkpt lat="45.79443946423843" lon="9.155149584592635"><ele>415.5</ele><time>2026-04-25T12:12:02.003Z</time></trkpt><trkpt lat="45.79445287483134" lon="9.155507466961028"><ele>417.0</ele><time>2026-04-25T12:12:03.003Z</time></trkpt><trkpt lat="45.79446671776849" lon="9.155862753922007"><ele>418.0</ele><time>2026-04-25T12:12:04.003Z</time></trkpt><trkpt lat="45.794482076165856" lon="9.156199783514559"><ele>419.0</ele><time>2026-04-25T12:12:05.003Z</time></trkpt><trkpt lat="45.79449938884006" lon="9.156526394617616"><ele>417.0</ele><time>2026-04-25T12:12:06.003Z</time></trkpt><trkpt lat="45.79451797719826" lon="9.156833638496945"><ele>415.0</ele><time>2026-04-25T12:12:07.003Z</time></trkpt><trkpt lat="45.79449831733017" lon="9.157113307608377"><ele>413.0</ele><time>2026-04-25T12:12:08.003Z</time></trkpt><trkpt lat="45.794515002989364" lon="9.157374072525304"><ele>410.3333333333333</ele><time>2026-04-25T12:12:09.003Z</time></trkpt><trkpt lat="45.79453890299612" lon="9.157609986754863"><ele>407.66666666666663</ele><time>2026-04-25T12:12:10.003Z</time></trkpt><trkpt lat="45.79454852368555" lon="9.15782927511385"><ele>405.0</ele><time>2026-04-25T12:12:11.003Z</time></trkpt><trkpt lat="45.79455492824734" lon="9.158027571958822"><ele>404.0</ele><time>2026-04-25T12:12:12.003Z</time></trkpt><trkpt lat="45.794560730159006" lon="9.158224260968158"><ele>403.0</ele><time>2026-04-25T12:12:13.003Z</time></trkpt><trkpt lat="45.79456506813936" lon="9.158408466062397"><ele>402.0</ele><time>2026-04-25T12:12:14.003Z</time></trkpt><trkpt lat="45.79456248410265" lon="9.158581980251252"><ele>401.0</ele><time>2026-04-25T12:12:15.003Z</time></trkpt><trkpt lat="45.79456641780051" lon="9.158749145489395"><ele>401.0</ele><time>2026-04-25T12:12:16.003Z</time></trkpt><trkpt lat="45.79457335508706" lon="9.158915303242312"><ele>401.0</ele><time>2026-04-25T12:12:17.003Z</time></trkpt><trkpt lat="45.794581796563335" lon="9.159066441739178"><ele>401.0</ele><time>2026-04-25T12:12:18.003Z</time></trkpt><trkpt lat="45.79459220078011" lon="9.159209489706729"><ele>401.0</ele><time>2026-04-25T12:12:19.001Z</time></trkpt><trkpt lat="45.79459897166202" lon="9.159343170673075"><ele>401.0</ele><time>2026-04-25T12:12:20.001Z</time></trkpt><trkpt lat="45.79460596000083" lon="9.159460700729314"><ele>400.99999999999994</ele><time>2026-04-25T12:12:21.001Z</time></trkpt><trkpt lat="45.79461559401436" lon="9.159557750170565"><ele>401.0</ele><time>2026-04-25T12:12:22.001Z</time></trkpt><trkpt lat="45.794611176822244" lon="9.15967437069674"><ele>401.0</ele><time>2026-04-25T12:12:24.001Z</time></trkpt><trkpt lat="45.79460663102983" lon="9.159766233293956"><ele>401.0</ele><time>2026-04-25T12:12:26.001Z</time></trkpt><trkpt lat="45.79457571923521" lon="9.159902992290915"><ele>400.99999999999994</ele><time>2026-04-25T12:12:28.001Z</time></trkpt><trkpt lat="45.79458687003569" lon="9.160055307085553"><ele>401.0</ele><time>2026-04-25T12:12:30.001Z</time></trkpt><trkpt lat="45.79462701663737" lon="9.16014101621563"><ele>401.25</ele><time>2026-04-25T12:12:31.001Z</time></trkpt><trkpt lat="45.7946624481566" lon="9.160261136829504"><ele>401.5</ele><time>2026-04-25T12:12:32.001Z</time></trkpt><trkpt lat="45.79467241906771" lon="9.160424903239997"><ele>401.75</ele><time>2026-04-25T12:12:33.001Z</time></trkpt><trkpt lat="45.79470210091103" lon="9.160606976021569"><ele>402.0</ele><time>2026-04-25T12:12:34.001Z</time></trkpt><trkpt lat="45.794651794371546" lon="9.160815812514588"><ele>402.0</ele><time>2026-04-25T12:12:35.001Z</time></trkpt><trkpt lat="45.794648890065076" lon="9.161029029009725"><ele>402.0</ele><time>2026-04-25T12:12:36.001Z</time></trkpt><trkpt lat="45.7946427447131" lon="9.161232777103843"><ele>402.0</ele><time>2026-04-25T12:12:37.001Z</time></trkpt><trkpt lat="45.79462713692298" lon="9.161429479259114"><ele>402.0</ele><time>2026-04-25T12:12:38.001Z</time></trkpt><trkpt lat="45.79460240290864" lon="9.161635292086222"><ele>400.5</ele><time>2026-04-25T12:12:39.001Z</time></trkpt><trkpt lat="45.794573597812686" lon="9.16184037601887"><ele>399.0</ele><time>2026-04-25T12:12:40.001Z</time></trkpt><trkpt lat="45.794539289464495" lon="9.162042495791237"><ele>397.5</ele><time>2026-04-25T12:12:41.001Z</time></trkpt><trkpt lat="45.79450339183656" lon="9.162231342498558"><ele>396.0</ele><time>2026-04-25T12:12:42.001Z</time></trkpt><trkpt lat="45.79446459539632" lon="9.16242337449044"><ele>395.5</ele><time>2026-04-25T12:12:43.001Z</time></trkpt><trkpt lat="45.794425687757155" lon="9.162615077157234"><ele>395.0</ele><time>2026-04-25T12:12:44.001Z</time></trkpt><trkpt lat="45.794382058272994" lon="9.162823422878514"><ele>394.5</ele><time>2026-04-25T12:12:45.001Z</time></trkpt><trkpt lat="45.79436590731905" lon="9.163030591989878"><ele>394.0</ele><time>2026-04-25T12:12:46.001Z</time></trkpt><trkpt lat="45.79432271401793" lon="9.163224228454775"><ele>393.75</ele><time>2026-04-25T12:12:47.001Z</time></trkpt><trkpt lat="45.794285103352266" lon="9.16341215632785"><ele>393.5</ele><time>2026-04-25T12:12:48.001Z</time></trkpt><trkpt lat="45.79425223439976" lon="9.163596321744187"><ele>393.25</ele><time>2026-04-25T12:12:49.001Z</time></trkpt><trkpt lat="45.7941887152368" lon="9.163764966166797"><ele>393.0</ele><time>2026-04-25T12:12:50.001Z</time></trkpt><trkpt lat="45.79415246136251" lon="9.163941432197637"><ele>392.75</ele><time>2026-04-25T12:12:51.001Z</time></trkpt><trkpt lat="45.79411068151344" lon="9.164122245798128"><ele>392.5</ele><time>2026-04-25T12:12:52.001Z</time></trkpt><trkpt lat="45.79407672507121" lon="9.164290550459716"><ele>392.25</ele><time>2026-04-25T12:12:53.001Z</time></trkpt><trkpt lat="45.79404701771589" lon="9.16444777102093"><ele>392.0</ele><time>2026-04-25T12:12:54.001Z</time></trkpt><trkpt lat="45.79401999375205" lon="9.164597259850026"><ele>392.0</ele><time>2026-04-25T12:12:55.001Z</time></trkpt><trkpt lat="45.79399186618299" lon="9.164733049545058"><ele>392.0</ele><time>2026-04-25T12:12:56.001Z</time></trkpt><trkpt lat="45.79396566850621" lon="9.164864100716045"><ele>392.0</ele><time>2026-04-25T12:12:57.001Z</time></trkpt><trkpt lat="45.793938195366145" lon="9.164993972654287"><ele>392.0</ele><time>2026-04-25T12:12:58.001Z</time></trkpt><trkpt lat="45.79391203882155" lon="9.165117054136273"><ele>392.0</ele><time>2026-04-25T12:12:59.001Z</time></trkpt><trkpt lat="45.79388816599418" lon="9.165231547128748"><ele>391.8333333333333</ele><time>2026-04-25T12:13:00.001Z</time></trkpt><trkpt lat="45.79387050200725" lon="9.165340697073546"><ele>391.66666666666663</ele><time>2026-04-25T12:13:01.001Z</time></trkpt><trkpt lat="45.79382676564875" lon="9.165428360907576"><ele>391.5</ele><time>2026-04-25T12:13:02.001Z</time></trkpt><trkpt lat="45.79379804508581" lon="9.165543634526571"><ele>391.33333333333337</ele><time>2026-04-25T12:13:03.001Z</time></trkpt><trkpt lat="45.79376156530635" lon="9.165662362690354"><ele>391.1666666666667</ele><time>2026-04-25T12:13:04.001Z</time></trkpt><trkpt lat="45.793738416948166" lon="9.165802651943649"><ele>391.0</ele><time>2026-04-25T12:13:05.001Z</time></trkpt><trkpt lat="45.79372725064801" lon="9.16595926745618"><ele>391.0</ele><time>2026-04-25T12:13:06.001Z</time></trkpt><trkpt lat="45.7937015017357" lon="9.1661410674441"><ele>391.0</ele><time>2026-04-25T12:13:07.001Z</time></trkpt><trkpt lat="45.793659094728774" lon="9.166355349109024"><ele>391.0</ele><time>2026-04-25T12:13:08.001Z</time></trkpt><trkpt lat="45.793618550035575" lon="9.166562261049151"><ele>391.0</ele><time>2026-04-25T12:13:09.001Z</time></trkpt><trkpt lat="45.793580394105696" lon="9.166757753539912"><ele>391.25</ele><time>2026-04-25T12:13:10.001Z</time></trkpt><trkpt lat="45.79355042209033" lon="9.166935838210906"><ele>391.5</ele><time>2026-04-25T12:13:11.001Z</time></trkpt><trkpt lat="45.79352571427762" lon="9.167105566672042"><ele>391.75</ele><time>2026-04-25T12:13:12.001Z</time></trkpt><trkpt lat="45.79350899828588" lon="9.167292653758183"><ele>392.0</ele><time>2026-04-25T12:13:13.001Z</time></trkpt><trkpt lat="45.79350097013907" lon="9.167494565289566"><ele>392.0</ele><time>2026-04-25T12:13:14.001Z</time></trkpt><trkpt lat="45.793494629703176" lon="9.16768206900264"><ele>392.0</ele><time>2026-04-25T12:13:15.001Z</time></trkpt><trkpt lat="45.7934948717236" lon="9.167865938262613"><ele>392.0</ele><time>2026-04-25T12:13:16.001Z</time></trkpt><trkpt lat="45.793494290041245" lon="9.168047401991306"><ele>392.0</ele><time>2026-04-25T12:13:17.001Z</time></trkpt><trkpt lat="45.79349683841499" lon="9.168227065545981"><ele>392.75</ele><time>2026-04-25T12:13:18.002Z</time></trkpt><trkpt lat="45.79350435000211" lon="9.16839511362025"><ele>393.5</ele><time>2026-04-25T12:13:19.002Z</time></trkpt><trkpt lat="45.793512412756684" lon="9.168577716979705"><ele>394.25</ele><time>2026-04-25T12:13:20.002Z</time></trkpt><trkpt lat="45.793522587560425" lon="9.16876413684921"><ele>395.0</ele><time>2026-04-25T12:13:21.002Z</time></trkpt><trkpt lat="45.79349684272872" lon="9.168940580606195"><ele>395.66666666666663</ele><time>2026-04-25T12:13:22.002Z</time></trkpt><trkpt lat="45.793503504710586" lon="9.169139176298973"><ele>396.33333333333337</ele><time>2026-04-25T12:13:23.002Z</time></trkpt><trkpt lat="45.79351649758815" lon="9.169373105306736"><ele>397.0</ele><time>2026-04-25T12:13:24.002Z</time></trkpt><trkpt lat="45.79353278492807" lon="9.169613966914943"><ele>397.33333333333337</ele><time>2026-04-25T12:13:25.002Z</time></trkpt><trkpt lat="45.79354688280491" lon="9.169872292117741"><ele>397.66666666666663</ele><time>2026-04-25T12:13:26.002Z</time></trkpt><trkpt lat="45.7935535773085" lon="9.170130486180426"><ele>398.0</ele><time>2026-04-25T12:13:27.002Z</time></trkpt><trkpt lat="45.79355663282286" lon="9.170383369471399"><ele>398.0</ele><time>2026-04-25T12:13:28.002Z</time></trkpt><trkpt lat="45.79356291926309" lon="9.170637677675852"><ele>398.0</ele><time>2026-04-25T12:13:29.002Z</time></trkpt><trkpt lat="45.79357098360907" lon="9.170886561643778"><ele>398.0</ele><time>2026-04-25T12:13:30.002Z</time></trkpt><trkpt lat="45.79357662907767" lon="9.171133164361482"><ele>398.3333333333333</ele><time>2026-04-25T12:13:31.002Z</time></trkpt><trkpt lat="45.79358458829663" lon="9.171363387944659"><ele>398.66666666666663</ele><time>2026-04-25T12:13:32.002Z</time></trkpt><trkpt lat="45.793590186126146" lon="9.171582075153204"><ele>399.0</ele><time>2026-04-25T12:13:33.002Z</time></trkpt><trkpt lat="45.79359747197026" lon="9.171790886653275"><ele>399.0</ele><time>2026-04-25T12:13:34.002Z</time></trkpt><trkpt lat="45.7936026837646" lon="9.171990661848719"><ele>399.0</ele><time>2026-04-25T12:13:35.002Z</time></trkpt><trkpt lat="45.79361026715384" lon="9.172182566211934"><ele>399.0</ele><time>2026-04-25T12:13:36.002Z</time></trkpt><trkpt lat="45.79361504017734" lon="9.172376879918165"><ele>399.0</ele><time>2026-04-25T12:13:37.002Z</time></trkpt><trkpt lat="45.79362030372747" lon="9.17256921983768"><ele>399.0</ele><time>2026-04-25T12:13:38.002Z</time></trkpt><trkpt lat="45.79362670882323" lon="9.172766580749695"><ele>399.0</ele><time>2026-04-25T12:13:39.002Z</time></trkpt><trkpt lat="45.7936354048157" lon="9.17298653752164"><ele>399.0</ele><time>2026-04-25T12:13:40.002Z</time></trkpt><trkpt lat="45.793627745553" lon="9.173231028918343"><ele>399.0</ele><time>2026-04-25T12:13:41.002Z</time></trkpt><trkpt lat="45.793650574835354" lon="9.173486377674655"><ele>399.0</ele><time>2026-04-25T12:13:42.002Z</time></trkpt><trkpt lat="45.793651689333466" lon="9.173768143493792"><ele>399.0</ele><time>2026-04-25T12:13:43.002Z</time></trkpt><trkpt lat="45.79365711962118" lon="9.174097203308087"><ele>399.0</ele><time>2026-04-25T12:13:44.002Z</time></trkpt><trkpt lat="45.79366917555776" lon="9.174480463943489"><ele>399.0</ele><time>2026-04-25T12:13:45.002Z</time></trkpt><trkpt lat="45.79367041891117" lon="9.174872937780137"><ele>398.0</ele><time>2026-04-25T12:13:46.002Z</time></trkpt><trkpt lat="45.793681493888876" lon="9.17531703287778"><ele>397.0</ele><time>2026-04-25T12:13:47.002Z</time></trkpt><trkpt lat="45.793695135991904" lon="9.175792609571545"><ele>397.0</ele><time>2026-04-25T12:13:48.002Z</time></trkpt><trkpt lat="45.79370781387665" lon="9.176298385130819"><ele>397.0</ele><time>2026-04-25T12:13:49.002Z</time></trkpt><trkpt lat="45.79372124954508" lon="9.176812464298889"><ele>397.0</ele><time>2026-04-25T12:13:50.002Z</time></trkpt><trkpt lat="45.793735348584136" lon="9.17734051237924"><ele>397.0</ele><time>2026-04-25T12:13:51.002Z</time></trkpt><trkpt lat="45.79374820756647" lon="9.177834076778554"><ele>397.0</ele><time>2026-04-25T12:13:52.002Z</time></trkpt><trkpt lat="45.79376295009421" lon="9.178349909840872"><ele>397.0</ele><time>2026-04-25T12:13:53.002Z</time></trkpt><trkpt lat="45.793774548714644" lon="9.178858244568083"><ele>396.5</ele><time>2026-04-25T12:13:54.002Z</time></trkpt><trkpt lat="45.79378755672322" lon="9.179318771045201"><ele>396.0</ele><time>2026-04-25T12:13:55.002Z</time></trkpt><trkpt lat="45.79379830319855" lon="9.179742474302577"><ele>397.0</ele><time>2026-04-25T12:13:56.002Z</time></trkpt><trkpt lat="45.79380827978154" lon="9.180145285322501"><ele>398.0</ele><time>2026-04-25T12:13:57.002Z</time></trkpt><trkpt lat="45.79381807069875" lon="9.180533744500044"><ele>398.5</ele><time>2026-04-25T12:13:58.002Z</time></trkpt><trkpt lat="45.79382744045844" lon="9.180905854186726"><ele>399.0</ele><time>2026-04-25T12:13:59.002Z</time></trkpt><trkpt lat="45.79387049669375" lon="9.181271925018335"><ele>403.0</ele><time>2026-04-25T12:14:00.003Z</time></trkpt><trkpt lat="45.79388201324049" lon="9.181628160125072"><ele>407.0</ele><time>2026-04-25T12:14:01.003Z</time></trkpt><trkpt lat="45.79389124861482" lon="9.181975916984591"><ele>407.0</ele><time>2026-04-25T12:14:02.003Z</time></trkpt><trkpt lat="45.793901252468466" lon="9.182309936222623"><ele>407.0</ele><time>2026-04-25T12:14:03.003Z</time></trkpt><trkpt lat="45.79387044970658" lon="9.182634415365898"><ele>408.3333333333333</ele><time>2026-04-25T12:14:04.003Z</time></trkpt><trkpt lat="45.79387817466944" lon="9.182952606553846"><ele>409.66666666666663</ele><time>2026-04-25T12:14:05.003Z</time></trkpt><trkpt lat="45.79388585848885" lon="9.183266528750288"><ele>411.0</ele><time>2026-04-25T12:14:06.003Z</time></trkpt><trkpt lat="45.793894726209714" lon="9.183574763947465"><ele>411.33333333333337</ele><time>2026-04-25T12:14:07.003Z</time></trkpt><trkpt lat="45.79390276626571" lon="9.183885570965012"><ele>411.6666666666667</ele><time>2026-04-25T12:14:08.003Z</time></trkpt><trkpt lat="45.79389494032461" lon="9.184196487450711"><ele>412.0</ele><time>2026-04-25T12:14:09.003Z</time></trkpt><trkpt lat="45.793903415104225" lon="9.184512573234763"><ele>412.33333333333337</ele><time>2026-04-25T12:14:10.003Z</time></trkpt><trkpt lat="45.793919713559035" lon="9.184825229539692"><ele>412.66666666666663</ele><time>2026-04-25T12:14:11.003Z</time></trkpt><trkpt lat="45.79395308705195" lon="9.185132438189022"><ele>413.0</ele><time>2026-04-25T12:14:12.003Z</time></trkpt><trkpt lat="45.79400558308461" lon="9.185431234906714"><ele>410.3333333333333</ele><time>2026-04-25T12:14:13.003Z</time></trkpt><trkpt lat="45.7940753251526" lon="9.185727640703616"><ele>407.66666666666663</ele><time>2026-04-25T12:14:14.003Z</time></trkpt><trkpt lat="45.79414946829785" lon="9.18602297146691"><ele>405.0</ele><time>2026-04-25T12:14:15.003Z</time></trkpt><trkpt lat="45.79424282624572" lon="9.186324772660509"><ele>404.0</ele><time>2026-04-25T12:14:16.003Z</time></trkpt><trkpt lat="45.794333117749524" lon="9.186619554023048"><ele>403.0</ele><time>2026-04-25T12:14:17.003Z</time></trkpt><trkpt lat="45.79442943641395" lon="9.186923713629774"><ele>403.0</ele><time>2026-04-25T12:14:18.003Z</time></trkpt><trkpt lat="45.79453100957239" lon="9.187246280874193"><ele>403.0</ele><time>2026-04-25T12:14:19.003Z</time></trkpt><trkpt lat="45.7946445089635" lon="9.18759636818383"><ele>401.0</ele><time>2026-04-25T12:14:20.003Z</time></trkpt><trkpt lat="45.79475437001627" lon="9.187934334104892"><ele>399.0</ele><time>2026-04-25T12:14:21.003Z</time></trkpt><trkpt lat="45.79485694010091" lon="9.188263974210003"><ele>395.5</ele><time>2026-04-25T12:14:22.003Z</time></trkpt><trkpt lat="45.79496795228154" lon="9.188580526653933"><ele>392.0</ele><time>2026-04-25T12:14:23.003Z</time></trkpt><trkpt lat="45.795069543641894" lon="9.18889292588038"><ele>392.0</ele><time>2026-04-25T12:14:24.003Z</time></trkpt><trkpt lat="45.7951694328377" lon="9.189203322658233"><ele>392.0</ele><time>2026-04-25T12:14:25.001Z</time></trkpt><trkpt lat="45.795268208783845" lon="9.189504804761217"><ele>392.0</ele><time>2026-04-25T12:14:26.001Z</time></trkpt><trkpt lat="45.79536675574956" lon="9.18980319386957"><ele>392.0</ele><time>2026-04-25T12:14:27.001Z</time></trkpt><trkpt lat="45.79546402108951" lon="9.19009653972809"><ele>389.66666666666663</ele><time>2026-04-25T12:14:28.001Z</time></trkpt><trkpt lat="45.79553326210011" lon="9.190399648635124"><ele>387.33333333333337</ele><time>2026-04-25T12:14:29.001Z</time></trkpt><trkpt lat="45.79562146493397" lon="9.19068937012195"><ele>385.0</ele><time>2026-04-25T12:14:30.001Z</time></trkpt><trkpt lat="45.79570831313133" lon="9.190973478440513"><ele>380.0</ele><time>2026-04-25T12:14:31.001Z</time></trkpt><trkpt lat="45.79579648906624" lon="9.191266005970043"><ele>375.0</ele><time>2026-04-25T12:14:32.001Z</time></trkpt><trkpt lat="45.79588865790395" lon="9.191567500494802"><ele>374.5</ele><time>2026-04-25T12:14:33.001Z</time></trkpt><trkpt lat="45.79599748459039" lon="9.19187389897749"><ele>374.0</ele><time>2026-04-25T12:14:34.001Z</time></trkpt><trkpt lat="45.79609620699719" lon="9.192194390595855"><ele>372.5</ele><time>2026-04-25T12:14:35Z</time></trkpt><trkpt lat="45.79619601409773" lon="9.192522380081346"><ele>371.0</ele><time>2026-04-25T12:14:36.001Z</time></trkpt><trkpt lat="45.79629938900449" lon="9.19284928829431"><ele>371.0</ele><time>2026-04-25T12:14:37.001Z</time></trkpt><trkpt lat="45.79639869702486" lon="9.193167032060138"><ele>371.0</ele><time>2026-04-25T12:14:38Z</time></trkpt><trkpt lat="45.796477801923146" lon="9.193488064698421"><ele>368.5</ele><time>2026-04-25T12:14:39.001Z</time></trkpt><trkpt lat="45.79657176497591" lon="9.193801938342443"><ele>366.0</ele><time>2026-04-25T12:14:40.001Z</time></trkpt><trkpt lat="45.79665841012016" lon="9.194108185225277"><ele>363.0</ele><time>2026-04-25T12:14:41.001Z</time></trkpt><trkpt lat="45.79672986211613" lon="9.194423060007955"><ele>360.0</ele><time>2026-04-25T12:14:42.001Z</time></trkpt><trkpt lat="45.796775264774176" lon="9.194737095164244"><ele>358.6666666666667</ele><time>2026-04-25T12:14:43.001Z</time></trkpt><trkpt lat="45.79680391544844" lon="9.195049593825015"><ele>357.33333333333337</ele><time>2026-04-25T12:14:44.001Z</time></trkpt><trkpt lat="45.796805149021054" lon="9.19534238072648"><ele>356.0</ele><time>2026-04-25T12:14:45.001Z</time></trkpt><trkpt lat="45.79678974875971" lon="9.19563669052045"><ele>355.6666666666667</ele><time>2026-04-25T12:14:46.001Z</time></trkpt><trkpt lat="45.79676899409613" lon="9.195942451104264"><ele>355.3333333333333</ele><time>2026-04-25T12:14:47.001Z</time></trkpt><trkpt lat="45.7967422313616" lon="9.196251869806462"><ele>355.0</ele><time>2026-04-25T12:14:48.001Z</time></trkpt><trkpt lat="45.79671646770703" lon="9.196563219660451"><ele>353.0</ele><time>2026-04-25T12:14:49.001Z</time></trkpt><trkpt lat="45.79669171115969" lon="9.196861280519354"><ele>351.0</ele><time>2026-04-25T12:14:50.001Z</time></trkpt><trkpt lat="45.79666721628666" lon="9.1971542744206"><ele>349.0</ele><time>2026-04-25T12:14:51.001Z</time></trkpt><trkpt lat="45.7966348665305" lon="9.197444602356565"><ele>347.3333333333333</ele><time>2026-04-25T12:14:52.001Z</time></trkpt><trkpt lat="45.79661494693403" lon="9.197712117552175"><ele>345.6666666666667</ele><time>2026-04-25T12:14:53.001Z</time></trkpt><trkpt lat="45.79659469316447" lon="9.197980890596432"><ele>344.0</ele><time>2026-04-25T12:14:54.001Z</time></trkpt><trkpt lat="45.79657577101665" lon="9.198240675140534"><ele>343.33333333333337</ele><time>2026-04-25T12:14:55.001Z</time></trkpt><trkpt lat="45.79655956540016" lon="9.198492400516269"><ele>342.6666666666667</ele><time>2026-04-25T12:14:56.001Z</time></trkpt><trkpt lat="45.7965420055305" lon="9.198737576899159"><ele>342.0</ele><time>2026-04-25T12:14:57.001Z</time></trkpt><trkpt lat="45.79652977044533" lon="9.198976279679316"><ele>341.3333333333333</ele><time>2026-04-25T12:14:58.001Z</time></trkpt><trkpt lat="45.796496510419914" lon="9.199219043188945"><ele>340.66666666666663</ele><time>2026-04-25T12:14:59.001Z</time></trkpt><trkpt lat="45.796475548436966" lon="9.199470101069616"><ele>340.0</ele><time>2026-04-25T12:15:00.001Z</time></trkpt><trkpt lat="45.79645545677126" lon="9.199711344551968"><ele>340.25</ele><time>2026-04-25T12:15:01.001Z</time></trkpt><trkpt lat="45.7964213711771" lon="9.19992717935292"><ele>340.5</ele><time>2026-04-25T12:15:02.001Z</time></trkpt><trkpt lat="45.79641179125331" lon="9.200117994804737"><ele>340.75</ele><time>2026-04-25T12:15:03.001Z</time></trkpt><trkpt lat="45.796399911460966" lon="9.20028672170994"><ele>341.0</ele><time>2026-04-25T12:15:04.001Z</time></trkpt><trkpt lat="45.79638920014696" lon="9.20042806427249"><ele>341.0</ele><time>2026-04-25T12:15:05.001Z</time></trkpt><trkpt lat="45.79637884897468" lon="9.20054778124128"><ele>341.0</ele><time>2026-04-25T12:15:06.001Z</time></trkpt><trkpt lat="45.79637088331148" lon="9.200651266614397"><ele>341.0</ele><time>2026-04-25T12:15:07.001Z</time></trkpt><trkpt lat="45.79637761473104" lon="9.200779045933565"><ele>341.0</ele><time>2026-04-25T12:15:09.001Z</time></trkpt><trkpt lat="45.7963715180381" lon="9.200878265028312"><ele>341.0</ele><time>2026-04-25T12:15:12.001Z</time></trkpt><trkpt lat="45.79634883455739" lon="9.201003871409565"><ele>341.0</ele><time>2026-04-25T12:15:26.002Z</time></trkpt><trkpt lat="45.79635771156401" lon="9.201100821570558"><ele>340.6</ele><time>2026-04-25T12:15:27.002Z</time></trkpt><trkpt lat="45.79633387216627" lon="9.201189818281446"><ele>340.20000000000005</ele><time>2026-04-25T12:15:28.002Z</time></trkpt><trkpt lat="45.79632089197839" lon="9.201351131080974"><ele>339.79999999999995</ele><time>2026-04-25T12:15:30.002Z</time></trkpt><trkpt lat="45.796307199791855" lon="9.201521292336206"><ele>339.4</ele><time>2026-04-25T12:15:32.002Z</time></trkpt><trkpt lat="45.79639580477999" lon="9.20159170791002"><ele>339.0</ele><time>2026-04-25T12:15:33.002Z</time></trkpt><trkpt lat="45.79645826563092" lon="9.201618971802972"><ele>338.6</ele><time>2026-04-25T12:15:34.002Z</time></trkpt><trkpt lat="45.796533405737556" lon="9.201686506902885"><ele>338.2</ele><time>2026-04-25T12:15:35.002Z</time></trkpt><trkpt lat="45.79660973665357" lon="9.201750913633866"><ele>337.8</ele><time>2026-04-25T12:15:36.002Z</time></trkpt><trkpt lat="45.79669222671691" lon="9.201820056344802"><ele>337.40000000000003</ele><time>2026-04-25T12:15:37.002Z</time></trkpt><trkpt lat="45.79678604672501" lon="9.20187475344136"><ele>337.0</ele><time>2026-04-25T12:15:38.002Z</time></trkpt><trkpt lat="45.796873999608124" lon="9.201970779295536"><ele>336.75</ele><time>2026-04-25T12:15:39.002Z</time></trkpt><trkpt lat="45.79697055829358" lon="9.202052787169"><ele>336.5</ele><time>2026-04-25T12:15:40.002Z</time></trkpt><trkpt lat="45.79707225287939" lon="9.20213641873139"><ele>336.25</ele><time>2026-04-25T12:15:41.002Z</time></trkpt><trkpt lat="45.79717470071515" lon="9.202214447350958"><ele>336.0</ele><time>2026-04-25T12:15:42.002Z</time></trkpt><trkpt lat="45.79727626901954" lon="9.202294388886411"><ele>336.75</ele><time>2026-04-25T12:15:43.002Z</time></trkpt><trkpt lat="45.79737566333809" lon="9.202373062603492"><ele>337.5</ele><time>2026-04-25T12:15:44.002Z</time></trkpt><trkpt lat="45.797478632474224" lon="9.202453842662006"><ele>338.25</ele><time>2026-04-25T12:15:45.002Z</time></trkpt><trkpt lat="45.79758737988375" lon="9.20253908482937"><ele>339.0</ele><time>2026-04-25T12:15:46.002Z</time></trkpt><trkpt lat="45.797697011781146" lon="9.202653349180572"><ele>339.75</ele><time>2026-04-25T12:15:47.002Z</time></trkpt><trkpt lat="45.79781943908679" lon="9.202756421513431"><ele>340.5</ele><time>2026-04-25T12:15:48.002Z</time></trkpt><trkpt lat="45.79793978472712" lon="9.202857325305096"><ele>341.25</ele><time>2026-04-25T12:15:49.002Z</time></trkpt><trkpt lat="45.798058170258166" lon="9.202979321176032"><ele>342.0</ele><time>2026-04-25T12:15:50.002Z</time></trkpt><trkpt lat="45.79817969906152" lon="9.20307663391229"><ele>341.75</ele><time>2026-04-25T12:15:51.002Z</time></trkpt><trkpt lat="45.7983101419372" lon="9.203185064974964"><ele>341.5</ele><time>2026-04-25T12:15:52.002Z</time></trkpt><trkpt lat="45.79843445842427" lon="9.203285309314547"><ele>341.25</ele><time>2026-04-25T12:15:53.002Z</time></trkpt><trkpt lat="45.79855974909903" lon="9.203386800000512"><ele>341.0</ele><time>2026-04-25T12:15:54.002Z</time></trkpt><trkpt lat="45.79868715523935" lon="9.203485429346085"><ele>341.0</ele><time>2026-04-25T12:15:55.002Z</time></trkpt><trkpt lat="45.79881276394968" lon="9.20358219632848"><ele>341.0</ele><time>2026-04-25T12:15:56.002Z</time></trkpt><trkpt lat="45.79892716994243" lon="9.203671373615204"><ele>341.0</ele><time>2026-04-25T12:15:57.002Z</time></trkpt><trkpt lat="45.79902665808575" lon="9.203758254831786"><ele>341.0</ele><time>2026-04-25T12:15:58.002Z</time></trkpt><trkpt lat="45.79910879212051" lon="9.203851089229417"><ele>341.0</ele><time>2026-04-25T12:15:59.002Z</time></trkpt><trkpt lat="45.79918126608496" lon="9.20394281854831"><ele>341.0</ele><time>2026-04-25T12:16:00.002Z</time></trkpt><trkpt lat="45.799252778677996" lon="9.20402759295676"><ele>341.0</ele><time>2026-04-25T12:16:01.002Z</time></trkpt><trkpt lat="45.79935583503597" lon="9.204063648083824"><ele>341.0</ele><time>2026-04-25T12:16:02.002Z</time></trkpt><trkpt lat="45.799462558717025" lon="9.204072484140132"><ele>341.0</ele><time>2026-04-25T12:16:03.002Z</time></trkpt><trkpt lat="45.79961620825573" lon="9.204057055194594"><ele>342.0</ele><time>2026-04-25T12:16:04.002Z</time></trkpt><trkpt lat="45.79978636638928" lon="9.204049371685604"><ele>343.0</ele><time>2026-04-25T12:16:05.002Z</time></trkpt><trkpt lat="45.799936937286844" lon="9.204050804478362"><ele>344.0</ele><time>2026-04-25T12:16:06.002Z</time></trkpt><trkpt lat="45.80007839651831" lon="9.20404663945336"><ele>344.0</ele><time>2026-04-25T12:16:07.002Z</time></trkpt><trkpt lat="45.800204724139654" lon="9.204046225335656"><ele>344.0</ele><time>2026-04-25T12:16:08.002Z</time></trkpt><trkpt lat="45.80031747313871" lon="9.204047144235973"><ele>344.0</ele><time>2026-04-25T12:16:09.003Z</time></trkpt><trkpt lat="45.80042679198789" lon="9.204036422063666"><ele>344.0</ele><time>2026-04-25T12:16:10.003Z</time></trkpt><trkpt lat="45.80053511559609" lon="9.204048216190262"><ele>344.0</ele><time>2026-04-25T12:16:11.003Z</time></trkpt><trkpt lat="45.80064603478294" lon="9.204104567361615"><ele>344.0</ele><time>2026-04-25T12:16:12.003Z</time></trkpt><trkpt lat="45.80077472968758" lon="9.204197436755218"><ele>344.0</ele><time>2026-04-25T12:16:13.003Z</time></trkpt><trkpt lat="45.80093557137864" lon="9.20431240024638"><ele>344.0</ele><time>2026-04-25T12:16:14.003Z</time></trkpt><trkpt lat="45.801090864269106" lon="9.204438969881407"><ele>342.6666666666667</ele><time>2026-04-25T12:16:15.003Z</time></trkpt><trkpt lat="45.80123127543418" lon="9.204553021283745"><ele>341.3333333333333</ele><time>2026-04-25T12:16:16.003Z</time></trkpt><trkpt lat="45.80136880295539" lon="9.204668130402098"><ele>340.0</ele><time>2026-04-25T12:16:17.003Z</time></trkpt><trkpt lat="45.8015088693591" lon="9.204773159408223"><ele>340.66666666666663</ele><time>2026-04-25T12:16:18.003Z</time></trkpt><trkpt lat="45.80164925292097" lon="9.20487359730273"><ele>341.3333333333333</ele><time>2026-04-25T12:16:19.003Z</time></trkpt><trkpt lat="45.80177869106597" lon="9.2050198466947"><ele>342.0</ele><time>2026-04-25T12:16:20.003Z</time></trkpt><trkpt lat="45.80191682627461" lon="9.205125784370505"><ele>342.0</ele><time>2026-04-25T12:16:21.003Z</time></trkpt><trkpt lat="45.80205064562794" lon="9.205225460048684"><ele>342.0</ele><time>2026-04-25T12:16:22.003Z</time></trkpt><trkpt lat="45.802187395510046" lon="9.205328466620953"><ele>342.0</ele><time>2026-04-25T12:16:23.003Z</time></trkpt><trkpt lat="45.802324394831565" lon="9.20542919940984"><ele>342.0</ele><time>2026-04-25T12:16:24.003Z</time></trkpt><trkpt lat="45.802463080540335" lon="9.205530544214948"><ele>342.0</ele><time>2026-04-25T12:16:25.003Z</time></trkpt><trkpt lat="45.80259925470603" lon="9.205637784042905"><ele>342.0</ele><time>2026-04-25T12:16:26.003Z</time></trkpt><trkpt lat="45.80273959137364" lon="9.205752049524557"><ele>342.0</ele><time>2026-04-25T12:16:27.003Z</time></trkpt><trkpt lat="45.802882897906976" lon="9.205871244406785"><ele>342.0</ele><time>2026-04-25T12:16:28.003Z</time></trkpt><trkpt lat="45.803029288674196" lon="9.205992738688154"><ele>342.0</ele><time>2026-04-25T12:16:29.003Z</time></trkpt><trkpt lat="45.80317007479936" lon="9.206117537023834"><ele>342.0</ele><time>2026-04-25T12:16:30.003Z</time></trkpt><trkpt lat="45.803300055751514" lon="9.206241858352966"><ele>342.0</ele><time>2026-04-25T12:16:31Z</time></trkpt><trkpt lat="45.80342265011086" lon="9.206371114877612"><ele>342.0</ele><time>2026-04-25T12:16:32Z</time></trkpt><trkpt lat="45.80354266845744" lon="9.206494381128051"><ele>342.25</ele><time>2026-04-25T12:16:33Z</time></trkpt><trkpt lat="45.803662656834234" lon="9.206610644904345"><ele>342.5</ele><time>2026-04-25T12:16:34Z</time></trkpt><trkpt lat="45.80376345499037" lon="9.206743221376792"><ele>342.75</ele><time>2026-04-25T12:16:35Z</time></trkpt><trkpt lat="45.80385674583633" lon="9.206845365766409"><ele>343.0</ele><time>2026-04-25T12:16:36Z</time></trkpt><trkpt lat="45.80394464698619" lon="9.206941608973112"><ele>343.0</ele><time>2026-04-25T12:16:37Z</time></trkpt><trkpt lat="45.80401202239379" lon="9.207038716149425"><ele>343.0</ele><time>2026-04-25T12:16:38Z</time></trkpt><trkpt lat="45.80408079212396" lon="9.207117522842747"><ele>343.0</ele><time>2026-04-25T12:16:39Z</time></trkpt><trkpt lat="45.80414101513938" lon="9.20719110161008"><ele>343.0</ele><time>2026-04-25T12:16:40Z</time></trkpt><trkpt lat="45.80418899565767" lon="9.207271840495581"><ele>343.0</ele><time>2026-04-25T12:16:41Z</time></trkpt><trkpt lat="45.80423424304942" lon="9.207378106888473"><ele>343.0</ele><time>2026-04-25T12:16:42Z</time></trkpt><trkpt lat="45.804280836002164" lon="9.207492518597386"><ele>343.0</ele><time>2026-04-25T12:16:43Z</time></trkpt><trkpt lat="45.804321057097695" lon="9.207603732536985"><ele>343.0</ele><time>2026-04-25T12:16:44Z</time></trkpt><trkpt lat="45.80435458137699" lon="9.207707729305756"><ele>343.0</ele><time>2026-04-25T12:16:45Z</time></trkpt><trkpt lat="45.804392358589894" lon="9.207792016812721"><ele>343.0</ele><time>2026-04-25T12:16:46Z</time></trkpt><trkpt lat="45.804459197152994" lon="9.207825851599155"><ele>343.0</ele><time>2026-04-25T12:16:47Z</time></trkpt><trkpt lat="45.80453622148536" lon="9.207821759429354"><ele>343.0</ele><time>2026-04-25T12:16:48.001Z</time></trkpt><trkpt lat="45.804610341846384" lon="9.20778861689868"><ele>343.0</ele><time>2026-04-25T12:16:49.001Z</time></trkpt><trkpt lat="45.804702160071535" lon="9.207777142222701"><ele>343.0</ele><time>2026-04-25T12:16:50.001Z</time></trkpt><trkpt lat="45.80478845584304" lon="9.207836592074157"><ele>343.0</ele><time>2026-04-25T12:16:51.001Z</time></trkpt><trkpt lat="45.804876344521716" lon="9.20792241490796"><ele>343.0</ele><time>2026-04-25T12:16:52.001Z</time></trkpt><trkpt lat="45.804962655669705" lon="9.208012290715518"><ele>343.0</ele><time>2026-04-25T12:16:53.001Z</time></trkpt><trkpt lat="45.80503737200395" lon="9.208127522089407"><ele>343.0</ele><time>2026-04-25T12:16:54.001Z</time></trkpt><trkpt lat="45.80515453171168" lon="9.208272518214192"><ele>343.0</ele><time>2026-04-25T12:16:55.001Z</time></trkpt><trkpt lat="45.80528542576177" lon="9.208442399272512"><ele>343.0</ele><time>2026-04-25T12:16:56.001Z</time></trkpt><trkpt lat="45.80542025981142" lon="9.208637453667752"><ele>343.0</ele><time>2026-04-25T12:16:57.001Z</time></trkpt><trkpt lat="45.80555636839765" lon="9.208840053413441"><ele>343.0</ele><time>2026-04-25T12:16:58.001Z</time></trkpt><trkpt lat="45.80571694452707" lon="9.209051269253838"><ele>343.0</ele><time>2026-04-25T12:16:59.001Z</time></trkpt><trkpt lat="45.805863914600636" lon="9.209288165701697"><ele>345.0</ele><time>2026-04-25T12:17:00.001Z</time></trkpt><trkpt lat="45.80602875375197" lon="9.209505987876849"><ele>347.0</ele><time>2026-04-25T12:17:01.001Z</time></trkpt><trkpt lat="45.80620417876835" lon="9.209702893023408"><ele>349.0</ele><time>2026-04-25T12:17:02.001Z</time></trkpt><trkpt lat="45.80639732290564" lon="9.209851889386268"><ele>350.0</ele><time>2026-04-25T12:17:03.001Z</time></trkpt><trkpt lat="45.80658906451364" lon="9.20997042705118"><ele>351.0</ele><time>2026-04-25T12:17:04.001Z</time></trkpt><trkpt lat="45.80678849922863" lon="9.210044638004696"><ele>352.0</ele><time>2026-04-25T12:17:05.001Z</time></trkpt><trkpt lat="45.80697843287762" lon="9.21008983262413"><ele>352.0</ele><time>2026-04-25T12:17:06.001Z</time></trkpt><trkpt lat="45.80716899818246" lon="9.210086979681282"><ele>352.0</ele><time>2026-04-25T12:17:07.001Z</time></trkpt><trkpt lat="45.80733628706832" lon="9.21006485890769"><ele>352.0</ele><time>2026-04-25T12:17:08.001Z</time></trkpt><trkpt lat="45.80750070466677" lon="9.21002324124943"><ele>352.0</ele><time>2026-04-25T12:17:09.001Z</time></trkpt><trkpt lat="45.80765449707615" lon="9.209960867065602"><ele>352.0</ele><time>2026-04-25T12:17:10.001Z</time></trkpt><trkpt lat="45.80779609245437" lon="9.209891487126074"><ele>352.0</ele><time>2026-04-25T12:17:11.001Z</time></trkpt><trkpt lat="45.807939923526035" lon="9.20981582573265"><ele>354.0</ele><time>2026-04-25T12:17:12.001Z</time></trkpt><trkpt lat="45.80808602249291" lon="9.20974821425921"><ele>356.0</ele><time>2026-04-25T12:17:13.001Z</time></trkpt><trkpt lat="45.80823655295156" lon="9.209685187523641"><ele>358.0</ele><time>2026-04-25T12:17:14.001Z</time></trkpt><trkpt lat="45.80839130450577" lon="9.209618051349038"><ele>361.0</ele><time>2026-04-25T12:17:15.001Z</time></trkpt><trkpt lat="45.808543836527136" lon="9.209546804674485"><ele>364.0</ele><time>2026-04-25T12:17:16.001Z</time></trkpt><trkpt lat="45.808701690630514" lon="9.209471365130902"><ele>367.0</ele><time>2026-04-25T12:17:17.001Z</time></trkpt><trkpt lat="45.80885834519968" lon="9.209396610670723"><ele>367.0</ele><time>2026-04-25T12:17:18.001Z</time></trkpt><trkpt lat="45.80902097744566" lon="9.209321927537474"><ele>367.0</ele><time>2026-04-25T12:17:19.001Z</time></trkpt><trkpt lat="45.8091921391413" lon="9.209269128309986"><ele>367.0</ele><time>2026-04-25T12:17:20.001Z</time></trkpt><trkpt lat="45.80936931676071" lon="9.209277536612493"><ele>370.66666666666663</ele><time>2026-04-25T12:17:21.001Z</time></trkpt><trkpt lat="45.80954251362132" lon="9.209299619927693"><ele>374.3333333333333</ele><time>2026-04-25T12:17:22.001Z</time></trkpt><trkpt lat="45.80971490147555" lon="9.209351439556123"><ele>378.0</ele><time>2026-04-25T12:17:23.001Z</time></trkpt><trkpt lat="45.80987761068556" lon="9.209429585643079"><ele>378.0</ele><time>2026-04-25T12:17:24.001Z</time></trkpt><trkpt lat="45.81003992222483" lon="9.209540799531808"><ele>378.0</ele><time>2026-04-25T12:17:25.001Z</time></trkpt><trkpt lat="45.810183539220226" lon="9.209676922554555"><ele>378.0</ele><time>2026-04-25T12:17:26.001Z</time></trkpt><trkpt lat="45.81030897427499" lon="9.20982981464474"><ele>378.6666666666667</ele><time>2026-04-25T12:17:27.001Z</time></trkpt><trkpt lat="45.810429140661306" lon="9.209975909909845"><ele>379.33333333333337</ele><time>2026-04-25T12:17:28.001Z</time></trkpt><trkpt lat="45.81054255522355" lon="9.21012196894926"><ele>380.0</ele><time>2026-04-25T12:17:29.002Z</time></trkpt><trkpt lat="45.810661419773645" lon="9.21026431957586"><ele>380.0</ele><time>2026-04-25T12:17:30.002Z</time></trkpt><trkpt lat="45.810782657710625" lon="9.21040475860309"><ele>380.0</ele><time>2026-04-25T12:17:31.002Z</time></trkpt><trkpt lat="45.810903307742215" lon="9.210543909879153"><ele>380.0</ele><time>2026-04-25T12:17:32.002Z</time></trkpt><trkpt lat="45.81102641439213" lon="9.21067428233934"><ele>380.33333333333337</ele><time>2026-04-25T12:17:33.002Z</time></trkpt><trkpt lat="45.81116779844676" lon="9.210791003623173"><ele>380.6666666666667</ele><time>2026-04-25T12:17:34.002Z</time></trkpt><trkpt lat="45.811340135611395" lon="9.210881439839307"><ele>381.0</ele><time>2026-04-25T12:17:35.002Z</time></trkpt><trkpt lat="45.81153904755181" lon="9.210962221792185"><ele>381.0</ele><time>2026-04-25T12:17:36.002Z</time></trkpt><trkpt lat="45.8117323577767" lon="9.2110268734871"><ele>381.0</ele><time>2026-04-25T12:17:37.002Z</time></trkpt><trkpt lat="45.81191994361384" lon="9.211075364167826"><ele>381.0</ele><time>2026-04-25T12:17:38.002Z</time></trkpt><trkpt lat="45.81210130236785" lon="9.211124058528963"><ele>383.33333333333337</ele><time>2026-04-25T12:17:39.002Z</time></trkpt><trkpt lat="45.81227679069789" lon="9.211179109575582"><ele>385.6666666666667</ele><time>2026-04-25T12:17:40.002Z</time></trkpt><trkpt lat="45.812453325227" lon="9.211233654107367"><ele>388.0</ele><time>2026-04-25T12:17:41.002Z</time></trkpt><trkpt lat="45.812628217622525" lon="9.21128681261439"><ele>387.6666666666667</ele><time>2026-04-25T12:17:42.002Z</time></trkpt><trkpt lat="45.812806362404814" lon="9.211354145352713"><ele>387.33333333333337</ele><time>2026-04-25T12:17:43.002Z</time></trkpt><trkpt lat="45.81298393969729" lon="9.211437418757013"><ele>387.0</ele><time>2026-04-25T12:17:44.002Z</time></trkpt><trkpt lat="45.81315602630257" lon="9.21157503875757"><ele>387.0</ele><time>2026-04-25T12:17:45.002Z</time></trkpt><trkpt lat="45.81334014271733" lon="9.211706663650414"><ele>387.0</ele><time>2026-04-25T12:17:46.002Z</time></trkpt><trkpt lat="45.813508024377235" lon="9.211869276621533"><ele>387.0</ele><time>2026-04-25T12:17:47.002Z</time></trkpt><trkpt lat="45.81366007898036" lon="9.212032936902993"><ele>387.33333333333337</ele><time>2026-04-25T12:17:48.002Z</time></trkpt><trkpt lat="45.81380395268956" lon="9.212193913854236"><ele>387.6666666666667</ele><time>2026-04-25T12:17:49.002Z</time></trkpt><trkpt lat="45.813949387250894" lon="9.212351153674831"><ele>388.0</ele><time>2026-04-25T12:17:50.002Z</time></trkpt><trkpt lat="45.814098037734844" lon="9.212497840502119"><ele>388.0</ele><time>2026-04-25T12:17:51.002Z</time></trkpt><trkpt lat="45.81424218577857" lon="9.212642710736736"><ele>388.0</ele><time>2026-04-25T12:17:52.002Z</time></trkpt><trkpt lat="45.814384449243725" lon="9.212794740901769"><ele>388.0</ele><time>2026-04-25T12:17:53.002Z</time></trkpt><trkpt lat="45.81453375491313" lon="9.21295619969768"><ele>386.6666666666667</ele><time>2026-04-25T12:17:54.002Z</time></trkpt><trkpt lat="45.814672463432906" lon="9.213148502192297"><ele>385.33333333333337</ele><time>2026-04-25T12:17:55.002Z</time></trkpt><trkpt lat="45.814832751866575" lon="9.213318713378769"><ele>384.0</ele><time>2026-04-25T12:17:56.002Z</time></trkpt><trkpt lat="45.814994508454106" lon="9.213495313210407"><ele>382.3333333333333</ele><time>2026-04-25T12:17:57.002Z</time></trkpt><trkpt lat="45.815160728826676" lon="9.213670826084806"><ele>380.66666666666663</ele><time>2026-04-25T12:17:58.002Z</time></trkpt><trkpt lat="45.81533291411093" lon="9.213845280260971"><ele>379.0</ele><time>2026-04-25T12:17:59.002Z</time></trkpt><trkpt lat="45.81550016990703" lon="9.214022199152431"><ele>379.0</ele><time>2026-04-25T12:18:00.002Z</time></trkpt><trkpt lat="45.81566936020153" lon="9.214192226649622"><ele>379.0</ele><time>2026-04-25T12:18:01.002Z</time></trkpt><trkpt lat="45.81584704362789" lon="9.21435372912332"><ele>379.0</ele><time>2026-04-25T12:18:02.002Z</time></trkpt><trkpt lat="45.81603367643581" lon="9.214499789634583"><ele>379.0</ele><time>2026-04-25T12:18:03.002Z</time></trkpt><trkpt lat="45.81622725445206" lon="9.214627013587698"><ele>379.0</ele><time>2026-04-25T12:18:04.002Z</time></trkpt><trkpt lat="45.816420980453735" lon="9.214735566503569"><ele>379.0</ele><time>2026-04-25T12:18:05.002Z</time></trkpt><trkpt lat="45.81661169590461" lon="9.21483630576758"><ele>375.3333333333333</ele><time>2026-04-25T12:18:06.002Z</time></trkpt><trkpt lat="45.81680407892456" lon="9.214927219444"><ele>371.6666666666667</ele><time>2026-04-25T12:18:07.002Z</time></trkpt><trkpt lat="45.816996304051386" lon="9.215001547409987"><ele>368.0</ele><time>2026-04-25T12:18:08.002Z</time></trkpt><trkpt lat="45.81718188977677" lon="9.215067201498892"><ele>367.6666666666667</ele><time>2026-04-25T12:18:09.002Z</time></trkpt><trkpt lat="45.81736013269173" lon="9.21512723082457"><ele>367.3333333333333</ele><time>2026-04-25T12:18:10.002Z</time></trkpt><trkpt lat="45.817535159461194" lon="9.215182379057927"><ele>367.0</ele><time>2026-04-25T12:18:11.002Z</time></trkpt><trkpt lat="45.81770746928442" lon="9.215243028067333"><ele>368.3333333333333</ele><time>2026-04-25T12:18:12.003Z</time></trkpt><trkpt lat="45.817878730569355" lon="9.215308227267803"><ele>369.6666666666667</ele><time>2026-04-25T12:18:13.003Z</time></trkpt><trkpt lat="45.81806154689031" lon="9.215370661569677"><ele>371.0</ele><time>2026-04-25T12:18:14.003Z</time></trkpt><trkpt lat="45.81824774701209" lon="9.215437048853389"><ele>371.0</ele><time>2026-04-25T12:18:15.003Z</time></trkpt><trkpt lat="45.81843879073086" lon="9.21549960029762"><ele>371.0</ele><time>2026-04-25T12:18:16.003Z</time></trkpt><trkpt lat="45.8186310104119" lon="9.215567450829802"><ele>371.0</ele><time>2026-04-25T12:18:17.003Z</time></trkpt><trkpt lat="45.818826950265155" lon="9.215638193707889"><ele>370.33333333333337</ele><time>2026-04-25T12:18:18.003Z</time></trkpt><trkpt lat="45.81902617145009" lon="9.215706518161497"><ele>369.6666666666667</ele><time>2026-04-25T12:18:19.003Z</time></trkpt><trkpt lat="45.81922282613969" lon="9.215769107322838"><ele>369.0</ele><time>2026-04-25T12:18:20.003Z</time></trkpt><trkpt lat="45.8194214519177" lon="9.215839512348014"><ele>369.0</ele><time>2026-04-25T12:18:21.003Z</time></trkpt><trkpt lat="45.81962043076433" lon="9.215908468629292"><ele>369.0</ele><time>2026-04-25T12:18:22.003Z</time></trkpt><trkpt lat="45.81981852467641" lon="9.21598123114243"><ele>369.0</ele><time>2026-04-25T12:18:23.003Z</time></trkpt><trkpt lat="45.82001884675884" lon="9.216049516242062"><ele>371.3333333333333</ele><time>2026-04-25T12:18:24.003Z</time></trkpt><trkpt lat="45.820221296044764" lon="9.216116151767825"><ele>373.66666666666663</ele><time>2026-04-25T12:18:25.003Z</time></trkpt><trkpt lat="45.820415881584175" lon="9.216184703148576"><ele>376.0</ele><time>2026-04-25T12:18:26.003Z</time></trkpt><trkpt lat="45.82060899928093" lon="9.216265716891124"><ele>376.0</ele><time>2026-04-25T12:18:27.003Z</time></trkpt><trkpt lat="45.82079508627831" lon="9.216372679009075"><ele>376.0</ele><time>2026-04-25T12:18:28.003Z</time></trkpt><trkpt lat="45.8209749496897" lon="9.216504088130863"><ele>376.0</ele><time>2026-04-25T12:18:29.003Z</time></trkpt><trkpt lat="45.821143040646305" lon="9.216656307545453"><ele>374.0</ele><time>2026-04-25T12:18:30.003Z</time></trkpt><trkpt lat="45.82131148886248" lon="9.21680849100901"><ele>372.0</ele><time>2026-04-25T12:18:31.003Z</time></trkpt><trkpt lat="45.821481183349775" lon="9.216967677751173"><ele>370.0</ele><time>2026-04-25T12:18:32.003Z</time></trkpt><trkpt lat="45.82166392642336" lon="9.217130281480522"><ele>368.0</ele><time>2026-04-25T12:18:33.003Z</time></trkpt><trkpt lat="45.821849407005956" lon="9.217267676965546"><ele>366.0</ele><time>2026-04-25T12:18:34.003Z</time></trkpt><trkpt lat="45.822035637205744" lon="9.217390656599614"><ele>364.0</ele><time>2026-04-25T12:18:35.003Z</time></trkpt><trkpt lat="45.822227507707716" lon="9.21749793371235"><ele>364.0</ele><time>2026-04-25T12:18:36.003Z</time></trkpt><trkpt lat="45.822425580003056" lon="9.217599201257325"><ele>364.0</ele><time>2026-04-25T12:18:37Z</time></trkpt><trkpt lat="45.82262426232033" lon="9.217687330816462"><ele>364.0</ele><time>2026-04-25T12:18:38Z</time></trkpt><trkpt lat="45.82281389364875" lon="9.21777996717624"><ele>367.66666666666663</ele><time>2026-04-25T12:18:39Z</time></trkpt><trkpt lat="45.82300239559694" lon="9.217864047714793"><ele>371.3333333333333</ele><time>2026-04-25T12:18:40Z</time></trkpt><trkpt lat="45.82319053555938" lon="9.217955220695247"><ele>375.0</ele><time>2026-04-25T12:18:41Z</time></trkpt><trkpt lat="45.82337835107552" lon="9.218055357782143"><ele>378.66666666666663</ele><time>2026-04-25T12:18:42Z</time></trkpt><trkpt lat="45.82355976025912" lon="9.218148011336407"><ele>382.3333333333333</ele><time>2026-04-25T12:18:43Z</time></trkpt><trkpt lat="45.823748435546996" lon="9.218246294306454"><ele>386.0</ele><time>2026-04-25T12:18:44Z</time></trkpt><trkpt lat="45.82394271531259" lon="9.218339171059046"><ele>385.0</ele><time>2026-04-25T12:18:45Z</time></trkpt><trkpt lat="45.824138097661866" lon="9.21842831290517"><ele>384.0</ele><time>2026-04-25T12:18:46Z</time></trkpt><trkpt lat="45.824321119050964" lon="9.218498876338234"><ele>383.0</ele><time>2026-04-25T12:18:47Z</time></trkpt><trkpt lat="45.824488079770475" lon="9.21856946748161"><ele>383.0</ele><time>2026-04-25T12:18:48Z</time></trkpt><trkpt lat="45.82464848724247" lon="9.218641323283627"><ele>383.0</ele><time>2026-04-25T12:18:49Z</time></trkpt><trkpt lat="45.824825376216445" lon="9.218728919568516"><ele>383.0</ele><time>2026-04-25T12:18:50Z</time></trkpt><trkpt lat="45.82500021323309" lon="9.21883399155885"><ele>378.33333333333337</ele><time>2026-04-25T12:18:51Z</time></trkpt><trkpt lat="45.82516640598875" lon="9.218924249623528"><ele>373.6666666666667</ele><time>2026-04-25T12:18:52Z</time></trkpt><trkpt lat="45.82532038972832" lon="9.21903967824727"><ele>369.0</ele><time>2026-04-25T12:18:53Z</time></trkpt><trkpt lat="45.82545618519829" lon="9.219218515383893"><ele>369.0</ele><time>2026-04-25T12:18:54Z</time></trkpt><trkpt lat="45.8256165952134" lon="9.2193437998008"><ele>369.0</ele><time>2026-04-25T12:18:55Z</time></trkpt><trkpt lat="45.8257664723175" lon="9.219445359450813"><ele>369.0</ele><time>2026-04-25T12:18:56.001Z</time></trkpt><trkpt lat="45.82591337727181" lon="9.219526583108923"><ele>372.0</ele><time>2026-04-25T12:18:57.001Z</time></trkpt><trkpt lat="45.8260536530678" lon="9.219597667535428"><ele>375.0</ele><time>2026-04-25T12:18:58.001Z</time></trkpt><trkpt lat="45.82618502895024" lon="9.219662162922301"><ele>378.0</ele><time>2026-04-25T12:18:59.001Z</time></trkpt><trkpt lat="45.82631300266001" lon="9.219722466580837"><ele>381.0</ele><time>2026-04-25T12:19:00.001Z</time></trkpt><trkpt lat="45.82643578197004" lon="9.219780322610264"><ele>376.75</ele><time>2026-04-25T12:19:01.001Z</time></trkpt><trkpt lat="45.82655016659879" lon="9.219849896499401"><ele>372.5</ele><time>2026-04-25T12:19:02.001Z</time></trkpt><trkpt lat="45.82668463329463" lon="9.219900065323161"><ele>368.25</ele><time>2026-04-25T12:19:03.001Z</time></trkpt><trkpt lat="45.82682134317642" lon="9.21995233511766"><ele>364.0</ele><time>2026-04-25T12:19:04.001Z</time></trkpt><trkpt lat="45.82698923107865" lon="9.219998227719813"><ele>364.0</ele><time>2026-04-25T12:19:05.001Z</time></trkpt><trkpt lat="45.82717483853553" lon="9.220048173629484"><ele>364.0</ele><time>2026-04-25T12:19:06.001Z</time></trkpt><trkpt lat="45.82738358439615" lon="9.220082599476909"><ele>364.0</ele><time>2026-04-25T12:19:07.001Z</time></trkpt><trkpt lat="45.827582716353085" lon="9.220142028788395"><ele>367.0</ele><time>2026-04-25T12:19:08.001Z</time></trkpt><trkpt lat="45.82779786846029" lon="9.220162865691961"><ele>370.0</ele><time>2026-04-25T12:19:09.001Z</time></trkpt><trkpt lat="45.82803062008131" lon="9.220196121398875"><ele>370.0</ele><time>2026-04-25T12:19:10.001Z</time></trkpt><trkpt lat="45.82827316932075" lon="9.220227435591974"><ele>370.0</ele><time>2026-04-25T12:19:11.001Z</time></trkpt><trkpt lat="45.82850098576802" lon="9.220249300573881"><ele>376.66666666666663</ele><time>2026-04-25T12:19:12.001Z</time></trkpt><trkpt lat="45.82872860610161" lon="9.220280222989595"><ele>383.3333333333333</ele><time>2026-04-25T12:19:13.001Z</time></trkpt><trkpt lat="45.82894366163861" lon="9.22031544393178"><ele>390.0</ele><time>2026-04-25T12:19:14.001Z</time></trkpt><trkpt lat="45.82914252981419" lon="9.220371002576378"><ele>389.33333333333337</ele><time>2026-04-25T12:19:15.001Z</time></trkpt><trkpt lat="45.829341612309385" lon="9.220451540854524"><ele>388.6666666666667</ele><time>2026-04-25T12:19:16.001Z</time></trkpt><trkpt lat="45.829538383881456" lon="9.220578319409672"><ele>388.0</ele><time>2026-04-25T12:19:17.001Z</time></trkpt><trkpt lat="45.82971659672132" lon="9.220739327742715"><ele>388.0</ele><time>2026-04-25T12:19:18.001Z</time></trkpt><trkpt lat="45.829869475904" lon="9.220940076298751"><ele>388.0</ele><time>2026-04-25T12:19:19.001Z</time></trkpt><trkpt lat="45.83000687288044" lon="9.221141806979702"><ele>388.0</ele><time>2026-04-25T12:19:20.001Z</time></trkpt><trkpt lat="45.830161873400776" lon="9.22133933871014"><ele>388.0</ele><time>2026-04-25T12:19:21.001Z</time></trkpt><trkpt lat="45.83031197239139" lon="9.221520740679324"><ele>388.0</ele><time>2026-04-25T12:19:22.001Z</time></trkpt><trkpt lat="45.830457309197485" lon="9.22170513042354"><ele>388.0</ele><time>2026-04-25T12:19:23.001Z</time></trkpt><trkpt lat="45.83062108185796" lon="9.221889920960518"><ele>388.0</ele><time>2026-04-25T12:19:24.001Z</time></trkpt><trkpt lat="45.830803718164404" lon="9.222069804377163"><ele>388.0</ele><time>2026-04-25T12:19:25.001Z</time></trkpt><trkpt lat="45.83100714061641" lon="9.222224630153251"><ele>378.5</ele><time>2026-04-25T12:19:26.001Z</time></trkpt><trkpt lat="45.83123340351624" lon="9.222359814077405"><ele>369.0</ele><time>2026-04-25T12:19:27.001Z</time></trkpt><trkpt lat="45.83143383905385" lon="9.222466760390102"><ele>369.0</ele><time>2026-04-25T12:19:28.001Z</time></trkpt><trkpt lat="45.83162438373297" lon="9.222559705091399"><ele>369.0</ele><time>2026-04-25T12:19:29.001Z</time></trkpt><trkpt lat="45.831816073903155" lon="9.222652919753978"><ele>369.0</ele><time>2026-04-25T12:19:30.001Z</time></trkpt><trkpt lat="45.832011327935874" lon="9.222749357501264"><ele>378.0</ele><time>2026-04-25T12:19:31.001Z</time></trkpt><trkpt lat="45.83220104954507" lon="9.222841976619579"><ele>387.0</ele><time>2026-04-25T12:19:32.001Z</time></trkpt><trkpt lat="45.832385883980244" lon="9.222921273036313"><ele>396.0</ele><time>2026-04-25T12:19:33.001Z</time></trkpt><trkpt lat="45.8325567638746" lon="9.223011744640546"><ele>397.66666666666663</ele><time>2026-04-25T12:19:34.001Z</time></trkpt><trkpt lat="45.83271512899012" lon="9.223117697091894"><ele>399.3333333333333</ele><time>2026-04-25T12:19:35.001Z</time></trkpt><trkpt lat="45.832849522468784" lon="9.22326203682366"><ele>401.0</ele><time>2026-04-25T12:19:36.001Z</time></trkpt><trkpt lat="45.83297849516756" lon="9.22343510750948"><ele>385.66666666666663</ele><time>2026-04-25T12:19:37.001Z</time></trkpt><trkpt lat="45.83310751232531" lon="9.223643945315962"><ele>370.3333333333333</ele><time>2026-04-25T12:19:38.001Z</time></trkpt><trkpt lat="45.83322400172822" lon="9.22390402264024"><ele>355.0</ele><time>2026-04-25T12:19:39.001Z</time></trkpt><trkpt lat="45.8333324815516" lon="9.224247821750636"><ele>342.5</ele><time>2026-04-25T12:19:40.001Z</time></trkpt><trkpt lat="45.83341836551163" lon="9.224626864126032"><ele>330.0</ele><time>2026-04-25T12:19:41.002Z</time></trkpt><trkpt lat="45.833515330506174" lon="9.225032387157464"><ele>331.0</ele><time>2026-04-25T12:19:42.002Z</time></trkpt><trkpt lat="45.833604690430526" lon="9.225408145548258"><ele>332.0</ele><time>2026-04-25T12:19:43.002Z</time></trkpt><trkpt lat="45.83369502542537" lon="9.225760197595461"><ele>332.0</ele><time>2026-04-25T12:19:44.002Z</time></trkpt><trkpt lat="45.83380367176154" lon="9.22607184476044"><ele>332.0</ele><time>2026-04-25T12:19:45.002Z</time></trkpt><trkpt lat="45.83391128739348" lon="9.226390217592446"><ele>334.0</ele><time>2026-04-25T12:19:46.002Z</time></trkpt><trkpt lat="45.834030606689694" lon="9.22672369919449"><ele>336.0</ele><time>2026-04-25T12:19:47.002Z</time></trkpt><trkpt lat="45.83417971273301" lon="9.227098621425414"><ele>332.0</ele><time>2026-04-25T12:19:48.002Z</time></trkpt><trkpt lat="45.83432757488069" lon="9.227478035808298"><ele>328.0</ele><time>2026-04-25T12:19:49.002Z</time></trkpt><trkpt lat="45.83444242680784" lon="9.227834119565696"><ele>328.0</ele><time>2026-04-25T12:19:50.002Z</time></trkpt><trkpt lat="45.834539682281985" lon="9.228218319431313"><ele>328.0</ele><time>2026-04-25T12:19:51.002Z</time></trkpt><trkpt lat="45.83458765265295" lon="9.22860528184321"><ele>328.0</ele><time>2026-04-25T12:19:52.002Z</time></trkpt><trkpt lat="45.83464543808029" lon="9.228948714892521"><ele>328.0</ele><time>2026-04-25T12:19:53.002Z</time></trkpt><trkpt lat="45.834712974155956" lon="9.229276699315877"><ele>328.3333333333333</ele><time>2026-04-25T12:19:54.002Z</time></trkpt><trkpt lat="45.83475480920019" lon="9.229593074339675"><ele>328.6666666666667</ele><time>2026-04-25T12:19:55.002Z</time></trkpt><trkpt lat="45.83480727281907" lon="9.22989033486597"><ele>329.0</ele><time>2026-04-25T12:19:56.002Z</time></trkpt><trkpt lat="45.834874895152225" lon="9.23017000818811"><ele>331.6666666666667</ele><time>2026-04-25T12:19:57.002Z</time></trkpt><trkpt lat="45.834925053331496" lon="9.230438569906257"><ele>334.3333333333333</ele><time>2026-04-25T12:19:58.002Z</time></trkpt><trkpt lat="45.834968360585364" lon="9.230700661024864"><ele>337.0</ele><time>2026-04-25T12:19:59.002Z</time></trkpt><trkpt lat="45.83501560307269" lon="9.230963036554703"><ele>339.3333333333333</ele><time>2026-04-25T12:20:00.002Z</time></trkpt><trkpt lat="45.83505712935242" lon="9.23122231047902"><ele>341.6666666666667</ele><time>2026-04-25T12:20:01.002Z</time></trkpt><trkpt lat="45.835095798722634" lon="9.231458447175365"><ele>344.0</ele><time>2026-04-25T12:20:02.002Z</time></trkpt><trkpt lat="45.83515096175074" lon="9.231678389239665"><ele>341.79999999999995</ele><time>2026-04-25T12:20:03.002Z</time></trkpt><trkpt lat="45.835182123445364" lon="9.231878976585218"><ele>339.59999999999997</ele><time>2026-04-25T12:20:04.002Z</time></trkpt><trkpt lat="45.835200015320076" lon="9.232045759853282"><ele>337.4</ele><time>2026-04-25T12:20:05.002Z</time></trkpt><trkpt lat="45.835211428428586" lon="9.232171078358139"><ele>335.2</ele><time>2026-04-25T12:20:06.002Z</time></trkpt><trkpt lat="45.83525068121632" lon="9.232258341949445"><ele>333.0</ele><time>2026-04-25T12:20:07.002Z</time></trkpt><trkpt lat="45.83534553755794" lon="9.232323976018884"><ele>332.5</ele><time>2026-04-25T12:20:09.002Z</time></trkpt><trkpt lat="45.835407039432226" lon="9.232299859328235"><ele>332.0</ele><time>2026-04-25T12:20:10.002Z</time></trkpt><trkpt lat="45.83547853579817" lon="9.232282117387072"><ele>331.5</ele><time>2026-04-25T12:20:11.002Z</time></trkpt><trkpt lat="45.835564557070306" lon="9.232210480383614"><ele>331.0</ele><time>2026-04-25T12:20:13.002Z</time></trkpt><trkpt lat="45.835568871270624" lon="9.232082777550898"><ele>330.5</ele><time>2026-04-25T12:20:17.002Z</time></trkpt><trkpt lat="45.835524462687005" lon="9.232007290319995"><ele>330.0</ele><time>2026-04-25T12:20:20.002Z</time></trkpt><trkpt lat="45.83554724925535" lon="9.232118931784697"><ele>330.0</ele><time>2026-04-25T12:25:50.007Z</time></trkpt><trkpt lat="45.83548740640069" lon="9.232183545031933"><ele>330.0</ele><time>2026-04-25T12:25:54.007Z</time></trkpt><trkpt lat="45.835416241798484" lon="9.232159073901368"><ele>330.0</ele><time>2026-04-25T12:25:58.007Z</time></trkpt><trkpt lat="45.83536898541714" lon="9.232229997595317"><ele>330.0</ele><time>2026-04-25T12:26:02.007Z</time></trkpt><trkpt lat="45.835372170840344" lon="9.232342861666922"><ele>330.0</ele><time>2026-04-25T12:26:03.007Z</time></trkpt><trkpt lat="45.8353877346284" lon="9.232505526086713"><ele>330.0</ele><time>2026-04-25T12:26:04.007Z</time></trkpt><trkpt lat="45.835402473390694" lon="9.232665206150097"><ele>331.0</ele><time>2026-04-25T12:26:05.007Z</time></trkpt><trkpt lat="45.835421727638725" lon="9.232836998134855"><ele>332.0</ele><time>2026-04-25T12:26:06.007Z</time></trkpt><trkpt lat="45.83543564338791" lon="9.233029444291628"><ele>333.0</ele><time>2026-04-25T12:26:07.007Z</time></trkpt><trkpt lat="45.83533479323776" lon="9.23328378085722"><ele>334.6666666666667</ele><time>2026-04-25T12:26:08.008Z</time></trkpt><trkpt lat="45.835363612962986" lon="9.233553292422425"><ele>336.33333333333337</ele><time>2026-04-25T12:26:09.008Z</time></trkpt><trkpt lat="45.83539267905007" lon="9.233801392505937"><ele>338.0</ele><time>2026-04-25T12:26:10.008Z</time></trkpt><trkpt lat="45.83542391906924" lon="9.234026475224864"><ele>340.0</ele><time>2026-04-25T12:26:11.008Z</time></trkpt><trkpt lat="45.83545716362185" lon="9.23424018528421"><ele>342.0</ele><time>2026-04-25T12:26:12.008Z</time></trkpt><trkpt lat="45.83549688472997" lon="9.234443820082966"><ele>344.0</ele><time>2026-04-25T12:26:13.008Z</time></trkpt><trkpt lat="45.835532865771526" lon="9.234646008545797"><ele>346.0</ele><time>2026-04-25T12:26:14.008Z</time></trkpt><trkpt lat="45.83556453655395" lon="9.234852165983702"><ele>346.0</ele><time>2026-04-25T12:26:15.008Z</time></trkpt><trkpt lat="45.83559216598063" lon="9.235058177177446"><ele>346.0</ele><time>2026-04-25T12:26:16.008Z</time></trkpt><trkpt lat="45.83562033891753" lon="9.23527267643386"><ele>346.0</ele><time>2026-04-25T12:26:17.008Z</time></trkpt><trkpt lat="45.83564806998487" lon="9.235497809075737"><ele>346.3333333333333</ele><time>2026-04-25T12:26:18.008Z</time></trkpt><trkpt lat="45.83567173742329" lon="9.235723012062149"><ele>346.6666666666667</ele><time>2026-04-25T12:26:19.008Z</time></trkpt><trkpt lat="45.835694497443825" lon="9.235955278037585"><ele>347.0</ele><time>2026-04-25T12:26:20.008Z</time></trkpt><trkpt lat="45.83571960076331" lon="9.236187628370237"><ele>347.0</ele><time>2026-04-25T12:26:21.008Z</time></trkpt><trkpt lat="45.83575384718382" lon="9.236408455802836"><ele>347.0</ele><time>2026-04-25T12:26:22.008Z</time></trkpt><trkpt lat="45.8358085033418" lon="9.2366447398206"><ele>347.0</ele><time>2026-04-25T12:26:23.008Z</time></trkpt><trkpt lat="45.83589294566657" lon="9.236889498582887"><ele>349.33333333333337</ele><time>2026-04-25T12:26:24.008Z</time></trkpt><trkpt lat="45.83598800223379" lon="9.237145314138914"><ele>351.6666666666667</ele><time>2026-04-25T12:26:25.008Z</time></trkpt><trkpt lat="45.83609268599874" lon="9.237425482456716"><ele>354.0</ele><time>2026-04-25T12:26:26.008Z</time></trkpt><trkpt lat="45.836199774679294" lon="9.237717383737223"><ele>354.0</ele><time>2026-04-25T12:26:27.008Z</time></trkpt><trkpt lat="45.836307734083995" lon="9.238012448022571"><ele>354.0</ele><time>2026-04-25T12:26:28.008Z</time></trkpt><trkpt lat="45.83643326409335" lon="9.238355534207075"><ele>352.5</ele><time>2026-04-25T12:26:29.008Z</time></trkpt><trkpt lat="45.83654669710319" lon="9.238664568663099"><ele>351.0</ele><time>2026-04-25T12:26:30.008Z</time></trkpt><trkpt lat="45.836657876916" lon="9.238973006758505"><ele>349.0</ele><time>2026-04-25T12:26:31.008Z</time></trkpt><trkpt lat="45.836764651233835" lon="9.239292550154124"><ele>347.0</ele><time>2026-04-25T12:26:32.008Z</time></trkpt><trkpt lat="45.83686448385737" lon="9.239648696518957"><ele>347.0</ele><time>2026-04-25T12:26:33.008Z</time></trkpt><trkpt lat="45.836942596866216" lon="9.24001686577242"><ele>347.0</ele><time>2026-04-25T12:26:34.008Z</time></trkpt><trkpt lat="45.83702184743951" lon="9.240385333584399"><ele>343.5</ele><time>2026-04-25T12:26:35.008Z</time></trkpt><trkpt lat="45.83709240465733" lon="9.24071926209477"><ele>340.0</ele><time>2026-04-25T12:26:36.008Z</time></trkpt><trkpt lat="45.837180712780096" lon="9.241024454862107"><ele>340.0</ele><time>2026-04-25T12:26:37.008Z</time></trkpt><trkpt lat="45.83727287988785" lon="9.241303851319621"><ele>340.0</ele><time>2026-04-25T12:26:38.008Z</time></trkpt><trkpt lat="45.83738370883715" lon="9.241589510346007"><ele>340.0</ele><time>2026-04-25T12:26:39.008Z</time></trkpt><trkpt lat="45.83751328807846" lon="9.241867033876506"><ele>340.66666666666663</ele><time>2026-04-25T12:26:40.008Z</time></trkpt><trkpt lat="45.837641824881885" lon="9.24212242752221"><ele>341.3333333333333</ele><time>2026-04-25T12:26:41.008Z</time></trkpt><trkpt lat="45.83779197751895" lon="9.24235105781191"><ele>342.0</ele><time>2026-04-25T12:26:42.008Z</time></trkpt><trkpt lat="45.83794295895584" lon="9.242571301668207"><ele>342.0</ele><time>2026-04-25T12:26:43.008Z</time></trkpt><trkpt lat="45.83810254085835" lon="9.242766025987416"><ele>342.0</ele><time>2026-04-25T12:26:44.008Z</time></trkpt><trkpt lat="45.83825519845626" lon="9.242934734050719"><ele>342.0</ele><time>2026-04-25T12:26:45.008Z</time></trkpt><trkpt lat="45.838373214374336" lon="9.243137386067701"><ele>343.3333333333333</ele><time>2026-04-25T12:26:46.008Z</time></trkpt><trkpt lat="45.838467806129486" lon="9.243350549161846"><ele>344.66666666666663</ele><time>2026-04-25T12:26:47.008Z</time></trkpt><trkpt lat="45.838539801499714" lon="9.243584218466143"><ele>346.0</ele><time>2026-04-25T12:26:48.008Z</time></trkpt><trkpt lat="45.83858579614372" lon="9.24385139920456"><ele>345.0</ele><time>2026-04-25T12:26:49.008Z</time></trkpt><trkpt lat="45.83861236365542" lon="9.24413164589854"><ele>344.0</ele><time>2026-04-25T12:26:50.008Z</time></trkpt><trkpt lat="45.83865418292838" lon="9.244443443539524"><ele>343.0</ele><time>2026-04-25T12:26:51.009Z</time></trkpt><trkpt lat="45.83870408675425" lon="9.244757683102582"><ele>344.0</ele><time>2026-04-25T12:26:52.009Z</time></trkpt><trkpt lat="45.83876477509061" lon="9.245087295911617"><ele>345.0</ele><time>2026-04-25T12:26:53.009Z</time></trkpt><trkpt lat="45.83882571777362" lon="9.245395899804903"><ele>346.0</ele><time>2026-04-25T12:26:54.009Z</time></trkpt><trkpt lat="45.838896703386105" lon="9.24570260436435"><ele>347.0</ele><time>2026-04-25T12:26:55.009Z</time></trkpt><trkpt lat="45.838989031289614" lon="9.2459959717531"><ele>348.0</ele><time>2026-04-25T12:26:56.009Z</time></trkpt><trkpt lat="45.83908223412224" lon="9.24627213695994"><ele>348.3333333333333</ele><time>2026-04-25T12:26:57.009Z</time></trkpt><trkpt lat="45.83918103437481" lon="9.246522949587073"><ele>348.66666666666663</ele><time>2026-04-25T12:26:58.009Z</time></trkpt><trkpt lat="45.8392845518692" lon="9.24676848843878"><ele>349.0</ele><time>2026-04-25T12:26:59.009Z</time></trkpt><trkpt lat="45.83938359969532" lon="9.247004670206326"><ele>349.0</ele><time>2026-04-25T12:27:00.009Z</time></trkpt><trkpt lat="45.8394783842932" lon="9.247220473706548"><ele>349.0</ele><time>2026-04-25T12:27:01.009Z</time></trkpt><trkpt lat="45.83956549326734" lon="9.247427813037799"><ele>349.0</ele><time>2026-04-25T12:27:02.009Z</time></trkpt><trkpt lat="45.839643367575924" lon="9.24762391342292"><ele>350.3333333333333</ele><time>2026-04-25T12:27:03.009Z</time></trkpt><trkpt lat="45.839707625450856" lon="9.247810947098603"><ele>351.6666666666667</ele><time>2026-04-25T12:27:04.009Z</time></trkpt><trkpt lat="45.839782143971405" lon="9.248025115969565"><ele>353.0</ele><time>2026-04-25T12:27:05.009Z</time></trkpt><trkpt lat="45.839868822967475" lon="9.248276025576878"><ele>353.0</ele><time>2026-04-25T12:27:06.009Z</time></trkpt><trkpt lat="45.839968207737016" lon="9.248547810087638"><ele>353.0</ele><time>2026-04-25T12:27:07.009Z</time></trkpt><trkpt lat="45.84008913285934" lon="9.24880099572718"><ele>353.0</ele><time>2026-04-25T12:27:08.009Z</time></trkpt><trkpt lat="45.84021055873797" lon="9.249034421199848"><ele>352.33333333333337</ele><time>2026-04-25T12:27:09.009Z</time></trkpt><trkpt lat="45.84033181762125" lon="9.249275893832797"><ele>351.6666666666667</ele><time>2026-04-25T12:27:10.009Z</time></trkpt><trkpt lat="45.840438438204366" lon="9.249529590383974"><ele>351.0</ele><time>2026-04-25T12:27:11.009Z</time></trkpt><trkpt lat="45.84053184151924" lon="9.249768830772458"><ele>351.3333333333333</ele><time>2026-04-25T12:27:12.009Z</time></trkpt><trkpt lat="45.84062653876606" lon="9.250011010248981"><ele>351.66666666666663</ele><time>2026-04-25T12:27:13.009Z</time></trkpt><trkpt lat="45.840732149373046" lon="9.250272664656038"><ele>352.0</ele><time>2026-04-25T12:27:14.009Z</time></trkpt><trkpt lat="45.840837047541896" lon="9.250515422904204"><ele>351.66666666666663</ele><time>2026-04-25T12:27:15.009Z</time></trkpt><trkpt lat="45.84091543531417" lon="9.250758077296975"><ele>351.3333333333333</ele><time>2026-04-25T12:27:16.009Z</time></trkpt><trkpt lat="45.84101546539723" lon="9.250953280331816"><ele>351.0</ele><time>2026-04-25T12:27:17.009Z</time></trkpt><trkpt lat="45.84112254462339" lon="9.251134982527166"><ele>351.0</ele><time>2026-04-25T12:27:18.009Z</time></trkpt><trkpt lat="45.84123671606358" lon="9.251304190208165"><ele>351.0</ele><time>2026-04-25T12:27:19.009Z</time></trkpt><trkpt lat="45.84136677552467" lon="9.251456009435943"><ele>351.0</ele><time>2026-04-25T12:27:20.009Z</time></trkpt><trkpt lat="45.8414904386" lon="9.251642259946578"><ele>352.0</ele><time>2026-04-25T12:27:21.009Z</time></trkpt><trkpt lat="45.841623115176894" lon="9.251809086871848"><ele>353.0</ele><time>2026-04-25T12:27:22.009Z</time></trkpt><trkpt lat="45.841743799841446" lon="9.251959125509686"><ele>354.0</ele><time>2026-04-25T12:27:23.009Z</time></trkpt><trkpt lat="45.84185610503139" lon="9.252098348663557"><ele>354.0</ele><time>2026-04-25T12:27:24.009Z</time></trkpt><trkpt lat="45.8419759389748" lon="9.252213029977618"><ele>354.0</ele><time>2026-04-25T12:27:25.009Z</time></trkpt><trkpt lat="45.84208084254032" lon="9.252344075089125"><ele>354.0</ele><time>2026-04-25T12:27:26.009Z</time></trkpt><trkpt lat="45.84218536832176" lon="9.252467936177402"><ele>354.0</ele><time>2026-04-25T12:27:27.009Z</time></trkpt><trkpt lat="45.84228265858695" lon="9.2525897326671"><ele>353.75</ele><time>2026-04-25T12:27:28.009Z</time></trkpt><trkpt lat="45.84236171892668" lon="9.252729206627096"><ele>353.5</ele><time>2026-04-25T12:27:29.009Z</time></trkpt><trkpt lat="45.84245536064905" lon="9.252857435003126"><ele>353.25</ele><time>2026-04-25T12:27:30.009Z</time></trkpt><trkpt lat="45.842552984719084" lon="9.252989028990497"><ele>353.0</ele><time>2026-04-25T12:27:31.009Z</time></trkpt><trkpt lat="45.842620352438" lon="9.253142440758522"><ele>354.0</ele><time>2026-04-25T12:27:32.009Z</time></trkpt><trkpt lat="45.84269382872943" lon="9.253287234537922"><ele>355.0</ele><time>2026-04-25T12:27:33.009Z</time></trkpt><trkpt lat="45.84278680719172" lon="9.253450634539888"><ele>356.0</ele><time>2026-04-25T12:27:34.01Z</time></trkpt><trkpt lat="45.84285671018791" lon="9.253593813605114"><ele>357.0</ele><time>2026-04-25T12:27:35.01Z</time></trkpt><trkpt lat="45.84299490406192" lon="9.253726118747837"><ele>357.0</ele><time>2026-04-25T12:27:36.01Z</time></trkpt><trkpt lat="45.843131765347955" lon="9.253814108663846"><ele>357.0</ele><time>2026-04-25T12:27:37.01Z</time></trkpt><trkpt lat="45.8432529439746" lon="9.25391012377358"><ele>357.0</ele><time>2026-04-25T12:27:38.01Z</time></trkpt><trkpt lat="45.843377277016" lon="9.254007397261864"><ele>357.0</ele><time>2026-04-25T12:27:39.01Z</time></trkpt><trkpt lat="45.843498907404125" lon="9.254123860356763"><ele>356.6666666666667</ele><time>2026-04-25T12:27:40.01Z</time></trkpt><trkpt lat="45.8436232121445" lon="9.254233018638908"><ele>356.33333333333337</ele><time>2026-04-25T12:27:41.01Z</time></trkpt><trkpt lat="45.84374965138428" lon="9.254362271494923"><ele>356.0</ele><time>2026-04-25T12:27:42.01Z</time></trkpt><trkpt lat="45.84387337437403" lon="9.254490855187244"><ele>356.0</ele><time>2026-04-25T12:27:43.01Z</time></trkpt><trkpt lat="45.84399099223494" lon="9.254621982610127"><ele>356.0</ele><time>2026-04-25T12:27:44.01Z</time></trkpt><trkpt lat="45.84410907884862" lon="9.254750978672229"><ele>356.0</ele><time>2026-04-25T12:27:45.01Z</time></trkpt><trkpt lat="45.8442262106037" lon="9.254882076388617"><ele>356.0</ele><time>2026-04-25T12:27:46.01Z</time></trkpt><trkpt lat="45.84434723439016" lon="9.255011865334657"><ele>357.33333333333337</ele><time>2026-04-25T12:27:47.01Z</time></trkpt><trkpt lat="45.84446598360417" lon="9.255146124641271"><ele>358.6666666666667</ele><time>2026-04-25T12:27:48.01Z</time></trkpt><trkpt lat="45.84458813472896" lon="9.255283320282256"><ele>360.0</ele><time>2026-04-25T12:27:49.01Z</time></trkpt><trkpt lat="45.84471177224073" lon="9.255416471420817"><ele>360.0</ele><time>2026-04-25T12:27:50.01Z</time></trkpt><trkpt lat="45.84482743141376" lon="9.25553519890055"><ele>360.0</ele><time>2026-04-25T12:27:51.01Z</time></trkpt><trkpt lat="45.84493359719509" lon="9.25564692055482"><ele>360.0</ele><time>2026-04-25T12:27:52.01Z</time></trkpt><trkpt lat="45.84502226878331" lon="9.25577253955153"><ele>360.0</ele><time>2026-04-25T12:27:53.01Z</time></trkpt><trkpt lat="45.84512354758865" lon="9.255855263430057"><ele>360.0</ele><time>2026-04-25T12:27:54.01Z</time></trkpt><trkpt lat="45.845207032703385" lon="9.255969006680566"><ele>360.0</ele><time>2026-04-25T12:27:55.01Z</time></trkpt><trkpt lat="45.84529494576485" lon="9.256064256962592"><ele>360.0</ele><time>2026-04-25T12:27:56.01Z</time></trkpt><trkpt lat="45.84537573201081" lon="9.25615223339054"><ele>360.0</ele><time>2026-04-25T12:27:57.01Z</time></trkpt><trkpt lat="45.845451281583586" lon="9.25623314212118"><ele>360.0</ele><time>2026-04-25T12:27:58.01Z</time></trkpt><trkpt lat="45.84551469550903" lon="9.256304234218858"><ele>360.0</ele><time>2026-04-25T12:27:59.01Z</time></trkpt><trkpt lat="45.84556528594516" lon="9.256365661188283"><ele>360.0</ele><time>2026-04-25T12:28:00.01Z</time></trkpt><trkpt lat="45.84561671489134" lon="9.256509157046281"><ele>360.0</ele><time>2026-04-25T12:28:02.01Z</time></trkpt><trkpt lat="45.845564429876944" lon="9.256692073361878"><ele>360.0</ele><time>2026-04-25T12:28:04.01Z</time></trkpt><trkpt lat="45.8454750427779" lon="9.256815885513523"><ele>360.0</ele><time>2026-04-25T12:28:05.01Z</time></trkpt><trkpt lat="45.84538780159028" lon="9.256973208273624"><ele>360.0</ele><time>2026-04-25T12:28:06.01Z</time></trkpt><trkpt lat="45.845295949339096" lon="9.257141220334256"><ele>360.0</ele><time>2026-04-25T12:28:07.01Z</time></trkpt><trkpt lat="45.845205583013914" lon="9.25729060955913"><ele>360.0</ele><time>2026-04-25T12:28:08.01Z</time></trkpt><trkpt lat="45.84509505227259" lon="9.257411326215347"><ele>360.0</ele><time>2026-04-25T12:28:09.01Z</time></trkpt><trkpt lat="45.84497191956052" lon="9.257519726356184"><ele>360.0</ele><time>2026-04-25T12:28:10.01Z</time></trkpt><trkpt lat="45.84486029994285" lon="9.257639240630457"><ele>360.0</ele><time>2026-04-25T12:28:11.01Z</time></trkpt><trkpt lat="45.84476513781696" lon="9.257840685445714"><ele>360.0</ele><time>2026-04-25T12:28:12.01Z</time></trkpt><trkpt lat="45.84468305238574" lon="9.258097869649827"><ele>361.6666666666667</ele><time>2026-04-25T12:28:13.01Z</time></trkpt><trkpt lat="45.84459131511223" lon="9.258380997824622"><ele>363.33333333333337</ele><time>2026-04-25T12:28:14.01Z</time></trkpt><trkpt lat="45.84448558737425" lon="9.25863165277227"><ele>365.0</ele><time>2026-04-25T12:28:15.01Z</time></trkpt><trkpt lat="45.844371799252855" lon="9.258839670380224"><ele>364.6666666666667</ele><time>2026-04-25T12:28:16.01Z</time></trkpt><trkpt lat="45.844266471992455" lon="9.259029518746793"><ele>364.3333333333333</ele><time>2026-04-25T12:28:17.01Z</time></trkpt><trkpt lat="45.84417160260571" lon="9.259206858241416"><ele>364.0</ele><time>2026-04-25T12:28:18.011Z</time></trkpt><trkpt lat="45.84409484947885" lon="9.259409576695901"><ele>364.0</ele><time>2026-04-25T12:28:19.011Z</time></trkpt><trkpt lat="45.84404826652139" lon="9.259622734789552"><ele>364.0</ele><time>2026-04-25T12:28:20.011Z</time></trkpt><trkpt lat="45.844035905955806" lon="9.259834955163388"><ele>364.0</ele><time>2026-04-25T12:28:21.011Z</time></trkpt><trkpt lat="45.84405329309128" lon="9.260041989359602"><ele>364.0</ele><time>2026-04-25T12:28:22.011Z</time></trkpt><trkpt lat="45.84412102449203" lon="9.260244953117054"><ele>364.66666666666663</ele><time>2026-04-25T12:28:23.011Z</time></trkpt><trkpt lat="45.84422701414871" lon="9.260455572572665"><ele>365.3333333333333</ele><time>2026-04-25T12:28:24.011Z</time></trkpt><trkpt lat="45.844337357633364" lon="9.26069956034831"><ele>366.0</ele><time>2026-04-25T12:28:25.011Z</time></trkpt><trkpt lat="45.844447330924446" lon="9.260982166341861"><ele>369.5</ele><time>2026-04-25T12:28:26.011Z</time></trkpt><trkpt lat="45.84455499246156" lon="9.261278764970445"><ele>373.0</ele><time>2026-04-25T12:28:27.011Z</time></trkpt><trkpt lat="45.844653284322874" lon="9.261565298366458"><ele>373.0</ele><time>2026-04-25T12:28:28.011Z</time></trkpt><trkpt lat="45.84479850347681" lon="9.261846873031331"><ele>373.0</ele><time>2026-04-25T12:28:29.011Z</time></trkpt><trkpt lat="45.844970599755435" lon="9.262120949733674"><ele>380.0</ele><time>2026-04-25T12:28:30.011Z</time></trkpt><trkpt lat="45.84515816562568" lon="9.262404794411772"><ele>387.0</ele><time>2026-04-25T12:28:31.011Z</time></trkpt><trkpt lat="45.84534448381269" lon="9.26266750910565"><ele>387.0</ele><time>2026-04-25T12:28:32.011Z</time></trkpt><trkpt lat="45.84551656287126" lon="9.262915453899055"><ele>387.0</ele><time>2026-04-25T12:28:33.011Z</time></trkpt><trkpt lat="45.84566092142638" lon="9.263141709396697"><ele>387.66666666666663</ele><time>2026-04-25T12:28:34.011Z</time></trkpt><trkpt lat="45.8458247605315" lon="9.26336163248562"><ele>388.3333333333333</ele><time>2026-04-25T12:28:35.011Z</time></trkpt><trkpt lat="45.84596719560299" lon="9.263556417824038"><ele>389.0</ele><time>2026-04-25T12:28:36.011Z</time></trkpt><trkpt lat="45.846102599473085" lon="9.26373096639972"><ele>389.0</ele><time>2026-04-25T12:28:37.011Z</time></trkpt><trkpt lat="45.84623345984425" lon="9.2638675764459"><ele>389.0</ele><time>2026-04-25T12:28:38.011Z</time></trkpt><trkpt lat="45.84635804648437" lon="9.263969985350357"><ele>389.0</ele><time>2026-04-25T12:28:39.011Z</time></trkpt><trkpt lat="45.846460152001164" lon="9.264049995715592"><ele>389.0</ele><time>2026-04-25T12:28:40.011Z</time></trkpt><trkpt lat="45.846547268162205" lon="9.26410239238189"><ele>387.0</ele><time>2026-04-25T12:28:41.011Z</time></trkpt><trkpt lat="45.846587193188384" lon="9.264202584365407"><ele>385.0</ele><time>2026-04-25T12:28:42.011Z</time></trkpt><trkpt lat="45.846588953315944" lon="9.264323098223656"><ele>383.0</ele><time>2026-04-25T12:28:43.011Z</time></trkpt><trkpt lat="45.84653852215278" lon="9.264465241924341"><ele>381.0</ele><time>2026-04-25T12:28:44.011Z</time></trkpt><trkpt lat="45.846426284008416" lon="9.264599190578451"><ele>379.0</ele><time>2026-04-25T12:28:45.011Z</time></trkpt><trkpt lat="45.846279910297774" lon="9.264739635182911"><ele>378.0</ele><time>2026-04-25T12:28:46.011Z</time></trkpt><trkpt lat="45.846134064898386" lon="9.264883858238512"><ele>377.0</ele><time>2026-04-25T12:28:47.011Z</time></trkpt><trkpt lat="45.84601187294191" lon="9.265023066941144"><ele>376.0</ele><time>2026-04-25T12:28:48.011Z</time></trkpt><trkpt lat="45.84590030961674" lon="9.26513491028526"><ele>376.0</ele><time>2026-04-25T12:28:49.011Z</time></trkpt><trkpt lat="45.845785380097034" lon="9.265240537975197"><ele>376.0</ele><time>2026-04-25T12:28:50.011Z</time></trkpt><trkpt lat="45.84568175366087" lon="9.265348621485167"><ele>376.0</ele><time>2026-04-25T12:28:51.011Z</time></trkpt><trkpt lat="45.845597361984446" lon="9.265474464290312"><ele>376.0</ele><time>2026-04-25T12:28:52.011Z</time></trkpt><trkpt lat="45.84554633874224" lon="9.265612899392007"><ele>376.25</ele><time>2026-04-25T12:28:53.011Z</time></trkpt><trkpt lat="45.845520888093475" lon="9.26578795627225"><ele>376.5</ele><time>2026-04-25T12:28:54.011Z</time></trkpt><trkpt lat="45.84549866865621" lon="9.265979091974144"><ele>376.75</ele><time>2026-04-25T12:28:55.011Z</time></trkpt><trkpt lat="45.845491762710246" lon="9.266164020256541"><ele>377.0</ele><time>2026-04-25T12:28:56.011Z</time></trkpt><trkpt lat="45.845498410014926" lon="9.266361256079255"><ele>377.25</ele><time>2026-04-25T12:28:57.011Z</time></trkpt><trkpt lat="45.84555043295145" lon="9.266565245586857"><ele>377.5</ele><time>2026-04-25T12:28:58.011Z</time></trkpt><trkpt lat="45.84560722919658" lon="9.266730862699772"><ele>377.75</ele><time>2026-04-25T12:28:59.011Z</time></trkpt><trkpt lat="45.84566127538296" lon="9.26685566892898"><ele>378.0</ele><time>2026-04-25T12:29:00.011Z</time></trkpt><trkpt lat="45.84569111463372" lon="9.266950526936405"><ele>378.0</ele><time>2026-04-25T12:29:01.012Z</time></trkpt><trkpt lat="45.845708097331794" lon="9.267074623788059"><ele>378.0</ele><time>2026-04-25T12:29:03.012Z</time></trkpt><trkpt lat="45.845641441392736" lon="9.267149975630318"><ele>378.0</ele><time>2026-04-25T12:29:05.012Z</time></trkpt><trkpt lat="45.8455383224741" lon="9.267198511386189"><ele>378.0</ele><time>2026-04-25T12:29:06.012Z</time></trkpt><trkpt lat="45.845402869136606" lon="9.267266552313743"><ele>378.0</ele><time>2026-04-25T12:29:07.012Z</time></trkpt><trkpt lat="45.84527822724681" lon="9.267346380483243"><ele>378.75</ele><time>2026-04-25T12:29:08.012Z</time></trkpt><trkpt lat="45.8451322605625" lon="9.267422562873298"><ele>379.5</ele><time>2026-04-25T12:29:09.012Z</time></trkpt><trkpt lat="45.84501571824744" lon="9.267483353672606"><ele>380.25</ele><time>2026-04-25T12:29:10.012Z</time></trkpt><trkpt lat="45.84491651043719" lon="9.267507222646147"><ele>381.0</ele><time>2026-04-25T12:29:11.012Z</time></trkpt><trkpt lat="45.8448460402442" lon="9.26748264306746"><ele>381.0</ele><time>2026-04-25T12:29:12.012Z</time></trkpt><trkpt lat="45.844797686854626" lon="9.267361312493318"><ele>381.0</ele><time>2026-04-25T12:29:14.012Z</time></trkpt><trkpt lat="45.84476224014061" lon="9.26747919265638"><ele>381.0</ele><time>2026-04-25T12:29:17.012Z</time></trkpt><trkpt lat="45.84475110669326" lon="9.267637821491087"><ele>381.0</ele><time>2026-04-25T12:29:19.012Z</time></trkpt><trkpt lat="45.84476475398616" lon="9.267832396244026"><ele>381.0</ele><time>2026-04-25T12:29:20.012Z</time></trkpt><trkpt lat="45.84477624568077" lon="9.26808534082057"><ele>382.33333333333337</ele><time>2026-04-25T12:29:21.012Z</time></trkpt><trkpt lat="45.844845012018126" lon="9.268354441390644"><ele>383.6666666666667</ele><time>2026-04-25T12:29:22.012Z</time></trkpt><trkpt lat="45.844900755724616" lon="9.268610153678614"><ele>385.0</ele><time>2026-04-25T12:29:23.012Z</time></trkpt><trkpt lat="45.84494772574006" lon="9.268870257169954"><ele>385.0</ele><time>2026-04-25T12:29:24.012Z</time></trkpt><trkpt lat="45.845022069251115" lon="9.269110963623078"><ele>385.0</ele><time>2026-04-25T12:29:25.012Z</time></trkpt><trkpt lat="45.84509406394119" lon="9.269344149953772"><ele>385.0</ele><time>2026-04-25T12:29:26.012Z</time></trkpt><trkpt lat="45.8451825829237" lon="9.269557391950258"><ele>385.0</ele><time>2026-04-25T12:29:27.012Z</time></trkpt><trkpt lat="45.84527521929724" lon="9.269755487299857"><ele>385.0</ele><time>2026-04-25T12:29:28.012Z</time></trkpt><trkpt lat="45.845361089089366" lon="9.269935625214217"><ele>385.0</ele><time>2026-04-25T12:29:29.012Z</time></trkpt><trkpt lat="45.8454678495552" lon="9.270095316766898"><ele>385.5</ele><time>2026-04-25T12:29:30.012Z</time></trkpt><trkpt lat="45.845575701509105" lon="9.27021504657382"><ele>386.0</ele><time>2026-04-25T12:29:31.012Z</time></trkpt><trkpt lat="45.84568812149201" lon="9.270289564360809"><ele>386.5</ele><time>2026-04-25T12:29:32.012Z</time></trkpt><trkpt lat="45.84581763940366" lon="9.270320745141422"><ele>387.0</ele><time>2026-04-25T12:29:33.012Z</time></trkpt><trkpt lat="45.845910284738785" lon="9.270359532825191"><ele>387.40000000000003</ele><time>2026-04-25T12:29:34.012Z</time></trkpt><trkpt lat="45.84597590287559" lon="9.270397347391931"><ele>387.8</ele><time>2026-04-25T12:29:35.012Z</time></trkpt><trkpt lat="45.84603109597211" lon="9.270536492959746"><ele>388.2</ele><time>2026-04-25T12:29:37.012Z</time></trkpt><trkpt lat="45.84601036087456" lon="9.270627616160906"><ele>388.6</ele><time>2026-04-25T12:29:38.012Z</time></trkpt><trkpt lat="45.845906011363596" lon="9.270749197681328"><ele>389.0</ele><time>2026-04-25T12:29:39.012Z</time></trkpt><trkpt lat="45.84578010285101" lon="9.270872386288469"><ele>389.25</ele><time>2026-04-25T12:29:40.012Z</time></trkpt><trkpt lat="45.84566759618641" lon="9.27101167857907"><ele>389.5</ele><time>2026-04-25T12:29:41.012Z</time></trkpt><trkpt lat="45.84556826715162" lon="9.27115829939507"><ele>389.75</ele><time>2026-04-25T12:29:42.012Z</time></trkpt><trkpt lat="45.84549293162914" lon="9.271299767195433"><ele>390.0</ele><time>2026-04-25T12:29:43.012Z</time></trkpt><trkpt lat="45.845425144987686" lon="9.271446560325048"><ele>390.0</ele><time>2026-04-25T12:29:44.013Z</time></trkpt><trkpt lat="45.84538911002848" lon="9.271601179215722"><ele>390.0</ele><time>2026-04-25T12:29:45.013Z</time></trkpt><trkpt lat="45.84533574624688" lon="9.271719976764166"><ele>390.0</ele><time>2026-04-25T12:29:46.013Z</time></trkpt><trkpt lat="45.84529506563243" lon="9.271804466746634"><ele>390.0</ele><time>2026-04-25T12:29:47.013Z</time></trkpt><trkpt lat="45.845192130650396" lon="9.271877407557776"><ele>390.0</ele><time>2026-04-25T12:29:49.013Z</time></trkpt><trkpt lat="45.84508416052171" lon="9.271883924985746"><ele>390.66666666666663</ele><time>2026-04-25T12:29:50.013Z</time></trkpt><trkpt lat="45.844931146250744" lon="9.271878630158648"><ele>391.3333333333333</ele><time>2026-04-25T12:29:51.013Z</time></trkpt><trkpt lat="45.84476172650862" lon="9.27185656040866"><ele>392.0</ele><time>2026-04-25T12:29:52.013Z</time></trkpt><trkpt lat="45.84460181797591" lon="9.271833863443305"><ele>392.0</ele><time>2026-04-25T12:29:53.013Z</time></trkpt><trkpt lat="45.84447249480577" lon="9.271804191067691"><ele>392.0</ele><time>2026-04-25T12:29:54.013Z</time></trkpt><trkpt lat="45.844372788833105" lon="9.271768571546843"><ele>392.0</ele><time>2026-04-25T12:29:55.013Z</time></trkpt><trkpt lat="45.8442945544713" lon="9.271745032726413"><ele>392.0</ele><time>2026-04-25T12:29:56.013Z</time></trkpt><trkpt lat="45.84413154458957" lon="9.271917313791906"><ele>392.6</ele><time>2026-04-25T12:30:06.013Z</time></trkpt><trkpt lat="45.8440355271076" lon="9.272029350628527"><ele>393.20000000000005</ele><time>2026-04-25T12:30:08.013Z</time></trkpt><trkpt lat="45.843968112357594" lon="9.272091169343385"><ele>393.8</ele><time>2026-04-25T12:30:09.013Z</time></trkpt><trkpt lat="45.84389537781292" lon="9.272160641701559"><ele>394.4</ele><time>2026-04-25T12:30:10.013Z</time></trkpt><trkpt lat="45.84381392583302" lon="9.272232485185596"><ele>395.0</ele><time>2026-04-25T12:30:11.013Z</time></trkpt><trkpt lat="45.843735733217684" lon="9.272316611762546"><ele>395.0</ele><time>2026-04-25T12:30:12.013Z</time></trkpt><trkpt lat="45.84363540615763" lon="9.272364955013497"><ele>395.0</ele><time>2026-04-25T12:30:13.013Z</time></trkpt><trkpt lat="45.84353758033931" lon="9.27239976967646"><ele>395.0</ele><time>2026-04-25T12:30:14.013Z</time></trkpt><trkpt lat="45.84343132802162" lon="9.272458075062401"><ele>395.0</ele><time>2026-04-25T12:30:15.013Z</time></trkpt><trkpt lat="45.843336085673904" lon="9.272501989644548"><ele>395.0</ele><time>2026-04-25T12:30:16.013Z</time></trkpt><trkpt lat="45.843241779232415" lon="9.272531992884764"><ele>395.6</ele><time>2026-04-25T12:30:17.013Z</time></trkpt><trkpt lat="45.84314206678007" lon="9.272554651154266"><ele>396.2</ele><time>2026-04-25T12:30:18.013Z</time></trkpt><trkpt lat="45.84306009045569" lon="9.272568068685278"><ele>396.79999999999995</ele><time>2026-04-25T12:30:19.013Z</time></trkpt><trkpt lat="45.842975493331835" lon="9.27259409881807"><ele>397.4</ele><time>2026-04-25T12:30:20.013Z</time></trkpt><trkpt lat="45.84287829849242" lon="9.272607193044355"><ele>398.0</ele><time>2026-04-25T12:30:21.013Z</time></trkpt><trkpt lat="45.842774041283974" lon="9.272621918000173"><ele>397.99999999999994</ele><time>2026-04-25T12:30:22.013Z</time></trkpt><trkpt lat="45.84268997501453" lon="9.272657271783297"><ele>398.0</ele><time>2026-04-25T12:30:23.013Z</time></trkpt><trkpt lat="45.84262258223174" lon="9.272686478614391"><ele>398.0</ele><time>2026-04-25T12:30:24.013Z</time></trkpt><trkpt lat="45.842566567309596" lon="9.272742330529287"><ele>398.0</ele><time>2026-04-25T12:30:25.013Z</time></trkpt><trkpt lat="45.842526842885384" lon="9.272822234825515"><ele>397.99999999999994</ele><time>2026-04-25T12:30:26.013Z</time></trkpt><trkpt lat="45.842539340130095" lon="9.272959780682681"><ele>398.0</ele><time>2026-04-25T12:30:28.014Z</time></trkpt><trkpt lat="45.84254475462353" lon="9.273056674963328"><ele>397.66666666666663</ele><time>2026-04-25T12:30:31.014Z</time></trkpt><trkpt lat="45.84250300823631" lon="9.273139374249745"><ele>397.3333333333333</ele><time>2026-04-25T12:30:32.014Z</time></trkpt><trkpt lat="45.84247600928091" lon="9.27326990637397"><ele>397.0</ele><time>2026-04-25T12:30:34.014Z</time></trkpt><trkpt lat="45.84253603394349" lon="9.273313926438659"><ele>396.66666666666663</ele><time>2026-04-25T12:30:35.014Z</time></trkpt><trkpt lat="45.84260592595328" lon="9.27329976318986"><ele>396.3333333333333</ele><time>2026-04-25T12:30:36.014Z</time></trkpt><trkpt lat="45.842679318872136" lon="9.273237159899663"><ele>396.0</ele><time>2026-04-25T12:30:37.014Z</time></trkpt><trkpt lat="45.84278535171968" lon="9.273169877986925"><ele>396.0</ele><time>2026-04-25T12:30:38.014Z</time></trkpt><trkpt lat="45.84291256480206" lon="9.273120982987741"><ele>396.0</ele><time>2026-04-25T12:30:39.014Z</time></trkpt><trkpt lat="45.843065871051785" lon="9.27312964832651"><ele>396.0</ele><time>2026-04-25T12:30:40.014Z</time></trkpt><trkpt lat="45.84321764538034" lon="9.273129643974864"><ele>396.0</ele><time>2026-04-25T12:30:41.014Z</time></trkpt><trkpt lat="45.84336824479778" lon="9.273117690368261"><ele>395.66666666666663</ele><time>2026-04-25T12:30:42.014Z</time></trkpt><trkpt lat="45.84352025569492" lon="9.273105622203559"><ele>395.3333333333333</ele><time>2026-04-25T12:30:43.014Z</time></trkpt><trkpt lat="45.84367053359124" lon="9.273078673154888"><ele>395.0</ele><time>2026-04-25T12:30:44.014Z</time></trkpt><trkpt lat="45.843826851218175" lon="9.273063341742205"><ele>395.0</ele><time>2026-04-25T12:30:45.014Z</time></trkpt><trkpt lat="45.843989384375355" lon="9.273050237478284"><ele>395.0</ele><time>2026-04-25T12:30:46.014Z</time></trkpt><trkpt lat="45.844147968867226" lon="9.273046376881426"><ele>395.0</ele><time>2026-04-25T12:30:47.014Z</time></trkpt><trkpt lat="45.84430858100164" lon="9.27303851131646"><ele>394.0</ele><time>2026-04-25T12:30:48.014Z</time></trkpt><trkpt lat="45.84446913852572" lon="9.273017156605347"><ele>393.0</ele><time>2026-04-25T12:30:49.014Z</time></trkpt><trkpt lat="45.84462708549638" lon="9.273014524440168"><ele>392.0</ele><time>2026-04-25T12:30:50.014Z</time></trkpt><trkpt lat="45.84477799698385" lon="9.273001860820742"><ele>392.0</ele><time>2026-04-25T12:30:51.014Z</time></trkpt><trkpt lat="45.84492247959699" lon="9.272986806730916"><ele>392.0</ele><time>2026-04-25T12:30:52.014Z</time></trkpt><trkpt lat="45.84505346015475" lon="9.272974323535696"><ele>392.0</ele><time>2026-04-25T12:30:53.014Z</time></trkpt><trkpt lat="45.84518874605999" lon="9.272962154340634"><ele>392.0</ele><time>2026-04-25T12:30:54.014Z</time></trkpt><trkpt lat="45.84531744787327" lon="9.272946068486402"><ele>391.66666666666663</ele><time>2026-04-25T12:30:55.014Z</time></trkpt><trkpt lat="45.845436425376086" lon="9.272934425160038"><ele>391.3333333333333</ele><time>2026-04-25T12:30:56.014Z</time></trkpt><trkpt lat="45.845536368673834" lon="9.272956708587548"><ele>391.0</ele><time>2026-04-25T12:30:57.014Z</time></trkpt><trkpt lat="45.84561586757661" lon="9.27294946450865"><ele>390.66666666666663</ele><time>2026-04-25T12:30:58.014Z</time></trkpt><trkpt lat="45.845678187679844" lon="9.272925783982894"><ele>390.3333333333333</ele><time>2026-04-25T12:30:59.014Z</time></trkpt><trkpt lat="45.84573790681468" lon="9.272972516324197"><ele>390.0</ele><time>2026-04-25T12:31:01.014Z</time></trkpt><trkpt lat="45.84579811644032" lon="9.273041089606561"><ele>390.0</ele><time>2026-04-25T12:31:08.014Z</time></trkpt><trkpt lat="45.84572454000105" lon="9.273027089145657"><ele>390.0</ele><time>2026-04-25T12:32:14.016Z</time></trkpt><trkpt lat="45.845672849521144" lon="9.273104218346676"><ele>390.0</ele><time>2026-04-25T12:32:28.016Z</time></trkpt><trkpt lat="45.84586246744834" lon="9.273077545852587"><ele>390.0</ele><time>2026-04-25T12:33:05.143Z</time></trkpt><trkpt lat="45.84600979272819" lon="9.273090023947725"><ele>390.5</ele><time>2026-04-25T12:33:53.143Z</time></trkpt><trkpt lat="45.84597038311134" lon="9.27301369485561"><ele>391.0</ele><time>2026-04-25T12:36:04.143Z</time></trkpt><trkpt lat="45.84596949381653" lon="9.273107694610506"><ele>391.5</ele><time>2026-04-25T12:36:36.142Z</time></trkpt><trkpt lat="45.84595618422821" lon="9.273200708164511"><ele>392.0</ele><time>2026-04-25T12:36:47.143Z</time></trkpt><trkpt lat="45.845869578647914" lon="9.27329947029649"><ele>392.5</ele><time>2026-04-25T12:37:03.308Z</time></trkpt><trkpt lat="45.845886116991224" lon="9.273426656566654"><ele>393.0</ele><time>2026-04-25T12:37:16.023Z</time></trkpt><trkpt lat="45.84590013135079" lon="9.273561054689148"><ele>393.0</ele><time>2026-04-25T12:37:24.023Z</time></trkpt><trkpt lat="45.845850257877224" lon="9.27350251670186"><ele>393.0</ele><time>2026-04-25T12:37:30.023Z</time></trkpt><trkpt lat="45.845859189949124" lon="9.273412769523851"><ele>393.0</ele><time>2026-04-25T12:37:38.023Z</time></trkpt><trkpt lat="45.84582847754236" lon="9.273316205876544"><ele>393.0</ele><time>2026-04-25T12:37:45.024Z</time></trkpt><trkpt lat="45.84580087748747" lon="9.273212070394504"><ele>393.0</ele><time>2026-04-25T12:37:53.143Z</time></trkpt><trkpt lat="45.845752654792655" lon="9.273100922041474"><ele>393.0</ele><time>2026-04-25T12:38:06.142Z</time></trkpt><trkpt lat="45.845860262751685" lon="9.273069715179123"><ele>390.0</ele><time>2026-04-25T12:38:33.025Z</time></trkpt><trkpt lat="45.845876285412416" lon="9.273207188094267"><ele>393.0</ele><time>2026-04-25T13:05:10.002Z</time></trkpt></trkseg></trk></gpx>